<?xml version="1.0" encoding="UTF-8" standalone="no" ?>
<gpx xmlns="http://www.topografix.com/GPX/1/1" xmlns:xsi="http://www.w3.org/2001/XMLSchema-instance" xsi:schemaLocation="http://www.topografix.com/GPX/1/1 http://www.topografix.com/GPX/1/1/gpx.xsd" version="1.1" creator="VisuGPX - https://www.visugpx.com">
  <metadata>
    <name>83 - V - La Motte</name>
    <desc><![CDATA[83 - V - La Motte le Muy sur la piste de Frédérick et Georges de l'Endre]]></desc>
  </metadata>
  <trk>
    <name><![CDATA[la Motte le Muy Frédérick et Georges Vendredi 2026-03-27-01]]></name>
    <trkseg>
      <trkpt lat="43.49606" lon="6.57462">
        <ele>49.2</ele>
        <time>2026-03-27T13:07:17Z</time>
      </trkpt>
      <trkpt lat="43.49606" lon="6.57462">
        <ele>49.2</ele>
        <time>2026-03-27T13:07:18Z</time>
      </trkpt>
      <trkpt lat="43.49606" lon="6.57462">
        <ele>49.2</ele>
        <time>2026-03-27T13:07:19Z</time>
      </trkpt>
      <trkpt lat="43.49606" lon="6.57462">
        <ele>49.3</ele>
        <time>2026-03-27T13:07:20Z</time>
      </trkpt>
      <trkpt lat="43.49606" lon="6.57462">
        <ele>49.4</ele>
        <time>2026-03-27T13:07:21Z</time>
      </trkpt>
      <trkpt lat="43.49607" lon="6.57463">
        <ele>49.4</ele>
        <time>2026-03-27T13:07:22Z</time>
      </trkpt>
      <trkpt lat="43.49607" lon="6.57464">
        <ele>49.4</ele>
        <time>2026-03-27T13:07:23Z</time>
      </trkpt>
      <trkpt lat="43.49608" lon="6.57464">
        <ele>49.4</ele>
        <time>2026-03-27T13:07:24Z</time>
      </trkpt>
      <trkpt lat="43.49608" lon="6.57464">
        <ele>49.4</ele>
        <time>2026-03-27T13:07:25Z</time>
      </trkpt>
      <trkpt lat="43.49607" lon="6.57464">
        <ele>49.3</ele>
        <time>2026-03-27T13:07:26Z</time>
      </trkpt>
      <trkpt lat="43.49607" lon="6.57465">
        <ele>49.3</ele>
        <time>2026-03-27T13:07:27Z</time>
      </trkpt>
      <trkpt lat="43.49606" lon="6.57465">
        <ele>49.2</ele>
        <time>2026-03-27T13:07:28Z</time>
      </trkpt>
      <trkpt lat="43.49606" lon="6.57465">
        <ele>49.1</ele>
        <time>2026-03-27T13:07:29Z</time>
      </trkpt>
      <trkpt lat="43.49606" lon="6.57465">
        <ele>49.1</ele>
        <time>2026-03-27T13:07:30Z</time>
      </trkpt>
      <trkpt lat="43.49606" lon="6.57464">
        <ele>49.1</ele>
        <time>2026-03-27T13:07:31Z</time>
      </trkpt>
      <trkpt lat="43.49606" lon="6.57464">
        <ele>49.2</ele>
        <time>2026-03-27T13:07:32Z</time>
      </trkpt>
      <trkpt lat="43.49606" lon="6.57465">
        <ele>49.3</ele>
        <time>2026-03-27T13:07:33Z</time>
      </trkpt>
      <trkpt lat="43.49607" lon="6.57464">
        <ele>49.4</ele>
        <time>2026-03-27T13:07:34Z</time>
      </trkpt>
      <trkpt lat="43.49607" lon="6.57465">
        <ele>49.3</ele>
        <time>2026-03-27T13:07:35Z</time>
      </trkpt>
      <trkpt lat="43.49608" lon="6.57464">
        <ele>49.2</ele>
        <time>2026-03-27T13:07:36Z</time>
      </trkpt>
      <trkpt lat="43.49608" lon="6.57465">
        <ele>49.2</ele>
        <time>2026-03-27T13:07:37Z</time>
      </trkpt>
      <trkpt lat="43.49608" lon="6.57465">
        <ele>49.1</ele>
        <time>2026-03-27T13:07:38Z</time>
      </trkpt>
      <trkpt lat="43.49608" lon="6.57465">
        <ele>49.2</ele>
        <time>2026-03-27T13:07:39Z</time>
      </trkpt>
      <trkpt lat="43.49607" lon="6.57465">
        <ele>49.2</ele>
        <time>2026-03-27T13:07:40Z</time>
      </trkpt>
      <trkpt lat="43.49607" lon="6.57465">
        <ele>49.2</ele>
        <time>2026-03-27T13:07:41Z</time>
      </trkpt>
      <trkpt lat="43.49606" lon="6.57465">
        <ele>49.2</ele>
        <time>2026-03-27T13:07:42Z</time>
      </trkpt>
      <trkpt lat="43.49605" lon="6.57465">
        <ele>49.1</ele>
        <time>2026-03-27T13:07:43Z</time>
      </trkpt>
      <trkpt lat="43.49604" lon="6.57465">
        <ele>49</ele>
        <time>2026-03-27T13:07:44Z</time>
      </trkpt>
      <trkpt lat="43.49603" lon="6.57466">
        <ele>49</ele>
        <time>2026-03-27T13:07:45Z</time>
      </trkpt>
      <trkpt lat="43.49603" lon="6.57466">
        <ele>48.9</ele>
        <time>2026-03-27T13:07:46Z</time>
      </trkpt>
      <trkpt lat="43.49603" lon="6.57467">
        <ele>48.9</ele>
        <time>2026-03-27T13:07:47Z</time>
      </trkpt>
      <trkpt lat="43.49602" lon="6.57468">
        <ele>49</ele>
        <time>2026-03-27T13:07:48Z</time>
      </trkpt>
      <trkpt lat="43.49602" lon="6.57469">
        <ele>48.9</ele>
        <time>2026-03-27T13:07:49Z</time>
      </trkpt>
      <trkpt lat="43.49602" lon="6.5747">
        <ele>49</ele>
        <time>2026-03-27T13:07:50Z</time>
      </trkpt>
      <trkpt lat="43.49602" lon="6.5747">
        <ele>49</ele>
        <time>2026-03-27T13:07:51Z</time>
      </trkpt>
      <trkpt lat="43.49602" lon="6.5747">
        <ele>49.1</ele>
        <time>2026-03-27T13:07:52Z</time>
      </trkpt>
      <trkpt lat="43.49602" lon="6.5747">
        <ele>49.1</ele>
        <time>2026-03-27T13:07:53Z</time>
      </trkpt>
      <trkpt lat="43.49602" lon="6.57471">
        <ele>49.1</ele>
        <time>2026-03-27T13:07:54Z</time>
      </trkpt>
      <trkpt lat="43.49602" lon="6.57471">
        <ele>49.1</ele>
        <time>2026-03-27T13:07:55Z</time>
      </trkpt>
      <trkpt lat="43.49602" lon="6.57471">
        <ele>49.1</ele>
        <time>2026-03-27T13:07:56Z</time>
      </trkpt>
      <trkpt lat="43.49603" lon="6.57471">
        <ele>49.3</ele>
        <time>2026-03-27T13:07:57Z</time>
      </trkpt>
      <trkpt lat="43.49603" lon="6.57471">
        <ele>49.4</ele>
        <time>2026-03-27T13:07:58Z</time>
      </trkpt>
      <trkpt lat="43.49603" lon="6.57471">
        <ele>49.5</ele>
        <time>2026-03-27T13:07:59Z</time>
      </trkpt>
      <trkpt lat="43.49603" lon="6.57471">
        <ele>49.4</ele>
        <time>2026-03-27T13:08:00Z</time>
      </trkpt>
      <trkpt lat="43.49603" lon="6.57471">
        <ele>49.4</ele>
        <time>2026-03-27T13:08:01Z</time>
      </trkpt>
      <trkpt lat="43.49603" lon="6.57471">
        <ele>49.3</ele>
        <time>2026-03-27T13:08:02Z</time>
      </trkpt>
      <trkpt lat="43.49603" lon="6.57471">
        <ele>49.2</ele>
        <time>2026-03-27T13:08:03Z</time>
      </trkpt>
      <trkpt lat="43.49603" lon="6.57471">
        <ele>49.2</ele>
        <time>2026-03-27T13:08:04Z</time>
      </trkpt>
      <trkpt lat="43.49603" lon="6.57471">
        <ele>49.2</ele>
        <time>2026-03-27T13:08:05Z</time>
      </trkpt>
      <trkpt lat="43.49604" lon="6.57471">
        <ele>49.1</ele>
        <time>2026-03-27T13:08:06Z</time>
      </trkpt>
      <trkpt lat="43.49604" lon="6.57471">
        <ele>49.1</ele>
        <time>2026-03-27T13:08:07Z</time>
      </trkpt>
      <trkpt lat="43.49604" lon="6.57472">
        <ele>49.1</ele>
        <time>2026-03-27T13:08:08Z</time>
      </trkpt>
      <trkpt lat="43.49604" lon="6.57472">
        <ele>49.2</ele>
        <time>2026-03-27T13:08:09Z</time>
      </trkpt>
      <trkpt lat="43.49604" lon="6.57472">
        <ele>49.2</ele>
        <time>2026-03-27T13:08:10Z</time>
      </trkpt>
      <trkpt lat="43.49604" lon="6.57472">
        <ele>49.2</ele>
        <time>2026-03-27T13:08:11Z</time>
      </trkpt>
      <trkpt lat="43.49604" lon="6.57472">
        <ele>49.2</ele>
        <time>2026-03-27T13:08:12Z</time>
      </trkpt>
      <trkpt lat="43.49604" lon="6.57472">
        <ele>49.1</ele>
        <time>2026-03-27T13:08:13Z</time>
      </trkpt>
      <trkpt lat="43.49603" lon="6.57472">
        <ele>49.1</ele>
        <time>2026-03-27T13:08:14Z</time>
      </trkpt>
      <trkpt lat="43.49603" lon="6.57472">
        <ele>49.1</ele>
        <time>2026-03-27T13:08:15Z</time>
      </trkpt>
      <trkpt lat="43.49603" lon="6.57473">
        <ele>49.1</ele>
        <time>2026-03-27T13:08:16Z</time>
      </trkpt>
      <trkpt lat="43.49603" lon="6.57473">
        <ele>48.9</ele>
        <time>2026-03-27T13:08:17Z</time>
      </trkpt>
      <trkpt lat="43.49603" lon="6.57473">
        <ele>48.9</ele>
        <time>2026-03-27T13:08:18Z</time>
      </trkpt>
      <trkpt lat="43.49603" lon="6.57473">
        <ele>48.8</ele>
        <time>2026-03-27T13:08:19Z</time>
      </trkpt>
      <trkpt lat="43.49603" lon="6.57472">
        <ele>48.7</ele>
        <time>2026-03-27T13:08:20Z</time>
      </trkpt>
      <trkpt lat="43.49603" lon="6.57473">
        <ele>48.7</ele>
        <time>2026-03-27T13:08:21Z</time>
      </trkpt>
      <trkpt lat="43.49603" lon="6.57472">
        <ele>48.7</ele>
        <time>2026-03-27T13:08:22Z</time>
      </trkpt>
      <trkpt lat="43.49603" lon="6.57473">
        <ele>48.7</ele>
        <time>2026-03-27T13:08:23Z</time>
      </trkpt>
      <trkpt lat="43.49603" lon="6.57473">
        <ele>48.7</ele>
        <time>2026-03-27T13:08:24Z</time>
      </trkpt>
      <trkpt lat="43.49602" lon="6.57473">
        <ele>48.7</ele>
        <time>2026-03-27T13:08:25Z</time>
      </trkpt>
      <trkpt lat="43.49602" lon="6.57473">
        <ele>48.7</ele>
        <time>2026-03-27T13:08:26Z</time>
      </trkpt>
      <trkpt lat="43.49602" lon="6.57473">
        <ele>48.8</ele>
        <time>2026-03-27T13:08:27Z</time>
      </trkpt>
      <trkpt lat="43.49602" lon="6.57473">
        <ele>48.8</ele>
        <time>2026-03-27T13:08:28Z</time>
      </trkpt>
      <trkpt lat="43.49602" lon="6.57473">
        <ele>48.8</ele>
        <time>2026-03-27T13:08:29Z</time>
      </trkpt>
      <trkpt lat="43.49602" lon="6.57473">
        <ele>48.8</ele>
        <time>2026-03-27T13:08:30Z</time>
      </trkpt>
      <trkpt lat="43.49602" lon="6.57474">
        <ele>48.9</ele>
        <time>2026-03-27T13:08:31Z</time>
      </trkpt>
      <trkpt lat="43.49602" lon="6.57474">
        <ele>48.9</ele>
        <time>2026-03-27T13:08:32Z</time>
      </trkpt>
      <trkpt lat="43.49602" lon="6.57474">
        <ele>49</ele>
        <time>2026-03-27T13:08:33Z</time>
      </trkpt>
      <trkpt lat="43.49602" lon="6.57474">
        <ele>49.1</ele>
        <time>2026-03-27T13:08:34Z</time>
      </trkpt>
      <trkpt lat="43.49602" lon="6.57474">
        <ele>49.1</ele>
        <time>2026-03-27T13:08:35Z</time>
      </trkpt>
      <trkpt lat="43.49602" lon="6.57474">
        <ele>49.1</ele>
        <time>2026-03-27T13:08:36Z</time>
      </trkpt>
      <trkpt lat="43.49602" lon="6.57474">
        <ele>49.1</ele>
        <time>2026-03-27T13:08:37Z</time>
      </trkpt>
      <trkpt lat="43.49602" lon="6.57475">
        <ele>49.1</ele>
        <time>2026-03-27T13:08:38Z</time>
      </trkpt>
      <trkpt lat="43.49602" lon="6.57475">
        <ele>49.1</ele>
        <time>2026-03-27T13:08:39Z</time>
      </trkpt>
      <trkpt lat="43.49602" lon="6.57475">
        <ele>49.1</ele>
        <time>2026-03-27T13:08:40Z</time>
      </trkpt>
      <trkpt lat="43.49602" lon="6.57475">
        <ele>49.2</ele>
        <time>2026-03-27T13:08:41Z</time>
      </trkpt>
      <trkpt lat="43.49603" lon="6.57475">
        <ele>49.1</ele>
        <time>2026-03-27T13:08:42Z</time>
      </trkpt>
      <trkpt lat="43.49603" lon="6.57475">
        <ele>49.1</ele>
        <time>2026-03-27T13:08:43Z</time>
      </trkpt>
      <trkpt lat="43.49603" lon="6.57475">
        <ele>49.1</ele>
        <time>2026-03-27T13:08:44Z</time>
      </trkpt>
      <trkpt lat="43.49603" lon="6.57475">
        <ele>49.2</ele>
        <time>2026-03-27T13:08:45Z</time>
      </trkpt>
      <trkpt lat="43.49603" lon="6.57475">
        <ele>49.2</ele>
        <time>2026-03-27T13:08:46Z</time>
      </trkpt>
      <trkpt lat="43.49602" lon="6.57475">
        <ele>49.1</ele>
        <time>2026-03-27T13:08:47Z</time>
      </trkpt>
      <trkpt lat="43.49602" lon="6.57475">
        <ele>49.1</ele>
        <time>2026-03-27T13:08:48Z</time>
      </trkpt>
      <trkpt lat="43.49602" lon="6.57475">
        <ele>49.1</ele>
        <time>2026-03-27T13:08:49Z</time>
      </trkpt>
      <trkpt lat="43.49602" lon="6.57475">
        <ele>49.2</ele>
        <time>2026-03-27T13:08:50Z</time>
      </trkpt>
      <trkpt lat="43.49602" lon="6.57475">
        <ele>49.1</ele>
        <time>2026-03-27T13:08:51Z</time>
      </trkpt>
      <trkpt lat="43.49602" lon="6.57475">
        <ele>49.1</ele>
        <time>2026-03-27T13:08:52Z</time>
      </trkpt>
      <trkpt lat="43.49602" lon="6.57475">
        <ele>49</ele>
        <time>2026-03-27T13:08:53Z</time>
      </trkpt>
      <trkpt lat="43.49602" lon="6.57475">
        <ele>49</ele>
        <time>2026-03-27T13:08:54Z</time>
      </trkpt>
      <trkpt lat="43.49602" lon="6.57474">
        <ele>49</ele>
        <time>2026-03-27T13:08:55Z</time>
      </trkpt>
      <trkpt lat="43.49602" lon="6.57474">
        <ele>49</ele>
        <time>2026-03-27T13:08:56Z</time>
      </trkpt>
      <trkpt lat="43.49602" lon="6.57474">
        <ele>48.9</ele>
        <time>2026-03-27T13:08:57Z</time>
      </trkpt>
      <trkpt lat="43.49602" lon="6.57474">
        <ele>48.9</ele>
        <time>2026-03-27T13:08:58Z</time>
      </trkpt>
      <trkpt lat="43.49602" lon="6.57474">
        <ele>48.9</ele>
        <time>2026-03-27T13:08:59Z</time>
      </trkpt>
      <trkpt lat="43.49602" lon="6.57474">
        <ele>49</ele>
        <time>2026-03-27T13:09:00Z</time>
      </trkpt>
      <trkpt lat="43.49602" lon="6.57474">
        <ele>49</ele>
        <time>2026-03-27T13:09:01Z</time>
      </trkpt>
      <trkpt lat="43.49602" lon="6.57474">
        <ele>49.1</ele>
        <time>2026-03-27T13:09:02Z</time>
      </trkpt>
      <trkpt lat="43.49602" lon="6.57474">
        <ele>49.1</ele>
        <time>2026-03-27T13:09:03Z</time>
      </trkpt>
      <trkpt lat="43.49602" lon="6.57474">
        <ele>49.1</ele>
        <time>2026-03-27T13:09:04Z</time>
      </trkpt>
      <trkpt lat="43.49602" lon="6.57474">
        <ele>49.1</ele>
        <time>2026-03-27T13:09:05Z</time>
      </trkpt>
      <trkpt lat="43.49602" lon="6.57474">
        <ele>49.2</ele>
        <time>2026-03-27T13:09:06Z</time>
      </trkpt>
      <trkpt lat="43.49602" lon="6.57474">
        <ele>49.2</ele>
        <time>2026-03-27T13:09:07Z</time>
      </trkpt>
      <trkpt lat="43.49602" lon="6.57474">
        <ele>49.2</ele>
        <time>2026-03-27T13:09:08Z</time>
      </trkpt>
      <trkpt lat="43.49602" lon="6.57474">
        <ele>49.2</ele>
        <time>2026-03-27T13:09:09Z</time>
      </trkpt>
      <trkpt lat="43.49602" lon="6.57474">
        <ele>49.2</ele>
        <time>2026-03-27T13:09:10Z</time>
      </trkpt>
      <trkpt lat="43.49602" lon="6.57474">
        <ele>49.2</ele>
        <time>2026-03-27T13:09:11Z</time>
      </trkpt>
      <trkpt lat="43.49602" lon="6.57474">
        <ele>49.2</ele>
        <time>2026-03-27T13:09:12Z</time>
      </trkpt>
      <trkpt lat="43.49602" lon="6.57474">
        <ele>49.2</ele>
        <time>2026-03-27T13:09:13Z</time>
      </trkpt>
      <trkpt lat="43.49602" lon="6.57474">
        <ele>49.1</ele>
        <time>2026-03-27T13:09:14Z</time>
      </trkpt>
      <trkpt lat="43.49602" lon="6.57474">
        <ele>49.2</ele>
        <time>2026-03-27T13:09:15Z</time>
      </trkpt>
      <trkpt lat="43.49602" lon="6.57474">
        <ele>49.1</ele>
        <time>2026-03-27T13:09:16Z</time>
      </trkpt>
      <trkpt lat="43.49602" lon="6.57474">
        <ele>49.1</ele>
        <time>2026-03-27T13:09:17Z</time>
      </trkpt>
      <trkpt lat="43.49602" lon="6.57474">
        <ele>49.1</ele>
        <time>2026-03-27T13:09:18Z</time>
      </trkpt>
      <trkpt lat="43.49602" lon="6.57474">
        <ele>49.1</ele>
        <time>2026-03-27T13:09:19Z</time>
      </trkpt>
      <trkpt lat="43.49602" lon="6.57474">
        <ele>49</ele>
        <time>2026-03-27T13:09:20Z</time>
      </trkpt>
      <trkpt lat="43.49602" lon="6.57474">
        <ele>49</ele>
        <time>2026-03-27T13:09:21Z</time>
      </trkpt>
      <trkpt lat="43.49602" lon="6.57474">
        <ele>49</ele>
        <time>2026-03-27T13:09:22Z</time>
      </trkpt>
      <trkpt lat="43.49602" lon="6.57474">
        <ele>49</ele>
        <time>2026-03-27T13:09:23Z</time>
      </trkpt>
      <trkpt lat="43.49602" lon="6.57474">
        <ele>49</ele>
        <time>2026-03-27T13:09:24Z</time>
      </trkpt>
      <trkpt lat="43.49602" lon="6.57474">
        <ele>48.9</ele>
        <time>2026-03-27T13:09:25Z</time>
      </trkpt>
      <trkpt lat="43.49602" lon="6.57474">
        <ele>48.9</ele>
        <time>2026-03-27T13:09:26Z</time>
      </trkpt>
      <trkpt lat="43.49602" lon="6.57474">
        <ele>48.9</ele>
        <time>2026-03-27T13:09:27Z</time>
      </trkpt>
      <trkpt lat="43.49602" lon="6.57474">
        <ele>48.9</ele>
        <time>2026-03-27T13:09:28Z</time>
      </trkpt>
      <trkpt lat="43.49602" lon="6.57474">
        <ele>48.8</ele>
        <time>2026-03-27T13:09:29Z</time>
      </trkpt>
      <trkpt lat="43.49602" lon="6.57474">
        <ele>48.8</ele>
        <time>2026-03-27T13:09:30Z</time>
      </trkpt>
      <trkpt lat="43.49602" lon="6.57474">
        <ele>48.8</ele>
        <time>2026-03-27T13:09:31Z</time>
      </trkpt>
      <trkpt lat="43.49602" lon="6.57474">
        <ele>48.8</ele>
        <time>2026-03-27T13:09:32Z</time>
      </trkpt>
      <trkpt lat="43.49602" lon="6.57474">
        <ele>48.8</ele>
        <time>2026-03-27T13:09:33Z</time>
      </trkpt>
      <trkpt lat="43.49602" lon="6.57474">
        <ele>48.7</ele>
        <time>2026-03-27T13:09:34Z</time>
      </trkpt>
      <trkpt lat="43.49602" lon="6.57474">
        <ele>48.7</ele>
        <time>2026-03-27T13:09:35Z</time>
      </trkpt>
      <trkpt lat="43.49602" lon="6.57474">
        <ele>48.7</ele>
        <time>2026-03-27T13:09:36Z</time>
      </trkpt>
      <trkpt lat="43.49602" lon="6.57474">
        <ele>48.9</ele>
        <time>2026-03-27T13:09:37Z</time>
      </trkpt>
      <trkpt lat="43.49601" lon="6.57474">
        <ele>49</ele>
        <time>2026-03-27T13:09:38Z</time>
      </trkpt>
      <trkpt lat="43.49601" lon="6.57474">
        <ele>49.2</ele>
        <time>2026-03-27T13:09:39Z</time>
      </trkpt>
      <trkpt lat="43.49602" lon="6.57474">
        <ele>49.2</ele>
        <time>2026-03-27T13:09:40Z</time>
      </trkpt>
      <trkpt lat="43.49601" lon="6.57474">
        <ele>49.3</ele>
        <time>2026-03-27T13:09:41Z</time>
      </trkpt>
      <trkpt lat="43.49601" lon="6.57475">
        <ele>49.2</ele>
        <time>2026-03-27T13:09:42Z</time>
      </trkpt>
      <trkpt lat="43.496" lon="6.57476">
        <ele>49.3</ele>
        <time>2026-03-27T13:09:43Z</time>
      </trkpt>
      <trkpt lat="43.496" lon="6.57477">
        <ele>49.3</ele>
        <time>2026-03-27T13:09:44Z</time>
      </trkpt>
      <trkpt lat="43.49599" lon="6.57477">
        <ele>49.3</ele>
        <time>2026-03-27T13:09:45Z</time>
      </trkpt>
      <trkpt lat="43.49598" lon="6.57477">
        <ele>49.3</ele>
        <time>2026-03-27T13:09:46Z</time>
      </trkpt>
      <trkpt lat="43.49597" lon="6.57477">
        <ele>49.2</ele>
        <time>2026-03-27T13:09:47Z</time>
      </trkpt>
      <trkpt lat="43.49596" lon="6.57478">
        <ele>49.2</ele>
        <time>2026-03-27T13:09:48Z</time>
      </trkpt>
      <trkpt lat="43.49595" lon="6.57478">
        <ele>49.3</ele>
        <time>2026-03-27T13:09:49Z</time>
      </trkpt>
      <trkpt lat="43.49594" lon="6.57478">
        <ele>49.3</ele>
        <time>2026-03-27T13:09:50Z</time>
      </trkpt>
      <trkpt lat="43.49593" lon="6.57478">
        <ele>49.3</ele>
        <time>2026-03-27T13:09:51Z</time>
      </trkpt>
      <trkpt lat="43.49592" lon="6.57478">
        <ele>49.3</ele>
        <time>2026-03-27T13:09:52Z</time>
      </trkpt>
      <trkpt lat="43.49591" lon="6.57478">
        <ele>49.3</ele>
        <time>2026-03-27T13:09:53Z</time>
      </trkpt>
      <trkpt lat="43.4959" lon="6.57478">
        <ele>49.3</ele>
        <time>2026-03-27T13:09:54Z</time>
      </trkpt>
      <trkpt lat="43.4959" lon="6.57478">
        <ele>49.2</ele>
        <time>2026-03-27T13:09:55Z</time>
      </trkpt>
      <trkpt lat="43.49589" lon="6.57478">
        <ele>49.1</ele>
        <time>2026-03-27T13:09:56Z</time>
      </trkpt>
      <trkpt lat="43.49589" lon="6.57478">
        <ele>49.1</ele>
        <time>2026-03-27T13:09:57Z</time>
      </trkpt>
      <trkpt lat="43.49589" lon="6.57478">
        <ele>49.1</ele>
        <time>2026-03-27T13:09:58Z</time>
      </trkpt>
      <trkpt lat="43.49588" lon="6.57478">
        <ele>49.1</ele>
        <time>2026-03-27T13:09:59Z</time>
      </trkpt>
      <trkpt lat="43.49588" lon="6.57478">
        <ele>49</ele>
        <time>2026-03-27T13:10:00Z</time>
      </trkpt>
      <trkpt lat="43.49586" lon="6.57478">
        <ele>49</ele>
        <time>2026-03-27T13:10:01Z</time>
      </trkpt>
      <trkpt lat="43.49585" lon="6.57478">
        <ele>49</ele>
        <time>2026-03-27T13:10:02Z</time>
      </trkpt>
      <trkpt lat="43.49584" lon="6.57478">
        <ele>48.8</ele>
        <time>2026-03-27T13:10:03Z</time>
      </trkpt>
      <trkpt lat="43.49583" lon="6.57478">
        <ele>48.6</ele>
        <time>2026-03-27T13:10:04Z</time>
      </trkpt>
      <trkpt lat="43.49582" lon="6.57479">
        <ele>48.6</ele>
        <time>2026-03-27T13:10:05Z</time>
      </trkpt>
      <trkpt lat="43.49582" lon="6.57479">
        <ele>48.6</ele>
        <time>2026-03-27T13:10:06Z</time>
      </trkpt>
      <trkpt lat="43.49581" lon="6.57478">
        <ele>48.5</ele>
        <time>2026-03-27T13:10:07Z</time>
      </trkpt>
      <trkpt lat="43.4958" lon="6.57478">
        <ele>48.5</ele>
        <time>2026-03-27T13:10:08Z</time>
      </trkpt>
      <trkpt lat="43.49579" lon="6.57479">
        <ele>48.4</ele>
        <time>2026-03-27T13:10:09Z</time>
      </trkpt>
      <trkpt lat="43.49578" lon="6.57479">
        <ele>48.4</ele>
        <time>2026-03-27T13:10:10Z</time>
      </trkpt>
      <trkpt lat="43.49578" lon="6.5748">
        <ele>48.4</ele>
        <time>2026-03-27T13:10:11Z</time>
      </trkpt>
      <trkpt lat="43.49577" lon="6.5748">
        <ele>48.4</ele>
        <time>2026-03-27T13:10:12Z</time>
      </trkpt>
      <trkpt lat="43.49576" lon="6.5748">
        <ele>48.4</ele>
        <time>2026-03-27T13:10:13Z</time>
      </trkpt>
      <trkpt lat="43.49575" lon="6.5748">
        <ele>48.4</ele>
        <time>2026-03-27T13:10:14Z</time>
      </trkpt>
      <trkpt lat="43.49574" lon="6.5748">
        <ele>48.4</ele>
        <time>2026-03-27T13:10:15Z</time>
      </trkpt>
      <trkpt lat="43.49573" lon="6.5748">
        <ele>48.5</ele>
        <time>2026-03-27T13:10:16Z</time>
      </trkpt>
      <trkpt lat="43.49572" lon="6.5748">
        <ele>48.5</ele>
        <time>2026-03-27T13:10:17Z</time>
      </trkpt>
      <trkpt lat="43.49571" lon="6.5748">
        <ele>48.5</ele>
        <time>2026-03-27T13:10:18Z</time>
      </trkpt>
      <trkpt lat="43.4957" lon="6.5748">
        <ele>48.5</ele>
        <time>2026-03-27T13:10:19Z</time>
      </trkpt>
      <trkpt lat="43.49569" lon="6.5748">
        <ele>48.5</ele>
        <time>2026-03-27T13:10:20Z</time>
      </trkpt>
      <trkpt lat="43.49567" lon="6.57481">
        <ele>48.7</ele>
        <time>2026-03-27T13:10:21Z</time>
      </trkpt>
      <trkpt lat="43.49567" lon="6.57481">
        <ele>48.8</ele>
        <time>2026-03-27T13:10:22Z</time>
      </trkpt>
      <trkpt lat="43.49565" lon="6.57481">
        <ele>48.8</ele>
        <time>2026-03-27T13:10:23Z</time>
      </trkpt>
      <trkpt lat="43.49564" lon="6.57481">
        <ele>48.8</ele>
        <time>2026-03-27T13:10:24Z</time>
      </trkpt>
      <trkpt lat="43.49563" lon="6.57481">
        <ele>48.6</ele>
        <time>2026-03-27T13:10:25Z</time>
      </trkpt>
      <trkpt lat="43.49562" lon="6.57481">
        <ele>48.5</ele>
        <time>2026-03-27T13:10:26Z</time>
      </trkpt>
      <trkpt lat="43.49561" lon="6.57482">
        <ele>48.5</ele>
        <time>2026-03-27T13:10:27Z</time>
      </trkpt>
      <trkpt lat="43.4956" lon="6.57482">
        <ele>48.5</ele>
        <time>2026-03-27T13:10:28Z</time>
      </trkpt>
      <trkpt lat="43.49559" lon="6.57482">
        <ele>48.6</ele>
        <time>2026-03-27T13:10:29Z</time>
      </trkpt>
      <trkpt lat="43.49558" lon="6.57483">
        <ele>48.6</ele>
        <time>2026-03-27T13:10:30Z</time>
      </trkpt>
      <trkpt lat="43.49557" lon="6.57483">
        <ele>48.6</ele>
        <time>2026-03-27T13:10:31Z</time>
      </trkpt>
      <trkpt lat="43.49556" lon="6.57483">
        <ele>48.8</ele>
        <time>2026-03-27T13:10:32Z</time>
      </trkpt>
      <trkpt lat="43.49554" lon="6.57484">
        <ele>48.9</ele>
        <time>2026-03-27T13:10:33Z</time>
      </trkpt>
      <trkpt lat="43.49553" lon="6.57484">
        <ele>49</ele>
        <time>2026-03-27T13:10:34Z</time>
      </trkpt>
      <trkpt lat="43.49552" lon="6.57484">
        <ele>49</ele>
        <time>2026-03-27T13:10:35Z</time>
      </trkpt>
      <trkpt lat="43.49551" lon="6.57484">
        <ele>48.9</ele>
        <time>2026-03-27T13:10:36Z</time>
      </trkpt>
      <trkpt lat="43.4955" lon="6.57484">
        <ele>48.8</ele>
        <time>2026-03-27T13:10:37Z</time>
      </trkpt>
      <trkpt lat="43.49549" lon="6.57485">
        <ele>48.7</ele>
        <time>2026-03-27T13:10:38Z</time>
      </trkpt>
      <trkpt lat="43.49548" lon="6.57485">
        <ele>48.7</ele>
        <time>2026-03-27T13:10:39Z</time>
      </trkpt>
      <trkpt lat="43.49547" lon="6.57486">
        <ele>48.8</ele>
        <time>2026-03-27T13:10:40Z</time>
      </trkpt>
      <trkpt lat="43.49546" lon="6.57486">
        <ele>48.9</ele>
        <time>2026-03-27T13:10:41Z</time>
      </trkpt>
      <trkpt lat="43.49545" lon="6.57487">
        <ele>48.8</ele>
        <time>2026-03-27T13:10:42Z</time>
      </trkpt>
      <trkpt lat="43.49544" lon="6.57488">
        <ele>48.7</ele>
        <time>2026-03-27T13:10:43Z</time>
      </trkpt>
      <trkpt lat="43.49543" lon="6.57489">
        <ele>48.6</ele>
        <time>2026-03-27T13:10:44Z</time>
      </trkpt>
      <trkpt lat="43.49542" lon="6.5749">
        <ele>48.8</ele>
        <time>2026-03-27T13:10:45Z</time>
      </trkpt>
      <trkpt lat="43.49542" lon="6.57491">
        <ele>48.7</ele>
        <time>2026-03-27T13:10:46Z</time>
      </trkpt>
      <trkpt lat="43.49541" lon="6.57493">
        <ele>48.7</ele>
        <time>2026-03-27T13:10:47Z</time>
      </trkpt>
      <trkpt lat="43.49541" lon="6.57494">
        <ele>48.7</ele>
        <time>2026-03-27T13:10:48Z</time>
      </trkpt>
      <trkpt lat="43.49541" lon="6.57495">
        <ele>48.7</ele>
        <time>2026-03-27T13:10:49Z</time>
      </trkpt>
      <trkpt lat="43.49541" lon="6.57497">
        <ele>48.7</ele>
        <time>2026-03-27T13:10:50Z</time>
      </trkpt>
      <trkpt lat="43.49541" lon="6.57498">
        <ele>48.8</ele>
        <time>2026-03-27T13:10:51Z</time>
      </trkpt>
      <trkpt lat="43.49541" lon="6.57499">
        <ele>48.9</ele>
        <time>2026-03-27T13:10:52Z</time>
      </trkpt>
      <trkpt lat="43.49541" lon="6.575">
        <ele>49</ele>
        <time>2026-03-27T13:10:53Z</time>
      </trkpt>
      <trkpt lat="43.49541" lon="6.57501">
        <ele>49.1</ele>
        <time>2026-03-27T13:10:54Z</time>
      </trkpt>
      <trkpt lat="43.4954" lon="6.57502">
        <ele>49.1</ele>
        <time>2026-03-27T13:10:55Z</time>
      </trkpt>
      <trkpt lat="43.4954" lon="6.57502">
        <ele>49.1</ele>
        <time>2026-03-27T13:10:56Z</time>
      </trkpt>
      <trkpt lat="43.49541" lon="6.57504">
        <ele>49.2</ele>
        <time>2026-03-27T13:10:57Z</time>
      </trkpt>
      <trkpt lat="43.49541" lon="6.57505">
        <ele>49.3</ele>
        <time>2026-03-27T13:10:58Z</time>
      </trkpt>
      <trkpt lat="43.49542" lon="6.57506">
        <ele>49.3</ele>
        <time>2026-03-27T13:10:59Z</time>
      </trkpt>
      <trkpt lat="43.49542" lon="6.57507">
        <ele>49.3</ele>
        <time>2026-03-27T13:11:00Z</time>
      </trkpt>
      <trkpt lat="43.49543" lon="6.57507">
        <ele>49.2</ele>
        <time>2026-03-27T13:11:01Z</time>
      </trkpt>
      <trkpt lat="43.49543" lon="6.57508">
        <ele>49.3</ele>
        <time>2026-03-27T13:11:02Z</time>
      </trkpt>
      <trkpt lat="43.49543" lon="6.57509">
        <ele>49.4</ele>
        <time>2026-03-27T13:11:03Z</time>
      </trkpt>
      <trkpt lat="43.49543" lon="6.5751">
        <ele>49.4</ele>
        <time>2026-03-27T13:11:04Z</time>
      </trkpt>
      <trkpt lat="43.49544" lon="6.57511">
        <ele>49.3</ele>
        <time>2026-03-27T13:11:05Z</time>
      </trkpt>
      <trkpt lat="43.49544" lon="6.57513">
        <ele>49.3</ele>
        <time>2026-03-27T13:11:06Z</time>
      </trkpt>
      <trkpt lat="43.49545" lon="6.57515">
        <ele>49.3</ele>
        <time>2026-03-27T13:11:07Z</time>
      </trkpt>
      <trkpt lat="43.49545" lon="6.57516">
        <ele>49.4</ele>
        <time>2026-03-27T13:11:08Z</time>
      </trkpt>
      <trkpt lat="43.49545" lon="6.57516">
        <ele>49.4</ele>
        <time>2026-03-27T13:11:09Z</time>
      </trkpt>
      <trkpt lat="43.49546" lon="6.57517">
        <ele>49.3</ele>
        <time>2026-03-27T13:11:10Z</time>
      </trkpt>
      <trkpt lat="43.49547" lon="6.57518">
        <ele>49.3</ele>
        <time>2026-03-27T13:11:11Z</time>
      </trkpt>
      <trkpt lat="43.49547" lon="6.57518">
        <ele>49.2</ele>
        <time>2026-03-27T13:11:12Z</time>
      </trkpt>
      <trkpt lat="43.49547" lon="6.57519">
        <ele>49.2</ele>
        <time>2026-03-27T13:11:13Z</time>
      </trkpt>
      <trkpt lat="43.49547" lon="6.5752">
        <ele>49.3</ele>
        <time>2026-03-27T13:11:14Z</time>
      </trkpt>
      <trkpt lat="43.49547" lon="6.57521">
        <ele>49.3</ele>
        <time>2026-03-27T13:11:15Z</time>
      </trkpt>
      <trkpt lat="43.49548" lon="6.57522">
        <ele>49.5</ele>
        <time>2026-03-27T13:11:16Z</time>
      </trkpt>
      <trkpt lat="43.49549" lon="6.57523">
        <ele>49.6</ele>
        <time>2026-03-27T13:11:17Z</time>
      </trkpt>
      <trkpt lat="43.49549" lon="6.57524">
        <ele>49.7</ele>
        <time>2026-03-27T13:11:18Z</time>
      </trkpt>
      <trkpt lat="43.49549" lon="6.57525">
        <ele>49.9</ele>
        <time>2026-03-27T13:11:19Z</time>
      </trkpt>
      <trkpt lat="43.49549" lon="6.57526">
        <ele>50</ele>
        <time>2026-03-27T13:11:20Z</time>
      </trkpt>
      <trkpt lat="43.4955" lon="6.57527">
        <ele>50.1</ele>
        <time>2026-03-27T13:11:21Z</time>
      </trkpt>
      <trkpt lat="43.49551" lon="6.57527">
        <ele>50.2</ele>
        <time>2026-03-27T13:11:22Z</time>
      </trkpt>
      <trkpt lat="43.49551" lon="6.57528">
        <ele>50.2</ele>
        <time>2026-03-27T13:11:23Z</time>
      </trkpt>
      <trkpt lat="43.49552" lon="6.57529">
        <ele>50.5</ele>
        <time>2026-03-27T13:11:24Z</time>
      </trkpt>
      <trkpt lat="43.49553" lon="6.5753">
        <ele>50.6</ele>
        <time>2026-03-27T13:11:25Z</time>
      </trkpt>
      <trkpt lat="43.49554" lon="6.57531">
        <ele>50.6</ele>
        <time>2026-03-27T13:11:26Z</time>
      </trkpt>
      <trkpt lat="43.49555" lon="6.57532">
        <ele>50.7</ele>
        <time>2026-03-27T13:11:27Z</time>
      </trkpt>
      <trkpt lat="43.49556" lon="6.57532">
        <ele>50.8</ele>
        <time>2026-03-27T13:11:28Z</time>
      </trkpt>
      <trkpt lat="43.49557" lon="6.57533">
        <ele>50.9</ele>
        <time>2026-03-27T13:11:29Z</time>
      </trkpt>
      <trkpt lat="43.49558" lon="6.57534">
        <ele>51</ele>
        <time>2026-03-27T13:11:30Z</time>
      </trkpt>
      <trkpt lat="43.49558" lon="6.57535">
        <ele>51</ele>
        <time>2026-03-27T13:11:31Z</time>
      </trkpt>
      <trkpt lat="43.49559" lon="6.57536">
        <ele>51.1</ele>
        <time>2026-03-27T13:11:32Z</time>
      </trkpt>
      <trkpt lat="43.49559" lon="6.57537">
        <ele>51.2</ele>
        <time>2026-03-27T13:11:33Z</time>
      </trkpt>
      <trkpt lat="43.4956" lon="6.57538">
        <ele>51.3</ele>
        <time>2026-03-27T13:11:34Z</time>
      </trkpt>
      <trkpt lat="43.49561" lon="6.57539">
        <ele>51.4</ele>
        <time>2026-03-27T13:11:35Z</time>
      </trkpt>
      <trkpt lat="43.49561" lon="6.57539">
        <ele>51.5</ele>
        <time>2026-03-27T13:11:36Z</time>
      </trkpt>
      <trkpt lat="43.49562" lon="6.5754">
        <ele>51.6</ele>
        <time>2026-03-27T13:11:37Z</time>
      </trkpt>
      <trkpt lat="43.49563" lon="6.57541">
        <ele>51.7</ele>
        <time>2026-03-27T13:11:38Z</time>
      </trkpt>
      <trkpt lat="43.49564" lon="6.57542">
        <ele>51.8</ele>
        <time>2026-03-27T13:11:39Z</time>
      </trkpt>
      <trkpt lat="43.49564" lon="6.57542">
        <ele>52</ele>
        <time>2026-03-27T13:11:40Z</time>
      </trkpt>
      <trkpt lat="43.49565" lon="6.57543">
        <ele>52.1</ele>
        <time>2026-03-27T13:11:41Z</time>
      </trkpt>
      <trkpt lat="43.49565" lon="6.57544">
        <ele>52</ele>
        <time>2026-03-27T13:11:42Z</time>
      </trkpt>
      <trkpt lat="43.49566" lon="6.57545">
        <ele>52</ele>
        <time>2026-03-27T13:11:43Z</time>
      </trkpt>
      <trkpt lat="43.49567" lon="6.57546">
        <ele>52</ele>
        <time>2026-03-27T13:11:44Z</time>
      </trkpt>
      <trkpt lat="43.49567" lon="6.57546">
        <ele>51.9</ele>
        <time>2026-03-27T13:11:45Z</time>
      </trkpt>
      <trkpt lat="43.49568" lon="6.57547">
        <ele>52</ele>
        <time>2026-03-27T13:11:46Z</time>
      </trkpt>
      <trkpt lat="43.49569" lon="6.57548">
        <ele>52</ele>
        <time>2026-03-27T13:11:47Z</time>
      </trkpt>
      <trkpt lat="43.4957" lon="6.57549">
        <ele>51.9</ele>
        <time>2026-03-27T13:11:48Z</time>
      </trkpt>
      <trkpt lat="43.49571" lon="6.5755">
        <ele>51.8</ele>
        <time>2026-03-27T13:11:49Z</time>
      </trkpt>
      <trkpt lat="43.49571" lon="6.57551">
        <ele>51.7</ele>
        <time>2026-03-27T13:11:50Z</time>
      </trkpt>
      <trkpt lat="43.49571" lon="6.57551">
        <ele>51.6</ele>
        <time>2026-03-27T13:11:51Z</time>
      </trkpt>
      <trkpt lat="43.49572" lon="6.57552">
        <ele>51.6</ele>
        <time>2026-03-27T13:11:52Z</time>
      </trkpt>
      <trkpt lat="43.49572" lon="6.57553">
        <ele>51.5</ele>
        <time>2026-03-27T13:11:53Z</time>
      </trkpt>
      <trkpt lat="43.49573" lon="6.57553">
        <ele>51.4</ele>
        <time>2026-03-27T13:11:54Z</time>
      </trkpt>
      <trkpt lat="43.49573" lon="6.57554">
        <ele>51.2</ele>
        <time>2026-03-27T13:11:55Z</time>
      </trkpt>
      <trkpt lat="43.49574" lon="6.57555">
        <ele>51.2</ele>
        <time>2026-03-27T13:11:56Z</time>
      </trkpt>
      <trkpt lat="43.49575" lon="6.57555">
        <ele>51.2</ele>
        <time>2026-03-27T13:11:57Z</time>
      </trkpt>
      <trkpt lat="43.49576" lon="6.57556">
        <ele>51.2</ele>
        <time>2026-03-27T13:11:58Z</time>
      </trkpt>
      <trkpt lat="43.49576" lon="6.57557">
        <ele>51.1</ele>
        <time>2026-03-27T13:11:59Z</time>
      </trkpt>
      <trkpt lat="43.49577" lon="6.57558">
        <ele>51.1</ele>
        <time>2026-03-27T13:12:00Z</time>
      </trkpt>
      <trkpt lat="43.49578" lon="6.57559">
        <ele>51</ele>
        <time>2026-03-27T13:12:01Z</time>
      </trkpt>
      <trkpt lat="43.49579" lon="6.57559">
        <ele>51</ele>
        <time>2026-03-27T13:12:02Z</time>
      </trkpt>
      <trkpt lat="43.49579" lon="6.57559">
        <ele>51</ele>
        <time>2026-03-27T13:12:03Z</time>
      </trkpt>
      <trkpt lat="43.49581" lon="6.5756">
        <ele>51</ele>
        <time>2026-03-27T13:12:04Z</time>
      </trkpt>
      <trkpt lat="43.49582" lon="6.57562">
        <ele>51</ele>
        <time>2026-03-27T13:12:05Z</time>
      </trkpt>
      <trkpt lat="43.49583" lon="6.57563">
        <ele>51</ele>
        <time>2026-03-27T13:12:06Z</time>
      </trkpt>
      <trkpt lat="43.49585" lon="6.57563">
        <ele>51</ele>
        <time>2026-03-27T13:12:07Z</time>
      </trkpt>
      <trkpt lat="43.49586" lon="6.57564">
        <ele>51.1</ele>
        <time>2026-03-27T13:12:08Z</time>
      </trkpt>
      <trkpt lat="43.49587" lon="6.57565">
        <ele>51.1</ele>
        <time>2026-03-27T13:12:09Z</time>
      </trkpt>
      <trkpt lat="43.49588" lon="6.57566">
        <ele>51.1</ele>
        <time>2026-03-27T13:12:10Z</time>
      </trkpt>
      <trkpt lat="43.49589" lon="6.57567">
        <ele>51.2</ele>
        <time>2026-03-27T13:12:11Z</time>
      </trkpt>
      <trkpt lat="43.4959" lon="6.57568">
        <ele>51.2</ele>
        <time>2026-03-27T13:12:12Z</time>
      </trkpt>
      <trkpt lat="43.49591" lon="6.57568">
        <ele>51.3</ele>
        <time>2026-03-27T13:12:13Z</time>
      </trkpt>
      <trkpt lat="43.49592" lon="6.57568">
        <ele>51.4</ele>
        <time>2026-03-27T13:12:14Z</time>
      </trkpt>
      <trkpt lat="43.49594" lon="6.57569">
        <ele>51.4</ele>
        <time>2026-03-27T13:12:15Z</time>
      </trkpt>
      <trkpt lat="43.49594" lon="6.5757">
        <ele>51.5</ele>
        <time>2026-03-27T13:12:16Z</time>
      </trkpt>
      <trkpt lat="43.49595" lon="6.57571">
        <ele>51.5</ele>
        <time>2026-03-27T13:12:17Z</time>
      </trkpt>
      <trkpt lat="43.49596" lon="6.57573">
        <ele>51.6</ele>
        <time>2026-03-27T13:12:18Z</time>
      </trkpt>
      <trkpt lat="43.49597" lon="6.57574">
        <ele>51.6</ele>
        <time>2026-03-27T13:12:19Z</time>
      </trkpt>
      <trkpt lat="43.49598" lon="6.57575">
        <ele>51.2</ele>
        <time>2026-03-27T13:12:20Z</time>
      </trkpt>
      <trkpt lat="43.49599" lon="6.57575">
        <ele>51.3</ele>
        <time>2026-03-27T13:12:21Z</time>
      </trkpt>
      <trkpt lat="43.496" lon="6.57577">
        <ele>51.3</ele>
        <time>2026-03-27T13:12:22Z</time>
      </trkpt>
      <trkpt lat="43.49601" lon="6.57578">
        <ele>51.4</ele>
        <time>2026-03-27T13:12:23Z</time>
      </trkpt>
      <trkpt lat="43.49602" lon="6.57579">
        <ele>51.4</ele>
        <time>2026-03-27T13:12:24Z</time>
      </trkpt>
      <trkpt lat="43.49604" lon="6.5758">
        <ele>51.5</ele>
        <time>2026-03-27T13:12:25Z</time>
      </trkpt>
      <trkpt lat="43.49605" lon="6.5758">
        <ele>51.4</ele>
        <time>2026-03-27T13:12:26Z</time>
      </trkpt>
      <trkpt lat="43.49605" lon="6.57581">
        <ele>51.5</ele>
        <time>2026-03-27T13:12:27Z</time>
      </trkpt>
      <trkpt lat="43.49606" lon="6.57581">
        <ele>51.5</ele>
        <time>2026-03-27T13:12:28Z</time>
      </trkpt>
      <trkpt lat="43.49607" lon="6.57581">
        <ele>51.5</ele>
        <time>2026-03-27T13:12:29Z</time>
      </trkpt>
      <trkpt lat="43.49608" lon="6.57582">
        <ele>51.4</ele>
        <time>2026-03-27T13:12:30Z</time>
      </trkpt>
      <trkpt lat="43.49609" lon="6.57583">
        <ele>51.5</ele>
        <time>2026-03-27T13:12:31Z</time>
      </trkpt>
      <trkpt lat="43.4961" lon="6.57584">
        <ele>51.5</ele>
        <time>2026-03-27T13:12:32Z</time>
      </trkpt>
      <trkpt lat="43.49611" lon="6.57585">
        <ele>51.6</ele>
        <time>2026-03-27T13:12:33Z</time>
      </trkpt>
      <trkpt lat="43.49612" lon="6.57586">
        <ele>51.6</ele>
        <time>2026-03-27T13:12:34Z</time>
      </trkpt>
      <trkpt lat="43.49613" lon="6.57587">
        <ele>51.6</ele>
        <time>2026-03-27T13:12:35Z</time>
      </trkpt>
      <trkpt lat="43.49614" lon="6.57588">
        <ele>51.7</ele>
        <time>2026-03-27T13:12:36Z</time>
      </trkpt>
      <trkpt lat="43.49615" lon="6.57589">
        <ele>51.7</ele>
        <time>2026-03-27T13:12:37Z</time>
      </trkpt>
      <trkpt lat="43.49616" lon="6.5759">
        <ele>51.7</ele>
        <time>2026-03-27T13:12:38Z</time>
      </trkpt>
      <trkpt lat="43.49617" lon="6.57591">
        <ele>51.7</ele>
        <time>2026-03-27T13:12:39Z</time>
      </trkpt>
      <trkpt lat="43.49618" lon="6.57592">
        <ele>51.7</ele>
        <time>2026-03-27T13:12:40Z</time>
      </trkpt>
      <trkpt lat="43.49619" lon="6.57593">
        <ele>51.8</ele>
        <time>2026-03-27T13:12:41Z</time>
      </trkpt>
      <trkpt lat="43.4962" lon="6.57593">
        <ele>51.9</ele>
        <time>2026-03-27T13:12:42Z</time>
      </trkpt>
      <trkpt lat="43.49621" lon="6.57594">
        <ele>52</ele>
        <time>2026-03-27T13:12:43Z</time>
      </trkpt>
      <trkpt lat="43.49622" lon="6.57594">
        <ele>52</ele>
        <time>2026-03-27T13:12:44Z</time>
      </trkpt>
      <trkpt lat="43.49623" lon="6.57594">
        <ele>52.1</ele>
        <time>2026-03-27T13:12:45Z</time>
      </trkpt>
      <trkpt lat="43.49624" lon="6.57595">
        <ele>52.1</ele>
        <time>2026-03-27T13:12:46Z</time>
      </trkpt>
      <trkpt lat="43.49625" lon="6.57594">
        <ele>52.2</ele>
        <time>2026-03-27T13:12:47Z</time>
      </trkpt>
      <trkpt lat="43.49627" lon="6.57594">
        <ele>52.3</ele>
        <time>2026-03-27T13:12:48Z</time>
      </trkpt>
      <trkpt lat="43.49628" lon="6.57593">
        <ele>52.2</ele>
        <time>2026-03-27T13:12:49Z</time>
      </trkpt>
      <trkpt lat="43.4963" lon="6.57593">
        <ele>52.2</ele>
        <time>2026-03-27T13:12:50Z</time>
      </trkpt>
      <trkpt lat="43.49631" lon="6.57594">
        <ele>52.3</ele>
        <time>2026-03-27T13:12:51Z</time>
      </trkpt>
      <trkpt lat="43.49632" lon="6.57594">
        <ele>52.4</ele>
        <time>2026-03-27T13:12:52Z</time>
      </trkpt>
      <trkpt lat="43.49634" lon="6.57594">
        <ele>52.5</ele>
        <time>2026-03-27T13:12:53Z</time>
      </trkpt>
      <trkpt lat="43.49635" lon="6.57595">
        <ele>52.6</ele>
        <time>2026-03-27T13:12:54Z</time>
      </trkpt>
      <trkpt lat="43.49636" lon="6.57595">
        <ele>52.6</ele>
        <time>2026-03-27T13:12:55Z</time>
      </trkpt>
      <trkpt lat="43.49637" lon="6.57595">
        <ele>52.6</ele>
        <time>2026-03-27T13:12:56Z</time>
      </trkpt>
      <trkpt lat="43.49639" lon="6.57596">
        <ele>52.7</ele>
        <time>2026-03-27T13:12:57Z</time>
      </trkpt>
      <trkpt lat="43.4964" lon="6.57596">
        <ele>52.8</ele>
        <time>2026-03-27T13:12:58Z</time>
      </trkpt>
      <trkpt lat="43.49641" lon="6.57597">
        <ele>52.7</ele>
        <time>2026-03-27T13:12:59Z</time>
      </trkpt>
      <trkpt lat="43.49642" lon="6.57597">
        <ele>52.8</ele>
        <time>2026-03-27T13:13:00Z</time>
      </trkpt>
      <trkpt lat="43.49643" lon="6.57598">
        <ele>52.9</ele>
        <time>2026-03-27T13:13:01Z</time>
      </trkpt>
      <trkpt lat="43.49645" lon="6.57598">
        <ele>53</ele>
        <time>2026-03-27T13:13:02Z</time>
      </trkpt>
      <trkpt lat="43.49646" lon="6.57599">
        <ele>53.1</ele>
        <time>2026-03-27T13:13:03Z</time>
      </trkpt>
      <trkpt lat="43.49647" lon="6.57599">
        <ele>53.2</ele>
        <time>2026-03-27T13:13:04Z</time>
      </trkpt>
      <trkpt lat="43.49648" lon="6.576">
        <ele>53.2</ele>
        <time>2026-03-27T13:13:05Z</time>
      </trkpt>
      <trkpt lat="43.49649" lon="6.57601">
        <ele>53.2</ele>
        <time>2026-03-27T13:13:06Z</time>
      </trkpt>
      <trkpt lat="43.49651" lon="6.57601">
        <ele>53.2</ele>
        <time>2026-03-27T13:13:07Z</time>
      </trkpt>
      <trkpt lat="43.49652" lon="6.57602">
        <ele>53.1</ele>
        <time>2026-03-27T13:13:08Z</time>
      </trkpt>
      <trkpt lat="43.49653" lon="6.57601">
        <ele>53.2</ele>
        <time>2026-03-27T13:13:09Z</time>
      </trkpt>
      <trkpt lat="43.49654" lon="6.57601">
        <ele>53.2</ele>
        <time>2026-03-27T13:13:10Z</time>
      </trkpt>
      <trkpt lat="43.49655" lon="6.57601">
        <ele>53.2</ele>
        <time>2026-03-27T13:13:11Z</time>
      </trkpt>
      <trkpt lat="43.49655" lon="6.57601">
        <ele>53.2</ele>
        <time>2026-03-27T13:13:12Z</time>
      </trkpt>
      <trkpt lat="43.49656" lon="6.57602">
        <ele>53.3</ele>
        <time>2026-03-27T13:13:13Z</time>
      </trkpt>
      <trkpt lat="43.49657" lon="6.57602">
        <ele>53.4</ele>
        <time>2026-03-27T13:13:14Z</time>
      </trkpt>
      <trkpt lat="43.49658" lon="6.57603">
        <ele>53.5</ele>
        <time>2026-03-27T13:13:15Z</time>
      </trkpt>
      <trkpt lat="43.49659" lon="6.57603">
        <ele>53.5</ele>
        <time>2026-03-27T13:13:16Z</time>
      </trkpt>
      <trkpt lat="43.4966" lon="6.57604">
        <ele>53.6</ele>
        <time>2026-03-27T13:13:17Z</time>
      </trkpt>
      <trkpt lat="43.4966" lon="6.57605">
        <ele>53.6</ele>
        <time>2026-03-27T13:13:18Z</time>
      </trkpt>
      <trkpt lat="43.49661" lon="6.57605">
        <ele>53.7</ele>
        <time>2026-03-27T13:13:19Z</time>
      </trkpt>
      <trkpt lat="43.49662" lon="6.57606">
        <ele>53.7</ele>
        <time>2026-03-27T13:13:20Z</time>
      </trkpt>
      <trkpt lat="43.49663" lon="6.57607">
        <ele>53.7</ele>
        <time>2026-03-27T13:13:21Z</time>
      </trkpt>
      <trkpt lat="43.49664" lon="6.57608">
        <ele>53.7</ele>
        <time>2026-03-27T13:13:22Z</time>
      </trkpt>
      <trkpt lat="43.49665" lon="6.57608">
        <ele>53.7</ele>
        <time>2026-03-27T13:13:23Z</time>
      </trkpt>
      <trkpt lat="43.49666" lon="6.57609">
        <ele>53.8</ele>
        <time>2026-03-27T13:13:24Z</time>
      </trkpt>
      <trkpt lat="43.49667" lon="6.5761">
        <ele>53.8</ele>
        <time>2026-03-27T13:13:25Z</time>
      </trkpt>
      <trkpt lat="43.49668" lon="6.5761">
        <ele>53.8</ele>
        <time>2026-03-27T13:13:26Z</time>
      </trkpt>
      <trkpt lat="43.49668" lon="6.57611">
        <ele>53.9</ele>
        <time>2026-03-27T13:13:27Z</time>
      </trkpt>
      <trkpt lat="43.49669" lon="6.57612">
        <ele>53.9</ele>
        <time>2026-03-27T13:13:28Z</time>
      </trkpt>
      <trkpt lat="43.4967" lon="6.57613">
        <ele>53.9</ele>
        <time>2026-03-27T13:13:29Z</time>
      </trkpt>
      <trkpt lat="43.4967" lon="6.57614">
        <ele>54</ele>
        <time>2026-03-27T13:13:30Z</time>
      </trkpt>
      <trkpt lat="43.49671" lon="6.57615">
        <ele>53.9</ele>
        <time>2026-03-27T13:13:31Z</time>
      </trkpt>
      <trkpt lat="43.49672" lon="6.57616">
        <ele>53.8</ele>
        <time>2026-03-27T13:13:32Z</time>
      </trkpt>
      <trkpt lat="43.49672" lon="6.57617">
        <ele>53.9</ele>
        <time>2026-03-27T13:13:33Z</time>
      </trkpt>
      <trkpt lat="43.49673" lon="6.57618">
        <ele>54</ele>
        <time>2026-03-27T13:13:34Z</time>
      </trkpt>
      <trkpt lat="43.49673" lon="6.57619">
        <ele>54.1</ele>
        <time>2026-03-27T13:13:35Z</time>
      </trkpt>
      <trkpt lat="43.49674" lon="6.57621">
        <ele>54.2</ele>
        <time>2026-03-27T13:13:36Z</time>
      </trkpt>
      <trkpt lat="43.49675" lon="6.57622">
        <ele>54.4</ele>
        <time>2026-03-27T13:13:37Z</time>
      </trkpt>
      <trkpt lat="43.49676" lon="6.57622">
        <ele>54.4</ele>
        <time>2026-03-27T13:13:38Z</time>
      </trkpt>
      <trkpt lat="43.49676" lon="6.57623">
        <ele>54.5</ele>
        <time>2026-03-27T13:13:39Z</time>
      </trkpt>
      <trkpt lat="43.49677" lon="6.57625">
        <ele>54.5</ele>
        <time>2026-03-27T13:13:40Z</time>
      </trkpt>
      <trkpt lat="43.49677" lon="6.57625">
        <ele>54.5</ele>
        <time>2026-03-27T13:13:41Z</time>
      </trkpt>
      <trkpt lat="43.49677" lon="6.57626">
        <ele>54.5</ele>
        <time>2026-03-27T13:13:42Z</time>
      </trkpt>
      <trkpt lat="43.49678" lon="6.57627">
        <ele>54.6</ele>
        <time>2026-03-27T13:13:43Z</time>
      </trkpt>
      <trkpt lat="43.49678" lon="6.57627">
        <ele>54.6</ele>
        <time>2026-03-27T13:13:44Z</time>
      </trkpt>
      <trkpt lat="43.49679" lon="6.57628">
        <ele>54.6</ele>
        <time>2026-03-27T13:13:45Z</time>
      </trkpt>
      <trkpt lat="43.49679" lon="6.57628">
        <ele>54.6</ele>
        <time>2026-03-27T13:13:46Z</time>
      </trkpt>
      <trkpt lat="43.49679" lon="6.57628">
        <ele>54.5</ele>
        <time>2026-03-27T13:13:47Z</time>
      </trkpt>
      <trkpt lat="43.49679" lon="6.57628">
        <ele>54.5</ele>
        <time>2026-03-27T13:13:48Z</time>
      </trkpt>
      <trkpt lat="43.49679" lon="6.57628">
        <ele>54.5</ele>
        <time>2026-03-27T13:13:49Z</time>
      </trkpt>
      <trkpt lat="43.49679" lon="6.57628">
        <ele>54.5</ele>
        <time>2026-03-27T13:13:50Z</time>
      </trkpt>
      <trkpt lat="43.4968" lon="6.57628">
        <ele>54.5</ele>
        <time>2026-03-27T13:13:51Z</time>
      </trkpt>
      <trkpt lat="43.4968" lon="6.57628">
        <ele>54.5</ele>
        <time>2026-03-27T13:13:52Z</time>
      </trkpt>
      <trkpt lat="43.4968" lon="6.57628">
        <ele>54.5</ele>
        <time>2026-03-27T13:13:53Z</time>
      </trkpt>
      <trkpt lat="43.4968" lon="6.57628">
        <ele>54.5</ele>
        <time>2026-03-27T13:13:54Z</time>
      </trkpt>
      <trkpt lat="43.49681" lon="6.57629">
        <ele>54.6</ele>
        <time>2026-03-27T13:13:55Z</time>
      </trkpt>
      <trkpt lat="43.49681" lon="6.57629">
        <ele>54.6</ele>
        <time>2026-03-27T13:13:56Z</time>
      </trkpt>
      <trkpt lat="43.4968" lon="6.57629">
        <ele>54.6</ele>
        <time>2026-03-27T13:13:57Z</time>
      </trkpt>
      <trkpt lat="43.4968" lon="6.57629">
        <ele>54.6</ele>
        <time>2026-03-27T13:13:58Z</time>
      </trkpt>
      <trkpt lat="43.4968" lon="6.57629">
        <ele>54.7</ele>
        <time>2026-03-27T13:13:59Z</time>
      </trkpt>
      <trkpt lat="43.4968" lon="6.5763">
        <ele>54.7</ele>
        <time>2026-03-27T13:14:00Z</time>
      </trkpt>
      <trkpt lat="43.4968" lon="6.5763">
        <ele>54.7</ele>
        <time>2026-03-27T13:14:01Z</time>
      </trkpt>
      <trkpt lat="43.4968" lon="6.5763">
        <ele>54.8</ele>
        <time>2026-03-27T13:14:02Z</time>
      </trkpt>
      <trkpt lat="43.4968" lon="6.5763">
        <ele>54.9</ele>
        <time>2026-03-27T13:14:03Z</time>
      </trkpt>
      <trkpt lat="43.4968" lon="6.57631">
        <ele>54.9</ele>
        <time>2026-03-27T13:14:04Z</time>
      </trkpt>
      <trkpt lat="43.4968" lon="6.57631">
        <ele>54.9</ele>
        <time>2026-03-27T13:14:05Z</time>
      </trkpt>
      <trkpt lat="43.4968" lon="6.57632">
        <ele>54.9</ele>
        <time>2026-03-27T13:14:06Z</time>
      </trkpt>
      <trkpt lat="43.49681" lon="6.57632">
        <ele>54.9</ele>
        <time>2026-03-27T13:14:07Z</time>
      </trkpt>
      <trkpt lat="43.49681" lon="6.57633">
        <ele>54.8</ele>
        <time>2026-03-27T13:14:08Z</time>
      </trkpt>
      <trkpt lat="43.49682" lon="6.57633">
        <ele>54.8</ele>
        <time>2026-03-27T13:14:09Z</time>
      </trkpt>
      <trkpt lat="43.49682" lon="6.57633">
        <ele>54.8</ele>
        <time>2026-03-27T13:14:10Z</time>
      </trkpt>
      <trkpt lat="43.49682" lon="6.57633">
        <ele>54.8</ele>
        <time>2026-03-27T13:14:11Z</time>
      </trkpt>
      <trkpt lat="43.49682" lon="6.57634">
        <ele>54.8</ele>
        <time>2026-03-27T13:14:12Z</time>
      </trkpt>
      <trkpt lat="43.49682" lon="6.57634">
        <ele>54.8</ele>
        <time>2026-03-27T13:14:13Z</time>
      </trkpt>
      <trkpt lat="43.49682" lon="6.57634">
        <ele>54.8</ele>
        <time>2026-03-27T13:14:14Z</time>
      </trkpt>
      <trkpt lat="43.49682" lon="6.57634">
        <ele>54.7</ele>
        <time>2026-03-27T13:14:15Z</time>
      </trkpt>
      <trkpt lat="43.49682" lon="6.57634">
        <ele>54.7</ele>
        <time>2026-03-27T13:14:16Z</time>
      </trkpt>
      <trkpt lat="43.49683" lon="6.57634">
        <ele>54.7</ele>
        <time>2026-03-27T13:14:17Z</time>
      </trkpt>
      <trkpt lat="43.49683" lon="6.57634">
        <ele>54.7</ele>
        <time>2026-03-27T13:14:18Z</time>
      </trkpt>
      <trkpt lat="43.49684" lon="6.57635">
        <ele>54.7</ele>
        <time>2026-03-27T13:14:19Z</time>
      </trkpt>
      <trkpt lat="43.49684" lon="6.57635">
        <ele>54.8</ele>
        <time>2026-03-27T13:14:20Z</time>
      </trkpt>
      <trkpt lat="43.49685" lon="6.57635">
        <ele>54.8</ele>
        <time>2026-03-27T13:14:21Z</time>
      </trkpt>
      <trkpt lat="43.49685" lon="6.57635">
        <ele>54.8</ele>
        <time>2026-03-27T13:14:22Z</time>
      </trkpt>
      <trkpt lat="43.49685" lon="6.57635">
        <ele>54.7</ele>
        <time>2026-03-27T13:14:23Z</time>
      </trkpt>
      <trkpt lat="43.49685" lon="6.57635">
        <ele>54.7</ele>
        <time>2026-03-27T13:14:24Z</time>
      </trkpt>
      <trkpt lat="43.49685" lon="6.57635">
        <ele>54.7</ele>
        <time>2026-03-27T13:14:25Z</time>
      </trkpt>
      <trkpt lat="43.49685" lon="6.57635">
        <ele>54.8</ele>
        <time>2026-03-27T13:14:26Z</time>
      </trkpt>
      <trkpt lat="43.49685" lon="6.57635">
        <ele>54.7</ele>
        <time>2026-03-27T13:14:27Z</time>
      </trkpt>
      <trkpt lat="43.49686" lon="6.57636">
        <ele>54.6</ele>
        <time>2026-03-27T13:14:28Z</time>
      </trkpt>
      <trkpt lat="43.49686" lon="6.57638">
        <ele>54.6</ele>
        <time>2026-03-27T13:14:29Z</time>
      </trkpt>
      <trkpt lat="43.49686" lon="6.57639">
        <ele>54.7</ele>
        <time>2026-03-27T13:14:30Z</time>
      </trkpt>
      <trkpt lat="43.49687" lon="6.5764">
        <ele>54.6</ele>
        <time>2026-03-27T13:14:31Z</time>
      </trkpt>
      <trkpt lat="43.49687" lon="6.57641">
        <ele>55</ele>
        <time>2026-03-27T13:14:32Z</time>
      </trkpt>
      <trkpt lat="43.49688" lon="6.57642">
        <ele>54.9</ele>
        <time>2026-03-27T13:14:33Z</time>
      </trkpt>
      <trkpt lat="43.49688" lon="6.57644">
        <ele>55</ele>
        <time>2026-03-27T13:14:34Z</time>
      </trkpt>
      <trkpt lat="43.49689" lon="6.57645">
        <ele>54.9</ele>
        <time>2026-03-27T13:14:35Z</time>
      </trkpt>
      <trkpt lat="43.49689" lon="6.57646">
        <ele>54.9</ele>
        <time>2026-03-27T13:14:36Z</time>
      </trkpt>
      <trkpt lat="43.4969" lon="6.57646">
        <ele>54.9</ele>
        <time>2026-03-27T13:14:37Z</time>
      </trkpt>
      <trkpt lat="43.4969" lon="6.57648">
        <ele>55</ele>
        <time>2026-03-27T13:14:38Z</time>
      </trkpt>
      <trkpt lat="43.49691" lon="6.57649">
        <ele>55</ele>
        <time>2026-03-27T13:14:39Z</time>
      </trkpt>
      <trkpt lat="43.49691" lon="6.57649">
        <ele>55</ele>
        <time>2026-03-27T13:14:40Z</time>
      </trkpt>
      <trkpt lat="43.49692" lon="6.5765">
        <ele>55</ele>
        <time>2026-03-27T13:14:41Z</time>
      </trkpt>
      <trkpt lat="43.49692" lon="6.57651">
        <ele>55</ele>
        <time>2026-03-27T13:14:42Z</time>
      </trkpt>
      <trkpt lat="43.49693" lon="6.57652">
        <ele>55</ele>
        <time>2026-03-27T13:14:43Z</time>
      </trkpt>
      <trkpt lat="43.49693" lon="6.57654">
        <ele>55.1</ele>
        <time>2026-03-27T13:14:44Z</time>
      </trkpt>
      <trkpt lat="43.49694" lon="6.57655">
        <ele>55.2</ele>
        <time>2026-03-27T13:14:45Z</time>
      </trkpt>
      <trkpt lat="43.49694" lon="6.57656">
        <ele>55.3</ele>
        <time>2026-03-27T13:14:46Z</time>
      </trkpt>
      <trkpt lat="43.49695" lon="6.57658">
        <ele>55.3</ele>
        <time>2026-03-27T13:14:47Z</time>
      </trkpt>
      <trkpt lat="43.49696" lon="6.57658">
        <ele>55.3</ele>
        <time>2026-03-27T13:14:48Z</time>
      </trkpt>
      <trkpt lat="43.49696" lon="6.57659">
        <ele>55.5</ele>
        <time>2026-03-27T13:14:49Z</time>
      </trkpt>
      <trkpt lat="43.49697" lon="6.57661">
        <ele>56.2</ele>
        <time>2026-03-27T13:14:50Z</time>
      </trkpt>
      <trkpt lat="43.49697" lon="6.57663">
        <ele>56.1</ele>
        <time>2026-03-27T13:14:51Z</time>
      </trkpt>
      <trkpt lat="43.49698" lon="6.57664">
        <ele>55.9</ele>
        <time>2026-03-27T13:14:52Z</time>
      </trkpt>
      <trkpt lat="43.49698" lon="6.57665">
        <ele>55.8</ele>
        <time>2026-03-27T13:14:53Z</time>
      </trkpt>
      <trkpt lat="43.49699" lon="6.57666">
        <ele>55.7</ele>
        <time>2026-03-27T13:14:54Z</time>
      </trkpt>
      <trkpt lat="43.497" lon="6.57667">
        <ele>55.7</ele>
        <time>2026-03-27T13:14:55Z</time>
      </trkpt>
      <trkpt lat="43.497" lon="6.57668">
        <ele>55.7</ele>
        <time>2026-03-27T13:14:56Z</time>
      </trkpt>
      <trkpt lat="43.49701" lon="6.57669">
        <ele>55.6</ele>
        <time>2026-03-27T13:14:57Z</time>
      </trkpt>
      <trkpt lat="43.49701" lon="6.57671">
        <ele>55.6</ele>
        <time>2026-03-27T13:14:58Z</time>
      </trkpt>
      <trkpt lat="43.49702" lon="6.57672">
        <ele>55.6</ele>
        <time>2026-03-27T13:14:59Z</time>
      </trkpt>
      <trkpt lat="43.49702" lon="6.57674">
        <ele>55.6</ele>
        <time>2026-03-27T13:15:00Z</time>
      </trkpt>
      <trkpt lat="43.49703" lon="6.57675">
        <ele>55.8</ele>
        <time>2026-03-27T13:15:01Z</time>
      </trkpt>
      <trkpt lat="43.49703" lon="6.57677">
        <ele>55.8</ele>
        <time>2026-03-27T13:15:02Z</time>
      </trkpt>
      <trkpt lat="43.49704" lon="6.57678">
        <ele>55.8</ele>
        <time>2026-03-27T13:15:03Z</time>
      </trkpt>
      <trkpt lat="43.49704" lon="6.57679">
        <ele>55.8</ele>
        <time>2026-03-27T13:15:04Z</time>
      </trkpt>
      <trkpt lat="43.49705" lon="6.57681">
        <ele>55.9</ele>
        <time>2026-03-27T13:15:05Z</time>
      </trkpt>
      <trkpt lat="43.49705" lon="6.57682">
        <ele>56</ele>
        <time>2026-03-27T13:15:06Z</time>
      </trkpt>
      <trkpt lat="43.49705" lon="6.57683">
        <ele>56</ele>
        <time>2026-03-27T13:15:07Z</time>
      </trkpt>
      <trkpt lat="43.49705" lon="6.57684">
        <ele>56</ele>
        <time>2026-03-27T13:15:08Z</time>
      </trkpt>
      <trkpt lat="43.49705" lon="6.57685">
        <ele>56</ele>
        <time>2026-03-27T13:15:09Z</time>
      </trkpt>
      <trkpt lat="43.49705" lon="6.57686">
        <ele>56</ele>
        <time>2026-03-27T13:15:10Z</time>
      </trkpt>
      <trkpt lat="43.49704" lon="6.57687">
        <ele>56</ele>
        <time>2026-03-27T13:15:11Z</time>
      </trkpt>
      <trkpt lat="43.49704" lon="6.57688">
        <ele>56.2</ele>
        <time>2026-03-27T13:15:12Z</time>
      </trkpt>
      <trkpt lat="43.49703" lon="6.57688">
        <ele>56.2</ele>
        <time>2026-03-27T13:15:13Z</time>
      </trkpt>
      <trkpt lat="43.49703" lon="6.57689">
        <ele>56.4</ele>
        <time>2026-03-27T13:15:14Z</time>
      </trkpt>
      <trkpt lat="43.49702" lon="6.5769">
        <ele>56.5</ele>
        <time>2026-03-27T13:15:15Z</time>
      </trkpt>
      <trkpt lat="43.49701" lon="6.5769">
        <ele>56.4</ele>
        <time>2026-03-27T13:15:16Z</time>
      </trkpt>
      <trkpt lat="43.497" lon="6.57691">
        <ele>56.5</ele>
        <time>2026-03-27T13:15:17Z</time>
      </trkpt>
      <trkpt lat="43.497" lon="6.57692">
        <ele>56.7</ele>
        <time>2026-03-27T13:15:18Z</time>
      </trkpt>
      <trkpt lat="43.49699" lon="6.57693">
        <ele>56.9</ele>
        <time>2026-03-27T13:15:19Z</time>
      </trkpt>
      <trkpt lat="43.49699" lon="6.57695">
        <ele>57.1</ele>
        <time>2026-03-27T13:15:20Z</time>
      </trkpt>
      <trkpt lat="43.49698" lon="6.57697">
        <ele>57.3</ele>
        <time>2026-03-27T13:15:21Z</time>
      </trkpt>
      <trkpt lat="43.49698" lon="6.57698">
        <ele>57.4</ele>
        <time>2026-03-27T13:15:22Z</time>
      </trkpt>
      <trkpt lat="43.49697" lon="6.57699">
        <ele>57.5</ele>
        <time>2026-03-27T13:15:23Z</time>
      </trkpt>
      <trkpt lat="43.49698" lon="6.577">
        <ele>57.6</ele>
        <time>2026-03-27T13:15:24Z</time>
      </trkpt>
      <trkpt lat="43.49697" lon="6.57701">
        <ele>57.7</ele>
        <time>2026-03-27T13:15:25Z</time>
      </trkpt>
      <trkpt lat="43.49697" lon="6.57701">
        <ele>57.7</ele>
        <time>2026-03-27T13:15:26Z</time>
      </trkpt>
      <trkpt lat="43.49697" lon="6.57702">
        <ele>57.7</ele>
        <time>2026-03-27T13:15:27Z</time>
      </trkpt>
      <trkpt lat="43.49697" lon="6.57702">
        <ele>57.7</ele>
        <time>2026-03-27T13:15:28Z</time>
      </trkpt>
      <trkpt lat="43.49697" lon="6.57703">
        <ele>57.7</ele>
        <time>2026-03-27T13:15:29Z</time>
      </trkpt>
      <trkpt lat="43.49697" lon="6.57704">
        <ele>57.8</ele>
        <time>2026-03-27T13:15:30Z</time>
      </trkpt>
      <trkpt lat="43.49697" lon="6.57705">
        <ele>57.8</ele>
        <time>2026-03-27T13:15:31Z</time>
      </trkpt>
      <trkpt lat="43.49696" lon="6.57705">
        <ele>57.8</ele>
        <time>2026-03-27T13:15:32Z</time>
      </trkpt>
      <trkpt lat="43.49696" lon="6.57706">
        <ele>57.8</ele>
        <time>2026-03-27T13:15:33Z</time>
      </trkpt>
      <trkpt lat="43.49696" lon="6.57706">
        <ele>57.9</ele>
        <time>2026-03-27T13:15:34Z</time>
      </trkpt>
      <trkpt lat="43.49696" lon="6.57706">
        <ele>57.9</ele>
        <time>2026-03-27T13:15:35Z</time>
      </trkpt>
      <trkpt lat="43.49696" lon="6.57707">
        <ele>58</ele>
        <time>2026-03-27T13:15:36Z</time>
      </trkpt>
      <trkpt lat="43.49696" lon="6.57707">
        <ele>58.1</ele>
        <time>2026-03-27T13:15:37Z</time>
      </trkpt>
      <trkpt lat="43.49696" lon="6.57707">
        <ele>58.2</ele>
        <time>2026-03-27T13:15:38Z</time>
      </trkpt>
      <trkpt lat="43.49696" lon="6.57707">
        <ele>58.2</ele>
        <time>2026-03-27T13:15:39Z</time>
      </trkpt>
      <trkpt lat="43.49696" lon="6.57707">
        <ele>58.1</ele>
        <time>2026-03-27T13:15:40Z</time>
      </trkpt>
      <trkpt lat="43.49696" lon="6.57707">
        <ele>58.2</ele>
        <time>2026-03-27T13:15:41Z</time>
      </trkpt>
      <trkpt lat="43.49696" lon="6.57707">
        <ele>58.2</ele>
        <time>2026-03-27T13:15:42Z</time>
      </trkpt>
      <trkpt lat="43.49695" lon="6.57707">
        <ele>58.2</ele>
        <time>2026-03-27T13:15:43Z</time>
      </trkpt>
      <trkpt lat="43.49695" lon="6.57707">
        <ele>58.1</ele>
        <time>2026-03-27T13:15:44Z</time>
      </trkpt>
      <trkpt lat="43.49695" lon="6.57707">
        <ele>58.1</ele>
        <time>2026-03-27T13:15:45Z</time>
      </trkpt>
      <trkpt lat="43.49695" lon="6.57708">
        <ele>58.1</ele>
        <time>2026-03-27T13:15:46Z</time>
      </trkpt>
      <trkpt lat="43.49695" lon="6.57708">
        <ele>58</ele>
        <time>2026-03-27T13:15:47Z</time>
      </trkpt>
      <trkpt lat="43.49695" lon="6.57708">
        <ele>57.9</ele>
        <time>2026-03-27T13:15:48Z</time>
      </trkpt>
      <trkpt lat="43.49695" lon="6.57708">
        <ele>57.9</ele>
        <time>2026-03-27T13:15:49Z</time>
      </trkpt>
      <trkpt lat="43.49695" lon="6.57708">
        <ele>57.8</ele>
        <time>2026-03-27T13:15:50Z</time>
      </trkpt>
      <trkpt lat="43.49695" lon="6.57708">
        <ele>57.8</ele>
        <time>2026-03-27T13:15:51Z</time>
      </trkpt>
      <trkpt lat="43.49695" lon="6.57708">
        <ele>57.7</ele>
        <time>2026-03-27T13:15:52Z</time>
      </trkpt>
      <trkpt lat="43.49695" lon="6.57708">
        <ele>57.8</ele>
        <time>2026-03-27T13:15:53Z</time>
      </trkpt>
      <trkpt lat="43.49695" lon="6.57708">
        <ele>57.8</ele>
        <time>2026-03-27T13:15:54Z</time>
      </trkpt>
      <trkpt lat="43.49695" lon="6.57709">
        <ele>57.8</ele>
        <time>2026-03-27T13:15:55Z</time>
      </trkpt>
      <trkpt lat="43.49695" lon="6.57709">
        <ele>57.8</ele>
        <time>2026-03-27T13:15:56Z</time>
      </trkpt>
      <trkpt lat="43.49694" lon="6.57709">
        <ele>57.9</ele>
        <time>2026-03-27T13:15:57Z</time>
      </trkpt>
      <trkpt lat="43.49694" lon="6.57709">
        <ele>58</ele>
        <time>2026-03-27T13:15:58Z</time>
      </trkpt>
      <trkpt lat="43.49693" lon="6.5771">
        <ele>58.1</ele>
        <time>2026-03-27T13:15:59Z</time>
      </trkpt>
      <trkpt lat="43.49693" lon="6.57711">
        <ele>58.2</ele>
        <time>2026-03-27T13:16:00Z</time>
      </trkpt>
      <trkpt lat="43.49693" lon="6.57712">
        <ele>58.3</ele>
        <time>2026-03-27T13:16:01Z</time>
      </trkpt>
      <trkpt lat="43.49693" lon="6.57713">
        <ele>58.3</ele>
        <time>2026-03-27T13:16:02Z</time>
      </trkpt>
      <trkpt lat="43.49693" lon="6.57714">
        <ele>58.4</ele>
        <time>2026-03-27T13:16:03Z</time>
      </trkpt>
      <trkpt lat="43.49692" lon="6.57714">
        <ele>58.4</ele>
        <time>2026-03-27T13:16:04Z</time>
      </trkpt>
      <trkpt lat="43.49692" lon="6.57715">
        <ele>58.5</ele>
        <time>2026-03-27T13:16:05Z</time>
      </trkpt>
      <trkpt lat="43.49691" lon="6.57715">
        <ele>58.7</ele>
        <time>2026-03-27T13:16:06Z</time>
      </trkpt>
      <trkpt lat="43.49691" lon="6.57716">
        <ele>58.8</ele>
        <time>2026-03-27T13:16:07Z</time>
      </trkpt>
      <trkpt lat="43.4969" lon="6.57717">
        <ele>58.8</ele>
        <time>2026-03-27T13:16:08Z</time>
      </trkpt>
      <trkpt lat="43.49689" lon="6.57717">
        <ele>58.8</ele>
        <time>2026-03-27T13:16:09Z</time>
      </trkpt>
      <trkpt lat="43.49688" lon="6.57717">
        <ele>58.8</ele>
        <time>2026-03-27T13:16:10Z</time>
      </trkpt>
      <trkpt lat="43.49687" lon="6.57718">
        <ele>59</ele>
        <time>2026-03-27T13:16:11Z</time>
      </trkpt>
      <trkpt lat="43.49686" lon="6.57718">
        <ele>59.1</ele>
        <time>2026-03-27T13:16:12Z</time>
      </trkpt>
      <trkpt lat="43.49686" lon="6.57719">
        <ele>59.1</ele>
        <time>2026-03-27T13:16:13Z</time>
      </trkpt>
      <trkpt lat="43.49684" lon="6.57719">
        <ele>59.2</ele>
        <time>2026-03-27T13:16:14Z</time>
      </trkpt>
      <trkpt lat="43.49684" lon="6.5772">
        <ele>59.2</ele>
        <time>2026-03-27T13:16:15Z</time>
      </trkpt>
      <trkpt lat="43.49684" lon="6.5772">
        <ele>59.2</ele>
        <time>2026-03-27T13:16:16Z</time>
      </trkpt>
      <trkpt lat="43.49685" lon="6.5772">
        <ele>59.1</ele>
        <time>2026-03-27T13:16:17Z</time>
      </trkpt>
      <trkpt lat="43.49685" lon="6.57721">
        <ele>59.1</ele>
        <time>2026-03-27T13:16:18Z</time>
      </trkpt>
      <trkpt lat="43.49685" lon="6.57721">
        <ele>59.1</ele>
        <time>2026-03-27T13:16:19Z</time>
      </trkpt>
      <trkpt lat="43.49685" lon="6.57723">
        <ele>59.1</ele>
        <time>2026-03-27T13:16:20Z</time>
      </trkpt>
      <trkpt lat="43.49685" lon="6.57724">
        <ele>59.1</ele>
        <time>2026-03-27T13:16:21Z</time>
      </trkpt>
      <trkpt lat="43.49685" lon="6.57725">
        <ele>59.1</ele>
        <time>2026-03-27T13:16:22Z</time>
      </trkpt>
      <trkpt lat="43.49686" lon="6.57726">
        <ele>59</ele>
        <time>2026-03-27T13:16:23Z</time>
      </trkpt>
      <trkpt lat="43.49686" lon="6.57727">
        <ele>59</ele>
        <time>2026-03-27T13:16:24Z</time>
      </trkpt>
      <trkpt lat="43.49686" lon="6.57727">
        <ele>59</ele>
        <time>2026-03-27T13:16:25Z</time>
      </trkpt>
      <trkpt lat="43.49686" lon="6.57728">
        <ele>59</ele>
        <time>2026-03-27T13:16:26Z</time>
      </trkpt>
      <trkpt lat="43.49687" lon="6.57728">
        <ele>59</ele>
        <time>2026-03-27T13:16:27Z</time>
      </trkpt>
      <trkpt lat="43.49687" lon="6.57728">
        <ele>59</ele>
        <time>2026-03-27T13:16:28Z</time>
      </trkpt>
      <trkpt lat="43.49687" lon="6.57728">
        <ele>59</ele>
        <time>2026-03-27T13:16:29Z</time>
      </trkpt>
      <trkpt lat="43.49687" lon="6.57728">
        <ele>59.1</ele>
        <time>2026-03-27T13:16:30Z</time>
      </trkpt>
      <trkpt lat="43.49688" lon="6.57729">
        <ele>59.1</ele>
        <time>2026-03-27T13:16:31Z</time>
      </trkpt>
      <trkpt lat="43.49688" lon="6.57729">
        <ele>59.1</ele>
        <time>2026-03-27T13:16:32Z</time>
      </trkpt>
      <trkpt lat="43.49688" lon="6.57729">
        <ele>59.2</ele>
        <time>2026-03-27T13:16:33Z</time>
      </trkpt>
      <trkpt lat="43.49689" lon="6.57729">
        <ele>59.2</ele>
        <time>2026-03-27T13:16:34Z</time>
      </trkpt>
      <trkpt lat="43.49689" lon="6.57729">
        <ele>59.2</ele>
        <time>2026-03-27T13:16:35Z</time>
      </trkpt>
      <trkpt lat="43.4969" lon="6.57729">
        <ele>59.2</ele>
        <time>2026-03-27T13:16:36Z</time>
      </trkpt>
      <trkpt lat="43.4969" lon="6.57729">
        <ele>59.2</ele>
        <time>2026-03-27T13:16:37Z</time>
      </trkpt>
      <trkpt lat="43.4969" lon="6.57728">
        <ele>59.3</ele>
        <time>2026-03-27T13:16:38Z</time>
      </trkpt>
      <trkpt lat="43.4969" lon="6.57728">
        <ele>59.2</ele>
        <time>2026-03-27T13:16:39Z</time>
      </trkpt>
      <trkpt lat="43.4969" lon="6.57728">
        <ele>59.3</ele>
        <time>2026-03-27T13:16:40Z</time>
      </trkpt>
      <trkpt lat="43.4969" lon="6.57728">
        <ele>59.4</ele>
        <time>2026-03-27T13:16:41Z</time>
      </trkpt>
      <trkpt lat="43.4969" lon="6.57728">
        <ele>59.4</ele>
        <time>2026-03-27T13:16:42Z</time>
      </trkpt>
      <trkpt lat="43.4969" lon="6.57728">
        <ele>59.3</ele>
        <time>2026-03-27T13:16:43Z</time>
      </trkpt>
      <trkpt lat="43.4969" lon="6.57728">
        <ele>59.2</ele>
        <time>2026-03-27T13:16:44Z</time>
      </trkpt>
      <trkpt lat="43.4969" lon="6.57728">
        <ele>59.1</ele>
        <time>2026-03-27T13:16:45Z</time>
      </trkpt>
      <trkpt lat="43.49691" lon="6.57729">
        <ele>59.1</ele>
        <time>2026-03-27T13:16:46Z</time>
      </trkpt>
      <trkpt lat="43.49691" lon="6.57729">
        <ele>59.1</ele>
        <time>2026-03-27T13:16:47Z</time>
      </trkpt>
      <trkpt lat="43.4969" lon="6.57729">
        <ele>59.2</ele>
        <time>2026-03-27T13:16:48Z</time>
      </trkpt>
      <trkpt lat="43.49691" lon="6.57729">
        <ele>59.2</ele>
        <time>2026-03-27T13:16:49Z</time>
      </trkpt>
      <trkpt lat="43.4969" lon="6.5773">
        <ele>59.2</ele>
        <time>2026-03-27T13:16:50Z</time>
      </trkpt>
      <trkpt lat="43.4969" lon="6.5773">
        <ele>59.2</ele>
        <time>2026-03-27T13:16:51Z</time>
      </trkpt>
      <trkpt lat="43.4969" lon="6.57731">
        <ele>59.3</ele>
        <time>2026-03-27T13:16:52Z</time>
      </trkpt>
      <trkpt lat="43.4969" lon="6.57733">
        <ele>59.3</ele>
        <time>2026-03-27T13:16:53Z</time>
      </trkpt>
      <trkpt lat="43.4969" lon="6.57733">
        <ele>59.3</ele>
        <time>2026-03-27T13:16:54Z</time>
      </trkpt>
      <trkpt lat="43.49689" lon="6.57734">
        <ele>59.3</ele>
        <time>2026-03-27T13:16:55Z</time>
      </trkpt>
      <trkpt lat="43.49689" lon="6.57734">
        <ele>59.3</ele>
        <time>2026-03-27T13:16:56Z</time>
      </trkpt>
      <trkpt lat="43.49689" lon="6.57734">
        <ele>59.3</ele>
        <time>2026-03-27T13:16:57Z</time>
      </trkpt>
      <trkpt lat="43.49689" lon="6.57733">
        <ele>59.2</ele>
        <time>2026-03-27T13:16:58Z</time>
      </trkpt>
      <trkpt lat="43.49689" lon="6.57734">
        <ele>59.1</ele>
        <time>2026-03-27T13:16:59Z</time>
      </trkpt>
      <trkpt lat="43.4969" lon="6.57733">
        <ele>59.1</ele>
        <time>2026-03-27T13:17:00Z</time>
      </trkpt>
      <trkpt lat="43.4969" lon="6.57734">
        <ele>59</ele>
        <time>2026-03-27T13:17:01Z</time>
      </trkpt>
      <trkpt lat="43.49689" lon="6.57733">
        <ele>58.9</ele>
        <time>2026-03-27T13:17:02Z</time>
      </trkpt>
      <trkpt lat="43.49689" lon="6.57733">
        <ele>58.8</ele>
        <time>2026-03-27T13:17:03Z</time>
      </trkpt>
      <trkpt lat="43.49689" lon="6.57733">
        <ele>58.7</ele>
        <time>2026-03-27T13:17:04Z</time>
      </trkpt>
      <trkpt lat="43.49689" lon="6.57732">
        <ele>58.8</ele>
        <time>2026-03-27T13:17:05Z</time>
      </trkpt>
      <trkpt lat="43.49689" lon="6.57732">
        <ele>58.9</ele>
        <time>2026-03-27T13:17:06Z</time>
      </trkpt>
      <trkpt lat="43.49689" lon="6.57732">
        <ele>59</ele>
        <time>2026-03-27T13:17:07Z</time>
      </trkpt>
      <trkpt lat="43.49689" lon="6.57732">
        <ele>58.9</ele>
        <time>2026-03-27T13:17:08Z</time>
      </trkpt>
      <trkpt lat="43.49688" lon="6.57732">
        <ele>58.9</ele>
        <time>2026-03-27T13:17:09Z</time>
      </trkpt>
      <trkpt lat="43.49688" lon="6.57731">
        <ele>59</ele>
        <time>2026-03-27T13:17:10Z</time>
      </trkpt>
      <trkpt lat="43.49688" lon="6.57731">
        <ele>59</ele>
        <time>2026-03-27T13:17:11Z</time>
      </trkpt>
      <trkpt lat="43.49688" lon="6.57731">
        <ele>58.9</ele>
        <time>2026-03-27T13:17:12Z</time>
      </trkpt>
      <trkpt lat="43.49687" lon="6.5773">
        <ele>59</ele>
        <time>2026-03-27T13:17:13Z</time>
      </trkpt>
      <trkpt lat="43.49687" lon="6.5773">
        <ele>59</ele>
        <time>2026-03-27T13:17:14Z</time>
      </trkpt>
      <trkpt lat="43.49688" lon="6.5773">
        <ele>59.1</ele>
        <time>2026-03-27T13:17:15Z</time>
      </trkpt>
      <trkpt lat="43.49687" lon="6.5773">
        <ele>59</ele>
        <time>2026-03-27T13:17:16Z</time>
      </trkpt>
      <trkpt lat="43.49687" lon="6.5773">
        <ele>59</ele>
        <time>2026-03-27T13:17:17Z</time>
      </trkpt>
      <trkpt lat="43.49688" lon="6.5773">
        <ele>59</ele>
        <time>2026-03-27T13:17:18Z</time>
      </trkpt>
      <trkpt lat="43.49687" lon="6.5773">
        <ele>59.1</ele>
        <time>2026-03-27T13:17:19Z</time>
      </trkpt>
      <trkpt lat="43.49687" lon="6.5773">
        <ele>59.1</ele>
        <time>2026-03-27T13:17:20Z</time>
      </trkpt>
      <trkpt lat="43.49688" lon="6.57729">
        <ele>59.1</ele>
        <time>2026-03-27T13:17:21Z</time>
      </trkpt>
      <trkpt lat="43.49688" lon="6.57729">
        <ele>59.1</ele>
        <time>2026-03-27T13:17:22Z</time>
      </trkpt>
      <trkpt lat="43.49688" lon="6.57729">
        <ele>59.1</ele>
        <time>2026-03-27T13:17:23Z</time>
      </trkpt>
      <trkpt lat="43.49688" lon="6.57729">
        <ele>59.1</ele>
        <time>2026-03-27T13:17:24Z</time>
      </trkpt>
      <trkpt lat="43.49688" lon="6.57729">
        <ele>59</ele>
        <time>2026-03-27T13:17:25Z</time>
      </trkpt>
      <trkpt lat="43.49689" lon="6.57729">
        <ele>59.1</ele>
        <time>2026-03-27T13:17:26Z</time>
      </trkpt>
      <trkpt lat="43.49688" lon="6.5773">
        <ele>59.1</ele>
        <time>2026-03-27T13:17:27Z</time>
      </trkpt>
      <trkpt lat="43.49688" lon="6.5773">
        <ele>59.1</ele>
        <time>2026-03-27T13:17:28Z</time>
      </trkpt>
      <trkpt lat="43.49688" lon="6.5773">
        <ele>59.1</ele>
        <time>2026-03-27T13:17:29Z</time>
      </trkpt>
      <trkpt lat="43.49688" lon="6.5773">
        <ele>59.2</ele>
        <time>2026-03-27T13:17:30Z</time>
      </trkpt>
      <trkpt lat="43.49687" lon="6.57729">
        <ele>59.2</ele>
        <time>2026-03-27T13:17:31Z</time>
      </trkpt>
      <trkpt lat="43.49687" lon="6.57729">
        <ele>59.2</ele>
        <time>2026-03-27T13:17:32Z</time>
      </trkpt>
      <trkpt lat="43.49687" lon="6.57729">
        <ele>59.2</ele>
        <time>2026-03-27T13:17:33Z</time>
      </trkpt>
      <trkpt lat="43.49687" lon="6.57729">
        <ele>59.1</ele>
        <time>2026-03-27T13:17:34Z</time>
      </trkpt>
      <trkpt lat="43.49687" lon="6.57729">
        <ele>59.1</ele>
        <time>2026-03-27T13:17:35Z</time>
      </trkpt>
      <trkpt lat="43.49687" lon="6.57729">
        <ele>59.1</ele>
        <time>2026-03-27T13:17:36Z</time>
      </trkpt>
      <trkpt lat="43.49687" lon="6.57729">
        <ele>59.1</ele>
        <time>2026-03-27T13:17:37Z</time>
      </trkpt>
      <trkpt lat="43.49687" lon="6.57729">
        <ele>59.1</ele>
        <time>2026-03-27T13:17:38Z</time>
      </trkpt>
      <trkpt lat="43.49687" lon="6.57729">
        <ele>59.1</ele>
        <time>2026-03-27T13:17:39Z</time>
      </trkpt>
      <trkpt lat="43.49686" lon="6.5773">
        <ele>59</ele>
        <time>2026-03-27T13:17:40Z</time>
      </trkpt>
      <trkpt lat="43.49686" lon="6.5773">
        <ele>59</ele>
        <time>2026-03-27T13:17:41Z</time>
      </trkpt>
      <trkpt lat="43.49687" lon="6.5773">
        <ele>59</ele>
        <time>2026-03-27T13:17:42Z</time>
      </trkpt>
      <trkpt lat="43.49687" lon="6.5773">
        <ele>59</ele>
        <time>2026-03-27T13:17:43Z</time>
      </trkpt>
      <trkpt lat="43.49687" lon="6.57729">
        <ele>59.1</ele>
        <time>2026-03-27T13:17:44Z</time>
      </trkpt>
      <trkpt lat="43.49687" lon="6.57729">
        <ele>59.1</ele>
        <time>2026-03-27T13:17:45Z</time>
      </trkpt>
      <trkpt lat="43.49687" lon="6.57728">
        <ele>59.1</ele>
        <time>2026-03-27T13:17:46Z</time>
      </trkpt>
      <trkpt lat="43.49687" lon="6.57727">
        <ele>59.1</ele>
        <time>2026-03-27T13:17:47Z</time>
      </trkpt>
      <trkpt lat="43.49686" lon="6.57727">
        <ele>59</ele>
        <time>2026-03-27T13:17:48Z</time>
      </trkpt>
      <trkpt lat="43.49686" lon="6.57727">
        <ele>59</ele>
        <time>2026-03-27T13:17:49Z</time>
      </trkpt>
      <trkpt lat="43.49686" lon="6.57726">
        <ele>58.9</ele>
        <time>2026-03-27T13:17:50Z</time>
      </trkpt>
      <trkpt lat="43.49686" lon="6.57726">
        <ele>58.9</ele>
        <time>2026-03-27T13:17:51Z</time>
      </trkpt>
      <trkpt lat="43.49686" lon="6.57726">
        <ele>58.9</ele>
        <time>2026-03-27T13:17:52Z</time>
      </trkpt>
      <trkpt lat="43.49686" lon="6.57726">
        <ele>58.9</ele>
        <time>2026-03-27T13:17:53Z</time>
      </trkpt>
      <trkpt lat="43.49686" lon="6.57725">
        <ele>58.9</ele>
        <time>2026-03-27T13:17:54Z</time>
      </trkpt>
      <trkpt lat="43.49686" lon="6.57725">
        <ele>58.9</ele>
        <time>2026-03-27T13:17:55Z</time>
      </trkpt>
      <trkpt lat="43.49686" lon="6.57725">
        <ele>58.9</ele>
        <time>2026-03-27T13:17:56Z</time>
      </trkpt>
      <trkpt lat="43.49685" lon="6.57726">
        <ele>58.8</ele>
        <time>2026-03-27T13:17:57Z</time>
      </trkpt>
      <trkpt lat="43.49686" lon="6.57727">
        <ele>58.7</ele>
        <time>2026-03-27T13:17:58Z</time>
      </trkpt>
      <trkpt lat="43.49686" lon="6.57728">
        <ele>58.5</ele>
        <time>2026-03-27T13:17:59Z</time>
      </trkpt>
      <trkpt lat="43.49686" lon="6.57729">
        <ele>58.4</ele>
        <time>2026-03-27T13:18:00Z</time>
      </trkpt>
      <trkpt lat="43.49687" lon="6.5773">
        <ele>58.4</ele>
        <time>2026-03-27T13:18:01Z</time>
      </trkpt>
      <trkpt lat="43.49687" lon="6.5773">
        <ele>58.3</ele>
        <time>2026-03-27T13:18:02Z</time>
      </trkpt>
      <trkpt lat="43.49688" lon="6.57731">
        <ele>58.3</ele>
        <time>2026-03-27T13:18:03Z</time>
      </trkpt>
      <trkpt lat="43.49688" lon="6.57732">
        <ele>58.3</ele>
        <time>2026-03-27T13:18:04Z</time>
      </trkpt>
      <trkpt lat="43.49688" lon="6.57732">
        <ele>58.2</ele>
        <time>2026-03-27T13:18:05Z</time>
      </trkpt>
      <trkpt lat="43.49688" lon="6.57733">
        <ele>58.2</ele>
        <time>2026-03-27T13:18:06Z</time>
      </trkpt>
      <trkpt lat="43.49688" lon="6.57733">
        <ele>58.2</ele>
        <time>2026-03-27T13:18:07Z</time>
      </trkpt>
      <trkpt lat="43.49688" lon="6.57734">
        <ele>58.1</ele>
        <time>2026-03-27T13:18:08Z</time>
      </trkpt>
      <trkpt lat="43.49688" lon="6.57735">
        <ele>58.2</ele>
        <time>2026-03-27T13:18:09Z</time>
      </trkpt>
      <trkpt lat="43.49688" lon="6.57736">
        <ele>58.2</ele>
        <time>2026-03-27T13:18:10Z</time>
      </trkpt>
      <trkpt lat="43.49689" lon="6.57737">
        <ele>58.2</ele>
        <time>2026-03-27T13:18:11Z</time>
      </trkpt>
      <trkpt lat="43.4969" lon="6.57738">
        <ele>58.4</ele>
        <time>2026-03-27T13:18:12Z</time>
      </trkpt>
      <trkpt lat="43.4969" lon="6.57739">
        <ele>58.3</ele>
        <time>2026-03-27T13:18:13Z</time>
      </trkpt>
      <trkpt lat="43.4969" lon="6.57739">
        <ele>58.2</ele>
        <time>2026-03-27T13:18:14Z</time>
      </trkpt>
      <trkpt lat="43.4969" lon="6.5774">
        <ele>58.3</ele>
        <time>2026-03-27T13:18:15Z</time>
      </trkpt>
      <trkpt lat="43.4969" lon="6.57741">
        <ele>58.3</ele>
        <time>2026-03-27T13:18:16Z</time>
      </trkpt>
      <trkpt lat="43.49691" lon="6.57742">
        <ele>58.4</ele>
        <time>2026-03-27T13:18:17Z</time>
      </trkpt>
      <trkpt lat="43.49691" lon="6.57742">
        <ele>58.5</ele>
        <time>2026-03-27T13:18:18Z</time>
      </trkpt>
      <trkpt lat="43.49691" lon="6.57742">
        <ele>58.6</ele>
        <time>2026-03-27T13:18:19Z</time>
      </trkpt>
      <trkpt lat="43.49691" lon="6.57743">
        <ele>58.5</ele>
        <time>2026-03-27T13:18:20Z</time>
      </trkpt>
      <trkpt lat="43.49691" lon="6.57743">
        <ele>58.3</ele>
        <time>2026-03-27T13:18:21Z</time>
      </trkpt>
      <trkpt lat="43.49691" lon="6.57743">
        <ele>58.3</ele>
        <time>2026-03-27T13:18:22Z</time>
      </trkpt>
      <trkpt lat="43.49691" lon="6.57743">
        <ele>58.3</ele>
        <time>2026-03-27T13:18:23Z</time>
      </trkpt>
      <trkpt lat="43.49691" lon="6.57743">
        <ele>58.3</ele>
        <time>2026-03-27T13:18:24Z</time>
      </trkpt>
      <trkpt lat="43.49691" lon="6.57743">
        <ele>58.5</ele>
        <time>2026-03-27T13:18:25Z</time>
      </trkpt>
      <trkpt lat="43.49691" lon="6.57742">
        <ele>58.4</ele>
        <time>2026-03-27T13:18:26Z</time>
      </trkpt>
      <trkpt lat="43.4969" lon="6.57742">
        <ele>58.4</ele>
        <time>2026-03-27T13:18:27Z</time>
      </trkpt>
      <trkpt lat="43.4969" lon="6.57742">
        <ele>58.4</ele>
        <time>2026-03-27T13:18:28Z</time>
      </trkpt>
      <trkpt lat="43.49689" lon="6.57742">
        <ele>58.5</ele>
        <time>2026-03-27T13:18:29Z</time>
      </trkpt>
      <trkpt lat="43.4969" lon="6.57741">
        <ele>58.4</ele>
        <time>2026-03-27T13:18:30Z</time>
      </trkpt>
      <trkpt lat="43.49689" lon="6.57741">
        <ele>58.5</ele>
        <time>2026-03-27T13:18:31Z</time>
      </trkpt>
      <trkpt lat="43.49689" lon="6.57741">
        <ele>58.5</ele>
        <time>2026-03-27T13:18:32Z</time>
      </trkpt>
      <trkpt lat="43.49688" lon="6.57741">
        <ele>58.4</ele>
        <time>2026-03-27T13:18:33Z</time>
      </trkpt>
      <trkpt lat="43.49688" lon="6.57741">
        <ele>58.5</ele>
        <time>2026-03-27T13:18:34Z</time>
      </trkpt>
      <trkpt lat="43.49688" lon="6.5774">
        <ele>58.5</ele>
        <time>2026-03-27T13:18:35Z</time>
      </trkpt>
      <trkpt lat="43.49688" lon="6.5774">
        <ele>58.6</ele>
        <time>2026-03-27T13:18:36Z</time>
      </trkpt>
      <trkpt lat="43.49688" lon="6.5774">
        <ele>58.6</ele>
        <time>2026-03-27T13:18:37Z</time>
      </trkpt>
      <trkpt lat="43.49688" lon="6.57739">
        <ele>58.6</ele>
        <time>2026-03-27T13:18:38Z</time>
      </trkpt>
      <trkpt lat="43.49688" lon="6.57739">
        <ele>58.6</ele>
        <time>2026-03-27T13:18:39Z</time>
      </trkpt>
      <trkpt lat="43.49688" lon="6.57739">
        <ele>58.6</ele>
        <time>2026-03-27T13:18:40Z</time>
      </trkpt>
      <trkpt lat="43.49688" lon="6.57739">
        <ele>58.5</ele>
        <time>2026-03-27T13:18:41Z</time>
      </trkpt>
      <trkpt lat="43.49688" lon="6.57739">
        <ele>58.5</ele>
        <time>2026-03-27T13:18:42Z</time>
      </trkpt>
      <trkpt lat="43.49689" lon="6.57739">
        <ele>58.5</ele>
        <time>2026-03-27T13:18:43Z</time>
      </trkpt>
      <trkpt lat="43.49689" lon="6.57739">
        <ele>58.5</ele>
        <time>2026-03-27T13:18:44Z</time>
      </trkpt>
      <trkpt lat="43.49689" lon="6.57739">
        <ele>58.5</ele>
        <time>2026-03-27T13:18:45Z</time>
      </trkpt>
      <trkpt lat="43.49689" lon="6.57739">
        <ele>58.6</ele>
        <time>2026-03-27T13:18:46Z</time>
      </trkpt>
      <trkpt lat="43.49689" lon="6.57739">
        <ele>58.7</ele>
        <time>2026-03-27T13:18:47Z</time>
      </trkpt>
      <trkpt lat="43.49689" lon="6.57739">
        <ele>58.7</ele>
        <time>2026-03-27T13:18:48Z</time>
      </trkpt>
      <trkpt lat="43.49689" lon="6.57739">
        <ele>58.7</ele>
        <time>2026-03-27T13:18:49Z</time>
      </trkpt>
      <trkpt lat="43.49689" lon="6.57739">
        <ele>58.8</ele>
        <time>2026-03-27T13:18:50Z</time>
      </trkpt>
      <trkpt lat="43.49689" lon="6.57738">
        <ele>58.8</ele>
        <time>2026-03-27T13:18:51Z</time>
      </trkpt>
      <trkpt lat="43.4969" lon="6.57739">
        <ele>58.9</ele>
        <time>2026-03-27T13:18:52Z</time>
      </trkpt>
      <trkpt lat="43.4969" lon="6.57739">
        <ele>58.8</ele>
        <time>2026-03-27T13:18:53Z</time>
      </trkpt>
      <trkpt lat="43.4969" lon="6.57739">
        <ele>58.8</ele>
        <time>2026-03-27T13:18:54Z</time>
      </trkpt>
      <trkpt lat="43.4969" lon="6.57739">
        <ele>58.7</ele>
        <time>2026-03-27T13:18:55Z</time>
      </trkpt>
      <trkpt lat="43.4969" lon="6.57739">
        <ele>58.7</ele>
        <time>2026-03-27T13:18:56Z</time>
      </trkpt>
      <trkpt lat="43.4969" lon="6.5774">
        <ele>58.7</ele>
        <time>2026-03-27T13:18:57Z</time>
      </trkpt>
      <trkpt lat="43.4969" lon="6.5774">
        <ele>58.7</ele>
        <time>2026-03-27T13:18:58Z</time>
      </trkpt>
      <trkpt lat="43.4969" lon="6.5774">
        <ele>58.8</ele>
        <time>2026-03-27T13:18:59Z</time>
      </trkpt>
      <trkpt lat="43.49691" lon="6.57741">
        <ele>58.8</ele>
        <time>2026-03-27T13:19:00Z</time>
      </trkpt>
      <trkpt lat="43.49691" lon="6.57741">
        <ele>58.8</ele>
        <time>2026-03-27T13:19:01Z</time>
      </trkpt>
      <trkpt lat="43.49691" lon="6.57741">
        <ele>58.8</ele>
        <time>2026-03-27T13:19:02Z</time>
      </trkpt>
      <trkpt lat="43.49691" lon="6.57741">
        <ele>58.9</ele>
        <time>2026-03-27T13:19:03Z</time>
      </trkpt>
      <trkpt lat="43.49691" lon="6.57741">
        <ele>58.8</ele>
        <time>2026-03-27T13:19:04Z</time>
      </trkpt>
      <trkpt lat="43.49691" lon="6.57741">
        <ele>58.8</ele>
        <time>2026-03-27T13:19:05Z</time>
      </trkpt>
      <trkpt lat="43.49691" lon="6.57741">
        <ele>58.7</ele>
        <time>2026-03-27T13:19:06Z</time>
      </trkpt>
      <trkpt lat="43.49691" lon="6.57741">
        <ele>58.8</ele>
        <time>2026-03-27T13:19:07Z</time>
      </trkpt>
      <trkpt lat="43.49691" lon="6.57741">
        <ele>58.8</ele>
        <time>2026-03-27T13:19:08Z</time>
      </trkpt>
      <trkpt lat="43.49692" lon="6.57742">
        <ele>58.9</ele>
        <time>2026-03-27T13:19:09Z</time>
      </trkpt>
      <trkpt lat="43.49692" lon="6.57742">
        <ele>58.9</ele>
        <time>2026-03-27T13:19:10Z</time>
      </trkpt>
      <trkpt lat="43.49692" lon="6.57742">
        <ele>58.9</ele>
        <time>2026-03-27T13:19:11Z</time>
      </trkpt>
      <trkpt lat="43.49691" lon="6.57742">
        <ele>58.8</ele>
        <time>2026-03-27T13:19:12Z</time>
      </trkpt>
      <trkpt lat="43.49691" lon="6.57742">
        <ele>58.8</ele>
        <time>2026-03-27T13:19:13Z</time>
      </trkpt>
      <trkpt lat="43.49691" lon="6.57742">
        <ele>58.8</ele>
        <time>2026-03-27T13:19:14Z</time>
      </trkpt>
      <trkpt lat="43.4969" lon="6.57742">
        <ele>58.7</ele>
        <time>2026-03-27T13:19:15Z</time>
      </trkpt>
      <trkpt lat="43.4969" lon="6.57742">
        <ele>58.7</ele>
        <time>2026-03-27T13:19:16Z</time>
      </trkpt>
      <trkpt lat="43.4969" lon="6.57742">
        <ele>58.7</ele>
        <time>2026-03-27T13:19:17Z</time>
      </trkpt>
      <trkpt lat="43.4969" lon="6.57742">
        <ele>58.6</ele>
        <time>2026-03-27T13:19:18Z</time>
      </trkpt>
      <trkpt lat="43.4969" lon="6.57742">
        <ele>58.5</ele>
        <time>2026-03-27T13:19:19Z</time>
      </trkpt>
      <trkpt lat="43.4969" lon="6.57742">
        <ele>58.5</ele>
        <time>2026-03-27T13:19:20Z</time>
      </trkpt>
      <trkpt lat="43.4969" lon="6.57742">
        <ele>58.5</ele>
        <time>2026-03-27T13:19:21Z</time>
      </trkpt>
      <trkpt lat="43.4969" lon="6.57742">
        <ele>58.5</ele>
        <time>2026-03-27T13:19:22Z</time>
      </trkpt>
      <trkpt lat="43.49689" lon="6.57742">
        <ele>58.5</ele>
        <time>2026-03-27T13:19:23Z</time>
      </trkpt>
      <trkpt lat="43.4969" lon="6.57742">
        <ele>58.6</ele>
        <time>2026-03-27T13:19:24Z</time>
      </trkpt>
      <trkpt lat="43.4969" lon="6.57743">
        <ele>58.6</ele>
        <time>2026-03-27T13:19:25Z</time>
      </trkpt>
      <trkpt lat="43.4969" lon="6.57743">
        <ele>58.6</ele>
        <time>2026-03-27T13:19:26Z</time>
      </trkpt>
      <trkpt lat="43.4969" lon="6.57743">
        <ele>58.6</ele>
        <time>2026-03-27T13:19:27Z</time>
      </trkpt>
      <trkpt lat="43.4969" lon="6.57743">
        <ele>58.6</ele>
        <time>2026-03-27T13:19:28Z</time>
      </trkpt>
      <trkpt lat="43.4969" lon="6.57743">
        <ele>58.7</ele>
        <time>2026-03-27T13:19:29Z</time>
      </trkpt>
      <trkpt lat="43.4969" lon="6.57743">
        <ele>58.7</ele>
        <time>2026-03-27T13:19:30Z</time>
      </trkpt>
      <trkpt lat="43.49691" lon="6.57743">
        <ele>58.8</ele>
        <time>2026-03-27T13:19:31Z</time>
      </trkpt>
      <trkpt lat="43.49691" lon="6.57743">
        <ele>58.9</ele>
        <time>2026-03-27T13:19:32Z</time>
      </trkpt>
      <trkpt lat="43.49691" lon="6.57743">
        <ele>58.9</ele>
        <time>2026-03-27T13:19:33Z</time>
      </trkpt>
      <trkpt lat="43.49691" lon="6.57743">
        <ele>58.9</ele>
        <time>2026-03-27T13:19:34Z</time>
      </trkpt>
      <trkpt lat="43.49691" lon="6.57743">
        <ele>59</ele>
        <time>2026-03-27T13:19:35Z</time>
      </trkpt>
      <trkpt lat="43.49691" lon="6.57743">
        <ele>59</ele>
        <time>2026-03-27T13:19:36Z</time>
      </trkpt>
      <trkpt lat="43.4969" lon="6.57743">
        <ele>59</ele>
        <time>2026-03-27T13:19:37Z</time>
      </trkpt>
      <trkpt lat="43.4969" lon="6.57743">
        <ele>59</ele>
        <time>2026-03-27T13:19:38Z</time>
      </trkpt>
      <trkpt lat="43.4969" lon="6.57744">
        <ele>59</ele>
        <time>2026-03-27T13:19:39Z</time>
      </trkpt>
      <trkpt lat="43.4969" lon="6.57744">
        <ele>59</ele>
        <time>2026-03-27T13:19:40Z</time>
      </trkpt>
      <trkpt lat="43.4969" lon="6.57744">
        <ele>59</ele>
        <time>2026-03-27T13:19:41Z</time>
      </trkpt>
      <trkpt lat="43.4969" lon="6.57744">
        <ele>58.9</ele>
        <time>2026-03-27T13:19:42Z</time>
      </trkpt>
      <trkpt lat="43.49689" lon="6.57744">
        <ele>58.9</ele>
        <time>2026-03-27T13:19:43Z</time>
      </trkpt>
      <trkpt lat="43.49689" lon="6.57744">
        <ele>59</ele>
        <time>2026-03-27T13:19:44Z</time>
      </trkpt>
      <trkpt lat="43.49689" lon="6.57744">
        <ele>59</ele>
        <time>2026-03-27T13:19:45Z</time>
      </trkpt>
      <trkpt lat="43.49689" lon="6.57744">
        <ele>59</ele>
        <time>2026-03-27T13:19:46Z</time>
      </trkpt>
      <trkpt lat="43.49689" lon="6.57744">
        <ele>58.9</ele>
        <time>2026-03-27T13:19:47Z</time>
      </trkpt>
      <trkpt lat="43.49689" lon="6.57744">
        <ele>58.8</ele>
        <time>2026-03-27T13:19:48Z</time>
      </trkpt>
      <trkpt lat="43.49689" lon="6.57744">
        <ele>58.7</ele>
        <time>2026-03-27T13:19:49Z</time>
      </trkpt>
      <trkpt lat="43.49689" lon="6.57745">
        <ele>58.7</ele>
        <time>2026-03-27T13:19:50Z</time>
      </trkpt>
      <trkpt lat="43.49688" lon="6.57745">
        <ele>58.6</ele>
        <time>2026-03-27T13:19:51Z</time>
      </trkpt>
      <trkpt lat="43.49689" lon="6.57745">
        <ele>58.6</ele>
        <time>2026-03-27T13:19:52Z</time>
      </trkpt>
      <trkpt lat="43.49689" lon="6.57745">
        <ele>58.6</ele>
        <time>2026-03-27T13:19:53Z</time>
      </trkpt>
      <trkpt lat="43.49689" lon="6.57745">
        <ele>58.7</ele>
        <time>2026-03-27T13:19:54Z</time>
      </trkpt>
      <trkpt lat="43.49689" lon="6.57745">
        <ele>58.7</ele>
        <time>2026-03-27T13:19:55Z</time>
      </trkpt>
      <trkpt lat="43.4969" lon="6.57746">
        <ele>58.7</ele>
        <time>2026-03-27T13:19:56Z</time>
      </trkpt>
      <trkpt lat="43.4969" lon="6.57747">
        <ele>58.8</ele>
        <time>2026-03-27T13:19:57Z</time>
      </trkpt>
      <trkpt lat="43.49691" lon="6.57747">
        <ele>58.7</ele>
        <time>2026-03-27T13:19:58Z</time>
      </trkpt>
      <trkpt lat="43.4969" lon="6.57747">
        <ele>58.7</ele>
        <time>2026-03-27T13:19:59Z</time>
      </trkpt>
      <trkpt lat="43.4969" lon="6.57747">
        <ele>58.7</ele>
        <time>2026-03-27T13:20:00Z</time>
      </trkpt>
      <trkpt lat="43.4969" lon="6.57747">
        <ele>58.6</ele>
        <time>2026-03-27T13:20:01Z</time>
      </trkpt>
      <trkpt lat="43.4969" lon="6.57747">
        <ele>58.6</ele>
        <time>2026-03-27T13:20:02Z</time>
      </trkpt>
      <trkpt lat="43.4969" lon="6.57747">
        <ele>58.6</ele>
        <time>2026-03-27T13:20:03Z</time>
      </trkpt>
      <trkpt lat="43.4969" lon="6.57747">
        <ele>58.6</ele>
        <time>2026-03-27T13:20:04Z</time>
      </trkpt>
      <trkpt lat="43.4969" lon="6.57747">
        <ele>58.6</ele>
        <time>2026-03-27T13:20:05Z</time>
      </trkpt>
      <trkpt lat="43.4969" lon="6.57747">
        <ele>58.7</ele>
        <time>2026-03-27T13:20:06Z</time>
      </trkpt>
      <trkpt lat="43.4969" lon="6.57747">
        <ele>58.7</ele>
        <time>2026-03-27T13:20:07Z</time>
      </trkpt>
      <trkpt lat="43.4969" lon="6.57747">
        <ele>58.7</ele>
        <time>2026-03-27T13:20:08Z</time>
      </trkpt>
      <trkpt lat="43.4969" lon="6.57747">
        <ele>58.8</ele>
        <time>2026-03-27T13:20:09Z</time>
      </trkpt>
      <trkpt lat="43.4969" lon="6.57747">
        <ele>58.9</ele>
        <time>2026-03-27T13:20:10Z</time>
      </trkpt>
      <trkpt lat="43.4969" lon="6.57747">
        <ele>59</ele>
        <time>2026-03-27T13:20:11Z</time>
      </trkpt>
      <trkpt lat="43.4969" lon="6.57748">
        <ele>59</ele>
        <time>2026-03-27T13:20:12Z</time>
      </trkpt>
      <trkpt lat="43.4969" lon="6.57748">
        <ele>59</ele>
        <time>2026-03-27T13:20:13Z</time>
      </trkpt>
      <trkpt lat="43.4969" lon="6.57748">
        <ele>59</ele>
        <time>2026-03-27T13:20:14Z</time>
      </trkpt>
      <trkpt lat="43.49691" lon="6.57748">
        <ele>59</ele>
        <time>2026-03-27T13:20:15Z</time>
      </trkpt>
      <trkpt lat="43.49691" lon="6.57748">
        <ele>58.9</ele>
        <time>2026-03-27T13:20:16Z</time>
      </trkpt>
      <trkpt lat="43.49691" lon="6.57748">
        <ele>58.8</ele>
        <time>2026-03-27T13:20:17Z</time>
      </trkpt>
      <trkpt lat="43.49691" lon="6.57748">
        <ele>58.8</ele>
        <time>2026-03-27T13:20:18Z</time>
      </trkpt>
      <trkpt lat="43.49691" lon="6.57748">
        <ele>58.6</ele>
        <time>2026-03-27T13:20:19Z</time>
      </trkpt>
      <trkpt lat="43.49691" lon="6.57748">
        <ele>58.6</ele>
        <time>2026-03-27T13:20:20Z</time>
      </trkpt>
      <trkpt lat="43.49691" lon="6.57749">
        <ele>58.5</ele>
        <time>2026-03-27T13:20:21Z</time>
      </trkpt>
      <trkpt lat="43.49691" lon="6.57749">
        <ele>58.5</ele>
        <time>2026-03-27T13:20:22Z</time>
      </trkpt>
      <trkpt lat="43.49691" lon="6.57749">
        <ele>58.4</ele>
        <time>2026-03-27T13:20:23Z</time>
      </trkpt>
      <trkpt lat="43.49691" lon="6.57749">
        <ele>58.4</ele>
        <time>2026-03-27T13:20:24Z</time>
      </trkpt>
      <trkpt lat="43.49691" lon="6.57749">
        <ele>58.5</ele>
        <time>2026-03-27T13:20:25Z</time>
      </trkpt>
      <trkpt lat="43.49691" lon="6.57749">
        <ele>58.5</ele>
        <time>2026-03-27T13:20:26Z</time>
      </trkpt>
      <trkpt lat="43.49691" lon="6.57749">
        <ele>58.5</ele>
        <time>2026-03-27T13:20:27Z</time>
      </trkpt>
      <trkpt lat="43.49691" lon="6.5775">
        <ele>58.4</ele>
        <time>2026-03-27T13:20:28Z</time>
      </trkpt>
      <trkpt lat="43.49691" lon="6.5775">
        <ele>58.4</ele>
        <time>2026-03-27T13:20:29Z</time>
      </trkpt>
      <trkpt lat="43.49691" lon="6.5775">
        <ele>58.4</ele>
        <time>2026-03-27T13:20:30Z</time>
      </trkpt>
      <trkpt lat="43.49691" lon="6.5775">
        <ele>58.4</ele>
        <time>2026-03-27T13:20:31Z</time>
      </trkpt>
      <trkpt lat="43.49692" lon="6.5775">
        <ele>58.4</ele>
        <time>2026-03-27T13:20:32Z</time>
      </trkpt>
      <trkpt lat="43.49692" lon="6.5775">
        <ele>58.4</ele>
        <time>2026-03-27T13:20:33Z</time>
      </trkpt>
      <trkpt lat="43.49692" lon="6.5775">
        <ele>58.5</ele>
        <time>2026-03-27T13:20:34Z</time>
      </trkpt>
      <trkpt lat="43.49692" lon="6.5775">
        <ele>58.5</ele>
        <time>2026-03-27T13:20:35Z</time>
      </trkpt>
      <trkpt lat="43.49692" lon="6.5775">
        <ele>58.5</ele>
        <time>2026-03-27T13:20:36Z</time>
      </trkpt>
      <trkpt lat="43.49693" lon="6.57751">
        <ele>58.6</ele>
        <time>2026-03-27T13:20:37Z</time>
      </trkpt>
      <trkpt lat="43.49693" lon="6.57751">
        <ele>58.6</ele>
        <time>2026-03-27T13:20:38Z</time>
      </trkpt>
      <trkpt lat="43.49693" lon="6.57751">
        <ele>58.6</ele>
        <time>2026-03-27T13:20:39Z</time>
      </trkpt>
      <trkpt lat="43.49693" lon="6.57751">
        <ele>58.7</ele>
        <time>2026-03-27T13:20:40Z</time>
      </trkpt>
      <trkpt lat="43.49694" lon="6.57751">
        <ele>58.7</ele>
        <time>2026-03-27T13:20:41Z</time>
      </trkpt>
      <trkpt lat="43.49694" lon="6.57751">
        <ele>58.6</ele>
        <time>2026-03-27T13:20:42Z</time>
      </trkpt>
      <trkpt lat="43.49694" lon="6.57751">
        <ele>58.6</ele>
        <time>2026-03-27T13:20:43Z</time>
      </trkpt>
      <trkpt lat="43.49694" lon="6.5775">
        <ele>58.7</ele>
        <time>2026-03-27T13:20:44Z</time>
      </trkpt>
      <trkpt lat="43.49695" lon="6.5775">
        <ele>58.7</ele>
        <time>2026-03-27T13:20:45Z</time>
      </trkpt>
      <trkpt lat="43.49695" lon="6.5775">
        <ele>58.9</ele>
        <time>2026-03-27T13:20:46Z</time>
      </trkpt>
      <trkpt lat="43.49695" lon="6.5775">
        <ele>59</ele>
        <time>2026-03-27T13:20:47Z</time>
      </trkpt>
      <trkpt lat="43.49695" lon="6.57751">
        <ele>59.1</ele>
        <time>2026-03-27T13:20:48Z</time>
      </trkpt>
      <trkpt lat="43.49695" lon="6.57751">
        <ele>59.1</ele>
        <time>2026-03-27T13:20:49Z</time>
      </trkpt>
      <trkpt lat="43.49695" lon="6.57751">
        <ele>59.1</ele>
        <time>2026-03-27T13:20:50Z</time>
      </trkpt>
      <trkpt lat="43.49695" lon="6.57751">
        <ele>59.1</ele>
        <time>2026-03-27T13:20:51Z</time>
      </trkpt>
      <trkpt lat="43.49696" lon="6.57751">
        <ele>59.1</ele>
        <time>2026-03-27T13:20:52Z</time>
      </trkpt>
      <trkpt lat="43.49696" lon="6.57751">
        <ele>59.2</ele>
        <time>2026-03-27T13:20:53Z</time>
      </trkpt>
      <trkpt lat="43.49696" lon="6.57751">
        <ele>59.2</ele>
        <time>2026-03-27T13:20:54Z</time>
      </trkpt>
      <trkpt lat="43.49696" lon="6.57751">
        <ele>59.2</ele>
        <time>2026-03-27T13:20:55Z</time>
      </trkpt>
      <trkpt lat="43.49696" lon="6.57751">
        <ele>59.3</ele>
        <time>2026-03-27T13:20:56Z</time>
      </trkpt>
      <trkpt lat="43.49696" lon="6.57751">
        <ele>59.2</ele>
        <time>2026-03-27T13:20:57Z</time>
      </trkpt>
      <trkpt lat="43.49696" lon="6.57751">
        <ele>59.3</ele>
        <time>2026-03-27T13:20:58Z</time>
      </trkpt>
      <trkpt lat="43.49696" lon="6.57751">
        <ele>59.2</ele>
        <time>2026-03-27T13:20:59Z</time>
      </trkpt>
      <trkpt lat="43.49696" lon="6.57751">
        <ele>59.3</ele>
        <time>2026-03-27T13:21:00Z</time>
      </trkpt>
      <trkpt lat="43.49696" lon="6.57751">
        <ele>59.3</ele>
        <time>2026-03-27T13:21:01Z</time>
      </trkpt>
      <trkpt lat="43.49696" lon="6.57751">
        <ele>59.2</ele>
        <time>2026-03-27T13:21:02Z</time>
      </trkpt>
      <trkpt lat="43.49696" lon="6.57751">
        <ele>59.2</ele>
        <time>2026-03-27T13:21:03Z</time>
      </trkpt>
      <trkpt lat="43.49695" lon="6.57751">
        <ele>59.2</ele>
        <time>2026-03-27T13:21:04Z</time>
      </trkpt>
      <trkpt lat="43.49695" lon="6.57752">
        <ele>59.2</ele>
        <time>2026-03-27T13:21:05Z</time>
      </trkpt>
      <trkpt lat="43.49694" lon="6.57752">
        <ele>59.2</ele>
        <time>2026-03-27T13:21:06Z</time>
      </trkpt>
      <trkpt lat="43.49694" lon="6.57752">
        <ele>59.2</ele>
        <time>2026-03-27T13:21:07Z</time>
      </trkpt>
      <trkpt lat="43.49694" lon="6.57752">
        <ele>59.2</ele>
        <time>2026-03-27T13:21:08Z</time>
      </trkpt>
      <trkpt lat="43.49694" lon="6.57753">
        <ele>59.2</ele>
        <time>2026-03-27T13:21:09Z</time>
      </trkpt>
      <trkpt lat="43.49694" lon="6.57753">
        <ele>59.2</ele>
        <time>2026-03-27T13:21:10Z</time>
      </trkpt>
      <trkpt lat="43.49694" lon="6.57753">
        <ele>59.2</ele>
        <time>2026-03-27T13:21:11Z</time>
      </trkpt>
      <trkpt lat="43.49694" lon="6.57753">
        <ele>59.2</ele>
        <time>2026-03-27T13:21:12Z</time>
      </trkpt>
      <trkpt lat="43.49694" lon="6.57753">
        <ele>59.2</ele>
        <time>2026-03-27T13:21:13Z</time>
      </trkpt>
      <trkpt lat="43.49694" lon="6.57754">
        <ele>59.2</ele>
        <time>2026-03-27T13:21:14Z</time>
      </trkpt>
      <trkpt lat="43.49694" lon="6.57754">
        <ele>59.2</ele>
        <time>2026-03-27T13:21:15Z</time>
      </trkpt>
      <trkpt lat="43.49694" lon="6.57754">
        <ele>59.1</ele>
        <time>2026-03-27T13:21:16Z</time>
      </trkpt>
      <trkpt lat="43.49694" lon="6.57754">
        <ele>59.2</ele>
        <time>2026-03-27T13:21:17Z</time>
      </trkpt>
      <trkpt lat="43.49694" lon="6.57754">
        <ele>59.1</ele>
        <time>2026-03-27T13:21:18Z</time>
      </trkpt>
      <trkpt lat="43.49694" lon="6.57754">
        <ele>59.2</ele>
        <time>2026-03-27T13:21:19Z</time>
      </trkpt>
      <trkpt lat="43.49694" lon="6.57754">
        <ele>59.1</ele>
        <time>2026-03-27T13:21:20Z</time>
      </trkpt>
      <trkpt lat="43.49693" lon="6.57754">
        <ele>59.2</ele>
        <time>2026-03-27T13:21:21Z</time>
      </trkpt>
      <trkpt lat="43.49693" lon="6.57754">
        <ele>59.2</ele>
        <time>2026-03-27T13:21:22Z</time>
      </trkpt>
      <trkpt lat="43.49693" lon="6.57755">
        <ele>59.2</ele>
        <time>2026-03-27T13:21:23Z</time>
      </trkpt>
      <trkpt lat="43.49694" lon="6.57755">
        <ele>59.1</ele>
        <time>2026-03-27T13:21:24Z</time>
      </trkpt>
      <trkpt lat="43.49694" lon="6.57755">
        <ele>59.1</ele>
        <time>2026-03-27T13:21:25Z</time>
      </trkpt>
      <trkpt lat="43.49694" lon="6.57755">
        <ele>59.1</ele>
        <time>2026-03-27T13:21:26Z</time>
      </trkpt>
      <trkpt lat="43.49694" lon="6.57755">
        <ele>59</ele>
        <time>2026-03-27T13:21:27Z</time>
      </trkpt>
      <trkpt lat="43.49694" lon="6.57755">
        <ele>59.1</ele>
        <time>2026-03-27T13:21:28Z</time>
      </trkpt>
      <trkpt lat="43.49694" lon="6.57755">
        <ele>59.1</ele>
        <time>2026-03-27T13:21:29Z</time>
      </trkpt>
      <trkpt lat="43.49694" lon="6.57754">
        <ele>59</ele>
        <time>2026-03-27T13:21:30Z</time>
      </trkpt>
      <trkpt lat="43.49693" lon="6.57755">
        <ele>59</ele>
        <time>2026-03-27T13:21:31Z</time>
      </trkpt>
      <trkpt lat="43.49693" lon="6.57754">
        <ele>59</ele>
        <time>2026-03-27T13:21:32Z</time>
      </trkpt>
      <trkpt lat="43.49693" lon="6.57754">
        <ele>58.8</ele>
        <time>2026-03-27T13:21:33Z</time>
      </trkpt>
      <trkpt lat="43.49693" lon="6.57754">
        <ele>58.8</ele>
        <time>2026-03-27T13:21:34Z</time>
      </trkpt>
      <trkpt lat="43.49693" lon="6.57754">
        <ele>58.9</ele>
        <time>2026-03-27T13:21:35Z</time>
      </trkpt>
      <trkpt lat="43.49693" lon="6.57754">
        <ele>58.9</ele>
        <time>2026-03-27T13:21:36Z</time>
      </trkpt>
      <trkpt lat="43.49693" lon="6.57754">
        <ele>58.9</ele>
        <time>2026-03-27T13:21:37Z</time>
      </trkpt>
      <trkpt lat="43.49693" lon="6.57754">
        <ele>58.9</ele>
        <time>2026-03-27T13:21:38Z</time>
      </trkpt>
      <trkpt lat="43.49693" lon="6.57754">
        <ele>58.9</ele>
        <time>2026-03-27T13:21:39Z</time>
      </trkpt>
      <trkpt lat="43.49693" lon="6.57754">
        <ele>58.9</ele>
        <time>2026-03-27T13:21:40Z</time>
      </trkpt>
      <trkpt lat="43.49693" lon="6.57754">
        <ele>58.9</ele>
        <time>2026-03-27T13:21:41Z</time>
      </trkpt>
      <trkpt lat="43.49693" lon="6.57754">
        <ele>58.9</ele>
        <time>2026-03-27T13:21:42Z</time>
      </trkpt>
      <trkpt lat="43.49692" lon="6.57754">
        <ele>58.9</ele>
        <time>2026-03-27T13:21:43Z</time>
      </trkpt>
      <trkpt lat="43.49693" lon="6.57754">
        <ele>58.8</ele>
        <time>2026-03-27T13:21:44Z</time>
      </trkpt>
      <trkpt lat="43.49693" lon="6.57755">
        <ele>58.9</ele>
        <time>2026-03-27T13:21:45Z</time>
      </trkpt>
      <trkpt lat="43.49692" lon="6.57755">
        <ele>58.9</ele>
        <time>2026-03-27T13:21:46Z</time>
      </trkpt>
      <trkpt lat="43.49692" lon="6.57755">
        <ele>58.9</ele>
        <time>2026-03-27T13:21:47Z</time>
      </trkpt>
      <trkpt lat="43.49692" lon="6.57755">
        <ele>59</ele>
        <time>2026-03-27T13:21:48Z</time>
      </trkpt>
      <trkpt lat="43.49692" lon="6.57755">
        <ele>59</ele>
        <time>2026-03-27T13:21:49Z</time>
      </trkpt>
      <trkpt lat="43.49692" lon="6.57755">
        <ele>58.9</ele>
        <time>2026-03-27T13:21:50Z</time>
      </trkpt>
      <trkpt lat="43.49692" lon="6.57755">
        <ele>58.9</ele>
        <time>2026-03-27T13:21:51Z</time>
      </trkpt>
      <trkpt lat="43.49692" lon="6.57755">
        <ele>58.9</ele>
        <time>2026-03-27T13:21:52Z</time>
      </trkpt>
      <trkpt lat="43.49691" lon="6.57755">
        <ele>59</ele>
        <time>2026-03-27T13:21:53Z</time>
      </trkpt>
      <trkpt lat="43.49691" lon="6.57755">
        <ele>59</ele>
        <time>2026-03-27T13:21:54Z</time>
      </trkpt>
      <trkpt lat="43.49691" lon="6.57755">
        <ele>59</ele>
        <time>2026-03-27T13:21:55Z</time>
      </trkpt>
      <trkpt lat="43.49691" lon="6.57755">
        <ele>59</ele>
        <time>2026-03-27T13:21:56Z</time>
      </trkpt>
      <trkpt lat="43.49691" lon="6.57755">
        <ele>58.9</ele>
        <time>2026-03-27T13:21:57Z</time>
      </trkpt>
      <trkpt lat="43.49691" lon="6.57755">
        <ele>58.9</ele>
        <time>2026-03-27T13:21:58Z</time>
      </trkpt>
      <trkpt lat="43.49691" lon="6.57755">
        <ele>58.9</ele>
        <time>2026-03-27T13:21:59Z</time>
      </trkpt>
      <trkpt lat="43.49692" lon="6.57754">
        <ele>58.9</ele>
        <time>2026-03-27T13:22:00Z</time>
      </trkpt>
      <trkpt lat="43.49692" lon="6.57754">
        <ele>58.8</ele>
        <time>2026-03-27T13:22:01Z</time>
      </trkpt>
      <trkpt lat="43.49691" lon="6.57754">
        <ele>58.8</ele>
        <time>2026-03-27T13:22:02Z</time>
      </trkpt>
      <trkpt lat="43.49691" lon="6.57754">
        <ele>58.8</ele>
        <time>2026-03-27T13:22:03Z</time>
      </trkpt>
      <trkpt lat="43.49691" lon="6.57754">
        <ele>58.9</ele>
        <time>2026-03-27T13:22:04Z</time>
      </trkpt>
      <trkpt lat="43.49691" lon="6.57754">
        <ele>58.9</ele>
        <time>2026-03-27T13:22:05Z</time>
      </trkpt>
      <trkpt lat="43.49691" lon="6.57754">
        <ele>58.9</ele>
        <time>2026-03-27T13:22:06Z</time>
      </trkpt>
      <trkpt lat="43.49691" lon="6.57754">
        <ele>58.9</ele>
        <time>2026-03-27T13:22:07Z</time>
      </trkpt>
      <trkpt lat="43.49692" lon="6.57754">
        <ele>59</ele>
        <time>2026-03-27T13:22:08Z</time>
      </trkpt>
      <trkpt lat="43.49692" lon="6.57754">
        <ele>59</ele>
        <time>2026-03-27T13:22:09Z</time>
      </trkpt>
      <trkpt lat="43.49692" lon="6.57754">
        <ele>59</ele>
        <time>2026-03-27T13:22:10Z</time>
      </trkpt>
      <trkpt lat="43.49691" lon="6.57754">
        <ele>59</ele>
        <time>2026-03-27T13:22:11Z</time>
      </trkpt>
      <trkpt lat="43.49691" lon="6.57754">
        <ele>59</ele>
        <time>2026-03-27T13:22:12Z</time>
      </trkpt>
      <trkpt lat="43.49691" lon="6.57754">
        <ele>59</ele>
        <time>2026-03-27T13:22:13Z</time>
      </trkpt>
      <trkpt lat="43.49691" lon="6.57754">
        <ele>59</ele>
        <time>2026-03-27T13:22:14Z</time>
      </trkpt>
      <trkpt lat="43.49691" lon="6.57754">
        <ele>58.9</ele>
        <time>2026-03-27T13:22:15Z</time>
      </trkpt>
      <trkpt lat="43.49692" lon="6.57754">
        <ele>58.9</ele>
        <time>2026-03-27T13:22:16Z</time>
      </trkpt>
      <trkpt lat="43.49692" lon="6.57754">
        <ele>58.8</ele>
        <time>2026-03-27T13:22:17Z</time>
      </trkpt>
      <trkpt lat="43.49692" lon="6.57754">
        <ele>58.7</ele>
        <time>2026-03-27T13:22:18Z</time>
      </trkpt>
      <trkpt lat="43.49691" lon="6.57754">
        <ele>58.7</ele>
        <time>2026-03-27T13:22:19Z</time>
      </trkpt>
      <trkpt lat="43.49692" lon="6.57754">
        <ele>58.6</ele>
        <time>2026-03-27T13:22:20Z</time>
      </trkpt>
      <trkpt lat="43.49691" lon="6.57754">
        <ele>58.6</ele>
        <time>2026-03-27T13:22:21Z</time>
      </trkpt>
      <trkpt lat="43.49691" lon="6.57755">
        <ele>58.5</ele>
        <time>2026-03-27T13:22:22Z</time>
      </trkpt>
      <trkpt lat="43.49691" lon="6.57755">
        <ele>58.5</ele>
        <time>2026-03-27T13:22:23Z</time>
      </trkpt>
      <trkpt lat="43.49691" lon="6.57755">
        <ele>58.5</ele>
        <time>2026-03-27T13:22:24Z</time>
      </trkpt>
      <trkpt lat="43.49691" lon="6.57754">
        <ele>58.4</ele>
        <time>2026-03-27T13:22:25Z</time>
      </trkpt>
      <trkpt lat="43.49691" lon="6.57754">
        <ele>58.5</ele>
        <time>2026-03-27T13:22:26Z</time>
      </trkpt>
      <trkpt lat="43.49691" lon="6.57754">
        <ele>58.5</ele>
        <time>2026-03-27T13:22:27Z</time>
      </trkpt>
      <trkpt lat="43.49691" lon="6.57755">
        <ele>58.4</ele>
        <time>2026-03-27T13:22:28Z</time>
      </trkpt>
      <trkpt lat="43.49691" lon="6.57755">
        <ele>58.4</ele>
        <time>2026-03-27T13:22:29Z</time>
      </trkpt>
      <trkpt lat="43.49691" lon="6.57755">
        <ele>58.4</ele>
        <time>2026-03-27T13:22:30Z</time>
      </trkpt>
      <trkpt lat="43.49691" lon="6.57756">
        <ele>58.3</ele>
        <time>2026-03-27T13:22:31Z</time>
      </trkpt>
      <trkpt lat="43.4969" lon="6.57757">
        <ele>58.4</ele>
        <time>2026-03-27T13:22:32Z</time>
      </trkpt>
      <trkpt lat="43.4969" lon="6.57757">
        <ele>58.4</ele>
        <time>2026-03-27T13:22:33Z</time>
      </trkpt>
      <trkpt lat="43.49689" lon="6.57758">
        <ele>58.5</ele>
        <time>2026-03-27T13:22:34Z</time>
      </trkpt>
      <trkpt lat="43.49688" lon="6.57759">
        <ele>58.5</ele>
        <time>2026-03-27T13:22:35Z</time>
      </trkpt>
      <trkpt lat="43.49687" lon="6.57759">
        <ele>58.5</ele>
        <time>2026-03-27T13:22:36Z</time>
      </trkpt>
      <trkpt lat="43.49687" lon="6.57759">
        <ele>58.5</ele>
        <time>2026-03-27T13:22:37Z</time>
      </trkpt>
      <trkpt lat="43.49686" lon="6.5776">
        <ele>58.4</ele>
        <time>2026-03-27T13:22:38Z</time>
      </trkpt>
      <trkpt lat="43.49685" lon="6.57759">
        <ele>58.4</ele>
        <time>2026-03-27T13:22:39Z</time>
      </trkpt>
      <trkpt lat="43.49684" lon="6.57759">
        <ele>58.4</ele>
        <time>2026-03-27T13:22:40Z</time>
      </trkpt>
      <trkpt lat="43.49683" lon="6.57759">
        <ele>58.4</ele>
        <time>2026-03-27T13:22:41Z</time>
      </trkpt>
      <trkpt lat="43.49682" lon="6.57758">
        <ele>58.4</ele>
        <time>2026-03-27T13:22:42Z</time>
      </trkpt>
      <trkpt lat="43.49681" lon="6.57758">
        <ele>58.4</ele>
        <time>2026-03-27T13:22:43Z</time>
      </trkpt>
      <trkpt lat="43.4968" lon="6.57757">
        <ele>58.4</ele>
        <time>2026-03-27T13:22:44Z</time>
      </trkpt>
      <trkpt lat="43.49679" lon="6.57756">
        <ele>58.4</ele>
        <time>2026-03-27T13:22:45Z</time>
      </trkpt>
      <trkpt lat="43.49678" lon="6.57756">
        <ele>58.3</ele>
        <time>2026-03-27T13:22:46Z</time>
      </trkpt>
      <trkpt lat="43.49677" lon="6.57755">
        <ele>58.2</ele>
        <time>2026-03-27T13:22:47Z</time>
      </trkpt>
      <trkpt lat="43.49676" lon="6.57755">
        <ele>58.2</ele>
        <time>2026-03-27T13:22:48Z</time>
      </trkpt>
      <trkpt lat="43.49676" lon="6.57754">
        <ele>58.1</ele>
        <time>2026-03-27T13:22:49Z</time>
      </trkpt>
      <trkpt lat="43.49675" lon="6.57753">
        <ele>58.1</ele>
        <time>2026-03-27T13:22:50Z</time>
      </trkpt>
      <trkpt lat="43.49675" lon="6.57752">
        <ele>58</ele>
        <time>2026-03-27T13:22:51Z</time>
      </trkpt>
      <trkpt lat="43.49674" lon="6.57751">
        <ele>57.9</ele>
        <time>2026-03-27T13:22:52Z</time>
      </trkpt>
      <trkpt lat="43.49673" lon="6.57751">
        <ele>57.8</ele>
        <time>2026-03-27T13:22:53Z</time>
      </trkpt>
      <trkpt lat="43.49672" lon="6.5775">
        <ele>57.8</ele>
        <time>2026-03-27T13:22:54Z</time>
      </trkpt>
      <trkpt lat="43.49672" lon="6.5775">
        <ele>57.7</ele>
        <time>2026-03-27T13:22:55Z</time>
      </trkpt>
      <trkpt lat="43.49672" lon="6.57749">
        <ele>57.7</ele>
        <time>2026-03-27T13:22:56Z</time>
      </trkpt>
      <trkpt lat="43.49672" lon="6.57748">
        <ele>57.7</ele>
        <time>2026-03-27T13:22:57Z</time>
      </trkpt>
      <trkpt lat="43.49671" lon="6.57747">
        <ele>57.7</ele>
        <time>2026-03-27T13:22:58Z</time>
      </trkpt>
      <trkpt lat="43.49671" lon="6.57747">
        <ele>57.7</ele>
        <time>2026-03-27T13:22:59Z</time>
      </trkpt>
      <trkpt lat="43.49671" lon="6.57746">
        <ele>57.5</ele>
        <time>2026-03-27T13:23:00Z</time>
      </trkpt>
      <trkpt lat="43.4967" lon="6.57745">
        <ele>57.5</ele>
        <time>2026-03-27T13:23:01Z</time>
      </trkpt>
      <trkpt lat="43.4967" lon="6.57744">
        <ele>57.3</ele>
        <time>2026-03-27T13:23:02Z</time>
      </trkpt>
      <trkpt lat="43.49669" lon="6.57743">
        <ele>57.1</ele>
        <time>2026-03-27T13:23:03Z</time>
      </trkpt>
      <trkpt lat="43.49669" lon="6.57742">
        <ele>57</ele>
        <time>2026-03-27T13:23:04Z</time>
      </trkpt>
      <trkpt lat="43.49668" lon="6.57741">
        <ele>56.9</ele>
        <time>2026-03-27T13:23:05Z</time>
      </trkpt>
      <trkpt lat="43.49668" lon="6.5774">
        <ele>56.7</ele>
        <time>2026-03-27T13:23:06Z</time>
      </trkpt>
      <trkpt lat="43.49668" lon="6.57738">
        <ele>56.6</ele>
        <time>2026-03-27T13:23:07Z</time>
      </trkpt>
      <trkpt lat="43.49667" lon="6.57737">
        <ele>56.4</ele>
        <time>2026-03-27T13:23:08Z</time>
      </trkpt>
      <trkpt lat="43.49667" lon="6.57737">
        <ele>56.3</ele>
        <time>2026-03-27T13:23:09Z</time>
      </trkpt>
      <trkpt lat="43.49666" lon="6.57736">
        <ele>56.2</ele>
        <time>2026-03-27T13:23:10Z</time>
      </trkpt>
      <trkpt lat="43.49665" lon="6.57735">
        <ele>56.1</ele>
        <time>2026-03-27T13:23:11Z</time>
      </trkpt>
      <trkpt lat="43.49665" lon="6.57734">
        <ele>56.1</ele>
        <time>2026-03-27T13:23:12Z</time>
      </trkpt>
      <trkpt lat="43.49665" lon="6.57733">
        <ele>56.1</ele>
        <time>2026-03-27T13:23:13Z</time>
      </trkpt>
      <trkpt lat="43.49665" lon="6.57732">
        <ele>56.1</ele>
        <time>2026-03-27T13:23:14Z</time>
      </trkpt>
      <trkpt lat="43.49664" lon="6.57731">
        <ele>56.1</ele>
        <time>2026-03-27T13:23:15Z</time>
      </trkpt>
      <trkpt lat="43.49663" lon="6.5773">
        <ele>55.9</ele>
        <time>2026-03-27T13:23:16Z</time>
      </trkpt>
      <trkpt lat="43.49663" lon="6.57729">
        <ele>55.7</ele>
        <time>2026-03-27T13:23:17Z</time>
      </trkpt>
      <trkpt lat="43.49662" lon="6.57728">
        <ele>55.5</ele>
        <time>2026-03-27T13:23:18Z</time>
      </trkpt>
      <trkpt lat="43.49661" lon="6.57727">
        <ele>55.4</ele>
        <time>2026-03-27T13:23:19Z</time>
      </trkpt>
      <trkpt lat="43.49661" lon="6.57728">
        <ele>55.2</ele>
        <time>2026-03-27T13:23:20Z</time>
      </trkpt>
      <trkpt lat="43.4966" lon="6.57729">
        <ele>55.1</ele>
        <time>2026-03-27T13:23:21Z</time>
      </trkpt>
      <trkpt lat="43.4966" lon="6.57729">
        <ele>55</ele>
        <time>2026-03-27T13:23:22Z</time>
      </trkpt>
      <trkpt lat="43.49659" lon="6.5773">
        <ele>54.9</ele>
        <time>2026-03-27T13:23:23Z</time>
      </trkpt>
      <trkpt lat="43.49659" lon="6.5773">
        <ele>54.8</ele>
        <time>2026-03-27T13:23:24Z</time>
      </trkpt>
      <trkpt lat="43.49658" lon="6.5773">
        <ele>54.7</ele>
        <time>2026-03-27T13:23:25Z</time>
      </trkpt>
      <trkpt lat="43.49658" lon="6.57731">
        <ele>54.6</ele>
        <time>2026-03-27T13:23:26Z</time>
      </trkpt>
      <trkpt lat="43.49658" lon="6.57731">
        <ele>54.6</ele>
        <time>2026-03-27T13:23:27Z</time>
      </trkpt>
      <trkpt lat="43.49657" lon="6.57731">
        <ele>54.6</ele>
        <time>2026-03-27T13:23:28Z</time>
      </trkpt>
      <trkpt lat="43.49657" lon="6.57731">
        <ele>54.6</ele>
        <time>2026-03-27T13:23:29Z</time>
      </trkpt>
      <trkpt lat="43.49657" lon="6.57731">
        <ele>54.6</ele>
        <time>2026-03-27T13:23:30Z</time>
      </trkpt>
      <trkpt lat="43.49657" lon="6.57731">
        <ele>54.6</ele>
        <time>2026-03-27T13:23:31Z</time>
      </trkpt>
      <trkpt lat="43.49656" lon="6.57731">
        <ele>54.6</ele>
        <time>2026-03-27T13:23:32Z</time>
      </trkpt>
      <trkpt lat="43.49656" lon="6.57731">
        <ele>54.6</ele>
        <time>2026-03-27T13:23:33Z</time>
      </trkpt>
      <trkpt lat="43.49656" lon="6.57731">
        <ele>54.6</ele>
        <time>2026-03-27T13:23:34Z</time>
      </trkpt>
      <trkpt lat="43.49656" lon="6.57732">
        <ele>54.6</ele>
        <time>2026-03-27T13:23:35Z</time>
      </trkpt>
      <trkpt lat="43.49656" lon="6.57732">
        <ele>54.6</ele>
        <time>2026-03-27T13:23:36Z</time>
      </trkpt>
      <trkpt lat="43.49656" lon="6.57731">
        <ele>54.7</ele>
        <time>2026-03-27T13:23:37Z</time>
      </trkpt>
      <trkpt lat="43.49655" lon="6.57731">
        <ele>54.8</ele>
        <time>2026-03-27T13:23:38Z</time>
      </trkpt>
      <trkpt lat="43.49655" lon="6.57731">
        <ele>54.8</ele>
        <time>2026-03-27T13:23:39Z</time>
      </trkpt>
      <trkpt lat="43.49655" lon="6.57731">
        <ele>54.8</ele>
        <time>2026-03-27T13:23:40Z</time>
      </trkpt>
      <trkpt lat="43.49655" lon="6.57731">
        <ele>54.8</ele>
        <time>2026-03-27T13:23:41Z</time>
      </trkpt>
      <trkpt lat="43.49655" lon="6.57731">
        <ele>54.8</ele>
        <time>2026-03-27T13:23:42Z</time>
      </trkpt>
      <trkpt lat="43.49655" lon="6.57731">
        <ele>54.8</ele>
        <time>2026-03-27T13:23:43Z</time>
      </trkpt>
      <trkpt lat="43.49655" lon="6.57731">
        <ele>54.8</ele>
        <time>2026-03-27T13:23:44Z</time>
      </trkpt>
      <trkpt lat="43.49655" lon="6.57731">
        <ele>54.8</ele>
        <time>2026-03-27T13:23:45Z</time>
      </trkpt>
      <trkpt lat="43.49655" lon="6.57731">
        <ele>54.8</ele>
        <time>2026-03-27T13:23:46Z</time>
      </trkpt>
      <trkpt lat="43.49654" lon="6.57731">
        <ele>54.8</ele>
        <time>2026-03-27T13:23:47Z</time>
      </trkpt>
      <trkpt lat="43.49654" lon="6.57731">
        <ele>54.8</ele>
        <time>2026-03-27T13:23:48Z</time>
      </trkpt>
      <trkpt lat="43.49654" lon="6.57731">
        <ele>54.7</ele>
        <time>2026-03-27T13:23:49Z</time>
      </trkpt>
      <trkpt lat="43.49654" lon="6.57731">
        <ele>54.7</ele>
        <time>2026-03-27T13:23:50Z</time>
      </trkpt>
      <trkpt lat="43.49654" lon="6.57731">
        <ele>54.7</ele>
        <time>2026-03-27T13:23:51Z</time>
      </trkpt>
      <trkpt lat="43.49654" lon="6.57731">
        <ele>54.7</ele>
        <time>2026-03-27T13:23:52Z</time>
      </trkpt>
      <trkpt lat="43.49654" lon="6.57731">
        <ele>54.7</ele>
        <time>2026-03-27T13:23:53Z</time>
      </trkpt>
      <trkpt lat="43.49654" lon="6.5773">
        <ele>54.8</ele>
        <time>2026-03-27T13:23:54Z</time>
      </trkpt>
      <trkpt lat="43.49654" lon="6.5773">
        <ele>54.8</ele>
        <time>2026-03-27T13:23:55Z</time>
      </trkpt>
      <trkpt lat="43.49653" lon="6.57729">
        <ele>54.7</ele>
        <time>2026-03-27T13:23:56Z</time>
      </trkpt>
      <trkpt lat="43.49652" lon="6.57729">
        <ele>54.8</ele>
        <time>2026-03-27T13:23:57Z</time>
      </trkpt>
      <trkpt lat="43.49652" lon="6.57729">
        <ele>54.8</ele>
        <time>2026-03-27T13:23:58Z</time>
      </trkpt>
      <trkpt lat="43.49652" lon="6.57727">
        <ele>54.8</ele>
        <time>2026-03-27T13:23:59Z</time>
      </trkpt>
      <trkpt lat="43.49651" lon="6.57726">
        <ele>54.7</ele>
        <time>2026-03-27T13:24:00Z</time>
      </trkpt>
      <trkpt lat="43.4965" lon="6.57724">
        <ele>54.6</ele>
        <time>2026-03-27T13:24:01Z</time>
      </trkpt>
      <trkpt lat="43.49649" lon="6.57722">
        <ele>54.6</ele>
        <time>2026-03-27T13:24:02Z</time>
      </trkpt>
      <trkpt lat="43.49648" lon="6.57719">
        <ele>54.5</ele>
        <time>2026-03-27T13:24:03Z</time>
      </trkpt>
      <trkpt lat="43.49648" lon="6.57717">
        <ele>54.3</ele>
        <time>2026-03-27T13:24:04Z</time>
      </trkpt>
      <trkpt lat="43.49647" lon="6.57716">
        <ele>54.2</ele>
        <time>2026-03-27T13:24:05Z</time>
      </trkpt>
      <trkpt lat="43.49646" lon="6.57715">
        <ele>54.1</ele>
        <time>2026-03-27T13:24:06Z</time>
      </trkpt>
      <trkpt lat="43.49646" lon="6.57714">
        <ele>54.1</ele>
        <time>2026-03-27T13:24:07Z</time>
      </trkpt>
      <trkpt lat="43.49645" lon="6.57713">
        <ele>54</ele>
        <time>2026-03-27T13:24:08Z</time>
      </trkpt>
      <trkpt lat="43.49645" lon="6.57712">
        <ele>53.7</ele>
        <time>2026-03-27T13:24:09Z</time>
      </trkpt>
      <trkpt lat="43.49644" lon="6.57711">
        <ele>53.8</ele>
        <time>2026-03-27T13:24:10Z</time>
      </trkpt>
      <trkpt lat="43.49643" lon="6.57709">
        <ele>53.8</ele>
        <time>2026-03-27T13:24:11Z</time>
      </trkpt>
      <trkpt lat="43.49642" lon="6.57708">
        <ele>53.8</ele>
        <time>2026-03-27T13:24:12Z</time>
      </trkpt>
      <trkpt lat="43.49642" lon="6.57706">
        <ele>53.6</ele>
        <time>2026-03-27T13:24:13Z</time>
      </trkpt>
      <trkpt lat="43.49641" lon="6.57704">
        <ele>53.5</ele>
        <time>2026-03-27T13:24:14Z</time>
      </trkpt>
      <trkpt lat="43.49641" lon="6.57703">
        <ele>53.5</ele>
        <time>2026-03-27T13:24:15Z</time>
      </trkpt>
      <trkpt lat="43.4964" lon="6.57701">
        <ele>53.5</ele>
        <time>2026-03-27T13:24:16Z</time>
      </trkpt>
      <trkpt lat="43.4964" lon="6.57698">
        <ele>53.6</ele>
        <time>2026-03-27T13:24:17Z</time>
      </trkpt>
      <trkpt lat="43.49639" lon="6.57696">
        <ele>53.4</ele>
        <time>2026-03-27T13:24:18Z</time>
      </trkpt>
      <trkpt lat="43.49639" lon="6.57694">
        <ele>53.4</ele>
        <time>2026-03-27T13:24:19Z</time>
      </trkpt>
      <trkpt lat="43.49638" lon="6.57692">
        <ele>53.3</ele>
        <time>2026-03-27T13:24:20Z</time>
      </trkpt>
      <trkpt lat="43.49638" lon="6.57691">
        <ele>53.3</ele>
        <time>2026-03-27T13:24:21Z</time>
      </trkpt>
      <trkpt lat="43.49638" lon="6.57688">
        <ele>53.4</ele>
        <time>2026-03-27T13:24:22Z</time>
      </trkpt>
      <trkpt lat="43.49638" lon="6.57686">
        <ele>53.5</ele>
        <time>2026-03-27T13:24:23Z</time>
      </trkpt>
      <trkpt lat="43.49638" lon="6.57684">
        <ele>53.5</ele>
        <time>2026-03-27T13:24:24Z</time>
      </trkpt>
      <trkpt lat="43.49638" lon="6.57682">
        <ele>53.6</ele>
        <time>2026-03-27T13:24:25Z</time>
      </trkpt>
      <trkpt lat="43.49637" lon="6.5768">
        <ele>53.6</ele>
        <time>2026-03-27T13:24:26Z</time>
      </trkpt>
      <trkpt lat="43.49637" lon="6.57677">
        <ele>53.6</ele>
        <time>2026-03-27T13:24:27Z</time>
      </trkpt>
      <trkpt lat="43.49636" lon="6.57675">
        <ele>53.7</ele>
        <time>2026-03-27T13:24:28Z</time>
      </trkpt>
      <trkpt lat="43.49636" lon="6.57673">
        <ele>53.8</ele>
        <time>2026-03-27T13:24:29Z</time>
      </trkpt>
      <trkpt lat="43.49635" lon="6.57671">
        <ele>53.8</ele>
        <time>2026-03-27T13:24:30Z</time>
      </trkpt>
      <trkpt lat="43.49635" lon="6.57669">
        <ele>53.9</ele>
        <time>2026-03-27T13:24:31Z</time>
      </trkpt>
      <trkpt lat="43.49635" lon="6.57667">
        <ele>54</ele>
        <time>2026-03-27T13:24:32Z</time>
      </trkpt>
      <trkpt lat="43.49635" lon="6.57665">
        <ele>54.1</ele>
        <time>2026-03-27T13:24:33Z</time>
      </trkpt>
      <trkpt lat="43.49635" lon="6.57663">
        <ele>54.2</ele>
        <time>2026-03-27T13:24:34Z</time>
      </trkpt>
      <trkpt lat="43.49635" lon="6.5766">
        <ele>54</ele>
        <time>2026-03-27T13:24:35Z</time>
      </trkpt>
      <trkpt lat="43.49635" lon="6.57658">
        <ele>53.9</ele>
        <time>2026-03-27T13:24:36Z</time>
      </trkpt>
      <trkpt lat="43.49634" lon="6.57656">
        <ele>53.9</ele>
        <time>2026-03-27T13:24:37Z</time>
      </trkpt>
      <trkpt lat="43.49634" lon="6.57654">
        <ele>54</ele>
        <time>2026-03-27T13:24:38Z</time>
      </trkpt>
      <trkpt lat="43.49633" lon="6.57653">
        <ele>53.9</ele>
        <time>2026-03-27T13:24:39Z</time>
      </trkpt>
      <trkpt lat="43.49633" lon="6.57651">
        <ele>53.8</ele>
        <time>2026-03-27T13:24:40Z</time>
      </trkpt>
      <trkpt lat="43.49632" lon="6.57649">
        <ele>53.8</ele>
        <time>2026-03-27T13:24:41Z</time>
      </trkpt>
      <trkpt lat="43.49632" lon="6.57647">
        <ele>53.7</ele>
        <time>2026-03-27T13:24:42Z</time>
      </trkpt>
      <trkpt lat="43.49632" lon="6.57646">
        <ele>53.7</ele>
        <time>2026-03-27T13:24:43Z</time>
      </trkpt>
      <trkpt lat="43.49631" lon="6.57645">
        <ele>53.6</ele>
        <time>2026-03-27T13:24:44Z</time>
      </trkpt>
      <trkpt lat="43.4963" lon="6.57643">
        <ele>53.5</ele>
        <time>2026-03-27T13:24:45Z</time>
      </trkpt>
      <trkpt lat="43.4963" lon="6.57642">
        <ele>53.4</ele>
        <time>2026-03-27T13:24:46Z</time>
      </trkpt>
      <trkpt lat="43.49629" lon="6.5764">
        <ele>53.5</ele>
        <time>2026-03-27T13:24:47Z</time>
      </trkpt>
      <trkpt lat="43.49628" lon="6.57639">
        <ele>53.4</ele>
        <time>2026-03-27T13:24:48Z</time>
      </trkpt>
      <trkpt lat="43.49627" lon="6.57637">
        <ele>53.2</ele>
        <time>2026-03-27T13:24:49Z</time>
      </trkpt>
      <trkpt lat="43.49627" lon="6.57635">
        <ele>53.1</ele>
        <time>2026-03-27T13:24:50Z</time>
      </trkpt>
      <trkpt lat="43.49626" lon="6.57634">
        <ele>52.9</ele>
        <time>2026-03-27T13:24:51Z</time>
      </trkpt>
      <trkpt lat="43.49625" lon="6.57632">
        <ele>52.8</ele>
        <time>2026-03-27T13:24:52Z</time>
      </trkpt>
      <trkpt lat="43.49624" lon="6.57631">
        <ele>52.7</ele>
        <time>2026-03-27T13:24:53Z</time>
      </trkpt>
      <trkpt lat="43.49623" lon="6.5763">
        <ele>52.6</ele>
        <time>2026-03-27T13:24:54Z</time>
      </trkpt>
      <trkpt lat="43.49622" lon="6.57629">
        <ele>52.6</ele>
        <time>2026-03-27T13:24:55Z</time>
      </trkpt>
      <trkpt lat="43.49621" lon="6.57628">
        <ele>52.5</ele>
        <time>2026-03-27T13:24:56Z</time>
      </trkpt>
      <trkpt lat="43.4962" lon="6.57628">
        <ele>52.3</ele>
        <time>2026-03-27T13:24:57Z</time>
      </trkpt>
      <trkpt lat="43.4962" lon="6.57628">
        <ele>52.1</ele>
        <time>2026-03-27T13:24:58Z</time>
      </trkpt>
      <trkpt lat="43.49619" lon="6.57627">
        <ele>52.1</ele>
        <time>2026-03-27T13:24:59Z</time>
      </trkpt>
      <trkpt lat="43.49618" lon="6.57626">
        <ele>52.1</ele>
        <time>2026-03-27T13:25:00Z</time>
      </trkpt>
      <trkpt lat="43.49617" lon="6.57625">
        <ele>52.1</ele>
        <time>2026-03-27T13:25:01Z</time>
      </trkpt>
      <trkpt lat="43.49616" lon="6.57625">
        <ele>52</ele>
        <time>2026-03-27T13:25:02Z</time>
      </trkpt>
      <trkpt lat="43.49616" lon="6.57625">
        <ele>51.9</ele>
        <time>2026-03-27T13:25:03Z</time>
      </trkpt>
      <trkpt lat="43.49616" lon="6.57624">
        <ele>51.8</ele>
        <time>2026-03-27T13:25:04Z</time>
      </trkpt>
      <trkpt lat="43.49615" lon="6.57623">
        <ele>51.7</ele>
        <time>2026-03-27T13:25:05Z</time>
      </trkpt>
      <trkpt lat="43.49614" lon="6.57622">
        <ele>51.6</ele>
        <time>2026-03-27T13:25:06Z</time>
      </trkpt>
      <trkpt lat="43.49614" lon="6.5762">
        <ele>51.5</ele>
        <time>2026-03-27T13:25:07Z</time>
      </trkpt>
      <trkpt lat="43.49613" lon="6.5762">
        <ele>51.5</ele>
        <time>2026-03-27T13:25:08Z</time>
      </trkpt>
      <trkpt lat="43.49613" lon="6.57619">
        <ele>51.4</ele>
        <time>2026-03-27T13:25:09Z</time>
      </trkpt>
      <trkpt lat="43.49612" lon="6.57618">
        <ele>51.2</ele>
        <time>2026-03-27T13:25:10Z</time>
      </trkpt>
      <trkpt lat="43.49611" lon="6.57617">
        <ele>51.1</ele>
        <time>2026-03-27T13:25:11Z</time>
      </trkpt>
      <trkpt lat="43.4961" lon="6.57616">
        <ele>51.1</ele>
        <time>2026-03-27T13:25:12Z</time>
      </trkpt>
      <trkpt lat="43.49609" lon="6.57615">
        <ele>51.1</ele>
        <time>2026-03-27T13:25:13Z</time>
      </trkpt>
      <trkpt lat="43.49608" lon="6.57614">
        <ele>51</ele>
        <time>2026-03-27T13:25:14Z</time>
      </trkpt>
      <trkpt lat="43.49607" lon="6.57613">
        <ele>50.9</ele>
        <time>2026-03-27T13:25:15Z</time>
      </trkpt>
      <trkpt lat="43.49606" lon="6.57612">
        <ele>50.9</ele>
        <time>2026-03-27T13:25:16Z</time>
      </trkpt>
      <trkpt lat="43.49605" lon="6.57611">
        <ele>51</ele>
        <time>2026-03-27T13:25:17Z</time>
      </trkpt>
      <trkpt lat="43.49604" lon="6.5761">
        <ele>51.1</ele>
        <time>2026-03-27T13:25:18Z</time>
      </trkpt>
      <trkpt lat="43.49604" lon="6.57609">
        <ele>51.1</ele>
        <time>2026-03-27T13:25:19Z</time>
      </trkpt>
      <trkpt lat="43.49603" lon="6.57608">
        <ele>51.2</ele>
        <time>2026-03-27T13:25:20Z</time>
      </trkpt>
      <trkpt lat="43.49602" lon="6.57606">
        <ele>51.2</ele>
        <time>2026-03-27T13:25:21Z</time>
      </trkpt>
      <trkpt lat="43.49602" lon="6.57605">
        <ele>51.2</ele>
        <time>2026-03-27T13:25:22Z</time>
      </trkpt>
      <trkpt lat="43.49601" lon="6.57604">
        <ele>51.2</ele>
        <time>2026-03-27T13:25:23Z</time>
      </trkpt>
      <trkpt lat="43.496" lon="6.57603">
        <ele>51.2</ele>
        <time>2026-03-27T13:25:24Z</time>
      </trkpt>
      <trkpt lat="43.49599" lon="6.57602">
        <ele>51.2</ele>
        <time>2026-03-27T13:25:25Z</time>
      </trkpt>
      <trkpt lat="43.49599" lon="6.576">
        <ele>51.1</ele>
        <time>2026-03-27T13:25:26Z</time>
      </trkpt>
      <trkpt lat="43.49598" lon="6.57599">
        <ele>51.1</ele>
        <time>2026-03-27T13:25:27Z</time>
      </trkpt>
      <trkpt lat="43.49597" lon="6.57597">
        <ele>51</ele>
        <time>2026-03-27T13:25:28Z</time>
      </trkpt>
      <trkpt lat="43.49596" lon="6.57596">
        <ele>51</ele>
        <time>2026-03-27T13:25:29Z</time>
      </trkpt>
      <trkpt lat="43.49596" lon="6.57595">
        <ele>50.9</ele>
        <time>2026-03-27T13:25:30Z</time>
      </trkpt>
      <trkpt lat="43.49595" lon="6.57594">
        <ele>50.8</ele>
        <time>2026-03-27T13:25:31Z</time>
      </trkpt>
      <trkpt lat="43.49595" lon="6.57593">
        <ele>50.9</ele>
        <time>2026-03-27T13:25:32Z</time>
      </trkpt>
      <trkpt lat="43.49595" lon="6.57592">
        <ele>51</ele>
        <time>2026-03-27T13:25:33Z</time>
      </trkpt>
      <trkpt lat="43.49594" lon="6.57591">
        <ele>51</ele>
        <time>2026-03-27T13:25:34Z</time>
      </trkpt>
      <trkpt lat="43.49594" lon="6.57589">
        <ele>51</ele>
        <time>2026-03-27T13:25:35Z</time>
      </trkpt>
      <trkpt lat="43.49593" lon="6.57588">
        <ele>51.1</ele>
        <time>2026-03-27T13:25:36Z</time>
      </trkpt>
      <trkpt lat="43.49593" lon="6.57586">
        <ele>51.2</ele>
        <time>2026-03-27T13:25:37Z</time>
      </trkpt>
      <trkpt lat="43.49592" lon="6.57584">
        <ele>51.1</ele>
        <time>2026-03-27T13:25:38Z</time>
      </trkpt>
      <trkpt lat="43.49591" lon="6.57583">
        <ele>51</ele>
        <time>2026-03-27T13:25:39Z</time>
      </trkpt>
      <trkpt lat="43.49591" lon="6.57582">
        <ele>51</ele>
        <time>2026-03-27T13:25:40Z</time>
      </trkpt>
      <trkpt lat="43.4959" lon="6.5758">
        <ele>51</ele>
        <time>2026-03-27T13:25:41Z</time>
      </trkpt>
      <trkpt lat="43.4959" lon="6.57579">
        <ele>50.9</ele>
        <time>2026-03-27T13:25:42Z</time>
      </trkpt>
      <trkpt lat="43.49589" lon="6.57578">
        <ele>50.8</ele>
        <time>2026-03-27T13:25:43Z</time>
      </trkpt>
      <trkpt lat="43.49588" lon="6.57577">
        <ele>50.7</ele>
        <time>2026-03-27T13:25:44Z</time>
      </trkpt>
      <trkpt lat="43.49588" lon="6.57576">
        <ele>50.7</ele>
        <time>2026-03-27T13:25:45Z</time>
      </trkpt>
      <trkpt lat="43.49586" lon="6.57575">
        <ele>50.7</ele>
        <time>2026-03-27T13:25:46Z</time>
      </trkpt>
      <trkpt lat="43.49585" lon="6.57574">
        <ele>50.8</ele>
        <time>2026-03-27T13:25:47Z</time>
      </trkpt>
      <trkpt lat="43.49584" lon="6.57572">
        <ele>50.8</ele>
        <time>2026-03-27T13:25:48Z</time>
      </trkpt>
      <trkpt lat="43.49584" lon="6.57571">
        <ele>50.8</ele>
        <time>2026-03-27T13:25:49Z</time>
      </trkpt>
      <trkpt lat="43.49583" lon="6.57571">
        <ele>50.9</ele>
        <time>2026-03-27T13:25:50Z</time>
      </trkpt>
      <trkpt lat="43.49583" lon="6.5757">
        <ele>50.9</ele>
        <time>2026-03-27T13:25:51Z</time>
      </trkpt>
      <trkpt lat="43.49582" lon="6.57568">
        <ele>50.8</ele>
        <time>2026-03-27T13:25:52Z</time>
      </trkpt>
      <trkpt lat="43.49582" lon="6.57567">
        <ele>50.8</ele>
        <time>2026-03-27T13:25:53Z</time>
      </trkpt>
      <trkpt lat="43.49582" lon="6.57566">
        <ele>50.7</ele>
        <time>2026-03-27T13:25:54Z</time>
      </trkpt>
      <trkpt lat="43.49581" lon="6.57564">
        <ele>50.8</ele>
        <time>2026-03-27T13:25:55Z</time>
      </trkpt>
      <trkpt lat="43.49581" lon="6.57563">
        <ele>50.8</ele>
        <time>2026-03-27T13:25:56Z</time>
      </trkpt>
      <trkpt lat="43.4958" lon="6.57562">
        <ele>50.9</ele>
        <time>2026-03-27T13:25:57Z</time>
      </trkpt>
      <trkpt lat="43.49579" lon="6.5756">
        <ele>50.9</ele>
        <time>2026-03-27T13:25:58Z</time>
      </trkpt>
      <trkpt lat="43.49579" lon="6.57559">
        <ele>50.9</ele>
        <time>2026-03-27T13:25:59Z</time>
      </trkpt>
      <trkpt lat="43.49578" lon="6.57558">
        <ele>50.9</ele>
        <time>2026-03-27T13:26:00Z</time>
      </trkpt>
      <trkpt lat="43.49577" lon="6.57558">
        <ele>51</ele>
        <time>2026-03-27T13:26:01Z</time>
      </trkpt>
      <trkpt lat="43.49576" lon="6.57557">
        <ele>51</ele>
        <time>2026-03-27T13:26:02Z</time>
      </trkpt>
      <trkpt lat="43.49575" lon="6.57556">
        <ele>51</ele>
        <time>2026-03-27T13:26:03Z</time>
      </trkpt>
      <trkpt lat="43.49574" lon="6.57555">
        <ele>51</ele>
        <time>2026-03-27T13:26:04Z</time>
      </trkpt>
      <trkpt lat="43.49574" lon="6.57554">
        <ele>51</ele>
        <time>2026-03-27T13:26:05Z</time>
      </trkpt>
      <trkpt lat="43.49573" lon="6.57553">
        <ele>51</ele>
        <time>2026-03-27T13:26:06Z</time>
      </trkpt>
      <trkpt lat="43.49573" lon="6.57551">
        <ele>51</ele>
        <time>2026-03-27T13:26:07Z</time>
      </trkpt>
      <trkpt lat="43.49572" lon="6.5755">
        <ele>50.9</ele>
        <time>2026-03-27T13:26:08Z</time>
      </trkpt>
      <trkpt lat="43.49571" lon="6.57548">
        <ele>50.9</ele>
        <time>2026-03-27T13:26:09Z</time>
      </trkpt>
      <trkpt lat="43.4957" lon="6.57547">
        <ele>50.8</ele>
        <time>2026-03-27T13:26:10Z</time>
      </trkpt>
      <trkpt lat="43.49569" lon="6.57545">
        <ele>50.7</ele>
        <time>2026-03-27T13:26:11Z</time>
      </trkpt>
      <trkpt lat="43.49568" lon="6.57543">
        <ele>50.6</ele>
        <time>2026-03-27T13:26:12Z</time>
      </trkpt>
      <trkpt lat="43.49567" lon="6.57542">
        <ele>50.5</ele>
        <time>2026-03-27T13:26:13Z</time>
      </trkpt>
      <trkpt lat="43.49567" lon="6.57541">
        <ele>50.4</ele>
        <time>2026-03-27T13:26:14Z</time>
      </trkpt>
      <trkpt lat="43.49566" lon="6.5754">
        <ele>50.1</ele>
        <time>2026-03-27T13:26:15Z</time>
      </trkpt>
      <trkpt lat="43.49565" lon="6.57539">
        <ele>50</ele>
        <time>2026-03-27T13:26:16Z</time>
      </trkpt>
      <trkpt lat="43.49565" lon="6.57538">
        <ele>49.9</ele>
        <time>2026-03-27T13:26:17Z</time>
      </trkpt>
      <trkpt lat="43.49564" lon="6.57537">
        <ele>49.8</ele>
        <time>2026-03-27T13:26:18Z</time>
      </trkpt>
      <trkpt lat="43.49563" lon="6.57536">
        <ele>49.8</ele>
        <time>2026-03-27T13:26:19Z</time>
      </trkpt>
      <trkpt lat="43.49562" lon="6.57535">
        <ele>49.7</ele>
        <time>2026-03-27T13:26:20Z</time>
      </trkpt>
      <trkpt lat="43.49562" lon="6.57533">
        <ele>49.6</ele>
        <time>2026-03-27T13:26:21Z</time>
      </trkpt>
      <trkpt lat="43.49562" lon="6.57532">
        <ele>49.5</ele>
        <time>2026-03-27T13:26:22Z</time>
      </trkpt>
      <trkpt lat="43.49561" lon="6.57531">
        <ele>49.4</ele>
        <time>2026-03-27T13:26:23Z</time>
      </trkpt>
      <trkpt lat="43.4956" lon="6.5753">
        <ele>49.5</ele>
        <time>2026-03-27T13:26:24Z</time>
      </trkpt>
      <trkpt lat="43.49559" lon="6.57529">
        <ele>49.5</ele>
        <time>2026-03-27T13:26:25Z</time>
      </trkpt>
      <trkpt lat="43.49558" lon="6.57528">
        <ele>49.4</ele>
        <time>2026-03-27T13:26:26Z</time>
      </trkpt>
      <trkpt lat="43.49558" lon="6.57527">
        <ele>49.4</ele>
        <time>2026-03-27T13:26:27Z</time>
      </trkpt>
      <trkpt lat="43.49557" lon="6.57526">
        <ele>49.3</ele>
        <time>2026-03-27T13:26:28Z</time>
      </trkpt>
      <trkpt lat="43.49556" lon="6.57525">
        <ele>49.2</ele>
        <time>2026-03-27T13:26:29Z</time>
      </trkpt>
      <trkpt lat="43.49555" lon="6.57524">
        <ele>49.3</ele>
        <time>2026-03-27T13:26:30Z</time>
      </trkpt>
      <trkpt lat="43.49554" lon="6.57523">
        <ele>49.3</ele>
        <time>2026-03-27T13:26:31Z</time>
      </trkpt>
      <trkpt lat="43.49553" lon="6.57522">
        <ele>49.2</ele>
        <time>2026-03-27T13:26:32Z</time>
      </trkpt>
      <trkpt lat="43.49551" lon="6.5752">
        <ele>49.2</ele>
        <time>2026-03-27T13:26:33Z</time>
      </trkpt>
      <trkpt lat="43.49551" lon="6.57518">
        <ele>49.2</ele>
        <time>2026-03-27T13:26:34Z</time>
      </trkpt>
      <trkpt lat="43.49549" lon="6.57517">
        <ele>49.4</ele>
        <time>2026-03-27T13:26:35Z</time>
      </trkpt>
      <trkpt lat="43.49549" lon="6.57515">
        <ele>49.3</ele>
        <time>2026-03-27T13:26:36Z</time>
      </trkpt>
      <trkpt lat="43.49548" lon="6.57514">
        <ele>49.2</ele>
        <time>2026-03-27T13:26:37Z</time>
      </trkpt>
      <trkpt lat="43.49547" lon="6.57513">
        <ele>49</ele>
        <time>2026-03-27T13:26:38Z</time>
      </trkpt>
      <trkpt lat="43.49545" lon="6.57511">
        <ele>48.8</ele>
        <time>2026-03-27T13:26:39Z</time>
      </trkpt>
      <trkpt lat="43.49543" lon="6.57511">
        <ele>48.7</ele>
        <time>2026-03-27T13:26:40Z</time>
      </trkpt>
      <trkpt lat="43.49542" lon="6.5751">
        <ele>48.6</ele>
        <time>2026-03-27T13:26:41Z</time>
      </trkpt>
      <trkpt lat="43.49541" lon="6.57509">
        <ele>48.5</ele>
        <time>2026-03-27T13:26:42Z</time>
      </trkpt>
      <trkpt lat="43.49541" lon="6.57508">
        <ele>48.3</ele>
        <time>2026-03-27T13:26:43Z</time>
      </trkpt>
      <trkpt lat="43.4954" lon="6.57507">
        <ele>48.2</ele>
        <time>2026-03-27T13:26:44Z</time>
      </trkpt>
      <trkpt lat="43.4954" lon="6.57506">
        <ele>48.6</ele>
        <time>2026-03-27T13:26:45Z</time>
      </trkpt>
      <trkpt lat="43.49539" lon="6.57506">
        <ele>48.6</ele>
        <time>2026-03-27T13:26:46Z</time>
      </trkpt>
      <trkpt lat="43.49539" lon="6.57505">
        <ele>48.4</ele>
        <time>2026-03-27T13:26:47Z</time>
      </trkpt>
      <trkpt lat="43.49537" lon="6.57504">
        <ele>48.4</ele>
        <time>2026-03-27T13:26:48Z</time>
      </trkpt>
      <trkpt lat="43.49535" lon="6.57503">
        <ele>48.3</ele>
        <time>2026-03-27T13:26:49Z</time>
      </trkpt>
      <trkpt lat="43.49534" lon="6.57502">
        <ele>48.2</ele>
        <time>2026-03-27T13:26:50Z</time>
      </trkpt>
      <trkpt lat="43.49532" lon="6.57502">
        <ele>48.2</ele>
        <time>2026-03-27T13:26:51Z</time>
      </trkpt>
      <trkpt lat="43.49531" lon="6.57501">
        <ele>48.2</ele>
        <time>2026-03-27T13:26:52Z</time>
      </trkpt>
      <trkpt lat="43.4953" lon="6.57501">
        <ele>48.1</ele>
        <time>2026-03-27T13:26:53Z</time>
      </trkpt>
      <trkpt lat="43.49528" lon="6.57501">
        <ele>48</ele>
        <time>2026-03-27T13:26:54Z</time>
      </trkpt>
      <trkpt lat="43.49527" lon="6.57501">
        <ele>47.8</ele>
        <time>2026-03-27T13:26:55Z</time>
      </trkpt>
      <trkpt lat="43.49526" lon="6.57501">
        <ele>47.8</ele>
        <time>2026-03-27T13:26:56Z</time>
      </trkpt>
      <trkpt lat="43.49525" lon="6.57501">
        <ele>47.8</ele>
        <time>2026-03-27T13:26:57Z</time>
      </trkpt>
      <trkpt lat="43.49523" lon="6.575">
        <ele>47.8</ele>
        <time>2026-03-27T13:26:58Z</time>
      </trkpt>
      <trkpt lat="43.49522" lon="6.57499">
        <ele>47.8</ele>
        <time>2026-03-27T13:26:59Z</time>
      </trkpt>
      <trkpt lat="43.49521" lon="6.575">
        <ele>47.8</ele>
        <time>2026-03-27T13:27:00Z</time>
      </trkpt>
      <trkpt lat="43.4952" lon="6.575">
        <ele>47.6</ele>
        <time>2026-03-27T13:27:01Z</time>
      </trkpt>
      <trkpt lat="43.49518" lon="6.575">
        <ele>47.6</ele>
        <time>2026-03-27T13:27:02Z</time>
      </trkpt>
      <trkpt lat="43.49517" lon="6.575">
        <ele>47.6</ele>
        <time>2026-03-27T13:27:03Z</time>
      </trkpt>
      <trkpt lat="43.49516" lon="6.575">
        <ele>47.6</ele>
        <time>2026-03-27T13:27:04Z</time>
      </trkpt>
      <trkpt lat="43.49515" lon="6.575">
        <ele>47.6</ele>
        <time>2026-03-27T13:27:05Z</time>
      </trkpt>
      <trkpt lat="43.49514" lon="6.575">
        <ele>47.9</ele>
        <time>2026-03-27T13:27:06Z</time>
      </trkpt>
      <trkpt lat="43.49513" lon="6.575">
        <ele>47.7</ele>
        <time>2026-03-27T13:27:07Z</time>
      </trkpt>
      <trkpt lat="43.49511" lon="6.57499">
        <ele>47.6</ele>
        <time>2026-03-27T13:27:08Z</time>
      </trkpt>
      <trkpt lat="43.4951" lon="6.57499">
        <ele>47.5</ele>
        <time>2026-03-27T13:27:09Z</time>
      </trkpt>
      <trkpt lat="43.49509" lon="6.57499">
        <ele>47.3</ele>
        <time>2026-03-27T13:27:10Z</time>
      </trkpt>
      <trkpt lat="43.49508" lon="6.57499">
        <ele>47.2</ele>
        <time>2026-03-27T13:27:11Z</time>
      </trkpt>
      <trkpt lat="43.49507" lon="6.57499">
        <ele>47.2</ele>
        <time>2026-03-27T13:27:12Z</time>
      </trkpt>
      <trkpt lat="43.49505" lon="6.57498">
        <ele>47.1</ele>
        <time>2026-03-27T13:27:13Z</time>
      </trkpt>
      <trkpt lat="43.49504" lon="6.57499">
        <ele>47</ele>
        <time>2026-03-27T13:27:14Z</time>
      </trkpt>
      <trkpt lat="43.49503" lon="6.57499">
        <ele>47</ele>
        <time>2026-03-27T13:27:15Z</time>
      </trkpt>
      <trkpt lat="43.49502" lon="6.57499">
        <ele>46.9</ele>
        <time>2026-03-27T13:27:16Z</time>
      </trkpt>
      <trkpt lat="43.49501" lon="6.57499">
        <ele>46.8</ele>
        <time>2026-03-27T13:27:17Z</time>
      </trkpt>
      <trkpt lat="43.49499" lon="6.57499">
        <ele>46.7</ele>
        <time>2026-03-27T13:27:18Z</time>
      </trkpt>
      <trkpt lat="43.49498" lon="6.57499">
        <ele>46.7</ele>
        <time>2026-03-27T13:27:19Z</time>
      </trkpt>
      <trkpt lat="43.49496" lon="6.57499">
        <ele>46.7</ele>
        <time>2026-03-27T13:27:20Z</time>
      </trkpt>
      <trkpt lat="43.49495" lon="6.57499">
        <ele>46.7</ele>
        <time>2026-03-27T13:27:21Z</time>
      </trkpt>
      <trkpt lat="43.49494" lon="6.57498">
        <ele>46.7</ele>
        <time>2026-03-27T13:27:22Z</time>
      </trkpt>
      <trkpt lat="43.49493" lon="6.57498">
        <ele>46.7</ele>
        <time>2026-03-27T13:27:23Z</time>
      </trkpt>
      <trkpt lat="43.49492" lon="6.57498">
        <ele>46.7</ele>
        <time>2026-03-27T13:27:24Z</time>
      </trkpt>
      <trkpt lat="43.49491" lon="6.57498">
        <ele>46.5</ele>
        <time>2026-03-27T13:27:25Z</time>
      </trkpt>
      <trkpt lat="43.49489" lon="6.57498">
        <ele>46.4</ele>
        <time>2026-03-27T13:27:26Z</time>
      </trkpt>
      <trkpt lat="43.49488" lon="6.57498">
        <ele>46.4</ele>
        <time>2026-03-27T13:27:27Z</time>
      </trkpt>
      <trkpt lat="43.49487" lon="6.57498">
        <ele>46.4</ele>
        <time>2026-03-27T13:27:28Z</time>
      </trkpt>
      <trkpt lat="43.49486" lon="6.57498">
        <ele>46.3</ele>
        <time>2026-03-27T13:27:29Z</time>
      </trkpt>
      <trkpt lat="43.49486" lon="6.57498">
        <ele>46.1</ele>
        <time>2026-03-27T13:27:30Z</time>
      </trkpt>
      <trkpt lat="43.49485" lon="6.57498">
        <ele>46</ele>
        <time>2026-03-27T13:27:31Z</time>
      </trkpt>
      <trkpt lat="43.49484" lon="6.57498">
        <ele>46</ele>
        <time>2026-03-27T13:27:32Z</time>
      </trkpt>
      <trkpt lat="43.49483" lon="6.57499">
        <ele>46</ele>
        <time>2026-03-27T13:27:33Z</time>
      </trkpt>
      <trkpt lat="43.49482" lon="6.57498">
        <ele>45.9</ele>
        <time>2026-03-27T13:27:34Z</time>
      </trkpt>
      <trkpt lat="43.49481" lon="6.57498">
        <ele>45.9</ele>
        <time>2026-03-27T13:27:35Z</time>
      </trkpt>
      <trkpt lat="43.4948" lon="6.57498">
        <ele>45.9</ele>
        <time>2026-03-27T13:27:36Z</time>
      </trkpt>
      <trkpt lat="43.49479" lon="6.57499">
        <ele>45.8</ele>
        <time>2026-03-27T13:27:37Z</time>
      </trkpt>
      <trkpt lat="43.49478" lon="6.57499">
        <ele>45.7</ele>
        <time>2026-03-27T13:27:38Z</time>
      </trkpt>
      <trkpt lat="43.49477" lon="6.57499">
        <ele>45.7</ele>
        <time>2026-03-27T13:27:39Z</time>
      </trkpt>
      <trkpt lat="43.49476" lon="6.57499">
        <ele>45.7</ele>
        <time>2026-03-27T13:27:40Z</time>
      </trkpt>
      <trkpt lat="43.49475" lon="6.57499">
        <ele>45.8</ele>
        <time>2026-03-27T13:27:41Z</time>
      </trkpt>
      <trkpt lat="43.49474" lon="6.57499">
        <ele>45.7</ele>
        <time>2026-03-27T13:27:42Z</time>
      </trkpt>
      <trkpt lat="43.49472" lon="6.57499">
        <ele>45.7</ele>
        <time>2026-03-27T13:27:43Z</time>
      </trkpt>
      <trkpt lat="43.49471" lon="6.57499">
        <ele>45.7</ele>
        <time>2026-03-27T13:27:44Z</time>
      </trkpt>
      <trkpt lat="43.4947" lon="6.57499">
        <ele>45.6</ele>
        <time>2026-03-27T13:27:45Z</time>
      </trkpt>
      <trkpt lat="43.49469" lon="6.57499">
        <ele>45.6</ele>
        <time>2026-03-27T13:27:46Z</time>
      </trkpt>
      <trkpt lat="43.49468" lon="6.57499">
        <ele>45.5</ele>
        <time>2026-03-27T13:27:47Z</time>
      </trkpt>
      <trkpt lat="43.49467" lon="6.57499">
        <ele>45.5</ele>
        <time>2026-03-27T13:27:48Z</time>
      </trkpt>
      <trkpt lat="43.49465" lon="6.57499">
        <ele>45.5</ele>
        <time>2026-03-27T13:27:49Z</time>
      </trkpt>
      <trkpt lat="43.49464" lon="6.57498">
        <ele>45.5</ele>
        <time>2026-03-27T13:27:50Z</time>
      </trkpt>
      <trkpt lat="43.49462" lon="6.57498">
        <ele>45.5</ele>
        <time>2026-03-27T13:27:51Z</time>
      </trkpt>
      <trkpt lat="43.49461" lon="6.57499">
        <ele>45.5</ele>
        <time>2026-03-27T13:27:52Z</time>
      </trkpt>
      <trkpt lat="43.4946" lon="6.57499">
        <ele>45.5</ele>
        <time>2026-03-27T13:27:53Z</time>
      </trkpt>
      <trkpt lat="43.49458" lon="6.575">
        <ele>45.6</ele>
        <time>2026-03-27T13:27:54Z</time>
      </trkpt>
      <trkpt lat="43.49457" lon="6.575">
        <ele>45.5</ele>
        <time>2026-03-27T13:27:55Z</time>
      </trkpt>
      <trkpt lat="43.49455" lon="6.57499">
        <ele>45.5</ele>
        <time>2026-03-27T13:27:56Z</time>
      </trkpt>
      <trkpt lat="43.49454" lon="6.575">
        <ele>45.5</ele>
        <time>2026-03-27T13:27:57Z</time>
      </trkpt>
      <trkpt lat="43.49452" lon="6.575">
        <ele>45.6</ele>
        <time>2026-03-27T13:27:58Z</time>
      </trkpt>
      <trkpt lat="43.49451" lon="6.575">
        <ele>45.8</ele>
        <time>2026-03-27T13:27:59Z</time>
      </trkpt>
      <trkpt lat="43.4945" lon="6.575">
        <ele>45.8</ele>
        <time>2026-03-27T13:28:00Z</time>
      </trkpt>
      <trkpt lat="43.49449" lon="6.57501">
        <ele>45.9</ele>
        <time>2026-03-27T13:28:01Z</time>
      </trkpt>
      <trkpt lat="43.49447" lon="6.57501">
        <ele>45.9</ele>
        <time>2026-03-27T13:28:02Z</time>
      </trkpt>
      <trkpt lat="43.49445" lon="6.57501">
        <ele>46.1</ele>
        <time>2026-03-27T13:28:03Z</time>
      </trkpt>
      <trkpt lat="43.49444" lon="6.57501">
        <ele>46.1</ele>
        <time>2026-03-27T13:28:04Z</time>
      </trkpt>
      <trkpt lat="43.49443" lon="6.57501">
        <ele>46.2</ele>
        <time>2026-03-27T13:28:05Z</time>
      </trkpt>
      <trkpt lat="43.49441" lon="6.57501">
        <ele>46.2</ele>
        <time>2026-03-27T13:28:06Z</time>
      </trkpt>
      <trkpt lat="43.4944" lon="6.57502">
        <ele>46.2</ele>
        <time>2026-03-27T13:28:07Z</time>
      </trkpt>
      <trkpt lat="43.4944" lon="6.57503">
        <ele>46.2</ele>
        <time>2026-03-27T13:28:08Z</time>
      </trkpt>
      <trkpt lat="43.49439" lon="6.57504">
        <ele>46.2</ele>
        <time>2026-03-27T13:28:09Z</time>
      </trkpt>
      <trkpt lat="43.49437" lon="6.57503">
        <ele>46.2</ele>
        <time>2026-03-27T13:28:10Z</time>
      </trkpt>
      <trkpt lat="43.49436" lon="6.57504">
        <ele>46.2</ele>
        <time>2026-03-27T13:28:11Z</time>
      </trkpt>
      <trkpt lat="43.49435" lon="6.57504">
        <ele>46.2</ele>
        <time>2026-03-27T13:28:12Z</time>
      </trkpt>
      <trkpt lat="43.49434" lon="6.57504">
        <ele>46.3</ele>
        <time>2026-03-27T13:28:13Z</time>
      </trkpt>
      <trkpt lat="43.49433" lon="6.57504">
        <ele>46.3</ele>
        <time>2026-03-27T13:28:14Z</time>
      </trkpt>
      <trkpt lat="43.49432" lon="6.57504">
        <ele>46.3</ele>
        <time>2026-03-27T13:28:15Z</time>
      </trkpt>
      <trkpt lat="43.49431" lon="6.57504">
        <ele>46.3</ele>
        <time>2026-03-27T13:28:16Z</time>
      </trkpt>
      <trkpt lat="43.4943" lon="6.57504">
        <ele>46.2</ele>
        <time>2026-03-27T13:28:17Z</time>
      </trkpt>
      <trkpt lat="43.49429" lon="6.57504">
        <ele>46.2</ele>
        <time>2026-03-27T13:28:18Z</time>
      </trkpt>
      <trkpt lat="43.49427" lon="6.57504">
        <ele>46.1</ele>
        <time>2026-03-27T13:28:19Z</time>
      </trkpt>
      <trkpt lat="43.49426" lon="6.57504">
        <ele>46</ele>
        <time>2026-03-27T13:28:20Z</time>
      </trkpt>
      <trkpt lat="43.49424" lon="6.57504">
        <ele>46</ele>
        <time>2026-03-27T13:28:21Z</time>
      </trkpt>
      <trkpt lat="43.49423" lon="6.57504">
        <ele>46</ele>
        <time>2026-03-27T13:28:22Z</time>
      </trkpt>
      <trkpt lat="43.49422" lon="6.57503">
        <ele>46.1</ele>
        <time>2026-03-27T13:28:23Z</time>
      </trkpt>
      <trkpt lat="43.49421" lon="6.57503">
        <ele>46</ele>
        <time>2026-03-27T13:28:24Z</time>
      </trkpt>
      <trkpt lat="43.49419" lon="6.57503">
        <ele>45.9</ele>
        <time>2026-03-27T13:28:25Z</time>
      </trkpt>
      <trkpt lat="43.49418" lon="6.57503">
        <ele>46</ele>
        <time>2026-03-27T13:28:26Z</time>
      </trkpt>
      <trkpt lat="43.49417" lon="6.57504">
        <ele>46</ele>
        <time>2026-03-27T13:28:27Z</time>
      </trkpt>
      <trkpt lat="43.49416" lon="6.57504">
        <ele>46.1</ele>
        <time>2026-03-27T13:28:28Z</time>
      </trkpt>
      <trkpt lat="43.49415" lon="6.57504">
        <ele>45.9</ele>
        <time>2026-03-27T13:28:29Z</time>
      </trkpt>
      <trkpt lat="43.49414" lon="6.57504">
        <ele>45.8</ele>
        <time>2026-03-27T13:28:30Z</time>
      </trkpt>
      <trkpt lat="43.49413" lon="6.57505">
        <ele>45.7</ele>
        <time>2026-03-27T13:28:31Z</time>
      </trkpt>
      <trkpt lat="43.49413" lon="6.57504">
        <ele>45.7</ele>
        <time>2026-03-27T13:28:32Z</time>
      </trkpt>
      <trkpt lat="43.49412" lon="6.57504">
        <ele>45.8</ele>
        <time>2026-03-27T13:28:33Z</time>
      </trkpt>
      <trkpt lat="43.4941" lon="6.57503">
        <ele>45.7</ele>
        <time>2026-03-27T13:28:34Z</time>
      </trkpt>
      <trkpt lat="43.49409" lon="6.57503">
        <ele>45.8</ele>
        <time>2026-03-27T13:28:35Z</time>
      </trkpt>
      <trkpt lat="43.49408" lon="6.57503">
        <ele>45.8</ele>
        <time>2026-03-27T13:28:36Z</time>
      </trkpt>
      <trkpt lat="43.49407" lon="6.57503">
        <ele>45.9</ele>
        <time>2026-03-27T13:28:37Z</time>
      </trkpt>
      <trkpt lat="43.49406" lon="6.57503">
        <ele>45.8</ele>
        <time>2026-03-27T13:28:38Z</time>
      </trkpt>
      <trkpt lat="43.49405" lon="6.57503">
        <ele>45.7</ele>
        <time>2026-03-27T13:28:39Z</time>
      </trkpt>
      <trkpt lat="43.49404" lon="6.57503">
        <ele>45.7</ele>
        <time>2026-03-27T13:28:40Z</time>
      </trkpt>
      <trkpt lat="43.49403" lon="6.57502">
        <ele>45.6</ele>
        <time>2026-03-27T13:28:41Z</time>
      </trkpt>
      <trkpt lat="43.49402" lon="6.57502">
        <ele>45.5</ele>
        <time>2026-03-27T13:28:42Z</time>
      </trkpt>
      <trkpt lat="43.49401" lon="6.57501">
        <ele>45.5</ele>
        <time>2026-03-27T13:28:43Z</time>
      </trkpt>
      <trkpt lat="43.494" lon="6.57501">
        <ele>45.4</ele>
        <time>2026-03-27T13:28:44Z</time>
      </trkpt>
      <trkpt lat="43.49399" lon="6.575">
        <ele>45.4</ele>
        <time>2026-03-27T13:28:45Z</time>
      </trkpt>
      <trkpt lat="43.49398" lon="6.575">
        <ele>45.4</ele>
        <time>2026-03-27T13:28:46Z</time>
      </trkpt>
      <trkpt lat="43.49397" lon="6.575">
        <ele>45.2</ele>
        <time>2026-03-27T13:28:47Z</time>
      </trkpt>
      <trkpt lat="43.49396" lon="6.57499">
        <ele>45.2</ele>
        <time>2026-03-27T13:28:48Z</time>
      </trkpt>
      <trkpt lat="43.49395" lon="6.57499">
        <ele>45.1</ele>
        <time>2026-03-27T13:28:49Z</time>
      </trkpt>
      <trkpt lat="43.49394" lon="6.57499">
        <ele>45</ele>
        <time>2026-03-27T13:28:50Z</time>
      </trkpt>
      <trkpt lat="43.49393" lon="6.57499">
        <ele>45</ele>
        <time>2026-03-27T13:28:51Z</time>
      </trkpt>
      <trkpt lat="43.49392" lon="6.57499">
        <ele>45</ele>
        <time>2026-03-27T13:28:52Z</time>
      </trkpt>
      <trkpt lat="43.4939" lon="6.57498">
        <ele>44.9</ele>
        <time>2026-03-27T13:28:53Z</time>
      </trkpt>
      <trkpt lat="43.49389" lon="6.57497">
        <ele>44.8</ele>
        <time>2026-03-27T13:28:54Z</time>
      </trkpt>
      <trkpt lat="43.49389" lon="6.57496">
        <ele>44.7</ele>
        <time>2026-03-27T13:28:55Z</time>
      </trkpt>
      <trkpt lat="43.49388" lon="6.57496">
        <ele>44.5</ele>
        <time>2026-03-27T13:28:56Z</time>
      </trkpt>
      <trkpt lat="43.49387" lon="6.57496">
        <ele>44.3</ele>
        <time>2026-03-27T13:28:57Z</time>
      </trkpt>
      <trkpt lat="43.49386" lon="6.57496">
        <ele>44.2</ele>
        <time>2026-03-27T13:28:58Z</time>
      </trkpt>
      <trkpt lat="43.49385" lon="6.57495">
        <ele>44.2</ele>
        <time>2026-03-27T13:28:59Z</time>
      </trkpt>
      <trkpt lat="43.49383" lon="6.57495">
        <ele>44.1</ele>
        <time>2026-03-27T13:29:00Z</time>
      </trkpt>
      <trkpt lat="43.49382" lon="6.57494">
        <ele>44.1</ele>
        <time>2026-03-27T13:29:01Z</time>
      </trkpt>
      <trkpt lat="43.49381" lon="6.57494">
        <ele>44.1</ele>
        <time>2026-03-27T13:29:02Z</time>
      </trkpt>
      <trkpt lat="43.4938" lon="6.57493">
        <ele>43.9</ele>
        <time>2026-03-27T13:29:03Z</time>
      </trkpt>
      <trkpt lat="43.4938" lon="6.57493">
        <ele>43.9</ele>
        <time>2026-03-27T13:29:04Z</time>
      </trkpt>
      <trkpt lat="43.49378" lon="6.57493">
        <ele>43.8</ele>
        <time>2026-03-27T13:29:05Z</time>
      </trkpt>
      <trkpt lat="43.49377" lon="6.57493">
        <ele>43.8</ele>
        <time>2026-03-27T13:29:06Z</time>
      </trkpt>
      <trkpt lat="43.49376" lon="6.57493">
        <ele>43.7</ele>
        <time>2026-03-27T13:29:07Z</time>
      </trkpt>
      <trkpt lat="43.49375" lon="6.57492">
        <ele>43.6</ele>
        <time>2026-03-27T13:29:08Z</time>
      </trkpt>
      <trkpt lat="43.49374" lon="6.57492">
        <ele>43.6</ele>
        <time>2026-03-27T13:29:09Z</time>
      </trkpt>
      <trkpt lat="43.49374" lon="6.57492">
        <ele>43.5</ele>
        <time>2026-03-27T13:29:10Z</time>
      </trkpt>
      <trkpt lat="43.49373" lon="6.57491">
        <ele>43.4</ele>
        <time>2026-03-27T13:29:11Z</time>
      </trkpt>
      <trkpt lat="43.49371" lon="6.57491">
        <ele>43.3</ele>
        <time>2026-03-27T13:29:12Z</time>
      </trkpt>
      <trkpt lat="43.4937" lon="6.57491">
        <ele>43.2</ele>
        <time>2026-03-27T13:29:13Z</time>
      </trkpt>
      <trkpt lat="43.49369" lon="6.57491">
        <ele>43.1</ele>
        <time>2026-03-27T13:29:14Z</time>
      </trkpt>
      <trkpt lat="43.49368" lon="6.57491">
        <ele>42.9</ele>
        <time>2026-03-27T13:29:15Z</time>
      </trkpt>
      <trkpt lat="43.49367" lon="6.57491">
        <ele>42.9</ele>
        <time>2026-03-27T13:29:16Z</time>
      </trkpt>
      <trkpt lat="43.49366" lon="6.57491">
        <ele>42.8</ele>
        <time>2026-03-27T13:29:17Z</time>
      </trkpt>
      <trkpt lat="43.49365" lon="6.57491">
        <ele>42.8</ele>
        <time>2026-03-27T13:29:18Z</time>
      </trkpt>
      <trkpt lat="43.49364" lon="6.5749">
        <ele>42.7</ele>
        <time>2026-03-27T13:29:19Z</time>
      </trkpt>
      <trkpt lat="43.49363" lon="6.5749">
        <ele>42.7</ele>
        <time>2026-03-27T13:29:20Z</time>
      </trkpt>
      <trkpt lat="43.49362" lon="6.5749">
        <ele>42.6</ele>
        <time>2026-03-27T13:29:21Z</time>
      </trkpt>
      <trkpt lat="43.49361" lon="6.5749">
        <ele>42.6</ele>
        <time>2026-03-27T13:29:22Z</time>
      </trkpt>
      <trkpt lat="43.4936" lon="6.5749">
        <ele>42.7</ele>
        <time>2026-03-27T13:29:23Z</time>
      </trkpt>
      <trkpt lat="43.49359" lon="6.5749">
        <ele>42.5</ele>
        <time>2026-03-27T13:29:24Z</time>
      </trkpt>
      <trkpt lat="43.49358" lon="6.57491">
        <ele>42.4</ele>
        <time>2026-03-27T13:29:25Z</time>
      </trkpt>
      <trkpt lat="43.49357" lon="6.57491">
        <ele>42.4</ele>
        <time>2026-03-27T13:29:26Z</time>
      </trkpt>
      <trkpt lat="43.49356" lon="6.57492">
        <ele>42.4</ele>
        <time>2026-03-27T13:29:27Z</time>
      </trkpt>
      <trkpt lat="43.49354" lon="6.57491">
        <ele>42.4</ele>
        <time>2026-03-27T13:29:28Z</time>
      </trkpt>
      <trkpt lat="43.49353" lon="6.5749">
        <ele>42.4</ele>
        <time>2026-03-27T13:29:29Z</time>
      </trkpt>
      <trkpt lat="43.49353" lon="6.5749">
        <ele>42.4</ele>
        <time>2026-03-27T13:29:30Z</time>
      </trkpt>
      <trkpt lat="43.49351" lon="6.5749">
        <ele>42.4</ele>
        <time>2026-03-27T13:29:31Z</time>
      </trkpt>
      <trkpt lat="43.49351" lon="6.57491">
        <ele>42.4</ele>
        <time>2026-03-27T13:29:32Z</time>
      </trkpt>
      <trkpt lat="43.4935" lon="6.57492">
        <ele>42.3</ele>
        <time>2026-03-27T13:29:33Z</time>
      </trkpt>
      <trkpt lat="43.49349" lon="6.57492">
        <ele>42.3</ele>
        <time>2026-03-27T13:29:34Z</time>
      </trkpt>
      <trkpt lat="43.49348" lon="6.57492">
        <ele>42.2</ele>
        <time>2026-03-27T13:29:35Z</time>
      </trkpt>
      <trkpt lat="43.49347" lon="6.57492">
        <ele>42.3</ele>
        <time>2026-03-27T13:29:36Z</time>
      </trkpt>
      <trkpt lat="43.49346" lon="6.57492">
        <ele>42.2</ele>
        <time>2026-03-27T13:29:37Z</time>
      </trkpt>
      <trkpt lat="43.49345" lon="6.57493">
        <ele>42.2</ele>
        <time>2026-03-27T13:29:38Z</time>
      </trkpt>
      <trkpt lat="43.49344" lon="6.57493">
        <ele>42</ele>
        <time>2026-03-27T13:29:39Z</time>
      </trkpt>
      <trkpt lat="43.49343" lon="6.57494">
        <ele>42</ele>
        <time>2026-03-27T13:29:40Z</time>
      </trkpt>
      <trkpt lat="43.49342" lon="6.57494">
        <ele>42</ele>
        <time>2026-03-27T13:29:41Z</time>
      </trkpt>
      <trkpt lat="43.49341" lon="6.57493">
        <ele>41.9</ele>
        <time>2026-03-27T13:29:42Z</time>
      </trkpt>
      <trkpt lat="43.4934" lon="6.57494">
        <ele>42</ele>
        <time>2026-03-27T13:29:43Z</time>
      </trkpt>
      <trkpt lat="43.49339" lon="6.57495">
        <ele>41.9</ele>
        <time>2026-03-27T13:29:44Z</time>
      </trkpt>
      <trkpt lat="43.49338" lon="6.57495">
        <ele>41.8</ele>
        <time>2026-03-27T13:29:45Z</time>
      </trkpt>
      <trkpt lat="43.49336" lon="6.57496">
        <ele>41.7</ele>
        <time>2026-03-27T13:29:46Z</time>
      </trkpt>
      <trkpt lat="43.49335" lon="6.57497">
        <ele>41.8</ele>
        <time>2026-03-27T13:29:47Z</time>
      </trkpt>
      <trkpt lat="43.49334" lon="6.57497">
        <ele>41.7</ele>
        <time>2026-03-27T13:29:48Z</time>
      </trkpt>
      <trkpt lat="43.49333" lon="6.57498">
        <ele>41.7</ele>
        <time>2026-03-27T13:29:49Z</time>
      </trkpt>
      <trkpt lat="43.49332" lon="6.57499">
        <ele>41.8</ele>
        <time>2026-03-27T13:29:50Z</time>
      </trkpt>
      <trkpt lat="43.49331" lon="6.575">
        <ele>41.8</ele>
        <time>2026-03-27T13:29:51Z</time>
      </trkpt>
      <trkpt lat="43.4933" lon="6.575">
        <ele>42.1</ele>
        <time>2026-03-27T13:29:52Z</time>
      </trkpt>
      <trkpt lat="43.4933" lon="6.575">
        <ele>42.1</ele>
        <time>2026-03-27T13:29:53Z</time>
      </trkpt>
      <trkpt lat="43.49328" lon="6.57501">
        <ele>42</ele>
        <time>2026-03-27T13:29:54Z</time>
      </trkpt>
      <trkpt lat="43.49327" lon="6.57502">
        <ele>42</ele>
        <time>2026-03-27T13:29:55Z</time>
      </trkpt>
      <trkpt lat="43.49326" lon="6.57502">
        <ele>41.9</ele>
        <time>2026-03-27T13:29:56Z</time>
      </trkpt>
      <trkpt lat="43.49324" lon="6.57503">
        <ele>41.8</ele>
        <time>2026-03-27T13:29:57Z</time>
      </trkpt>
      <trkpt lat="43.49323" lon="6.57503">
        <ele>41.8</ele>
        <time>2026-03-27T13:29:58Z</time>
      </trkpt>
      <trkpt lat="43.49322" lon="6.57503">
        <ele>41.8</ele>
        <time>2026-03-27T13:29:59Z</time>
      </trkpt>
      <trkpt lat="43.4932" lon="6.57503">
        <ele>41.7</ele>
        <time>2026-03-27T13:30:00Z</time>
      </trkpt>
      <trkpt lat="43.49319" lon="6.57503">
        <ele>41.8</ele>
        <time>2026-03-27T13:30:01Z</time>
      </trkpt>
      <trkpt lat="43.49318" lon="6.57504">
        <ele>41.8</ele>
        <time>2026-03-27T13:30:02Z</time>
      </trkpt>
      <trkpt lat="43.49318" lon="6.57504">
        <ele>41.8</ele>
        <time>2026-03-27T13:30:03Z</time>
      </trkpt>
      <trkpt lat="43.49316" lon="6.57504">
        <ele>41.8</ele>
        <time>2026-03-27T13:30:04Z</time>
      </trkpt>
      <trkpt lat="43.49315" lon="6.57505">
        <ele>41.8</ele>
        <time>2026-03-27T13:30:05Z</time>
      </trkpt>
      <trkpt lat="43.49314" lon="6.57505">
        <ele>41.8</ele>
        <time>2026-03-27T13:30:06Z</time>
      </trkpt>
      <trkpt lat="43.49313" lon="6.57505">
        <ele>41.8</ele>
        <time>2026-03-27T13:30:07Z</time>
      </trkpt>
      <trkpt lat="43.49312" lon="6.57505">
        <ele>41.7</ele>
        <time>2026-03-27T13:30:08Z</time>
      </trkpt>
      <trkpt lat="43.49311" lon="6.57506">
        <ele>41.6</ele>
        <time>2026-03-27T13:30:09Z</time>
      </trkpt>
      <trkpt lat="43.4931" lon="6.57507">
        <ele>41.5</ele>
        <time>2026-03-27T13:30:10Z</time>
      </trkpt>
      <trkpt lat="43.49308" lon="6.57507">
        <ele>41.5</ele>
        <time>2026-03-27T13:30:11Z</time>
      </trkpt>
      <trkpt lat="43.49307" lon="6.57508">
        <ele>41.4</ele>
        <time>2026-03-27T13:30:12Z</time>
      </trkpt>
      <trkpt lat="43.49306" lon="6.57509">
        <ele>41.4</ele>
        <time>2026-03-27T13:30:13Z</time>
      </trkpt>
      <trkpt lat="43.49305" lon="6.57509">
        <ele>41.6</ele>
        <time>2026-03-27T13:30:14Z</time>
      </trkpt>
      <trkpt lat="43.49304" lon="6.57509">
        <ele>41.5</ele>
        <time>2026-03-27T13:30:15Z</time>
      </trkpt>
      <trkpt lat="43.49303" lon="6.5751">
        <ele>41.5</ele>
        <time>2026-03-27T13:30:16Z</time>
      </trkpt>
      <trkpt lat="43.49301" lon="6.5751">
        <ele>41.5</ele>
        <time>2026-03-27T13:30:17Z</time>
      </trkpt>
      <trkpt lat="43.493" lon="6.5751">
        <ele>41.5</ele>
        <time>2026-03-27T13:30:18Z</time>
      </trkpt>
      <trkpt lat="43.49299" lon="6.5751">
        <ele>41.7</ele>
        <time>2026-03-27T13:30:19Z</time>
      </trkpt>
      <trkpt lat="43.49298" lon="6.57511">
        <ele>41.8</ele>
        <time>2026-03-27T13:30:20Z</time>
      </trkpt>
      <trkpt lat="43.49297" lon="6.57512">
        <ele>41.9</ele>
        <time>2026-03-27T13:30:21Z</time>
      </trkpt>
      <trkpt lat="43.49296" lon="6.57512">
        <ele>41.9</ele>
        <time>2026-03-27T13:30:22Z</time>
      </trkpt>
      <trkpt lat="43.49295" lon="6.57513">
        <ele>41.9</ele>
        <time>2026-03-27T13:30:23Z</time>
      </trkpt>
      <trkpt lat="43.49294" lon="6.57513">
        <ele>41.9</ele>
        <time>2026-03-27T13:30:24Z</time>
      </trkpt>
      <trkpt lat="43.49293" lon="6.57513">
        <ele>41.9</ele>
        <time>2026-03-27T13:30:25Z</time>
      </trkpt>
      <trkpt lat="43.49292" lon="6.57513">
        <ele>41.9</ele>
        <time>2026-03-27T13:30:26Z</time>
      </trkpt>
      <trkpt lat="43.49291" lon="6.57514">
        <ele>42</ele>
        <time>2026-03-27T13:30:27Z</time>
      </trkpt>
      <trkpt lat="43.49291" lon="6.57514">
        <ele>42</ele>
        <time>2026-03-27T13:30:28Z</time>
      </trkpt>
      <trkpt lat="43.4929" lon="6.57514">
        <ele>42</ele>
        <time>2026-03-27T13:30:29Z</time>
      </trkpt>
      <trkpt lat="43.49289" lon="6.57514">
        <ele>42.1</ele>
        <time>2026-03-27T13:30:30Z</time>
      </trkpt>
      <trkpt lat="43.49288" lon="6.57515">
        <ele>42.2</ele>
        <time>2026-03-27T13:30:31Z</time>
      </trkpt>
      <trkpt lat="43.49288" lon="6.57516">
        <ele>42.2</ele>
        <time>2026-03-27T13:30:32Z</time>
      </trkpt>
      <trkpt lat="43.49287" lon="6.57517">
        <ele>42.1</ele>
        <time>2026-03-27T13:30:33Z</time>
      </trkpt>
      <trkpt lat="43.49287" lon="6.57518">
        <ele>42.1</ele>
        <time>2026-03-27T13:30:34Z</time>
      </trkpt>
      <trkpt lat="43.49286" lon="6.5752">
        <ele>42.1</ele>
        <time>2026-03-27T13:30:35Z</time>
      </trkpt>
      <trkpt lat="43.49285" lon="6.57521">
        <ele>42</ele>
        <time>2026-03-27T13:30:36Z</time>
      </trkpt>
      <trkpt lat="43.49284" lon="6.57521">
        <ele>42</ele>
        <time>2026-03-27T13:30:37Z</time>
      </trkpt>
      <trkpt lat="43.49283" lon="6.57522">
        <ele>42.1</ele>
        <time>2026-03-27T13:30:38Z</time>
      </trkpt>
      <trkpt lat="43.49282" lon="6.57524">
        <ele>42.1</ele>
        <time>2026-03-27T13:30:39Z</time>
      </trkpt>
      <trkpt lat="43.49281" lon="6.57525">
        <ele>42.1</ele>
        <time>2026-03-27T13:30:40Z</time>
      </trkpt>
      <trkpt lat="43.49279" lon="6.57526">
        <ele>42.1</ele>
        <time>2026-03-27T13:30:41Z</time>
      </trkpt>
      <trkpt lat="43.49278" lon="6.57526">
        <ele>42.1</ele>
        <time>2026-03-27T13:30:42Z</time>
      </trkpt>
      <trkpt lat="43.49277" lon="6.57527">
        <ele>42.2</ele>
        <time>2026-03-27T13:30:43Z</time>
      </trkpt>
      <trkpt lat="43.49275" lon="6.57527">
        <ele>42.1</ele>
        <time>2026-03-27T13:30:44Z</time>
      </trkpt>
      <trkpt lat="43.49274" lon="6.57527">
        <ele>42</ele>
        <time>2026-03-27T13:30:45Z</time>
      </trkpt>
      <trkpt lat="43.49273" lon="6.57527">
        <ele>41.9</ele>
        <time>2026-03-27T13:30:46Z</time>
      </trkpt>
      <trkpt lat="43.49272" lon="6.57529">
        <ele>41.9</ele>
        <time>2026-03-27T13:30:47Z</time>
      </trkpt>
      <trkpt lat="43.49271" lon="6.57529">
        <ele>41.8</ele>
        <time>2026-03-27T13:30:48Z</time>
      </trkpt>
      <trkpt lat="43.4927" lon="6.5753">
        <ele>41.8</ele>
        <time>2026-03-27T13:30:49Z</time>
      </trkpt>
      <trkpt lat="43.49268" lon="6.5753">
        <ele>41.7</ele>
        <time>2026-03-27T13:30:50Z</time>
      </trkpt>
      <trkpt lat="43.49267" lon="6.57531">
        <ele>41.8</ele>
        <time>2026-03-27T13:30:51Z</time>
      </trkpt>
      <trkpt lat="43.49266" lon="6.57532">
        <ele>41.7</ele>
        <time>2026-03-27T13:30:52Z</time>
      </trkpt>
      <trkpt lat="43.49265" lon="6.57533">
        <ele>41.8</ele>
        <time>2026-03-27T13:30:53Z</time>
      </trkpt>
      <trkpt lat="43.49264" lon="6.57533">
        <ele>41.9</ele>
        <time>2026-03-27T13:30:54Z</time>
      </trkpt>
      <trkpt lat="43.49262" lon="6.57533">
        <ele>42</ele>
        <time>2026-03-27T13:30:55Z</time>
      </trkpt>
      <trkpt lat="43.49261" lon="6.57534">
        <ele>42.1</ele>
        <time>2026-03-27T13:30:56Z</time>
      </trkpt>
      <trkpt lat="43.49262" lon="6.57535">
        <ele>42.1</ele>
        <time>2026-03-27T13:30:57Z</time>
      </trkpt>
      <trkpt lat="43.49261" lon="6.57536">
        <ele>42.2</ele>
        <time>2026-03-27T13:30:58Z</time>
      </trkpt>
      <trkpt lat="43.4926" lon="6.57537">
        <ele>42.2</ele>
        <time>2026-03-27T13:30:59Z</time>
      </trkpt>
      <trkpt lat="43.49259" lon="6.57538">
        <ele>42.3</ele>
        <time>2026-03-27T13:31:00Z</time>
      </trkpt>
      <trkpt lat="43.49258" lon="6.5754">
        <ele>42.3</ele>
        <time>2026-03-27T13:31:01Z</time>
      </trkpt>
      <trkpt lat="43.49258" lon="6.57541">
        <ele>42.3</ele>
        <time>2026-03-27T13:31:02Z</time>
      </trkpt>
      <trkpt lat="43.49256" lon="6.57541">
        <ele>42.3</ele>
        <time>2026-03-27T13:31:03Z</time>
      </trkpt>
      <trkpt lat="43.49255" lon="6.57542">
        <ele>42.4</ele>
        <time>2026-03-27T13:31:04Z</time>
      </trkpt>
      <trkpt lat="43.49255" lon="6.57543">
        <ele>42.4</ele>
        <time>2026-03-27T13:31:05Z</time>
      </trkpt>
      <trkpt lat="43.49254" lon="6.57545">
        <ele>42.4</ele>
        <time>2026-03-27T13:31:06Z</time>
      </trkpt>
      <trkpt lat="43.49253" lon="6.57547">
        <ele>42.4</ele>
        <time>2026-03-27T13:31:07Z</time>
      </trkpt>
      <trkpt lat="43.49253" lon="6.57548">
        <ele>42.4</ele>
        <time>2026-03-27T13:31:08Z</time>
      </trkpt>
      <trkpt lat="43.49252" lon="6.57548">
        <ele>42.4</ele>
        <time>2026-03-27T13:31:09Z</time>
      </trkpt>
      <trkpt lat="43.4925" lon="6.57549">
        <ele>42.4</ele>
        <time>2026-03-27T13:31:10Z</time>
      </trkpt>
      <trkpt lat="43.49249" lon="6.57551">
        <ele>42.5</ele>
        <time>2026-03-27T13:31:11Z</time>
      </trkpt>
      <trkpt lat="43.49248" lon="6.57552">
        <ele>42.6</ele>
        <time>2026-03-27T13:31:12Z</time>
      </trkpt>
      <trkpt lat="43.49247" lon="6.57553">
        <ele>42.6</ele>
        <time>2026-03-27T13:31:13Z</time>
      </trkpt>
      <trkpt lat="43.49246" lon="6.57555">
        <ele>42.6</ele>
        <time>2026-03-27T13:31:14Z</time>
      </trkpt>
      <trkpt lat="43.49245" lon="6.57557">
        <ele>42.7</ele>
        <time>2026-03-27T13:31:15Z</time>
      </trkpt>
      <trkpt lat="43.49244" lon="6.57558">
        <ele>42.7</ele>
        <time>2026-03-27T13:31:16Z</time>
      </trkpt>
      <trkpt lat="43.49243" lon="6.5756">
        <ele>42.8</ele>
        <time>2026-03-27T13:31:17Z</time>
      </trkpt>
      <trkpt lat="43.49242" lon="6.57562">
        <ele>42.9</ele>
        <time>2026-03-27T13:31:18Z</time>
      </trkpt>
      <trkpt lat="43.49241" lon="6.57564">
        <ele>43</ele>
        <time>2026-03-27T13:31:19Z</time>
      </trkpt>
      <trkpt lat="43.4924" lon="6.57565">
        <ele>43.1</ele>
        <time>2026-03-27T13:31:20Z</time>
      </trkpt>
      <trkpt lat="43.4924" lon="6.57567">
        <ele>43.1</ele>
        <time>2026-03-27T13:31:21Z</time>
      </trkpt>
      <trkpt lat="43.49239" lon="6.57569">
        <ele>43.2</ele>
        <time>2026-03-27T13:31:22Z</time>
      </trkpt>
      <trkpt lat="43.49239" lon="6.57572">
        <ele>43.3</ele>
        <time>2026-03-27T13:31:23Z</time>
      </trkpt>
      <trkpt lat="43.49239" lon="6.57573">
        <ele>43.4</ele>
        <time>2026-03-27T13:31:24Z</time>
      </trkpt>
      <trkpt lat="43.49238" lon="6.57575">
        <ele>43.5</ele>
        <time>2026-03-27T13:31:25Z</time>
      </trkpt>
      <trkpt lat="43.49238" lon="6.57577">
        <ele>43.7</ele>
        <time>2026-03-27T13:31:26Z</time>
      </trkpt>
      <trkpt lat="43.49237" lon="6.57578">
        <ele>43.9</ele>
        <time>2026-03-27T13:31:27Z</time>
      </trkpt>
      <trkpt lat="43.49236" lon="6.5758">
        <ele>43.8</ele>
        <time>2026-03-27T13:31:28Z</time>
      </trkpt>
      <trkpt lat="43.49236" lon="6.57581">
        <ele>43.9</ele>
        <time>2026-03-27T13:31:29Z</time>
      </trkpt>
      <trkpt lat="43.49235" lon="6.57583">
        <ele>44</ele>
        <time>2026-03-27T13:31:30Z</time>
      </trkpt>
      <trkpt lat="43.49234" lon="6.57584">
        <ele>44.1</ele>
        <time>2026-03-27T13:31:31Z</time>
      </trkpt>
      <trkpt lat="43.49234" lon="6.57585">
        <ele>44.2</ele>
        <time>2026-03-27T13:31:32Z</time>
      </trkpt>
      <trkpt lat="43.49233" lon="6.57587">
        <ele>44.3</ele>
        <time>2026-03-27T13:31:33Z</time>
      </trkpt>
      <trkpt lat="43.49232" lon="6.57588">
        <ele>44.3</ele>
        <time>2026-03-27T13:31:34Z</time>
      </trkpt>
      <trkpt lat="43.49232" lon="6.5759">
        <ele>44.4</ele>
        <time>2026-03-27T13:31:35Z</time>
      </trkpt>
      <trkpt lat="43.49232" lon="6.57591">
        <ele>44.4</ele>
        <time>2026-03-27T13:31:36Z</time>
      </trkpt>
      <trkpt lat="43.49231" lon="6.57592">
        <ele>44.4</ele>
        <time>2026-03-27T13:31:37Z</time>
      </trkpt>
      <trkpt lat="43.49231" lon="6.57593">
        <ele>44.4</ele>
        <time>2026-03-27T13:31:38Z</time>
      </trkpt>
      <trkpt lat="43.4923" lon="6.57594">
        <ele>44.4</ele>
        <time>2026-03-27T13:31:39Z</time>
      </trkpt>
      <trkpt lat="43.49229" lon="6.57595">
        <ele>44.5</ele>
        <time>2026-03-27T13:31:40Z</time>
      </trkpt>
      <trkpt lat="43.49228" lon="6.57596">
        <ele>44.5</ele>
        <time>2026-03-27T13:31:41Z</time>
      </trkpt>
      <trkpt lat="43.49227" lon="6.57597">
        <ele>44.5</ele>
        <time>2026-03-27T13:31:42Z</time>
      </trkpt>
      <trkpt lat="43.49227" lon="6.57598">
        <ele>44.5</ele>
        <time>2026-03-27T13:31:43Z</time>
      </trkpt>
      <trkpt lat="43.49226" lon="6.57599">
        <ele>44.4</ele>
        <time>2026-03-27T13:31:44Z</time>
      </trkpt>
      <trkpt lat="43.49225" lon="6.57598">
        <ele>44.4</ele>
        <time>2026-03-27T13:31:45Z</time>
      </trkpt>
      <trkpt lat="43.49224" lon="6.57599">
        <ele>44.4</ele>
        <time>2026-03-27T13:31:46Z</time>
      </trkpt>
      <trkpt lat="43.49223" lon="6.576">
        <ele>44.3</ele>
        <time>2026-03-27T13:31:47Z</time>
      </trkpt>
      <trkpt lat="43.49223" lon="6.576">
        <ele>44.3</ele>
        <time>2026-03-27T13:31:48Z</time>
      </trkpt>
      <trkpt lat="43.49222" lon="6.576">
        <ele>44.3</ele>
        <time>2026-03-27T13:31:49Z</time>
      </trkpt>
      <trkpt lat="43.49221" lon="6.576">
        <ele>44.3</ele>
        <time>2026-03-27T13:31:50Z</time>
      </trkpt>
      <trkpt lat="43.4922" lon="6.576">
        <ele>44.3</ele>
        <time>2026-03-27T13:31:51Z</time>
      </trkpt>
      <trkpt lat="43.4922" lon="6.57601">
        <ele>44.2</ele>
        <time>2026-03-27T13:31:52Z</time>
      </trkpt>
      <trkpt lat="43.49219" lon="6.57602">
        <ele>44.3</ele>
        <time>2026-03-27T13:31:53Z</time>
      </trkpt>
      <trkpt lat="43.49218" lon="6.57602">
        <ele>44.3</ele>
        <time>2026-03-27T13:31:54Z</time>
      </trkpt>
      <trkpt lat="43.49217" lon="6.57602">
        <ele>44</ele>
        <time>2026-03-27T13:31:55Z</time>
      </trkpt>
      <trkpt lat="43.49217" lon="6.57601">
        <ele>43.9</ele>
        <time>2026-03-27T13:31:56Z</time>
      </trkpt>
      <trkpt lat="43.49216" lon="6.57601">
        <ele>43.8</ele>
        <time>2026-03-27T13:31:57Z</time>
      </trkpt>
      <trkpt lat="43.49216" lon="6.57601">
        <ele>43.8</ele>
        <time>2026-03-27T13:31:58Z</time>
      </trkpt>
      <trkpt lat="43.49216" lon="6.576">
        <ele>43.8</ele>
        <time>2026-03-27T13:31:59Z</time>
      </trkpt>
      <trkpt lat="43.49216" lon="6.576">
        <ele>43.9</ele>
        <time>2026-03-27T13:32:00Z</time>
      </trkpt>
      <trkpt lat="43.49215" lon="6.576">
        <ele>43.9</ele>
        <time>2026-03-27T13:32:01Z</time>
      </trkpt>
      <trkpt lat="43.49215" lon="6.576">
        <ele>43.9</ele>
        <time>2026-03-27T13:32:02Z</time>
      </trkpt>
      <trkpt lat="43.49214" lon="6.57599">
        <ele>44</ele>
        <time>2026-03-27T13:32:03Z</time>
      </trkpt>
      <trkpt lat="43.49213" lon="6.57599">
        <ele>44</ele>
        <time>2026-03-27T13:32:04Z</time>
      </trkpt>
      <trkpt lat="43.49212" lon="6.57599">
        <ele>44.1</ele>
        <time>2026-03-27T13:32:05Z</time>
      </trkpt>
      <trkpt lat="43.49212" lon="6.57598">
        <ele>44</ele>
        <time>2026-03-27T13:32:06Z</time>
      </trkpt>
      <trkpt lat="43.49211" lon="6.57598">
        <ele>43.9</ele>
        <time>2026-03-27T13:32:07Z</time>
      </trkpt>
      <trkpt lat="43.49211" lon="6.57597">
        <ele>43.9</ele>
        <time>2026-03-27T13:32:08Z</time>
      </trkpt>
      <trkpt lat="43.49211" lon="6.57597">
        <ele>43.8</ele>
        <time>2026-03-27T13:32:09Z</time>
      </trkpt>
      <trkpt lat="43.4921" lon="6.57596">
        <ele>43.8</ele>
        <time>2026-03-27T13:32:10Z</time>
      </trkpt>
      <trkpt lat="43.49209" lon="6.57596">
        <ele>43.7</ele>
        <time>2026-03-27T13:32:11Z</time>
      </trkpt>
      <trkpt lat="43.49208" lon="6.57595">
        <ele>43.6</ele>
        <time>2026-03-27T13:32:12Z</time>
      </trkpt>
      <trkpt lat="43.49208" lon="6.57595">
        <ele>43.4</ele>
        <time>2026-03-27T13:32:13Z</time>
      </trkpt>
      <trkpt lat="43.49207" lon="6.57594">
        <ele>43.3</ele>
        <time>2026-03-27T13:32:14Z</time>
      </trkpt>
      <trkpt lat="43.49206" lon="6.57593">
        <ele>43.2</ele>
        <time>2026-03-27T13:32:15Z</time>
      </trkpt>
      <trkpt lat="43.49205" lon="6.57593">
        <ele>43.3</ele>
        <time>2026-03-27T13:32:16Z</time>
      </trkpt>
      <trkpt lat="43.49204" lon="6.57593">
        <ele>43.1</ele>
        <time>2026-03-27T13:32:17Z</time>
      </trkpt>
      <trkpt lat="43.49203" lon="6.57591">
        <ele>43.1</ele>
        <time>2026-03-27T13:32:18Z</time>
      </trkpt>
      <trkpt lat="43.49201" lon="6.57591">
        <ele>43.1</ele>
        <time>2026-03-27T13:32:19Z</time>
      </trkpt>
      <trkpt lat="43.492" lon="6.57591">
        <ele>43</ele>
        <time>2026-03-27T13:32:20Z</time>
      </trkpt>
      <trkpt lat="43.49199" lon="6.5759">
        <ele>43</ele>
        <time>2026-03-27T13:32:21Z</time>
      </trkpt>
      <trkpt lat="43.49198" lon="6.5759">
        <ele>42.8</ele>
        <time>2026-03-27T13:32:22Z</time>
      </trkpt>
      <trkpt lat="43.49197" lon="6.57589">
        <ele>42.7</ele>
        <time>2026-03-27T13:32:23Z</time>
      </trkpt>
      <trkpt lat="43.49195" lon="6.57589">
        <ele>42.6</ele>
        <time>2026-03-27T13:32:24Z</time>
      </trkpt>
      <trkpt lat="43.49193" lon="6.57589">
        <ele>42.6</ele>
        <time>2026-03-27T13:32:25Z</time>
      </trkpt>
      <trkpt lat="43.49192" lon="6.57588">
        <ele>42.7</ele>
        <time>2026-03-27T13:32:26Z</time>
      </trkpt>
      <trkpt lat="43.4919" lon="6.57587">
        <ele>42.8</ele>
        <time>2026-03-27T13:32:27Z</time>
      </trkpt>
      <trkpt lat="43.49189" lon="6.57587">
        <ele>42.8</ele>
        <time>2026-03-27T13:32:28Z</time>
      </trkpt>
      <trkpt lat="43.49188" lon="6.57586">
        <ele>42.8</ele>
        <time>2026-03-27T13:32:29Z</time>
      </trkpt>
      <trkpt lat="43.49187" lon="6.57585">
        <ele>42.8</ele>
        <time>2026-03-27T13:32:30Z</time>
      </trkpt>
      <trkpt lat="43.49186" lon="6.57585">
        <ele>42.8</ele>
        <time>2026-03-27T13:32:31Z</time>
      </trkpt>
      <trkpt lat="43.49185" lon="6.57585">
        <ele>42.7</ele>
        <time>2026-03-27T13:32:32Z</time>
      </trkpt>
      <trkpt lat="43.49185" lon="6.57584">
        <ele>42.7</ele>
        <time>2026-03-27T13:32:33Z</time>
      </trkpt>
      <trkpt lat="43.49184" lon="6.57585">
        <ele>42.7</ele>
        <time>2026-03-27T13:32:34Z</time>
      </trkpt>
      <trkpt lat="43.49183" lon="6.57585">
        <ele>42.6</ele>
        <time>2026-03-27T13:32:35Z</time>
      </trkpt>
      <trkpt lat="43.49182" lon="6.57585">
        <ele>42.8</ele>
        <time>2026-03-27T13:32:36Z</time>
      </trkpt>
      <trkpt lat="43.49181" lon="6.57587">
        <ele>42.7</ele>
        <time>2026-03-27T13:32:37Z</time>
      </trkpt>
      <trkpt lat="43.49179" lon="6.57587">
        <ele>42.7</ele>
        <time>2026-03-27T13:32:38Z</time>
      </trkpt>
      <trkpt lat="43.49176" lon="6.57587">
        <ele>42.7</ele>
        <time>2026-03-27T13:32:39Z</time>
      </trkpt>
      <trkpt lat="43.49175" lon="6.57587">
        <ele>42.6</ele>
        <time>2026-03-27T13:32:40Z</time>
      </trkpt>
      <trkpt lat="43.49173" lon="6.57587">
        <ele>42.6</ele>
        <time>2026-03-27T13:32:41Z</time>
      </trkpt>
      <trkpt lat="43.49172" lon="6.57587">
        <ele>42.6</ele>
        <time>2026-03-27T13:32:42Z</time>
      </trkpt>
      <trkpt lat="43.49171" lon="6.57587">
        <ele>42.6</ele>
        <time>2026-03-27T13:32:43Z</time>
      </trkpt>
      <trkpt lat="43.49169" lon="6.57587">
        <ele>42.5</ele>
        <time>2026-03-27T13:32:44Z</time>
      </trkpt>
      <trkpt lat="43.49167" lon="6.57587">
        <ele>42.4</ele>
        <time>2026-03-27T13:32:45Z</time>
      </trkpt>
      <trkpt lat="43.49166" lon="6.57587">
        <ele>42.4</ele>
        <time>2026-03-27T13:32:46Z</time>
      </trkpt>
      <trkpt lat="43.49164" lon="6.57587">
        <ele>42.3</ele>
        <time>2026-03-27T13:32:47Z</time>
      </trkpt>
      <trkpt lat="43.49163" lon="6.57586">
        <ele>42.3</ele>
        <time>2026-03-27T13:32:48Z</time>
      </trkpt>
      <trkpt lat="43.49161" lon="6.57587">
        <ele>42.4</ele>
        <time>2026-03-27T13:32:49Z</time>
      </trkpt>
      <trkpt lat="43.4916" lon="6.57587">
        <ele>42.4</ele>
        <time>2026-03-27T13:32:50Z</time>
      </trkpt>
      <trkpt lat="43.49159" lon="6.57586">
        <ele>42.5</ele>
        <time>2026-03-27T13:32:51Z</time>
      </trkpt>
      <trkpt lat="43.49157" lon="6.57586">
        <ele>42.5</ele>
        <time>2026-03-27T13:32:52Z</time>
      </trkpt>
      <trkpt lat="43.49156" lon="6.57586">
        <ele>42.5</ele>
        <time>2026-03-27T13:32:53Z</time>
      </trkpt>
      <trkpt lat="43.49155" lon="6.57585">
        <ele>42.4</ele>
        <time>2026-03-27T13:32:54Z</time>
      </trkpt>
      <trkpt lat="43.49153" lon="6.57585">
        <ele>42.4</ele>
        <time>2026-03-27T13:32:55Z</time>
      </trkpt>
      <trkpt lat="43.49152" lon="6.57585">
        <ele>42.3</ele>
        <time>2026-03-27T13:32:56Z</time>
      </trkpt>
      <trkpt lat="43.49151" lon="6.57585">
        <ele>42.2</ele>
        <time>2026-03-27T13:32:57Z</time>
      </trkpt>
      <trkpt lat="43.4915" lon="6.57584">
        <ele>42.2</ele>
        <time>2026-03-27T13:32:58Z</time>
      </trkpt>
      <trkpt lat="43.49149" lon="6.57584">
        <ele>42.1</ele>
        <time>2026-03-27T13:32:59Z</time>
      </trkpt>
      <trkpt lat="43.49148" lon="6.57583">
        <ele>42</ele>
        <time>2026-03-27T13:33:00Z</time>
      </trkpt>
      <trkpt lat="43.49146" lon="6.57584">
        <ele>42</ele>
        <time>2026-03-27T13:33:01Z</time>
      </trkpt>
      <trkpt lat="43.49144" lon="6.57583">
        <ele>42</ele>
        <time>2026-03-27T13:33:02Z</time>
      </trkpt>
      <trkpt lat="43.49142" lon="6.57583">
        <ele>42</ele>
        <time>2026-03-27T13:33:03Z</time>
      </trkpt>
      <trkpt lat="43.4914" lon="6.57583">
        <ele>41.9</ele>
        <time>2026-03-27T13:33:04Z</time>
      </trkpt>
      <trkpt lat="43.49139" lon="6.57582">
        <ele>41.8</ele>
        <time>2026-03-27T13:33:05Z</time>
      </trkpt>
      <trkpt lat="43.49138" lon="6.57582">
        <ele>41.7</ele>
        <time>2026-03-27T13:33:06Z</time>
      </trkpt>
      <trkpt lat="43.49136" lon="6.57581">
        <ele>41.7</ele>
        <time>2026-03-27T13:33:07Z</time>
      </trkpt>
      <trkpt lat="43.49135" lon="6.57581">
        <ele>41.6</ele>
        <time>2026-03-27T13:33:08Z</time>
      </trkpt>
      <trkpt lat="43.49133" lon="6.57581">
        <ele>41.6</ele>
        <time>2026-03-27T13:33:09Z</time>
      </trkpt>
      <trkpt lat="43.49132" lon="6.5758">
        <ele>41.4</ele>
        <time>2026-03-27T13:33:10Z</time>
      </trkpt>
      <trkpt lat="43.4913" lon="6.57579">
        <ele>41.4</ele>
        <time>2026-03-27T13:33:11Z</time>
      </trkpt>
      <trkpt lat="43.49129" lon="6.57579">
        <ele>41.4</ele>
        <time>2026-03-27T13:33:12Z</time>
      </trkpt>
      <trkpt lat="43.49128" lon="6.57579">
        <ele>41.4</ele>
        <time>2026-03-27T13:33:13Z</time>
      </trkpt>
      <trkpt lat="43.49126" lon="6.57579">
        <ele>41.4</ele>
        <time>2026-03-27T13:33:14Z</time>
      </trkpt>
      <trkpt lat="43.49125" lon="6.57579">
        <ele>41.4</ele>
        <time>2026-03-27T13:33:15Z</time>
      </trkpt>
      <trkpt lat="43.49123" lon="6.57579">
        <ele>41.4</ele>
        <time>2026-03-27T13:33:16Z</time>
      </trkpt>
      <trkpt lat="43.49122" lon="6.57578">
        <ele>41.6</ele>
        <time>2026-03-27T13:33:17Z</time>
      </trkpt>
      <trkpt lat="43.49121" lon="6.57578">
        <ele>41.5</ele>
        <time>2026-03-27T13:33:18Z</time>
      </trkpt>
      <trkpt lat="43.49119" lon="6.57578">
        <ele>41.7</ele>
        <time>2026-03-27T13:33:19Z</time>
      </trkpt>
      <trkpt lat="43.49118" lon="6.57578">
        <ele>41.6</ele>
        <time>2026-03-27T13:33:20Z</time>
      </trkpt>
      <trkpt lat="43.49116" lon="6.57578">
        <ele>41.8</ele>
        <time>2026-03-27T13:33:21Z</time>
      </trkpt>
      <trkpt lat="43.49115" lon="6.57578">
        <ele>41.8</ele>
        <time>2026-03-27T13:33:22Z</time>
      </trkpt>
      <trkpt lat="43.49114" lon="6.57578">
        <ele>41.7</ele>
        <time>2026-03-27T13:33:23Z</time>
      </trkpt>
      <trkpt lat="43.49113" lon="6.57578">
        <ele>41.9</ele>
        <time>2026-03-27T13:33:24Z</time>
      </trkpt>
      <trkpt lat="43.49111" lon="6.57578">
        <ele>41.9</ele>
        <time>2026-03-27T13:33:25Z</time>
      </trkpt>
      <trkpt lat="43.4911" lon="6.57578">
        <ele>41.8</ele>
        <time>2026-03-27T13:33:26Z</time>
      </trkpt>
      <trkpt lat="43.49109" lon="6.57578">
        <ele>41.8</ele>
        <time>2026-03-27T13:33:27Z</time>
      </trkpt>
      <trkpt lat="43.49108" lon="6.57578">
        <ele>41.9</ele>
        <time>2026-03-27T13:33:28Z</time>
      </trkpt>
      <trkpt lat="43.49106" lon="6.57578">
        <ele>41.9</ele>
        <time>2026-03-27T13:33:29Z</time>
      </trkpt>
      <trkpt lat="43.49105" lon="6.57578">
        <ele>42</ele>
        <time>2026-03-27T13:33:30Z</time>
      </trkpt>
      <trkpt lat="43.49104" lon="6.57578">
        <ele>41.9</ele>
        <time>2026-03-27T13:33:31Z</time>
      </trkpt>
      <trkpt lat="43.49103" lon="6.5758">
        <ele>41.8</ele>
        <time>2026-03-27T13:33:32Z</time>
      </trkpt>
      <trkpt lat="43.49101" lon="6.57581">
        <ele>41.8</ele>
        <time>2026-03-27T13:33:33Z</time>
      </trkpt>
      <trkpt lat="43.491" lon="6.57581">
        <ele>41.7</ele>
        <time>2026-03-27T13:33:34Z</time>
      </trkpt>
      <trkpt lat="43.49099" lon="6.57581">
        <ele>41.7</ele>
        <time>2026-03-27T13:33:35Z</time>
      </trkpt>
      <trkpt lat="43.49098" lon="6.57581">
        <ele>41.7</ele>
        <time>2026-03-27T13:33:36Z</time>
      </trkpt>
      <trkpt lat="43.49098" lon="6.57581">
        <ele>41.7</ele>
        <time>2026-03-27T13:33:37Z</time>
      </trkpt>
      <trkpt lat="43.49097" lon="6.5758">
        <ele>41.7</ele>
        <time>2026-03-27T13:33:38Z</time>
      </trkpt>
      <trkpt lat="43.49097" lon="6.5758">
        <ele>41.6</ele>
        <time>2026-03-27T13:33:39Z</time>
      </trkpt>
      <trkpt lat="43.49096" lon="6.5758">
        <ele>41.6</ele>
        <time>2026-03-27T13:33:40Z</time>
      </trkpt>
      <trkpt lat="43.49096" lon="6.5758">
        <ele>41.5</ele>
        <time>2026-03-27T13:33:41Z</time>
      </trkpt>
      <trkpt lat="43.49096" lon="6.5758">
        <ele>41.5</ele>
        <time>2026-03-27T13:33:42Z</time>
      </trkpt>
      <trkpt lat="43.49095" lon="6.5758">
        <ele>41.3</ele>
        <time>2026-03-27T13:33:43Z</time>
      </trkpt>
      <trkpt lat="43.49095" lon="6.5758">
        <ele>41.2</ele>
        <time>2026-03-27T13:33:44Z</time>
      </trkpt>
      <trkpt lat="43.49095" lon="6.5758">
        <ele>41.2</ele>
        <time>2026-03-27T13:33:45Z</time>
      </trkpt>
      <trkpt lat="43.49095" lon="6.5758">
        <ele>41.1</ele>
        <time>2026-03-27T13:33:46Z</time>
      </trkpt>
      <trkpt lat="43.49095" lon="6.57581">
        <ele>41</ele>
        <time>2026-03-27T13:33:47Z</time>
      </trkpt>
      <trkpt lat="43.49094" lon="6.57581">
        <ele>41</ele>
        <time>2026-03-27T13:33:48Z</time>
      </trkpt>
      <trkpt lat="43.49094" lon="6.5758">
        <ele>41</ele>
        <time>2026-03-27T13:33:49Z</time>
      </trkpt>
      <trkpt lat="43.49094" lon="6.5758">
        <ele>41</ele>
        <time>2026-03-27T13:33:50Z</time>
      </trkpt>
      <trkpt lat="43.49094" lon="6.5758">
        <ele>41</ele>
        <time>2026-03-27T13:33:51Z</time>
      </trkpt>
      <trkpt lat="43.49094" lon="6.5758">
        <ele>41</ele>
        <time>2026-03-27T13:33:52Z</time>
      </trkpt>
      <trkpt lat="43.49094" lon="6.5758">
        <ele>41</ele>
        <time>2026-03-27T13:33:53Z</time>
      </trkpt>
      <trkpt lat="43.49094" lon="6.5758">
        <ele>40.9</ele>
        <time>2026-03-27T13:33:54Z</time>
      </trkpt>
      <trkpt lat="43.49094" lon="6.5758">
        <ele>40.9</ele>
        <time>2026-03-27T13:33:55Z</time>
      </trkpt>
      <trkpt lat="43.49094" lon="6.5758">
        <ele>40.9</ele>
        <time>2026-03-27T13:33:56Z</time>
      </trkpt>
      <trkpt lat="43.49094" lon="6.5758">
        <ele>40.9</ele>
        <time>2026-03-27T13:33:57Z</time>
      </trkpt>
      <trkpt lat="43.49094" lon="6.5758">
        <ele>40.8</ele>
        <time>2026-03-27T13:33:58Z</time>
      </trkpt>
      <trkpt lat="43.49094" lon="6.5758">
        <ele>40.9</ele>
        <time>2026-03-27T13:33:59Z</time>
      </trkpt>
      <trkpt lat="43.49093" lon="6.5758">
        <ele>40.9</ele>
        <time>2026-03-27T13:34:00Z</time>
      </trkpt>
      <trkpt lat="43.49093" lon="6.5758">
        <ele>40.9</ele>
        <time>2026-03-27T13:34:01Z</time>
      </trkpt>
      <trkpt lat="43.49093" lon="6.5758">
        <ele>40.9</ele>
        <time>2026-03-27T13:34:02Z</time>
      </trkpt>
      <trkpt lat="43.49093" lon="6.57581">
        <ele>40.8</ele>
        <time>2026-03-27T13:34:03Z</time>
      </trkpt>
      <trkpt lat="43.49093" lon="6.57581">
        <ele>40.8</ele>
        <time>2026-03-27T13:34:04Z</time>
      </trkpt>
      <trkpt lat="43.49092" lon="6.57581">
        <ele>40.8</ele>
        <time>2026-03-27T13:34:05Z</time>
      </trkpt>
      <trkpt lat="43.49092" lon="6.57581">
        <ele>40.8</ele>
        <time>2026-03-27T13:34:06Z</time>
      </trkpt>
      <trkpt lat="43.49092" lon="6.5758">
        <ele>40.8</ele>
        <time>2026-03-27T13:34:07Z</time>
      </trkpt>
      <trkpt lat="43.49092" lon="6.5758">
        <ele>40.9</ele>
        <time>2026-03-27T13:34:08Z</time>
      </trkpt>
      <trkpt lat="43.49092" lon="6.5758">
        <ele>40.9</ele>
        <time>2026-03-27T13:34:09Z</time>
      </trkpt>
      <trkpt lat="43.49092" lon="6.5758">
        <ele>41.1</ele>
        <time>2026-03-27T13:34:10Z</time>
      </trkpt>
      <trkpt lat="43.49092" lon="6.57579">
        <ele>41.1</ele>
        <time>2026-03-27T13:34:11Z</time>
      </trkpt>
      <trkpt lat="43.49092" lon="6.57579">
        <ele>41.2</ele>
        <time>2026-03-27T13:34:12Z</time>
      </trkpt>
      <trkpt lat="43.49092" lon="6.57578">
        <ele>41.2</ele>
        <time>2026-03-27T13:34:13Z</time>
      </trkpt>
      <trkpt lat="43.49092" lon="6.57579">
        <ele>41.2</ele>
        <time>2026-03-27T13:34:14Z</time>
      </trkpt>
      <trkpt lat="43.49092" lon="6.57579">
        <ele>41.1</ele>
        <time>2026-03-27T13:34:15Z</time>
      </trkpt>
      <trkpt lat="43.49091" lon="6.57579">
        <ele>41.1</ele>
        <time>2026-03-27T13:34:16Z</time>
      </trkpt>
      <trkpt lat="43.49091" lon="6.57579">
        <ele>41.1</ele>
        <time>2026-03-27T13:34:17Z</time>
      </trkpt>
      <trkpt lat="43.49091" lon="6.57579">
        <ele>41.2</ele>
        <time>2026-03-27T13:34:18Z</time>
      </trkpt>
      <trkpt lat="43.49091" lon="6.5758">
        <ele>41.1</ele>
        <time>2026-03-27T13:34:19Z</time>
      </trkpt>
      <trkpt lat="43.49091" lon="6.5758">
        <ele>41.2</ele>
        <time>2026-03-27T13:34:20Z</time>
      </trkpt>
      <trkpt lat="43.4909" lon="6.5758">
        <ele>41.3</ele>
        <time>2026-03-27T13:34:21Z</time>
      </trkpt>
      <trkpt lat="43.4909" lon="6.5758">
        <ele>41.3</ele>
        <time>2026-03-27T13:34:22Z</time>
      </trkpt>
      <trkpt lat="43.4909" lon="6.5758">
        <ele>41.3</ele>
        <time>2026-03-27T13:34:23Z</time>
      </trkpt>
      <trkpt lat="43.4909" lon="6.5758">
        <ele>41.4</ele>
        <time>2026-03-27T13:34:24Z</time>
      </trkpt>
      <trkpt lat="43.4909" lon="6.5758">
        <ele>41.5</ele>
        <time>2026-03-27T13:34:25Z</time>
      </trkpt>
      <trkpt lat="43.4909" lon="6.5758">
        <ele>41.5</ele>
        <time>2026-03-27T13:34:26Z</time>
      </trkpt>
      <trkpt lat="43.4909" lon="6.57581">
        <ele>41.6</ele>
        <time>2026-03-27T13:34:27Z</time>
      </trkpt>
      <trkpt lat="43.4909" lon="6.57581">
        <ele>41.6</ele>
        <time>2026-03-27T13:34:28Z</time>
      </trkpt>
      <trkpt lat="43.49089" lon="6.57582">
        <ele>41.6</ele>
        <time>2026-03-27T13:34:29Z</time>
      </trkpt>
      <trkpt lat="43.49089" lon="6.57582">
        <ele>41.6</ele>
        <time>2026-03-27T13:34:30Z</time>
      </trkpt>
      <trkpt lat="43.49089" lon="6.57582">
        <ele>41.7</ele>
        <time>2026-03-27T13:34:31Z</time>
      </trkpt>
      <trkpt lat="43.49089" lon="6.57582">
        <ele>41.7</ele>
        <time>2026-03-27T13:34:32Z</time>
      </trkpt>
      <trkpt lat="43.49089" lon="6.57582">
        <ele>41.7</ele>
        <time>2026-03-27T13:34:33Z</time>
      </trkpt>
      <trkpt lat="43.49089" lon="6.57582">
        <ele>41.7</ele>
        <time>2026-03-27T13:34:34Z</time>
      </trkpt>
      <trkpt lat="43.49089" lon="6.57582">
        <ele>41.8</ele>
        <time>2026-03-27T13:34:35Z</time>
      </trkpt>
      <trkpt lat="43.49089" lon="6.57582">
        <ele>41.8</ele>
        <time>2026-03-27T13:34:36Z</time>
      </trkpt>
      <trkpt lat="43.49089" lon="6.57583">
        <ele>41.8</ele>
        <time>2026-03-27T13:34:37Z</time>
      </trkpt>
      <trkpt lat="43.49089" lon="6.57583">
        <ele>41.8</ele>
        <time>2026-03-27T13:34:38Z</time>
      </trkpt>
      <trkpt lat="43.49089" lon="6.57583">
        <ele>41.8</ele>
        <time>2026-03-27T13:34:39Z</time>
      </trkpt>
      <trkpt lat="43.49089" lon="6.57584">
        <ele>41.8</ele>
        <time>2026-03-27T13:34:40Z</time>
      </trkpt>
      <trkpt lat="43.49088" lon="6.57584">
        <ele>41.8</ele>
        <time>2026-03-27T13:34:41Z</time>
      </trkpt>
      <trkpt lat="43.49088" lon="6.57584">
        <ele>41.7</ele>
        <time>2026-03-27T13:34:42Z</time>
      </trkpt>
      <trkpt lat="43.49088" lon="6.57584">
        <ele>41.7</ele>
        <time>2026-03-27T13:34:43Z</time>
      </trkpt>
      <trkpt lat="43.49088" lon="6.57584">
        <ele>41.7</ele>
        <time>2026-03-27T13:34:44Z</time>
      </trkpt>
      <trkpt lat="43.49088" lon="6.57585">
        <ele>41.7</ele>
        <time>2026-03-27T13:34:45Z</time>
      </trkpt>
      <trkpt lat="43.49088" lon="6.57585">
        <ele>41.7</ele>
        <time>2026-03-27T13:34:46Z</time>
      </trkpt>
      <trkpt lat="43.49088" lon="6.57586">
        <ele>41.8</ele>
        <time>2026-03-27T13:34:47Z</time>
      </trkpt>
      <trkpt lat="43.49088" lon="6.57585">
        <ele>41.7</ele>
        <time>2026-03-27T13:34:48Z</time>
      </trkpt>
      <trkpt lat="43.49088" lon="6.57586">
        <ele>41.7</ele>
        <time>2026-03-27T13:34:49Z</time>
      </trkpt>
      <trkpt lat="43.49088" lon="6.57586">
        <ele>41.7</ele>
        <time>2026-03-27T13:34:50Z</time>
      </trkpt>
      <trkpt lat="43.49088" lon="6.57586">
        <ele>41.7</ele>
        <time>2026-03-27T13:34:51Z</time>
      </trkpt>
      <trkpt lat="43.49088" lon="6.57586">
        <ele>41.8</ele>
        <time>2026-03-27T13:34:52Z</time>
      </trkpt>
      <trkpt lat="43.49088" lon="6.57586">
        <ele>41.8</ele>
        <time>2026-03-27T13:34:53Z</time>
      </trkpt>
      <trkpt lat="43.49088" lon="6.57586">
        <ele>41.8</ele>
        <time>2026-03-27T13:34:54Z</time>
      </trkpt>
      <trkpt lat="43.49088" lon="6.57586">
        <ele>41.8</ele>
        <time>2026-03-27T13:34:55Z</time>
      </trkpt>
      <trkpt lat="43.49088" lon="6.57586">
        <ele>41.8</ele>
        <time>2026-03-27T13:34:56Z</time>
      </trkpt>
      <trkpt lat="43.49088" lon="6.57586">
        <ele>41.8</ele>
        <time>2026-03-27T13:34:57Z</time>
      </trkpt>
      <trkpt lat="43.49088" lon="6.57586">
        <ele>41.8</ele>
        <time>2026-03-27T13:34:58Z</time>
      </trkpt>
      <trkpt lat="43.49089" lon="6.57586">
        <ele>41.8</ele>
        <time>2026-03-27T13:34:59Z</time>
      </trkpt>
      <trkpt lat="43.49089" lon="6.57585">
        <ele>41.8</ele>
        <time>2026-03-27T13:35:00Z</time>
      </trkpt>
      <trkpt lat="43.49089" lon="6.57585">
        <ele>41.9</ele>
        <time>2026-03-27T13:35:01Z</time>
      </trkpt>
      <trkpt lat="43.49088" lon="6.57585">
        <ele>41.9</ele>
        <time>2026-03-27T13:35:02Z</time>
      </trkpt>
      <trkpt lat="43.49088" lon="6.57585">
        <ele>41.9</ele>
        <time>2026-03-27T13:35:03Z</time>
      </trkpt>
      <trkpt lat="43.49088" lon="6.57586">
        <ele>41.9</ele>
        <time>2026-03-27T13:35:04Z</time>
      </trkpt>
      <trkpt lat="43.49088" lon="6.57585">
        <ele>41.9</ele>
        <time>2026-03-27T13:35:05Z</time>
      </trkpt>
      <trkpt lat="43.49088" lon="6.57585">
        <ele>41.9</ele>
        <time>2026-03-27T13:35:06Z</time>
      </trkpt>
      <trkpt lat="43.49088" lon="6.57585">
        <ele>41.9</ele>
        <time>2026-03-27T13:35:07Z</time>
      </trkpt>
      <trkpt lat="43.49088" lon="6.57585">
        <ele>41.9</ele>
        <time>2026-03-27T13:35:08Z</time>
      </trkpt>
      <trkpt lat="43.49088" lon="6.57585">
        <ele>41.9</ele>
        <time>2026-03-27T13:35:09Z</time>
      </trkpt>
      <trkpt lat="43.49088" lon="6.57585">
        <ele>41.8</ele>
        <time>2026-03-27T13:35:10Z</time>
      </trkpt>
      <trkpt lat="43.49088" lon="6.57584">
        <ele>41.8</ele>
        <time>2026-03-27T13:35:11Z</time>
      </trkpt>
      <trkpt lat="43.49088" lon="6.57584">
        <ele>41.7</ele>
        <time>2026-03-27T13:35:12Z</time>
      </trkpt>
      <trkpt lat="43.49088" lon="6.57584">
        <ele>41.7</ele>
        <time>2026-03-27T13:35:13Z</time>
      </trkpt>
      <trkpt lat="43.49088" lon="6.57585">
        <ele>41.7</ele>
        <time>2026-03-27T13:35:14Z</time>
      </trkpt>
      <trkpt lat="43.49088" lon="6.57585">
        <ele>41.6</ele>
        <time>2026-03-27T13:35:15Z</time>
      </trkpt>
      <trkpt lat="43.49088" lon="6.57585">
        <ele>41.6</ele>
        <time>2026-03-27T13:35:16Z</time>
      </trkpt>
      <trkpt lat="43.49087" lon="6.57585">
        <ele>41.6</ele>
        <time>2026-03-27T13:35:17Z</time>
      </trkpt>
      <trkpt lat="43.49087" lon="6.57585">
        <ele>41.6</ele>
        <time>2026-03-27T13:35:18Z</time>
      </trkpt>
      <trkpt lat="43.49087" lon="6.57585">
        <ele>41.6</ele>
        <time>2026-03-27T13:35:19Z</time>
      </trkpt>
      <trkpt lat="43.49087" lon="6.57585">
        <ele>41.6</ele>
        <time>2026-03-27T13:35:20Z</time>
      </trkpt>
      <trkpt lat="43.49087" lon="6.57585">
        <ele>41.6</ele>
        <time>2026-03-27T13:35:21Z</time>
      </trkpt>
      <trkpt lat="43.49087" lon="6.57585">
        <ele>41.6</ele>
        <time>2026-03-27T13:35:22Z</time>
      </trkpt>
      <trkpt lat="43.49087" lon="6.57585">
        <ele>41.6</ele>
        <time>2026-03-27T13:35:23Z</time>
      </trkpt>
      <trkpt lat="43.49087" lon="6.57585">
        <ele>41.6</ele>
        <time>2026-03-27T13:35:24Z</time>
      </trkpt>
      <trkpt lat="43.49087" lon="6.57585">
        <ele>41.6</ele>
        <time>2026-03-27T13:35:25Z</time>
      </trkpt>
      <trkpt lat="43.49087" lon="6.57586">
        <ele>41.5</ele>
        <time>2026-03-27T13:35:26Z</time>
      </trkpt>
      <trkpt lat="43.49087" lon="6.57586">
        <ele>41.5</ele>
        <time>2026-03-27T13:35:27Z</time>
      </trkpt>
      <trkpt lat="43.49087" lon="6.57586">
        <ele>41.5</ele>
        <time>2026-03-27T13:35:28Z</time>
      </trkpt>
      <trkpt lat="43.49087" lon="6.57586">
        <ele>41.5</ele>
        <time>2026-03-27T13:35:29Z</time>
      </trkpt>
      <trkpt lat="43.49087" lon="6.57586">
        <ele>41.5</ele>
        <time>2026-03-27T13:35:30Z</time>
      </trkpt>
      <trkpt lat="43.49088" lon="6.57586">
        <ele>41.5</ele>
        <time>2026-03-27T13:35:31Z</time>
      </trkpt>
      <trkpt lat="43.49087" lon="6.57586">
        <ele>41.5</ele>
        <time>2026-03-27T13:35:32Z</time>
      </trkpt>
      <trkpt lat="43.49088" lon="6.57586">
        <ele>41.4</ele>
        <time>2026-03-27T13:35:33Z</time>
      </trkpt>
      <trkpt lat="43.49087" lon="6.57586">
        <ele>41.3</ele>
        <time>2026-03-27T13:35:34Z</time>
      </trkpt>
      <trkpt lat="43.49087" lon="6.57585">
        <ele>41.3</ele>
        <time>2026-03-27T13:35:35Z</time>
      </trkpt>
      <trkpt lat="43.49087" lon="6.57586">
        <ele>41.3</ele>
        <time>2026-03-27T13:35:36Z</time>
      </trkpt>
      <trkpt lat="43.49087" lon="6.57585">
        <ele>41.3</ele>
        <time>2026-03-27T13:35:37Z</time>
      </trkpt>
      <trkpt lat="43.49087" lon="6.57586">
        <ele>41.3</ele>
        <time>2026-03-27T13:35:38Z</time>
      </trkpt>
      <trkpt lat="43.49087" lon="6.57585">
        <ele>41.3</ele>
        <time>2026-03-27T13:35:39Z</time>
      </trkpt>
      <trkpt lat="43.49087" lon="6.57585">
        <ele>41.3</ele>
        <time>2026-03-27T13:35:40Z</time>
      </trkpt>
      <trkpt lat="43.49087" lon="6.57585">
        <ele>41.2</ele>
        <time>2026-03-27T13:35:41Z</time>
      </trkpt>
      <trkpt lat="43.49087" lon="6.57585">
        <ele>41.3</ele>
        <time>2026-03-27T13:35:42Z</time>
      </trkpt>
      <trkpt lat="43.49087" lon="6.57585">
        <ele>41.3</ele>
        <time>2026-03-27T13:35:43Z</time>
      </trkpt>
      <trkpt lat="43.49087" lon="6.57585">
        <ele>41.5</ele>
        <time>2026-03-27T13:35:44Z</time>
      </trkpt>
      <trkpt lat="43.49087" lon="6.57585">
        <ele>41.6</ele>
        <time>2026-03-27T13:35:45Z</time>
      </trkpt>
      <trkpt lat="43.49087" lon="6.57585">
        <ele>41.6</ele>
        <time>2026-03-27T13:35:46Z</time>
      </trkpt>
      <trkpt lat="43.49087" lon="6.57585">
        <ele>41.7</ele>
        <time>2026-03-27T13:35:47Z</time>
      </trkpt>
      <trkpt lat="43.49087" lon="6.57585">
        <ele>41.7</ele>
        <time>2026-03-27T13:35:48Z</time>
      </trkpt>
      <trkpt lat="43.49087" lon="6.57585">
        <ele>41.7</ele>
        <time>2026-03-27T13:35:49Z</time>
      </trkpt>
      <trkpt lat="43.49087" lon="6.57585">
        <ele>41.8</ele>
        <time>2026-03-27T13:35:50Z</time>
      </trkpt>
      <trkpt lat="43.49087" lon="6.57585">
        <ele>41.8</ele>
        <time>2026-03-27T13:35:51Z</time>
      </trkpt>
      <trkpt lat="43.49087" lon="6.57585">
        <ele>41.9</ele>
        <time>2026-03-27T13:35:52Z</time>
      </trkpt>
      <trkpt lat="43.49087" lon="6.57585">
        <ele>41.9</ele>
        <time>2026-03-27T13:35:53Z</time>
      </trkpt>
      <trkpt lat="43.49087" lon="6.57585">
        <ele>41.9</ele>
        <time>2026-03-27T13:35:54Z</time>
      </trkpt>
      <trkpt lat="43.49087" lon="6.57585">
        <ele>41.8</ele>
        <time>2026-03-27T13:35:55Z</time>
      </trkpt>
      <trkpt lat="43.49087" lon="6.57585">
        <ele>41.7</ele>
        <time>2026-03-27T13:35:56Z</time>
      </trkpt>
      <trkpt lat="43.49087" lon="6.57584">
        <ele>41.6</ele>
        <time>2026-03-27T13:35:57Z</time>
      </trkpt>
      <trkpt lat="43.49087" lon="6.57584">
        <ele>41.6</ele>
        <time>2026-03-27T13:35:58Z</time>
      </trkpt>
      <trkpt lat="43.49087" lon="6.57584">
        <ele>41.5</ele>
        <time>2026-03-27T13:35:59Z</time>
      </trkpt>
      <trkpt lat="43.49087" lon="6.57584">
        <ele>41.5</ele>
        <time>2026-03-27T13:36:00Z</time>
      </trkpt>
      <trkpt lat="43.49087" lon="6.57584">
        <ele>41.4</ele>
        <time>2026-03-27T13:36:01Z</time>
      </trkpt>
      <trkpt lat="43.49087" lon="6.57584">
        <ele>41.5</ele>
        <time>2026-03-27T13:36:02Z</time>
      </trkpt>
      <trkpt lat="43.49088" lon="6.57584">
        <ele>41.4</ele>
        <time>2026-03-27T13:36:03Z</time>
      </trkpt>
      <trkpt lat="43.49088" lon="6.57584">
        <ele>41.4</ele>
        <time>2026-03-27T13:36:04Z</time>
      </trkpt>
      <trkpt lat="43.49088" lon="6.57584">
        <ele>41.4</ele>
        <time>2026-03-27T13:36:05Z</time>
      </trkpt>
      <trkpt lat="43.49088" lon="6.57584">
        <ele>41.4</ele>
        <time>2026-03-27T13:36:06Z</time>
      </trkpt>
      <trkpt lat="43.49088" lon="6.57584">
        <ele>41.4</ele>
        <time>2026-03-27T13:36:07Z</time>
      </trkpt>
      <trkpt lat="43.49088" lon="6.57584">
        <ele>41.4</ele>
        <time>2026-03-27T13:36:08Z</time>
      </trkpt>
      <trkpt lat="43.49088" lon="6.57585">
        <ele>41.4</ele>
        <time>2026-03-27T13:36:09Z</time>
      </trkpt>
      <trkpt lat="43.49088" lon="6.57585">
        <ele>41.4</ele>
        <time>2026-03-27T13:36:10Z</time>
      </trkpt>
      <trkpt lat="43.49087" lon="6.57585">
        <ele>41.4</ele>
        <time>2026-03-27T13:36:11Z</time>
      </trkpt>
      <trkpt lat="43.49087" lon="6.57585">
        <ele>41.4</ele>
        <time>2026-03-27T13:36:12Z</time>
      </trkpt>
      <trkpt lat="43.49087" lon="6.57585">
        <ele>41.5</ele>
        <time>2026-03-27T13:36:13Z</time>
      </trkpt>
      <trkpt lat="43.49087" lon="6.57585">
        <ele>41.5</ele>
        <time>2026-03-27T13:36:14Z</time>
      </trkpt>
      <trkpt lat="43.49087" lon="6.57585">
        <ele>41.6</ele>
        <time>2026-03-27T13:36:15Z</time>
      </trkpt>
      <trkpt lat="43.49087" lon="6.57585">
        <ele>41.6</ele>
        <time>2026-03-27T13:36:16Z</time>
      </trkpt>
      <trkpt lat="43.49088" lon="6.57585">
        <ele>41.6</ele>
        <time>2026-03-27T13:36:17Z</time>
      </trkpt>
      <trkpt lat="43.49088" lon="6.57585">
        <ele>41.5</ele>
        <time>2026-03-27T13:36:18Z</time>
      </trkpt>
      <trkpt lat="43.49087" lon="6.57586">
        <ele>41.4</ele>
        <time>2026-03-27T13:36:19Z</time>
      </trkpt>
      <trkpt lat="43.49087" lon="6.57586">
        <ele>41.4</ele>
        <time>2026-03-27T13:36:20Z</time>
      </trkpt>
      <trkpt lat="43.49087" lon="6.57586">
        <ele>41.4</ele>
        <time>2026-03-27T13:36:21Z</time>
      </trkpt>
      <trkpt lat="43.49087" lon="6.57586">
        <ele>41.4</ele>
        <time>2026-03-27T13:36:22Z</time>
      </trkpt>
      <trkpt lat="43.49087" lon="6.57586">
        <ele>41.4</ele>
        <time>2026-03-27T13:36:23Z</time>
      </trkpt>
      <trkpt lat="43.49087" lon="6.57587">
        <ele>41.2</ele>
        <time>2026-03-27T13:36:24Z</time>
      </trkpt>
      <trkpt lat="43.49087" lon="6.57587">
        <ele>41.3</ele>
        <time>2026-03-27T13:36:25Z</time>
      </trkpt>
      <trkpt lat="43.49087" lon="6.57587">
        <ele>41.3</ele>
        <time>2026-03-27T13:36:26Z</time>
      </trkpt>
      <trkpt lat="43.49087" lon="6.57587">
        <ele>41.4</ele>
        <time>2026-03-27T13:36:27Z</time>
      </trkpt>
      <trkpt lat="43.49087" lon="6.57587">
        <ele>41.5</ele>
        <time>2026-03-27T13:36:28Z</time>
      </trkpt>
      <trkpt lat="43.49087" lon="6.57587">
        <ele>41.5</ele>
        <time>2026-03-27T13:36:29Z</time>
      </trkpt>
      <trkpt lat="43.49087" lon="6.57587">
        <ele>41.5</ele>
        <time>2026-03-27T13:36:30Z</time>
      </trkpt>
      <trkpt lat="43.49087" lon="6.57587">
        <ele>41.6</ele>
        <time>2026-03-27T13:36:31Z</time>
      </trkpt>
      <trkpt lat="43.49087" lon="6.57587">
        <ele>41.6</ele>
        <time>2026-03-27T13:36:32Z</time>
      </trkpt>
      <trkpt lat="43.49087" lon="6.57587">
        <ele>41.7</ele>
        <time>2026-03-27T13:36:33Z</time>
      </trkpt>
      <trkpt lat="43.49087" lon="6.57586">
        <ele>41.8</ele>
        <time>2026-03-27T13:36:34Z</time>
      </trkpt>
      <trkpt lat="43.49088" lon="6.57586">
        <ele>41.9</ele>
        <time>2026-03-27T13:36:35Z</time>
      </trkpt>
      <trkpt lat="43.49088" lon="6.57585">
        <ele>42</ele>
        <time>2026-03-27T13:36:36Z</time>
      </trkpt>
      <trkpt lat="43.49088" lon="6.57584">
        <ele>41.9</ele>
        <time>2026-03-27T13:36:37Z</time>
      </trkpt>
      <trkpt lat="43.49088" lon="6.57583">
        <ele>41.9</ele>
        <time>2026-03-27T13:36:38Z</time>
      </trkpt>
      <trkpt lat="43.49088" lon="6.57583">
        <ele>41.9</ele>
        <time>2026-03-27T13:36:39Z</time>
      </trkpt>
      <trkpt lat="43.49089" lon="6.57582">
        <ele>41.9</ele>
        <time>2026-03-27T13:36:40Z</time>
      </trkpt>
      <trkpt lat="43.49088" lon="6.57582">
        <ele>41.9</ele>
        <time>2026-03-27T13:36:41Z</time>
      </trkpt>
      <trkpt lat="43.49088" lon="6.57582">
        <ele>42</ele>
        <time>2026-03-27T13:36:42Z</time>
      </trkpt>
      <trkpt lat="43.49088" lon="6.57581">
        <ele>42</ele>
        <time>2026-03-27T13:36:43Z</time>
      </trkpt>
      <trkpt lat="43.49088" lon="6.57581">
        <ele>42</ele>
        <time>2026-03-27T13:36:44Z</time>
      </trkpt>
      <trkpt lat="43.49088" lon="6.57581">
        <ele>42</ele>
        <time>2026-03-27T13:36:45Z</time>
      </trkpt>
      <trkpt lat="43.49088" lon="6.57581">
        <ele>42</ele>
        <time>2026-03-27T13:36:46Z</time>
      </trkpt>
      <trkpt lat="43.49088" lon="6.5758">
        <ele>42.1</ele>
        <time>2026-03-27T13:36:47Z</time>
      </trkpt>
      <trkpt lat="43.49088" lon="6.5758">
        <ele>42.2</ele>
        <time>2026-03-27T13:36:48Z</time>
      </trkpt>
      <trkpt lat="43.49088" lon="6.5758">
        <ele>42.2</ele>
        <time>2026-03-27T13:36:49Z</time>
      </trkpt>
      <trkpt lat="43.49088" lon="6.5758">
        <ele>42.2</ele>
        <time>2026-03-27T13:36:50Z</time>
      </trkpt>
      <trkpt lat="43.49088" lon="6.57579">
        <ele>42.2</ele>
        <time>2026-03-27T13:36:51Z</time>
      </trkpt>
      <trkpt lat="43.49088" lon="6.57579">
        <ele>42.2</ele>
        <time>2026-03-27T13:36:52Z</time>
      </trkpt>
      <trkpt lat="43.49088" lon="6.57579">
        <ele>42.2</ele>
        <time>2026-03-27T13:36:53Z</time>
      </trkpt>
      <trkpt lat="43.49088" lon="6.57579">
        <ele>42.3</ele>
        <time>2026-03-27T13:36:54Z</time>
      </trkpt>
      <trkpt lat="43.49088" lon="6.57578">
        <ele>42.3</ele>
        <time>2026-03-27T13:36:55Z</time>
      </trkpt>
      <trkpt lat="43.49088" lon="6.57578">
        <ele>42.3</ele>
        <time>2026-03-27T13:36:56Z</time>
      </trkpt>
      <trkpt lat="43.49089" lon="6.57578">
        <ele>42.3</ele>
        <time>2026-03-27T13:36:57Z</time>
      </trkpt>
      <trkpt lat="43.49089" lon="6.57578">
        <ele>42.2</ele>
        <time>2026-03-27T13:36:58Z</time>
      </trkpt>
      <trkpt lat="43.49089" lon="6.57578">
        <ele>42.2</ele>
        <time>2026-03-27T13:36:59Z</time>
      </trkpt>
      <trkpt lat="43.49089" lon="6.57577">
        <ele>42.1</ele>
        <time>2026-03-27T13:37:00Z</time>
      </trkpt>
      <trkpt lat="43.49089" lon="6.57577">
        <ele>42.1</ele>
        <time>2026-03-27T13:37:01Z</time>
      </trkpt>
      <trkpt lat="43.49089" lon="6.57577">
        <ele>42.1</ele>
        <time>2026-03-27T13:37:02Z</time>
      </trkpt>
      <trkpt lat="43.49089" lon="6.57576">
        <ele>42.1</ele>
        <time>2026-03-27T13:37:03Z</time>
      </trkpt>
      <trkpt lat="43.49089" lon="6.57576">
        <ele>42.1</ele>
        <time>2026-03-27T13:37:04Z</time>
      </trkpt>
      <trkpt lat="43.49089" lon="6.57575">
        <ele>42.1</ele>
        <time>2026-03-27T13:37:05Z</time>
      </trkpt>
      <trkpt lat="43.4909" lon="6.57575">
        <ele>42.2</ele>
        <time>2026-03-27T13:37:06Z</time>
      </trkpt>
      <trkpt lat="43.4909" lon="6.57575">
        <ele>42.2</ele>
        <time>2026-03-27T13:37:07Z</time>
      </trkpt>
      <trkpt lat="43.4909" lon="6.57574">
        <ele>42.2</ele>
        <time>2026-03-27T13:37:08Z</time>
      </trkpt>
      <trkpt lat="43.4909" lon="6.57574">
        <ele>42.2</ele>
        <time>2026-03-27T13:37:09Z</time>
      </trkpt>
      <trkpt lat="43.4909" lon="6.57574">
        <ele>42.3</ele>
        <time>2026-03-27T13:37:10Z</time>
      </trkpt>
      <trkpt lat="43.4909" lon="6.57573">
        <ele>42.3</ele>
        <time>2026-03-27T13:37:11Z</time>
      </trkpt>
      <trkpt lat="43.4909" lon="6.57573">
        <ele>42.4</ele>
        <time>2026-03-27T13:37:12Z</time>
      </trkpt>
      <trkpt lat="43.4909" lon="6.57573">
        <ele>42.3</ele>
        <time>2026-03-27T13:37:13Z</time>
      </trkpt>
      <trkpt lat="43.4909" lon="6.57573">
        <ele>42.4</ele>
        <time>2026-03-27T13:37:14Z</time>
      </trkpt>
      <trkpt lat="43.4909" lon="6.57573">
        <ele>42.4</ele>
        <time>2026-03-27T13:37:15Z</time>
      </trkpt>
      <trkpt lat="43.4909" lon="6.57573">
        <ele>42.4</ele>
        <time>2026-03-27T13:37:16Z</time>
      </trkpt>
      <trkpt lat="43.4909" lon="6.57573">
        <ele>42.5</ele>
        <time>2026-03-27T13:37:17Z</time>
      </trkpt>
      <trkpt lat="43.4909" lon="6.57573">
        <ele>42.5</ele>
        <time>2026-03-27T13:37:18Z</time>
      </trkpt>
      <trkpt lat="43.4909" lon="6.57572">
        <ele>42.4</ele>
        <time>2026-03-27T13:37:19Z</time>
      </trkpt>
      <trkpt lat="43.4909" lon="6.57572">
        <ele>42.4</ele>
        <time>2026-03-27T13:37:20Z</time>
      </trkpt>
      <trkpt lat="43.4909" lon="6.57572">
        <ele>42.4</ele>
        <time>2026-03-27T13:37:21Z</time>
      </trkpt>
      <trkpt lat="43.4909" lon="6.57572">
        <ele>42.4</ele>
        <time>2026-03-27T13:37:22Z</time>
      </trkpt>
      <trkpt lat="43.4909" lon="6.57572">
        <ele>42.4</ele>
        <time>2026-03-27T13:37:23Z</time>
      </trkpt>
      <trkpt lat="43.4909" lon="6.57572">
        <ele>42.4</ele>
        <time>2026-03-27T13:37:24Z</time>
      </trkpt>
      <trkpt lat="43.4909" lon="6.57572">
        <ele>42.3</ele>
        <time>2026-03-27T13:37:25Z</time>
      </trkpt>
      <trkpt lat="43.4909" lon="6.57572">
        <ele>42.4</ele>
        <time>2026-03-27T13:37:26Z</time>
      </trkpt>
      <trkpt lat="43.4909" lon="6.57571">
        <ele>42.4</ele>
        <time>2026-03-27T13:37:27Z</time>
      </trkpt>
      <trkpt lat="43.4909" lon="6.57571">
        <ele>42.3</ele>
        <time>2026-03-27T13:37:28Z</time>
      </trkpt>
      <trkpt lat="43.4909" lon="6.57571">
        <ele>42.3</ele>
        <time>2026-03-27T13:37:29Z</time>
      </trkpt>
      <trkpt lat="43.4909" lon="6.57571">
        <ele>42.2</ele>
        <time>2026-03-27T13:37:30Z</time>
      </trkpt>
      <trkpt lat="43.4909" lon="6.57571">
        <ele>42.1</ele>
        <time>2026-03-27T13:37:31Z</time>
      </trkpt>
      <trkpt lat="43.49091" lon="6.57571">
        <ele>42.1</ele>
        <time>2026-03-27T13:37:32Z</time>
      </trkpt>
      <trkpt lat="43.4909" lon="6.57571">
        <ele>42</ele>
        <time>2026-03-27T13:37:33Z</time>
      </trkpt>
      <trkpt lat="43.4909" lon="6.57571">
        <ele>41.9</ele>
        <time>2026-03-27T13:37:34Z</time>
      </trkpt>
      <trkpt lat="43.49091" lon="6.57571">
        <ele>41.9</ele>
        <time>2026-03-27T13:37:35Z</time>
      </trkpt>
      <trkpt lat="43.49091" lon="6.57571">
        <ele>41.9</ele>
        <time>2026-03-27T13:37:36Z</time>
      </trkpt>
      <trkpt lat="43.49091" lon="6.57571">
        <ele>42</ele>
        <time>2026-03-27T13:37:37Z</time>
      </trkpt>
      <trkpt lat="43.49091" lon="6.57571">
        <ele>42</ele>
        <time>2026-03-27T13:37:38Z</time>
      </trkpt>
      <trkpt lat="43.49091" lon="6.5757">
        <ele>42</ele>
        <time>2026-03-27T13:37:39Z</time>
      </trkpt>
      <trkpt lat="43.49091" lon="6.5757">
        <ele>42</ele>
        <time>2026-03-27T13:37:40Z</time>
      </trkpt>
      <trkpt lat="43.49091" lon="6.5757">
        <ele>42.1</ele>
        <time>2026-03-27T13:37:41Z</time>
      </trkpt>
      <trkpt lat="43.49091" lon="6.5757">
        <ele>42</ele>
        <time>2026-03-27T13:37:42Z</time>
      </trkpt>
      <trkpt lat="43.49091" lon="6.57569">
        <ele>42</ele>
        <time>2026-03-27T13:37:43Z</time>
      </trkpt>
      <trkpt lat="43.49091" lon="6.57569">
        <ele>42</ele>
        <time>2026-03-27T13:37:44Z</time>
      </trkpt>
      <trkpt lat="43.49091" lon="6.57569">
        <ele>42</ele>
        <time>2026-03-27T13:37:45Z</time>
      </trkpt>
      <trkpt lat="43.49091" lon="6.57568">
        <ele>41.9</ele>
        <time>2026-03-27T13:37:46Z</time>
      </trkpt>
      <trkpt lat="43.49091" lon="6.57568">
        <ele>42</ele>
        <time>2026-03-27T13:37:47Z</time>
      </trkpt>
      <trkpt lat="43.49092" lon="6.57568">
        <ele>42</ele>
        <time>2026-03-27T13:37:48Z</time>
      </trkpt>
      <trkpt lat="43.49092" lon="6.57568">
        <ele>42.1</ele>
        <time>2026-03-27T13:37:49Z</time>
      </trkpt>
      <trkpt lat="43.49092" lon="6.57568">
        <ele>42.2</ele>
        <time>2026-03-27T13:37:50Z</time>
      </trkpt>
      <trkpt lat="43.49091" lon="6.57567">
        <ele>42.3</ele>
        <time>2026-03-27T13:37:51Z</time>
      </trkpt>
      <trkpt lat="43.49091" lon="6.57567">
        <ele>42.3</ele>
        <time>2026-03-27T13:37:52Z</time>
      </trkpt>
      <trkpt lat="43.49092" lon="6.57567">
        <ele>42.3</ele>
        <time>2026-03-27T13:37:53Z</time>
      </trkpt>
      <trkpt lat="43.49092" lon="6.57567">
        <ele>42.3</ele>
        <time>2026-03-27T13:37:54Z</time>
      </trkpt>
      <trkpt lat="43.49091" lon="6.57567">
        <ele>42.3</ele>
        <time>2026-03-27T13:37:55Z</time>
      </trkpt>
      <trkpt lat="43.49091" lon="6.57566">
        <ele>42.3</ele>
        <time>2026-03-27T13:37:56Z</time>
      </trkpt>
      <trkpt lat="43.49091" lon="6.57566">
        <ele>42.3</ele>
        <time>2026-03-27T13:37:57Z</time>
      </trkpt>
      <trkpt lat="43.49092" lon="6.57566">
        <ele>42.3</ele>
        <time>2026-03-27T13:37:58Z</time>
      </trkpt>
      <trkpt lat="43.49092" lon="6.57566">
        <ele>42.3</ele>
        <time>2026-03-27T13:37:59Z</time>
      </trkpt>
      <trkpt lat="43.49092" lon="6.57566">
        <ele>42.3</ele>
        <time>2026-03-27T13:38:00Z</time>
      </trkpt>
      <trkpt lat="43.49092" lon="6.57566">
        <ele>42.4</ele>
        <time>2026-03-27T13:38:01Z</time>
      </trkpt>
      <trkpt lat="43.49092" lon="6.57565">
        <ele>42.4</ele>
        <time>2026-03-27T13:38:02Z</time>
      </trkpt>
      <trkpt lat="43.49092" lon="6.57565">
        <ele>42.3</ele>
        <time>2026-03-27T13:38:03Z</time>
      </trkpt>
      <trkpt lat="43.49092" lon="6.57565">
        <ele>42.3</ele>
        <time>2026-03-27T13:38:04Z</time>
      </trkpt>
      <trkpt lat="43.49092" lon="6.57564">
        <ele>42.3</ele>
        <time>2026-03-27T13:38:05Z</time>
      </trkpt>
      <trkpt lat="43.49092" lon="6.57563">
        <ele>42.4</ele>
        <time>2026-03-27T13:38:06Z</time>
      </trkpt>
      <trkpt lat="43.49092" lon="6.57563">
        <ele>42.5</ele>
        <time>2026-03-27T13:38:07Z</time>
      </trkpt>
      <trkpt lat="43.49092" lon="6.57562">
        <ele>42.6</ele>
        <time>2026-03-27T13:38:08Z</time>
      </trkpt>
      <trkpt lat="43.49092" lon="6.57561">
        <ele>42.7</ele>
        <time>2026-03-27T13:38:09Z</time>
      </trkpt>
      <trkpt lat="43.49092" lon="6.57561">
        <ele>42.8</ele>
        <time>2026-03-27T13:38:10Z</time>
      </trkpt>
      <trkpt lat="43.49092" lon="6.5756">
        <ele>42.9</ele>
        <time>2026-03-27T13:38:11Z</time>
      </trkpt>
      <trkpt lat="43.49092" lon="6.57559">
        <ele>43</ele>
        <time>2026-03-27T13:38:12Z</time>
      </trkpt>
      <trkpt lat="43.49092" lon="6.57559">
        <ele>43.1</ele>
        <time>2026-03-27T13:38:13Z</time>
      </trkpt>
      <trkpt lat="43.49092" lon="6.57558">
        <ele>43.2</ele>
        <time>2026-03-27T13:38:14Z</time>
      </trkpt>
      <trkpt lat="43.49092" lon="6.57558">
        <ele>43.3</ele>
        <time>2026-03-27T13:38:15Z</time>
      </trkpt>
      <trkpt lat="43.49092" lon="6.57557">
        <ele>43.4</ele>
        <time>2026-03-27T13:38:16Z</time>
      </trkpt>
      <trkpt lat="43.49092" lon="6.57557">
        <ele>43.5</ele>
        <time>2026-03-27T13:38:17Z</time>
      </trkpt>
      <trkpt lat="43.49092" lon="6.57556">
        <ele>43.6</ele>
        <time>2026-03-27T13:38:18Z</time>
      </trkpt>
      <trkpt lat="43.49092" lon="6.57555">
        <ele>43.7</ele>
        <time>2026-03-27T13:38:19Z</time>
      </trkpt>
      <trkpt lat="43.49091" lon="6.57555">
        <ele>43.7</ele>
        <time>2026-03-27T13:38:20Z</time>
      </trkpt>
      <trkpt lat="43.49091" lon="6.57554">
        <ele>43.8</ele>
        <time>2026-03-27T13:38:21Z</time>
      </trkpt>
      <trkpt lat="43.49091" lon="6.57554">
        <ele>43.8</ele>
        <time>2026-03-27T13:38:22Z</time>
      </trkpt>
      <trkpt lat="43.49091" lon="6.57554">
        <ele>43.8</ele>
        <time>2026-03-27T13:38:23Z</time>
      </trkpt>
      <trkpt lat="43.4909" lon="6.57553">
        <ele>43.8</ele>
        <time>2026-03-27T13:38:24Z</time>
      </trkpt>
      <trkpt lat="43.4909" lon="6.57553">
        <ele>43.8</ele>
        <time>2026-03-27T13:38:25Z</time>
      </trkpt>
      <trkpt lat="43.4909" lon="6.57552">
        <ele>43.8</ele>
        <time>2026-03-27T13:38:26Z</time>
      </trkpt>
      <trkpt lat="43.4909" lon="6.57552">
        <ele>43.9</ele>
        <time>2026-03-27T13:38:27Z</time>
      </trkpt>
      <trkpt lat="43.4909" lon="6.57551">
        <ele>43.8</ele>
        <time>2026-03-27T13:38:28Z</time>
      </trkpt>
      <trkpt lat="43.4909" lon="6.57551">
        <ele>43.9</ele>
        <time>2026-03-27T13:38:29Z</time>
      </trkpt>
      <trkpt lat="43.4909" lon="6.5755">
        <ele>43.9</ele>
        <time>2026-03-27T13:38:30Z</time>
      </trkpt>
      <trkpt lat="43.4909" lon="6.5755">
        <ele>44</ele>
        <time>2026-03-27T13:38:31Z</time>
      </trkpt>
      <trkpt lat="43.49089" lon="6.57549">
        <ele>44.1</ele>
        <time>2026-03-27T13:38:32Z</time>
      </trkpt>
      <trkpt lat="43.49089" lon="6.57547">
        <ele>44.2</ele>
        <time>2026-03-27T13:38:33Z</time>
      </trkpt>
      <trkpt lat="43.49088" lon="6.57546">
        <ele>44.1</ele>
        <time>2026-03-27T13:38:34Z</time>
      </trkpt>
      <trkpt lat="43.49088" lon="6.57546">
        <ele>44.1</ele>
        <time>2026-03-27T13:38:35Z</time>
      </trkpt>
      <trkpt lat="43.49088" lon="6.57545">
        <ele>44.1</ele>
        <time>2026-03-27T13:38:36Z</time>
      </trkpt>
      <trkpt lat="43.49088" lon="6.57545">
        <ele>44.1</ele>
        <time>2026-03-27T13:38:37Z</time>
      </trkpt>
      <trkpt lat="43.49088" lon="6.57545">
        <ele>44.1</ele>
        <time>2026-03-27T13:38:38Z</time>
      </trkpt>
      <trkpt lat="43.49088" lon="6.57545">
        <ele>44.1</ele>
        <time>2026-03-27T13:38:39Z</time>
      </trkpt>
      <trkpt lat="43.49088" lon="6.57545">
        <ele>44.1</ele>
        <time>2026-03-27T13:38:40Z</time>
      </trkpt>
      <trkpt lat="43.49087" lon="6.57545">
        <ele>44.2</ele>
        <time>2026-03-27T13:38:41Z</time>
      </trkpt>
      <trkpt lat="43.49087" lon="6.57545">
        <ele>44.2</ele>
        <time>2026-03-27T13:38:42Z</time>
      </trkpt>
      <trkpt lat="43.49087" lon="6.57545">
        <ele>44.2</ele>
        <time>2026-03-27T13:38:43Z</time>
      </trkpt>
      <trkpt lat="43.49087" lon="6.57544">
        <ele>44.3</ele>
        <time>2026-03-27T13:38:44Z</time>
      </trkpt>
      <trkpt lat="43.49087" lon="6.57544">
        <ele>44.3</ele>
        <time>2026-03-27T13:38:45Z</time>
      </trkpt>
      <trkpt lat="43.49087" lon="6.57544">
        <ele>44.3</ele>
        <time>2026-03-27T13:38:46Z</time>
      </trkpt>
      <trkpt lat="43.49087" lon="6.57544">
        <ele>44.2</ele>
        <time>2026-03-27T13:38:47Z</time>
      </trkpt>
      <trkpt lat="43.49087" lon="6.57544">
        <ele>44.2</ele>
        <time>2026-03-27T13:38:48Z</time>
      </trkpt>
      <trkpt lat="43.49087" lon="6.57544">
        <ele>44.1</ele>
        <time>2026-03-27T13:38:49Z</time>
      </trkpt>
      <trkpt lat="43.49087" lon="6.57543">
        <ele>44.1</ele>
        <time>2026-03-27T13:38:50Z</time>
      </trkpt>
      <trkpt lat="43.49087" lon="6.57543">
        <ele>44</ele>
        <time>2026-03-27T13:38:51Z</time>
      </trkpt>
      <trkpt lat="43.49087" lon="6.57543">
        <ele>44</ele>
        <time>2026-03-27T13:38:52Z</time>
      </trkpt>
      <trkpt lat="43.49087" lon="6.57543">
        <ele>44.1</ele>
        <time>2026-03-27T13:38:53Z</time>
      </trkpt>
      <trkpt lat="43.49087" lon="6.57543">
        <ele>44.1</ele>
        <time>2026-03-27T13:38:54Z</time>
      </trkpt>
      <trkpt lat="43.49087" lon="6.57543">
        <ele>44.1</ele>
        <time>2026-03-27T13:38:55Z</time>
      </trkpt>
      <trkpt lat="43.49087" lon="6.57543">
        <ele>44.1</ele>
        <time>2026-03-27T13:38:56Z</time>
      </trkpt>
      <trkpt lat="43.49087" lon="6.57543">
        <ele>44.2</ele>
        <time>2026-03-27T13:38:57Z</time>
      </trkpt>
      <trkpt lat="43.49087" lon="6.57543">
        <ele>44.2</ele>
        <time>2026-03-27T13:38:58Z</time>
      </trkpt>
      <trkpt lat="43.49087" lon="6.57542">
        <ele>44.2</ele>
        <time>2026-03-27T13:38:59Z</time>
      </trkpt>
      <trkpt lat="43.49087" lon="6.57542">
        <ele>44.1</ele>
        <time>2026-03-27T13:39:00Z</time>
      </trkpt>
      <trkpt lat="43.49087" lon="6.57542">
        <ele>44.1</ele>
        <time>2026-03-27T13:39:01Z</time>
      </trkpt>
      <trkpt lat="43.49087" lon="6.57542">
        <ele>44.1</ele>
        <time>2026-03-27T13:39:02Z</time>
      </trkpt>
      <trkpt lat="43.49087" lon="6.57542">
        <ele>44.1</ele>
        <time>2026-03-27T13:39:03Z</time>
      </trkpt>
      <trkpt lat="43.49087" lon="6.57542">
        <ele>44.2</ele>
        <time>2026-03-27T13:39:04Z</time>
      </trkpt>
      <trkpt lat="43.49087" lon="6.57542">
        <ele>44.2</ele>
        <time>2026-03-27T13:39:05Z</time>
      </trkpt>
      <trkpt lat="43.49087" lon="6.57542">
        <ele>44.2</ele>
        <time>2026-03-27T13:39:06Z</time>
      </trkpt>
      <trkpt lat="43.49087" lon="6.57542">
        <ele>44.3</ele>
        <time>2026-03-27T13:39:07Z</time>
      </trkpt>
      <trkpt lat="43.49087" lon="6.57542">
        <ele>44.4</ele>
        <time>2026-03-27T13:39:08Z</time>
      </trkpt>
      <trkpt lat="43.49087" lon="6.57542">
        <ele>44.4</ele>
        <time>2026-03-27T13:39:09Z</time>
      </trkpt>
      <trkpt lat="43.49087" lon="6.57542">
        <ele>44.4</ele>
        <time>2026-03-27T13:39:10Z</time>
      </trkpt>
      <trkpt lat="43.49087" lon="6.57541">
        <ele>44.4</ele>
        <time>2026-03-27T13:39:11Z</time>
      </trkpt>
      <trkpt lat="43.49087" lon="6.57541">
        <ele>44.4</ele>
        <time>2026-03-27T13:39:12Z</time>
      </trkpt>
      <trkpt lat="43.49087" lon="6.57541">
        <ele>44.4</ele>
        <time>2026-03-27T13:39:13Z</time>
      </trkpt>
      <trkpt lat="43.49087" lon="6.57541">
        <ele>44.4</ele>
        <time>2026-03-27T13:39:14Z</time>
      </trkpt>
      <trkpt lat="43.49087" lon="6.57541">
        <ele>44.4</ele>
        <time>2026-03-27T13:39:15Z</time>
      </trkpt>
      <trkpt lat="43.49087" lon="6.57541">
        <ele>44.5</ele>
        <time>2026-03-27T13:39:16Z</time>
      </trkpt>
      <trkpt lat="43.49087" lon="6.57541">
        <ele>44.5</ele>
        <time>2026-03-27T13:39:17Z</time>
      </trkpt>
      <trkpt lat="43.49087" lon="6.57541">
        <ele>44.4</ele>
        <time>2026-03-27T13:39:18Z</time>
      </trkpt>
      <trkpt lat="43.49087" lon="6.57541">
        <ele>44.4</ele>
        <time>2026-03-27T13:39:19Z</time>
      </trkpt>
      <trkpt lat="43.49087" lon="6.57541">
        <ele>44.4</ele>
        <time>2026-03-27T13:39:20Z</time>
      </trkpt>
      <trkpt lat="43.49087" lon="6.57541">
        <ele>44.3</ele>
        <time>2026-03-27T13:39:21Z</time>
      </trkpt>
      <trkpt lat="43.49087" lon="6.57541">
        <ele>44.3</ele>
        <time>2026-03-27T13:39:22Z</time>
      </trkpt>
      <trkpt lat="43.49087" lon="6.5754">
        <ele>44.2</ele>
        <time>2026-03-27T13:39:23Z</time>
      </trkpt>
      <trkpt lat="43.49087" lon="6.57539">
        <ele>44.1</ele>
        <time>2026-03-27T13:39:24Z</time>
      </trkpt>
      <trkpt lat="43.49087" lon="6.57539">
        <ele>44.2</ele>
        <time>2026-03-27T13:39:25Z</time>
      </trkpt>
      <trkpt lat="43.49087" lon="6.57538">
        <ele>44.2</ele>
        <time>2026-03-27T13:39:26Z</time>
      </trkpt>
      <trkpt lat="43.49086" lon="6.57537">
        <ele>44.1</ele>
        <time>2026-03-27T13:39:27Z</time>
      </trkpt>
      <trkpt lat="43.49086" lon="6.57536">
        <ele>44.1</ele>
        <time>2026-03-27T13:39:28Z</time>
      </trkpt>
      <trkpt lat="43.49085" lon="6.57535">
        <ele>44.1</ele>
        <time>2026-03-27T13:39:29Z</time>
      </trkpt>
      <trkpt lat="43.49084" lon="6.57534">
        <ele>44.1</ele>
        <time>2026-03-27T13:39:30Z</time>
      </trkpt>
      <trkpt lat="43.49084" lon="6.57533">
        <ele>44</ele>
        <time>2026-03-27T13:39:31Z</time>
      </trkpt>
      <trkpt lat="43.49084" lon="6.57532">
        <ele>44</ele>
        <time>2026-03-27T13:39:32Z</time>
      </trkpt>
      <trkpt lat="43.49084" lon="6.57531">
        <ele>44.1</ele>
        <time>2026-03-27T13:39:33Z</time>
      </trkpt>
      <trkpt lat="43.49083" lon="6.57529">
        <ele>44.1</ele>
        <time>2026-03-27T13:39:34Z</time>
      </trkpt>
      <trkpt lat="43.49083" lon="6.57528">
        <ele>44.2</ele>
        <time>2026-03-27T13:39:35Z</time>
      </trkpt>
      <trkpt lat="43.49082" lon="6.57527">
        <ele>44.3</ele>
        <time>2026-03-27T13:39:36Z</time>
      </trkpt>
      <trkpt lat="43.49081" lon="6.57526">
        <ele>44.3</ele>
        <time>2026-03-27T13:39:37Z</time>
      </trkpt>
      <trkpt lat="43.49081" lon="6.57526">
        <ele>44.4</ele>
        <time>2026-03-27T13:39:38Z</time>
      </trkpt>
      <trkpt lat="43.4908" lon="6.57525">
        <ele>44.4</ele>
        <time>2026-03-27T13:39:39Z</time>
      </trkpt>
      <trkpt lat="43.4908" lon="6.57523">
        <ele>44.4</ele>
        <time>2026-03-27T13:39:40Z</time>
      </trkpt>
      <trkpt lat="43.49079" lon="6.57522">
        <ele>44.4</ele>
        <time>2026-03-27T13:39:41Z</time>
      </trkpt>
      <trkpt lat="43.49079" lon="6.57521">
        <ele>44.4</ele>
        <time>2026-03-27T13:39:42Z</time>
      </trkpt>
      <trkpt lat="43.49078" lon="6.5752">
        <ele>44.5</ele>
        <time>2026-03-27T13:39:43Z</time>
      </trkpt>
      <trkpt lat="43.49078" lon="6.57518">
        <ele>44.4</ele>
        <time>2026-03-27T13:39:44Z</time>
      </trkpt>
      <trkpt lat="43.49077" lon="6.57516">
        <ele>44.3</ele>
        <time>2026-03-27T13:39:45Z</time>
      </trkpt>
      <trkpt lat="43.49076" lon="6.57515">
        <ele>44.3</ele>
        <time>2026-03-27T13:39:46Z</time>
      </trkpt>
      <trkpt lat="43.49075" lon="6.57514">
        <ele>44.4</ele>
        <time>2026-03-27T13:39:47Z</time>
      </trkpt>
      <trkpt lat="43.49074" lon="6.57514">
        <ele>44.4</ele>
        <time>2026-03-27T13:39:48Z</time>
      </trkpt>
      <trkpt lat="43.49074" lon="6.57512">
        <ele>44.4</ele>
        <time>2026-03-27T13:39:49Z</time>
      </trkpt>
      <trkpt lat="43.49073" lon="6.57511">
        <ele>44.6</ele>
        <time>2026-03-27T13:39:50Z</time>
      </trkpt>
      <trkpt lat="43.49072" lon="6.5751">
        <ele>44.6</ele>
        <time>2026-03-27T13:39:51Z</time>
      </trkpt>
      <trkpt lat="43.49071" lon="6.5751">
        <ele>44.5</ele>
        <time>2026-03-27T13:39:52Z</time>
      </trkpt>
      <trkpt lat="43.4907" lon="6.57509">
        <ele>44.6</ele>
        <time>2026-03-27T13:39:53Z</time>
      </trkpt>
      <trkpt lat="43.4907" lon="6.57507">
        <ele>44.6</ele>
        <time>2026-03-27T13:39:54Z</time>
      </trkpt>
      <trkpt lat="43.4907" lon="6.57506">
        <ele>44.6</ele>
        <time>2026-03-27T13:39:55Z</time>
      </trkpt>
      <trkpt lat="43.49069" lon="6.57505">
        <ele>44.6</ele>
        <time>2026-03-27T13:39:56Z</time>
      </trkpt>
      <trkpt lat="43.49069" lon="6.57503">
        <ele>44.6</ele>
        <time>2026-03-27T13:39:57Z</time>
      </trkpt>
      <trkpt lat="43.49069" lon="6.57501">
        <ele>44.7</ele>
        <time>2026-03-27T13:39:58Z</time>
      </trkpt>
      <trkpt lat="43.49068" lon="6.575">
        <ele>44.8</ele>
        <time>2026-03-27T13:39:59Z</time>
      </trkpt>
      <trkpt lat="43.49067" lon="6.57499">
        <ele>44.8</ele>
        <time>2026-03-27T13:40:00Z</time>
      </trkpt>
      <trkpt lat="43.49067" lon="6.57499">
        <ele>44.8</ele>
        <time>2026-03-27T13:40:01Z</time>
      </trkpt>
      <trkpt lat="43.49066" lon="6.57498">
        <ele>45.1</ele>
        <time>2026-03-27T13:40:02Z</time>
      </trkpt>
      <trkpt lat="43.49066" lon="6.57496">
        <ele>45</ele>
        <time>2026-03-27T13:40:03Z</time>
      </trkpt>
      <trkpt lat="43.49065" lon="6.57495">
        <ele>45</ele>
        <time>2026-03-27T13:40:04Z</time>
      </trkpt>
      <trkpt lat="43.49065" lon="6.57494">
        <ele>45</ele>
        <time>2026-03-27T13:40:05Z</time>
      </trkpt>
      <trkpt lat="43.49065" lon="6.57493">
        <ele>44.9</ele>
        <time>2026-03-27T13:40:06Z</time>
      </trkpt>
      <trkpt lat="43.49064" lon="6.57492">
        <ele>44.9</ele>
        <time>2026-03-27T13:40:07Z</time>
      </trkpt>
      <trkpt lat="43.49064" lon="6.57491">
        <ele>45.1</ele>
        <time>2026-03-27T13:40:08Z</time>
      </trkpt>
      <trkpt lat="43.49064" lon="6.5749">
        <ele>45</ele>
        <time>2026-03-27T13:40:09Z</time>
      </trkpt>
      <trkpt lat="43.49063" lon="6.57489">
        <ele>45.1</ele>
        <time>2026-03-27T13:40:10Z</time>
      </trkpt>
      <trkpt lat="43.49063" lon="6.57488">
        <ele>45.1</ele>
        <time>2026-03-27T13:40:11Z</time>
      </trkpt>
      <trkpt lat="43.49063" lon="6.57486">
        <ele>45.1</ele>
        <time>2026-03-27T13:40:12Z</time>
      </trkpt>
      <trkpt lat="43.49062" lon="6.57485">
        <ele>45.1</ele>
        <time>2026-03-27T13:40:13Z</time>
      </trkpt>
      <trkpt lat="43.49062" lon="6.57484">
        <ele>45.1</ele>
        <time>2026-03-27T13:40:14Z</time>
      </trkpt>
      <trkpt lat="43.49061" lon="6.57483">
        <ele>45.2</ele>
        <time>2026-03-27T13:40:15Z</time>
      </trkpt>
      <trkpt lat="43.49061" lon="6.57482">
        <ele>45.3</ele>
        <time>2026-03-27T13:40:16Z</time>
      </trkpt>
      <trkpt lat="43.49061" lon="6.57481">
        <ele>45.3</ele>
        <time>2026-03-27T13:40:17Z</time>
      </trkpt>
      <trkpt lat="43.49061" lon="6.57481">
        <ele>45.2</ele>
        <time>2026-03-27T13:40:18Z</time>
      </trkpt>
      <trkpt lat="43.4906" lon="6.57479">
        <ele>45.1</ele>
        <time>2026-03-27T13:40:19Z</time>
      </trkpt>
      <trkpt lat="43.4906" lon="6.57479">
        <ele>45.1</ele>
        <time>2026-03-27T13:40:20Z</time>
      </trkpt>
      <trkpt lat="43.4906" lon="6.57478">
        <ele>45</ele>
        <time>2026-03-27T13:40:21Z</time>
      </trkpt>
      <trkpt lat="43.4906" lon="6.57477">
        <ele>45</ele>
        <time>2026-03-27T13:40:22Z</time>
      </trkpt>
      <trkpt lat="43.49059" lon="6.57476">
        <ele>45</ele>
        <time>2026-03-27T13:40:23Z</time>
      </trkpt>
      <trkpt lat="43.49059" lon="6.57475">
        <ele>45</ele>
        <time>2026-03-27T13:40:24Z</time>
      </trkpt>
      <trkpt lat="43.49058" lon="6.57474">
        <ele>45</ele>
        <time>2026-03-27T13:40:25Z</time>
      </trkpt>
      <trkpt lat="43.49058" lon="6.57473">
        <ele>44.9</ele>
        <time>2026-03-27T13:40:26Z</time>
      </trkpt>
      <trkpt lat="43.49057" lon="6.57472">
        <ele>44.9</ele>
        <time>2026-03-27T13:40:27Z</time>
      </trkpt>
      <trkpt lat="43.49057" lon="6.57471">
        <ele>44.9</ele>
        <time>2026-03-27T13:40:28Z</time>
      </trkpt>
      <trkpt lat="43.49056" lon="6.5747">
        <ele>44.9</ele>
        <time>2026-03-27T13:40:29Z</time>
      </trkpt>
      <trkpt lat="43.49056" lon="6.57469">
        <ele>44.9</ele>
        <time>2026-03-27T13:40:30Z</time>
      </trkpt>
      <trkpt lat="43.49055" lon="6.57468">
        <ele>44.8</ele>
        <time>2026-03-27T13:40:31Z</time>
      </trkpt>
      <trkpt lat="43.49055" lon="6.57468">
        <ele>44.8</ele>
        <time>2026-03-27T13:40:32Z</time>
      </trkpt>
      <trkpt lat="43.49054" lon="6.57467">
        <ele>44.9</ele>
        <time>2026-03-27T13:40:33Z</time>
      </trkpt>
      <trkpt lat="43.49054" lon="6.57465">
        <ele>44.9</ele>
        <time>2026-03-27T13:40:34Z</time>
      </trkpt>
      <trkpt lat="43.49054" lon="6.57464">
        <ele>44.9</ele>
        <time>2026-03-27T13:40:35Z</time>
      </trkpt>
      <trkpt lat="43.49054" lon="6.57463">
        <ele>45</ele>
        <time>2026-03-27T13:40:36Z</time>
      </trkpt>
      <trkpt lat="43.49054" lon="6.57463">
        <ele>45</ele>
        <time>2026-03-27T13:40:37Z</time>
      </trkpt>
      <trkpt lat="43.49053" lon="6.57462">
        <ele>44.9</ele>
        <time>2026-03-27T13:40:38Z</time>
      </trkpt>
      <trkpt lat="43.49052" lon="6.57461">
        <ele>44.9</ele>
        <time>2026-03-27T13:40:39Z</time>
      </trkpt>
      <trkpt lat="43.49052" lon="6.57459">
        <ele>44.8</ele>
        <time>2026-03-27T13:40:40Z</time>
      </trkpt>
      <trkpt lat="43.49051" lon="6.57458">
        <ele>44.8</ele>
        <time>2026-03-27T13:40:41Z</time>
      </trkpt>
      <trkpt lat="43.49051" lon="6.57457">
        <ele>44.7</ele>
        <time>2026-03-27T13:40:42Z</time>
      </trkpt>
      <trkpt lat="43.49051" lon="6.57456">
        <ele>44.6</ele>
        <time>2026-03-27T13:40:43Z</time>
      </trkpt>
      <trkpt lat="43.49051" lon="6.57455">
        <ele>44.6</ele>
        <time>2026-03-27T13:40:44Z</time>
      </trkpt>
      <trkpt lat="43.4905" lon="6.57453">
        <ele>44.5</ele>
        <time>2026-03-27T13:40:45Z</time>
      </trkpt>
      <trkpt lat="43.4905" lon="6.57452">
        <ele>44.5</ele>
        <time>2026-03-27T13:40:46Z</time>
      </trkpt>
      <trkpt lat="43.49049" lon="6.57451">
        <ele>44.5</ele>
        <time>2026-03-27T13:40:47Z</time>
      </trkpt>
      <trkpt lat="43.49048" lon="6.5745">
        <ele>44.5</ele>
        <time>2026-03-27T13:40:48Z</time>
      </trkpt>
      <trkpt lat="43.49048" lon="6.57449">
        <ele>44.4</ele>
        <time>2026-03-27T13:40:49Z</time>
      </trkpt>
      <trkpt lat="43.49047" lon="6.57448">
        <ele>44.4</ele>
        <time>2026-03-27T13:40:50Z</time>
      </trkpt>
      <trkpt lat="43.49047" lon="6.57448">
        <ele>44.2</ele>
        <time>2026-03-27T13:40:51Z</time>
      </trkpt>
      <trkpt lat="43.49046" lon="6.57447">
        <ele>44.3</ele>
        <time>2026-03-27T13:40:52Z</time>
      </trkpt>
      <trkpt lat="43.49045" lon="6.57445">
        <ele>44.4</ele>
        <time>2026-03-27T13:40:53Z</time>
      </trkpt>
      <trkpt lat="43.49045" lon="6.57444">
        <ele>44.3</ele>
        <time>2026-03-27T13:40:54Z</time>
      </trkpt>
      <trkpt lat="43.49044" lon="6.57444">
        <ele>44.3</ele>
        <time>2026-03-27T13:40:55Z</time>
      </trkpt>
      <trkpt lat="43.49043" lon="6.57443">
        <ele>44.2</ele>
        <time>2026-03-27T13:40:56Z</time>
      </trkpt>
      <trkpt lat="43.49043" lon="6.57442">
        <ele>44.2</ele>
        <time>2026-03-27T13:40:57Z</time>
      </trkpt>
      <trkpt lat="43.49042" lon="6.57441">
        <ele>44.2</ele>
        <time>2026-03-27T13:40:58Z</time>
      </trkpt>
      <trkpt lat="43.49041" lon="6.5744">
        <ele>44.2</ele>
        <time>2026-03-27T13:40:59Z</time>
      </trkpt>
      <trkpt lat="43.4904" lon="6.57439">
        <ele>44.1</ele>
        <time>2026-03-27T13:41:00Z</time>
      </trkpt>
      <trkpt lat="43.49039" lon="6.57438">
        <ele>44</ele>
        <time>2026-03-27T13:41:01Z</time>
      </trkpt>
      <trkpt lat="43.49039" lon="6.57437">
        <ele>43.8</ele>
        <time>2026-03-27T13:41:02Z</time>
      </trkpt>
      <trkpt lat="43.49038" lon="6.57436">
        <ele>43.8</ele>
        <time>2026-03-27T13:41:03Z</time>
      </trkpt>
      <trkpt lat="43.49037" lon="6.57435">
        <ele>43.8</ele>
        <time>2026-03-27T13:41:04Z</time>
      </trkpt>
      <trkpt lat="43.49036" lon="6.57434">
        <ele>43.8</ele>
        <time>2026-03-27T13:41:05Z</time>
      </trkpt>
      <trkpt lat="43.49035" lon="6.57433">
        <ele>43.8</ele>
        <time>2026-03-27T13:41:06Z</time>
      </trkpt>
      <trkpt lat="43.49035" lon="6.57432">
        <ele>43.8</ele>
        <time>2026-03-27T13:41:07Z</time>
      </trkpt>
      <trkpt lat="43.49034" lon="6.57431">
        <ele>43.9</ele>
        <time>2026-03-27T13:41:08Z</time>
      </trkpt>
      <trkpt lat="43.49033" lon="6.5743">
        <ele>44</ele>
        <time>2026-03-27T13:41:09Z</time>
      </trkpt>
      <trkpt lat="43.49032" lon="6.5743">
        <ele>44</ele>
        <time>2026-03-27T13:41:10Z</time>
      </trkpt>
      <trkpt lat="43.49031" lon="6.57429">
        <ele>44</ele>
        <time>2026-03-27T13:41:11Z</time>
      </trkpt>
      <trkpt lat="43.4903" lon="6.57429">
        <ele>44.1</ele>
        <time>2026-03-27T13:41:12Z</time>
      </trkpt>
      <trkpt lat="43.49029" lon="6.57428">
        <ele>44</ele>
        <time>2026-03-27T13:41:13Z</time>
      </trkpt>
      <trkpt lat="43.49028" lon="6.57428">
        <ele>44</ele>
        <time>2026-03-27T13:41:14Z</time>
      </trkpt>
      <trkpt lat="43.49027" lon="6.57427">
        <ele>43.9</ele>
        <time>2026-03-27T13:41:15Z</time>
      </trkpt>
      <trkpt lat="43.49026" lon="6.57426">
        <ele>43.9</ele>
        <time>2026-03-27T13:41:16Z</time>
      </trkpt>
      <trkpt lat="43.49025" lon="6.57426">
        <ele>43.8</ele>
        <time>2026-03-27T13:41:17Z</time>
      </trkpt>
      <trkpt lat="43.49024" lon="6.57425">
        <ele>43.7</ele>
        <time>2026-03-27T13:41:18Z</time>
      </trkpt>
      <trkpt lat="43.49023" lon="6.57425">
        <ele>43.8</ele>
        <time>2026-03-27T13:41:19Z</time>
      </trkpt>
      <trkpt lat="43.49022" lon="6.57424">
        <ele>43.6</ele>
        <time>2026-03-27T13:41:20Z</time>
      </trkpt>
      <trkpt lat="43.49021" lon="6.57424">
        <ele>43.5</ele>
        <time>2026-03-27T13:41:21Z</time>
      </trkpt>
      <trkpt lat="43.4902" lon="6.57423">
        <ele>43.5</ele>
        <time>2026-03-27T13:41:22Z</time>
      </trkpt>
      <trkpt lat="43.49019" lon="6.57422">
        <ele>43.5</ele>
        <time>2026-03-27T13:41:23Z</time>
      </trkpt>
      <trkpt lat="43.49018" lon="6.57421">
        <ele>43.5</ele>
        <time>2026-03-27T13:41:24Z</time>
      </trkpt>
      <trkpt lat="43.49017" lon="6.57421">
        <ele>43.4</ele>
        <time>2026-03-27T13:41:25Z</time>
      </trkpt>
      <trkpt lat="43.49016" lon="6.57421">
        <ele>43.4</ele>
        <time>2026-03-27T13:41:26Z</time>
      </trkpt>
      <trkpt lat="43.49014" lon="6.5742">
        <ele>43.4</ele>
        <time>2026-03-27T13:41:27Z</time>
      </trkpt>
      <trkpt lat="43.49013" lon="6.5742">
        <ele>43.4</ele>
        <time>2026-03-27T13:41:28Z</time>
      </trkpt>
      <trkpt lat="43.49012" lon="6.57419">
        <ele>43.4</ele>
        <time>2026-03-27T13:41:29Z</time>
      </trkpt>
      <trkpt lat="43.49011" lon="6.57419">
        <ele>43.3</ele>
        <time>2026-03-27T13:41:30Z</time>
      </trkpt>
      <trkpt lat="43.4901" lon="6.57419">
        <ele>43.2</ele>
        <time>2026-03-27T13:41:31Z</time>
      </trkpt>
      <trkpt lat="43.49009" lon="6.57418">
        <ele>43.1</ele>
        <time>2026-03-27T13:41:32Z</time>
      </trkpt>
      <trkpt lat="43.49008" lon="6.57418">
        <ele>43.1</ele>
        <time>2026-03-27T13:41:33Z</time>
      </trkpt>
      <trkpt lat="43.49007" lon="6.57418">
        <ele>43</ele>
        <time>2026-03-27T13:41:34Z</time>
      </trkpt>
      <trkpt lat="43.49007" lon="6.57418">
        <ele>43</ele>
        <time>2026-03-27T13:41:35Z</time>
      </trkpt>
      <trkpt lat="43.49006" lon="6.57418">
        <ele>42.9</ele>
        <time>2026-03-27T13:41:36Z</time>
      </trkpt>
      <trkpt lat="43.49004" lon="6.57417">
        <ele>42.9</ele>
        <time>2026-03-27T13:41:37Z</time>
      </trkpt>
      <trkpt lat="43.49003" lon="6.57417">
        <ele>42.8</ele>
        <time>2026-03-27T13:41:38Z</time>
      </trkpt>
      <trkpt lat="43.49002" lon="6.57416">
        <ele>42.8</ele>
        <time>2026-03-27T13:41:39Z</time>
      </trkpt>
      <trkpt lat="43.49001" lon="6.57416">
        <ele>42.7</ele>
        <time>2026-03-27T13:41:40Z</time>
      </trkpt>
      <trkpt lat="43.49" lon="6.57415">
        <ele>42.7</ele>
        <time>2026-03-27T13:41:41Z</time>
      </trkpt>
      <trkpt lat="43.48999" lon="6.57415">
        <ele>42.6</ele>
        <time>2026-03-27T13:41:42Z</time>
      </trkpt>
      <trkpt lat="43.48998" lon="6.57415">
        <ele>42.5</ele>
        <time>2026-03-27T13:41:43Z</time>
      </trkpt>
      <trkpt lat="43.48997" lon="6.57415">
        <ele>42.3</ele>
        <time>2026-03-27T13:41:44Z</time>
      </trkpt>
      <trkpt lat="43.48996" lon="6.57415">
        <ele>42.1</ele>
        <time>2026-03-27T13:41:45Z</time>
      </trkpt>
      <trkpt lat="43.48995" lon="6.57415">
        <ele>42.1</ele>
        <time>2026-03-27T13:41:46Z</time>
      </trkpt>
      <trkpt lat="43.48994" lon="6.57415">
        <ele>42</ele>
        <time>2026-03-27T13:41:47Z</time>
      </trkpt>
      <trkpt lat="43.48993" lon="6.57415">
        <ele>41.9</ele>
        <time>2026-03-27T13:41:48Z</time>
      </trkpt>
      <trkpt lat="43.48992" lon="6.57415">
        <ele>41.9</ele>
        <time>2026-03-27T13:41:49Z</time>
      </trkpt>
      <trkpt lat="43.48991" lon="6.57415">
        <ele>41.9</ele>
        <time>2026-03-27T13:41:50Z</time>
      </trkpt>
      <trkpt lat="43.4899" lon="6.57415">
        <ele>41.8</ele>
        <time>2026-03-27T13:41:51Z</time>
      </trkpt>
      <trkpt lat="43.48989" lon="6.57415">
        <ele>41.7</ele>
        <time>2026-03-27T13:41:52Z</time>
      </trkpt>
      <trkpt lat="43.48988" lon="6.57415">
        <ele>41.7</ele>
        <time>2026-03-27T13:41:53Z</time>
      </trkpt>
      <trkpt lat="43.48987" lon="6.57415">
        <ele>41.7</ele>
        <time>2026-03-27T13:41:54Z</time>
      </trkpt>
      <trkpt lat="43.48986" lon="6.57415">
        <ele>41.7</ele>
        <time>2026-03-27T13:41:55Z</time>
      </trkpt>
      <trkpt lat="43.48984" lon="6.57416">
        <ele>41.7</ele>
        <time>2026-03-27T13:41:56Z</time>
      </trkpt>
      <trkpt lat="43.48983" lon="6.57416">
        <ele>41.6</ele>
        <time>2026-03-27T13:41:57Z</time>
      </trkpt>
      <trkpt lat="43.48982" lon="6.57416">
        <ele>41.5</ele>
        <time>2026-03-27T13:41:58Z</time>
      </trkpt>
      <trkpt lat="43.48981" lon="6.57417">
        <ele>41.4</ele>
        <time>2026-03-27T13:41:59Z</time>
      </trkpt>
      <trkpt lat="43.4898" lon="6.57416">
        <ele>41.4</ele>
        <time>2026-03-27T13:42:00Z</time>
      </trkpt>
      <trkpt lat="43.48978" lon="6.57418">
        <ele>41.3</ele>
        <time>2026-03-27T13:42:01Z</time>
      </trkpt>
      <trkpt lat="43.48977" lon="6.57419">
        <ele>41.2</ele>
        <time>2026-03-27T13:42:02Z</time>
      </trkpt>
      <trkpt lat="43.48976" lon="6.5742">
        <ele>41.1</ele>
        <time>2026-03-27T13:42:03Z</time>
      </trkpt>
      <trkpt lat="43.48975" lon="6.57421">
        <ele>41</ele>
        <time>2026-03-27T13:42:04Z</time>
      </trkpt>
      <trkpt lat="43.48974" lon="6.57421">
        <ele>40.9</ele>
        <time>2026-03-27T13:42:05Z</time>
      </trkpt>
      <trkpt lat="43.48973" lon="6.57423">
        <ele>40.9</ele>
        <time>2026-03-27T13:42:06Z</time>
      </trkpt>
      <trkpt lat="43.48973" lon="6.57424">
        <ele>40.8</ele>
        <time>2026-03-27T13:42:07Z</time>
      </trkpt>
      <trkpt lat="43.48972" lon="6.57425">
        <ele>40.7</ele>
        <time>2026-03-27T13:42:08Z</time>
      </trkpt>
      <trkpt lat="43.48971" lon="6.57426">
        <ele>40.6</ele>
        <time>2026-03-27T13:42:09Z</time>
      </trkpt>
      <trkpt lat="43.4897" lon="6.57427">
        <ele>40.6</ele>
        <time>2026-03-27T13:42:10Z</time>
      </trkpt>
      <trkpt lat="43.48969" lon="6.57428">
        <ele>40.5</ele>
        <time>2026-03-27T13:42:11Z</time>
      </trkpt>
      <trkpt lat="43.48969" lon="6.57429">
        <ele>40.4</ele>
        <time>2026-03-27T13:42:12Z</time>
      </trkpt>
      <trkpt lat="43.48968" lon="6.5743">
        <ele>40.5</ele>
        <time>2026-03-27T13:42:13Z</time>
      </trkpt>
      <trkpt lat="43.48967" lon="6.57432">
        <ele>40.5</ele>
        <time>2026-03-27T13:42:14Z</time>
      </trkpt>
      <trkpt lat="43.48966" lon="6.57433">
        <ele>40.5</ele>
        <time>2026-03-27T13:42:15Z</time>
      </trkpt>
      <trkpt lat="43.48966" lon="6.57434">
        <ele>40.7</ele>
        <time>2026-03-27T13:42:16Z</time>
      </trkpt>
      <trkpt lat="43.48965" lon="6.57435">
        <ele>40.5</ele>
        <time>2026-03-27T13:42:17Z</time>
      </trkpt>
      <trkpt lat="43.48964" lon="6.57437">
        <ele>40.5</ele>
        <time>2026-03-27T13:42:18Z</time>
      </trkpt>
      <trkpt lat="43.48963" lon="6.57438">
        <ele>40.4</ele>
        <time>2026-03-27T13:42:19Z</time>
      </trkpt>
      <trkpt lat="43.48962" lon="6.57439">
        <ele>40.3</ele>
        <time>2026-03-27T13:42:20Z</time>
      </trkpt>
      <trkpt lat="43.48961" lon="6.57439">
        <ele>40.2</ele>
        <time>2026-03-27T13:42:21Z</time>
      </trkpt>
      <trkpt lat="43.4896" lon="6.5744">
        <ele>40.2</ele>
        <time>2026-03-27T13:42:22Z</time>
      </trkpt>
      <trkpt lat="43.4896" lon="6.5744">
        <ele>40.1</ele>
        <time>2026-03-27T13:42:23Z</time>
      </trkpt>
      <trkpt lat="43.48959" lon="6.5744">
        <ele>40</ele>
        <time>2026-03-27T13:42:24Z</time>
      </trkpt>
      <trkpt lat="43.48958" lon="6.5744">
        <ele>39.9</ele>
        <time>2026-03-27T13:42:25Z</time>
      </trkpt>
      <trkpt lat="43.48957" lon="6.5744">
        <ele>39.9</ele>
        <time>2026-03-27T13:42:26Z</time>
      </trkpt>
      <trkpt lat="43.48956" lon="6.57439">
        <ele>39.8</ele>
        <time>2026-03-27T13:42:27Z</time>
      </trkpt>
      <trkpt lat="43.48955" lon="6.57438">
        <ele>39.8</ele>
        <time>2026-03-27T13:42:28Z</time>
      </trkpt>
      <trkpt lat="43.48955" lon="6.57438">
        <ele>39.8</ele>
        <time>2026-03-27T13:42:29Z</time>
      </trkpt>
      <trkpt lat="43.48954" lon="6.57437">
        <ele>39.8</ele>
        <time>2026-03-27T13:42:30Z</time>
      </trkpt>
      <trkpt lat="43.48954" lon="6.57436">
        <ele>39.7</ele>
        <time>2026-03-27T13:42:31Z</time>
      </trkpt>
      <trkpt lat="43.48953" lon="6.57435">
        <ele>39.7</ele>
        <time>2026-03-27T13:42:32Z</time>
      </trkpt>
      <trkpt lat="43.48952" lon="6.57434">
        <ele>39.7</ele>
        <time>2026-03-27T13:42:33Z</time>
      </trkpt>
      <trkpt lat="43.48952" lon="6.57433">
        <ele>39.8</ele>
        <time>2026-03-27T13:42:34Z</time>
      </trkpt>
      <trkpt lat="43.48952" lon="6.57432">
        <ele>39.8</ele>
        <time>2026-03-27T13:42:35Z</time>
      </trkpt>
      <trkpt lat="43.48952" lon="6.57431">
        <ele>39.8</ele>
        <time>2026-03-27T13:42:36Z</time>
      </trkpt>
      <trkpt lat="43.48951" lon="6.5743">
        <ele>39.9</ele>
        <time>2026-03-27T13:42:37Z</time>
      </trkpt>
      <trkpt lat="43.48951" lon="6.5743">
        <ele>39.9</ele>
        <time>2026-03-27T13:42:38Z</time>
      </trkpt>
      <trkpt lat="43.4895" lon="6.57429">
        <ele>39.9</ele>
        <time>2026-03-27T13:42:39Z</time>
      </trkpt>
      <trkpt lat="43.48949" lon="6.57428">
        <ele>39.9</ele>
        <time>2026-03-27T13:42:40Z</time>
      </trkpt>
      <trkpt lat="43.48949" lon="6.57427">
        <ele>39.8</ele>
        <time>2026-03-27T13:42:41Z</time>
      </trkpt>
      <trkpt lat="43.48949" lon="6.57426">
        <ele>39.8</ele>
        <time>2026-03-27T13:42:42Z</time>
      </trkpt>
      <trkpt lat="43.48949" lon="6.57425">
        <ele>39.8</ele>
        <time>2026-03-27T13:42:43Z</time>
      </trkpt>
      <trkpt lat="43.48948" lon="6.57424">
        <ele>39.8</ele>
        <time>2026-03-27T13:42:44Z</time>
      </trkpt>
      <trkpt lat="43.48947" lon="6.57422">
        <ele>39.9</ele>
        <time>2026-03-27T13:42:45Z</time>
      </trkpt>
      <trkpt lat="43.48947" lon="6.57421">
        <ele>39.8</ele>
        <time>2026-03-27T13:42:46Z</time>
      </trkpt>
      <trkpt lat="43.48946" lon="6.5742">
        <ele>39.9</ele>
        <time>2026-03-27T13:42:47Z</time>
      </trkpt>
      <trkpt lat="43.48946" lon="6.57419">
        <ele>39.8</ele>
        <time>2026-03-27T13:42:48Z</time>
      </trkpt>
      <trkpt lat="43.48945" lon="6.57417">
        <ele>39.9</ele>
        <time>2026-03-27T13:42:49Z</time>
      </trkpt>
      <trkpt lat="43.48945" lon="6.57416">
        <ele>39.9</ele>
        <time>2026-03-27T13:42:50Z</time>
      </trkpt>
      <trkpt lat="43.48945" lon="6.57415">
        <ele>40</ele>
        <time>2026-03-27T13:42:51Z</time>
      </trkpt>
      <trkpt lat="43.48945" lon="6.57414">
        <ele>40</ele>
        <time>2026-03-27T13:42:52Z</time>
      </trkpt>
      <trkpt lat="43.48944" lon="6.57412">
        <ele>40</ele>
        <time>2026-03-27T13:42:53Z</time>
      </trkpt>
      <trkpt lat="43.48944" lon="6.57411">
        <ele>40</ele>
        <time>2026-03-27T13:42:54Z</time>
      </trkpt>
      <trkpt lat="43.48943" lon="6.5741">
        <ele>40.1</ele>
        <time>2026-03-27T13:42:55Z</time>
      </trkpt>
      <trkpt lat="43.48943" lon="6.57408">
        <ele>40.1</ele>
        <time>2026-03-27T13:42:56Z</time>
      </trkpt>
      <trkpt lat="43.48943" lon="6.57407">
        <ele>40.2</ele>
        <time>2026-03-27T13:42:57Z</time>
      </trkpt>
      <trkpt lat="43.48942" lon="6.57406">
        <ele>40.2</ele>
        <time>2026-03-27T13:42:58Z</time>
      </trkpt>
      <trkpt lat="43.48942" lon="6.57405">
        <ele>40.3</ele>
        <time>2026-03-27T13:42:59Z</time>
      </trkpt>
      <trkpt lat="43.48942" lon="6.57404">
        <ele>40.4</ele>
        <time>2026-03-27T13:43:00Z</time>
      </trkpt>
      <trkpt lat="43.48942" lon="6.57403">
        <ele>40.6</ele>
        <time>2026-03-27T13:43:01Z</time>
      </trkpt>
      <trkpt lat="43.48941" lon="6.57402">
        <ele>40.8</ele>
        <time>2026-03-27T13:43:02Z</time>
      </trkpt>
      <trkpt lat="43.48941" lon="6.574">
        <ele>40.8</ele>
        <time>2026-03-27T13:43:03Z</time>
      </trkpt>
      <trkpt lat="43.48941" lon="6.57399">
        <ele>40.9</ele>
        <time>2026-03-27T13:43:04Z</time>
      </trkpt>
      <trkpt lat="43.4894" lon="6.57398">
        <ele>40.9</ele>
        <time>2026-03-27T13:43:05Z</time>
      </trkpt>
      <trkpt lat="43.4894" lon="6.57396">
        <ele>41</ele>
        <time>2026-03-27T13:43:06Z</time>
      </trkpt>
      <trkpt lat="43.48939" lon="6.57395">
        <ele>41.2</ele>
        <time>2026-03-27T13:43:07Z</time>
      </trkpt>
      <trkpt lat="43.48938" lon="6.57394">
        <ele>41.3</ele>
        <time>2026-03-27T13:43:08Z</time>
      </trkpt>
      <trkpt lat="43.48937" lon="6.57393">
        <ele>41.4</ele>
        <time>2026-03-27T13:43:09Z</time>
      </trkpt>
      <trkpt lat="43.48937" lon="6.57392">
        <ele>41.6</ele>
        <time>2026-03-27T13:43:10Z</time>
      </trkpt>
      <trkpt lat="43.48936" lon="6.57391">
        <ele>41.8</ele>
        <time>2026-03-27T13:43:11Z</time>
      </trkpt>
      <trkpt lat="43.48936" lon="6.5739">
        <ele>42</ele>
        <time>2026-03-27T13:43:12Z</time>
      </trkpt>
      <trkpt lat="43.48935" lon="6.57389">
        <ele>42.1</ele>
        <time>2026-03-27T13:43:13Z</time>
      </trkpt>
      <trkpt lat="43.48935" lon="6.57388">
        <ele>42.2</ele>
        <time>2026-03-27T13:43:14Z</time>
      </trkpt>
      <trkpt lat="43.48934" lon="6.57386">
        <ele>42.2</ele>
        <time>2026-03-27T13:43:15Z</time>
      </trkpt>
      <trkpt lat="43.48933" lon="6.57385">
        <ele>42.2</ele>
        <time>2026-03-27T13:43:16Z</time>
      </trkpt>
      <trkpt lat="43.48933" lon="6.57384">
        <ele>42.3</ele>
        <time>2026-03-27T13:43:17Z</time>
      </trkpt>
      <trkpt lat="43.48932" lon="6.57383">
        <ele>42.3</ele>
        <time>2026-03-27T13:43:18Z</time>
      </trkpt>
      <trkpt lat="43.48931" lon="6.57382">
        <ele>42.3</ele>
        <time>2026-03-27T13:43:19Z</time>
      </trkpt>
      <trkpt lat="43.48931" lon="6.57381">
        <ele>42.4</ele>
        <time>2026-03-27T13:43:20Z</time>
      </trkpt>
      <trkpt lat="43.4893" lon="6.5738">
        <ele>42.4</ele>
        <time>2026-03-27T13:43:21Z</time>
      </trkpt>
      <trkpt lat="43.4893" lon="6.57378">
        <ele>42.4</ele>
        <time>2026-03-27T13:43:22Z</time>
      </trkpt>
      <trkpt lat="43.48929" lon="6.57377">
        <ele>42.5</ele>
        <time>2026-03-27T13:43:23Z</time>
      </trkpt>
      <trkpt lat="43.48929" lon="6.57376">
        <ele>42.7</ele>
        <time>2026-03-27T13:43:24Z</time>
      </trkpt>
      <trkpt lat="43.48928" lon="6.57375">
        <ele>42.8</ele>
        <time>2026-03-27T13:43:25Z</time>
      </trkpt>
      <trkpt lat="43.48927" lon="6.57374">
        <ele>43</ele>
        <time>2026-03-27T13:43:26Z</time>
      </trkpt>
      <trkpt lat="43.48926" lon="6.57373">
        <ele>43.1</ele>
        <time>2026-03-27T13:43:27Z</time>
      </trkpt>
      <trkpt lat="43.48925" lon="6.57372">
        <ele>43.1</ele>
        <time>2026-03-27T13:43:28Z</time>
      </trkpt>
      <trkpt lat="43.48925" lon="6.57371">
        <ele>43.3</ele>
        <time>2026-03-27T13:43:29Z</time>
      </trkpt>
      <trkpt lat="43.48924" lon="6.5737">
        <ele>43.4</ele>
        <time>2026-03-27T13:43:30Z</time>
      </trkpt>
      <trkpt lat="43.48923" lon="6.57369">
        <ele>43.5</ele>
        <time>2026-03-27T13:43:31Z</time>
      </trkpt>
      <trkpt lat="43.48922" lon="6.57368">
        <ele>43.6</ele>
        <time>2026-03-27T13:43:32Z</time>
      </trkpt>
      <trkpt lat="43.48921" lon="6.57367">
        <ele>43.7</ele>
        <time>2026-03-27T13:43:33Z</time>
      </trkpt>
      <trkpt lat="43.48921" lon="6.57366">
        <ele>43.7</ele>
        <time>2026-03-27T13:43:34Z</time>
      </trkpt>
      <trkpt lat="43.4892" lon="6.57365">
        <ele>43.8</ele>
        <time>2026-03-27T13:43:35Z</time>
      </trkpt>
      <trkpt lat="43.48919" lon="6.57364">
        <ele>43.8</ele>
        <time>2026-03-27T13:43:36Z</time>
      </trkpt>
      <trkpt lat="43.48918" lon="6.57363">
        <ele>43.8</ele>
        <time>2026-03-27T13:43:37Z</time>
      </trkpt>
      <trkpt lat="43.48917" lon="6.57362">
        <ele>43.9</ele>
        <time>2026-03-27T13:43:38Z</time>
      </trkpt>
      <trkpt lat="43.48916" lon="6.57361">
        <ele>43.9</ele>
        <time>2026-03-27T13:43:39Z</time>
      </trkpt>
      <trkpt lat="43.48916" lon="6.5736">
        <ele>43.8</ele>
        <time>2026-03-27T13:43:40Z</time>
      </trkpt>
      <trkpt lat="43.48915" lon="6.57359">
        <ele>43.8</ele>
        <time>2026-03-27T13:43:41Z</time>
      </trkpt>
      <trkpt lat="43.48914" lon="6.57358">
        <ele>43.8</ele>
        <time>2026-03-27T13:43:42Z</time>
      </trkpt>
      <trkpt lat="43.48913" lon="6.57357">
        <ele>43.8</ele>
        <time>2026-03-27T13:43:43Z</time>
      </trkpt>
      <trkpt lat="43.48913" lon="6.57355">
        <ele>43.8</ele>
        <time>2026-03-27T13:43:44Z</time>
      </trkpt>
      <trkpt lat="43.48912" lon="6.57354">
        <ele>43.9</ele>
        <time>2026-03-27T13:43:45Z</time>
      </trkpt>
      <trkpt lat="43.48911" lon="6.57353">
        <ele>44</ele>
        <time>2026-03-27T13:43:46Z</time>
      </trkpt>
      <trkpt lat="43.4891" lon="6.57352">
        <ele>44.1</ele>
        <time>2026-03-27T13:43:47Z</time>
      </trkpt>
      <trkpt lat="43.48909" lon="6.57351">
        <ele>44.2</ele>
        <time>2026-03-27T13:43:48Z</time>
      </trkpt>
      <trkpt lat="43.48908" lon="6.5735">
        <ele>44.2</ele>
        <time>2026-03-27T13:43:49Z</time>
      </trkpt>
      <trkpt lat="43.48908" lon="6.57349">
        <ele>44.2</ele>
        <time>2026-03-27T13:43:50Z</time>
      </trkpt>
      <trkpt lat="43.48907" lon="6.57348">
        <ele>44.2</ele>
        <time>2026-03-27T13:43:51Z</time>
      </trkpt>
      <trkpt lat="43.48906" lon="6.57347">
        <ele>44.3</ele>
        <time>2026-03-27T13:43:52Z</time>
      </trkpt>
      <trkpt lat="43.48905" lon="6.57346">
        <ele>44.3</ele>
        <time>2026-03-27T13:43:53Z</time>
      </trkpt>
      <trkpt lat="43.48905" lon="6.57344">
        <ele>44.4</ele>
        <time>2026-03-27T13:43:54Z</time>
      </trkpt>
      <trkpt lat="43.48904" lon="6.57343">
        <ele>44.4</ele>
        <time>2026-03-27T13:43:55Z</time>
      </trkpt>
      <trkpt lat="43.48903" lon="6.57342">
        <ele>44.4</ele>
        <time>2026-03-27T13:43:56Z</time>
      </trkpt>
      <trkpt lat="43.48902" lon="6.57341">
        <ele>44.5</ele>
        <time>2026-03-27T13:43:57Z</time>
      </trkpt>
      <trkpt lat="43.48901" lon="6.57341">
        <ele>44.5</ele>
        <time>2026-03-27T13:43:58Z</time>
      </trkpt>
      <trkpt lat="43.489" lon="6.57339">
        <ele>44.6</ele>
        <time>2026-03-27T13:43:59Z</time>
      </trkpt>
      <trkpt lat="43.48899" lon="6.57339">
        <ele>44.7</ele>
        <time>2026-03-27T13:44:00Z</time>
      </trkpt>
      <trkpt lat="43.48898" lon="6.57338">
        <ele>44.8</ele>
        <time>2026-03-27T13:44:01Z</time>
      </trkpt>
      <trkpt lat="43.48897" lon="6.57337">
        <ele>44.8</ele>
        <time>2026-03-27T13:44:02Z</time>
      </trkpt>
      <trkpt lat="43.48896" lon="6.57336">
        <ele>44.9</ele>
        <time>2026-03-27T13:44:03Z</time>
      </trkpt>
      <trkpt lat="43.48896" lon="6.57335">
        <ele>45</ele>
        <time>2026-03-27T13:44:04Z</time>
      </trkpt>
      <trkpt lat="43.48895" lon="6.57334">
        <ele>45.1</ele>
        <time>2026-03-27T13:44:05Z</time>
      </trkpt>
      <trkpt lat="43.48894" lon="6.57333">
        <ele>45.3</ele>
        <time>2026-03-27T13:44:06Z</time>
      </trkpt>
      <trkpt lat="43.48893" lon="6.57332">
        <ele>45.2</ele>
        <time>2026-03-27T13:44:07Z</time>
      </trkpt>
      <trkpt lat="43.48892" lon="6.57331">
        <ele>45.3</ele>
        <time>2026-03-27T13:44:08Z</time>
      </trkpt>
      <trkpt lat="43.48891" lon="6.5733">
        <ele>45.4</ele>
        <time>2026-03-27T13:44:09Z</time>
      </trkpt>
      <trkpt lat="43.4889" lon="6.5733">
        <ele>45.5</ele>
        <time>2026-03-27T13:44:10Z</time>
      </trkpt>
      <trkpt lat="43.48889" lon="6.57329">
        <ele>45.6</ele>
        <time>2026-03-27T13:44:11Z</time>
      </trkpt>
      <trkpt lat="43.48888" lon="6.57328">
        <ele>45.8</ele>
        <time>2026-03-27T13:44:12Z</time>
      </trkpt>
      <trkpt lat="43.48888" lon="6.57327">
        <ele>45.9</ele>
        <time>2026-03-27T13:44:13Z</time>
      </trkpt>
      <trkpt lat="43.48887" lon="6.57326">
        <ele>46</ele>
        <time>2026-03-27T13:44:14Z</time>
      </trkpt>
      <trkpt lat="43.48887" lon="6.57324">
        <ele>46.2</ele>
        <time>2026-03-27T13:44:15Z</time>
      </trkpt>
      <trkpt lat="43.48886" lon="6.57323">
        <ele>46.2</ele>
        <time>2026-03-27T13:44:16Z</time>
      </trkpt>
      <trkpt lat="43.48885" lon="6.57322">
        <ele>46.3</ele>
        <time>2026-03-27T13:44:17Z</time>
      </trkpt>
      <trkpt lat="43.48885" lon="6.5732">
        <ele>46.4</ele>
        <time>2026-03-27T13:44:18Z</time>
      </trkpt>
      <trkpt lat="43.48884" lon="6.57319">
        <ele>46.7</ele>
        <time>2026-03-27T13:44:19Z</time>
      </trkpt>
      <trkpt lat="43.48883" lon="6.57318">
        <ele>46.8</ele>
        <time>2026-03-27T13:44:20Z</time>
      </trkpt>
      <trkpt lat="43.48883" lon="6.57316">
        <ele>46.6</ele>
        <time>2026-03-27T13:44:21Z</time>
      </trkpt>
      <trkpt lat="43.48882" lon="6.57315">
        <ele>46.7</ele>
        <time>2026-03-27T13:44:22Z</time>
      </trkpt>
      <trkpt lat="43.48881" lon="6.57314">
        <ele>46.8</ele>
        <time>2026-03-27T13:44:23Z</time>
      </trkpt>
      <trkpt lat="43.4888" lon="6.57312">
        <ele>46.9</ele>
        <time>2026-03-27T13:44:24Z</time>
      </trkpt>
      <trkpt lat="43.48879" lon="6.57312">
        <ele>47</ele>
        <time>2026-03-27T13:44:25Z</time>
      </trkpt>
      <trkpt lat="43.48878" lon="6.57311">
        <ele>47.1</ele>
        <time>2026-03-27T13:44:26Z</time>
      </trkpt>
      <trkpt lat="43.48877" lon="6.5731">
        <ele>47.1</ele>
        <time>2026-03-27T13:44:27Z</time>
      </trkpt>
      <trkpt lat="43.48876" lon="6.57309">
        <ele>47.3</ele>
        <time>2026-03-27T13:44:28Z</time>
      </trkpt>
      <trkpt lat="43.48875" lon="6.57308">
        <ele>47.4</ele>
        <time>2026-03-27T13:44:29Z</time>
      </trkpt>
      <trkpt lat="43.48874" lon="6.57307">
        <ele>47.4</ele>
        <time>2026-03-27T13:44:30Z</time>
      </trkpt>
      <trkpt lat="43.48873" lon="6.57307">
        <ele>47.3</ele>
        <time>2026-03-27T13:44:31Z</time>
      </trkpt>
      <trkpt lat="43.48871" lon="6.57306">
        <ele>47.3</ele>
        <time>2026-03-27T13:44:32Z</time>
      </trkpt>
      <trkpt lat="43.4887" lon="6.57305">
        <ele>47.3</ele>
        <time>2026-03-27T13:44:33Z</time>
      </trkpt>
      <trkpt lat="43.48869" lon="6.57305">
        <ele>47.3</ele>
        <time>2026-03-27T13:44:34Z</time>
      </trkpt>
      <trkpt lat="43.48868" lon="6.57305">
        <ele>47.2</ele>
        <time>2026-03-27T13:44:35Z</time>
      </trkpt>
      <trkpt lat="43.48866" lon="6.57305">
        <ele>47.2</ele>
        <time>2026-03-27T13:44:36Z</time>
      </trkpt>
      <trkpt lat="43.48865" lon="6.57304">
        <ele>47</ele>
        <time>2026-03-27T13:44:37Z</time>
      </trkpt>
      <trkpt lat="43.48864" lon="6.57304">
        <ele>47</ele>
        <time>2026-03-27T13:44:38Z</time>
      </trkpt>
      <trkpt lat="43.48863" lon="6.57304">
        <ele>47</ele>
        <time>2026-03-27T13:44:39Z</time>
      </trkpt>
      <trkpt lat="43.48862" lon="6.57304">
        <ele>46.6</ele>
        <time>2026-03-27T13:44:40Z</time>
      </trkpt>
      <trkpt lat="43.48861" lon="6.57303">
        <ele>46.6</ele>
        <time>2026-03-27T13:44:41Z</time>
      </trkpt>
      <trkpt lat="43.48859" lon="6.57304">
        <ele>46.5</ele>
        <time>2026-03-27T13:44:42Z</time>
      </trkpt>
      <trkpt lat="43.48858" lon="6.57304">
        <ele>46.5</ele>
        <time>2026-03-27T13:44:43Z</time>
      </trkpt>
      <trkpt lat="43.48857" lon="6.57304">
        <ele>46.5</ele>
        <time>2026-03-27T13:44:44Z</time>
      </trkpt>
      <trkpt lat="43.48855" lon="6.57305">
        <ele>46.5</ele>
        <time>2026-03-27T13:44:45Z</time>
      </trkpt>
      <trkpt lat="43.48854" lon="6.57306">
        <ele>46.4</ele>
        <time>2026-03-27T13:44:46Z</time>
      </trkpt>
      <trkpt lat="43.48853" lon="6.57306">
        <ele>46.4</ele>
        <time>2026-03-27T13:44:47Z</time>
      </trkpt>
      <trkpt lat="43.48852" lon="6.57306">
        <ele>46.4</ele>
        <time>2026-03-27T13:44:48Z</time>
      </trkpt>
      <trkpt lat="43.48851" lon="6.57306">
        <ele>46.5</ele>
        <time>2026-03-27T13:44:49Z</time>
      </trkpt>
      <trkpt lat="43.4885" lon="6.57307">
        <ele>46.5</ele>
        <time>2026-03-27T13:44:50Z</time>
      </trkpt>
      <trkpt lat="43.48849" lon="6.57307">
        <ele>46.5</ele>
        <time>2026-03-27T13:44:51Z</time>
      </trkpt>
      <trkpt lat="43.48848" lon="6.57307">
        <ele>46.6</ele>
        <time>2026-03-27T13:44:52Z</time>
      </trkpt>
      <trkpt lat="43.48847" lon="6.57307">
        <ele>46.8</ele>
        <time>2026-03-27T13:44:53Z</time>
      </trkpt>
      <trkpt lat="43.48846" lon="6.57307">
        <ele>47</ele>
        <time>2026-03-27T13:44:54Z</time>
      </trkpt>
      <trkpt lat="43.48845" lon="6.57307">
        <ele>47</ele>
        <time>2026-03-27T13:44:55Z</time>
      </trkpt>
      <trkpt lat="43.48844" lon="6.57306">
        <ele>47</ele>
        <time>2026-03-27T13:44:56Z</time>
      </trkpt>
      <trkpt lat="43.48843" lon="6.57305">
        <ele>47.1</ele>
        <time>2026-03-27T13:44:57Z</time>
      </trkpt>
      <trkpt lat="43.48842" lon="6.57304">
        <ele>47.1</ele>
        <time>2026-03-27T13:44:58Z</time>
      </trkpt>
      <trkpt lat="43.48842" lon="6.57303">
        <ele>47.1</ele>
        <time>2026-03-27T13:44:59Z</time>
      </trkpt>
      <trkpt lat="43.48841" lon="6.57302">
        <ele>47</ele>
        <time>2026-03-27T13:45:00Z</time>
      </trkpt>
      <trkpt lat="43.48841" lon="6.57301">
        <ele>47</ele>
        <time>2026-03-27T13:45:01Z</time>
      </trkpt>
      <trkpt lat="43.4884" lon="6.573">
        <ele>46.9</ele>
        <time>2026-03-27T13:45:02Z</time>
      </trkpt>
      <trkpt lat="43.48839" lon="6.57299">
        <ele>46.8</ele>
        <time>2026-03-27T13:45:03Z</time>
      </trkpt>
      <trkpt lat="43.48838" lon="6.57299">
        <ele>46.7</ele>
        <time>2026-03-27T13:45:04Z</time>
      </trkpt>
      <trkpt lat="43.48837" lon="6.57298">
        <ele>46.6</ele>
        <time>2026-03-27T13:45:05Z</time>
      </trkpt>
      <trkpt lat="43.48836" lon="6.57297">
        <ele>46.6</ele>
        <time>2026-03-27T13:45:06Z</time>
      </trkpt>
      <trkpt lat="43.48835" lon="6.57296">
        <ele>46.6</ele>
        <time>2026-03-27T13:45:07Z</time>
      </trkpt>
      <trkpt lat="43.48833" lon="6.57296">
        <ele>46.6</ele>
        <time>2026-03-27T13:45:08Z</time>
      </trkpt>
      <trkpt lat="43.48832" lon="6.57296">
        <ele>46.6</ele>
        <time>2026-03-27T13:45:09Z</time>
      </trkpt>
      <trkpt lat="43.4883" lon="6.57297">
        <ele>46.6</ele>
        <time>2026-03-27T13:45:10Z</time>
      </trkpt>
      <trkpt lat="43.48829" lon="6.57297">
        <ele>46.6</ele>
        <time>2026-03-27T13:45:11Z</time>
      </trkpt>
      <trkpt lat="43.48828" lon="6.57297">
        <ele>46.5</ele>
        <time>2026-03-27T13:45:12Z</time>
      </trkpt>
      <trkpt lat="43.48827" lon="6.57297">
        <ele>46.5</ele>
        <time>2026-03-27T13:45:13Z</time>
      </trkpt>
      <trkpt lat="43.48825" lon="6.57298">
        <ele>46.5</ele>
        <time>2026-03-27T13:45:14Z</time>
      </trkpt>
      <trkpt lat="43.48824" lon="6.57298">
        <ele>46.5</ele>
        <time>2026-03-27T13:45:15Z</time>
      </trkpt>
      <trkpt lat="43.48824" lon="6.57299">
        <ele>46.5</ele>
        <time>2026-03-27T13:45:16Z</time>
      </trkpt>
      <trkpt lat="43.48822" lon="6.57299">
        <ele>46.6</ele>
        <time>2026-03-27T13:45:17Z</time>
      </trkpt>
      <trkpt lat="43.48821" lon="6.57299">
        <ele>46.6</ele>
        <time>2026-03-27T13:45:18Z</time>
      </trkpt>
      <trkpt lat="43.4882" lon="6.57299">
        <ele>46.5</ele>
        <time>2026-03-27T13:45:19Z</time>
      </trkpt>
      <trkpt lat="43.48819" lon="6.573">
        <ele>46.5</ele>
        <time>2026-03-27T13:45:20Z</time>
      </trkpt>
      <trkpt lat="43.48817" lon="6.573">
        <ele>46.5</ele>
        <time>2026-03-27T13:45:21Z</time>
      </trkpt>
      <trkpt lat="43.48816" lon="6.573">
        <ele>46.5</ele>
        <time>2026-03-27T13:45:22Z</time>
      </trkpt>
      <trkpt lat="43.48815" lon="6.57301">
        <ele>46.5</ele>
        <time>2026-03-27T13:45:23Z</time>
      </trkpt>
      <trkpt lat="43.48814" lon="6.57301">
        <ele>46.4</ele>
        <time>2026-03-27T13:45:24Z</time>
      </trkpt>
      <trkpt lat="43.48813" lon="6.57301">
        <ele>46.4</ele>
        <time>2026-03-27T13:45:25Z</time>
      </trkpt>
      <trkpt lat="43.48812" lon="6.57301">
        <ele>46.3</ele>
        <time>2026-03-27T13:45:26Z</time>
      </trkpt>
      <trkpt lat="43.48811" lon="6.57302">
        <ele>46.2</ele>
        <time>2026-03-27T13:45:27Z</time>
      </trkpt>
      <trkpt lat="43.4881" lon="6.57302">
        <ele>46.1</ele>
        <time>2026-03-27T13:45:28Z</time>
      </trkpt>
      <trkpt lat="43.48808" lon="6.57303">
        <ele>46.1</ele>
        <time>2026-03-27T13:45:29Z</time>
      </trkpt>
      <trkpt lat="43.48807" lon="6.57304">
        <ele>46.1</ele>
        <time>2026-03-27T13:45:30Z</time>
      </trkpt>
      <trkpt lat="43.48806" lon="6.57304">
        <ele>46.1</ele>
        <time>2026-03-27T13:45:31Z</time>
      </trkpt>
      <trkpt lat="43.48804" lon="6.57305">
        <ele>46.1</ele>
        <time>2026-03-27T13:45:32Z</time>
      </trkpt>
      <trkpt lat="43.48803" lon="6.57306">
        <ele>46</ele>
        <time>2026-03-27T13:45:33Z</time>
      </trkpt>
      <trkpt lat="43.48802" lon="6.57307">
        <ele>45.9</ele>
        <time>2026-03-27T13:45:34Z</time>
      </trkpt>
      <trkpt lat="43.48801" lon="6.57308">
        <ele>45.8</ele>
        <time>2026-03-27T13:45:35Z</time>
      </trkpt>
      <trkpt lat="43.488" lon="6.57309">
        <ele>45.7</ele>
        <time>2026-03-27T13:45:36Z</time>
      </trkpt>
      <trkpt lat="43.48799" lon="6.5731">
        <ele>45.7</ele>
        <time>2026-03-27T13:45:37Z</time>
      </trkpt>
      <trkpt lat="43.48799" lon="6.57311">
        <ele>45.7</ele>
        <time>2026-03-27T13:45:38Z</time>
      </trkpt>
      <trkpt lat="43.48798" lon="6.57312">
        <ele>45.7</ele>
        <time>2026-03-27T13:45:39Z</time>
      </trkpt>
      <trkpt lat="43.48797" lon="6.57313">
        <ele>45.7</ele>
        <time>2026-03-27T13:45:40Z</time>
      </trkpt>
      <trkpt lat="43.48796" lon="6.57314">
        <ele>45.7</ele>
        <time>2026-03-27T13:45:41Z</time>
      </trkpt>
      <trkpt lat="43.48795" lon="6.57314">
        <ele>45.7</ele>
        <time>2026-03-27T13:45:42Z</time>
      </trkpt>
      <trkpt lat="43.48794" lon="6.57314">
        <ele>45.7</ele>
        <time>2026-03-27T13:45:43Z</time>
      </trkpt>
      <trkpt lat="43.48793" lon="6.57314">
        <ele>45.7</ele>
        <time>2026-03-27T13:45:44Z</time>
      </trkpt>
      <trkpt lat="43.48792" lon="6.57314">
        <ele>45.6</ele>
        <time>2026-03-27T13:45:45Z</time>
      </trkpt>
      <trkpt lat="43.4879" lon="6.57315">
        <ele>45.5</ele>
        <time>2026-03-27T13:45:46Z</time>
      </trkpt>
      <trkpt lat="43.48789" lon="6.57316">
        <ele>45.6</ele>
        <time>2026-03-27T13:45:47Z</time>
      </trkpt>
      <trkpt lat="43.48788" lon="6.57316">
        <ele>45.7</ele>
        <time>2026-03-27T13:45:48Z</time>
      </trkpt>
      <trkpt lat="43.48787" lon="6.57317">
        <ele>45.8</ele>
        <time>2026-03-27T13:45:49Z</time>
      </trkpt>
      <trkpt lat="43.48786" lon="6.57318">
        <ele>45.9</ele>
        <time>2026-03-27T13:45:50Z</time>
      </trkpt>
      <trkpt lat="43.48785" lon="6.57318">
        <ele>45.9</ele>
        <time>2026-03-27T13:45:51Z</time>
      </trkpt>
      <trkpt lat="43.48784" lon="6.57319">
        <ele>45.9</ele>
        <time>2026-03-27T13:45:52Z</time>
      </trkpt>
      <trkpt lat="43.48783" lon="6.57319">
        <ele>45.9</ele>
        <time>2026-03-27T13:45:53Z</time>
      </trkpt>
      <trkpt lat="43.48782" lon="6.5732">
        <ele>45.9</ele>
        <time>2026-03-27T13:45:54Z</time>
      </trkpt>
      <trkpt lat="43.48781" lon="6.57321">
        <ele>46</ele>
        <time>2026-03-27T13:45:55Z</time>
      </trkpt>
      <trkpt lat="43.4878" lon="6.57321">
        <ele>45.9</ele>
        <time>2026-03-27T13:45:56Z</time>
      </trkpt>
      <trkpt lat="43.48779" lon="6.57322">
        <ele>45.9</ele>
        <time>2026-03-27T13:45:57Z</time>
      </trkpt>
      <trkpt lat="43.48778" lon="6.57323">
        <ele>45.9</ele>
        <time>2026-03-27T13:45:58Z</time>
      </trkpt>
      <trkpt lat="43.48777" lon="6.57323">
        <ele>45.9</ele>
        <time>2026-03-27T13:45:59Z</time>
      </trkpt>
      <trkpt lat="43.48776" lon="6.57324">
        <ele>46</ele>
        <time>2026-03-27T13:46:00Z</time>
      </trkpt>
      <trkpt lat="43.48775" lon="6.57324">
        <ele>45.9</ele>
        <time>2026-03-27T13:46:01Z</time>
      </trkpt>
      <trkpt lat="43.48773" lon="6.57325">
        <ele>45.8</ele>
        <time>2026-03-27T13:46:02Z</time>
      </trkpt>
      <trkpt lat="43.48772" lon="6.57326">
        <ele>45.7</ele>
        <time>2026-03-27T13:46:03Z</time>
      </trkpt>
      <trkpt lat="43.48771" lon="6.57326">
        <ele>45.6</ele>
        <time>2026-03-27T13:46:04Z</time>
      </trkpt>
      <trkpt lat="43.4877" lon="6.57327">
        <ele>45.7</ele>
        <time>2026-03-27T13:46:05Z</time>
      </trkpt>
      <trkpt lat="43.48769" lon="6.57328">
        <ele>45.7</ele>
        <time>2026-03-27T13:46:06Z</time>
      </trkpt>
      <trkpt lat="43.48768" lon="6.57329">
        <ele>45.6</ele>
        <time>2026-03-27T13:46:07Z</time>
      </trkpt>
      <trkpt lat="43.48767" lon="6.5733">
        <ele>45.6</ele>
        <time>2026-03-27T13:46:08Z</time>
      </trkpt>
      <trkpt lat="43.48766" lon="6.5733">
        <ele>45.5</ele>
        <time>2026-03-27T13:46:09Z</time>
      </trkpt>
      <trkpt lat="43.48765" lon="6.57331">
        <ele>45.4</ele>
        <time>2026-03-27T13:46:10Z</time>
      </trkpt>
      <trkpt lat="43.48763" lon="6.57331">
        <ele>45.4</ele>
        <time>2026-03-27T13:46:11Z</time>
      </trkpt>
      <trkpt lat="43.48762" lon="6.57332">
        <ele>45.2</ele>
        <time>2026-03-27T13:46:12Z</time>
      </trkpt>
      <trkpt lat="43.48761" lon="6.57332">
        <ele>45</ele>
        <time>2026-03-27T13:46:13Z</time>
      </trkpt>
      <trkpt lat="43.4876" lon="6.57333">
        <ele>44.9</ele>
        <time>2026-03-27T13:46:14Z</time>
      </trkpt>
      <trkpt lat="43.48759" lon="6.57334">
        <ele>44.9</ele>
        <time>2026-03-27T13:46:15Z</time>
      </trkpt>
      <trkpt lat="43.48758" lon="6.57334">
        <ele>44.8</ele>
        <time>2026-03-27T13:46:16Z</time>
      </trkpt>
      <trkpt lat="43.48757" lon="6.57335">
        <ele>45.1</ele>
        <time>2026-03-27T13:46:17Z</time>
      </trkpt>
      <trkpt lat="43.48756" lon="6.57335">
        <ele>45.1</ele>
        <time>2026-03-27T13:46:18Z</time>
      </trkpt>
      <trkpt lat="43.48755" lon="6.57336">
        <ele>45.2</ele>
        <time>2026-03-27T13:46:19Z</time>
      </trkpt>
      <trkpt lat="43.48753" lon="6.57336">
        <ele>45.2</ele>
        <time>2026-03-27T13:46:20Z</time>
      </trkpt>
      <trkpt lat="43.48752" lon="6.57336">
        <ele>45.2</ele>
        <time>2026-03-27T13:46:21Z</time>
      </trkpt>
      <trkpt lat="43.48751" lon="6.57337">
        <ele>45.3</ele>
        <time>2026-03-27T13:46:22Z</time>
      </trkpt>
      <trkpt lat="43.4875" lon="6.57337">
        <ele>45.3</ele>
        <time>2026-03-27T13:46:23Z</time>
      </trkpt>
      <trkpt lat="43.48749" lon="6.57337">
        <ele>45.3</ele>
        <time>2026-03-27T13:46:24Z</time>
      </trkpt>
      <trkpt lat="43.48748" lon="6.57338">
        <ele>45.3</ele>
        <time>2026-03-27T13:46:25Z</time>
      </trkpt>
      <trkpt lat="43.48747" lon="6.57338">
        <ele>45.3</ele>
        <time>2026-03-27T13:46:26Z</time>
      </trkpt>
      <trkpt lat="43.48746" lon="6.57338">
        <ele>45.3</ele>
        <time>2026-03-27T13:46:27Z</time>
      </trkpt>
      <trkpt lat="43.48745" lon="6.57339">
        <ele>45.3</ele>
        <time>2026-03-27T13:46:28Z</time>
      </trkpt>
      <trkpt lat="43.48744" lon="6.57339">
        <ele>45.3</ele>
        <time>2026-03-27T13:46:29Z</time>
      </trkpt>
      <trkpt lat="43.48743" lon="6.57339">
        <ele>45.3</ele>
        <time>2026-03-27T13:46:30Z</time>
      </trkpt>
      <trkpt lat="43.48742" lon="6.5734">
        <ele>45.3</ele>
        <time>2026-03-27T13:46:31Z</time>
      </trkpt>
      <trkpt lat="43.48741" lon="6.57341">
        <ele>45.3</ele>
        <time>2026-03-27T13:46:32Z</time>
      </trkpt>
      <trkpt lat="43.4874" lon="6.57342">
        <ele>45.3</ele>
        <time>2026-03-27T13:46:33Z</time>
      </trkpt>
      <trkpt lat="43.48738" lon="6.57342">
        <ele>45.2</ele>
        <time>2026-03-27T13:46:34Z</time>
      </trkpt>
      <trkpt lat="43.48737" lon="6.57343">
        <ele>45.2</ele>
        <time>2026-03-27T13:46:35Z</time>
      </trkpt>
      <trkpt lat="43.48736" lon="6.57344">
        <ele>45.2</ele>
        <time>2026-03-27T13:46:36Z</time>
      </trkpt>
      <trkpt lat="43.48735" lon="6.57344">
        <ele>45.1</ele>
        <time>2026-03-27T13:46:37Z</time>
      </trkpt>
      <trkpt lat="43.48734" lon="6.57345">
        <ele>44.9</ele>
        <time>2026-03-27T13:46:38Z</time>
      </trkpt>
      <trkpt lat="43.48733" lon="6.57345">
        <ele>44.8</ele>
        <time>2026-03-27T13:46:39Z</time>
      </trkpt>
      <trkpt lat="43.48731" lon="6.57346">
        <ele>44.8</ele>
        <time>2026-03-27T13:46:40Z</time>
      </trkpt>
      <trkpt lat="43.4873" lon="6.57346">
        <ele>44.7</ele>
        <time>2026-03-27T13:46:41Z</time>
      </trkpt>
      <trkpt lat="43.48729" lon="6.57347">
        <ele>44.7</ele>
        <time>2026-03-27T13:46:42Z</time>
      </trkpt>
      <trkpt lat="43.48728" lon="6.57348">
        <ele>44.7</ele>
        <time>2026-03-27T13:46:43Z</time>
      </trkpt>
      <trkpt lat="43.48728" lon="6.57349">
        <ele>44.7</ele>
        <time>2026-03-27T13:46:44Z</time>
      </trkpt>
      <trkpt lat="43.48727" lon="6.57351">
        <ele>44.7</ele>
        <time>2026-03-27T13:46:45Z</time>
      </trkpt>
      <trkpt lat="43.48726" lon="6.57352">
        <ele>44.7</ele>
        <time>2026-03-27T13:46:46Z</time>
      </trkpt>
      <trkpt lat="43.48725" lon="6.57353">
        <ele>44.7</ele>
        <time>2026-03-27T13:46:47Z</time>
      </trkpt>
      <trkpt lat="43.48723" lon="6.57354">
        <ele>44.6</ele>
        <time>2026-03-27T13:46:48Z</time>
      </trkpt>
      <trkpt lat="43.48723" lon="6.57356">
        <ele>44.5</ele>
        <time>2026-03-27T13:46:49Z</time>
      </trkpt>
      <trkpt lat="43.48722" lon="6.57357">
        <ele>44.5</ele>
        <time>2026-03-27T13:46:50Z</time>
      </trkpt>
      <trkpt lat="43.48721" lon="6.57358">
        <ele>44.5</ele>
        <time>2026-03-27T13:46:51Z</time>
      </trkpt>
      <trkpt lat="43.48721" lon="6.57359">
        <ele>44.5</ele>
        <time>2026-03-27T13:46:52Z</time>
      </trkpt>
      <trkpt lat="43.4872" lon="6.57359">
        <ele>44.5</ele>
        <time>2026-03-27T13:46:53Z</time>
      </trkpt>
      <trkpt lat="43.4872" lon="6.5736">
        <ele>44.4</ele>
        <time>2026-03-27T13:46:54Z</time>
      </trkpt>
      <trkpt lat="43.48719" lon="6.57361">
        <ele>44.4</ele>
        <time>2026-03-27T13:46:55Z</time>
      </trkpt>
      <trkpt lat="43.48718" lon="6.57362">
        <ele>44.4</ele>
        <time>2026-03-27T13:46:56Z</time>
      </trkpt>
      <trkpt lat="43.48717" lon="6.57364">
        <ele>44.3</ele>
        <time>2026-03-27T13:46:57Z</time>
      </trkpt>
      <trkpt lat="43.48717" lon="6.57365">
        <ele>44.3</ele>
        <time>2026-03-27T13:46:58Z</time>
      </trkpt>
      <trkpt lat="43.48716" lon="6.57367">
        <ele>44.2</ele>
        <time>2026-03-27T13:46:59Z</time>
      </trkpt>
      <trkpt lat="43.48716" lon="6.57368">
        <ele>44.1</ele>
        <time>2026-03-27T13:47:00Z</time>
      </trkpt>
      <trkpt lat="43.48715" lon="6.5737">
        <ele>44</ele>
        <time>2026-03-27T13:47:01Z</time>
      </trkpt>
      <trkpt lat="43.48715" lon="6.57371">
        <ele>43.9</ele>
        <time>2026-03-27T13:47:02Z</time>
      </trkpt>
      <trkpt lat="43.48714" lon="6.57373">
        <ele>43.9</ele>
        <time>2026-03-27T13:47:03Z</time>
      </trkpt>
      <trkpt lat="43.48714" lon="6.57374">
        <ele>43.8</ele>
        <time>2026-03-27T13:47:04Z</time>
      </trkpt>
      <trkpt lat="43.48713" lon="6.57375">
        <ele>43.5</ele>
        <time>2026-03-27T13:47:05Z</time>
      </trkpt>
      <trkpt lat="43.48713" lon="6.57376">
        <ele>43.4</ele>
        <time>2026-03-27T13:47:06Z</time>
      </trkpt>
      <trkpt lat="43.48712" lon="6.57377">
        <ele>43.3</ele>
        <time>2026-03-27T13:47:07Z</time>
      </trkpt>
      <trkpt lat="43.48712" lon="6.57378">
        <ele>43.1</ele>
        <time>2026-03-27T13:47:08Z</time>
      </trkpt>
      <trkpt lat="43.48712" lon="6.57379">
        <ele>43</ele>
        <time>2026-03-27T13:47:09Z</time>
      </trkpt>
      <trkpt lat="43.48711" lon="6.57381">
        <ele>42.9</ele>
        <time>2026-03-27T13:47:10Z</time>
      </trkpt>
      <trkpt lat="43.48711" lon="6.57383">
        <ele>42.9</ele>
        <time>2026-03-27T13:47:11Z</time>
      </trkpt>
      <trkpt lat="43.48711" lon="6.57384">
        <ele>42.8</ele>
        <time>2026-03-27T13:47:12Z</time>
      </trkpt>
      <trkpt lat="43.48711" lon="6.57386">
        <ele>42.7</ele>
        <time>2026-03-27T13:47:13Z</time>
      </trkpt>
      <trkpt lat="43.4871" lon="6.57388">
        <ele>42.6</ele>
        <time>2026-03-27T13:47:14Z</time>
      </trkpt>
      <trkpt lat="43.4871" lon="6.5739">
        <ele>42.6</ele>
        <time>2026-03-27T13:47:15Z</time>
      </trkpt>
      <trkpt lat="43.4871" lon="6.57391">
        <ele>42.6</ele>
        <time>2026-03-27T13:47:16Z</time>
      </trkpt>
      <trkpt lat="43.4871" lon="6.57393">
        <ele>42.5</ele>
        <time>2026-03-27T13:47:17Z</time>
      </trkpt>
      <trkpt lat="43.4871" lon="6.57395">
        <ele>42.6</ele>
        <time>2026-03-27T13:47:18Z</time>
      </trkpt>
      <trkpt lat="43.4871" lon="6.57397">
        <ele>42.6</ele>
        <time>2026-03-27T13:47:19Z</time>
      </trkpt>
      <trkpt lat="43.4871" lon="6.57398">
        <ele>42.5</ele>
        <time>2026-03-27T13:47:20Z</time>
      </trkpt>
      <trkpt lat="43.48709" lon="6.574">
        <ele>42.5</ele>
        <time>2026-03-27T13:47:21Z</time>
      </trkpt>
      <trkpt lat="43.48709" lon="6.57401">
        <ele>42.5</ele>
        <time>2026-03-27T13:47:22Z</time>
      </trkpt>
      <trkpt lat="43.48709" lon="6.57403">
        <ele>42.5</ele>
        <time>2026-03-27T13:47:23Z</time>
      </trkpt>
      <trkpt lat="43.48709" lon="6.57405">
        <ele>42.5</ele>
        <time>2026-03-27T13:47:24Z</time>
      </trkpt>
      <trkpt lat="43.48708" lon="6.57406">
        <ele>42.5</ele>
        <time>2026-03-27T13:47:25Z</time>
      </trkpt>
      <trkpt lat="43.48708" lon="6.57407">
        <ele>42.5</ele>
        <time>2026-03-27T13:47:26Z</time>
      </trkpt>
      <trkpt lat="43.48707" lon="6.57409">
        <ele>42.5</ele>
        <time>2026-03-27T13:47:27Z</time>
      </trkpt>
      <trkpt lat="43.48707" lon="6.57411">
        <ele>42.5</ele>
        <time>2026-03-27T13:47:28Z</time>
      </trkpt>
      <trkpt lat="43.48706" lon="6.57411">
        <ele>42.5</ele>
        <time>2026-03-27T13:47:29Z</time>
      </trkpt>
      <trkpt lat="43.48705" lon="6.57412">
        <ele>42.5</ele>
        <time>2026-03-27T13:47:30Z</time>
      </trkpt>
      <trkpt lat="43.48704" lon="6.57413">
        <ele>42.3</ele>
        <time>2026-03-27T13:47:31Z</time>
      </trkpt>
      <trkpt lat="43.48703" lon="6.57414">
        <ele>42.3</ele>
        <time>2026-03-27T13:47:32Z</time>
      </trkpt>
      <trkpt lat="43.48703" lon="6.57415">
        <ele>42.2</ele>
        <time>2026-03-27T13:47:33Z</time>
      </trkpt>
      <trkpt lat="43.48702" lon="6.57415">
        <ele>42.1</ele>
        <time>2026-03-27T13:47:34Z</time>
      </trkpt>
      <trkpt lat="43.48701" lon="6.57416">
        <ele>42</ele>
        <time>2026-03-27T13:47:35Z</time>
      </trkpt>
      <trkpt lat="43.487" lon="6.57417">
        <ele>42.1</ele>
        <time>2026-03-27T13:47:36Z</time>
      </trkpt>
      <trkpt lat="43.487" lon="6.57417">
        <ele>42.1</ele>
        <time>2026-03-27T13:47:37Z</time>
      </trkpt>
      <trkpt lat="43.48699" lon="6.57418">
        <ele>42.1</ele>
        <time>2026-03-27T13:47:38Z</time>
      </trkpt>
      <trkpt lat="43.48698" lon="6.57418">
        <ele>42</ele>
        <time>2026-03-27T13:47:39Z</time>
      </trkpt>
      <trkpt lat="43.48698" lon="6.57418">
        <ele>42</ele>
        <time>2026-03-27T13:47:40Z</time>
      </trkpt>
      <trkpt lat="43.48698" lon="6.57418">
        <ele>42</ele>
        <time>2026-03-27T13:47:41Z</time>
      </trkpt>
      <trkpt lat="43.48697" lon="6.57418">
        <ele>42.3</ele>
        <time>2026-03-27T13:47:42Z</time>
      </trkpt>
      <trkpt lat="43.48696" lon="6.57417">
        <ele>42.4</ele>
        <time>2026-03-27T13:47:43Z</time>
      </trkpt>
      <trkpt lat="43.48696" lon="6.57416">
        <ele>42.5</ele>
        <time>2026-03-27T13:47:44Z</time>
      </trkpt>
      <trkpt lat="43.48695" lon="6.57415">
        <ele>42.6</ele>
        <time>2026-03-27T13:47:45Z</time>
      </trkpt>
      <trkpt lat="43.48694" lon="6.57414">
        <ele>42.7</ele>
        <time>2026-03-27T13:47:46Z</time>
      </trkpt>
      <trkpt lat="43.48693" lon="6.57413">
        <ele>42.8</ele>
        <time>2026-03-27T13:47:47Z</time>
      </trkpt>
      <trkpt lat="43.48693" lon="6.57412">
        <ele>42.9</ele>
        <time>2026-03-27T13:47:48Z</time>
      </trkpt>
      <trkpt lat="43.48692" lon="6.57412">
        <ele>43</ele>
        <time>2026-03-27T13:47:49Z</time>
      </trkpt>
      <trkpt lat="43.48691" lon="6.57411">
        <ele>43.1</ele>
        <time>2026-03-27T13:47:50Z</time>
      </trkpt>
      <trkpt lat="43.4869" lon="6.5741">
        <ele>43.1</ele>
        <time>2026-03-27T13:47:51Z</time>
      </trkpt>
      <trkpt lat="43.4869" lon="6.57409">
        <ele>43.2</ele>
        <time>2026-03-27T13:47:52Z</time>
      </trkpt>
      <trkpt lat="43.48689" lon="6.57407">
        <ele>43.1</ele>
        <time>2026-03-27T13:47:53Z</time>
      </trkpt>
      <trkpt lat="43.4869" lon="6.57406">
        <ele>43.2</ele>
        <time>2026-03-27T13:47:54Z</time>
      </trkpt>
      <trkpt lat="43.48689" lon="6.57405">
        <ele>43.2</ele>
        <time>2026-03-27T13:47:55Z</time>
      </trkpt>
      <trkpt lat="43.48688" lon="6.57404">
        <ele>43.3</ele>
        <time>2026-03-27T13:47:56Z</time>
      </trkpt>
      <trkpt lat="43.48687" lon="6.57403">
        <ele>43.4</ele>
        <time>2026-03-27T13:47:57Z</time>
      </trkpt>
      <trkpt lat="43.48687" lon="6.57403">
        <ele>43.3</ele>
        <time>2026-03-27T13:47:58Z</time>
      </trkpt>
      <trkpt lat="43.48686" lon="6.57402">
        <ele>43.3</ele>
        <time>2026-03-27T13:47:59Z</time>
      </trkpt>
      <trkpt lat="43.48685" lon="6.57401">
        <ele>43.4</ele>
        <time>2026-03-27T13:48:00Z</time>
      </trkpt>
      <trkpt lat="43.48684" lon="6.57401">
        <ele>43.4</ele>
        <time>2026-03-27T13:48:01Z</time>
      </trkpt>
      <trkpt lat="43.48683" lon="6.574">
        <ele>43.4</ele>
        <time>2026-03-27T13:48:02Z</time>
      </trkpt>
      <trkpt lat="43.48681" lon="6.574">
        <ele>43.8</ele>
        <time>2026-03-27T13:48:03Z</time>
      </trkpt>
      <trkpt lat="43.4868" lon="6.57399">
        <ele>43.9</ele>
        <time>2026-03-27T13:48:04Z</time>
      </trkpt>
      <trkpt lat="43.48679" lon="6.57398">
        <ele>43.9</ele>
        <time>2026-03-27T13:48:05Z</time>
      </trkpt>
      <trkpt lat="43.48678" lon="6.57398">
        <ele>44</ele>
        <time>2026-03-27T13:48:06Z</time>
      </trkpt>
      <trkpt lat="43.48677" lon="6.57397">
        <ele>44</ele>
        <time>2026-03-27T13:48:07Z</time>
      </trkpt>
      <trkpt lat="43.48676" lon="6.57396">
        <ele>44</ele>
        <time>2026-03-27T13:48:08Z</time>
      </trkpt>
      <trkpt lat="43.48675" lon="6.57396">
        <ele>44.1</ele>
        <time>2026-03-27T13:48:09Z</time>
      </trkpt>
      <trkpt lat="43.48674" lon="6.57395">
        <ele>44.1</ele>
        <time>2026-03-27T13:48:10Z</time>
      </trkpt>
      <trkpt lat="43.48673" lon="6.57395">
        <ele>44.2</ele>
        <time>2026-03-27T13:48:11Z</time>
      </trkpt>
      <trkpt lat="43.48672" lon="6.57394">
        <ele>44.4</ele>
        <time>2026-03-27T13:48:12Z</time>
      </trkpt>
      <trkpt lat="43.48671" lon="6.57394">
        <ele>44.4</ele>
        <time>2026-03-27T13:48:13Z</time>
      </trkpt>
      <trkpt lat="43.4867" lon="6.57392">
        <ele>44.4</ele>
        <time>2026-03-27T13:48:14Z</time>
      </trkpt>
      <trkpt lat="43.48669" lon="6.57391">
        <ele>44.5</ele>
        <time>2026-03-27T13:48:15Z</time>
      </trkpt>
      <trkpt lat="43.48668" lon="6.5739">
        <ele>44.5</ele>
        <time>2026-03-27T13:48:16Z</time>
      </trkpt>
      <trkpt lat="43.48667" lon="6.5739">
        <ele>44.6</ele>
        <time>2026-03-27T13:48:17Z</time>
      </trkpt>
      <trkpt lat="43.48666" lon="6.57389">
        <ele>44.6</ele>
        <time>2026-03-27T13:48:18Z</time>
      </trkpt>
      <trkpt lat="43.48664" lon="6.57388">
        <ele>44.7</ele>
        <time>2026-03-27T13:48:19Z</time>
      </trkpt>
      <trkpt lat="43.48664" lon="6.57388">
        <ele>44.6</ele>
        <time>2026-03-27T13:48:20Z</time>
      </trkpt>
      <trkpt lat="43.48663" lon="6.57387">
        <ele>44.6</ele>
        <time>2026-03-27T13:48:21Z</time>
      </trkpt>
      <trkpt lat="43.48662" lon="6.57386">
        <ele>44.6</ele>
        <time>2026-03-27T13:48:22Z</time>
      </trkpt>
      <trkpt lat="43.48661" lon="6.57386">
        <ele>44.6</ele>
        <time>2026-03-27T13:48:23Z</time>
      </trkpt>
      <trkpt lat="43.48661" lon="6.57386">
        <ele>44.6</ele>
        <time>2026-03-27T13:48:24Z</time>
      </trkpt>
      <trkpt lat="43.4866" lon="6.57386">
        <ele>44.7</ele>
        <time>2026-03-27T13:48:25Z</time>
      </trkpt>
      <trkpt lat="43.4866" lon="6.57385">
        <ele>44.8</ele>
        <time>2026-03-27T13:48:26Z</time>
      </trkpt>
      <trkpt lat="43.48659" lon="6.57384">
        <ele>44.8</ele>
        <time>2026-03-27T13:48:27Z</time>
      </trkpt>
      <trkpt lat="43.48658" lon="6.57383">
        <ele>44.8</ele>
        <time>2026-03-27T13:48:28Z</time>
      </trkpt>
      <trkpt lat="43.48657" lon="6.57381">
        <ele>44.8</ele>
        <time>2026-03-27T13:48:29Z</time>
      </trkpt>
      <trkpt lat="43.48657" lon="6.5738">
        <ele>44.8</ele>
        <time>2026-03-27T13:48:30Z</time>
      </trkpt>
      <trkpt lat="43.48655" lon="6.57379">
        <ele>44.8</ele>
        <time>2026-03-27T13:48:31Z</time>
      </trkpt>
      <trkpt lat="43.48654" lon="6.57377">
        <ele>44.7</ele>
        <time>2026-03-27T13:48:32Z</time>
      </trkpt>
      <trkpt lat="43.48653" lon="6.57376">
        <ele>44.7</ele>
        <time>2026-03-27T13:48:33Z</time>
      </trkpt>
      <trkpt lat="43.48652" lon="6.57376">
        <ele>44.7</ele>
        <time>2026-03-27T13:48:34Z</time>
      </trkpt>
      <trkpt lat="43.48651" lon="6.57375">
        <ele>44.6</ele>
        <time>2026-03-27T13:48:35Z</time>
      </trkpt>
      <trkpt lat="43.48651" lon="6.57375">
        <ele>44.6</ele>
        <time>2026-03-27T13:48:36Z</time>
      </trkpt>
      <trkpt lat="43.4865" lon="6.57374">
        <ele>44.7</ele>
        <time>2026-03-27T13:48:37Z</time>
      </trkpt>
      <trkpt lat="43.4865" lon="6.57374">
        <ele>44.7</ele>
        <time>2026-03-27T13:48:38Z</time>
      </trkpt>
      <trkpt lat="43.48649" lon="6.57374">
        <ele>44.6</ele>
        <time>2026-03-27T13:48:39Z</time>
      </trkpt>
      <trkpt lat="43.48649" lon="6.57373">
        <ele>44.6</ele>
        <time>2026-03-27T13:48:40Z</time>
      </trkpt>
      <trkpt lat="43.48649" lon="6.57373">
        <ele>44.6</ele>
        <time>2026-03-27T13:48:41Z</time>
      </trkpt>
      <trkpt lat="43.48649" lon="6.57373">
        <ele>44.7</ele>
        <time>2026-03-27T13:48:42Z</time>
      </trkpt>
      <trkpt lat="43.48649" lon="6.57372">
        <ele>44.7</ele>
        <time>2026-03-27T13:48:43Z</time>
      </trkpt>
      <trkpt lat="43.48649" lon="6.57372">
        <ele>44.7</ele>
        <time>2026-03-27T13:48:44Z</time>
      </trkpt>
      <trkpt lat="43.48648" lon="6.57372">
        <ele>44.8</ele>
        <time>2026-03-27T13:48:45Z</time>
      </trkpt>
      <trkpt lat="43.48647" lon="6.57372">
        <ele>44.8</ele>
        <time>2026-03-27T13:48:46Z</time>
      </trkpt>
      <trkpt lat="43.48647" lon="6.57372">
        <ele>45</ele>
        <time>2026-03-27T13:48:47Z</time>
      </trkpt>
      <trkpt lat="43.48647" lon="6.57372">
        <ele>45.1</ele>
        <time>2026-03-27T13:48:48Z</time>
      </trkpt>
      <trkpt lat="43.48646" lon="6.57372">
        <ele>45.1</ele>
        <time>2026-03-27T13:48:49Z</time>
      </trkpt>
      <trkpt lat="43.48646" lon="6.57372">
        <ele>45.1</ele>
        <time>2026-03-27T13:48:50Z</time>
      </trkpt>
      <trkpt lat="43.48646" lon="6.57373">
        <ele>45.2</ele>
        <time>2026-03-27T13:48:51Z</time>
      </trkpt>
      <trkpt lat="43.48645" lon="6.57373">
        <ele>45.2</ele>
        <time>2026-03-27T13:48:52Z</time>
      </trkpt>
      <trkpt lat="43.48645" lon="6.57373">
        <ele>45.2</ele>
        <time>2026-03-27T13:48:53Z</time>
      </trkpt>
      <trkpt lat="43.48645" lon="6.57373">
        <ele>45.2</ele>
        <time>2026-03-27T13:48:54Z</time>
      </trkpt>
      <trkpt lat="43.48645" lon="6.57373">
        <ele>45.3</ele>
        <time>2026-03-27T13:48:55Z</time>
      </trkpt>
      <trkpt lat="43.48644" lon="6.57373">
        <ele>45.3</ele>
        <time>2026-03-27T13:48:56Z</time>
      </trkpt>
      <trkpt lat="43.48644" lon="6.57373">
        <ele>45.3</ele>
        <time>2026-03-27T13:48:57Z</time>
      </trkpt>
      <trkpt lat="43.48644" lon="6.57373">
        <ele>45.2</ele>
        <time>2026-03-27T13:48:58Z</time>
      </trkpt>
      <trkpt lat="43.48644" lon="6.57373">
        <ele>45.2</ele>
        <time>2026-03-27T13:48:59Z</time>
      </trkpt>
      <trkpt lat="43.48644" lon="6.57373">
        <ele>45.2</ele>
        <time>2026-03-27T13:49:00Z</time>
      </trkpt>
      <trkpt lat="43.48644" lon="6.57373">
        <ele>45.1</ele>
        <time>2026-03-27T13:49:01Z</time>
      </trkpt>
      <trkpt lat="43.48644" lon="6.57373">
        <ele>45.2</ele>
        <time>2026-03-27T13:49:02Z</time>
      </trkpt>
      <trkpt lat="43.48644" lon="6.57373">
        <ele>45.2</ele>
        <time>2026-03-27T13:49:03Z</time>
      </trkpt>
      <trkpt lat="43.48643" lon="6.57373">
        <ele>45.2</ele>
        <time>2026-03-27T13:49:04Z</time>
      </trkpt>
      <trkpt lat="43.48643" lon="6.57373">
        <ele>45.3</ele>
        <time>2026-03-27T13:49:05Z</time>
      </trkpt>
      <trkpt lat="43.48643" lon="6.57373">
        <ele>45.2</ele>
        <time>2026-03-27T13:49:06Z</time>
      </trkpt>
      <trkpt lat="43.48643" lon="6.57373">
        <ele>45.1</ele>
        <time>2026-03-27T13:49:07Z</time>
      </trkpt>
      <trkpt lat="43.48643" lon="6.57373">
        <ele>45</ele>
        <time>2026-03-27T13:49:08Z</time>
      </trkpt>
      <trkpt lat="43.48643" lon="6.57373">
        <ele>45</ele>
        <time>2026-03-27T13:49:09Z</time>
      </trkpt>
      <trkpt lat="43.48643" lon="6.57373">
        <ele>44.9</ele>
        <time>2026-03-27T13:49:10Z</time>
      </trkpt>
      <trkpt lat="43.48643" lon="6.57373">
        <ele>44.8</ele>
        <time>2026-03-27T13:49:11Z</time>
      </trkpt>
      <trkpt lat="43.48643" lon="6.57373">
        <ele>44.8</ele>
        <time>2026-03-27T13:49:12Z</time>
      </trkpt>
      <trkpt lat="43.48643" lon="6.57373">
        <ele>44.9</ele>
        <time>2026-03-27T13:49:13Z</time>
      </trkpt>
      <trkpt lat="43.48643" lon="6.57373">
        <ele>45</ele>
        <time>2026-03-27T13:49:14Z</time>
      </trkpt>
      <trkpt lat="43.48643" lon="6.57373">
        <ele>44.9</ele>
        <time>2026-03-27T13:49:15Z</time>
      </trkpt>
      <trkpt lat="43.48643" lon="6.57373">
        <ele>44.9</ele>
        <time>2026-03-27T13:49:16Z</time>
      </trkpt>
      <trkpt lat="43.48643" lon="6.57373">
        <ele>44.9</ele>
        <time>2026-03-27T13:49:17Z</time>
      </trkpt>
      <trkpt lat="43.48643" lon="6.57373">
        <ele>44.8</ele>
        <time>2026-03-27T13:49:18Z</time>
      </trkpt>
      <trkpt lat="43.48643" lon="6.57373">
        <ele>44.8</ele>
        <time>2026-03-27T13:49:19Z</time>
      </trkpt>
      <trkpt lat="43.48642" lon="6.57373">
        <ele>44.7</ele>
        <time>2026-03-27T13:49:20Z</time>
      </trkpt>
      <trkpt lat="43.48642" lon="6.57373">
        <ele>44.7</ele>
        <time>2026-03-27T13:49:21Z</time>
      </trkpt>
      <trkpt lat="43.48642" lon="6.57373">
        <ele>44.7</ele>
        <time>2026-03-27T13:49:22Z</time>
      </trkpt>
      <trkpt lat="43.48642" lon="6.57373">
        <ele>44.6</ele>
        <time>2026-03-27T13:49:23Z</time>
      </trkpt>
      <trkpt lat="43.48642" lon="6.57373">
        <ele>44.6</ele>
        <time>2026-03-27T13:49:24Z</time>
      </trkpt>
      <trkpt lat="43.48642" lon="6.57373">
        <ele>44.7</ele>
        <time>2026-03-27T13:49:25Z</time>
      </trkpt>
      <trkpt lat="43.48642" lon="6.57373">
        <ele>44.7</ele>
        <time>2026-03-27T13:49:26Z</time>
      </trkpt>
      <trkpt lat="43.48642" lon="6.57373">
        <ele>44.8</ele>
        <time>2026-03-27T13:49:27Z</time>
      </trkpt>
      <trkpt lat="43.48642" lon="6.57373">
        <ele>44.8</ele>
        <time>2026-03-27T13:49:28Z</time>
      </trkpt>
      <trkpt lat="43.48642" lon="6.57373">
        <ele>44.8</ele>
        <time>2026-03-27T13:49:29Z</time>
      </trkpt>
      <trkpt lat="43.48642" lon="6.57373">
        <ele>44.8</ele>
        <time>2026-03-27T13:49:30Z</time>
      </trkpt>
      <trkpt lat="43.48642" lon="6.57373">
        <ele>44.7</ele>
        <time>2026-03-27T13:49:31Z</time>
      </trkpt>
      <trkpt lat="43.48641" lon="6.57374">
        <ele>44.7</ele>
        <time>2026-03-27T13:49:32Z</time>
      </trkpt>
      <trkpt lat="43.48641" lon="6.57373">
        <ele>44.7</ele>
        <time>2026-03-27T13:49:33Z</time>
      </trkpt>
      <trkpt lat="43.48642" lon="6.57373">
        <ele>44.6</ele>
        <time>2026-03-27T13:49:34Z</time>
      </trkpt>
      <trkpt lat="43.48642" lon="6.57373">
        <ele>44.6</ele>
        <time>2026-03-27T13:49:35Z</time>
      </trkpt>
      <trkpt lat="43.48642" lon="6.57373">
        <ele>44.6</ele>
        <time>2026-03-27T13:49:36Z</time>
      </trkpt>
      <trkpt lat="43.48642" lon="6.57373">
        <ele>44.6</ele>
        <time>2026-03-27T13:49:37Z</time>
      </trkpt>
      <trkpt lat="43.48642" lon="6.57373">
        <ele>44.6</ele>
        <time>2026-03-27T13:49:38Z</time>
      </trkpt>
      <trkpt lat="43.48641" lon="6.57373">
        <ele>44.6</ele>
        <time>2026-03-27T13:49:39Z</time>
      </trkpt>
      <trkpt lat="43.48641" lon="6.57373">
        <ele>44.6</ele>
        <time>2026-03-27T13:49:40Z</time>
      </trkpt>
      <trkpt lat="43.48641" lon="6.57373">
        <ele>44.5</ele>
        <time>2026-03-27T13:49:41Z</time>
      </trkpt>
      <trkpt lat="43.48641" lon="6.57373">
        <ele>44.5</ele>
        <time>2026-03-27T13:49:42Z</time>
      </trkpt>
      <trkpt lat="43.48641" lon="6.57373">
        <ele>44.6</ele>
        <time>2026-03-27T13:49:43Z</time>
      </trkpt>
      <trkpt lat="43.48641" lon="6.57373">
        <ele>44.6</ele>
        <time>2026-03-27T13:49:44Z</time>
      </trkpt>
      <trkpt lat="43.48641" lon="6.57373">
        <ele>44.6</ele>
        <time>2026-03-27T13:49:45Z</time>
      </trkpt>
      <trkpt lat="43.48641" lon="6.57373">
        <ele>44.6</ele>
        <time>2026-03-27T13:49:46Z</time>
      </trkpt>
      <trkpt lat="43.48641" lon="6.57373">
        <ele>44.6</ele>
        <time>2026-03-27T13:49:47Z</time>
      </trkpt>
      <trkpt lat="43.48641" lon="6.57373">
        <ele>44.7</ele>
        <time>2026-03-27T13:49:48Z</time>
      </trkpt>
      <trkpt lat="43.48641" lon="6.57373">
        <ele>44.6</ele>
        <time>2026-03-27T13:49:49Z</time>
      </trkpt>
      <trkpt lat="43.48641" lon="6.57373">
        <ele>44.6</ele>
        <time>2026-03-27T13:49:50Z</time>
      </trkpt>
      <trkpt lat="43.48641" lon="6.57373">
        <ele>44.5</ele>
        <time>2026-03-27T13:49:51Z</time>
      </trkpt>
      <trkpt lat="43.48641" lon="6.57373">
        <ele>44.5</ele>
        <time>2026-03-27T13:49:52Z</time>
      </trkpt>
      <trkpt lat="43.48641" lon="6.57373">
        <ele>44.4</ele>
        <time>2026-03-27T13:49:53Z</time>
      </trkpt>
      <trkpt lat="43.48641" lon="6.57373">
        <ele>44.4</ele>
        <time>2026-03-27T13:49:54Z</time>
      </trkpt>
      <trkpt lat="43.48641" lon="6.57372">
        <ele>44.4</ele>
        <time>2026-03-27T13:49:55Z</time>
      </trkpt>
      <trkpt lat="43.48641" lon="6.57372">
        <ele>44.4</ele>
        <time>2026-03-27T13:49:56Z</time>
      </trkpt>
      <trkpt lat="43.48641" lon="6.57372">
        <ele>44.4</ele>
        <time>2026-03-27T13:49:57Z</time>
      </trkpt>
      <trkpt lat="43.48641" lon="6.57372">
        <ele>44.3</ele>
        <time>2026-03-27T13:49:58Z</time>
      </trkpt>
      <trkpt lat="43.48641" lon="6.57372">
        <ele>44.2</ele>
        <time>2026-03-27T13:49:59Z</time>
      </trkpt>
      <trkpt lat="43.48641" lon="6.57372">
        <ele>44.1</ele>
        <time>2026-03-27T13:50:00Z</time>
      </trkpt>
      <trkpt lat="43.48641" lon="6.57372">
        <ele>44.1</ele>
        <time>2026-03-27T13:50:01Z</time>
      </trkpt>
      <trkpt lat="43.48641" lon="6.57372">
        <ele>44.1</ele>
        <time>2026-03-27T13:50:02Z</time>
      </trkpt>
      <trkpt lat="43.48641" lon="6.57372">
        <ele>44.1</ele>
        <time>2026-03-27T13:50:03Z</time>
      </trkpt>
      <trkpt lat="43.48641" lon="6.57372">
        <ele>44.2</ele>
        <time>2026-03-27T13:50:04Z</time>
      </trkpt>
      <trkpt lat="43.48641" lon="6.57372">
        <ele>44.2</ele>
        <time>2026-03-27T13:50:05Z</time>
      </trkpt>
      <trkpt lat="43.48641" lon="6.57372">
        <ele>44.3</ele>
        <time>2026-03-27T13:50:06Z</time>
      </trkpt>
      <trkpt lat="43.48641" lon="6.57372">
        <ele>44.4</ele>
        <time>2026-03-27T13:50:07Z</time>
      </trkpt>
      <trkpt lat="43.48641" lon="6.57372">
        <ele>44.5</ele>
        <time>2026-03-27T13:50:08Z</time>
      </trkpt>
      <trkpt lat="43.48641" lon="6.57372">
        <ele>44.5</ele>
        <time>2026-03-27T13:50:09Z</time>
      </trkpt>
      <trkpt lat="43.48641" lon="6.57373">
        <ele>44.5</ele>
        <time>2026-03-27T13:50:10Z</time>
      </trkpt>
      <trkpt lat="43.48641" lon="6.57372">
        <ele>44.5</ele>
        <time>2026-03-27T13:50:11Z</time>
      </trkpt>
      <trkpt lat="43.48641" lon="6.57372">
        <ele>44.5</ele>
        <time>2026-03-27T13:50:12Z</time>
      </trkpt>
      <trkpt lat="43.48641" lon="6.57373">
        <ele>44.5</ele>
        <time>2026-03-27T13:50:13Z</time>
      </trkpt>
      <trkpt lat="43.48641" lon="6.57373">
        <ele>44.5</ele>
        <time>2026-03-27T13:50:14Z</time>
      </trkpt>
      <trkpt lat="43.48641" lon="6.57373">
        <ele>44.5</ele>
        <time>2026-03-27T13:50:15Z</time>
      </trkpt>
      <trkpt lat="43.48641" lon="6.57373">
        <ele>44.5</ele>
        <time>2026-03-27T13:50:16Z</time>
      </trkpt>
      <trkpt lat="43.48641" lon="6.57373">
        <ele>44.5</ele>
        <time>2026-03-27T13:50:17Z</time>
      </trkpt>
      <trkpt lat="43.48641" lon="6.57373">
        <ele>44.5</ele>
        <time>2026-03-27T13:50:18Z</time>
      </trkpt>
      <trkpt lat="43.48641" lon="6.57373">
        <ele>44.5</ele>
        <time>2026-03-27T13:50:19Z</time>
      </trkpt>
      <trkpt lat="43.48641" lon="6.57373">
        <ele>44.5</ele>
        <time>2026-03-27T13:50:20Z</time>
      </trkpt>
      <trkpt lat="43.48641" lon="6.57373">
        <ele>44.5</ele>
        <time>2026-03-27T13:50:21Z</time>
      </trkpt>
      <trkpt lat="43.48641" lon="6.57373">
        <ele>44.4</ele>
        <time>2026-03-27T13:50:22Z</time>
      </trkpt>
      <trkpt lat="43.48641" lon="6.57373">
        <ele>44.4</ele>
        <time>2026-03-27T13:50:23Z</time>
      </trkpt>
      <trkpt lat="43.48641" lon="6.57373">
        <ele>44.5</ele>
        <time>2026-03-27T13:50:24Z</time>
      </trkpt>
      <trkpt lat="43.48641" lon="6.57373">
        <ele>44.5</ele>
        <time>2026-03-27T13:50:25Z</time>
      </trkpt>
      <trkpt lat="43.48641" lon="6.57373">
        <ele>44.6</ele>
        <time>2026-03-27T13:50:26Z</time>
      </trkpt>
      <trkpt lat="43.48641" lon="6.57373">
        <ele>44.6</ele>
        <time>2026-03-27T13:50:27Z</time>
      </trkpt>
      <trkpt lat="43.48641" lon="6.57373">
        <ele>44.6</ele>
        <time>2026-03-27T13:50:28Z</time>
      </trkpt>
      <trkpt lat="43.48641" lon="6.57373">
        <ele>44.6</ele>
        <time>2026-03-27T13:50:29Z</time>
      </trkpt>
      <trkpt lat="43.48641" lon="6.57373">
        <ele>44.6</ele>
        <time>2026-03-27T13:50:30Z</time>
      </trkpt>
      <trkpt lat="43.48641" lon="6.57373">
        <ele>44.7</ele>
        <time>2026-03-27T13:50:31Z</time>
      </trkpt>
      <trkpt lat="43.48641" lon="6.57373">
        <ele>44.7</ele>
        <time>2026-03-27T13:50:32Z</time>
      </trkpt>
      <trkpt lat="43.4864" lon="6.57373">
        <ele>44.7</ele>
        <time>2026-03-27T13:50:33Z</time>
      </trkpt>
      <trkpt lat="43.4864" lon="6.57374">
        <ele>44.6</ele>
        <time>2026-03-27T13:50:34Z</time>
      </trkpt>
      <trkpt lat="43.48641" lon="6.57374">
        <ele>44.6</ele>
        <time>2026-03-27T13:50:35Z</time>
      </trkpt>
      <trkpt lat="43.48641" lon="6.57374">
        <ele>44.7</ele>
        <time>2026-03-27T13:50:36Z</time>
      </trkpt>
      <trkpt lat="43.48641" lon="6.57374">
        <ele>44.7</ele>
        <time>2026-03-27T13:50:37Z</time>
      </trkpt>
      <trkpt lat="43.48641" lon="6.57374">
        <ele>44.6</ele>
        <time>2026-03-27T13:50:38Z</time>
      </trkpt>
      <trkpt lat="43.4864" lon="6.57374">
        <ele>44.6</ele>
        <time>2026-03-27T13:50:39Z</time>
      </trkpt>
      <trkpt lat="43.4864" lon="6.57374">
        <ele>44.7</ele>
        <time>2026-03-27T13:50:40Z</time>
      </trkpt>
      <trkpt lat="43.4864" lon="6.57374">
        <ele>44.6</ele>
        <time>2026-03-27T13:50:41Z</time>
      </trkpt>
      <trkpt lat="43.4864" lon="6.57374">
        <ele>44.6</ele>
        <time>2026-03-27T13:50:42Z</time>
      </trkpt>
      <trkpt lat="43.4864" lon="6.57374">
        <ele>44.6</ele>
        <time>2026-03-27T13:50:43Z</time>
      </trkpt>
      <trkpt lat="43.4864" lon="6.57374">
        <ele>44.6</ele>
        <time>2026-03-27T13:50:44Z</time>
      </trkpt>
      <trkpt lat="43.4864" lon="6.57374">
        <ele>44.5</ele>
        <time>2026-03-27T13:50:45Z</time>
      </trkpt>
      <trkpt lat="43.4864" lon="6.57374">
        <ele>44.5</ele>
        <time>2026-03-27T13:50:46Z</time>
      </trkpt>
      <trkpt lat="43.4864" lon="6.57374">
        <ele>44.6</ele>
        <time>2026-03-27T13:50:47Z</time>
      </trkpt>
      <trkpt lat="43.4864" lon="6.57374">
        <ele>44.6</ele>
        <time>2026-03-27T13:50:48Z</time>
      </trkpt>
      <trkpt lat="43.4864" lon="6.57374">
        <ele>44.5</ele>
        <time>2026-03-27T13:50:49Z</time>
      </trkpt>
      <trkpt lat="43.48641" lon="6.57374">
        <ele>44.4</ele>
        <time>2026-03-27T13:50:50Z</time>
      </trkpt>
      <trkpt lat="43.48641" lon="6.57374">
        <ele>44.4</ele>
        <time>2026-03-27T13:50:51Z</time>
      </trkpt>
      <trkpt lat="43.48641" lon="6.57374">
        <ele>44.4</ele>
        <time>2026-03-27T13:50:52Z</time>
      </trkpt>
      <trkpt lat="43.48641" lon="6.57374">
        <ele>44.5</ele>
        <time>2026-03-27T13:50:53Z</time>
      </trkpt>
      <trkpt lat="43.48641" lon="6.57374">
        <ele>44.5</ele>
        <time>2026-03-27T13:50:54Z</time>
      </trkpt>
      <trkpt lat="43.48641" lon="6.57374">
        <ele>44.6</ele>
        <time>2026-03-27T13:50:55Z</time>
      </trkpt>
      <trkpt lat="43.48641" lon="6.57375">
        <ele>44.6</ele>
        <time>2026-03-27T13:50:56Z</time>
      </trkpt>
      <trkpt lat="43.48641" lon="6.57375">
        <ele>44.6</ele>
        <time>2026-03-27T13:50:57Z</time>
      </trkpt>
      <trkpt lat="43.4864" lon="6.57376">
        <ele>44.7</ele>
        <time>2026-03-27T13:50:58Z</time>
      </trkpt>
      <trkpt lat="43.4864" lon="6.57377">
        <ele>44.7</ele>
        <time>2026-03-27T13:50:59Z</time>
      </trkpt>
      <trkpt lat="43.48639" lon="6.57377">
        <ele>44.7</ele>
        <time>2026-03-27T13:51:00Z</time>
      </trkpt>
      <trkpt lat="43.48639" lon="6.57378">
        <ele>44.9</ele>
        <time>2026-03-27T13:51:01Z</time>
      </trkpt>
      <trkpt lat="43.48638" lon="6.5738">
        <ele>44.9</ele>
        <time>2026-03-27T13:51:02Z</time>
      </trkpt>
      <trkpt lat="43.48638" lon="6.5738">
        <ele>45</ele>
        <time>2026-03-27T13:51:03Z</time>
      </trkpt>
      <trkpt lat="43.48639" lon="6.5738">
        <ele>45</ele>
        <time>2026-03-27T13:51:04Z</time>
      </trkpt>
      <trkpt lat="43.48638" lon="6.57381">
        <ele>45</ele>
        <time>2026-03-27T13:51:05Z</time>
      </trkpt>
      <trkpt lat="43.48638" lon="6.57382">
        <ele>45</ele>
        <time>2026-03-27T13:51:06Z</time>
      </trkpt>
      <trkpt lat="43.48637" lon="6.57383">
        <ele>45.1</ele>
        <time>2026-03-27T13:51:07Z</time>
      </trkpt>
      <trkpt lat="43.48637" lon="6.57384">
        <ele>45</ele>
        <time>2026-03-27T13:51:08Z</time>
      </trkpt>
      <trkpt lat="43.48637" lon="6.57386">
        <ele>45</ele>
        <time>2026-03-27T13:51:09Z</time>
      </trkpt>
      <trkpt lat="43.48637" lon="6.57387">
        <ele>45.2</ele>
        <time>2026-03-27T13:51:10Z</time>
      </trkpt>
      <trkpt lat="43.48636" lon="6.57388">
        <ele>45.3</ele>
        <time>2026-03-27T13:51:11Z</time>
      </trkpt>
      <trkpt lat="43.48636" lon="6.57389">
        <ele>45.5</ele>
        <time>2026-03-27T13:51:12Z</time>
      </trkpt>
      <trkpt lat="43.48635" lon="6.5739">
        <ele>45.7</ele>
        <time>2026-03-27T13:51:13Z</time>
      </trkpt>
      <trkpt lat="43.48635" lon="6.57391">
        <ele>45.9</ele>
        <time>2026-03-27T13:51:14Z</time>
      </trkpt>
      <trkpt lat="43.48634" lon="6.57392">
        <ele>45.9</ele>
        <time>2026-03-27T13:51:15Z</time>
      </trkpt>
      <trkpt lat="43.48634" lon="6.57393">
        <ele>45.9</ele>
        <time>2026-03-27T13:51:16Z</time>
      </trkpt>
      <trkpt lat="43.48633" lon="6.57394">
        <ele>46</ele>
        <time>2026-03-27T13:51:17Z</time>
      </trkpt>
      <trkpt lat="43.48633" lon="6.57395">
        <ele>46</ele>
        <time>2026-03-27T13:51:18Z</time>
      </trkpt>
      <trkpt lat="43.48632" lon="6.57396">
        <ele>46.1</ele>
        <time>2026-03-27T13:51:19Z</time>
      </trkpt>
      <trkpt lat="43.48631" lon="6.57397">
        <ele>46.1</ele>
        <time>2026-03-27T13:51:20Z</time>
      </trkpt>
      <trkpt lat="43.48631" lon="6.57398">
        <ele>46.2</ele>
        <time>2026-03-27T13:51:21Z</time>
      </trkpt>
      <trkpt lat="43.4863" lon="6.57399">
        <ele>46.3</ele>
        <time>2026-03-27T13:51:22Z</time>
      </trkpt>
      <trkpt lat="43.4863" lon="6.574">
        <ele>46.3</ele>
        <time>2026-03-27T13:51:23Z</time>
      </trkpt>
      <trkpt lat="43.48629" lon="6.57401">
        <ele>46.4</ele>
        <time>2026-03-27T13:51:24Z</time>
      </trkpt>
      <trkpt lat="43.48629" lon="6.57402">
        <ele>46.4</ele>
        <time>2026-03-27T13:51:25Z</time>
      </trkpt>
      <trkpt lat="43.48628" lon="6.57403">
        <ele>46.6</ele>
        <time>2026-03-27T13:51:26Z</time>
      </trkpt>
      <trkpt lat="43.48628" lon="6.57404">
        <ele>46.7</ele>
        <time>2026-03-27T13:51:27Z</time>
      </trkpt>
      <trkpt lat="43.48628" lon="6.57405">
        <ele>46.9</ele>
        <time>2026-03-27T13:51:28Z</time>
      </trkpt>
      <trkpt lat="43.48628" lon="6.57407">
        <ele>47</ele>
        <time>2026-03-27T13:51:29Z</time>
      </trkpt>
      <trkpt lat="43.48627" lon="6.57408">
        <ele>47.1</ele>
        <time>2026-03-27T13:51:30Z</time>
      </trkpt>
      <trkpt lat="43.48627" lon="6.57409">
        <ele>47.2</ele>
        <time>2026-03-27T13:51:31Z</time>
      </trkpt>
      <trkpt lat="43.48626" lon="6.5741">
        <ele>47.5</ele>
        <time>2026-03-27T13:51:32Z</time>
      </trkpt>
      <trkpt lat="43.48626" lon="6.57411">
        <ele>47.7</ele>
        <time>2026-03-27T13:51:33Z</time>
      </trkpt>
      <trkpt lat="43.48626" lon="6.57412">
        <ele>47.9</ele>
        <time>2026-03-27T13:51:34Z</time>
      </trkpt>
      <trkpt lat="43.48625" lon="6.57413">
        <ele>48</ele>
        <time>2026-03-27T13:51:35Z</time>
      </trkpt>
      <trkpt lat="43.48625" lon="6.57414">
        <ele>48.1</ele>
        <time>2026-03-27T13:51:36Z</time>
      </trkpt>
      <trkpt lat="43.48624" lon="6.57415">
        <ele>48.3</ele>
        <time>2026-03-27T13:51:37Z</time>
      </trkpt>
      <trkpt lat="43.48624" lon="6.57416">
        <ele>48.5</ele>
        <time>2026-03-27T13:51:38Z</time>
      </trkpt>
      <trkpt lat="43.48624" lon="6.57417">
        <ele>48.6</ele>
        <time>2026-03-27T13:51:39Z</time>
      </trkpt>
      <trkpt lat="43.48623" lon="6.57417">
        <ele>48.7</ele>
        <time>2026-03-27T13:51:40Z</time>
      </trkpt>
      <trkpt lat="43.48623" lon="6.57418">
        <ele>48.9</ele>
        <time>2026-03-27T13:51:41Z</time>
      </trkpt>
      <trkpt lat="43.48623" lon="6.57419">
        <ele>49.2</ele>
        <time>2026-03-27T13:51:42Z</time>
      </trkpt>
      <trkpt lat="43.48622" lon="6.5742">
        <ele>49.4</ele>
        <time>2026-03-27T13:51:43Z</time>
      </trkpt>
      <trkpt lat="43.48622" lon="6.57421">
        <ele>49.6</ele>
        <time>2026-03-27T13:51:44Z</time>
      </trkpt>
      <trkpt lat="43.48621" lon="6.57422">
        <ele>49.7</ele>
        <time>2026-03-27T13:51:45Z</time>
      </trkpt>
      <trkpt lat="43.48621" lon="6.57423">
        <ele>49.9</ele>
        <time>2026-03-27T13:51:46Z</time>
      </trkpt>
      <trkpt lat="43.4862" lon="6.57424">
        <ele>50</ele>
        <time>2026-03-27T13:51:47Z</time>
      </trkpt>
      <trkpt lat="43.48619" lon="6.57424">
        <ele>50.1</ele>
        <time>2026-03-27T13:51:48Z</time>
      </trkpt>
      <trkpt lat="43.48619" lon="6.57425">
        <ele>50.3</ele>
        <time>2026-03-27T13:51:49Z</time>
      </trkpt>
      <trkpt lat="43.48618" lon="6.57426">
        <ele>50.5</ele>
        <time>2026-03-27T13:51:50Z</time>
      </trkpt>
      <trkpt lat="43.48618" lon="6.57428">
        <ele>50.7</ele>
        <time>2026-03-27T13:51:51Z</time>
      </trkpt>
      <trkpt lat="43.48618" lon="6.57429">
        <ele>50.8</ele>
        <time>2026-03-27T13:51:52Z</time>
      </trkpt>
      <trkpt lat="43.48618" lon="6.5743">
        <ele>50.9</ele>
        <time>2026-03-27T13:51:53Z</time>
      </trkpt>
      <trkpt lat="43.48618" lon="6.57431">
        <ele>51.2</ele>
        <time>2026-03-27T13:51:54Z</time>
      </trkpt>
      <trkpt lat="43.48618" lon="6.57433">
        <ele>51.5</ele>
        <time>2026-03-27T13:51:55Z</time>
      </trkpt>
      <trkpt lat="43.48617" lon="6.57434">
        <ele>51.7</ele>
        <time>2026-03-27T13:51:56Z</time>
      </trkpt>
      <trkpt lat="43.48617" lon="6.57435">
        <ele>51.8</ele>
        <time>2026-03-27T13:51:57Z</time>
      </trkpt>
      <trkpt lat="43.48617" lon="6.57436">
        <ele>51.9</ele>
        <time>2026-03-27T13:51:58Z</time>
      </trkpt>
      <trkpt lat="43.48616" lon="6.57437">
        <ele>51.9</ele>
        <time>2026-03-27T13:51:59Z</time>
      </trkpt>
      <trkpt lat="43.48616" lon="6.57439">
        <ele>52</ele>
        <time>2026-03-27T13:52:00Z</time>
      </trkpt>
      <trkpt lat="43.48615" lon="6.5744">
        <ele>52.2</ele>
        <time>2026-03-27T13:52:01Z</time>
      </trkpt>
      <trkpt lat="43.48615" lon="6.57441">
        <ele>52.4</ele>
        <time>2026-03-27T13:52:02Z</time>
      </trkpt>
      <trkpt lat="43.48614" lon="6.57442">
        <ele>52.5</ele>
        <time>2026-03-27T13:52:03Z</time>
      </trkpt>
      <trkpt lat="43.48614" lon="6.57443">
        <ele>52.6</ele>
        <time>2026-03-27T13:52:04Z</time>
      </trkpt>
      <trkpt lat="43.48613" lon="6.57445">
        <ele>52.7</ele>
        <time>2026-03-27T13:52:05Z</time>
      </trkpt>
      <trkpt lat="43.48613" lon="6.57446">
        <ele>52.7</ele>
        <time>2026-03-27T13:52:06Z</time>
      </trkpt>
      <trkpt lat="43.48613" lon="6.57447">
        <ele>52.8</ele>
        <time>2026-03-27T13:52:07Z</time>
      </trkpt>
      <trkpt lat="43.48612" lon="6.57448">
        <ele>52.9</ele>
        <time>2026-03-27T13:52:08Z</time>
      </trkpt>
      <trkpt lat="43.48612" lon="6.5745">
        <ele>53</ele>
        <time>2026-03-27T13:52:09Z</time>
      </trkpt>
      <trkpt lat="43.48611" lon="6.57451">
        <ele>53</ele>
        <time>2026-03-27T13:52:10Z</time>
      </trkpt>
      <trkpt lat="43.48611" lon="6.57452">
        <ele>53.2</ele>
        <time>2026-03-27T13:52:11Z</time>
      </trkpt>
      <trkpt lat="43.48611" lon="6.57454">
        <ele>53.3</ele>
        <time>2026-03-27T13:52:12Z</time>
      </trkpt>
      <trkpt lat="43.4861" lon="6.57455">
        <ele>53.4</ele>
        <time>2026-03-27T13:52:13Z</time>
      </trkpt>
      <trkpt lat="43.4861" lon="6.57456">
        <ele>53.5</ele>
        <time>2026-03-27T13:52:14Z</time>
      </trkpt>
      <trkpt lat="43.48609" lon="6.57458">
        <ele>53.6</ele>
        <time>2026-03-27T13:52:15Z</time>
      </trkpt>
      <trkpt lat="43.48609" lon="6.57459">
        <ele>53.8</ele>
        <time>2026-03-27T13:52:16Z</time>
      </trkpt>
      <trkpt lat="43.48609" lon="6.57461">
        <ele>53.9</ele>
        <time>2026-03-27T13:52:17Z</time>
      </trkpt>
      <trkpt lat="43.48609" lon="6.57462">
        <ele>54</ele>
        <time>2026-03-27T13:52:18Z</time>
      </trkpt>
      <trkpt lat="43.48609" lon="6.57463">
        <ele>54</ele>
        <time>2026-03-27T13:52:19Z</time>
      </trkpt>
      <trkpt lat="43.48609" lon="6.57464">
        <ele>54.1</ele>
        <time>2026-03-27T13:52:20Z</time>
      </trkpt>
      <trkpt lat="43.48608" lon="6.57466">
        <ele>54.2</ele>
        <time>2026-03-27T13:52:21Z</time>
      </trkpt>
      <trkpt lat="43.48608" lon="6.57467">
        <ele>54.2</ele>
        <time>2026-03-27T13:52:22Z</time>
      </trkpt>
      <trkpt lat="43.48607" lon="6.57468">
        <ele>54.3</ele>
        <time>2026-03-27T13:52:23Z</time>
      </trkpt>
      <trkpt lat="43.48607" lon="6.5747">
        <ele>54.3</ele>
        <time>2026-03-27T13:52:24Z</time>
      </trkpt>
      <trkpt lat="43.48607" lon="6.57471">
        <ele>54.3</ele>
        <time>2026-03-27T13:52:25Z</time>
      </trkpt>
      <trkpt lat="43.48606" lon="6.57472">
        <ele>54.4</ele>
        <time>2026-03-27T13:52:26Z</time>
      </trkpt>
      <trkpt lat="43.48606" lon="6.57474">
        <ele>54.5</ele>
        <time>2026-03-27T13:52:27Z</time>
      </trkpt>
      <trkpt lat="43.48606" lon="6.57475">
        <ele>54.5</ele>
        <time>2026-03-27T13:52:28Z</time>
      </trkpt>
      <trkpt lat="43.48605" lon="6.57476">
        <ele>54.6</ele>
        <time>2026-03-27T13:52:29Z</time>
      </trkpt>
      <trkpt lat="43.48605" lon="6.57478">
        <ele>54.7</ele>
        <time>2026-03-27T13:52:30Z</time>
      </trkpt>
      <trkpt lat="43.48605" lon="6.57479">
        <ele>54.8</ele>
        <time>2026-03-27T13:52:31Z</time>
      </trkpt>
      <trkpt lat="43.48604" lon="6.5748">
        <ele>54.9</ele>
        <time>2026-03-27T13:52:32Z</time>
      </trkpt>
      <trkpt lat="43.48603" lon="6.57482">
        <ele>54.9</ele>
        <time>2026-03-27T13:52:33Z</time>
      </trkpt>
      <trkpt lat="43.48603" lon="6.57483">
        <ele>55</ele>
        <time>2026-03-27T13:52:34Z</time>
      </trkpt>
      <trkpt lat="43.48602" lon="6.57484">
        <ele>55</ele>
        <time>2026-03-27T13:52:35Z</time>
      </trkpt>
      <trkpt lat="43.48602" lon="6.57485">
        <ele>55</ele>
        <time>2026-03-27T13:52:36Z</time>
      </trkpt>
      <trkpt lat="43.48601" lon="6.57486">
        <ele>55</ele>
        <time>2026-03-27T13:52:37Z</time>
      </trkpt>
      <trkpt lat="43.48601" lon="6.57487">
        <ele>55</ele>
        <time>2026-03-27T13:52:38Z</time>
      </trkpt>
      <trkpt lat="43.486" lon="6.57489">
        <ele>54.9</ele>
        <time>2026-03-27T13:52:39Z</time>
      </trkpt>
      <trkpt lat="43.486" lon="6.5749">
        <ele>55</ele>
        <time>2026-03-27T13:52:40Z</time>
      </trkpt>
      <trkpt lat="43.486" lon="6.57491">
        <ele>55.2</ele>
        <time>2026-03-27T13:52:41Z</time>
      </trkpt>
      <trkpt lat="43.486" lon="6.57492">
        <ele>55.3</ele>
        <time>2026-03-27T13:52:42Z</time>
      </trkpt>
      <trkpt lat="43.486" lon="6.57494">
        <ele>55.5</ele>
        <time>2026-03-27T13:52:43Z</time>
      </trkpt>
      <trkpt lat="43.486" lon="6.57495">
        <ele>55.6</ele>
        <time>2026-03-27T13:52:44Z</time>
      </trkpt>
      <trkpt lat="43.486" lon="6.57496">
        <ele>55.8</ele>
        <time>2026-03-27T13:52:45Z</time>
      </trkpt>
      <trkpt lat="43.48599" lon="6.57497">
        <ele>56</ele>
        <time>2026-03-27T13:52:46Z</time>
      </trkpt>
      <trkpt lat="43.48599" lon="6.57499">
        <ele>56.2</ele>
        <time>2026-03-27T13:52:47Z</time>
      </trkpt>
      <trkpt lat="43.48599" lon="6.575">
        <ele>56.4</ele>
        <time>2026-03-27T13:52:48Z</time>
      </trkpt>
      <trkpt lat="43.48598" lon="6.57501">
        <ele>56.6</ele>
        <time>2026-03-27T13:52:49Z</time>
      </trkpt>
      <trkpt lat="43.48598" lon="6.57502">
        <ele>56.8</ele>
        <time>2026-03-27T13:52:50Z</time>
      </trkpt>
      <trkpt lat="43.48598" lon="6.57503">
        <ele>56.6</ele>
        <time>2026-03-27T13:52:51Z</time>
      </trkpt>
      <trkpt lat="43.48597" lon="6.57505">
        <ele>56.6</ele>
        <time>2026-03-27T13:52:52Z</time>
      </trkpt>
      <trkpt lat="43.48597" lon="6.57506">
        <ele>56.8</ele>
        <time>2026-03-27T13:52:53Z</time>
      </trkpt>
      <trkpt lat="43.48597" lon="6.57507">
        <ele>57</ele>
        <time>2026-03-27T13:52:54Z</time>
      </trkpt>
      <trkpt lat="43.48597" lon="6.57509">
        <ele>57.1</ele>
        <time>2026-03-27T13:52:55Z</time>
      </trkpt>
      <trkpt lat="43.48597" lon="6.5751">
        <ele>57.4</ele>
        <time>2026-03-27T13:52:56Z</time>
      </trkpt>
      <trkpt lat="43.48597" lon="6.57511">
        <ele>57.6</ele>
        <time>2026-03-27T13:52:57Z</time>
      </trkpt>
      <trkpt lat="43.48597" lon="6.57512">
        <ele>57.8</ele>
        <time>2026-03-27T13:52:58Z</time>
      </trkpt>
      <trkpt lat="43.48597" lon="6.57513">
        <ele>57.8</ele>
        <time>2026-03-27T13:52:59Z</time>
      </trkpt>
      <trkpt lat="43.48597" lon="6.57515">
        <ele>57.9</ele>
        <time>2026-03-27T13:53:00Z</time>
      </trkpt>
      <trkpt lat="43.48597" lon="6.57517">
        <ele>58.1</ele>
        <time>2026-03-27T13:53:01Z</time>
      </trkpt>
      <trkpt lat="43.48596" lon="6.57518">
        <ele>58.2</ele>
        <time>2026-03-27T13:53:02Z</time>
      </trkpt>
      <trkpt lat="43.48596" lon="6.57519">
        <ele>58.4</ele>
        <time>2026-03-27T13:53:03Z</time>
      </trkpt>
      <trkpt lat="43.48596" lon="6.57521">
        <ele>58.5</ele>
        <time>2026-03-27T13:53:04Z</time>
      </trkpt>
      <trkpt lat="43.48596" lon="6.57522">
        <ele>58.7</ele>
        <time>2026-03-27T13:53:05Z</time>
      </trkpt>
      <trkpt lat="43.48596" lon="6.57524">
        <ele>58.7</ele>
        <time>2026-03-27T13:53:06Z</time>
      </trkpt>
      <trkpt lat="43.48596" lon="6.57525">
        <ele>58.8</ele>
        <time>2026-03-27T13:53:07Z</time>
      </trkpt>
      <trkpt lat="43.48597" lon="6.57526">
        <ele>58.9</ele>
        <time>2026-03-27T13:53:08Z</time>
      </trkpt>
      <trkpt lat="43.48597" lon="6.57527">
        <ele>59</ele>
        <time>2026-03-27T13:53:09Z</time>
      </trkpt>
      <trkpt lat="43.48597" lon="6.57528">
        <ele>59</ele>
        <time>2026-03-27T13:53:10Z</time>
      </trkpt>
      <trkpt lat="43.48597" lon="6.5753">
        <ele>59.2</ele>
        <time>2026-03-27T13:53:11Z</time>
      </trkpt>
      <trkpt lat="43.48597" lon="6.57531">
        <ele>59.4</ele>
        <time>2026-03-27T13:53:12Z</time>
      </trkpt>
      <trkpt lat="43.48597" lon="6.57532">
        <ele>59.5</ele>
        <time>2026-03-27T13:53:13Z</time>
      </trkpt>
      <trkpt lat="43.48597" lon="6.57534">
        <ele>59.6</ele>
        <time>2026-03-27T13:53:14Z</time>
      </trkpt>
      <trkpt lat="43.48597" lon="6.57535">
        <ele>59.7</ele>
        <time>2026-03-27T13:53:15Z</time>
      </trkpt>
      <trkpt lat="43.48597" lon="6.57537">
        <ele>59.9</ele>
        <time>2026-03-27T13:53:16Z</time>
      </trkpt>
      <trkpt lat="43.48597" lon="6.57538">
        <ele>60</ele>
        <time>2026-03-27T13:53:17Z</time>
      </trkpt>
      <trkpt lat="43.48596" lon="6.57539">
        <ele>60.1</ele>
        <time>2026-03-27T13:53:18Z</time>
      </trkpt>
      <trkpt lat="43.48596" lon="6.57541">
        <ele>60.1</ele>
        <time>2026-03-27T13:53:19Z</time>
      </trkpt>
      <trkpt lat="43.48596" lon="6.57542">
        <ele>60.1</ele>
        <time>2026-03-27T13:53:20Z</time>
      </trkpt>
      <trkpt lat="43.48596" lon="6.57543">
        <ele>60.3</ele>
        <time>2026-03-27T13:53:21Z</time>
      </trkpt>
      <trkpt lat="43.48597" lon="6.57545">
        <ele>60.3</ele>
        <time>2026-03-27T13:53:22Z</time>
      </trkpt>
      <trkpt lat="43.48597" lon="6.57546">
        <ele>60.3</ele>
        <time>2026-03-27T13:53:23Z</time>
      </trkpt>
      <trkpt lat="43.48598" lon="6.57547">
        <ele>60.3</ele>
        <time>2026-03-27T13:53:24Z</time>
      </trkpt>
      <trkpt lat="43.48599" lon="6.57547">
        <ele>60.3</ele>
        <time>2026-03-27T13:53:25Z</time>
      </trkpt>
      <trkpt lat="43.486" lon="6.57548">
        <ele>60.3</ele>
        <time>2026-03-27T13:53:26Z</time>
      </trkpt>
      <trkpt lat="43.48601" lon="6.57548">
        <ele>60.4</ele>
        <time>2026-03-27T13:53:27Z</time>
      </trkpt>
      <trkpt lat="43.48601" lon="6.57549">
        <ele>60.4</ele>
        <time>2026-03-27T13:53:28Z</time>
      </trkpt>
      <trkpt lat="43.48602" lon="6.5755">
        <ele>60.3</ele>
        <time>2026-03-27T13:53:29Z</time>
      </trkpt>
      <trkpt lat="43.48602" lon="6.5755">
        <ele>60.2</ele>
        <time>2026-03-27T13:53:30Z</time>
      </trkpt>
      <trkpt lat="43.48603" lon="6.57551">
        <ele>60.2</ele>
        <time>2026-03-27T13:53:31Z</time>
      </trkpt>
      <trkpt lat="43.48604" lon="6.57551">
        <ele>60.1</ele>
        <time>2026-03-27T13:53:32Z</time>
      </trkpt>
      <trkpt lat="43.48604" lon="6.57552">
        <ele>60.2</ele>
        <time>2026-03-27T13:53:33Z</time>
      </trkpt>
      <trkpt lat="43.48605" lon="6.57553">
        <ele>60.2</ele>
        <time>2026-03-27T13:53:34Z</time>
      </trkpt>
      <trkpt lat="43.48605" lon="6.57554">
        <ele>60.2</ele>
        <time>2026-03-27T13:53:35Z</time>
      </trkpt>
      <trkpt lat="43.48606" lon="6.57555">
        <ele>60.3</ele>
        <time>2026-03-27T13:53:36Z</time>
      </trkpt>
      <trkpt lat="43.48606" lon="6.57556">
        <ele>60.4</ele>
        <time>2026-03-27T13:53:37Z</time>
      </trkpt>
      <trkpt lat="43.48606" lon="6.57558">
        <ele>60.3</ele>
        <time>2026-03-27T13:53:38Z</time>
      </trkpt>
      <trkpt lat="43.48606" lon="6.57559">
        <ele>60.3</ele>
        <time>2026-03-27T13:53:39Z</time>
      </trkpt>
      <trkpt lat="43.48606" lon="6.5756">
        <ele>60.3</ele>
        <time>2026-03-27T13:53:40Z</time>
      </trkpt>
      <trkpt lat="43.48606" lon="6.57561">
        <ele>60.2</ele>
        <time>2026-03-27T13:53:41Z</time>
      </trkpt>
      <trkpt lat="43.48606" lon="6.57563">
        <ele>60.2</ele>
        <time>2026-03-27T13:53:42Z</time>
      </trkpt>
      <trkpt lat="43.48605" lon="6.57564">
        <ele>60.3</ele>
        <time>2026-03-27T13:53:43Z</time>
      </trkpt>
      <trkpt lat="43.48605" lon="6.57566">
        <ele>60.3</ele>
        <time>2026-03-27T13:53:44Z</time>
      </trkpt>
      <trkpt lat="43.48605" lon="6.57567">
        <ele>60.3</ele>
        <time>2026-03-27T13:53:45Z</time>
      </trkpt>
      <trkpt lat="43.48605" lon="6.57568">
        <ele>60.4</ele>
        <time>2026-03-27T13:53:46Z</time>
      </trkpt>
      <trkpt lat="43.48605" lon="6.57569">
        <ele>60.5</ele>
        <time>2026-03-27T13:53:47Z</time>
      </trkpt>
      <trkpt lat="43.48605" lon="6.5757">
        <ele>60.6</ele>
        <time>2026-03-27T13:53:48Z</time>
      </trkpt>
      <trkpt lat="43.48605" lon="6.57572">
        <ele>60.7</ele>
        <time>2026-03-27T13:53:49Z</time>
      </trkpt>
      <trkpt lat="43.48605" lon="6.57573">
        <ele>60.7</ele>
        <time>2026-03-27T13:53:50Z</time>
      </trkpt>
      <trkpt lat="43.48605" lon="6.57575">
        <ele>60.8</ele>
        <time>2026-03-27T13:53:51Z</time>
      </trkpt>
      <trkpt lat="43.48605" lon="6.57575">
        <ele>60.7</ele>
        <time>2026-03-27T13:53:52Z</time>
      </trkpt>
      <trkpt lat="43.48605" lon="6.57576">
        <ele>60.7</ele>
        <time>2026-03-27T13:53:53Z</time>
      </trkpt>
      <trkpt lat="43.48606" lon="6.57577">
        <ele>60.7</ele>
        <time>2026-03-27T13:53:54Z</time>
      </trkpt>
      <trkpt lat="43.48607" lon="6.57578">
        <ele>60.7</ele>
        <time>2026-03-27T13:53:55Z</time>
      </trkpt>
      <trkpt lat="43.48607" lon="6.57579">
        <ele>60.7</ele>
        <time>2026-03-27T13:53:56Z</time>
      </trkpt>
      <trkpt lat="43.48608" lon="6.57581">
        <ele>60.7</ele>
        <time>2026-03-27T13:53:57Z</time>
      </trkpt>
      <trkpt lat="43.48608" lon="6.57582">
        <ele>60.9</ele>
        <time>2026-03-27T13:53:58Z</time>
      </trkpt>
      <trkpt lat="43.48608" lon="6.57583">
        <ele>60.8</ele>
        <time>2026-03-27T13:53:59Z</time>
      </trkpt>
      <trkpt lat="43.48607" lon="6.57584">
        <ele>60.8</ele>
        <time>2026-03-27T13:54:00Z</time>
      </trkpt>
      <trkpt lat="43.48607" lon="6.57585">
        <ele>60.9</ele>
        <time>2026-03-27T13:54:01Z</time>
      </trkpt>
      <trkpt lat="43.48607" lon="6.57587">
        <ele>61</ele>
        <time>2026-03-27T13:54:02Z</time>
      </trkpt>
      <trkpt lat="43.48607" lon="6.57588">
        <ele>60.9</ele>
        <time>2026-03-27T13:54:03Z</time>
      </trkpt>
      <trkpt lat="43.48607" lon="6.57589">
        <ele>60.9</ele>
        <time>2026-03-27T13:54:04Z</time>
      </trkpt>
      <trkpt lat="43.48607" lon="6.57591">
        <ele>60.8</ele>
        <time>2026-03-27T13:54:05Z</time>
      </trkpt>
      <trkpt lat="43.48607" lon="6.57592">
        <ele>60.7</ele>
        <time>2026-03-27T13:54:06Z</time>
      </trkpt>
      <trkpt lat="43.48607" lon="6.57593">
        <ele>60.6</ele>
        <time>2026-03-27T13:54:07Z</time>
      </trkpt>
      <trkpt lat="43.48608" lon="6.57595">
        <ele>60.5</ele>
        <time>2026-03-27T13:54:08Z</time>
      </trkpt>
      <trkpt lat="43.48608" lon="6.57597">
        <ele>60.4</ele>
        <time>2026-03-27T13:54:09Z</time>
      </trkpt>
      <trkpt lat="43.48608" lon="6.57598">
        <ele>60.4</ele>
        <time>2026-03-27T13:54:10Z</time>
      </trkpt>
      <trkpt lat="43.48608" lon="6.57599">
        <ele>60.4</ele>
        <time>2026-03-27T13:54:11Z</time>
      </trkpt>
      <trkpt lat="43.48609" lon="6.57601">
        <ele>60.4</ele>
        <time>2026-03-27T13:54:12Z</time>
      </trkpt>
      <trkpt lat="43.48609" lon="6.57602">
        <ele>60.4</ele>
        <time>2026-03-27T13:54:13Z</time>
      </trkpt>
      <trkpt lat="43.48609" lon="6.57604">
        <ele>60.4</ele>
        <time>2026-03-27T13:54:14Z</time>
      </trkpt>
      <trkpt lat="43.4861" lon="6.57605">
        <ele>60.4</ele>
        <time>2026-03-27T13:54:15Z</time>
      </trkpt>
      <trkpt lat="43.4861" lon="6.57606">
        <ele>60.4</ele>
        <time>2026-03-27T13:54:16Z</time>
      </trkpt>
      <trkpt lat="43.4861" lon="6.57608">
        <ele>60.3</ele>
        <time>2026-03-27T13:54:17Z</time>
      </trkpt>
      <trkpt lat="43.48611" lon="6.57609">
        <ele>60.3</ele>
        <time>2026-03-27T13:54:18Z</time>
      </trkpt>
      <trkpt lat="43.48611" lon="6.5761">
        <ele>60.4</ele>
        <time>2026-03-27T13:54:19Z</time>
      </trkpt>
      <trkpt lat="43.48611" lon="6.57612">
        <ele>60.4</ele>
        <time>2026-03-27T13:54:20Z</time>
      </trkpt>
      <trkpt lat="43.48611" lon="6.57613">
        <ele>60.4</ele>
        <time>2026-03-27T13:54:21Z</time>
      </trkpt>
      <trkpt lat="43.48612" lon="6.57615">
        <ele>60.4</ele>
        <time>2026-03-27T13:54:22Z</time>
      </trkpt>
      <trkpt lat="43.48612" lon="6.57616">
        <ele>60.4</ele>
        <time>2026-03-27T13:54:23Z</time>
      </trkpt>
      <trkpt lat="43.48612" lon="6.57618">
        <ele>60.5</ele>
        <time>2026-03-27T13:54:24Z</time>
      </trkpt>
      <trkpt lat="43.48613" lon="6.57619">
        <ele>60.4</ele>
        <time>2026-03-27T13:54:25Z</time>
      </trkpt>
      <trkpt lat="43.48613" lon="6.5762">
        <ele>60.3</ele>
        <time>2026-03-27T13:54:26Z</time>
      </trkpt>
      <trkpt lat="43.48613" lon="6.57622">
        <ele>60.3</ele>
        <time>2026-03-27T13:54:27Z</time>
      </trkpt>
      <trkpt lat="43.48613" lon="6.57624">
        <ele>60.3</ele>
        <time>2026-03-27T13:54:28Z</time>
      </trkpt>
      <trkpt lat="43.48613" lon="6.57625">
        <ele>60.3</ele>
        <time>2026-03-27T13:54:29Z</time>
      </trkpt>
      <trkpt lat="43.48613" lon="6.57627">
        <ele>60.4</ele>
        <time>2026-03-27T13:54:30Z</time>
      </trkpt>
      <trkpt lat="43.48613" lon="6.57628">
        <ele>60.3</ele>
        <time>2026-03-27T13:54:31Z</time>
      </trkpt>
      <trkpt lat="43.48613" lon="6.5763">
        <ele>60</ele>
        <time>2026-03-27T13:54:32Z</time>
      </trkpt>
      <trkpt lat="43.48614" lon="6.57631">
        <ele>60.1</ele>
        <time>2026-03-27T13:54:33Z</time>
      </trkpt>
      <trkpt lat="43.48614" lon="6.57633">
        <ele>60</ele>
        <time>2026-03-27T13:54:34Z</time>
      </trkpt>
      <trkpt lat="43.48615" lon="6.57634">
        <ele>60</ele>
        <time>2026-03-27T13:54:35Z</time>
      </trkpt>
      <trkpt lat="43.48616" lon="6.57635">
        <ele>60</ele>
        <time>2026-03-27T13:54:36Z</time>
      </trkpt>
      <trkpt lat="43.48616" lon="6.57636">
        <ele>59.9</ele>
        <time>2026-03-27T13:54:37Z</time>
      </trkpt>
      <trkpt lat="43.48617" lon="6.57637">
        <ele>59.8</ele>
        <time>2026-03-27T13:54:38Z</time>
      </trkpt>
      <trkpt lat="43.48617" lon="6.57639">
        <ele>59.7</ele>
        <time>2026-03-27T13:54:39Z</time>
      </trkpt>
      <trkpt lat="43.48617" lon="6.57641">
        <ele>59.6</ele>
        <time>2026-03-27T13:54:40Z</time>
      </trkpt>
      <trkpt lat="43.48618" lon="6.57642">
        <ele>59.6</ele>
        <time>2026-03-27T13:54:41Z</time>
      </trkpt>
      <trkpt lat="43.48619" lon="6.57643">
        <ele>59.5</ele>
        <time>2026-03-27T13:54:42Z</time>
      </trkpt>
      <trkpt lat="43.4862" lon="6.57644">
        <ele>59.6</ele>
        <time>2026-03-27T13:54:43Z</time>
      </trkpt>
      <trkpt lat="43.4862" lon="6.57645">
        <ele>59.6</ele>
        <time>2026-03-27T13:54:44Z</time>
      </trkpt>
      <trkpt lat="43.48621" lon="6.57646">
        <ele>59.7</ele>
        <time>2026-03-27T13:54:45Z</time>
      </trkpt>
      <trkpt lat="43.48622" lon="6.57647">
        <ele>59.7</ele>
        <time>2026-03-27T13:54:46Z</time>
      </trkpt>
      <trkpt lat="43.48622" lon="6.57648">
        <ele>59.7</ele>
        <time>2026-03-27T13:54:47Z</time>
      </trkpt>
      <trkpt lat="43.48623" lon="6.57649">
        <ele>59.7</ele>
        <time>2026-03-27T13:54:48Z</time>
      </trkpt>
      <trkpt lat="43.48623" lon="6.5765">
        <ele>59.8</ele>
        <time>2026-03-27T13:54:49Z</time>
      </trkpt>
      <trkpt lat="43.48624" lon="6.57651">
        <ele>59.8</ele>
        <time>2026-03-27T13:54:50Z</time>
      </trkpt>
      <trkpt lat="43.48624" lon="6.57652">
        <ele>59.8</ele>
        <time>2026-03-27T13:54:51Z</time>
      </trkpt>
      <trkpt lat="43.48624" lon="6.57652">
        <ele>59.8</ele>
        <time>2026-03-27T13:54:52Z</time>
      </trkpt>
      <trkpt lat="43.48623" lon="6.57653">
        <ele>59.9</ele>
        <time>2026-03-27T13:54:53Z</time>
      </trkpt>
      <trkpt lat="43.48623" lon="6.57655">
        <ele>60</ele>
        <time>2026-03-27T13:54:54Z</time>
      </trkpt>
      <trkpt lat="43.48623" lon="6.57657">
        <ele>60</ele>
        <time>2026-03-27T13:54:55Z</time>
      </trkpt>
      <trkpt lat="43.48623" lon="6.57658">
        <ele>59.9</ele>
        <time>2026-03-27T13:54:56Z</time>
      </trkpt>
      <trkpt lat="43.48624" lon="6.5766">
        <ele>59.9</ele>
        <time>2026-03-27T13:54:57Z</time>
      </trkpt>
      <trkpt lat="43.48624" lon="6.57662">
        <ele>59.9</ele>
        <time>2026-03-27T13:54:58Z</time>
      </trkpt>
      <trkpt lat="43.48624" lon="6.57663">
        <ele>59.9</ele>
        <time>2026-03-27T13:54:59Z</time>
      </trkpt>
      <trkpt lat="43.48624" lon="6.57665">
        <ele>59.9</ele>
        <time>2026-03-27T13:55:00Z</time>
      </trkpt>
      <trkpt lat="43.48624" lon="6.57666">
        <ele>59.9</ele>
        <time>2026-03-27T13:55:01Z</time>
      </trkpt>
      <trkpt lat="43.48624" lon="6.57668">
        <ele>59.9</ele>
        <time>2026-03-27T13:55:02Z</time>
      </trkpt>
      <trkpt lat="43.48624" lon="6.57669">
        <ele>59.9</ele>
        <time>2026-03-27T13:55:03Z</time>
      </trkpt>
      <trkpt lat="43.48624" lon="6.5767">
        <ele>59.7</ele>
        <time>2026-03-27T13:55:04Z</time>
      </trkpt>
      <trkpt lat="43.48624" lon="6.57672">
        <ele>59.7</ele>
        <time>2026-03-27T13:55:05Z</time>
      </trkpt>
      <trkpt lat="43.48623" lon="6.57673">
        <ele>59.7</ele>
        <time>2026-03-27T13:55:06Z</time>
      </trkpt>
      <trkpt lat="43.48623" lon="6.57674">
        <ele>59.7</ele>
        <time>2026-03-27T13:55:07Z</time>
      </trkpt>
      <trkpt lat="43.48623" lon="6.57675">
        <ele>59.7</ele>
        <time>2026-03-27T13:55:08Z</time>
      </trkpt>
      <trkpt lat="43.48622" lon="6.57677">
        <ele>59.7</ele>
        <time>2026-03-27T13:55:09Z</time>
      </trkpt>
      <trkpt lat="43.48622" lon="6.57678">
        <ele>59.8</ele>
        <time>2026-03-27T13:55:10Z</time>
      </trkpt>
      <trkpt lat="43.48622" lon="6.57679">
        <ele>59.9</ele>
        <time>2026-03-27T13:55:11Z</time>
      </trkpt>
      <trkpt lat="43.48623" lon="6.5768">
        <ele>60</ele>
        <time>2026-03-27T13:55:12Z</time>
      </trkpt>
      <trkpt lat="43.48623" lon="6.57681">
        <ele>60.1</ele>
        <time>2026-03-27T13:55:13Z</time>
      </trkpt>
      <trkpt lat="43.48623" lon="6.57682">
        <ele>60.2</ele>
        <time>2026-03-27T13:55:14Z</time>
      </trkpt>
      <trkpt lat="43.48623" lon="6.57683">
        <ele>60.3</ele>
        <time>2026-03-27T13:55:15Z</time>
      </trkpt>
      <trkpt lat="43.48623" lon="6.57683">
        <ele>60.2</ele>
        <time>2026-03-27T13:55:16Z</time>
      </trkpt>
      <trkpt lat="43.48624" lon="6.57684">
        <ele>60.2</ele>
        <time>2026-03-27T13:55:17Z</time>
      </trkpt>
      <trkpt lat="43.48624" lon="6.57684">
        <ele>60.2</ele>
        <time>2026-03-27T13:55:18Z</time>
      </trkpt>
      <trkpt lat="43.48624" lon="6.57685">
        <ele>60.3</ele>
        <time>2026-03-27T13:55:19Z</time>
      </trkpt>
      <trkpt lat="43.48624" lon="6.57685">
        <ele>60.3</ele>
        <time>2026-03-27T13:55:20Z</time>
      </trkpt>
      <trkpt lat="43.48624" lon="6.57686">
        <ele>60.2</ele>
        <time>2026-03-27T13:55:21Z</time>
      </trkpt>
      <trkpt lat="43.48624" lon="6.57686">
        <ele>60.1</ele>
        <time>2026-03-27T13:55:22Z</time>
      </trkpt>
      <trkpt lat="43.48624" lon="6.57686">
        <ele>60.1</ele>
        <time>2026-03-27T13:55:23Z</time>
      </trkpt>
      <trkpt lat="43.48624" lon="6.57686">
        <ele>60.1</ele>
        <time>2026-03-27T13:55:24Z</time>
      </trkpt>
      <trkpt lat="43.48624" lon="6.57686">
        <ele>60</ele>
        <time>2026-03-27T13:55:25Z</time>
      </trkpt>
      <trkpt lat="43.48624" lon="6.57686">
        <ele>60</ele>
        <time>2026-03-27T13:55:26Z</time>
      </trkpt>
      <trkpt lat="43.48624" lon="6.57687">
        <ele>60.1</ele>
        <time>2026-03-27T13:55:27Z</time>
      </trkpt>
      <trkpt lat="43.48624" lon="6.57687">
        <ele>60.1</ele>
        <time>2026-03-27T13:55:28Z</time>
      </trkpt>
      <trkpt lat="43.48624" lon="6.57687">
        <ele>60.1</ele>
        <time>2026-03-27T13:55:29Z</time>
      </trkpt>
      <trkpt lat="43.48624" lon="6.57687">
        <ele>60.1</ele>
        <time>2026-03-27T13:55:30Z</time>
      </trkpt>
      <trkpt lat="43.48624" lon="6.57687">
        <ele>60</ele>
        <time>2026-03-27T13:55:31Z</time>
      </trkpt>
      <trkpt lat="43.48624" lon="6.57687">
        <ele>59.9</ele>
        <time>2026-03-27T13:55:32Z</time>
      </trkpt>
      <trkpt lat="43.48624" lon="6.57687">
        <ele>59.9</ele>
        <time>2026-03-27T13:55:33Z</time>
      </trkpt>
      <trkpt lat="43.48623" lon="6.57687">
        <ele>59.9</ele>
        <time>2026-03-27T13:55:34Z</time>
      </trkpt>
      <trkpt lat="43.48623" lon="6.57687">
        <ele>59.8</ele>
        <time>2026-03-27T13:55:35Z</time>
      </trkpt>
      <trkpt lat="43.48623" lon="6.57688">
        <ele>59.9</ele>
        <time>2026-03-27T13:55:36Z</time>
      </trkpt>
      <trkpt lat="43.48623" lon="6.57689">
        <ele>59.7</ele>
        <time>2026-03-27T13:55:37Z</time>
      </trkpt>
      <trkpt lat="43.48623" lon="6.57689">
        <ele>59.5</ele>
        <time>2026-03-27T13:55:38Z</time>
      </trkpt>
      <trkpt lat="43.48623" lon="6.57689">
        <ele>59.6</ele>
        <time>2026-03-27T13:55:39Z</time>
      </trkpt>
      <trkpt lat="43.48623" lon="6.57689">
        <ele>59.7</ele>
        <time>2026-03-27T13:55:40Z</time>
      </trkpt>
      <trkpt lat="43.48623" lon="6.57689">
        <ele>59.7</ele>
        <time>2026-03-27T13:55:41Z</time>
      </trkpt>
      <trkpt lat="43.48623" lon="6.57689">
        <ele>59.7</ele>
        <time>2026-03-27T13:55:42Z</time>
      </trkpt>
      <trkpt lat="43.48623" lon="6.57689">
        <ele>59.7</ele>
        <time>2026-03-27T13:55:43Z</time>
      </trkpt>
      <trkpt lat="43.48623" lon="6.57689">
        <ele>59.7</ele>
        <time>2026-03-27T13:55:44Z</time>
      </trkpt>
      <trkpt lat="43.48623" lon="6.57689">
        <ele>59.8</ele>
        <time>2026-03-27T13:55:45Z</time>
      </trkpt>
      <trkpt lat="43.48623" lon="6.57689">
        <ele>59.8</ele>
        <time>2026-03-27T13:55:46Z</time>
      </trkpt>
      <trkpt lat="43.48623" lon="6.5769">
        <ele>59.9</ele>
        <time>2026-03-27T13:55:47Z</time>
      </trkpt>
      <trkpt lat="43.48623" lon="6.5769">
        <ele>59.9</ele>
        <time>2026-03-27T13:55:48Z</time>
      </trkpt>
      <trkpt lat="43.48623" lon="6.5769">
        <ele>59.9</ele>
        <time>2026-03-27T13:55:49Z</time>
      </trkpt>
      <trkpt lat="43.48623" lon="6.5769">
        <ele>59.8</ele>
        <time>2026-03-27T13:55:50Z</time>
      </trkpt>
      <trkpt lat="43.48623" lon="6.5769">
        <ele>59.7</ele>
        <time>2026-03-27T13:55:51Z</time>
      </trkpt>
      <trkpt lat="43.48623" lon="6.5769">
        <ele>59.6</ele>
        <time>2026-03-27T13:55:52Z</time>
      </trkpt>
      <trkpt lat="43.48623" lon="6.5769">
        <ele>59.6</ele>
        <time>2026-03-27T13:55:53Z</time>
      </trkpt>
      <trkpt lat="43.48623" lon="6.5769">
        <ele>59.4</ele>
        <time>2026-03-27T13:55:54Z</time>
      </trkpt>
      <trkpt lat="43.48623" lon="6.5769">
        <ele>59.3</ele>
        <time>2026-03-27T13:55:55Z</time>
      </trkpt>
      <trkpt lat="43.48623" lon="6.5769">
        <ele>59.4</ele>
        <time>2026-03-27T13:55:56Z</time>
      </trkpt>
      <trkpt lat="43.48623" lon="6.5769">
        <ele>59.4</ele>
        <time>2026-03-27T13:55:57Z</time>
      </trkpt>
      <trkpt lat="43.48623" lon="6.57691">
        <ele>59.4</ele>
        <time>2026-03-27T13:55:58Z</time>
      </trkpt>
      <trkpt lat="43.48623" lon="6.57691">
        <ele>59.4</ele>
        <time>2026-03-27T13:55:59Z</time>
      </trkpt>
      <trkpt lat="43.48623" lon="6.57691">
        <ele>59.3</ele>
        <time>2026-03-27T13:56:00Z</time>
      </trkpt>
      <trkpt lat="43.48623" lon="6.57691">
        <ele>59.2</ele>
        <time>2026-03-27T13:56:01Z</time>
      </trkpt>
      <trkpt lat="43.48623" lon="6.5769">
        <ele>59.1</ele>
        <time>2026-03-27T13:56:02Z</time>
      </trkpt>
      <trkpt lat="43.48623" lon="6.5769">
        <ele>59.1</ele>
        <time>2026-03-27T13:56:03Z</time>
      </trkpt>
      <trkpt lat="43.48623" lon="6.5769">
        <ele>59.2</ele>
        <time>2026-03-27T13:56:04Z</time>
      </trkpt>
      <trkpt lat="43.48623" lon="6.5769">
        <ele>59.2</ele>
        <time>2026-03-27T13:56:05Z</time>
      </trkpt>
      <trkpt lat="43.48623" lon="6.5769">
        <ele>59.3</ele>
        <time>2026-03-27T13:56:06Z</time>
      </trkpt>
      <trkpt lat="43.48623" lon="6.5769">
        <ele>59.2</ele>
        <time>2026-03-27T13:56:07Z</time>
      </trkpt>
      <trkpt lat="43.48623" lon="6.5769">
        <ele>59.2</ele>
        <time>2026-03-27T13:56:08Z</time>
      </trkpt>
      <trkpt lat="43.48623" lon="6.5769">
        <ele>59.2</ele>
        <time>2026-03-27T13:56:09Z</time>
      </trkpt>
      <trkpt lat="43.48623" lon="6.5769">
        <ele>59.1</ele>
        <time>2026-03-27T13:56:10Z</time>
      </trkpt>
      <trkpt lat="43.48623" lon="6.5769">
        <ele>59.1</ele>
        <time>2026-03-27T13:56:11Z</time>
      </trkpt>
      <trkpt lat="43.48623" lon="6.5769">
        <ele>59</ele>
        <time>2026-03-27T13:56:12Z</time>
      </trkpt>
      <trkpt lat="43.48623" lon="6.5769">
        <ele>59</ele>
        <time>2026-03-27T13:56:13Z</time>
      </trkpt>
      <trkpt lat="43.48623" lon="6.5769">
        <ele>59.1</ele>
        <time>2026-03-27T13:56:14Z</time>
      </trkpt>
      <trkpt lat="43.48623" lon="6.57689">
        <ele>59.2</ele>
        <time>2026-03-27T13:56:15Z</time>
      </trkpt>
      <trkpt lat="43.48624" lon="6.57689">
        <ele>59.3</ele>
        <time>2026-03-27T13:56:16Z</time>
      </trkpt>
      <trkpt lat="43.48623" lon="6.57689">
        <ele>59.3</ele>
        <time>2026-03-27T13:56:17Z</time>
      </trkpt>
      <trkpt lat="43.48623" lon="6.57689">
        <ele>59.3</ele>
        <time>2026-03-27T13:56:18Z</time>
      </trkpt>
      <trkpt lat="43.48624" lon="6.57689">
        <ele>59.3</ele>
        <time>2026-03-27T13:56:19Z</time>
      </trkpt>
      <trkpt lat="43.48624" lon="6.57688">
        <ele>59.3</ele>
        <time>2026-03-27T13:56:20Z</time>
      </trkpt>
      <trkpt lat="43.48624" lon="6.57688">
        <ele>59.1</ele>
        <time>2026-03-27T13:56:21Z</time>
      </trkpt>
      <trkpt lat="43.48624" lon="6.57688">
        <ele>59.1</ele>
        <time>2026-03-27T13:56:22Z</time>
      </trkpt>
      <trkpt lat="43.48624" lon="6.57688">
        <ele>59.2</ele>
        <time>2026-03-27T13:56:23Z</time>
      </trkpt>
      <trkpt lat="43.48623" lon="6.57688">
        <ele>59.2</ele>
        <time>2026-03-27T13:56:24Z</time>
      </trkpt>
      <trkpt lat="43.48623" lon="6.57688">
        <ele>59.2</ele>
        <time>2026-03-27T13:56:25Z</time>
      </trkpt>
      <trkpt lat="43.48623" lon="6.57688">
        <ele>59.1</ele>
        <time>2026-03-27T13:56:26Z</time>
      </trkpt>
      <trkpt lat="43.48623" lon="6.57688">
        <ele>59.1</ele>
        <time>2026-03-27T13:56:27Z</time>
      </trkpt>
      <trkpt lat="43.48623" lon="6.57688">
        <ele>59.1</ele>
        <time>2026-03-27T13:56:28Z</time>
      </trkpt>
      <trkpt lat="43.48623" lon="6.57688">
        <ele>59.2</ele>
        <time>2026-03-27T13:56:29Z</time>
      </trkpt>
      <trkpt lat="43.48623" lon="6.57688">
        <ele>59</ele>
        <time>2026-03-27T13:56:30Z</time>
      </trkpt>
      <trkpt lat="43.48623" lon="6.57688">
        <ele>59</ele>
        <time>2026-03-27T13:56:31Z</time>
      </trkpt>
      <trkpt lat="43.48623" lon="6.57688">
        <ele>59.1</ele>
        <time>2026-03-27T13:56:32Z</time>
      </trkpt>
      <trkpt lat="43.48624" lon="6.57688">
        <ele>59.1</ele>
        <time>2026-03-27T13:56:33Z</time>
      </trkpt>
      <trkpt lat="43.48624" lon="6.57688">
        <ele>59.1</ele>
        <time>2026-03-27T13:56:34Z</time>
      </trkpt>
      <trkpt lat="43.48624" lon="6.57687">
        <ele>59</ele>
        <time>2026-03-27T13:56:35Z</time>
      </trkpt>
      <trkpt lat="43.48624" lon="6.57687">
        <ele>59</ele>
        <time>2026-03-27T13:56:36Z</time>
      </trkpt>
      <trkpt lat="43.48624" lon="6.57687">
        <ele>59</ele>
        <time>2026-03-27T13:56:37Z</time>
      </trkpt>
      <trkpt lat="43.48624" lon="6.57687">
        <ele>58.9</ele>
        <time>2026-03-27T13:56:38Z</time>
      </trkpt>
      <trkpt lat="43.48624" lon="6.57687">
        <ele>58.9</ele>
        <time>2026-03-27T13:56:39Z</time>
      </trkpt>
      <trkpt lat="43.48624" lon="6.57687">
        <ele>59</ele>
        <time>2026-03-27T13:56:40Z</time>
      </trkpt>
      <trkpt lat="43.48624" lon="6.57687">
        <ele>59</ele>
        <time>2026-03-27T13:56:41Z</time>
      </trkpt>
      <trkpt lat="43.48624" lon="6.57687">
        <ele>59.1</ele>
        <time>2026-03-27T13:56:42Z</time>
      </trkpt>
      <trkpt lat="43.48624" lon="6.57687">
        <ele>59.2</ele>
        <time>2026-03-27T13:56:43Z</time>
      </trkpt>
      <trkpt lat="43.48624" lon="6.57687">
        <ele>59.3</ele>
        <time>2026-03-27T13:56:44Z</time>
      </trkpt>
      <trkpt lat="43.48624" lon="6.57687">
        <ele>59.3</ele>
        <time>2026-03-27T13:56:45Z</time>
      </trkpt>
      <trkpt lat="43.48624" lon="6.57687">
        <ele>59.4</ele>
        <time>2026-03-27T13:56:46Z</time>
      </trkpt>
      <trkpt lat="43.48624" lon="6.57687">
        <ele>59.4</ele>
        <time>2026-03-27T13:56:47Z</time>
      </trkpt>
      <trkpt lat="43.48624" lon="6.57687">
        <ele>59.4</ele>
        <time>2026-03-27T13:56:48Z</time>
      </trkpt>
      <trkpt lat="43.48624" lon="6.57687">
        <ele>59.4</ele>
        <time>2026-03-27T13:56:49Z</time>
      </trkpt>
      <trkpt lat="43.48624" lon="6.57687">
        <ele>59.4</ele>
        <time>2026-03-27T13:56:50Z</time>
      </trkpt>
      <trkpt lat="43.48625" lon="6.57687">
        <ele>59.4</ele>
        <time>2026-03-27T13:56:51Z</time>
      </trkpt>
      <trkpt lat="43.48625" lon="6.57687">
        <ele>59.4</ele>
        <time>2026-03-27T13:56:52Z</time>
      </trkpt>
      <trkpt lat="43.48624" lon="6.57687">
        <ele>59.4</ele>
        <time>2026-03-27T13:56:53Z</time>
      </trkpt>
      <trkpt lat="43.48624" lon="6.57687">
        <ele>59.3</ele>
        <time>2026-03-27T13:56:54Z</time>
      </trkpt>
      <trkpt lat="43.48625" lon="6.57687">
        <ele>59.3</ele>
        <time>2026-03-27T13:56:55Z</time>
      </trkpt>
      <trkpt lat="43.48625" lon="6.57687">
        <ele>59.3</ele>
        <time>2026-03-27T13:56:56Z</time>
      </trkpt>
      <trkpt lat="43.48625" lon="6.57687">
        <ele>59.3</ele>
        <time>2026-03-27T13:56:57Z</time>
      </trkpt>
      <trkpt lat="43.48625" lon="6.57687">
        <ele>59.3</ele>
        <time>2026-03-27T13:56:58Z</time>
      </trkpt>
      <trkpt lat="43.48625" lon="6.57687">
        <ele>59.4</ele>
        <time>2026-03-27T13:56:59Z</time>
      </trkpt>
      <trkpt lat="43.48625" lon="6.57687">
        <ele>59.5</ele>
        <time>2026-03-27T13:57:00Z</time>
      </trkpt>
      <trkpt lat="43.48625" lon="6.57687">
        <ele>59.5</ele>
        <time>2026-03-27T13:57:01Z</time>
      </trkpt>
      <trkpt lat="43.48625" lon="6.57687">
        <ele>59.5</ele>
        <time>2026-03-27T13:57:02Z</time>
      </trkpt>
      <trkpt lat="43.48625" lon="6.57687">
        <ele>59.5</ele>
        <time>2026-03-27T13:57:03Z</time>
      </trkpt>
      <trkpt lat="43.48625" lon="6.57687">
        <ele>59.5</ele>
        <time>2026-03-27T13:57:04Z</time>
      </trkpt>
      <trkpt lat="43.48625" lon="6.57687">
        <ele>59.5</ele>
        <time>2026-03-27T13:57:05Z</time>
      </trkpt>
      <trkpt lat="43.48625" lon="6.57686">
        <ele>59.6</ele>
        <time>2026-03-27T13:57:06Z</time>
      </trkpt>
      <trkpt lat="43.48625" lon="6.57686">
        <ele>59.6</ele>
        <time>2026-03-27T13:57:07Z</time>
      </trkpt>
      <trkpt lat="43.48625" lon="6.57687">
        <ele>59.6</ele>
        <time>2026-03-27T13:57:08Z</time>
      </trkpt>
      <trkpt lat="43.48625" lon="6.57687">
        <ele>59.6</ele>
        <time>2026-03-27T13:57:09Z</time>
      </trkpt>
      <trkpt lat="43.48625" lon="6.57686">
        <ele>59.6</ele>
        <time>2026-03-27T13:57:10Z</time>
      </trkpt>
      <trkpt lat="43.48625" lon="6.57686">
        <ele>59.7</ele>
        <time>2026-03-27T13:57:11Z</time>
      </trkpt>
      <trkpt lat="43.48625" lon="6.57686">
        <ele>59.7</ele>
        <time>2026-03-27T13:57:12Z</time>
      </trkpt>
      <trkpt lat="43.48625" lon="6.57686">
        <ele>59.6</ele>
        <time>2026-03-27T13:57:13Z</time>
      </trkpt>
      <trkpt lat="43.48625" lon="6.57686">
        <ele>59.6</ele>
        <time>2026-03-27T13:57:14Z</time>
      </trkpt>
      <trkpt lat="43.48625" lon="6.57686">
        <ele>59.6</ele>
        <time>2026-03-27T13:57:15Z</time>
      </trkpt>
      <trkpt lat="43.48625" lon="6.57686">
        <ele>59.5</ele>
        <time>2026-03-27T13:57:16Z</time>
      </trkpt>
      <trkpt lat="43.48625" lon="6.57686">
        <ele>59.4</ele>
        <time>2026-03-27T13:57:17Z</time>
      </trkpt>
      <trkpt lat="43.48625" lon="6.57686">
        <ele>59.3</ele>
        <time>2026-03-27T13:57:18Z</time>
      </trkpt>
      <trkpt lat="43.48625" lon="6.57686">
        <ele>59.2</ele>
        <time>2026-03-27T13:57:19Z</time>
      </trkpt>
      <trkpt lat="43.48625" lon="6.57686">
        <ele>59.3</ele>
        <time>2026-03-27T13:57:20Z</time>
      </trkpt>
      <trkpt lat="43.48625" lon="6.57686">
        <ele>59.3</ele>
        <time>2026-03-27T13:57:21Z</time>
      </trkpt>
      <trkpt lat="43.48625" lon="6.57686">
        <ele>59.3</ele>
        <time>2026-03-27T13:57:22Z</time>
      </trkpt>
      <trkpt lat="43.48625" lon="6.57686">
        <ele>59.3</ele>
        <time>2026-03-27T13:57:23Z</time>
      </trkpt>
      <trkpt lat="43.48625" lon="6.57686">
        <ele>59.4</ele>
        <time>2026-03-27T13:57:24Z</time>
      </trkpt>
      <trkpt lat="43.48624" lon="6.57686">
        <ele>59.4</ele>
        <time>2026-03-27T13:57:25Z</time>
      </trkpt>
      <trkpt lat="43.48625" lon="6.57687">
        <ele>59.4</ele>
        <time>2026-03-27T13:57:26Z</time>
      </trkpt>
      <trkpt lat="43.48625" lon="6.57687">
        <ele>59.4</ele>
        <time>2026-03-27T13:57:27Z</time>
      </trkpt>
      <trkpt lat="43.48625" lon="6.57687">
        <ele>59.4</ele>
        <time>2026-03-27T13:57:28Z</time>
      </trkpt>
      <trkpt lat="43.48625" lon="6.57687">
        <ele>59.3</ele>
        <time>2026-03-27T13:57:29Z</time>
      </trkpt>
      <trkpt lat="43.48625" lon="6.57687">
        <ele>59.4</ele>
        <time>2026-03-27T13:57:30Z</time>
      </trkpt>
      <trkpt lat="43.48625" lon="6.57687">
        <ele>59.4</ele>
        <time>2026-03-27T13:57:31Z</time>
      </trkpt>
      <trkpt lat="43.48625" lon="6.57687">
        <ele>59.4</ele>
        <time>2026-03-27T13:57:32Z</time>
      </trkpt>
      <trkpt lat="43.48625" lon="6.57687">
        <ele>59.4</ele>
        <time>2026-03-27T13:57:33Z</time>
      </trkpt>
      <trkpt lat="43.48625" lon="6.57687">
        <ele>59.4</ele>
        <time>2026-03-27T13:57:34Z</time>
      </trkpt>
      <trkpt lat="43.48625" lon="6.57687">
        <ele>59.2</ele>
        <time>2026-03-27T13:57:35Z</time>
      </trkpt>
      <trkpt lat="43.48625" lon="6.57687">
        <ele>59.1</ele>
        <time>2026-03-27T13:57:36Z</time>
      </trkpt>
      <trkpt lat="43.48625" lon="6.57687">
        <ele>59.2</ele>
        <time>2026-03-27T13:57:37Z</time>
      </trkpt>
      <trkpt lat="43.48625" lon="6.57687">
        <ele>59.2</ele>
        <time>2026-03-27T13:57:38Z</time>
      </trkpt>
      <trkpt lat="43.48625" lon="6.57687">
        <ele>59.2</ele>
        <time>2026-03-27T13:57:39Z</time>
      </trkpt>
      <trkpt lat="43.48625" lon="6.57687">
        <ele>59.2</ele>
        <time>2026-03-27T13:57:40Z</time>
      </trkpt>
      <trkpt lat="43.48625" lon="6.57687">
        <ele>59.3</ele>
        <time>2026-03-27T13:57:41Z</time>
      </trkpt>
      <trkpt lat="43.48625" lon="6.57687">
        <ele>59.3</ele>
        <time>2026-03-27T13:57:42Z</time>
      </trkpt>
      <trkpt lat="43.48625" lon="6.57687">
        <ele>59.2</ele>
        <time>2026-03-27T13:57:43Z</time>
      </trkpt>
      <trkpt lat="43.48625" lon="6.57687">
        <ele>59.3</ele>
        <time>2026-03-27T13:57:44Z</time>
      </trkpt>
      <trkpt lat="43.48625" lon="6.57687">
        <ele>59.2</ele>
        <time>2026-03-27T13:57:45Z</time>
      </trkpt>
      <trkpt lat="43.48625" lon="6.57687">
        <ele>59.3</ele>
        <time>2026-03-27T13:57:46Z</time>
      </trkpt>
      <trkpt lat="43.48625" lon="6.57687">
        <ele>59.4</ele>
        <time>2026-03-27T13:57:47Z</time>
      </trkpt>
      <trkpt lat="43.48625" lon="6.57686">
        <ele>59.4</ele>
        <time>2026-03-27T13:57:48Z</time>
      </trkpt>
      <trkpt lat="43.48625" lon="6.57686">
        <ele>59.4</ele>
        <time>2026-03-27T13:57:49Z</time>
      </trkpt>
      <trkpt lat="43.48626" lon="6.57687">
        <ele>59.3</ele>
        <time>2026-03-27T13:57:50Z</time>
      </trkpt>
      <trkpt lat="43.48626" lon="6.57687">
        <ele>59.3</ele>
        <time>2026-03-27T13:57:51Z</time>
      </trkpt>
      <trkpt lat="43.48625" lon="6.57687">
        <ele>59.3</ele>
        <time>2026-03-27T13:57:52Z</time>
      </trkpt>
      <trkpt lat="43.48625" lon="6.57687">
        <ele>59.3</ele>
        <time>2026-03-27T13:57:53Z</time>
      </trkpt>
      <trkpt lat="43.48625" lon="6.57688">
        <ele>59.2</ele>
        <time>2026-03-27T13:57:54Z</time>
      </trkpt>
      <trkpt lat="43.48625" lon="6.57688">
        <ele>59.2</ele>
        <time>2026-03-27T13:57:55Z</time>
      </trkpt>
      <trkpt lat="43.48625" lon="6.57688">
        <ele>59.2</ele>
        <time>2026-03-27T13:57:56Z</time>
      </trkpt>
      <trkpt lat="43.48625" lon="6.57688">
        <ele>59.2</ele>
        <time>2026-03-27T13:57:57Z</time>
      </trkpt>
      <trkpt lat="43.48625" lon="6.57688">
        <ele>59.1</ele>
        <time>2026-03-27T13:57:58Z</time>
      </trkpt>
      <trkpt lat="43.48625" lon="6.57688">
        <ele>59.1</ele>
        <time>2026-03-27T13:57:59Z</time>
      </trkpt>
      <trkpt lat="43.48625" lon="6.57689">
        <ele>59.1</ele>
        <time>2026-03-27T13:58:00Z</time>
      </trkpt>
      <trkpt lat="43.48624" lon="6.57689">
        <ele>59.1</ele>
        <time>2026-03-27T13:58:01Z</time>
      </trkpt>
      <trkpt lat="43.48624" lon="6.57689">
        <ele>59.1</ele>
        <time>2026-03-27T13:58:02Z</time>
      </trkpt>
      <trkpt lat="43.48624" lon="6.57689">
        <ele>59.2</ele>
        <time>2026-03-27T13:58:03Z</time>
      </trkpt>
      <trkpt lat="43.48624" lon="6.57689">
        <ele>59.2</ele>
        <time>2026-03-27T13:58:04Z</time>
      </trkpt>
      <trkpt lat="43.48624" lon="6.57689">
        <ele>59.2</ele>
        <time>2026-03-27T13:58:05Z</time>
      </trkpt>
      <trkpt lat="43.48624" lon="6.57689">
        <ele>59.3</ele>
        <time>2026-03-27T13:58:06Z</time>
      </trkpt>
      <trkpt lat="43.48624" lon="6.5769">
        <ele>59.3</ele>
        <time>2026-03-27T13:58:07Z</time>
      </trkpt>
      <trkpt lat="43.48624" lon="6.5769">
        <ele>59.3</ele>
        <time>2026-03-27T13:58:08Z</time>
      </trkpt>
      <trkpt lat="43.48624" lon="6.5769">
        <ele>59.3</ele>
        <time>2026-03-27T13:58:09Z</time>
      </trkpt>
      <trkpt lat="43.48624" lon="6.5769">
        <ele>59.4</ele>
        <time>2026-03-27T13:58:10Z</time>
      </trkpt>
      <trkpt lat="43.48623" lon="6.5769">
        <ele>59.4</ele>
        <time>2026-03-27T13:58:11Z</time>
      </trkpt>
      <trkpt lat="43.48623" lon="6.5769">
        <ele>59.4</ele>
        <time>2026-03-27T13:58:12Z</time>
      </trkpt>
      <trkpt lat="43.48623" lon="6.5769">
        <ele>59.4</ele>
        <time>2026-03-27T13:58:13Z</time>
      </trkpt>
      <trkpt lat="43.48623" lon="6.5769">
        <ele>59.4</ele>
        <time>2026-03-27T13:58:14Z</time>
      </trkpt>
      <trkpt lat="43.48623" lon="6.5769">
        <ele>59.4</ele>
        <time>2026-03-27T13:58:15Z</time>
      </trkpt>
      <trkpt lat="43.48623" lon="6.5769">
        <ele>59.4</ele>
        <time>2026-03-27T13:58:16Z</time>
      </trkpt>
      <trkpt lat="43.48622" lon="6.5769">
        <ele>59.3</ele>
        <time>2026-03-27T13:58:17Z</time>
      </trkpt>
      <trkpt lat="43.48622" lon="6.5769">
        <ele>59.3</ele>
        <time>2026-03-27T13:58:18Z</time>
      </trkpt>
      <trkpt lat="43.48622" lon="6.5769">
        <ele>59.4</ele>
        <time>2026-03-27T13:58:19Z</time>
      </trkpt>
      <trkpt lat="43.48622" lon="6.5769">
        <ele>59.5</ele>
        <time>2026-03-27T13:58:20Z</time>
      </trkpt>
      <trkpt lat="43.48622" lon="6.5769">
        <ele>59.6</ele>
        <time>2026-03-27T13:58:21Z</time>
      </trkpt>
      <trkpt lat="43.48622" lon="6.5769">
        <ele>59.6</ele>
        <time>2026-03-27T13:58:22Z</time>
      </trkpt>
      <trkpt lat="43.48622" lon="6.5769">
        <ele>59.7</ele>
        <time>2026-03-27T13:58:23Z</time>
      </trkpt>
      <trkpt lat="43.48622" lon="6.5769">
        <ele>59.7</ele>
        <time>2026-03-27T13:58:24Z</time>
      </trkpt>
      <trkpt lat="43.48622" lon="6.5769">
        <ele>59.8</ele>
        <time>2026-03-27T13:58:25Z</time>
      </trkpt>
      <trkpt lat="43.48622" lon="6.57691">
        <ele>59.7</ele>
        <time>2026-03-27T13:58:26Z</time>
      </trkpt>
      <trkpt lat="43.48622" lon="6.57691">
        <ele>59.6</ele>
        <time>2026-03-27T13:58:27Z</time>
      </trkpt>
      <trkpt lat="43.48622" lon="6.57691">
        <ele>59.7</ele>
        <time>2026-03-27T13:58:28Z</time>
      </trkpt>
      <trkpt lat="43.48622" lon="6.57691">
        <ele>59.7</ele>
        <time>2026-03-27T13:58:29Z</time>
      </trkpt>
      <trkpt lat="43.48622" lon="6.57691">
        <ele>59.7</ele>
        <time>2026-03-27T13:58:30Z</time>
      </trkpt>
      <trkpt lat="43.48622" lon="6.57691">
        <ele>59.7</ele>
        <time>2026-03-27T13:58:31Z</time>
      </trkpt>
      <trkpt lat="43.48622" lon="6.57691">
        <ele>59.7</ele>
        <time>2026-03-27T13:58:32Z</time>
      </trkpt>
      <trkpt lat="43.48622" lon="6.57691">
        <ele>59.7</ele>
        <time>2026-03-27T13:58:33Z</time>
      </trkpt>
      <trkpt lat="43.48623" lon="6.57691">
        <ele>59.6</ele>
        <time>2026-03-27T13:58:34Z</time>
      </trkpt>
      <trkpt lat="43.48623" lon="6.57691">
        <ele>59.5</ele>
        <time>2026-03-27T13:58:35Z</time>
      </trkpt>
      <trkpt lat="43.48623" lon="6.57691">
        <ele>59.6</ele>
        <time>2026-03-27T13:58:36Z</time>
      </trkpt>
      <trkpt lat="43.48623" lon="6.57692">
        <ele>59.6</ele>
        <time>2026-03-27T13:58:37Z</time>
      </trkpt>
      <trkpt lat="43.48624" lon="6.57692">
        <ele>59.7</ele>
        <time>2026-03-27T13:58:38Z</time>
      </trkpt>
      <trkpt lat="43.48623" lon="6.57692">
        <ele>59.7</ele>
        <time>2026-03-27T13:58:39Z</time>
      </trkpt>
      <trkpt lat="43.48623" lon="6.57692">
        <ele>59.6</ele>
        <time>2026-03-27T13:58:40Z</time>
      </trkpt>
      <trkpt lat="43.48623" lon="6.57692">
        <ele>59.5</ele>
        <time>2026-03-27T13:58:41Z</time>
      </trkpt>
      <trkpt lat="43.48624" lon="6.57692">
        <ele>59.5</ele>
        <time>2026-03-27T13:58:42Z</time>
      </trkpt>
      <trkpt lat="43.48624" lon="6.57693">
        <ele>59.5</ele>
        <time>2026-03-27T13:58:43Z</time>
      </trkpt>
      <trkpt lat="43.48624" lon="6.57693">
        <ele>59.5</ele>
        <time>2026-03-27T13:58:44Z</time>
      </trkpt>
      <trkpt lat="43.48624" lon="6.57693">
        <ele>59.6</ele>
        <time>2026-03-27T13:58:45Z</time>
      </trkpt>
      <trkpt lat="43.48624" lon="6.57693">
        <ele>59.7</ele>
        <time>2026-03-27T13:58:46Z</time>
      </trkpt>
      <trkpt lat="43.48624" lon="6.57693">
        <ele>59.7</ele>
        <time>2026-03-27T13:58:47Z</time>
      </trkpt>
      <trkpt lat="43.48624" lon="6.57693">
        <ele>59.6</ele>
        <time>2026-03-27T13:58:48Z</time>
      </trkpt>
      <trkpt lat="43.48625" lon="6.57693">
        <ele>59.6</ele>
        <time>2026-03-27T13:58:49Z</time>
      </trkpt>
      <trkpt lat="43.48624" lon="6.57693">
        <ele>59.6</ele>
        <time>2026-03-27T13:58:50Z</time>
      </trkpt>
      <trkpt lat="43.48624" lon="6.57693">
        <ele>59.5</ele>
        <time>2026-03-27T13:58:51Z</time>
      </trkpt>
      <trkpt lat="43.48624" lon="6.57695">
        <ele>59.5</ele>
        <time>2026-03-27T13:58:52Z</time>
      </trkpt>
      <trkpt lat="43.48624" lon="6.57696">
        <ele>59.5</ele>
        <time>2026-03-27T13:58:53Z</time>
      </trkpt>
      <trkpt lat="43.48624" lon="6.57697">
        <ele>59.5</ele>
        <time>2026-03-27T13:58:54Z</time>
      </trkpt>
      <trkpt lat="43.48625" lon="6.57698">
        <ele>59.4</ele>
        <time>2026-03-27T13:58:55Z</time>
      </trkpt>
      <trkpt lat="43.48625" lon="6.577">
        <ele>59.5</ele>
        <time>2026-03-27T13:58:56Z</time>
      </trkpt>
      <trkpt lat="43.48625" lon="6.57701">
        <ele>59.6</ele>
        <time>2026-03-27T13:58:57Z</time>
      </trkpt>
      <trkpt lat="43.48625" lon="6.57702">
        <ele>59.6</ele>
        <time>2026-03-27T13:58:58Z</time>
      </trkpt>
      <trkpt lat="43.48625" lon="6.57704">
        <ele>59.7</ele>
        <time>2026-03-27T13:58:59Z</time>
      </trkpt>
      <trkpt lat="43.48625" lon="6.57705">
        <ele>59.7</ele>
        <time>2026-03-27T13:59:00Z</time>
      </trkpt>
      <trkpt lat="43.48625" lon="6.57707">
        <ele>59.8</ele>
        <time>2026-03-27T13:59:01Z</time>
      </trkpt>
      <trkpt lat="43.48626" lon="6.57708">
        <ele>59.9</ele>
        <time>2026-03-27T13:59:02Z</time>
      </trkpt>
      <trkpt lat="43.48626" lon="6.57709">
        <ele>59.9</ele>
        <time>2026-03-27T13:59:03Z</time>
      </trkpt>
      <trkpt lat="43.48626" lon="6.57711">
        <ele>60</ele>
        <time>2026-03-27T13:59:04Z</time>
      </trkpt>
      <trkpt lat="43.48626" lon="6.57712">
        <ele>59.9</ele>
        <time>2026-03-27T13:59:05Z</time>
      </trkpt>
      <trkpt lat="43.48626" lon="6.57714">
        <ele>60</ele>
        <time>2026-03-27T13:59:06Z</time>
      </trkpt>
      <trkpt lat="43.48626" lon="6.57716">
        <ele>60</ele>
        <time>2026-03-27T13:59:07Z</time>
      </trkpt>
      <trkpt lat="43.48627" lon="6.57717">
        <ele>60</ele>
        <time>2026-03-27T13:59:08Z</time>
      </trkpt>
      <trkpt lat="43.48626" lon="6.57718">
        <ele>60.1</ele>
        <time>2026-03-27T13:59:09Z</time>
      </trkpt>
      <trkpt lat="43.48627" lon="6.5772">
        <ele>60.1</ele>
        <time>2026-03-27T13:59:10Z</time>
      </trkpt>
      <trkpt lat="43.48627" lon="6.57722">
        <ele>60.3</ele>
        <time>2026-03-27T13:59:11Z</time>
      </trkpt>
      <trkpt lat="43.48627" lon="6.57723">
        <ele>60.4</ele>
        <time>2026-03-27T13:59:12Z</time>
      </trkpt>
      <trkpt lat="43.48627" lon="6.57724">
        <ele>60.5</ele>
        <time>2026-03-27T13:59:13Z</time>
      </trkpt>
      <trkpt lat="43.48628" lon="6.57726">
        <ele>60.6</ele>
        <time>2026-03-27T13:59:14Z</time>
      </trkpt>
      <trkpt lat="43.48629" lon="6.57727">
        <ele>60.7</ele>
        <time>2026-03-27T13:59:15Z</time>
      </trkpt>
      <trkpt lat="43.48629" lon="6.57729">
        <ele>60.9</ele>
        <time>2026-03-27T13:59:16Z</time>
      </trkpt>
      <trkpt lat="43.48629" lon="6.5773">
        <ele>61.1</ele>
        <time>2026-03-27T13:59:17Z</time>
      </trkpt>
      <trkpt lat="43.4863" lon="6.57731">
        <ele>61.2</ele>
        <time>2026-03-27T13:59:18Z</time>
      </trkpt>
      <trkpt lat="43.4863" lon="6.57733">
        <ele>61.3</ele>
        <time>2026-03-27T13:59:19Z</time>
      </trkpt>
      <trkpt lat="43.4863" lon="6.57734">
        <ele>61.3</ele>
        <time>2026-03-27T13:59:20Z</time>
      </trkpt>
      <trkpt lat="43.4863" lon="6.57735">
        <ele>61.3</ele>
        <time>2026-03-27T13:59:21Z</time>
      </trkpt>
      <trkpt lat="43.48631" lon="6.57737">
        <ele>61.3</ele>
        <time>2026-03-27T13:59:22Z</time>
      </trkpt>
      <trkpt lat="43.48631" lon="6.57738">
        <ele>61.3</ele>
        <time>2026-03-27T13:59:23Z</time>
      </trkpt>
      <trkpt lat="43.48632" lon="6.57739">
        <ele>61.4</ele>
        <time>2026-03-27T13:59:24Z</time>
      </trkpt>
      <trkpt lat="43.48632" lon="6.57741">
        <ele>61.5</ele>
        <time>2026-03-27T13:59:25Z</time>
      </trkpt>
      <trkpt lat="43.48632" lon="6.57743">
        <ele>61.6</ele>
        <time>2026-03-27T13:59:26Z</time>
      </trkpt>
      <trkpt lat="43.48632" lon="6.57744">
        <ele>61.7</ele>
        <time>2026-03-27T13:59:27Z</time>
      </trkpt>
      <trkpt lat="43.48633" lon="6.57746">
        <ele>61.7</ele>
        <time>2026-03-27T13:59:28Z</time>
      </trkpt>
      <trkpt lat="43.48633" lon="6.57747">
        <ele>61.9</ele>
        <time>2026-03-27T13:59:29Z</time>
      </trkpt>
      <trkpt lat="43.48634" lon="6.57748">
        <ele>62</ele>
        <time>2026-03-27T13:59:30Z</time>
      </trkpt>
      <trkpt lat="43.48635" lon="6.5775">
        <ele>62</ele>
        <time>2026-03-27T13:59:31Z</time>
      </trkpt>
      <trkpt lat="43.48635" lon="6.57751">
        <ele>62.1</ele>
        <time>2026-03-27T13:59:32Z</time>
      </trkpt>
      <trkpt lat="43.48635" lon="6.57753">
        <ele>62.1</ele>
        <time>2026-03-27T13:59:33Z</time>
      </trkpt>
      <trkpt lat="43.48636" lon="6.57754">
        <ele>62.1</ele>
        <time>2026-03-27T13:59:34Z</time>
      </trkpt>
      <trkpt lat="43.48636" lon="6.57756">
        <ele>62.1</ele>
        <time>2026-03-27T13:59:35Z</time>
      </trkpt>
      <trkpt lat="43.48637" lon="6.57757">
        <ele>62.2</ele>
        <time>2026-03-27T13:59:36Z</time>
      </trkpt>
      <trkpt lat="43.48637" lon="6.57759">
        <ele>62.4</ele>
        <time>2026-03-27T13:59:37Z</time>
      </trkpt>
      <trkpt lat="43.48638" lon="6.5776">
        <ele>62.5</ele>
        <time>2026-03-27T13:59:38Z</time>
      </trkpt>
      <trkpt lat="43.48638" lon="6.57762">
        <ele>62.6</ele>
        <time>2026-03-27T13:59:39Z</time>
      </trkpt>
      <trkpt lat="43.48639" lon="6.57763">
        <ele>62.6</ele>
        <time>2026-03-27T13:59:40Z</time>
      </trkpt>
      <trkpt lat="43.48639" lon="6.57764">
        <ele>62.7</ele>
        <time>2026-03-27T13:59:41Z</time>
      </trkpt>
      <trkpt lat="43.48639" lon="6.57766">
        <ele>62.7</ele>
        <time>2026-03-27T13:59:42Z</time>
      </trkpt>
      <trkpt lat="43.48639" lon="6.57767">
        <ele>62.9</ele>
        <time>2026-03-27T13:59:43Z</time>
      </trkpt>
      <trkpt lat="43.4864" lon="6.57769">
        <ele>63</ele>
        <time>2026-03-27T13:59:44Z</time>
      </trkpt>
      <trkpt lat="43.4864" lon="6.57771">
        <ele>63</ele>
        <time>2026-03-27T13:59:45Z</time>
      </trkpt>
      <trkpt lat="43.4864" lon="6.57772">
        <ele>63.2</ele>
        <time>2026-03-27T13:59:46Z</time>
      </trkpt>
      <trkpt lat="43.48641" lon="6.57774">
        <ele>63.3</ele>
        <time>2026-03-27T13:59:47Z</time>
      </trkpt>
      <trkpt lat="43.48641" lon="6.57776">
        <ele>63.4</ele>
        <time>2026-03-27T13:59:48Z</time>
      </trkpt>
      <trkpt lat="43.48642" lon="6.57777">
        <ele>63.5</ele>
        <time>2026-03-27T13:59:49Z</time>
      </trkpt>
      <trkpt lat="43.48642" lon="6.57779">
        <ele>63.5</ele>
        <time>2026-03-27T13:59:50Z</time>
      </trkpt>
      <trkpt lat="43.48642" lon="6.5778">
        <ele>63.5</ele>
        <time>2026-03-27T13:59:51Z</time>
      </trkpt>
      <trkpt lat="43.48642" lon="6.57781">
        <ele>63.6</ele>
        <time>2026-03-27T13:59:52Z</time>
      </trkpt>
      <trkpt lat="43.48643" lon="6.57783">
        <ele>63.7</ele>
        <time>2026-03-27T13:59:53Z</time>
      </trkpt>
      <trkpt lat="43.48643" lon="6.57785">
        <ele>63.7</ele>
        <time>2026-03-27T13:59:54Z</time>
      </trkpt>
      <trkpt lat="43.48643" lon="6.57787">
        <ele>63.8</ele>
        <time>2026-03-27T13:59:55Z</time>
      </trkpt>
      <trkpt lat="43.48643" lon="6.57788">
        <ele>64</ele>
        <time>2026-03-27T13:59:56Z</time>
      </trkpt>
      <trkpt lat="43.48644" lon="6.5779">
        <ele>64.1</ele>
        <time>2026-03-27T13:59:57Z</time>
      </trkpt>
      <trkpt lat="43.48644" lon="6.57792">
        <ele>64.2</ele>
        <time>2026-03-27T13:59:58Z</time>
      </trkpt>
      <trkpt lat="43.48645" lon="6.57793">
        <ele>64.3</ele>
        <time>2026-03-27T13:59:59Z</time>
      </trkpt>
      <trkpt lat="43.48645" lon="6.57794">
        <ele>64.3</ele>
        <time>2026-03-27T14:00:00Z</time>
      </trkpt>
      <trkpt lat="43.48645" lon="6.57795">
        <ele>64.3</ele>
        <time>2026-03-27T14:00:01Z</time>
      </trkpt>
      <trkpt lat="43.48646" lon="6.57795">
        <ele>64.4</ele>
        <time>2026-03-27T14:00:02Z</time>
      </trkpt>
      <trkpt lat="43.48647" lon="6.57797">
        <ele>64.6</ele>
        <time>2026-03-27T14:00:03Z</time>
      </trkpt>
      <trkpt lat="43.48647" lon="6.57799">
        <ele>64.7</ele>
        <time>2026-03-27T14:00:04Z</time>
      </trkpt>
      <trkpt lat="43.48647" lon="6.57801">
        <ele>64.6</ele>
        <time>2026-03-27T14:00:05Z</time>
      </trkpt>
      <trkpt lat="43.48647" lon="6.57802">
        <ele>64.7</ele>
        <time>2026-03-27T14:00:06Z</time>
      </trkpt>
      <trkpt lat="43.48648" lon="6.57804">
        <ele>64.9</ele>
        <time>2026-03-27T14:00:07Z</time>
      </trkpt>
      <trkpt lat="43.48648" lon="6.57805">
        <ele>65.1</ele>
        <time>2026-03-27T14:00:08Z</time>
      </trkpt>
      <trkpt lat="43.48649" lon="6.57807">
        <ele>65.2</ele>
        <time>2026-03-27T14:00:09Z</time>
      </trkpt>
      <trkpt lat="43.48649" lon="6.57808">
        <ele>65.2</ele>
        <time>2026-03-27T14:00:10Z</time>
      </trkpt>
      <trkpt lat="43.48649" lon="6.57809">
        <ele>65.3</ele>
        <time>2026-03-27T14:00:11Z</time>
      </trkpt>
      <trkpt lat="43.48649" lon="6.57809">
        <ele>65.3</ele>
        <time>2026-03-27T14:00:12Z</time>
      </trkpt>
      <trkpt lat="43.48649" lon="6.5781">
        <ele>65.4</ele>
        <time>2026-03-27T14:00:13Z</time>
      </trkpt>
      <trkpt lat="43.48649" lon="6.57812">
        <ele>65.4</ele>
        <time>2026-03-27T14:00:14Z</time>
      </trkpt>
      <trkpt lat="43.4865" lon="6.57814">
        <ele>65.5</ele>
        <time>2026-03-27T14:00:15Z</time>
      </trkpt>
      <trkpt lat="43.4865" lon="6.57815">
        <ele>65.5</ele>
        <time>2026-03-27T14:00:16Z</time>
      </trkpt>
      <trkpt lat="43.48651" lon="6.57816">
        <ele>65.4</ele>
        <time>2026-03-27T14:00:17Z</time>
      </trkpt>
      <trkpt lat="43.48651" lon="6.57818">
        <ele>65.4</ele>
        <time>2026-03-27T14:00:18Z</time>
      </trkpt>
      <trkpt lat="43.48651" lon="6.5782">
        <ele>65.3</ele>
        <time>2026-03-27T14:00:19Z</time>
      </trkpt>
      <trkpt lat="43.48652" lon="6.57821">
        <ele>65.3</ele>
        <time>2026-03-27T14:00:20Z</time>
      </trkpt>
      <trkpt lat="43.48652" lon="6.57823">
        <ele>65.3</ele>
        <time>2026-03-27T14:00:21Z</time>
      </trkpt>
      <trkpt lat="43.48652" lon="6.57825">
        <ele>65.3</ele>
        <time>2026-03-27T14:00:22Z</time>
      </trkpt>
      <trkpt lat="43.48653" lon="6.57827">
        <ele>65.2</ele>
        <time>2026-03-27T14:00:23Z</time>
      </trkpt>
      <trkpt lat="43.48653" lon="6.57828">
        <ele>65.2</ele>
        <time>2026-03-27T14:00:24Z</time>
      </trkpt>
      <trkpt lat="43.48654" lon="6.5783">
        <ele>65.1</ele>
        <time>2026-03-27T14:00:25Z</time>
      </trkpt>
      <trkpt lat="43.48654" lon="6.57832">
        <ele>65.1</ele>
        <time>2026-03-27T14:00:26Z</time>
      </trkpt>
      <trkpt lat="43.48655" lon="6.57833">
        <ele>65.1</ele>
        <time>2026-03-27T14:00:27Z</time>
      </trkpt>
      <trkpt lat="43.48655" lon="6.57835">
        <ele>65.1</ele>
        <time>2026-03-27T14:00:28Z</time>
      </trkpt>
      <trkpt lat="43.48655" lon="6.57836">
        <ele>65.5</ele>
        <time>2026-03-27T14:00:29Z</time>
      </trkpt>
      <trkpt lat="43.48656" lon="6.57837">
        <ele>65.4</ele>
        <time>2026-03-27T14:00:30Z</time>
      </trkpt>
      <trkpt lat="43.48656" lon="6.57839">
        <ele>65.3</ele>
        <time>2026-03-27T14:00:31Z</time>
      </trkpt>
      <trkpt lat="43.48657" lon="6.57841">
        <ele>65.2</ele>
        <time>2026-03-27T14:00:32Z</time>
      </trkpt>
      <trkpt lat="43.48657" lon="6.57842">
        <ele>65.1</ele>
        <time>2026-03-27T14:00:33Z</time>
      </trkpt>
      <trkpt lat="43.48657" lon="6.57844">
        <ele>65</ele>
        <time>2026-03-27T14:00:34Z</time>
      </trkpt>
      <trkpt lat="43.48658" lon="6.57845">
        <ele>65</ele>
        <time>2026-03-27T14:00:35Z</time>
      </trkpt>
      <trkpt lat="43.48659" lon="6.57847">
        <ele>65</ele>
        <time>2026-03-27T14:00:36Z</time>
      </trkpt>
      <trkpt lat="43.48659" lon="6.57849">
        <ele>65</ele>
        <time>2026-03-27T14:00:37Z</time>
      </trkpt>
      <trkpt lat="43.48659" lon="6.5785">
        <ele>65.2</ele>
        <time>2026-03-27T14:00:38Z</time>
      </trkpt>
      <trkpt lat="43.4866" lon="6.57852">
        <ele>65.2</ele>
        <time>2026-03-27T14:00:39Z</time>
      </trkpt>
      <trkpt lat="43.4866" lon="6.57853">
        <ele>65.1</ele>
        <time>2026-03-27T14:00:40Z</time>
      </trkpt>
      <trkpt lat="43.4866" lon="6.57855">
        <ele>65.2</ele>
        <time>2026-03-27T14:00:41Z</time>
      </trkpt>
      <trkpt lat="43.48661" lon="6.57856">
        <ele>65.3</ele>
        <time>2026-03-27T14:00:42Z</time>
      </trkpt>
      <trkpt lat="43.48661" lon="6.57858">
        <ele>65.3</ele>
        <time>2026-03-27T14:00:43Z</time>
      </trkpt>
      <trkpt lat="43.48661" lon="6.57859">
        <ele>65.4</ele>
        <time>2026-03-27T14:00:44Z</time>
      </trkpt>
      <trkpt lat="43.48662" lon="6.57861">
        <ele>65.5</ele>
        <time>2026-03-27T14:00:45Z</time>
      </trkpt>
      <trkpt lat="43.48662" lon="6.57862">
        <ele>65.6</ele>
        <time>2026-03-27T14:00:46Z</time>
      </trkpt>
      <trkpt lat="43.48662" lon="6.57864">
        <ele>65.7</ele>
        <time>2026-03-27T14:00:47Z</time>
      </trkpt>
      <trkpt lat="43.48662" lon="6.57866">
        <ele>65.7</ele>
        <time>2026-03-27T14:00:48Z</time>
      </trkpt>
      <trkpt lat="43.48662" lon="6.57868">
        <ele>65.7</ele>
        <time>2026-03-27T14:00:49Z</time>
      </trkpt>
      <trkpt lat="43.48662" lon="6.57869">
        <ele>65.7</ele>
        <time>2026-03-27T14:00:50Z</time>
      </trkpt>
      <trkpt lat="43.48663" lon="6.57871">
        <ele>65.7</ele>
        <time>2026-03-27T14:00:51Z</time>
      </trkpt>
      <trkpt lat="43.48663" lon="6.57872">
        <ele>65.8</ele>
        <time>2026-03-27T14:00:52Z</time>
      </trkpt>
      <trkpt lat="43.48663" lon="6.57874">
        <ele>65.8</ele>
        <time>2026-03-27T14:00:53Z</time>
      </trkpt>
      <trkpt lat="43.48664" lon="6.57875">
        <ele>65.7</ele>
        <time>2026-03-27T14:00:54Z</time>
      </trkpt>
      <trkpt lat="43.48664" lon="6.57877">
        <ele>65.7</ele>
        <time>2026-03-27T14:00:55Z</time>
      </trkpt>
      <trkpt lat="43.48664" lon="6.57878">
        <ele>65.8</ele>
        <time>2026-03-27T14:00:56Z</time>
      </trkpt>
      <trkpt lat="43.48664" lon="6.5788">
        <ele>65.9</ele>
        <time>2026-03-27T14:00:57Z</time>
      </trkpt>
      <trkpt lat="43.48664" lon="6.57882">
        <ele>65.8</ele>
        <time>2026-03-27T14:00:58Z</time>
      </trkpt>
      <trkpt lat="43.48664" lon="6.57883">
        <ele>65.7</ele>
        <time>2026-03-27T14:00:59Z</time>
      </trkpt>
      <trkpt lat="43.48664" lon="6.57885">
        <ele>65.8</ele>
        <time>2026-03-27T14:01:00Z</time>
      </trkpt>
      <trkpt lat="43.48664" lon="6.57887">
        <ele>65.9</ele>
        <time>2026-03-27T14:01:01Z</time>
      </trkpt>
      <trkpt lat="43.48664" lon="6.57888">
        <ele>66</ele>
        <time>2026-03-27T14:01:02Z</time>
      </trkpt>
      <trkpt lat="43.48664" lon="6.5789">
        <ele>66.1</ele>
        <time>2026-03-27T14:01:03Z</time>
      </trkpt>
      <trkpt lat="43.48664" lon="6.57891">
        <ele>65.9</ele>
        <time>2026-03-27T14:01:04Z</time>
      </trkpt>
      <trkpt lat="43.48663" lon="6.57893">
        <ele>66</ele>
        <time>2026-03-27T14:01:05Z</time>
      </trkpt>
      <trkpt lat="43.48663" lon="6.57895">
        <ele>66</ele>
        <time>2026-03-27T14:01:06Z</time>
      </trkpt>
      <trkpt lat="43.48663" lon="6.57896">
        <ele>66</ele>
        <time>2026-03-27T14:01:07Z</time>
      </trkpt>
      <trkpt lat="43.48663" lon="6.57897">
        <ele>66.1</ele>
        <time>2026-03-27T14:01:08Z</time>
      </trkpt>
      <trkpt lat="43.48663" lon="6.57899">
        <ele>66.1</ele>
        <time>2026-03-27T14:01:09Z</time>
      </trkpt>
      <trkpt lat="43.48663" lon="6.57901">
        <ele>66.2</ele>
        <time>2026-03-27T14:01:10Z</time>
      </trkpt>
      <trkpt lat="43.48662" lon="6.57902">
        <ele>66.3</ele>
        <time>2026-03-27T14:01:11Z</time>
      </trkpt>
      <trkpt lat="43.48662" lon="6.57904">
        <ele>66.3</ele>
        <time>2026-03-27T14:01:12Z</time>
      </trkpt>
      <trkpt lat="43.48662" lon="6.57905">
        <ele>66.4</ele>
        <time>2026-03-27T14:01:13Z</time>
      </trkpt>
      <trkpt lat="43.48662" lon="6.57907">
        <ele>66.5</ele>
        <time>2026-03-27T14:01:14Z</time>
      </trkpt>
      <trkpt lat="43.48662" lon="6.57909">
        <ele>66.6</ele>
        <time>2026-03-27T14:01:15Z</time>
      </trkpt>
      <trkpt lat="43.48662" lon="6.5791">
        <ele>66.7</ele>
        <time>2026-03-27T14:01:16Z</time>
      </trkpt>
      <trkpt lat="43.48663" lon="6.57912">
        <ele>66.6</ele>
        <time>2026-03-27T14:01:17Z</time>
      </trkpt>
      <trkpt lat="43.48663" lon="6.57914">
        <ele>66.6</ele>
        <time>2026-03-27T14:01:18Z</time>
      </trkpt>
      <trkpt lat="43.48663" lon="6.57915">
        <ele>66.7</ele>
        <time>2026-03-27T14:01:19Z</time>
      </trkpt>
      <trkpt lat="43.48663" lon="6.57917">
        <ele>66.7</ele>
        <time>2026-03-27T14:01:20Z</time>
      </trkpt>
      <trkpt lat="43.48662" lon="6.57918">
        <ele>66.7</ele>
        <time>2026-03-27T14:01:21Z</time>
      </trkpt>
      <trkpt lat="43.48662" lon="6.5792">
        <ele>66.7</ele>
        <time>2026-03-27T14:01:22Z</time>
      </trkpt>
      <trkpt lat="43.48662" lon="6.57921">
        <ele>66.6</ele>
        <time>2026-03-27T14:01:23Z</time>
      </trkpt>
      <trkpt lat="43.48663" lon="6.57923">
        <ele>66.6</ele>
        <time>2026-03-27T14:01:24Z</time>
      </trkpt>
      <trkpt lat="43.48663" lon="6.57924">
        <ele>66.6</ele>
        <time>2026-03-27T14:01:25Z</time>
      </trkpt>
      <trkpt lat="43.48663" lon="6.57926">
        <ele>66.7</ele>
        <time>2026-03-27T14:01:26Z</time>
      </trkpt>
      <trkpt lat="43.48663" lon="6.57928">
        <ele>66.7</ele>
        <time>2026-03-27T14:01:27Z</time>
      </trkpt>
      <trkpt lat="43.48663" lon="6.57929">
        <ele>66.8</ele>
        <time>2026-03-27T14:01:28Z</time>
      </trkpt>
      <trkpt lat="43.48663" lon="6.57931">
        <ele>66.8</ele>
        <time>2026-03-27T14:01:29Z</time>
      </trkpt>
      <trkpt lat="43.48663" lon="6.57932">
        <ele>66.8</ele>
        <time>2026-03-27T14:01:30Z</time>
      </trkpt>
      <trkpt lat="43.48663" lon="6.57933">
        <ele>66.8</ele>
        <time>2026-03-27T14:01:31Z</time>
      </trkpt>
      <trkpt lat="43.48664" lon="6.57934">
        <ele>66.8</ele>
        <time>2026-03-27T14:01:32Z</time>
      </trkpt>
      <trkpt lat="43.48664" lon="6.57935">
        <ele>66.9</ele>
        <time>2026-03-27T14:01:33Z</time>
      </trkpt>
      <trkpt lat="43.48663" lon="6.57936">
        <ele>66.9</ele>
        <time>2026-03-27T14:01:34Z</time>
      </trkpt>
      <trkpt lat="43.48663" lon="6.57937">
        <ele>66.9</ele>
        <time>2026-03-27T14:01:35Z</time>
      </trkpt>
      <trkpt lat="43.48664" lon="6.57938">
        <ele>66.9</ele>
        <time>2026-03-27T14:01:36Z</time>
      </trkpt>
      <trkpt lat="43.48664" lon="6.5794">
        <ele>66.9</ele>
        <time>2026-03-27T14:01:37Z</time>
      </trkpt>
      <trkpt lat="43.48664" lon="6.57941">
        <ele>66.9</ele>
        <time>2026-03-27T14:01:38Z</time>
      </trkpt>
      <trkpt lat="43.48665" lon="6.57943">
        <ele>66.9</ele>
        <time>2026-03-27T14:01:39Z</time>
      </trkpt>
      <trkpt lat="43.48665" lon="6.57944">
        <ele>66.9</ele>
        <time>2026-03-27T14:01:40Z</time>
      </trkpt>
      <trkpt lat="43.48665" lon="6.57946">
        <ele>66.9</ele>
        <time>2026-03-27T14:01:41Z</time>
      </trkpt>
      <trkpt lat="43.48665" lon="6.57947">
        <ele>66.7</ele>
        <time>2026-03-27T14:01:42Z</time>
      </trkpt>
      <trkpt lat="43.48665" lon="6.57949">
        <ele>66.6</ele>
        <time>2026-03-27T14:01:43Z</time>
      </trkpt>
      <trkpt lat="43.48665" lon="6.5795">
        <ele>66.7</ele>
        <time>2026-03-27T14:01:44Z</time>
      </trkpt>
      <trkpt lat="43.48666" lon="6.57952">
        <ele>66.7</ele>
        <time>2026-03-27T14:01:45Z</time>
      </trkpt>
      <trkpt lat="43.48666" lon="6.57953">
        <ele>66.7</ele>
        <time>2026-03-27T14:01:46Z</time>
      </trkpt>
      <trkpt lat="43.48666" lon="6.57954">
        <ele>66.7</ele>
        <time>2026-03-27T14:01:47Z</time>
      </trkpt>
      <trkpt lat="43.48667" lon="6.57956">
        <ele>66.6</ele>
        <time>2026-03-27T14:01:48Z</time>
      </trkpt>
      <trkpt lat="43.48667" lon="6.57957">
        <ele>66.6</ele>
        <time>2026-03-27T14:01:49Z</time>
      </trkpt>
      <trkpt lat="43.48667" lon="6.57958">
        <ele>66.6</ele>
        <time>2026-03-27T14:01:50Z</time>
      </trkpt>
      <trkpt lat="43.48667" lon="6.57959">
        <ele>66.6</ele>
        <time>2026-03-27T14:01:51Z</time>
      </trkpt>
      <trkpt lat="43.48667" lon="6.5796">
        <ele>66.6</ele>
        <time>2026-03-27T14:01:52Z</time>
      </trkpt>
      <trkpt lat="43.48667" lon="6.57962">
        <ele>66.6</ele>
        <time>2026-03-27T14:01:53Z</time>
      </trkpt>
      <trkpt lat="43.48667" lon="6.57964">
        <ele>66.6</ele>
        <time>2026-03-27T14:01:54Z</time>
      </trkpt>
      <trkpt lat="43.48667" lon="6.57965">
        <ele>66.6</ele>
        <time>2026-03-27T14:01:55Z</time>
      </trkpt>
      <trkpt lat="43.48667" lon="6.57966">
        <ele>66.7</ele>
        <time>2026-03-27T14:01:56Z</time>
      </trkpt>
      <trkpt lat="43.48667" lon="6.57968">
        <ele>66.8</ele>
        <time>2026-03-27T14:01:57Z</time>
      </trkpt>
      <trkpt lat="43.48668" lon="6.57969">
        <ele>66.9</ele>
        <time>2026-03-27T14:01:58Z</time>
      </trkpt>
      <trkpt lat="43.48668" lon="6.57971">
        <ele>66.9</ele>
        <time>2026-03-27T14:01:59Z</time>
      </trkpt>
      <trkpt lat="43.48668" lon="6.57973">
        <ele>66.8</ele>
        <time>2026-03-27T14:02:00Z</time>
      </trkpt>
      <trkpt lat="43.48668" lon="6.57974">
        <ele>66.7</ele>
        <time>2026-03-27T14:02:01Z</time>
      </trkpt>
      <trkpt lat="43.48668" lon="6.57976">
        <ele>66.7</ele>
        <time>2026-03-27T14:02:02Z</time>
      </trkpt>
      <trkpt lat="43.48668" lon="6.57978">
        <ele>66.7</ele>
        <time>2026-03-27T14:02:03Z</time>
      </trkpt>
      <trkpt lat="43.48668" lon="6.5798">
        <ele>66.7</ele>
        <time>2026-03-27T14:02:04Z</time>
      </trkpt>
      <trkpt lat="43.48668" lon="6.57981">
        <ele>66.6</ele>
        <time>2026-03-27T14:02:05Z</time>
      </trkpt>
      <trkpt lat="43.48668" lon="6.57982">
        <ele>66.5</ele>
        <time>2026-03-27T14:02:06Z</time>
      </trkpt>
      <trkpt lat="43.48668" lon="6.57984">
        <ele>66.5</ele>
        <time>2026-03-27T14:02:07Z</time>
      </trkpt>
      <trkpt lat="43.48668" lon="6.57986">
        <ele>66.5</ele>
        <time>2026-03-27T14:02:08Z</time>
      </trkpt>
      <trkpt lat="43.48668" lon="6.57988">
        <ele>66.4</ele>
        <time>2026-03-27T14:02:09Z</time>
      </trkpt>
      <trkpt lat="43.48668" lon="6.57989">
        <ele>66.4</ele>
        <time>2026-03-27T14:02:10Z</time>
      </trkpt>
      <trkpt lat="43.48668" lon="6.57991">
        <ele>66.4</ele>
        <time>2026-03-27T14:02:11Z</time>
      </trkpt>
      <trkpt lat="43.48668" lon="6.57992">
        <ele>66.4</ele>
        <time>2026-03-27T14:02:12Z</time>
      </trkpt>
      <trkpt lat="43.48668" lon="6.57994">
        <ele>66.4</ele>
        <time>2026-03-27T14:02:13Z</time>
      </trkpt>
      <trkpt lat="43.48668" lon="6.57995">
        <ele>66.3</ele>
        <time>2026-03-27T14:02:14Z</time>
      </trkpt>
      <trkpt lat="43.48667" lon="6.57997">
        <ele>66.2</ele>
        <time>2026-03-27T14:02:15Z</time>
      </trkpt>
      <trkpt lat="43.48667" lon="6.57999">
        <ele>66.1</ele>
        <time>2026-03-27T14:02:16Z</time>
      </trkpt>
      <trkpt lat="43.48667" lon="6.58">
        <ele>66.1</ele>
        <time>2026-03-27T14:02:17Z</time>
      </trkpt>
      <trkpt lat="43.48666" lon="6.58001">
        <ele>66.6</ele>
        <time>2026-03-27T14:02:18Z</time>
      </trkpt>
      <trkpt lat="43.48666" lon="6.58003">
        <ele>66.4</ele>
        <time>2026-03-27T14:02:19Z</time>
      </trkpt>
      <trkpt lat="43.48665" lon="6.58004">
        <ele>66.4</ele>
        <time>2026-03-27T14:02:20Z</time>
      </trkpt>
      <trkpt lat="43.48665" lon="6.58006">
        <ele>66.4</ele>
        <time>2026-03-27T14:02:21Z</time>
      </trkpt>
      <trkpt lat="43.48664" lon="6.58007">
        <ele>66.3</ele>
        <time>2026-03-27T14:02:22Z</time>
      </trkpt>
      <trkpt lat="43.48663" lon="6.58009">
        <ele>66.3</ele>
        <time>2026-03-27T14:02:23Z</time>
      </trkpt>
      <trkpt lat="43.48663" lon="6.58011">
        <ele>66.2</ele>
        <time>2026-03-27T14:02:24Z</time>
      </trkpt>
      <trkpt lat="43.48663" lon="6.58012">
        <ele>66.2</ele>
        <time>2026-03-27T14:02:25Z</time>
      </trkpt>
      <trkpt lat="43.48662" lon="6.58014">
        <ele>66.2</ele>
        <time>2026-03-27T14:02:26Z</time>
      </trkpt>
      <trkpt lat="43.48662" lon="6.58015">
        <ele>66.2</ele>
        <time>2026-03-27T14:02:27Z</time>
      </trkpt>
      <trkpt lat="43.48661" lon="6.58016">
        <ele>66.1</ele>
        <time>2026-03-27T14:02:28Z</time>
      </trkpt>
      <trkpt lat="43.48661" lon="6.58018">
        <ele>66</ele>
        <time>2026-03-27T14:02:29Z</time>
      </trkpt>
      <trkpt lat="43.4866" lon="6.58019">
        <ele>65.8</ele>
        <time>2026-03-27T14:02:30Z</time>
      </trkpt>
      <trkpt lat="43.4866" lon="6.5802">
        <ele>65.7</ele>
        <time>2026-03-27T14:02:31Z</time>
      </trkpt>
      <trkpt lat="43.4866" lon="6.58022">
        <ele>65.6</ele>
        <time>2026-03-27T14:02:32Z</time>
      </trkpt>
      <trkpt lat="43.48659" lon="6.58023">
        <ele>65.5</ele>
        <time>2026-03-27T14:02:33Z</time>
      </trkpt>
      <trkpt lat="43.48658" lon="6.58025">
        <ele>65.4</ele>
        <time>2026-03-27T14:02:34Z</time>
      </trkpt>
      <trkpt lat="43.48658" lon="6.58027">
        <ele>65.4</ele>
        <time>2026-03-27T14:02:35Z</time>
      </trkpt>
      <trkpt lat="43.48657" lon="6.58028">
        <ele>65.8</ele>
        <time>2026-03-27T14:02:36Z</time>
      </trkpt>
      <trkpt lat="43.48657" lon="6.58029">
        <ele>65.7</ele>
        <time>2026-03-27T14:02:37Z</time>
      </trkpt>
      <trkpt lat="43.48656" lon="6.58031">
        <ele>65.7</ele>
        <time>2026-03-27T14:02:38Z</time>
      </trkpt>
      <trkpt lat="43.48655" lon="6.58032">
        <ele>65.7</ele>
        <time>2026-03-27T14:02:39Z</time>
      </trkpt>
      <trkpt lat="43.48655" lon="6.58033">
        <ele>65.5</ele>
        <time>2026-03-27T14:02:40Z</time>
      </trkpt>
      <trkpt lat="43.48654" lon="6.58035">
        <ele>65.7</ele>
        <time>2026-03-27T14:02:41Z</time>
      </trkpt>
      <trkpt lat="43.48654" lon="6.58036">
        <ele>65.3</ele>
        <time>2026-03-27T14:02:42Z</time>
      </trkpt>
      <trkpt lat="43.48653" lon="6.58038">
        <ele>65.3</ele>
        <time>2026-03-27T14:02:43Z</time>
      </trkpt>
      <trkpt lat="43.48653" lon="6.58039">
        <ele>65.1</ele>
        <time>2026-03-27T14:02:44Z</time>
      </trkpt>
      <trkpt lat="43.48652" lon="6.5804">
        <ele>65</ele>
        <time>2026-03-27T14:02:45Z</time>
      </trkpt>
      <trkpt lat="43.48652" lon="6.58042">
        <ele>64.8</ele>
        <time>2026-03-27T14:02:46Z</time>
      </trkpt>
      <trkpt lat="43.48651" lon="6.58043">
        <ele>64.6</ele>
        <time>2026-03-27T14:02:47Z</time>
      </trkpt>
      <trkpt lat="43.48651" lon="6.58045">
        <ele>64.5</ele>
        <time>2026-03-27T14:02:48Z</time>
      </trkpt>
      <trkpt lat="43.4865" lon="6.58046">
        <ele>64.5</ele>
        <time>2026-03-27T14:02:49Z</time>
      </trkpt>
      <trkpt lat="43.48649" lon="6.58048">
        <ele>64.4</ele>
        <time>2026-03-27T14:02:50Z</time>
      </trkpt>
      <trkpt lat="43.48649" lon="6.58049">
        <ele>64.3</ele>
        <time>2026-03-27T14:02:51Z</time>
      </trkpt>
      <trkpt lat="43.48648" lon="6.58051">
        <ele>64.1</ele>
        <time>2026-03-27T14:02:52Z</time>
      </trkpt>
      <trkpt lat="43.48648" lon="6.58052">
        <ele>64</ele>
        <time>2026-03-27T14:02:53Z</time>
      </trkpt>
      <trkpt lat="43.48647" lon="6.58054">
        <ele>63.9</ele>
        <time>2026-03-27T14:02:54Z</time>
      </trkpt>
      <trkpt lat="43.48647" lon="6.58056">
        <ele>63.9</ele>
        <time>2026-03-27T14:02:55Z</time>
      </trkpt>
      <trkpt lat="43.48647" lon="6.58058">
        <ele>63.9</ele>
        <time>2026-03-27T14:02:56Z</time>
      </trkpt>
      <trkpt lat="43.48647" lon="6.5806">
        <ele>63.9</ele>
        <time>2026-03-27T14:02:57Z</time>
      </trkpt>
      <trkpt lat="43.48647" lon="6.58062">
        <ele>63.9</ele>
        <time>2026-03-27T14:02:58Z</time>
      </trkpt>
      <trkpt lat="43.48647" lon="6.58063">
        <ele>63.9</ele>
        <time>2026-03-27T14:02:59Z</time>
      </trkpt>
      <trkpt lat="43.48647" lon="6.58065">
        <ele>64</ele>
        <time>2026-03-27T14:03:00Z</time>
      </trkpt>
      <trkpt lat="43.48647" lon="6.58066">
        <ele>64</ele>
        <time>2026-03-27T14:03:01Z</time>
      </trkpt>
      <trkpt lat="43.48647" lon="6.58068">
        <ele>64</ele>
        <time>2026-03-27T14:03:02Z</time>
      </trkpt>
      <trkpt lat="43.48647" lon="6.58069">
        <ele>63.9</ele>
        <time>2026-03-27T14:03:03Z</time>
      </trkpt>
      <trkpt lat="43.48647" lon="6.58071">
        <ele>64</ele>
        <time>2026-03-27T14:03:04Z</time>
      </trkpt>
      <trkpt lat="43.48646" lon="6.58073">
        <ele>63.8</ele>
        <time>2026-03-27T14:03:05Z</time>
      </trkpt>
      <trkpt lat="43.48646" lon="6.58074">
        <ele>63.6</ele>
        <time>2026-03-27T14:03:06Z</time>
      </trkpt>
      <trkpt lat="43.48646" lon="6.58076">
        <ele>63.5</ele>
        <time>2026-03-27T14:03:07Z</time>
      </trkpt>
      <trkpt lat="43.48646" lon="6.58078">
        <ele>63.5</ele>
        <time>2026-03-27T14:03:08Z</time>
      </trkpt>
      <trkpt lat="43.48646" lon="6.58079">
        <ele>63.5</ele>
        <time>2026-03-27T14:03:09Z</time>
      </trkpt>
      <trkpt lat="43.48646" lon="6.58081">
        <ele>63.4</ele>
        <time>2026-03-27T14:03:10Z</time>
      </trkpt>
      <trkpt lat="43.48646" lon="6.58082">
        <ele>63.4</ele>
        <time>2026-03-27T14:03:11Z</time>
      </trkpt>
      <trkpt lat="43.48646" lon="6.58084">
        <ele>63.4</ele>
        <time>2026-03-27T14:03:12Z</time>
      </trkpt>
      <trkpt lat="43.48646" lon="6.58085">
        <ele>63.3</ele>
        <time>2026-03-27T14:03:13Z</time>
      </trkpt>
      <trkpt lat="43.48647" lon="6.58087">
        <ele>63.5</ele>
        <time>2026-03-27T14:03:14Z</time>
      </trkpt>
      <trkpt lat="43.48647" lon="6.58088">
        <ele>63.6</ele>
        <time>2026-03-27T14:03:15Z</time>
      </trkpt>
      <trkpt lat="43.48647" lon="6.5809">
        <ele>63.8</ele>
        <time>2026-03-27T14:03:16Z</time>
      </trkpt>
      <trkpt lat="43.48648" lon="6.58091">
        <ele>63.9</ele>
        <time>2026-03-27T14:03:17Z</time>
      </trkpt>
      <trkpt lat="43.48648" lon="6.58092">
        <ele>63.9</ele>
        <time>2026-03-27T14:03:18Z</time>
      </trkpt>
      <trkpt lat="43.48648" lon="6.58094">
        <ele>63.9</ele>
        <time>2026-03-27T14:03:19Z</time>
      </trkpt>
      <trkpt lat="43.48649" lon="6.58095">
        <ele>63.9</ele>
        <time>2026-03-27T14:03:20Z</time>
      </trkpt>
      <trkpt lat="43.48649" lon="6.58097">
        <ele>64.2</ele>
        <time>2026-03-27T14:03:21Z</time>
      </trkpt>
      <trkpt lat="43.48649" lon="6.58098">
        <ele>64.2</ele>
        <time>2026-03-27T14:03:22Z</time>
      </trkpt>
      <trkpt lat="43.48649" lon="6.581">
        <ele>64.4</ele>
        <time>2026-03-27T14:03:23Z</time>
      </trkpt>
      <trkpt lat="43.4865" lon="6.58101">
        <ele>64.3</ele>
        <time>2026-03-27T14:03:24Z</time>
      </trkpt>
      <trkpt lat="43.4865" lon="6.58102">
        <ele>64.4</ele>
        <time>2026-03-27T14:03:25Z</time>
      </trkpt>
      <trkpt lat="43.48651" lon="6.58104">
        <ele>64.4</ele>
        <time>2026-03-27T14:03:26Z</time>
      </trkpt>
      <trkpt lat="43.48652" lon="6.58105">
        <ele>64.5</ele>
        <time>2026-03-27T14:03:27Z</time>
      </trkpt>
      <trkpt lat="43.48652" lon="6.58106">
        <ele>64.5</ele>
        <time>2026-03-27T14:03:28Z</time>
      </trkpt>
      <trkpt lat="43.48653" lon="6.58108">
        <ele>64.5</ele>
        <time>2026-03-27T14:03:29Z</time>
      </trkpt>
      <trkpt lat="43.48653" lon="6.5811">
        <ele>64.1</ele>
        <time>2026-03-27T14:03:30Z</time>
      </trkpt>
      <trkpt lat="43.48654" lon="6.58112">
        <ele>64.2</ele>
        <time>2026-03-27T14:03:31Z</time>
      </trkpt>
      <trkpt lat="43.48654" lon="6.58113">
        <ele>64.4</ele>
        <time>2026-03-27T14:03:32Z</time>
      </trkpt>
      <trkpt lat="43.48655" lon="6.58115">
        <ele>64.5</ele>
        <time>2026-03-27T14:03:33Z</time>
      </trkpt>
      <trkpt lat="43.48655" lon="6.58117">
        <ele>64.5</ele>
        <time>2026-03-27T14:03:34Z</time>
      </trkpt>
      <trkpt lat="43.48656" lon="6.58118">
        <ele>64.5</ele>
        <time>2026-03-27T14:03:35Z</time>
      </trkpt>
      <trkpt lat="43.48656" lon="6.5812">
        <ele>64.6</ele>
        <time>2026-03-27T14:03:36Z</time>
      </trkpt>
      <trkpt lat="43.48657" lon="6.58121">
        <ele>64.6</ele>
        <time>2026-03-27T14:03:37Z</time>
      </trkpt>
      <trkpt lat="43.48657" lon="6.58123">
        <ele>64.6</ele>
        <time>2026-03-27T14:03:38Z</time>
      </trkpt>
      <trkpt lat="43.48657" lon="6.58125">
        <ele>64.6</ele>
        <time>2026-03-27T14:03:39Z</time>
      </trkpt>
      <trkpt lat="43.48657" lon="6.58126">
        <ele>64.6</ele>
        <time>2026-03-27T14:03:40Z</time>
      </trkpt>
      <trkpt lat="43.48658" lon="6.58128">
        <ele>64.7</ele>
        <time>2026-03-27T14:03:41Z</time>
      </trkpt>
      <trkpt lat="43.48658" lon="6.5813">
        <ele>64.8</ele>
        <time>2026-03-27T14:03:42Z</time>
      </trkpt>
      <trkpt lat="43.48658" lon="6.58132">
        <ele>64.8</ele>
        <time>2026-03-27T14:03:43Z</time>
      </trkpt>
      <trkpt lat="43.48658" lon="6.58133">
        <ele>64.9</ele>
        <time>2026-03-27T14:03:44Z</time>
      </trkpt>
      <trkpt lat="43.48659" lon="6.58134">
        <ele>64.9</ele>
        <time>2026-03-27T14:03:45Z</time>
      </trkpt>
      <trkpt lat="43.48659" lon="6.58136">
        <ele>64.9</ele>
        <time>2026-03-27T14:03:46Z</time>
      </trkpt>
      <trkpt lat="43.48659" lon="6.58138">
        <ele>64.9</ele>
        <time>2026-03-27T14:03:47Z</time>
      </trkpt>
      <trkpt lat="43.48659" lon="6.58139">
        <ele>64.6</ele>
        <time>2026-03-27T14:03:48Z</time>
      </trkpt>
      <trkpt lat="43.48659" lon="6.58141">
        <ele>64.5</ele>
        <time>2026-03-27T14:03:49Z</time>
      </trkpt>
      <trkpt lat="43.48659" lon="6.58143">
        <ele>64.5</ele>
        <time>2026-03-27T14:03:50Z</time>
      </trkpt>
      <trkpt lat="43.48659" lon="6.58144">
        <ele>64.5</ele>
        <time>2026-03-27T14:03:51Z</time>
      </trkpt>
      <trkpt lat="43.48659" lon="6.58146">
        <ele>64.5</ele>
        <time>2026-03-27T14:03:52Z</time>
      </trkpt>
      <trkpt lat="43.48659" lon="6.58147">
        <ele>64.6</ele>
        <time>2026-03-27T14:03:53Z</time>
      </trkpt>
      <trkpt lat="43.48659" lon="6.58149">
        <ele>64.6</ele>
        <time>2026-03-27T14:03:54Z</time>
      </trkpt>
      <trkpt lat="43.48659" lon="6.58151">
        <ele>64.6</ele>
        <time>2026-03-27T14:03:55Z</time>
      </trkpt>
      <trkpt lat="43.48659" lon="6.58152">
        <ele>64.6</ele>
        <time>2026-03-27T14:03:56Z</time>
      </trkpt>
      <trkpt lat="43.48659" lon="6.58154">
        <ele>64.7</ele>
        <time>2026-03-27T14:03:57Z</time>
      </trkpt>
      <trkpt lat="43.48659" lon="6.58156">
        <ele>64.8</ele>
        <time>2026-03-27T14:03:58Z</time>
      </trkpt>
      <trkpt lat="43.48659" lon="6.58158">
        <ele>64.7</ele>
        <time>2026-03-27T14:03:59Z</time>
      </trkpt>
      <trkpt lat="43.48659" lon="6.5816">
        <ele>64.7</ele>
        <time>2026-03-27T14:04:00Z</time>
      </trkpt>
      <trkpt lat="43.4866" lon="6.58161">
        <ele>64.7</ele>
        <time>2026-03-27T14:04:01Z</time>
      </trkpt>
      <trkpt lat="43.48659" lon="6.58163">
        <ele>64.7</ele>
        <time>2026-03-27T14:04:02Z</time>
      </trkpt>
      <trkpt lat="43.48659" lon="6.58165">
        <ele>64.6</ele>
        <time>2026-03-27T14:04:03Z</time>
      </trkpt>
      <trkpt lat="43.48659" lon="6.58167">
        <ele>64.6</ele>
        <time>2026-03-27T14:04:04Z</time>
      </trkpt>
      <trkpt lat="43.48659" lon="6.58169">
        <ele>64.5</ele>
        <time>2026-03-27T14:04:05Z</time>
      </trkpt>
      <trkpt lat="43.48659" lon="6.58171">
        <ele>64.4</ele>
        <time>2026-03-27T14:04:06Z</time>
      </trkpt>
      <trkpt lat="43.48659" lon="6.58172">
        <ele>64.4</ele>
        <time>2026-03-27T14:04:07Z</time>
      </trkpt>
      <trkpt lat="43.48659" lon="6.58174">
        <ele>64.3</ele>
        <time>2026-03-27T14:04:08Z</time>
      </trkpt>
      <trkpt lat="43.4866" lon="6.58176">
        <ele>64.3</ele>
        <time>2026-03-27T14:04:09Z</time>
      </trkpt>
      <trkpt lat="43.4866" lon="6.58178">
        <ele>64.3</ele>
        <time>2026-03-27T14:04:10Z</time>
      </trkpt>
      <trkpt lat="43.4866" lon="6.5818">
        <ele>64.2</ele>
        <time>2026-03-27T14:04:11Z</time>
      </trkpt>
      <trkpt lat="43.4866" lon="6.58181">
        <ele>64.2</ele>
        <time>2026-03-27T14:04:12Z</time>
      </trkpt>
      <trkpt lat="43.4866" lon="6.58183">
        <ele>64.2</ele>
        <time>2026-03-27T14:04:13Z</time>
      </trkpt>
      <trkpt lat="43.4866" lon="6.58185">
        <ele>64.2</ele>
        <time>2026-03-27T14:04:14Z</time>
      </trkpt>
      <trkpt lat="43.4866" lon="6.58187">
        <ele>64.1</ele>
        <time>2026-03-27T14:04:15Z</time>
      </trkpt>
      <trkpt lat="43.4866" lon="6.58189">
        <ele>64.1</ele>
        <time>2026-03-27T14:04:16Z</time>
      </trkpt>
      <trkpt lat="43.4866" lon="6.58191">
        <ele>64</ele>
        <time>2026-03-27T14:04:17Z</time>
      </trkpt>
      <trkpt lat="43.4866" lon="6.58192">
        <ele>64.1</ele>
        <time>2026-03-27T14:04:18Z</time>
      </trkpt>
      <trkpt lat="43.4866" lon="6.58194">
        <ele>64.2</ele>
        <time>2026-03-27T14:04:19Z</time>
      </trkpt>
      <trkpt lat="43.4866" lon="6.58196">
        <ele>64.2</ele>
        <time>2026-03-27T14:04:20Z</time>
      </trkpt>
      <trkpt lat="43.4866" lon="6.58197">
        <ele>64.2</ele>
        <time>2026-03-27T14:04:21Z</time>
      </trkpt>
      <trkpt lat="43.4866" lon="6.58199">
        <ele>64.2</ele>
        <time>2026-03-27T14:04:22Z</time>
      </trkpt>
      <trkpt lat="43.4866" lon="6.582">
        <ele>64.3</ele>
        <time>2026-03-27T14:04:23Z</time>
      </trkpt>
      <trkpt lat="43.4866" lon="6.58202">
        <ele>64.5</ele>
        <time>2026-03-27T14:04:24Z</time>
      </trkpt>
      <trkpt lat="43.4866" lon="6.58204">
        <ele>64.6</ele>
        <time>2026-03-27T14:04:25Z</time>
      </trkpt>
      <trkpt lat="43.4866" lon="6.58205">
        <ele>64.6</ele>
        <time>2026-03-27T14:04:26Z</time>
      </trkpt>
      <trkpt lat="43.4866" lon="6.58206">
        <ele>64.7</ele>
        <time>2026-03-27T14:04:27Z</time>
      </trkpt>
      <trkpt lat="43.4866" lon="6.58208">
        <ele>64.7</ele>
        <time>2026-03-27T14:04:28Z</time>
      </trkpt>
      <trkpt lat="43.4866" lon="6.5821">
        <ele>64.7</ele>
        <time>2026-03-27T14:04:29Z</time>
      </trkpt>
      <trkpt lat="43.48659" lon="6.58212">
        <ele>64.8</ele>
        <time>2026-03-27T14:04:30Z</time>
      </trkpt>
      <trkpt lat="43.48659" lon="6.58214">
        <ele>64.8</ele>
        <time>2026-03-27T14:04:31Z</time>
      </trkpt>
      <trkpt lat="43.48659" lon="6.58216">
        <ele>64.8</ele>
        <time>2026-03-27T14:04:32Z</time>
      </trkpt>
      <trkpt lat="43.48658" lon="6.58217">
        <ele>64.8</ele>
        <time>2026-03-27T14:04:33Z</time>
      </trkpt>
      <trkpt lat="43.48658" lon="6.58219">
        <ele>64.8</ele>
        <time>2026-03-27T14:04:34Z</time>
      </trkpt>
      <trkpt lat="43.48658" lon="6.58221">
        <ele>64.7</ele>
        <time>2026-03-27T14:04:35Z</time>
      </trkpt>
      <trkpt lat="43.48658" lon="6.58222">
        <ele>64.7</ele>
        <time>2026-03-27T14:04:36Z</time>
      </trkpt>
      <trkpt lat="43.48658" lon="6.58224">
        <ele>64.8</ele>
        <time>2026-03-27T14:04:37Z</time>
      </trkpt>
      <trkpt lat="43.48657" lon="6.58225">
        <ele>64.8</ele>
        <time>2026-03-27T14:04:38Z</time>
      </trkpt>
      <trkpt lat="43.48657" lon="6.58227">
        <ele>64.8</ele>
        <time>2026-03-27T14:04:39Z</time>
      </trkpt>
      <trkpt lat="43.48657" lon="6.58229">
        <ele>64.7</ele>
        <time>2026-03-27T14:04:40Z</time>
      </trkpt>
      <trkpt lat="43.48656" lon="6.5823">
        <ele>64.7</ele>
        <time>2026-03-27T14:04:41Z</time>
      </trkpt>
      <trkpt lat="43.48656" lon="6.58232">
        <ele>64.7</ele>
        <time>2026-03-27T14:04:42Z</time>
      </trkpt>
      <trkpt lat="43.48655" lon="6.58234">
        <ele>64.7</ele>
        <time>2026-03-27T14:04:43Z</time>
      </trkpt>
      <trkpt lat="43.48655" lon="6.58235">
        <ele>64.7</ele>
        <time>2026-03-27T14:04:44Z</time>
      </trkpt>
      <trkpt lat="43.48655" lon="6.58237">
        <ele>64.8</ele>
        <time>2026-03-27T14:04:45Z</time>
      </trkpt>
      <trkpt lat="43.48654" lon="6.58239">
        <ele>64.8</ele>
        <time>2026-03-27T14:04:46Z</time>
      </trkpt>
      <trkpt lat="43.48654" lon="6.5824">
        <ele>64.8</ele>
        <time>2026-03-27T14:04:47Z</time>
      </trkpt>
      <trkpt lat="43.48654" lon="6.58242">
        <ele>64.8</ele>
        <time>2026-03-27T14:04:48Z</time>
      </trkpt>
      <trkpt lat="43.48654" lon="6.58244">
        <ele>64.9</ele>
        <time>2026-03-27T14:04:49Z</time>
      </trkpt>
      <trkpt lat="43.48653" lon="6.58246">
        <ele>64.8</ele>
        <time>2026-03-27T14:04:50Z</time>
      </trkpt>
      <trkpt lat="43.48653" lon="6.58247">
        <ele>64.9</ele>
        <time>2026-03-27T14:04:51Z</time>
      </trkpt>
      <trkpt lat="43.48653" lon="6.58249">
        <ele>64.9</ele>
        <time>2026-03-27T14:04:52Z</time>
      </trkpt>
      <trkpt lat="43.48652" lon="6.58251">
        <ele>65</ele>
        <time>2026-03-27T14:04:53Z</time>
      </trkpt>
      <trkpt lat="43.48652" lon="6.58253">
        <ele>64.9</ele>
        <time>2026-03-27T14:04:54Z</time>
      </trkpt>
      <trkpt lat="43.48652" lon="6.58254">
        <ele>65</ele>
        <time>2026-03-27T14:04:55Z</time>
      </trkpt>
      <trkpt lat="43.48652" lon="6.58256">
        <ele>64.9</ele>
        <time>2026-03-27T14:04:56Z</time>
      </trkpt>
      <trkpt lat="43.48652" lon="6.58258">
        <ele>64.9</ele>
        <time>2026-03-27T14:04:57Z</time>
      </trkpt>
      <trkpt lat="43.48651" lon="6.5826">
        <ele>64.9</ele>
        <time>2026-03-27T14:04:58Z</time>
      </trkpt>
      <trkpt lat="43.48651" lon="6.58261">
        <ele>65.3</ele>
        <time>2026-03-27T14:04:59Z</time>
      </trkpt>
      <trkpt lat="43.48651" lon="6.58263">
        <ele>65.2</ele>
        <time>2026-03-27T14:05:00Z</time>
      </trkpt>
      <trkpt lat="43.48651" lon="6.58265">
        <ele>65.1</ele>
        <time>2026-03-27T14:05:01Z</time>
      </trkpt>
      <trkpt lat="43.48651" lon="6.58267">
        <ele>65.2</ele>
        <time>2026-03-27T14:05:02Z</time>
      </trkpt>
      <trkpt lat="43.48651" lon="6.58268">
        <ele>65.2</ele>
        <time>2026-03-27T14:05:03Z</time>
      </trkpt>
      <trkpt lat="43.48651" lon="6.5827">
        <ele>65.4</ele>
        <time>2026-03-27T14:05:04Z</time>
      </trkpt>
      <trkpt lat="43.48651" lon="6.58272">
        <ele>65.5</ele>
        <time>2026-03-27T14:05:05Z</time>
      </trkpt>
      <trkpt lat="43.48651" lon="6.58274">
        <ele>65.5</ele>
        <time>2026-03-27T14:05:06Z</time>
      </trkpt>
      <trkpt lat="43.48651" lon="6.58275">
        <ele>65.6</ele>
        <time>2026-03-27T14:05:07Z</time>
      </trkpt>
      <trkpt lat="43.48651" lon="6.58277">
        <ele>65.7</ele>
        <time>2026-03-27T14:05:08Z</time>
      </trkpt>
      <trkpt lat="43.48651" lon="6.58279">
        <ele>65.7</ele>
        <time>2026-03-27T14:05:09Z</time>
      </trkpt>
      <trkpt lat="43.48652" lon="6.5828">
        <ele>65.8</ele>
        <time>2026-03-27T14:05:10Z</time>
      </trkpt>
      <trkpt lat="43.48652" lon="6.58281">
        <ele>65.9</ele>
        <time>2026-03-27T14:05:11Z</time>
      </trkpt>
      <trkpt lat="43.48652" lon="6.58282">
        <ele>66.1</ele>
        <time>2026-03-27T14:05:12Z</time>
      </trkpt>
      <trkpt lat="43.48652" lon="6.58284">
        <ele>66.2</ele>
        <time>2026-03-27T14:05:13Z</time>
      </trkpt>
      <trkpt lat="43.48653" lon="6.58286">
        <ele>66.4</ele>
        <time>2026-03-27T14:05:14Z</time>
      </trkpt>
      <trkpt lat="43.48653" lon="6.58287">
        <ele>66.5</ele>
        <time>2026-03-27T14:05:15Z</time>
      </trkpt>
      <trkpt lat="43.48654" lon="6.58289">
        <ele>66.6</ele>
        <time>2026-03-27T14:05:16Z</time>
      </trkpt>
      <trkpt lat="43.48654" lon="6.5829">
        <ele>66.7</ele>
        <time>2026-03-27T14:05:17Z</time>
      </trkpt>
      <trkpt lat="43.48655" lon="6.58292">
        <ele>66.9</ele>
        <time>2026-03-27T14:05:18Z</time>
      </trkpt>
      <trkpt lat="43.48655" lon="6.58293">
        <ele>67.1</ele>
        <time>2026-03-27T14:05:19Z</time>
      </trkpt>
      <trkpt lat="43.48656" lon="6.58295">
        <ele>67.2</ele>
        <time>2026-03-27T14:05:20Z</time>
      </trkpt>
      <trkpt lat="43.48656" lon="6.58297">
        <ele>67.3</ele>
        <time>2026-03-27T14:05:21Z</time>
      </trkpt>
      <trkpt lat="43.48657" lon="6.58298">
        <ele>67.3</ele>
        <time>2026-03-27T14:05:22Z</time>
      </trkpt>
      <trkpt lat="43.48657" lon="6.583">
        <ele>67.5</ele>
        <time>2026-03-27T14:05:23Z</time>
      </trkpt>
      <trkpt lat="43.48658" lon="6.58301">
        <ele>67.6</ele>
        <time>2026-03-27T14:05:24Z</time>
      </trkpt>
      <trkpt lat="43.48658" lon="6.58303">
        <ele>67.6</ele>
        <time>2026-03-27T14:05:25Z</time>
      </trkpt>
      <trkpt lat="43.48659" lon="6.58304">
        <ele>67.5</ele>
        <time>2026-03-27T14:05:26Z</time>
      </trkpt>
      <trkpt lat="43.48659" lon="6.58306">
        <ele>67.4</ele>
        <time>2026-03-27T14:05:27Z</time>
      </trkpt>
      <trkpt lat="43.48659" lon="6.58307">
        <ele>67.3</ele>
        <time>2026-03-27T14:05:28Z</time>
      </trkpt>
      <trkpt lat="43.48659" lon="6.58309">
        <ele>67.5</ele>
        <time>2026-03-27T14:05:29Z</time>
      </trkpt>
      <trkpt lat="43.4866" lon="6.58311">
        <ele>67.5</ele>
        <time>2026-03-27T14:05:30Z</time>
      </trkpt>
      <trkpt lat="43.4866" lon="6.58312">
        <ele>67.6</ele>
        <time>2026-03-27T14:05:31Z</time>
      </trkpt>
      <trkpt lat="43.4866" lon="6.58314">
        <ele>67.6</ele>
        <time>2026-03-27T14:05:32Z</time>
      </trkpt>
      <trkpt lat="43.48661" lon="6.58315">
        <ele>67.7</ele>
        <time>2026-03-27T14:05:33Z</time>
      </trkpt>
      <trkpt lat="43.48661" lon="6.58317">
        <ele>67.9</ele>
        <time>2026-03-27T14:05:34Z</time>
      </trkpt>
      <trkpt lat="43.48661" lon="6.58319">
        <ele>68</ele>
        <time>2026-03-27T14:05:35Z</time>
      </trkpt>
      <trkpt lat="43.48661" lon="6.5832">
        <ele>68.1</ele>
        <time>2026-03-27T14:05:36Z</time>
      </trkpt>
      <trkpt lat="43.48661" lon="6.58322">
        <ele>68.1</ele>
        <time>2026-03-27T14:05:37Z</time>
      </trkpt>
      <trkpt lat="43.48661" lon="6.58323">
        <ele>68.1</ele>
        <time>2026-03-27T14:05:38Z</time>
      </trkpt>
      <trkpt lat="43.48661" lon="6.58325">
        <ele>68.2</ele>
        <time>2026-03-27T14:05:39Z</time>
      </trkpt>
      <trkpt lat="43.48662" lon="6.58327">
        <ele>68.3</ele>
        <time>2026-03-27T14:05:40Z</time>
      </trkpt>
      <trkpt lat="43.48662" lon="6.58328">
        <ele>68.5</ele>
        <time>2026-03-27T14:05:41Z</time>
      </trkpt>
      <trkpt lat="43.48662" lon="6.5833">
        <ele>68.6</ele>
        <time>2026-03-27T14:05:42Z</time>
      </trkpt>
      <trkpt lat="43.48662" lon="6.58332">
        <ele>68.7</ele>
        <time>2026-03-27T14:05:43Z</time>
      </trkpt>
      <trkpt lat="43.48661" lon="6.58334">
        <ele>68.8</ele>
        <time>2026-03-27T14:05:44Z</time>
      </trkpt>
      <trkpt lat="43.48661" lon="6.58335">
        <ele>68.9</ele>
        <time>2026-03-27T14:05:45Z</time>
      </trkpt>
      <trkpt lat="43.48661" lon="6.58337">
        <ele>69.1</ele>
        <time>2026-03-27T14:05:46Z</time>
      </trkpt>
      <trkpt lat="43.48661" lon="6.58339">
        <ele>69.2</ele>
        <time>2026-03-27T14:05:47Z</time>
      </trkpt>
      <trkpt lat="43.48661" lon="6.5834">
        <ele>69.3</ele>
        <time>2026-03-27T14:05:48Z</time>
      </trkpt>
      <trkpt lat="43.48661" lon="6.58342">
        <ele>69.4</ele>
        <time>2026-03-27T14:05:49Z</time>
      </trkpt>
      <trkpt lat="43.48661" lon="6.58344">
        <ele>69.6</ele>
        <time>2026-03-27T14:05:50Z</time>
      </trkpt>
      <trkpt lat="43.48661" lon="6.58345">
        <ele>69.7</ele>
        <time>2026-03-27T14:05:51Z</time>
      </trkpt>
      <trkpt lat="43.4866" lon="6.58347">
        <ele>69.8</ele>
        <time>2026-03-27T14:05:52Z</time>
      </trkpt>
      <trkpt lat="43.4866" lon="6.58349">
        <ele>70</ele>
        <time>2026-03-27T14:05:53Z</time>
      </trkpt>
      <trkpt lat="43.4866" lon="6.5835">
        <ele>70.1</ele>
        <time>2026-03-27T14:05:54Z</time>
      </trkpt>
      <trkpt lat="43.48659" lon="6.58351">
        <ele>70.2</ele>
        <time>2026-03-27T14:05:55Z</time>
      </trkpt>
      <trkpt lat="43.48659" lon="6.58353">
        <ele>70.4</ele>
        <time>2026-03-27T14:05:56Z</time>
      </trkpt>
      <trkpt lat="43.48659" lon="6.58355">
        <ele>70.5</ele>
        <time>2026-03-27T14:05:57Z</time>
      </trkpt>
      <trkpt lat="43.48658" lon="6.58356">
        <ele>70.7</ele>
        <time>2026-03-27T14:05:58Z</time>
      </trkpt>
      <trkpt lat="43.48658" lon="6.58358">
        <ele>70.9</ele>
        <time>2026-03-27T14:05:59Z</time>
      </trkpt>
      <trkpt lat="43.48658" lon="6.58359">
        <ele>71.1</ele>
        <time>2026-03-27T14:06:00Z</time>
      </trkpt>
      <trkpt lat="43.48657" lon="6.58361">
        <ele>71.3</ele>
        <time>2026-03-27T14:06:01Z</time>
      </trkpt>
      <trkpt lat="43.48657" lon="6.58363">
        <ele>71.4</ele>
        <time>2026-03-27T14:06:02Z</time>
      </trkpt>
      <trkpt lat="43.48657" lon="6.58364">
        <ele>71.6</ele>
        <time>2026-03-27T14:06:03Z</time>
      </trkpt>
      <trkpt lat="43.48657" lon="6.58366">
        <ele>71.7</ele>
        <time>2026-03-27T14:06:04Z</time>
      </trkpt>
      <trkpt lat="43.48657" lon="6.58367">
        <ele>71.9</ele>
        <time>2026-03-27T14:06:05Z</time>
      </trkpt>
      <trkpt lat="43.48657" lon="6.58368">
        <ele>72</ele>
        <time>2026-03-27T14:06:06Z</time>
      </trkpt>
      <trkpt lat="43.48656" lon="6.58369">
        <ele>72.3</ele>
        <time>2026-03-27T14:06:07Z</time>
      </trkpt>
      <trkpt lat="43.48656" lon="6.58371">
        <ele>72.3</ele>
        <time>2026-03-27T14:06:08Z</time>
      </trkpt>
      <trkpt lat="43.48656" lon="6.58373">
        <ele>72.1</ele>
        <time>2026-03-27T14:06:09Z</time>
      </trkpt>
      <trkpt lat="43.48655" lon="6.58374">
        <ele>72.2</ele>
        <time>2026-03-27T14:06:10Z</time>
      </trkpt>
      <trkpt lat="43.48655" lon="6.58376">
        <ele>72.2</ele>
        <time>2026-03-27T14:06:11Z</time>
      </trkpt>
      <trkpt lat="43.48655" lon="6.58378">
        <ele>72.3</ele>
        <time>2026-03-27T14:06:12Z</time>
      </trkpt>
      <trkpt lat="43.48655" lon="6.5838">
        <ele>72.4</ele>
        <time>2026-03-27T14:06:13Z</time>
      </trkpt>
      <trkpt lat="43.48655" lon="6.58381">
        <ele>72.4</ele>
        <time>2026-03-27T14:06:14Z</time>
      </trkpt>
      <trkpt lat="43.48655" lon="6.58383">
        <ele>72.6</ele>
        <time>2026-03-27T14:06:15Z</time>
      </trkpt>
      <trkpt lat="43.48655" lon="6.58384">
        <ele>72.7</ele>
        <time>2026-03-27T14:06:16Z</time>
      </trkpt>
      <trkpt lat="43.48655" lon="6.58386">
        <ele>72.9</ele>
        <time>2026-03-27T14:06:17Z</time>
      </trkpt>
      <trkpt lat="43.48655" lon="6.58387">
        <ele>73</ele>
        <time>2026-03-27T14:06:18Z</time>
      </trkpt>
      <trkpt lat="43.48655" lon="6.58388">
        <ele>73.1</ele>
        <time>2026-03-27T14:06:19Z</time>
      </trkpt>
      <trkpt lat="43.48655" lon="6.58389">
        <ele>73.2</ele>
        <time>2026-03-27T14:06:20Z</time>
      </trkpt>
      <trkpt lat="43.48655" lon="6.58391">
        <ele>73.2</ele>
        <time>2026-03-27T14:06:21Z</time>
      </trkpt>
      <trkpt lat="43.48655" lon="6.58392">
        <ele>73.4</ele>
        <time>2026-03-27T14:06:22Z</time>
      </trkpt>
      <trkpt lat="43.48655" lon="6.58393">
        <ele>73.5</ele>
        <time>2026-03-27T14:06:23Z</time>
      </trkpt>
      <trkpt lat="43.48655" lon="6.58395">
        <ele>73.5</ele>
        <time>2026-03-27T14:06:24Z</time>
      </trkpt>
      <trkpt lat="43.48655" lon="6.58396">
        <ele>73.6</ele>
        <time>2026-03-27T14:06:25Z</time>
      </trkpt>
      <trkpt lat="43.48655" lon="6.58397">
        <ele>73.7</ele>
        <time>2026-03-27T14:06:26Z</time>
      </trkpt>
      <trkpt lat="43.48656" lon="6.58399">
        <ele>73.9</ele>
        <time>2026-03-27T14:06:27Z</time>
      </trkpt>
      <trkpt lat="43.48656" lon="6.584">
        <ele>74.2</ele>
        <time>2026-03-27T14:06:28Z</time>
      </trkpt>
      <trkpt lat="43.48656" lon="6.58402">
        <ele>74.5</ele>
        <time>2026-03-27T14:06:29Z</time>
      </trkpt>
      <trkpt lat="43.48656" lon="6.58403">
        <ele>74.6</ele>
        <time>2026-03-27T14:06:30Z</time>
      </trkpt>
      <trkpt lat="43.48657" lon="6.58405">
        <ele>74.8</ele>
        <time>2026-03-27T14:06:31Z</time>
      </trkpt>
      <trkpt lat="43.48657" lon="6.58406">
        <ele>75</ele>
        <time>2026-03-27T14:06:32Z</time>
      </trkpt>
      <trkpt lat="43.48658" lon="6.58407">
        <ele>75.2</ele>
        <time>2026-03-27T14:06:33Z</time>
      </trkpt>
      <trkpt lat="43.48658" lon="6.58408">
        <ele>75.5</ele>
        <time>2026-03-27T14:06:34Z</time>
      </trkpt>
      <trkpt lat="43.48659" lon="6.5841">
        <ele>75.5</ele>
        <time>2026-03-27T14:06:35Z</time>
      </trkpt>
      <trkpt lat="43.48659" lon="6.58411">
        <ele>75.6</ele>
        <time>2026-03-27T14:06:36Z</time>
      </trkpt>
      <trkpt lat="43.4866" lon="6.58412">
        <ele>75.8</ele>
        <time>2026-03-27T14:06:37Z</time>
      </trkpt>
      <trkpt lat="43.48661" lon="6.58413">
        <ele>75.9</ele>
        <time>2026-03-27T14:06:38Z</time>
      </trkpt>
      <trkpt lat="43.48661" lon="6.58414">
        <ele>76.1</ele>
        <time>2026-03-27T14:06:39Z</time>
      </trkpt>
      <trkpt lat="43.48662" lon="6.58416">
        <ele>76.2</ele>
        <time>2026-03-27T14:06:40Z</time>
      </trkpt>
      <trkpt lat="43.48663" lon="6.58417">
        <ele>76.3</ele>
        <time>2026-03-27T14:06:41Z</time>
      </trkpt>
      <trkpt lat="43.48663" lon="6.58418">
        <ele>76.4</ele>
        <time>2026-03-27T14:06:42Z</time>
      </trkpt>
      <trkpt lat="43.48664" lon="6.58419">
        <ele>76.6</ele>
        <time>2026-03-27T14:06:43Z</time>
      </trkpt>
      <trkpt lat="43.48664" lon="6.5842">
        <ele>76.7</ele>
        <time>2026-03-27T14:06:44Z</time>
      </trkpt>
      <trkpt lat="43.48665" lon="6.58421">
        <ele>76.9</ele>
        <time>2026-03-27T14:06:45Z</time>
      </trkpt>
      <trkpt lat="43.48666" lon="6.58422">
        <ele>76.9</ele>
        <time>2026-03-27T14:06:46Z</time>
      </trkpt>
      <trkpt lat="43.48666" lon="6.58423">
        <ele>76.9</ele>
        <time>2026-03-27T14:06:47Z</time>
      </trkpt>
      <trkpt lat="43.48667" lon="6.58425">
        <ele>77</ele>
        <time>2026-03-27T14:06:48Z</time>
      </trkpt>
      <trkpt lat="43.48668" lon="6.58426">
        <ele>77.1</ele>
        <time>2026-03-27T14:06:49Z</time>
      </trkpt>
      <trkpt lat="43.48668" lon="6.58427">
        <ele>77.2</ele>
        <time>2026-03-27T14:06:50Z</time>
      </trkpt>
      <trkpt lat="43.48669" lon="6.58428">
        <ele>77.2</ele>
        <time>2026-03-27T14:06:51Z</time>
      </trkpt>
      <trkpt lat="43.4867" lon="6.58429">
        <ele>77.1</ele>
        <time>2026-03-27T14:06:52Z</time>
      </trkpt>
      <trkpt lat="43.4867" lon="6.5843">
        <ele>77</ele>
        <time>2026-03-27T14:06:53Z</time>
      </trkpt>
      <trkpt lat="43.48671" lon="6.58431">
        <ele>77.1</ele>
        <time>2026-03-27T14:06:54Z</time>
      </trkpt>
      <trkpt lat="43.48672" lon="6.58433">
        <ele>77.1</ele>
        <time>2026-03-27T14:06:55Z</time>
      </trkpt>
      <trkpt lat="43.48672" lon="6.58435">
        <ele>77.1</ele>
        <time>2026-03-27T14:06:56Z</time>
      </trkpt>
      <trkpt lat="43.48673" lon="6.58436">
        <ele>77.2</ele>
        <time>2026-03-27T14:06:57Z</time>
      </trkpt>
      <trkpt lat="43.48673" lon="6.58438">
        <ele>77.2</ele>
        <time>2026-03-27T14:06:58Z</time>
      </trkpt>
      <trkpt lat="43.48674" lon="6.5844">
        <ele>77.3</ele>
        <time>2026-03-27T14:06:59Z</time>
      </trkpt>
      <trkpt lat="43.48675" lon="6.58441">
        <ele>77.6</ele>
        <time>2026-03-27T14:07:00Z</time>
      </trkpt>
      <trkpt lat="43.48675" lon="6.58442">
        <ele>77.6</ele>
        <time>2026-03-27T14:07:01Z</time>
      </trkpt>
      <trkpt lat="43.48676" lon="6.58444">
        <ele>77.8</ele>
        <time>2026-03-27T14:07:02Z</time>
      </trkpt>
      <trkpt lat="43.48676" lon="6.58445">
        <ele>77.9</ele>
        <time>2026-03-27T14:07:03Z</time>
      </trkpt>
      <trkpt lat="43.48677" lon="6.58447">
        <ele>78</ele>
        <time>2026-03-27T14:07:04Z</time>
      </trkpt>
      <trkpt lat="43.48677" lon="6.58449">
        <ele>78.1</ele>
        <time>2026-03-27T14:07:05Z</time>
      </trkpt>
      <trkpt lat="43.48678" lon="6.5845">
        <ele>78.2</ele>
        <time>2026-03-27T14:07:06Z</time>
      </trkpt>
      <trkpt lat="43.48678" lon="6.58452">
        <ele>78.2</ele>
        <time>2026-03-27T14:07:07Z</time>
      </trkpt>
      <trkpt lat="43.48678" lon="6.58454">
        <ele>78.4</ele>
        <time>2026-03-27T14:07:08Z</time>
      </trkpt>
      <trkpt lat="43.48679" lon="6.58455">
        <ele>78.4</ele>
        <time>2026-03-27T14:07:09Z</time>
      </trkpt>
      <trkpt lat="43.48679" lon="6.58457">
        <ele>78.4</ele>
        <time>2026-03-27T14:07:10Z</time>
      </trkpt>
      <trkpt lat="43.4868" lon="6.58458">
        <ele>78.5</ele>
        <time>2026-03-27T14:07:11Z</time>
      </trkpt>
      <trkpt lat="43.4868" lon="6.58459">
        <ele>78.5</ele>
        <time>2026-03-27T14:07:12Z</time>
      </trkpt>
      <trkpt lat="43.4868" lon="6.58461">
        <ele>78.6</ele>
        <time>2026-03-27T14:07:13Z</time>
      </trkpt>
      <trkpt lat="43.4868" lon="6.58462">
        <ele>78.7</ele>
        <time>2026-03-27T14:07:14Z</time>
      </trkpt>
      <trkpt lat="43.4868" lon="6.58464">
        <ele>78.8</ele>
        <time>2026-03-27T14:07:15Z</time>
      </trkpt>
      <trkpt lat="43.4868" lon="6.58465">
        <ele>78.8</ele>
        <time>2026-03-27T14:07:16Z</time>
      </trkpt>
      <trkpt lat="43.4868" lon="6.58467">
        <ele>78.8</ele>
        <time>2026-03-27T14:07:17Z</time>
      </trkpt>
      <trkpt lat="43.4868" lon="6.58468">
        <ele>78.8</ele>
        <time>2026-03-27T14:07:18Z</time>
      </trkpt>
      <trkpt lat="43.4868" lon="6.5847">
        <ele>78.8</ele>
        <time>2026-03-27T14:07:19Z</time>
      </trkpt>
      <trkpt lat="43.4868" lon="6.58472">
        <ele>78.8</ele>
        <time>2026-03-27T14:07:20Z</time>
      </trkpt>
      <trkpt lat="43.4868" lon="6.58473">
        <ele>78.8</ele>
        <time>2026-03-27T14:07:21Z</time>
      </trkpt>
      <trkpt lat="43.4868" lon="6.58475">
        <ele>78.8</ele>
        <time>2026-03-27T14:07:22Z</time>
      </trkpt>
      <trkpt lat="43.4868" lon="6.58476">
        <ele>78.8</ele>
        <time>2026-03-27T14:07:23Z</time>
      </trkpt>
      <trkpt lat="43.48681" lon="6.58477">
        <ele>78.9</ele>
        <time>2026-03-27T14:07:24Z</time>
      </trkpt>
      <trkpt lat="43.48681" lon="6.58477">
        <ele>79</ele>
        <time>2026-03-27T14:07:25Z</time>
      </trkpt>
      <trkpt lat="43.48681" lon="6.58478">
        <ele>79</ele>
        <time>2026-03-27T14:07:26Z</time>
      </trkpt>
      <trkpt lat="43.48681" lon="6.58479">
        <ele>79.1</ele>
        <time>2026-03-27T14:07:27Z</time>
      </trkpt>
      <trkpt lat="43.48681" lon="6.5848">
        <ele>78.9</ele>
        <time>2026-03-27T14:07:28Z</time>
      </trkpt>
      <trkpt lat="43.48681" lon="6.58481">
        <ele>78.9</ele>
        <time>2026-03-27T14:07:29Z</time>
      </trkpt>
      <trkpt lat="43.48681" lon="6.58482">
        <ele>78.9</ele>
        <time>2026-03-27T14:07:30Z</time>
      </trkpt>
      <trkpt lat="43.48681" lon="6.58482">
        <ele>78.9</ele>
        <time>2026-03-27T14:07:31Z</time>
      </trkpt>
      <trkpt lat="43.48681" lon="6.58483">
        <ele>78.9</ele>
        <time>2026-03-27T14:07:32Z</time>
      </trkpt>
      <trkpt lat="43.48682" lon="6.58483">
        <ele>78.9</ele>
        <time>2026-03-27T14:07:33Z</time>
      </trkpt>
      <trkpt lat="43.48682" lon="6.58483">
        <ele>78.9</ele>
        <time>2026-03-27T14:07:34Z</time>
      </trkpt>
      <trkpt lat="43.48682" lon="6.58483">
        <ele>79</ele>
        <time>2026-03-27T14:07:35Z</time>
      </trkpt>
      <trkpt lat="43.48682" lon="6.58483">
        <ele>79.1</ele>
        <time>2026-03-27T14:07:36Z</time>
      </trkpt>
      <trkpt lat="43.48681" lon="6.58483">
        <ele>79.1</ele>
        <time>2026-03-27T14:07:37Z</time>
      </trkpt>
      <trkpt lat="43.48681" lon="6.58483">
        <ele>79.1</ele>
        <time>2026-03-27T14:07:38Z</time>
      </trkpt>
      <trkpt lat="43.48681" lon="6.58483">
        <ele>79.1</ele>
        <time>2026-03-27T14:07:39Z</time>
      </trkpt>
      <trkpt lat="43.48682" lon="6.58483">
        <ele>79.1</ele>
        <time>2026-03-27T14:07:40Z</time>
      </trkpt>
      <trkpt lat="43.48682" lon="6.58483">
        <ele>79.1</ele>
        <time>2026-03-27T14:07:41Z</time>
      </trkpt>
      <trkpt lat="43.48682" lon="6.58483">
        <ele>79.1</ele>
        <time>2026-03-27T14:07:42Z</time>
      </trkpt>
      <trkpt lat="43.48682" lon="6.58483">
        <ele>79.2</ele>
        <time>2026-03-27T14:07:43Z</time>
      </trkpt>
      <trkpt lat="43.48682" lon="6.58484">
        <ele>79.2</ele>
        <time>2026-03-27T14:07:44Z</time>
      </trkpt>
      <trkpt lat="43.48682" lon="6.58484">
        <ele>79.1</ele>
        <time>2026-03-27T14:07:45Z</time>
      </trkpt>
      <trkpt lat="43.48682" lon="6.58484">
        <ele>79.2</ele>
        <time>2026-03-27T14:07:46Z</time>
      </trkpt>
      <trkpt lat="43.48682" lon="6.58484">
        <ele>79.2</ele>
        <time>2026-03-27T14:07:47Z</time>
      </trkpt>
      <trkpt lat="43.48682" lon="6.58484">
        <ele>79.1</ele>
        <time>2026-03-27T14:07:48Z</time>
      </trkpt>
      <trkpt lat="43.48681" lon="6.58484">
        <ele>79.1</ele>
        <time>2026-03-27T14:07:49Z</time>
      </trkpt>
      <trkpt lat="43.48682" lon="6.58484">
        <ele>79</ele>
        <time>2026-03-27T14:07:50Z</time>
      </trkpt>
      <trkpt lat="43.48682" lon="6.58484">
        <ele>79</ele>
        <time>2026-03-27T14:07:51Z</time>
      </trkpt>
      <trkpt lat="43.48682" lon="6.58484">
        <ele>79</ele>
        <time>2026-03-27T14:07:52Z</time>
      </trkpt>
      <trkpt lat="43.48682" lon="6.58484">
        <ele>79</ele>
        <time>2026-03-27T14:07:53Z</time>
      </trkpt>
      <trkpt lat="43.48682" lon="6.58484">
        <ele>79.1</ele>
        <time>2026-03-27T14:07:54Z</time>
      </trkpt>
      <trkpt lat="43.48682" lon="6.58484">
        <ele>79.1</ele>
        <time>2026-03-27T14:07:55Z</time>
      </trkpt>
      <trkpt lat="43.48682" lon="6.58484">
        <ele>79.1</ele>
        <time>2026-03-27T14:07:56Z</time>
      </trkpt>
      <trkpt lat="43.48682" lon="6.58484">
        <ele>79.2</ele>
        <time>2026-03-27T14:07:57Z</time>
      </trkpt>
      <trkpt lat="43.48682" lon="6.58484">
        <ele>79.1</ele>
        <time>2026-03-27T14:07:58Z</time>
      </trkpt>
      <trkpt lat="43.48682" lon="6.58484">
        <ele>79</ele>
        <time>2026-03-27T14:07:59Z</time>
      </trkpt>
      <trkpt lat="43.48682" lon="6.58484">
        <ele>79</ele>
        <time>2026-03-27T14:08:00Z</time>
      </trkpt>
      <trkpt lat="43.48682" lon="6.58484">
        <ele>79</ele>
        <time>2026-03-27T14:08:01Z</time>
      </trkpt>
      <trkpt lat="43.48682" lon="6.58484">
        <ele>79.1</ele>
        <time>2026-03-27T14:08:02Z</time>
      </trkpt>
      <trkpt lat="43.48682" lon="6.58484">
        <ele>79.1</ele>
        <time>2026-03-27T14:08:03Z</time>
      </trkpt>
      <trkpt lat="43.48682" lon="6.58484">
        <ele>79.1</ele>
        <time>2026-03-27T14:08:04Z</time>
      </trkpt>
      <trkpt lat="43.48683" lon="6.58484">
        <ele>79.1</ele>
        <time>2026-03-27T14:08:05Z</time>
      </trkpt>
      <trkpt lat="43.48682" lon="6.58484">
        <ele>79.1</ele>
        <time>2026-03-27T14:08:06Z</time>
      </trkpt>
      <trkpt lat="43.48682" lon="6.58484">
        <ele>79.1</ele>
        <time>2026-03-27T14:08:07Z</time>
      </trkpt>
      <trkpt lat="43.48682" lon="6.58484">
        <ele>79.1</ele>
        <time>2026-03-27T14:08:08Z</time>
      </trkpt>
      <trkpt lat="43.48682" lon="6.58484">
        <ele>79.1</ele>
        <time>2026-03-27T14:08:09Z</time>
      </trkpt>
      <trkpt lat="43.48682" lon="6.58484">
        <ele>79.1</ele>
        <time>2026-03-27T14:08:10Z</time>
      </trkpt>
      <trkpt lat="43.48682" lon="6.58484">
        <ele>79.1</ele>
        <time>2026-03-27T14:08:11Z</time>
      </trkpt>
      <trkpt lat="43.48682" lon="6.58484">
        <ele>79</ele>
        <time>2026-03-27T14:08:12Z</time>
      </trkpt>
      <trkpt lat="43.48683" lon="6.58484">
        <ele>79.1</ele>
        <time>2026-03-27T14:08:13Z</time>
      </trkpt>
      <trkpt lat="43.48682" lon="6.58484">
        <ele>79.1</ele>
        <time>2026-03-27T14:08:14Z</time>
      </trkpt>
      <trkpt lat="43.48682" lon="6.58484">
        <ele>79.2</ele>
        <time>2026-03-27T14:08:15Z</time>
      </trkpt>
      <trkpt lat="43.48682" lon="6.58483">
        <ele>79.2</ele>
        <time>2026-03-27T14:08:16Z</time>
      </trkpt>
      <trkpt lat="43.48682" lon="6.58483">
        <ele>79</ele>
        <time>2026-03-27T14:08:17Z</time>
      </trkpt>
      <trkpt lat="43.48682" lon="6.58483">
        <ele>79.1</ele>
        <time>2026-03-27T14:08:18Z</time>
      </trkpt>
      <trkpt lat="43.48682" lon="6.58483">
        <ele>79.1</ele>
        <time>2026-03-27T14:08:19Z</time>
      </trkpt>
      <trkpt lat="43.48682" lon="6.58483">
        <ele>79.1</ele>
        <time>2026-03-27T14:08:20Z</time>
      </trkpt>
      <trkpt lat="43.48682" lon="6.58483">
        <ele>79</ele>
        <time>2026-03-27T14:08:21Z</time>
      </trkpt>
      <trkpt lat="43.48682" lon="6.58483">
        <ele>79</ele>
        <time>2026-03-27T14:08:22Z</time>
      </trkpt>
      <trkpt lat="43.48682" lon="6.58483">
        <ele>79</ele>
        <time>2026-03-27T14:08:23Z</time>
      </trkpt>
      <trkpt lat="43.48682" lon="6.58483">
        <ele>79.1</ele>
        <time>2026-03-27T14:08:24Z</time>
      </trkpt>
      <trkpt lat="43.48682" lon="6.58483">
        <ele>79.1</ele>
        <time>2026-03-27T14:08:25Z</time>
      </trkpt>
      <trkpt lat="43.48682" lon="6.58483">
        <ele>79</ele>
        <time>2026-03-27T14:08:26Z</time>
      </trkpt>
      <trkpt lat="43.48682" lon="6.58483">
        <ele>79</ele>
        <time>2026-03-27T14:08:27Z</time>
      </trkpt>
      <trkpt lat="43.48682" lon="6.58483">
        <ele>79.1</ele>
        <time>2026-03-27T14:08:28Z</time>
      </trkpt>
      <trkpt lat="43.48682" lon="6.58483">
        <ele>79.1</ele>
        <time>2026-03-27T14:08:29Z</time>
      </trkpt>
      <trkpt lat="43.48682" lon="6.58483">
        <ele>79.1</ele>
        <time>2026-03-27T14:08:30Z</time>
      </trkpt>
      <trkpt lat="43.48682" lon="6.58483">
        <ele>79</ele>
        <time>2026-03-27T14:08:31Z</time>
      </trkpt>
      <trkpt lat="43.48682" lon="6.58483">
        <ele>79.1</ele>
        <time>2026-03-27T14:08:32Z</time>
      </trkpt>
      <trkpt lat="43.48682" lon="6.58483">
        <ele>79.1</ele>
        <time>2026-03-27T14:08:33Z</time>
      </trkpt>
      <trkpt lat="43.48682" lon="6.58483">
        <ele>79.1</ele>
        <time>2026-03-27T14:08:34Z</time>
      </trkpt>
      <trkpt lat="43.48681" lon="6.58483">
        <ele>79.2</ele>
        <time>2026-03-27T14:08:35Z</time>
      </trkpt>
      <trkpt lat="43.48681" lon="6.58483">
        <ele>79.1</ele>
        <time>2026-03-27T14:08:36Z</time>
      </trkpt>
      <trkpt lat="43.48681" lon="6.58483">
        <ele>79.2</ele>
        <time>2026-03-27T14:08:37Z</time>
      </trkpt>
      <trkpt lat="43.48682" lon="6.58483">
        <ele>79.1</ele>
        <time>2026-03-27T14:08:38Z</time>
      </trkpt>
      <trkpt lat="43.48682" lon="6.58483">
        <ele>79.1</ele>
        <time>2026-03-27T14:08:39Z</time>
      </trkpt>
      <trkpt lat="43.48682" lon="6.58483">
        <ele>79</ele>
        <time>2026-03-27T14:08:40Z</time>
      </trkpt>
      <trkpt lat="43.48682" lon="6.58483">
        <ele>79</ele>
        <time>2026-03-27T14:08:41Z</time>
      </trkpt>
      <trkpt lat="43.48682" lon="6.58483">
        <ele>79</ele>
        <time>2026-03-27T14:08:42Z</time>
      </trkpt>
      <trkpt lat="43.48682" lon="6.58483">
        <ele>79</ele>
        <time>2026-03-27T14:08:43Z</time>
      </trkpt>
      <trkpt lat="43.48682" lon="6.58483">
        <ele>79.1</ele>
        <time>2026-03-27T14:08:44Z</time>
      </trkpt>
      <trkpt lat="43.48682" lon="6.58483">
        <ele>79.1</ele>
        <time>2026-03-27T14:08:45Z</time>
      </trkpt>
      <trkpt lat="43.48682" lon="6.58483">
        <ele>79.1</ele>
        <time>2026-03-27T14:08:46Z</time>
      </trkpt>
      <trkpt lat="43.48682" lon="6.58483">
        <ele>79.2</ele>
        <time>2026-03-27T14:08:47Z</time>
      </trkpt>
      <trkpt lat="43.48682" lon="6.58483">
        <ele>79.3</ele>
        <time>2026-03-27T14:08:48Z</time>
      </trkpt>
      <trkpt lat="43.48682" lon="6.58483">
        <ele>79.3</ele>
        <time>2026-03-27T14:08:49Z</time>
      </trkpt>
      <trkpt lat="43.48682" lon="6.58483">
        <ele>79.3</ele>
        <time>2026-03-27T14:08:50Z</time>
      </trkpt>
      <trkpt lat="43.48682" lon="6.58483">
        <ele>79.2</ele>
        <time>2026-03-27T14:08:51Z</time>
      </trkpt>
      <trkpt lat="43.48682" lon="6.58483">
        <ele>79.2</ele>
        <time>2026-03-27T14:08:52Z</time>
      </trkpt>
      <trkpt lat="43.48683" lon="6.58483">
        <ele>79.1</ele>
        <time>2026-03-27T14:08:53Z</time>
      </trkpt>
      <trkpt lat="43.48683" lon="6.58483">
        <ele>79.1</ele>
        <time>2026-03-27T14:08:54Z</time>
      </trkpt>
      <trkpt lat="43.48683" lon="6.58483">
        <ele>79.1</ele>
        <time>2026-03-27T14:08:55Z</time>
      </trkpt>
      <trkpt lat="43.48683" lon="6.58483">
        <ele>79.1</ele>
        <time>2026-03-27T14:08:56Z</time>
      </trkpt>
      <trkpt lat="43.48683" lon="6.58483">
        <ele>79.1</ele>
        <time>2026-03-27T14:08:57Z</time>
      </trkpt>
      <trkpt lat="43.48683" lon="6.58483">
        <ele>79.1</ele>
        <time>2026-03-27T14:08:58Z</time>
      </trkpt>
      <trkpt lat="43.48682" lon="6.58483">
        <ele>79.2</ele>
        <time>2026-03-27T14:08:59Z</time>
      </trkpt>
      <trkpt lat="43.48682" lon="6.58483">
        <ele>79</ele>
        <time>2026-03-27T14:09:00Z</time>
      </trkpt>
      <trkpt lat="43.48682" lon="6.58483">
        <ele>79.1</ele>
        <time>2026-03-27T14:09:01Z</time>
      </trkpt>
      <trkpt lat="43.48683" lon="6.58483">
        <ele>79.1</ele>
        <time>2026-03-27T14:09:02Z</time>
      </trkpt>
      <trkpt lat="43.48683" lon="6.58483">
        <ele>79.1</ele>
        <time>2026-03-27T14:09:03Z</time>
      </trkpt>
      <trkpt lat="43.48683" lon="6.58483">
        <ele>79.2</ele>
        <time>2026-03-27T14:09:04Z</time>
      </trkpt>
      <trkpt lat="43.48683" lon="6.58483">
        <ele>79.3</ele>
        <time>2026-03-27T14:09:05Z</time>
      </trkpt>
      <trkpt lat="43.48683" lon="6.58483">
        <ele>79.4</ele>
        <time>2026-03-27T14:09:06Z</time>
      </trkpt>
      <trkpt lat="43.48683" lon="6.58483">
        <ele>79.4</ele>
        <time>2026-03-27T14:09:07Z</time>
      </trkpt>
      <trkpt lat="43.48684" lon="6.58484">
        <ele>79.4</ele>
        <time>2026-03-27T14:09:08Z</time>
      </trkpt>
      <trkpt lat="43.48684" lon="6.58484">
        <ele>79.5</ele>
        <time>2026-03-27T14:09:09Z</time>
      </trkpt>
      <trkpt lat="43.48684" lon="6.58483">
        <ele>79.5</ele>
        <time>2026-03-27T14:09:10Z</time>
      </trkpt>
      <trkpt lat="43.48684" lon="6.58483">
        <ele>79.4</ele>
        <time>2026-03-27T14:09:11Z</time>
      </trkpt>
      <trkpt lat="43.48684" lon="6.58484">
        <ele>79.5</ele>
        <time>2026-03-27T14:09:12Z</time>
      </trkpt>
      <trkpt lat="43.48684" lon="6.58484">
        <ele>79.6</ele>
        <time>2026-03-27T14:09:13Z</time>
      </trkpt>
      <trkpt lat="43.48684" lon="6.58484">
        <ele>79.6</ele>
        <time>2026-03-27T14:09:14Z</time>
      </trkpt>
      <trkpt lat="43.48684" lon="6.58484">
        <ele>79.5</ele>
        <time>2026-03-27T14:09:15Z</time>
      </trkpt>
      <trkpt lat="43.48684" lon="6.58484">
        <ele>79.5</ele>
        <time>2026-03-27T14:09:16Z</time>
      </trkpt>
      <trkpt lat="43.48684" lon="6.58484">
        <ele>79.3</ele>
        <time>2026-03-27T14:09:17Z</time>
      </trkpt>
      <trkpt lat="43.48685" lon="6.58484">
        <ele>79.3</ele>
        <time>2026-03-27T14:09:18Z</time>
      </trkpt>
      <trkpt lat="43.48684" lon="6.58484">
        <ele>79.3</ele>
        <time>2026-03-27T14:09:19Z</time>
      </trkpt>
      <trkpt lat="43.48684" lon="6.58484">
        <ele>79.3</ele>
        <time>2026-03-27T14:09:20Z</time>
      </trkpt>
      <trkpt lat="43.48684" lon="6.58484">
        <ele>79.3</ele>
        <time>2026-03-27T14:09:21Z</time>
      </trkpt>
      <trkpt lat="43.48684" lon="6.58484">
        <ele>79.3</ele>
        <time>2026-03-27T14:09:22Z</time>
      </trkpt>
      <trkpt lat="43.48684" lon="6.58484">
        <ele>79.2</ele>
        <time>2026-03-27T14:09:23Z</time>
      </trkpt>
      <trkpt lat="43.48684" lon="6.58484">
        <ele>79.2</ele>
        <time>2026-03-27T14:09:24Z</time>
      </trkpt>
      <trkpt lat="43.48684" lon="6.58484">
        <ele>79.2</ele>
        <time>2026-03-27T14:09:25Z</time>
      </trkpt>
      <trkpt lat="43.48684" lon="6.58484">
        <ele>79.3</ele>
        <time>2026-03-27T14:09:26Z</time>
      </trkpt>
      <trkpt lat="43.48685" lon="6.58484">
        <ele>79.4</ele>
        <time>2026-03-27T14:09:27Z</time>
      </trkpt>
      <trkpt lat="43.48685" lon="6.58484">
        <ele>79.5</ele>
        <time>2026-03-27T14:09:28Z</time>
      </trkpt>
      <trkpt lat="43.48685" lon="6.58484">
        <ele>79.6</ele>
        <time>2026-03-27T14:09:29Z</time>
      </trkpt>
      <trkpt lat="43.48685" lon="6.58484">
        <ele>79.6</ele>
        <time>2026-03-27T14:09:30Z</time>
      </trkpt>
      <trkpt lat="43.48685" lon="6.58484">
        <ele>79.7</ele>
        <time>2026-03-27T14:09:31Z</time>
      </trkpt>
      <trkpt lat="43.48685" lon="6.58484">
        <ele>79.6</ele>
        <time>2026-03-27T14:09:32Z</time>
      </trkpt>
      <trkpt lat="43.48685" lon="6.58484">
        <ele>79.5</ele>
        <time>2026-03-27T14:09:33Z</time>
      </trkpt>
      <trkpt lat="43.48685" lon="6.58484">
        <ele>79.5</ele>
        <time>2026-03-27T14:09:34Z</time>
      </trkpt>
      <trkpt lat="43.48685" lon="6.58484">
        <ele>79.5</ele>
        <time>2026-03-27T14:09:35Z</time>
      </trkpt>
      <trkpt lat="43.48685" lon="6.58484">
        <ele>79.5</ele>
        <time>2026-03-27T14:09:36Z</time>
      </trkpt>
      <trkpt lat="43.48685" lon="6.58484">
        <ele>79.4</ele>
        <time>2026-03-27T14:09:37Z</time>
      </trkpt>
      <trkpt lat="43.48685" lon="6.58484">
        <ele>79.4</ele>
        <time>2026-03-27T14:09:38Z</time>
      </trkpt>
      <trkpt lat="43.48685" lon="6.58484">
        <ele>79.3</ele>
        <time>2026-03-27T14:09:39Z</time>
      </trkpt>
      <trkpt lat="43.48685" lon="6.58484">
        <ele>79.3</ele>
        <time>2026-03-27T14:09:40Z</time>
      </trkpt>
      <trkpt lat="43.48685" lon="6.58484">
        <ele>79.4</ele>
        <time>2026-03-27T14:09:41Z</time>
      </trkpt>
      <trkpt lat="43.48685" lon="6.58484">
        <ele>79.4</ele>
        <time>2026-03-27T14:09:42Z</time>
      </trkpt>
      <trkpt lat="43.48685" lon="6.58484">
        <ele>79.4</ele>
        <time>2026-03-27T14:09:43Z</time>
      </trkpt>
      <trkpt lat="43.48685" lon="6.58484">
        <ele>79.5</ele>
        <time>2026-03-27T14:09:44Z</time>
      </trkpt>
      <trkpt lat="43.48685" lon="6.58484">
        <ele>79.5</ele>
        <time>2026-03-27T14:09:45Z</time>
      </trkpt>
      <trkpt lat="43.48685" lon="6.58484">
        <ele>79.5</ele>
        <time>2026-03-27T14:09:46Z</time>
      </trkpt>
      <trkpt lat="43.48685" lon="6.58484">
        <ele>79.5</ele>
        <time>2026-03-27T14:09:47Z</time>
      </trkpt>
      <trkpt lat="43.48685" lon="6.58484">
        <ele>79.5</ele>
        <time>2026-03-27T14:09:48Z</time>
      </trkpt>
      <trkpt lat="43.48685" lon="6.58484">
        <ele>79.6</ele>
        <time>2026-03-27T14:09:49Z</time>
      </trkpt>
      <trkpt lat="43.48685" lon="6.58484">
        <ele>79.7</ele>
        <time>2026-03-27T14:09:50Z</time>
      </trkpt>
      <trkpt lat="43.48685" lon="6.58484">
        <ele>79.7</ele>
        <time>2026-03-27T14:09:51Z</time>
      </trkpt>
      <trkpt lat="43.48685" lon="6.58484">
        <ele>79.7</ele>
        <time>2026-03-27T14:09:52Z</time>
      </trkpt>
      <trkpt lat="43.48685" lon="6.58484">
        <ele>79.7</ele>
        <time>2026-03-27T14:09:53Z</time>
      </trkpt>
      <trkpt lat="43.48685" lon="6.58484">
        <ele>79.8</ele>
        <time>2026-03-27T14:09:54Z</time>
      </trkpt>
      <trkpt lat="43.48685" lon="6.58484">
        <ele>79.8</ele>
        <time>2026-03-27T14:09:55Z</time>
      </trkpt>
      <trkpt lat="43.48685" lon="6.58484">
        <ele>79.9</ele>
        <time>2026-03-27T14:09:56Z</time>
      </trkpt>
      <trkpt lat="43.48685" lon="6.58484">
        <ele>79.9</ele>
        <time>2026-03-27T14:09:57Z</time>
      </trkpt>
      <trkpt lat="43.48685" lon="6.58484">
        <ele>79.8</ele>
        <time>2026-03-27T14:09:58Z</time>
      </trkpt>
      <trkpt lat="43.48685" lon="6.58484">
        <ele>79.7</ele>
        <time>2026-03-27T14:09:59Z</time>
      </trkpt>
      <trkpt lat="43.48685" lon="6.58484">
        <ele>79.7</ele>
        <time>2026-03-27T14:10:00Z</time>
      </trkpt>
      <trkpt lat="43.48685" lon="6.58484">
        <ele>79.6</ele>
        <time>2026-03-27T14:10:01Z</time>
      </trkpt>
      <trkpt lat="43.48685" lon="6.58484">
        <ele>79.5</ele>
        <time>2026-03-27T14:10:02Z</time>
      </trkpt>
      <trkpt lat="43.48685" lon="6.58484">
        <ele>79.3</ele>
        <time>2026-03-27T14:10:03Z</time>
      </trkpt>
      <trkpt lat="43.48685" lon="6.58484">
        <ele>79.3</ele>
        <time>2026-03-27T14:10:04Z</time>
      </trkpt>
      <trkpt lat="43.48685" lon="6.58484">
        <ele>79.3</ele>
        <time>2026-03-27T14:10:05Z</time>
      </trkpt>
      <trkpt lat="43.48685" lon="6.58484">
        <ele>79.1</ele>
        <time>2026-03-27T14:10:06Z</time>
      </trkpt>
      <trkpt lat="43.48685" lon="6.58484">
        <ele>79</ele>
        <time>2026-03-27T14:10:07Z</time>
      </trkpt>
      <trkpt lat="43.48685" lon="6.58484">
        <ele>79</ele>
        <time>2026-03-27T14:10:08Z</time>
      </trkpt>
      <trkpt lat="43.48685" lon="6.58484">
        <ele>79</ele>
        <time>2026-03-27T14:10:09Z</time>
      </trkpt>
      <trkpt lat="43.48685" lon="6.58484">
        <ele>79</ele>
        <time>2026-03-27T14:10:10Z</time>
      </trkpt>
      <trkpt lat="43.48685" lon="6.58484">
        <ele>78.9</ele>
        <time>2026-03-27T14:10:11Z</time>
      </trkpt>
      <trkpt lat="43.48685" lon="6.58484">
        <ele>78.8</ele>
        <time>2026-03-27T14:10:12Z</time>
      </trkpt>
      <trkpt lat="43.48685" lon="6.58484">
        <ele>78.9</ele>
        <time>2026-03-27T14:10:13Z</time>
      </trkpt>
      <trkpt lat="43.48685" lon="6.58484">
        <ele>78.8</ele>
        <time>2026-03-27T14:10:14Z</time>
      </trkpt>
      <trkpt lat="43.48685" lon="6.58484">
        <ele>78.8</ele>
        <time>2026-03-27T14:10:15Z</time>
      </trkpt>
      <trkpt lat="43.48685" lon="6.58484">
        <ele>78.8</ele>
        <time>2026-03-27T14:10:16Z</time>
      </trkpt>
      <trkpt lat="43.48685" lon="6.58484">
        <ele>78.8</ele>
        <time>2026-03-27T14:10:17Z</time>
      </trkpt>
      <trkpt lat="43.48685" lon="6.58484">
        <ele>78.9</ele>
        <time>2026-03-27T14:10:18Z</time>
      </trkpt>
      <trkpt lat="43.48685" lon="6.58484">
        <ele>79</ele>
        <time>2026-03-27T14:10:19Z</time>
      </trkpt>
      <trkpt lat="43.48685" lon="6.58484">
        <ele>79</ele>
        <time>2026-03-27T14:10:20Z</time>
      </trkpt>
      <trkpt lat="43.48685" lon="6.58484">
        <ele>79.2</ele>
        <time>2026-03-27T14:10:21Z</time>
      </trkpt>
      <trkpt lat="43.48685" lon="6.58484">
        <ele>79.2</ele>
        <time>2026-03-27T14:10:22Z</time>
      </trkpt>
      <trkpt lat="43.48685" lon="6.58484">
        <ele>79.3</ele>
        <time>2026-03-27T14:10:23Z</time>
      </trkpt>
      <trkpt lat="43.48685" lon="6.58484">
        <ele>79.3</ele>
        <time>2026-03-27T14:10:24Z</time>
      </trkpt>
      <trkpt lat="43.48685" lon="6.58484">
        <ele>79.3</ele>
        <time>2026-03-27T14:10:25Z</time>
      </trkpt>
      <trkpt lat="43.48684" lon="6.58484">
        <ele>79.4</ele>
        <time>2026-03-27T14:10:26Z</time>
      </trkpt>
      <trkpt lat="43.48685" lon="6.58484">
        <ele>79.5</ele>
        <time>2026-03-27T14:10:27Z</time>
      </trkpt>
      <trkpt lat="43.48685" lon="6.58484">
        <ele>79.5</ele>
        <time>2026-03-27T14:10:28Z</time>
      </trkpt>
      <trkpt lat="43.48684" lon="6.58484">
        <ele>79.5</ele>
        <time>2026-03-27T14:10:29Z</time>
      </trkpt>
      <trkpt lat="43.48684" lon="6.58484">
        <ele>79.5</ele>
        <time>2026-03-27T14:10:30Z</time>
      </trkpt>
      <trkpt lat="43.48684" lon="6.58484">
        <ele>79.5</ele>
        <time>2026-03-27T14:10:31Z</time>
      </trkpt>
      <trkpt lat="43.48684" lon="6.58484">
        <ele>79.5</ele>
        <time>2026-03-27T14:10:32Z</time>
      </trkpt>
      <trkpt lat="43.48685" lon="6.58484">
        <ele>79.5</ele>
        <time>2026-03-27T14:10:33Z</time>
      </trkpt>
      <trkpt lat="43.48684" lon="6.58484">
        <ele>79.5</ele>
        <time>2026-03-27T14:10:34Z</time>
      </trkpt>
      <trkpt lat="43.48684" lon="6.58484">
        <ele>79.5</ele>
        <time>2026-03-27T14:10:35Z</time>
      </trkpt>
      <trkpt lat="43.48684" lon="6.58484">
        <ele>79.5</ele>
        <time>2026-03-27T14:10:36Z</time>
      </trkpt>
      <trkpt lat="43.48684" lon="6.58484">
        <ele>79.5</ele>
        <time>2026-03-27T14:10:37Z</time>
      </trkpt>
      <trkpt lat="43.48684" lon="6.58484">
        <ele>79.5</ele>
        <time>2026-03-27T14:10:38Z</time>
      </trkpt>
      <trkpt lat="43.48684" lon="6.58484">
        <ele>79.5</ele>
        <time>2026-03-27T14:10:39Z</time>
      </trkpt>
      <trkpt lat="43.48684" lon="6.58484">
        <ele>79.6</ele>
        <time>2026-03-27T14:10:40Z</time>
      </trkpt>
      <trkpt lat="43.48684" lon="6.58484">
        <ele>79.6</ele>
        <time>2026-03-27T14:10:41Z</time>
      </trkpt>
      <trkpt lat="43.48684" lon="6.58484">
        <ele>79.6</ele>
        <time>2026-03-27T14:10:42Z</time>
      </trkpt>
      <trkpt lat="43.48684" lon="6.58484">
        <ele>79.7</ele>
        <time>2026-03-27T14:10:43Z</time>
      </trkpt>
      <trkpt lat="43.48684" lon="6.58484">
        <ele>79.7</ele>
        <time>2026-03-27T14:10:44Z</time>
      </trkpt>
      <trkpt lat="43.48684" lon="6.58484">
        <ele>79.7</ele>
        <time>2026-03-27T14:10:45Z</time>
      </trkpt>
      <trkpt lat="43.48684" lon="6.58484">
        <ele>79.7</ele>
        <time>2026-03-27T14:10:46Z</time>
      </trkpt>
      <trkpt lat="43.48684" lon="6.58484">
        <ele>79.7</ele>
        <time>2026-03-27T14:10:47Z</time>
      </trkpt>
      <trkpt lat="43.48684" lon="6.58485">
        <ele>79.7</ele>
        <time>2026-03-27T14:10:48Z</time>
      </trkpt>
      <trkpt lat="43.48684" lon="6.58485">
        <ele>79.6</ele>
        <time>2026-03-27T14:10:49Z</time>
      </trkpt>
      <trkpt lat="43.48684" lon="6.58484">
        <ele>79.6</ele>
        <time>2026-03-27T14:10:50Z</time>
      </trkpt>
      <trkpt lat="43.48684" lon="6.58485">
        <ele>79.5</ele>
        <time>2026-03-27T14:10:51Z</time>
      </trkpt>
      <trkpt lat="43.48684" lon="6.58484">
        <ele>79.5</ele>
        <time>2026-03-27T14:10:52Z</time>
      </trkpt>
      <trkpt lat="43.48684" lon="6.58484">
        <ele>79.4</ele>
        <time>2026-03-27T14:10:53Z</time>
      </trkpt>
      <trkpt lat="43.48684" lon="6.58485">
        <ele>79.2</ele>
        <time>2026-03-27T14:10:54Z</time>
      </trkpt>
      <trkpt lat="43.48684" lon="6.58485">
        <ele>79.1</ele>
        <time>2026-03-27T14:10:55Z</time>
      </trkpt>
      <trkpt lat="43.48683" lon="6.58485">
        <ele>79</ele>
        <time>2026-03-27T14:10:56Z</time>
      </trkpt>
      <trkpt lat="43.48683" lon="6.58485">
        <ele>78.9</ele>
        <time>2026-03-27T14:10:57Z</time>
      </trkpt>
      <trkpt lat="43.48683" lon="6.58485">
        <ele>78.7</ele>
        <time>2026-03-27T14:10:58Z</time>
      </trkpt>
      <trkpt lat="43.48683" lon="6.58485">
        <ele>78.6</ele>
        <time>2026-03-27T14:10:59Z</time>
      </trkpt>
      <trkpt lat="43.48683" lon="6.58485">
        <ele>78.6</ele>
        <time>2026-03-27T14:11:00Z</time>
      </trkpt>
      <trkpt lat="43.48683" lon="6.58484">
        <ele>78.6</ele>
        <time>2026-03-27T14:11:01Z</time>
      </trkpt>
      <trkpt lat="43.48683" lon="6.58485">
        <ele>78.6</ele>
        <time>2026-03-27T14:11:02Z</time>
      </trkpt>
      <trkpt lat="43.48683" lon="6.58484">
        <ele>78.6</ele>
        <time>2026-03-27T14:11:03Z</time>
      </trkpt>
      <trkpt lat="43.48683" lon="6.58484">
        <ele>78.7</ele>
        <time>2026-03-27T14:11:04Z</time>
      </trkpt>
      <trkpt lat="43.48682" lon="6.58484">
        <ele>78.6</ele>
        <time>2026-03-27T14:11:05Z</time>
      </trkpt>
      <trkpt lat="43.48682" lon="6.58484">
        <ele>78.6</ele>
        <time>2026-03-27T14:11:06Z</time>
      </trkpt>
      <trkpt lat="43.48682" lon="6.58484">
        <ele>78.7</ele>
        <time>2026-03-27T14:11:07Z</time>
      </trkpt>
      <trkpt lat="43.48682" lon="6.58484">
        <ele>78.8</ele>
        <time>2026-03-27T14:11:08Z</time>
      </trkpt>
      <trkpt lat="43.48682" lon="6.58484">
        <ele>78.9</ele>
        <time>2026-03-27T14:11:09Z</time>
      </trkpt>
      <trkpt lat="43.48682" lon="6.58484">
        <ele>78.9</ele>
        <time>2026-03-27T14:11:10Z</time>
      </trkpt>
      <trkpt lat="43.48683" lon="6.58484">
        <ele>78.9</ele>
        <time>2026-03-27T14:11:11Z</time>
      </trkpt>
      <trkpt lat="43.48683" lon="6.58484">
        <ele>79</ele>
        <time>2026-03-27T14:11:12Z</time>
      </trkpt>
      <trkpt lat="43.48683" lon="6.58484">
        <ele>79.1</ele>
        <time>2026-03-27T14:11:13Z</time>
      </trkpt>
      <trkpt lat="43.48684" lon="6.58483">
        <ele>78.9</ele>
        <time>2026-03-27T14:11:14Z</time>
      </trkpt>
      <trkpt lat="43.48684" lon="6.58483">
        <ele>79</ele>
        <time>2026-03-27T14:11:15Z</time>
      </trkpt>
      <trkpt lat="43.48684" lon="6.58483">
        <ele>79.1</ele>
        <time>2026-03-27T14:11:16Z</time>
      </trkpt>
      <trkpt lat="43.48684" lon="6.58483">
        <ele>79.1</ele>
        <time>2026-03-27T14:11:17Z</time>
      </trkpt>
      <trkpt lat="43.48684" lon="6.58483">
        <ele>79.3</ele>
        <time>2026-03-27T14:11:18Z</time>
      </trkpt>
      <trkpt lat="43.48684" lon="6.58483">
        <ele>79.4</ele>
        <time>2026-03-27T14:11:19Z</time>
      </trkpt>
      <trkpt lat="43.48684" lon="6.58483">
        <ele>79.4</ele>
        <time>2026-03-27T14:11:20Z</time>
      </trkpt>
      <trkpt lat="43.48684" lon="6.58483">
        <ele>79.5</ele>
        <time>2026-03-27T14:11:21Z</time>
      </trkpt>
      <trkpt lat="43.48684" lon="6.58483">
        <ele>79.4</ele>
        <time>2026-03-27T14:11:22Z</time>
      </trkpt>
      <trkpt lat="43.48684" lon="6.58483">
        <ele>79.4</ele>
        <time>2026-03-27T14:11:23Z</time>
      </trkpt>
      <trkpt lat="43.48684" lon="6.58483">
        <ele>79.4</ele>
        <time>2026-03-27T14:11:24Z</time>
      </trkpt>
      <trkpt lat="43.48684" lon="6.58483">
        <ele>79.4</ele>
        <time>2026-03-27T14:11:25Z</time>
      </trkpt>
      <trkpt lat="43.48684" lon="6.58482">
        <ele>79.4</ele>
        <time>2026-03-27T14:11:26Z</time>
      </trkpt>
      <trkpt lat="43.48684" lon="6.58482">
        <ele>79.4</ele>
        <time>2026-03-27T14:11:27Z</time>
      </trkpt>
      <trkpt lat="43.48684" lon="6.58482">
        <ele>79.5</ele>
        <time>2026-03-27T14:11:28Z</time>
      </trkpt>
      <trkpt lat="43.48684" lon="6.58482">
        <ele>79.6</ele>
        <time>2026-03-27T14:11:29Z</time>
      </trkpt>
      <trkpt lat="43.48684" lon="6.58482">
        <ele>79.5</ele>
        <time>2026-03-27T14:11:30Z</time>
      </trkpt>
      <trkpt lat="43.48684" lon="6.58482">
        <ele>79.4</ele>
        <time>2026-03-27T14:11:31Z</time>
      </trkpt>
      <trkpt lat="43.48684" lon="6.58482">
        <ele>79.4</ele>
        <time>2026-03-27T14:11:32Z</time>
      </trkpt>
      <trkpt lat="43.48683" lon="6.58482">
        <ele>79.5</ele>
        <time>2026-03-27T14:11:33Z</time>
      </trkpt>
      <trkpt lat="43.48683" lon="6.58482">
        <ele>79.5</ele>
        <time>2026-03-27T14:11:34Z</time>
      </trkpt>
      <trkpt lat="43.48683" lon="6.58482">
        <ele>79.5</ele>
        <time>2026-03-27T14:11:35Z</time>
      </trkpt>
      <trkpt lat="43.48684" lon="6.58482">
        <ele>79.6</ele>
        <time>2026-03-27T14:11:36Z</time>
      </trkpt>
      <trkpt lat="43.48684" lon="6.58483">
        <ele>79.6</ele>
        <time>2026-03-27T14:11:37Z</time>
      </trkpt>
      <trkpt lat="43.48684" lon="6.58483">
        <ele>79.6</ele>
        <time>2026-03-27T14:11:38Z</time>
      </trkpt>
      <trkpt lat="43.48684" lon="6.58483">
        <ele>79.6</ele>
        <time>2026-03-27T14:11:39Z</time>
      </trkpt>
      <trkpt lat="43.48684" lon="6.58483">
        <ele>79.6</ele>
        <time>2026-03-27T14:11:40Z</time>
      </trkpt>
      <trkpt lat="43.48684" lon="6.58483">
        <ele>79.6</ele>
        <time>2026-03-27T14:11:41Z</time>
      </trkpt>
      <trkpt lat="43.48684" lon="6.58484">
        <ele>79.6</ele>
        <time>2026-03-27T14:11:42Z</time>
      </trkpt>
      <trkpt lat="43.48684" lon="6.58484">
        <ele>79.6</ele>
        <time>2026-03-27T14:11:43Z</time>
      </trkpt>
      <trkpt lat="43.48684" lon="6.58484">
        <ele>79.6</ele>
        <time>2026-03-27T14:11:44Z</time>
      </trkpt>
      <trkpt lat="43.48684" lon="6.58484">
        <ele>79.6</ele>
        <time>2026-03-27T14:11:45Z</time>
      </trkpt>
      <trkpt lat="43.48684" lon="6.58484">
        <ele>79.6</ele>
        <time>2026-03-27T14:11:46Z</time>
      </trkpt>
      <trkpt lat="43.48684" lon="6.58484">
        <ele>79.6</ele>
        <time>2026-03-27T14:11:47Z</time>
      </trkpt>
      <trkpt lat="43.48684" lon="6.58484">
        <ele>79.7</ele>
        <time>2026-03-27T14:11:48Z</time>
      </trkpt>
      <trkpt lat="43.48684" lon="6.58484">
        <ele>79.7</ele>
        <time>2026-03-27T14:11:49Z</time>
      </trkpt>
      <trkpt lat="43.48684" lon="6.58484">
        <ele>79.7</ele>
        <time>2026-03-27T14:11:50Z</time>
      </trkpt>
      <trkpt lat="43.48684" lon="6.58484">
        <ele>79.7</ele>
        <time>2026-03-27T14:11:51Z</time>
      </trkpt>
      <trkpt lat="43.48684" lon="6.58484">
        <ele>79.7</ele>
        <time>2026-03-27T14:11:52Z</time>
      </trkpt>
      <trkpt lat="43.48685" lon="6.58484">
        <ele>79.7</ele>
        <time>2026-03-27T14:11:53Z</time>
      </trkpt>
      <trkpt lat="43.48685" lon="6.58484">
        <ele>79.6</ele>
        <time>2026-03-27T14:11:54Z</time>
      </trkpt>
      <trkpt lat="43.48684" lon="6.58484">
        <ele>79.6</ele>
        <time>2026-03-27T14:11:55Z</time>
      </trkpt>
      <trkpt lat="43.48684" lon="6.58484">
        <ele>79.6</ele>
        <time>2026-03-27T14:11:56Z</time>
      </trkpt>
      <trkpt lat="43.48684" lon="6.58484">
        <ele>79.6</ele>
        <time>2026-03-27T14:11:57Z</time>
      </trkpt>
      <trkpt lat="43.48684" lon="6.58484">
        <ele>79.6</ele>
        <time>2026-03-27T14:11:58Z</time>
      </trkpt>
      <trkpt lat="43.48684" lon="6.58484">
        <ele>79.7</ele>
        <time>2026-03-27T14:11:59Z</time>
      </trkpt>
      <trkpt lat="43.48684" lon="6.58484">
        <ele>79.6</ele>
        <time>2026-03-27T14:12:00Z</time>
      </trkpt>
      <trkpt lat="43.48684" lon="6.58484">
        <ele>79.6</ele>
        <time>2026-03-27T14:12:01Z</time>
      </trkpt>
      <trkpt lat="43.48684" lon="6.58484">
        <ele>79.6</ele>
        <time>2026-03-27T14:12:02Z</time>
      </trkpt>
      <trkpt lat="43.48684" lon="6.58484">
        <ele>79.7</ele>
        <time>2026-03-27T14:12:03Z</time>
      </trkpt>
      <trkpt lat="43.48684" lon="6.58484">
        <ele>79.6</ele>
        <time>2026-03-27T14:12:04Z</time>
      </trkpt>
      <trkpt lat="43.48684" lon="6.58484">
        <ele>79.7</ele>
        <time>2026-03-27T14:12:05Z</time>
      </trkpt>
      <trkpt lat="43.48684" lon="6.58483">
        <ele>79.7</ele>
        <time>2026-03-27T14:12:06Z</time>
      </trkpt>
      <trkpt lat="43.48684" lon="6.58483">
        <ele>79.8</ele>
        <time>2026-03-27T14:12:07Z</time>
      </trkpt>
      <trkpt lat="43.48684" lon="6.58483">
        <ele>79.9</ele>
        <time>2026-03-27T14:12:08Z</time>
      </trkpt>
      <trkpt lat="43.48684" lon="6.58483">
        <ele>80</ele>
        <time>2026-03-27T14:12:09Z</time>
      </trkpt>
      <trkpt lat="43.48684" lon="6.58483">
        <ele>80.1</ele>
        <time>2026-03-27T14:12:10Z</time>
      </trkpt>
      <trkpt lat="43.48684" lon="6.58483">
        <ele>80.1</ele>
        <time>2026-03-27T14:12:11Z</time>
      </trkpt>
      <trkpt lat="43.48684" lon="6.58483">
        <ele>80.1</ele>
        <time>2026-03-27T14:12:12Z</time>
      </trkpt>
      <trkpt lat="43.48684" lon="6.58483">
        <ele>80.1</ele>
        <time>2026-03-27T14:12:13Z</time>
      </trkpt>
      <trkpt lat="43.48684" lon="6.58483">
        <ele>80.1</ele>
        <time>2026-03-27T14:12:14Z</time>
      </trkpt>
      <trkpt lat="43.48684" lon="6.58483">
        <ele>80.1</ele>
        <time>2026-03-27T14:12:15Z</time>
      </trkpt>
      <trkpt lat="43.48685" lon="6.58483">
        <ele>80.1</ele>
        <time>2026-03-27T14:12:16Z</time>
      </trkpt>
      <trkpt lat="43.48685" lon="6.58483">
        <ele>80.1</ele>
        <time>2026-03-27T14:12:17Z</time>
      </trkpt>
      <trkpt lat="43.48685" lon="6.58483">
        <ele>80.1</ele>
        <time>2026-03-27T14:12:18Z</time>
      </trkpt>
      <trkpt lat="43.48685" lon="6.58483">
        <ele>80.2</ele>
        <time>2026-03-27T14:12:19Z</time>
      </trkpt>
      <trkpt lat="43.48685" lon="6.58483">
        <ele>80.1</ele>
        <time>2026-03-27T14:12:20Z</time>
      </trkpt>
      <trkpt lat="43.48685" lon="6.58483">
        <ele>80.1</ele>
        <time>2026-03-27T14:12:21Z</time>
      </trkpt>
      <trkpt lat="43.48685" lon="6.58483">
        <ele>80.1</ele>
        <time>2026-03-27T14:12:22Z</time>
      </trkpt>
      <trkpt lat="43.48685" lon="6.58483">
        <ele>80</ele>
        <time>2026-03-27T14:12:23Z</time>
      </trkpt>
      <trkpt lat="43.48685" lon="6.58483">
        <ele>80</ele>
        <time>2026-03-27T14:12:24Z</time>
      </trkpt>
      <trkpt lat="43.48685" lon="6.58483">
        <ele>80</ele>
        <time>2026-03-27T14:12:25Z</time>
      </trkpt>
      <trkpt lat="43.48684" lon="6.58483">
        <ele>79.9</ele>
        <time>2026-03-27T14:12:26Z</time>
      </trkpt>
      <trkpt lat="43.48684" lon="6.58483">
        <ele>79.9</ele>
        <time>2026-03-27T14:12:27Z</time>
      </trkpt>
      <trkpt lat="43.48684" lon="6.58483">
        <ele>80</ele>
        <time>2026-03-27T14:12:28Z</time>
      </trkpt>
      <trkpt lat="43.48684" lon="6.58483">
        <ele>80.1</ele>
        <time>2026-03-27T14:12:29Z</time>
      </trkpt>
      <trkpt lat="43.48684" lon="6.58483">
        <ele>80.2</ele>
        <time>2026-03-27T14:12:30Z</time>
      </trkpt>
      <trkpt lat="43.48684" lon="6.58483">
        <ele>80.3</ele>
        <time>2026-03-27T14:12:31Z</time>
      </trkpt>
      <trkpt lat="43.48684" lon="6.58483">
        <ele>80.2</ele>
        <time>2026-03-27T14:12:32Z</time>
      </trkpt>
      <trkpt lat="43.48684" lon="6.58483">
        <ele>80.2</ele>
        <time>2026-03-27T14:12:33Z</time>
      </trkpt>
      <trkpt lat="43.48684" lon="6.58483">
        <ele>80.1</ele>
        <time>2026-03-27T14:12:34Z</time>
      </trkpt>
      <trkpt lat="43.48684" lon="6.58483">
        <ele>80</ele>
        <time>2026-03-27T14:12:35Z</time>
      </trkpt>
      <trkpt lat="43.48684" lon="6.58483">
        <ele>79.9</ele>
        <time>2026-03-27T14:12:36Z</time>
      </trkpt>
      <trkpt lat="43.48684" lon="6.58484">
        <ele>79.9</ele>
        <time>2026-03-27T14:12:37Z</time>
      </trkpt>
      <trkpt lat="43.48684" lon="6.58484">
        <ele>79.8</ele>
        <time>2026-03-27T14:12:38Z</time>
      </trkpt>
      <trkpt lat="43.48684" lon="6.58484">
        <ele>79.9</ele>
        <time>2026-03-27T14:12:39Z</time>
      </trkpt>
      <trkpt lat="43.48684" lon="6.58484">
        <ele>80</ele>
        <time>2026-03-27T14:12:40Z</time>
      </trkpt>
      <trkpt lat="43.48684" lon="6.58484">
        <ele>80</ele>
        <time>2026-03-27T14:12:41Z</time>
      </trkpt>
      <trkpt lat="43.48684" lon="6.58484">
        <ele>80.1</ele>
        <time>2026-03-27T14:12:42Z</time>
      </trkpt>
      <trkpt lat="43.48684" lon="6.58484">
        <ele>80.1</ele>
        <time>2026-03-27T14:12:43Z</time>
      </trkpt>
      <trkpt lat="43.48685" lon="6.58484">
        <ele>80.2</ele>
        <time>2026-03-27T14:12:44Z</time>
      </trkpt>
      <trkpt lat="43.48684" lon="6.58484">
        <ele>80.3</ele>
        <time>2026-03-27T14:12:45Z</time>
      </trkpt>
      <trkpt lat="43.48684" lon="6.58484">
        <ele>80.2</ele>
        <time>2026-03-27T14:12:46Z</time>
      </trkpt>
      <trkpt lat="43.48684" lon="6.58484">
        <ele>80</ele>
        <time>2026-03-27T14:12:47Z</time>
      </trkpt>
      <trkpt lat="43.48684" lon="6.58484">
        <ele>80</ele>
        <time>2026-03-27T14:12:48Z</time>
      </trkpt>
      <trkpt lat="43.48685" lon="6.58484">
        <ele>80</ele>
        <time>2026-03-27T14:12:49Z</time>
      </trkpt>
      <trkpt lat="43.48684" lon="6.58484">
        <ele>80</ele>
        <time>2026-03-27T14:12:50Z</time>
      </trkpt>
      <trkpt lat="43.48684" lon="6.58485">
        <ele>79.9</ele>
        <time>2026-03-27T14:12:51Z</time>
      </trkpt>
      <trkpt lat="43.48684" lon="6.58486">
        <ele>79.8</ele>
        <time>2026-03-27T14:12:52Z</time>
      </trkpt>
      <trkpt lat="43.48684" lon="6.58486">
        <ele>79.9</ele>
        <time>2026-03-27T14:12:53Z</time>
      </trkpt>
      <trkpt lat="43.48684" lon="6.58486">
        <ele>80</ele>
        <time>2026-03-27T14:12:54Z</time>
      </trkpt>
      <trkpt lat="43.48685" lon="6.58486">
        <ele>79.6</ele>
        <time>2026-03-27T14:12:55Z</time>
      </trkpt>
      <trkpt lat="43.48684" lon="6.58486">
        <ele>79.7</ele>
        <time>2026-03-27T14:12:56Z</time>
      </trkpt>
      <trkpt lat="43.48684" lon="6.58486">
        <ele>79.7</ele>
        <time>2026-03-27T14:12:57Z</time>
      </trkpt>
      <trkpt lat="43.48684" lon="6.58486">
        <ele>79.7</ele>
        <time>2026-03-27T14:12:58Z</time>
      </trkpt>
      <trkpt lat="43.48684" lon="6.58486">
        <ele>79.8</ele>
        <time>2026-03-27T14:12:59Z</time>
      </trkpt>
      <trkpt lat="43.48685" lon="6.58486">
        <ele>79.7</ele>
        <time>2026-03-27T14:13:00Z</time>
      </trkpt>
      <trkpt lat="43.48684" lon="6.58486">
        <ele>79.7</ele>
        <time>2026-03-27T14:13:01Z</time>
      </trkpt>
      <trkpt lat="43.48683" lon="6.58486">
        <ele>79.6</ele>
        <time>2026-03-27T14:13:02Z</time>
      </trkpt>
      <trkpt lat="43.48682" lon="6.58487">
        <ele>79.6</ele>
        <time>2026-03-27T14:13:03Z</time>
      </trkpt>
      <trkpt lat="43.48681" lon="6.58487">
        <ele>79.6</ele>
        <time>2026-03-27T14:13:04Z</time>
      </trkpt>
      <trkpt lat="43.4868" lon="6.58488">
        <ele>79.3</ele>
        <time>2026-03-27T14:13:05Z</time>
      </trkpt>
      <trkpt lat="43.48681" lon="6.58488">
        <ele>79</ele>
        <time>2026-03-27T14:13:06Z</time>
      </trkpt>
      <trkpt lat="43.48681" lon="6.58489">
        <ele>78.8</ele>
        <time>2026-03-27T14:13:07Z</time>
      </trkpt>
      <trkpt lat="43.48681" lon="6.58491">
        <ele>78.7</ele>
        <time>2026-03-27T14:13:08Z</time>
      </trkpt>
      <trkpt lat="43.48681" lon="6.58492">
        <ele>78.5</ele>
        <time>2026-03-27T14:13:09Z</time>
      </trkpt>
      <trkpt lat="43.48681" lon="6.58494">
        <ele>78.4</ele>
        <time>2026-03-27T14:13:10Z</time>
      </trkpt>
      <trkpt lat="43.48681" lon="6.58496">
        <ele>78.3</ele>
        <time>2026-03-27T14:13:11Z</time>
      </trkpt>
      <trkpt lat="43.48681" lon="6.58497">
        <ele>78.3</ele>
        <time>2026-03-27T14:13:12Z</time>
      </trkpt>
      <trkpt lat="43.48681" lon="6.58499">
        <ele>78.4</ele>
        <time>2026-03-27T14:13:13Z</time>
      </trkpt>
      <trkpt lat="43.48681" lon="6.58501">
        <ele>78.5</ele>
        <time>2026-03-27T14:13:14Z</time>
      </trkpt>
      <trkpt lat="43.48681" lon="6.58502">
        <ele>78.6</ele>
        <time>2026-03-27T14:13:15Z</time>
      </trkpt>
      <trkpt lat="43.48681" lon="6.58504">
        <ele>78.5</ele>
        <time>2026-03-27T14:13:16Z</time>
      </trkpt>
      <trkpt lat="43.48681" lon="6.58505">
        <ele>78.5</ele>
        <time>2026-03-27T14:13:17Z</time>
      </trkpt>
      <trkpt lat="43.48681" lon="6.58506">
        <ele>78.5</ele>
        <time>2026-03-27T14:13:18Z</time>
      </trkpt>
      <trkpt lat="43.48681" lon="6.58508">
        <ele>78.6</ele>
        <time>2026-03-27T14:13:19Z</time>
      </trkpt>
      <trkpt lat="43.48681" lon="6.58509">
        <ele>78.7</ele>
        <time>2026-03-27T14:13:20Z</time>
      </trkpt>
      <trkpt lat="43.48682" lon="6.5851">
        <ele>78.7</ele>
        <time>2026-03-27T14:13:21Z</time>
      </trkpt>
      <trkpt lat="43.48682" lon="6.58512">
        <ele>78.8</ele>
        <time>2026-03-27T14:13:22Z</time>
      </trkpt>
      <trkpt lat="43.48682" lon="6.58513">
        <ele>78.8</ele>
        <time>2026-03-27T14:13:23Z</time>
      </trkpt>
      <trkpt lat="43.48682" lon="6.58514">
        <ele>78.9</ele>
        <time>2026-03-27T14:13:24Z</time>
      </trkpt>
      <trkpt lat="43.48682" lon="6.58516">
        <ele>78.8</ele>
        <time>2026-03-27T14:13:25Z</time>
      </trkpt>
      <trkpt lat="43.48682" lon="6.58517">
        <ele>78.8</ele>
        <time>2026-03-27T14:13:26Z</time>
      </trkpt>
      <trkpt lat="43.48681" lon="6.58518">
        <ele>78.8</ele>
        <time>2026-03-27T14:13:27Z</time>
      </trkpt>
      <trkpt lat="43.48681" lon="6.58519">
        <ele>78.9</ele>
        <time>2026-03-27T14:13:28Z</time>
      </trkpt>
      <trkpt lat="43.48681" lon="6.58521">
        <ele>78.9</ele>
        <time>2026-03-27T14:13:29Z</time>
      </trkpt>
      <trkpt lat="43.48681" lon="6.58522">
        <ele>78.9</ele>
        <time>2026-03-27T14:13:30Z</time>
      </trkpt>
      <trkpt lat="43.48681" lon="6.58523">
        <ele>79</ele>
        <time>2026-03-27T14:13:31Z</time>
      </trkpt>
      <trkpt lat="43.48682" lon="6.58524">
        <ele>79</ele>
        <time>2026-03-27T14:13:32Z</time>
      </trkpt>
      <trkpt lat="43.48681" lon="6.58524">
        <ele>79.1</ele>
        <time>2026-03-27T14:13:33Z</time>
      </trkpt>
      <trkpt lat="43.48681" lon="6.58525">
        <ele>79.2</ele>
        <time>2026-03-27T14:13:34Z</time>
      </trkpt>
      <trkpt lat="43.48681" lon="6.58526">
        <ele>79.2</ele>
        <time>2026-03-27T14:13:35Z</time>
      </trkpt>
      <trkpt lat="43.48681" lon="6.58527">
        <ele>79.2</ele>
        <time>2026-03-27T14:13:36Z</time>
      </trkpt>
      <trkpt lat="43.48681" lon="6.58528">
        <ele>79.2</ele>
        <time>2026-03-27T14:13:37Z</time>
      </trkpt>
      <trkpt lat="43.48681" lon="6.58529">
        <ele>79.3</ele>
        <time>2026-03-27T14:13:38Z</time>
      </trkpt>
      <trkpt lat="43.48681" lon="6.5853">
        <ele>79.2</ele>
        <time>2026-03-27T14:13:39Z</time>
      </trkpt>
      <trkpt lat="43.48681" lon="6.58531">
        <ele>79.1</ele>
        <time>2026-03-27T14:13:40Z</time>
      </trkpt>
      <trkpt lat="43.4868" lon="6.58533">
        <ele>79</ele>
        <time>2026-03-27T14:13:41Z</time>
      </trkpt>
      <trkpt lat="43.4868" lon="6.58535">
        <ele>79</ele>
        <time>2026-03-27T14:13:42Z</time>
      </trkpt>
      <trkpt lat="43.48679" lon="6.58536">
        <ele>79</ele>
        <time>2026-03-27T14:13:43Z</time>
      </trkpt>
      <trkpt lat="43.48679" lon="6.58537">
        <ele>79</ele>
        <time>2026-03-27T14:13:44Z</time>
      </trkpt>
      <trkpt lat="43.48678" lon="6.58539">
        <ele>79</ele>
        <time>2026-03-27T14:13:45Z</time>
      </trkpt>
      <trkpt lat="43.48678" lon="6.5854">
        <ele>79</ele>
        <time>2026-03-27T14:13:46Z</time>
      </trkpt>
      <trkpt lat="43.48678" lon="6.58541">
        <ele>79</ele>
        <time>2026-03-27T14:13:47Z</time>
      </trkpt>
      <trkpt lat="43.48678" lon="6.58543">
        <ele>79</ele>
        <time>2026-03-27T14:13:48Z</time>
      </trkpt>
      <trkpt lat="43.48678" lon="6.58544">
        <ele>78.9</ele>
        <time>2026-03-27T14:13:49Z</time>
      </trkpt>
      <trkpt lat="43.48677" lon="6.58545">
        <ele>78.9</ele>
        <time>2026-03-27T14:13:50Z</time>
      </trkpt>
      <trkpt lat="43.48677" lon="6.58547">
        <ele>78.8</ele>
        <time>2026-03-27T14:13:51Z</time>
      </trkpt>
      <trkpt lat="43.48677" lon="6.58548">
        <ele>78.8</ele>
        <time>2026-03-27T14:13:52Z</time>
      </trkpt>
      <trkpt lat="43.48677" lon="6.5855">
        <ele>78.8</ele>
        <time>2026-03-27T14:13:53Z</time>
      </trkpt>
      <trkpt lat="43.48677" lon="6.58551">
        <ele>78.4</ele>
        <time>2026-03-27T14:13:54Z</time>
      </trkpt>
      <trkpt lat="43.48676" lon="6.58552">
        <ele>78.2</ele>
        <time>2026-03-27T14:13:55Z</time>
      </trkpt>
      <trkpt lat="43.48676" lon="6.58553">
        <ele>78.2</ele>
        <time>2026-03-27T14:13:56Z</time>
      </trkpt>
      <trkpt lat="43.48676" lon="6.58554">
        <ele>78</ele>
        <time>2026-03-27T14:13:57Z</time>
      </trkpt>
      <trkpt lat="43.48676" lon="6.58556">
        <ele>78</ele>
        <time>2026-03-27T14:13:58Z</time>
      </trkpt>
      <trkpt lat="43.48675" lon="6.58557">
        <ele>77.9</ele>
        <time>2026-03-27T14:13:59Z</time>
      </trkpt>
      <trkpt lat="43.48675" lon="6.58559">
        <ele>77.8</ele>
        <time>2026-03-27T14:14:00Z</time>
      </trkpt>
      <trkpt lat="43.48675" lon="6.5856">
        <ele>77.9</ele>
        <time>2026-03-27T14:14:01Z</time>
      </trkpt>
      <trkpt lat="43.48675" lon="6.58562">
        <ele>77.8</ele>
        <time>2026-03-27T14:14:02Z</time>
      </trkpt>
      <trkpt lat="43.48674" lon="6.58563">
        <ele>77.8</ele>
        <time>2026-03-27T14:14:03Z</time>
      </trkpt>
      <trkpt lat="43.48674" lon="6.58565">
        <ele>77.8</ele>
        <time>2026-03-27T14:14:04Z</time>
      </trkpt>
      <trkpt lat="43.48674" lon="6.58566">
        <ele>78</ele>
        <time>2026-03-27T14:14:05Z</time>
      </trkpt>
      <trkpt lat="43.48673" lon="6.58568">
        <ele>78.2</ele>
        <time>2026-03-27T14:14:06Z</time>
      </trkpt>
      <trkpt lat="43.48673" lon="6.5857">
        <ele>78.3</ele>
        <time>2026-03-27T14:14:07Z</time>
      </trkpt>
      <trkpt lat="43.48674" lon="6.58571">
        <ele>78.3</ele>
        <time>2026-03-27T14:14:08Z</time>
      </trkpt>
      <trkpt lat="43.48674" lon="6.58573">
        <ele>78.4</ele>
        <time>2026-03-27T14:14:09Z</time>
      </trkpt>
      <trkpt lat="43.48673" lon="6.58574">
        <ele>78.5</ele>
        <time>2026-03-27T14:14:10Z</time>
      </trkpt>
      <trkpt lat="43.48673" lon="6.58576">
        <ele>78.6</ele>
        <time>2026-03-27T14:14:11Z</time>
      </trkpt>
      <trkpt lat="43.48673" lon="6.58577">
        <ele>78.6</ele>
        <time>2026-03-27T14:14:12Z</time>
      </trkpt>
      <trkpt lat="43.48673" lon="6.58579">
        <ele>78.6</ele>
        <time>2026-03-27T14:14:13Z</time>
      </trkpt>
      <trkpt lat="43.48673" lon="6.58581">
        <ele>78.7</ele>
        <time>2026-03-27T14:14:14Z</time>
      </trkpt>
      <trkpt lat="43.48673" lon="6.58582">
        <ele>78.6</ele>
        <time>2026-03-27T14:14:15Z</time>
      </trkpt>
      <trkpt lat="43.48674" lon="6.58584">
        <ele>78.6</ele>
        <time>2026-03-27T14:14:16Z</time>
      </trkpt>
      <trkpt lat="43.48674" lon="6.58586">
        <ele>78.7</ele>
        <time>2026-03-27T14:14:17Z</time>
      </trkpt>
      <trkpt lat="43.48674" lon="6.58587">
        <ele>78.8</ele>
        <time>2026-03-27T14:14:18Z</time>
      </trkpt>
      <trkpt lat="43.48674" lon="6.58589">
        <ele>78.8</ele>
        <time>2026-03-27T14:14:19Z</time>
      </trkpt>
      <trkpt lat="43.48674" lon="6.5859">
        <ele>78.8</ele>
        <time>2026-03-27T14:14:20Z</time>
      </trkpt>
      <trkpt lat="43.48675" lon="6.58592">
        <ele>78.8</ele>
        <time>2026-03-27T14:14:21Z</time>
      </trkpt>
      <trkpt lat="43.48675" lon="6.58593">
        <ele>78.8</ele>
        <time>2026-03-27T14:14:22Z</time>
      </trkpt>
      <trkpt lat="43.48675" lon="6.58595">
        <ele>78.8</ele>
        <time>2026-03-27T14:14:23Z</time>
      </trkpt>
      <trkpt lat="43.48675" lon="6.58597">
        <ele>78.7</ele>
        <time>2026-03-27T14:14:24Z</time>
      </trkpt>
      <trkpt lat="43.48675" lon="6.58598">
        <ele>78.8</ele>
        <time>2026-03-27T14:14:25Z</time>
      </trkpt>
      <trkpt lat="43.48675" lon="6.586">
        <ele>78.7</ele>
        <time>2026-03-27T14:14:26Z</time>
      </trkpt>
      <trkpt lat="43.48676" lon="6.58601">
        <ele>78.6</ele>
        <time>2026-03-27T14:14:27Z</time>
      </trkpt>
      <trkpt lat="43.48676" lon="6.58603">
        <ele>78.5</ele>
        <time>2026-03-27T14:14:28Z</time>
      </trkpt>
      <trkpt lat="43.48677" lon="6.58604">
        <ele>78.4</ele>
        <time>2026-03-27T14:14:29Z</time>
      </trkpt>
      <trkpt lat="43.48677" lon="6.58606">
        <ele>78.3</ele>
        <time>2026-03-27T14:14:30Z</time>
      </trkpt>
      <trkpt lat="43.48677" lon="6.58607">
        <ele>78.2</ele>
        <time>2026-03-27T14:14:31Z</time>
      </trkpt>
      <trkpt lat="43.48677" lon="6.58609">
        <ele>78.1</ele>
        <time>2026-03-27T14:14:32Z</time>
      </trkpt>
      <trkpt lat="43.48677" lon="6.58611">
        <ele>78.1</ele>
        <time>2026-03-27T14:14:33Z</time>
      </trkpt>
      <trkpt lat="43.48677" lon="6.58612">
        <ele>77.8</ele>
        <time>2026-03-27T14:14:34Z</time>
      </trkpt>
      <trkpt lat="43.48677" lon="6.58614">
        <ele>77.7</ele>
        <time>2026-03-27T14:14:35Z</time>
      </trkpt>
      <trkpt lat="43.48678" lon="6.58615">
        <ele>77.5</ele>
        <time>2026-03-27T14:14:36Z</time>
      </trkpt>
      <trkpt lat="43.48678" lon="6.58617">
        <ele>77.4</ele>
        <time>2026-03-27T14:14:37Z</time>
      </trkpt>
      <trkpt lat="43.48678" lon="6.58618">
        <ele>77.4</ele>
        <time>2026-03-27T14:14:38Z</time>
      </trkpt>
      <trkpt lat="43.48678" lon="6.5862">
        <ele>77.4</ele>
        <time>2026-03-27T14:14:39Z</time>
      </trkpt>
      <trkpt lat="43.48677" lon="6.58621">
        <ele>77.4</ele>
        <time>2026-03-27T14:14:40Z</time>
      </trkpt>
      <trkpt lat="43.48677" lon="6.58623">
        <ele>77.3</ele>
        <time>2026-03-27T14:14:41Z</time>
      </trkpt>
      <trkpt lat="43.48676" lon="6.58624">
        <ele>77.3</ele>
        <time>2026-03-27T14:14:42Z</time>
      </trkpt>
      <trkpt lat="43.48676" lon="6.58625">
        <ele>77.2</ele>
        <time>2026-03-27T14:14:43Z</time>
      </trkpt>
      <trkpt lat="43.48676" lon="6.58627">
        <ele>77.2</ele>
        <time>2026-03-27T14:14:44Z</time>
      </trkpt>
      <trkpt lat="43.48675" lon="6.58628">
        <ele>77.2</ele>
        <time>2026-03-27T14:14:45Z</time>
      </trkpt>
      <trkpt lat="43.48675" lon="6.5863">
        <ele>77.3</ele>
        <time>2026-03-27T14:14:46Z</time>
      </trkpt>
      <trkpt lat="43.48674" lon="6.58631">
        <ele>77.4</ele>
        <time>2026-03-27T14:14:47Z</time>
      </trkpt>
      <trkpt lat="43.48674" lon="6.58633">
        <ele>77.3</ele>
        <time>2026-03-27T14:14:48Z</time>
      </trkpt>
      <trkpt lat="43.48673" lon="6.58634">
        <ele>77.3</ele>
        <time>2026-03-27T14:14:49Z</time>
      </trkpt>
      <trkpt lat="43.48673" lon="6.58636">
        <ele>77.2</ele>
        <time>2026-03-27T14:14:50Z</time>
      </trkpt>
      <trkpt lat="43.48672" lon="6.58637">
        <ele>77</ele>
        <time>2026-03-27T14:14:51Z</time>
      </trkpt>
      <trkpt lat="43.48671" lon="6.58639">
        <ele>76.9</ele>
        <time>2026-03-27T14:14:52Z</time>
      </trkpt>
      <trkpt lat="43.48671" lon="6.5864">
        <ele>76.9</ele>
        <time>2026-03-27T14:14:53Z</time>
      </trkpt>
      <trkpt lat="43.4867" lon="6.58642">
        <ele>76.8</ele>
        <time>2026-03-27T14:14:54Z</time>
      </trkpt>
      <trkpt lat="43.4867" lon="6.58643">
        <ele>76.6</ele>
        <time>2026-03-27T14:14:55Z</time>
      </trkpt>
      <trkpt lat="43.48669" lon="6.58645">
        <ele>76.5</ele>
        <time>2026-03-27T14:14:56Z</time>
      </trkpt>
      <trkpt lat="43.48669" lon="6.58646">
        <ele>76.3</ele>
        <time>2026-03-27T14:14:57Z</time>
      </trkpt>
      <trkpt lat="43.48668" lon="6.58647">
        <ele>76.2</ele>
        <time>2026-03-27T14:14:58Z</time>
      </trkpt>
      <trkpt lat="43.48667" lon="6.58648">
        <ele>76</ele>
        <time>2026-03-27T14:14:59Z</time>
      </trkpt>
      <trkpt lat="43.48666" lon="6.5865">
        <ele>76</ele>
        <time>2026-03-27T14:15:00Z</time>
      </trkpt>
      <trkpt lat="43.48665" lon="6.58651">
        <ele>75.9</ele>
        <time>2026-03-27T14:15:01Z</time>
      </trkpt>
      <trkpt lat="43.48664" lon="6.58652">
        <ele>75.9</ele>
        <time>2026-03-27T14:15:02Z</time>
      </trkpt>
      <trkpt lat="43.48663" lon="6.58653">
        <ele>75.8</ele>
        <time>2026-03-27T14:15:03Z</time>
      </trkpt>
      <trkpt lat="43.48663" lon="6.58654">
        <ele>75.8</ele>
        <time>2026-03-27T14:15:04Z</time>
      </trkpt>
      <trkpt lat="43.48662" lon="6.58654">
        <ele>75.8</ele>
        <time>2026-03-27T14:15:05Z</time>
      </trkpt>
      <trkpt lat="43.48661" lon="6.58655">
        <ele>75.7</ele>
        <time>2026-03-27T14:15:06Z</time>
      </trkpt>
      <trkpt lat="43.4866" lon="6.58656">
        <ele>75.6</ele>
        <time>2026-03-27T14:15:07Z</time>
      </trkpt>
      <trkpt lat="43.48659" lon="6.58657">
        <ele>75.6</ele>
        <time>2026-03-27T14:15:08Z</time>
      </trkpt>
      <trkpt lat="43.48658" lon="6.58657">
        <ele>75.5</ele>
        <time>2026-03-27T14:15:09Z</time>
      </trkpt>
      <trkpt lat="43.48657" lon="6.58658">
        <ele>75.5</ele>
        <time>2026-03-27T14:15:10Z</time>
      </trkpt>
      <trkpt lat="43.48656" lon="6.58658">
        <ele>75.5</ele>
        <time>2026-03-27T14:15:11Z</time>
      </trkpt>
      <trkpt lat="43.48655" lon="6.58659">
        <ele>75.4</ele>
        <time>2026-03-27T14:15:12Z</time>
      </trkpt>
      <trkpt lat="43.48654" lon="6.58659">
        <ele>75.3</ele>
        <time>2026-03-27T14:15:13Z</time>
      </trkpt>
      <trkpt lat="43.48652" lon="6.5866">
        <ele>75.3</ele>
        <time>2026-03-27T14:15:14Z</time>
      </trkpt>
      <trkpt lat="43.48651" lon="6.58661">
        <ele>75.3</ele>
        <time>2026-03-27T14:15:15Z</time>
      </trkpt>
      <trkpt lat="43.4865" lon="6.58661">
        <ele>75.3</ele>
        <time>2026-03-27T14:15:16Z</time>
      </trkpt>
      <trkpt lat="43.48649" lon="6.58662">
        <ele>75.2</ele>
        <time>2026-03-27T14:15:17Z</time>
      </trkpt>
      <trkpt lat="43.48648" lon="6.58662">
        <ele>75</ele>
        <time>2026-03-27T14:15:18Z</time>
      </trkpt>
      <trkpt lat="43.48647" lon="6.58663">
        <ele>74.9</ele>
        <time>2026-03-27T14:15:19Z</time>
      </trkpt>
      <trkpt lat="43.48646" lon="6.58663">
        <ele>74.8</ele>
        <time>2026-03-27T14:15:20Z</time>
      </trkpt>
      <trkpt lat="43.48645" lon="6.58663">
        <ele>74.7</ele>
        <time>2026-03-27T14:15:21Z</time>
      </trkpt>
      <trkpt lat="43.48644" lon="6.58663">
        <ele>74.6</ele>
        <time>2026-03-27T14:15:22Z</time>
      </trkpt>
      <trkpt lat="43.48643" lon="6.58663">
        <ele>74.6</ele>
        <time>2026-03-27T14:15:23Z</time>
      </trkpt>
      <trkpt lat="43.48642" lon="6.58663">
        <ele>74.6</ele>
        <time>2026-03-27T14:15:24Z</time>
      </trkpt>
      <trkpt lat="43.48641" lon="6.58664">
        <ele>74.5</ele>
        <time>2026-03-27T14:15:25Z</time>
      </trkpt>
      <trkpt lat="43.4864" lon="6.58665">
        <ele>74.3</ele>
        <time>2026-03-27T14:15:26Z</time>
      </trkpt>
      <trkpt lat="43.48639" lon="6.58665">
        <ele>74.4</ele>
        <time>2026-03-27T14:15:27Z</time>
      </trkpt>
      <trkpt lat="43.48638" lon="6.58666">
        <ele>74.3</ele>
        <time>2026-03-27T14:15:28Z</time>
      </trkpt>
      <trkpt lat="43.48637" lon="6.58666">
        <ele>74.2</ele>
        <time>2026-03-27T14:15:29Z</time>
      </trkpt>
      <trkpt lat="43.48636" lon="6.58666">
        <ele>74</ele>
        <time>2026-03-27T14:15:30Z</time>
      </trkpt>
      <trkpt lat="43.48635" lon="6.58666">
        <ele>73.8</ele>
        <time>2026-03-27T14:15:31Z</time>
      </trkpt>
      <trkpt lat="43.48634" lon="6.58666">
        <ele>73.6</ele>
        <time>2026-03-27T14:15:32Z</time>
      </trkpt>
      <trkpt lat="43.48632" lon="6.58666">
        <ele>73.4</ele>
        <time>2026-03-27T14:15:33Z</time>
      </trkpt>
      <trkpt lat="43.48631" lon="6.58667">
        <ele>73.2</ele>
        <time>2026-03-27T14:15:34Z</time>
      </trkpt>
      <trkpt lat="43.4863" lon="6.58667">
        <ele>73.2</ele>
        <time>2026-03-27T14:15:35Z</time>
      </trkpt>
      <trkpt lat="43.48629" lon="6.58667">
        <ele>73.3</ele>
        <time>2026-03-27T14:15:36Z</time>
      </trkpt>
      <trkpt lat="43.48627" lon="6.58667">
        <ele>73.4</ele>
        <time>2026-03-27T14:15:37Z</time>
      </trkpt>
      <trkpt lat="43.48626" lon="6.58667">
        <ele>73.5</ele>
        <time>2026-03-27T14:15:38Z</time>
      </trkpt>
      <trkpt lat="43.48625" lon="6.58667">
        <ele>73.5</ele>
        <time>2026-03-27T14:15:39Z</time>
      </trkpt>
      <trkpt lat="43.48624" lon="6.58667">
        <ele>73.5</ele>
        <time>2026-03-27T14:15:40Z</time>
      </trkpt>
      <trkpt lat="43.48623" lon="6.58667">
        <ele>73.2</ele>
        <time>2026-03-27T14:15:41Z</time>
      </trkpt>
      <trkpt lat="43.48622" lon="6.58667">
        <ele>72.9</ele>
        <time>2026-03-27T14:15:42Z</time>
      </trkpt>
      <trkpt lat="43.48621" lon="6.58667">
        <ele>73</ele>
        <time>2026-03-27T14:15:43Z</time>
      </trkpt>
      <trkpt lat="43.4862" lon="6.58668">
        <ele>72.8</ele>
        <time>2026-03-27T14:15:44Z</time>
      </trkpt>
      <trkpt lat="43.48619" lon="6.58668">
        <ele>72.6</ele>
        <time>2026-03-27T14:15:45Z</time>
      </trkpt>
      <trkpt lat="43.48618" lon="6.58668">
        <ele>72.4</ele>
        <time>2026-03-27T14:15:46Z</time>
      </trkpt>
      <trkpt lat="43.48616" lon="6.58669">
        <ele>72.3</ele>
        <time>2026-03-27T14:15:47Z</time>
      </trkpt>
      <trkpt lat="43.48615" lon="6.58669">
        <ele>72.1</ele>
        <time>2026-03-27T14:15:48Z</time>
      </trkpt>
      <trkpt lat="43.48614" lon="6.5867">
        <ele>72</ele>
        <time>2026-03-27T14:15:49Z</time>
      </trkpt>
      <trkpt lat="43.48613" lon="6.58671">
        <ele>71.8</ele>
        <time>2026-03-27T14:15:50Z</time>
      </trkpt>
      <trkpt lat="43.48612" lon="6.58672">
        <ele>71.7</ele>
        <time>2026-03-27T14:15:51Z</time>
      </trkpt>
      <trkpt lat="43.48611" lon="6.58673">
        <ele>71.6</ele>
        <time>2026-03-27T14:15:52Z</time>
      </trkpt>
      <trkpt lat="43.48611" lon="6.58674">
        <ele>71.7</ele>
        <time>2026-03-27T14:15:53Z</time>
      </trkpt>
      <trkpt lat="43.4861" lon="6.58674">
        <ele>71.7</ele>
        <time>2026-03-27T14:15:54Z</time>
      </trkpt>
      <trkpt lat="43.48609" lon="6.58675">
        <ele>71.6</ele>
        <time>2026-03-27T14:15:55Z</time>
      </trkpt>
      <trkpt lat="43.48608" lon="6.58676">
        <ele>71.6</ele>
        <time>2026-03-27T14:15:56Z</time>
      </trkpt>
      <trkpt lat="43.48607" lon="6.58677">
        <ele>71.4</ele>
        <time>2026-03-27T14:15:57Z</time>
      </trkpt>
      <trkpt lat="43.48606" lon="6.58679">
        <ele>71.3</ele>
        <time>2026-03-27T14:15:58Z</time>
      </trkpt>
      <trkpt lat="43.48605" lon="6.5868">
        <ele>71.1</ele>
        <time>2026-03-27T14:15:59Z</time>
      </trkpt>
      <trkpt lat="43.48604" lon="6.58681">
        <ele>71</ele>
        <time>2026-03-27T14:16:00Z</time>
      </trkpt>
      <trkpt lat="43.48603" lon="6.58682">
        <ele>70.9</ele>
        <time>2026-03-27T14:16:01Z</time>
      </trkpt>
      <trkpt lat="43.48603" lon="6.58684">
        <ele>70.8</ele>
        <time>2026-03-27T14:16:02Z</time>
      </trkpt>
      <trkpt lat="43.48602" lon="6.58685">
        <ele>70.4</ele>
        <time>2026-03-27T14:16:03Z</time>
      </trkpt>
      <trkpt lat="43.48601" lon="6.58687">
        <ele>70.2</ele>
        <time>2026-03-27T14:16:04Z</time>
      </trkpt>
      <trkpt lat="43.486" lon="6.58689">
        <ele>70</ele>
        <time>2026-03-27T14:16:05Z</time>
      </trkpt>
      <trkpt lat="43.486" lon="6.5869">
        <ele>69.8</ele>
        <time>2026-03-27T14:16:06Z</time>
      </trkpt>
      <trkpt lat="43.48599" lon="6.58691">
        <ele>69.7</ele>
        <time>2026-03-27T14:16:07Z</time>
      </trkpt>
      <trkpt lat="43.48599" lon="6.58693">
        <ele>69.6</ele>
        <time>2026-03-27T14:16:08Z</time>
      </trkpt>
      <trkpt lat="43.48598" lon="6.58694">
        <ele>69.5</ele>
        <time>2026-03-27T14:16:09Z</time>
      </trkpt>
      <trkpt lat="43.48597" lon="6.58696">
        <ele>69.2</ele>
        <time>2026-03-27T14:16:10Z</time>
      </trkpt>
      <trkpt lat="43.48597" lon="6.58697">
        <ele>69</ele>
        <time>2026-03-27T14:16:11Z</time>
      </trkpt>
      <trkpt lat="43.48596" lon="6.58698">
        <ele>68.9</ele>
        <time>2026-03-27T14:16:12Z</time>
      </trkpt>
      <trkpt lat="43.48596" lon="6.587">
        <ele>68.7</ele>
        <time>2026-03-27T14:16:13Z</time>
      </trkpt>
      <trkpt lat="43.48596" lon="6.58701">
        <ele>68.5</ele>
        <time>2026-03-27T14:16:14Z</time>
      </trkpt>
      <trkpt lat="43.48595" lon="6.58703">
        <ele>68.4</ele>
        <time>2026-03-27T14:16:15Z</time>
      </trkpt>
      <trkpt lat="43.48595" lon="6.58704">
        <ele>68.2</ele>
        <time>2026-03-27T14:16:16Z</time>
      </trkpt>
      <trkpt lat="43.48595" lon="6.58706">
        <ele>68.1</ele>
        <time>2026-03-27T14:16:17Z</time>
      </trkpt>
      <trkpt lat="43.48595" lon="6.58707">
        <ele>67.9</ele>
        <time>2026-03-27T14:16:18Z</time>
      </trkpt>
      <trkpt lat="43.48594" lon="6.58709">
        <ele>67.8</ele>
        <time>2026-03-27T14:16:19Z</time>
      </trkpt>
      <trkpt lat="43.48594" lon="6.5871">
        <ele>67.6</ele>
        <time>2026-03-27T14:16:20Z</time>
      </trkpt>
      <trkpt lat="43.48594" lon="6.58712">
        <ele>67.5</ele>
        <time>2026-03-27T14:16:21Z</time>
      </trkpt>
      <trkpt lat="43.48593" lon="6.58713">
        <ele>67.3</ele>
        <time>2026-03-27T14:16:22Z</time>
      </trkpt>
      <trkpt lat="43.48593" lon="6.58715">
        <ele>67.1</ele>
        <time>2026-03-27T14:16:23Z</time>
      </trkpt>
      <trkpt lat="43.48593" lon="6.58716">
        <ele>67</ele>
        <time>2026-03-27T14:16:24Z</time>
      </trkpt>
      <trkpt lat="43.48593" lon="6.58717">
        <ele>66.8</ele>
        <time>2026-03-27T14:16:25Z</time>
      </trkpt>
      <trkpt lat="43.48592" lon="6.58719">
        <ele>66.7</ele>
        <time>2026-03-27T14:16:26Z</time>
      </trkpt>
      <trkpt lat="43.48592" lon="6.58721">
        <ele>66.6</ele>
        <time>2026-03-27T14:16:27Z</time>
      </trkpt>
      <trkpt lat="43.48592" lon="6.58722">
        <ele>66.4</ele>
        <time>2026-03-27T14:16:28Z</time>
      </trkpt>
      <trkpt lat="43.48592" lon="6.58724">
        <ele>66.3</ele>
        <time>2026-03-27T14:16:29Z</time>
      </trkpt>
      <trkpt lat="43.48591" lon="6.58725">
        <ele>66.2</ele>
        <time>2026-03-27T14:16:30Z</time>
      </trkpt>
      <trkpt lat="43.48591" lon="6.58727">
        <ele>66.1</ele>
        <time>2026-03-27T14:16:31Z</time>
      </trkpt>
      <trkpt lat="43.48591" lon="6.58729">
        <ele>65.9</ele>
        <time>2026-03-27T14:16:32Z</time>
      </trkpt>
      <trkpt lat="43.48591" lon="6.5873">
        <ele>65.8</ele>
        <time>2026-03-27T14:16:33Z</time>
      </trkpt>
      <trkpt lat="43.4859" lon="6.58732">
        <ele>65.7</ele>
        <time>2026-03-27T14:16:34Z</time>
      </trkpt>
      <trkpt lat="43.4859" lon="6.58733">
        <ele>65.8</ele>
        <time>2026-03-27T14:16:35Z</time>
      </trkpt>
      <trkpt lat="43.4859" lon="6.58735">
        <ele>65.8</ele>
        <time>2026-03-27T14:16:36Z</time>
      </trkpt>
      <trkpt lat="43.4859" lon="6.58736">
        <ele>65.7</ele>
        <time>2026-03-27T14:16:37Z</time>
      </trkpt>
      <trkpt lat="43.48589" lon="6.58738">
        <ele>65.5</ele>
        <time>2026-03-27T14:16:38Z</time>
      </trkpt>
      <trkpt lat="43.48589" lon="6.5874">
        <ele>65.5</ele>
        <time>2026-03-27T14:16:39Z</time>
      </trkpt>
      <trkpt lat="43.48589" lon="6.58741">
        <ele>65.4</ele>
        <time>2026-03-27T14:16:40Z</time>
      </trkpt>
      <trkpt lat="43.48589" lon="6.58743">
        <ele>65.3</ele>
        <time>2026-03-27T14:16:41Z</time>
      </trkpt>
      <trkpt lat="43.48588" lon="6.58745">
        <ele>65.2</ele>
        <time>2026-03-27T14:16:42Z</time>
      </trkpt>
      <trkpt lat="43.48588" lon="6.58746">
        <ele>65</ele>
        <time>2026-03-27T14:16:43Z</time>
      </trkpt>
      <trkpt lat="43.48588" lon="6.58748">
        <ele>64.9</ele>
        <time>2026-03-27T14:16:44Z</time>
      </trkpt>
      <trkpt lat="43.48588" lon="6.5875">
        <ele>64.8</ele>
        <time>2026-03-27T14:16:45Z</time>
      </trkpt>
      <trkpt lat="43.48588" lon="6.58751">
        <ele>64.8</ele>
        <time>2026-03-27T14:16:46Z</time>
      </trkpt>
      <trkpt lat="43.48588" lon="6.58753">
        <ele>65</ele>
        <time>2026-03-27T14:16:47Z</time>
      </trkpt>
      <trkpt lat="43.48588" lon="6.58754">
        <ele>64.9</ele>
        <time>2026-03-27T14:16:48Z</time>
      </trkpt>
      <trkpt lat="43.48588" lon="6.58756">
        <ele>64.8</ele>
        <time>2026-03-27T14:16:49Z</time>
      </trkpt>
      <trkpt lat="43.48588" lon="6.58757">
        <ele>64.8</ele>
        <time>2026-03-27T14:16:50Z</time>
      </trkpt>
      <trkpt lat="43.48588" lon="6.58759">
        <ele>64.7</ele>
        <time>2026-03-27T14:16:51Z</time>
      </trkpt>
      <trkpt lat="43.48589" lon="6.5876">
        <ele>64.6</ele>
        <time>2026-03-27T14:16:52Z</time>
      </trkpt>
      <trkpt lat="43.48589" lon="6.58762">
        <ele>64.5</ele>
        <time>2026-03-27T14:16:53Z</time>
      </trkpt>
      <trkpt lat="43.48589" lon="6.58763">
        <ele>64.4</ele>
        <time>2026-03-27T14:16:54Z</time>
      </trkpt>
      <trkpt lat="43.48589" lon="6.58765">
        <ele>64.3</ele>
        <time>2026-03-27T14:16:55Z</time>
      </trkpt>
      <trkpt lat="43.4859" lon="6.58767">
        <ele>64.2</ele>
        <time>2026-03-27T14:16:56Z</time>
      </trkpt>
      <trkpt lat="43.4859" lon="6.58768">
        <ele>64.1</ele>
        <time>2026-03-27T14:16:57Z</time>
      </trkpt>
      <trkpt lat="43.48591" lon="6.5877">
        <ele>63.9</ele>
        <time>2026-03-27T14:16:58Z</time>
      </trkpt>
      <trkpt lat="43.48592" lon="6.58771">
        <ele>63.8</ele>
        <time>2026-03-27T14:16:59Z</time>
      </trkpt>
      <trkpt lat="43.48592" lon="6.58773">
        <ele>63.9</ele>
        <time>2026-03-27T14:17:00Z</time>
      </trkpt>
      <trkpt lat="43.48593" lon="6.58774">
        <ele>63.8</ele>
        <time>2026-03-27T14:17:01Z</time>
      </trkpt>
      <trkpt lat="43.48593" lon="6.58776">
        <ele>63.7</ele>
        <time>2026-03-27T14:17:02Z</time>
      </trkpt>
      <trkpt lat="43.48594" lon="6.58777">
        <ele>63.8</ele>
        <time>2026-03-27T14:17:03Z</time>
      </trkpt>
      <trkpt lat="43.48594" lon="6.58778">
        <ele>63.8</ele>
        <time>2026-03-27T14:17:04Z</time>
      </trkpt>
      <trkpt lat="43.48595" lon="6.58778">
        <ele>63.9</ele>
        <time>2026-03-27T14:17:05Z</time>
      </trkpt>
      <trkpt lat="43.48595" lon="6.58779">
        <ele>64</ele>
        <time>2026-03-27T14:17:06Z</time>
      </trkpt>
      <trkpt lat="43.48596" lon="6.58779">
        <ele>63.9</ele>
        <time>2026-03-27T14:17:07Z</time>
      </trkpt>
      <trkpt lat="43.48596" lon="6.58779">
        <ele>63.8</ele>
        <time>2026-03-27T14:17:08Z</time>
      </trkpt>
      <trkpt lat="43.48596" lon="6.58779">
        <ele>63.8</ele>
        <time>2026-03-27T14:17:09Z</time>
      </trkpt>
      <trkpt lat="43.48596" lon="6.58779">
        <ele>63.8</ele>
        <time>2026-03-27T14:17:10Z</time>
      </trkpt>
      <trkpt lat="43.48596" lon="6.58779">
        <ele>63.9</ele>
        <time>2026-03-27T14:17:11Z</time>
      </trkpt>
      <trkpt lat="43.48596" lon="6.58779">
        <ele>64</ele>
        <time>2026-03-27T14:17:12Z</time>
      </trkpt>
      <trkpt lat="43.48595" lon="6.58779">
        <ele>64</ele>
        <time>2026-03-27T14:17:13Z</time>
      </trkpt>
      <trkpt lat="43.48595" lon="6.58779">
        <ele>64.1</ele>
        <time>2026-03-27T14:17:14Z</time>
      </trkpt>
      <trkpt lat="43.48595" lon="6.58779">
        <ele>64.1</ele>
        <time>2026-03-27T14:17:15Z</time>
      </trkpt>
      <trkpt lat="43.48595" lon="6.5878">
        <ele>64.2</ele>
        <time>2026-03-27T14:17:16Z</time>
      </trkpt>
      <trkpt lat="43.48596" lon="6.58779">
        <ele>64.3</ele>
        <time>2026-03-27T14:17:17Z</time>
      </trkpt>
      <trkpt lat="43.48596" lon="6.58779">
        <ele>64.4</ele>
        <time>2026-03-27T14:17:18Z</time>
      </trkpt>
      <trkpt lat="43.48596" lon="6.58779">
        <ele>64.4</ele>
        <time>2026-03-27T14:17:19Z</time>
      </trkpt>
      <trkpt lat="43.48596" lon="6.58779">
        <ele>64.5</ele>
        <time>2026-03-27T14:17:20Z</time>
      </trkpt>
      <trkpt lat="43.48596" lon="6.58779">
        <ele>64.3</ele>
        <time>2026-03-27T14:17:21Z</time>
      </trkpt>
      <trkpt lat="43.48596" lon="6.58779">
        <ele>64.3</ele>
        <time>2026-03-27T14:17:22Z</time>
      </trkpt>
      <trkpt lat="43.48596" lon="6.58779">
        <ele>64.3</ele>
        <time>2026-03-27T14:17:23Z</time>
      </trkpt>
      <trkpt lat="43.48596" lon="6.58779">
        <ele>64.2</ele>
        <time>2026-03-27T14:17:24Z</time>
      </trkpt>
      <trkpt lat="43.48596" lon="6.58779">
        <ele>64.2</ele>
        <time>2026-03-27T14:17:25Z</time>
      </trkpt>
      <trkpt lat="43.48596" lon="6.58779">
        <ele>64.2</ele>
        <time>2026-03-27T14:17:26Z</time>
      </trkpt>
      <trkpt lat="43.48596" lon="6.58779">
        <ele>64.2</ele>
        <time>2026-03-27T14:17:27Z</time>
      </trkpt>
      <trkpt lat="43.48596" lon="6.58779">
        <ele>64.3</ele>
        <time>2026-03-27T14:17:28Z</time>
      </trkpt>
      <trkpt lat="43.48596" lon="6.58779">
        <ele>64.3</ele>
        <time>2026-03-27T14:17:29Z</time>
      </trkpt>
      <trkpt lat="43.48596" lon="6.58779">
        <ele>64.4</ele>
        <time>2026-03-27T14:17:30Z</time>
      </trkpt>
      <trkpt lat="43.48596" lon="6.58779">
        <ele>64.4</ele>
        <time>2026-03-27T14:17:31Z</time>
      </trkpt>
      <trkpt lat="43.48596" lon="6.58779">
        <ele>64.3</ele>
        <time>2026-03-27T14:17:32Z</time>
      </trkpt>
      <trkpt lat="43.48596" lon="6.58779">
        <ele>64.3</ele>
        <time>2026-03-27T14:17:33Z</time>
      </trkpt>
      <trkpt lat="43.48595" lon="6.58779">
        <ele>64.4</ele>
        <time>2026-03-27T14:17:34Z</time>
      </trkpt>
      <trkpt lat="43.48595" lon="6.5878">
        <ele>64.5</ele>
        <time>2026-03-27T14:17:35Z</time>
      </trkpt>
      <trkpt lat="43.48593" lon="6.58781">
        <ele>64.6</ele>
        <time>2026-03-27T14:17:36Z</time>
      </trkpt>
      <trkpt lat="43.48593" lon="6.58782">
        <ele>64.8</ele>
        <time>2026-03-27T14:17:37Z</time>
      </trkpt>
      <trkpt lat="43.48592" lon="6.58784">
        <ele>64.4</ele>
        <time>2026-03-27T14:17:38Z</time>
      </trkpt>
      <trkpt lat="43.48592" lon="6.58785">
        <ele>64</ele>
        <time>2026-03-27T14:17:39Z</time>
      </trkpt>
      <trkpt lat="43.48592" lon="6.58787">
        <ele>63.8</ele>
        <time>2026-03-27T14:17:40Z</time>
      </trkpt>
      <trkpt lat="43.48592" lon="6.58788">
        <ele>63.5</ele>
        <time>2026-03-27T14:17:41Z</time>
      </trkpt>
      <trkpt lat="43.48592" lon="6.5879">
        <ele>63.3</ele>
        <time>2026-03-27T14:17:42Z</time>
      </trkpt>
      <trkpt lat="43.48592" lon="6.58791">
        <ele>63.1</ele>
        <time>2026-03-27T14:17:43Z</time>
      </trkpt>
      <trkpt lat="43.48592" lon="6.58793">
        <ele>62.7</ele>
        <time>2026-03-27T14:17:44Z</time>
      </trkpt>
      <trkpt lat="43.48592" lon="6.58795">
        <ele>62.4</ele>
        <time>2026-03-27T14:17:45Z</time>
      </trkpt>
      <trkpt lat="43.48591" lon="6.58797">
        <ele>62.3</ele>
        <time>2026-03-27T14:17:46Z</time>
      </trkpt>
      <trkpt lat="43.48591" lon="6.58798">
        <ele>62.1</ele>
        <time>2026-03-27T14:17:47Z</time>
      </trkpt>
      <trkpt lat="43.48591" lon="6.588">
        <ele>62.1</ele>
        <time>2026-03-27T14:17:48Z</time>
      </trkpt>
      <trkpt lat="43.48591" lon="6.58802">
        <ele>62</ele>
        <time>2026-03-27T14:17:49Z</time>
      </trkpt>
      <trkpt lat="43.48591" lon="6.58803">
        <ele>62</ele>
        <time>2026-03-27T14:17:50Z</time>
      </trkpt>
      <trkpt lat="43.48591" lon="6.58805">
        <ele>61.9</ele>
        <time>2026-03-27T14:17:51Z</time>
      </trkpt>
      <trkpt lat="43.48591" lon="6.58806">
        <ele>61.8</ele>
        <time>2026-03-27T14:17:52Z</time>
      </trkpt>
      <trkpt lat="43.48591" lon="6.58807">
        <ele>61.8</ele>
        <time>2026-03-27T14:17:53Z</time>
      </trkpt>
      <trkpt lat="43.4859" lon="6.58809">
        <ele>61.8</ele>
        <time>2026-03-27T14:17:54Z</time>
      </trkpt>
      <trkpt lat="43.4859" lon="6.58811">
        <ele>61.6</ele>
        <time>2026-03-27T14:17:55Z</time>
      </trkpt>
      <trkpt lat="43.4859" lon="6.58812">
        <ele>61.7</ele>
        <time>2026-03-27T14:17:56Z</time>
      </trkpt>
      <trkpt lat="43.4859" lon="6.58814">
        <ele>61.8</ele>
        <time>2026-03-27T14:17:57Z</time>
      </trkpt>
      <trkpt lat="43.48589" lon="6.58816">
        <ele>61.7</ele>
        <time>2026-03-27T14:17:58Z</time>
      </trkpt>
      <trkpt lat="43.48589" lon="6.58817">
        <ele>61.6</ele>
        <time>2026-03-27T14:17:59Z</time>
      </trkpt>
      <trkpt lat="43.48589" lon="6.58819">
        <ele>61.4</ele>
        <time>2026-03-27T14:18:00Z</time>
      </trkpt>
      <trkpt lat="43.48588" lon="6.58821">
        <ele>61.4</ele>
        <time>2026-03-27T14:18:01Z</time>
      </trkpt>
      <trkpt lat="43.48588" lon="6.58823">
        <ele>61.5</ele>
        <time>2026-03-27T14:18:02Z</time>
      </trkpt>
      <trkpt lat="43.48587" lon="6.58824">
        <ele>60.9</ele>
        <time>2026-03-27T14:18:03Z</time>
      </trkpt>
      <trkpt lat="43.48587" lon="6.58825">
        <ele>60.8</ele>
        <time>2026-03-27T14:18:04Z</time>
      </trkpt>
      <trkpt lat="43.48586" lon="6.58827">
        <ele>60.6</ele>
        <time>2026-03-27T14:18:05Z</time>
      </trkpt>
      <trkpt lat="43.48586" lon="6.58828">
        <ele>60.5</ele>
        <time>2026-03-27T14:18:06Z</time>
      </trkpt>
      <trkpt lat="43.48585" lon="6.5883">
        <ele>60.5</ele>
        <time>2026-03-27T14:18:07Z</time>
      </trkpt>
      <trkpt lat="43.48584" lon="6.58831">
        <ele>60.6</ele>
        <time>2026-03-27T14:18:08Z</time>
      </trkpt>
      <trkpt lat="43.48584" lon="6.58833">
        <ele>60.5</ele>
        <time>2026-03-27T14:18:09Z</time>
      </trkpt>
      <trkpt lat="43.48583" lon="6.58834">
        <ele>60.5</ele>
        <time>2026-03-27T14:18:10Z</time>
      </trkpt>
      <trkpt lat="43.48583" lon="6.58835">
        <ele>60.4</ele>
        <time>2026-03-27T14:18:11Z</time>
      </trkpt>
      <trkpt lat="43.48582" lon="6.58837">
        <ele>60.3</ele>
        <time>2026-03-27T14:18:12Z</time>
      </trkpt>
      <trkpt lat="43.48581" lon="6.58838">
        <ele>60.3</ele>
        <time>2026-03-27T14:18:13Z</time>
      </trkpt>
      <trkpt lat="43.4858" lon="6.5884">
        <ele>60.1</ele>
        <time>2026-03-27T14:18:14Z</time>
      </trkpt>
      <trkpt lat="43.4858" lon="6.58841">
        <ele>60</ele>
        <time>2026-03-27T14:18:15Z</time>
      </trkpt>
      <trkpt lat="43.48579" lon="6.58842">
        <ele>59.9</ele>
        <time>2026-03-27T14:18:16Z</time>
      </trkpt>
      <trkpt lat="43.48578" lon="6.58844">
        <ele>59.8</ele>
        <time>2026-03-27T14:18:17Z</time>
      </trkpt>
      <trkpt lat="43.48578" lon="6.58844">
        <ele>59.8</ele>
        <time>2026-03-27T14:18:18Z</time>
      </trkpt>
      <trkpt lat="43.48577" lon="6.58845">
        <ele>59.7</ele>
        <time>2026-03-27T14:18:19Z</time>
      </trkpt>
      <trkpt lat="43.48576" lon="6.58847">
        <ele>59.6</ele>
        <time>2026-03-27T14:18:20Z</time>
      </trkpt>
      <trkpt lat="43.48575" lon="6.58848">
        <ele>59.6</ele>
        <time>2026-03-27T14:18:21Z</time>
      </trkpt>
      <trkpt lat="43.48574" lon="6.58849">
        <ele>59.5</ele>
        <time>2026-03-27T14:18:22Z</time>
      </trkpt>
      <trkpt lat="43.48573" lon="6.5885">
        <ele>59.4</ele>
        <time>2026-03-27T14:18:23Z</time>
      </trkpt>
      <trkpt lat="43.48572" lon="6.58851">
        <ele>59.4</ele>
        <time>2026-03-27T14:18:24Z</time>
      </trkpt>
      <trkpt lat="43.48571" lon="6.58853">
        <ele>59.3</ele>
        <time>2026-03-27T14:18:25Z</time>
      </trkpt>
      <trkpt lat="43.48571" lon="6.58854">
        <ele>59.3</ele>
        <time>2026-03-27T14:18:26Z</time>
      </trkpt>
      <trkpt lat="43.4857" lon="6.58856">
        <ele>59.3</ele>
        <time>2026-03-27T14:18:27Z</time>
      </trkpt>
      <trkpt lat="43.48569" lon="6.58857">
        <ele>59.1</ele>
        <time>2026-03-27T14:18:28Z</time>
      </trkpt>
      <trkpt lat="43.48569" lon="6.58858">
        <ele>59</ele>
        <time>2026-03-27T14:18:29Z</time>
      </trkpt>
      <trkpt lat="43.48567" lon="6.58859">
        <ele>58.8</ele>
        <time>2026-03-27T14:18:30Z</time>
      </trkpt>
      <trkpt lat="43.48567" lon="6.5886">
        <ele>58.6</ele>
        <time>2026-03-27T14:18:31Z</time>
      </trkpt>
      <trkpt lat="43.48566" lon="6.58861">
        <ele>58.5</ele>
        <time>2026-03-27T14:18:32Z</time>
      </trkpt>
      <trkpt lat="43.48566" lon="6.58862">
        <ele>58.3</ele>
        <time>2026-03-27T14:18:33Z</time>
      </trkpt>
      <trkpt lat="43.48565" lon="6.58863">
        <ele>58.2</ele>
        <time>2026-03-27T14:18:34Z</time>
      </trkpt>
      <trkpt lat="43.48564" lon="6.58864">
        <ele>58.2</ele>
        <time>2026-03-27T14:18:35Z</time>
      </trkpt>
      <trkpt lat="43.48563" lon="6.58865">
        <ele>58.1</ele>
        <time>2026-03-27T14:18:36Z</time>
      </trkpt>
      <trkpt lat="43.48562" lon="6.58867">
        <ele>57.8</ele>
        <time>2026-03-27T14:18:37Z</time>
      </trkpt>
      <trkpt lat="43.48561" lon="6.58868">
        <ele>57.7</ele>
        <time>2026-03-27T14:18:38Z</time>
      </trkpt>
      <trkpt lat="43.48561" lon="6.58869">
        <ele>57.6</ele>
        <time>2026-03-27T14:18:39Z</time>
      </trkpt>
      <trkpt lat="43.4856" lon="6.5887">
        <ele>57.4</ele>
        <time>2026-03-27T14:18:40Z</time>
      </trkpt>
      <trkpt lat="43.48559" lon="6.58872">
        <ele>57.3</ele>
        <time>2026-03-27T14:18:41Z</time>
      </trkpt>
      <trkpt lat="43.48559" lon="6.58873">
        <ele>57.2</ele>
        <time>2026-03-27T14:18:42Z</time>
      </trkpt>
      <trkpt lat="43.48558" lon="6.58875">
        <ele>57</ele>
        <time>2026-03-27T14:18:43Z</time>
      </trkpt>
      <trkpt lat="43.48558" lon="6.58876">
        <ele>57</ele>
        <time>2026-03-27T14:18:44Z</time>
      </trkpt>
      <trkpt lat="43.48557" lon="6.58877">
        <ele>56.9</ele>
        <time>2026-03-27T14:18:45Z</time>
      </trkpt>
      <trkpt lat="43.48557" lon="6.58879">
        <ele>56.9</ele>
        <time>2026-03-27T14:18:46Z</time>
      </trkpt>
      <trkpt lat="43.48556" lon="6.58881">
        <ele>56.8</ele>
        <time>2026-03-27T14:18:47Z</time>
      </trkpt>
      <trkpt lat="43.48556" lon="6.58882">
        <ele>57</ele>
        <time>2026-03-27T14:18:48Z</time>
      </trkpt>
      <trkpt lat="43.48556" lon="6.58884">
        <ele>56.9</ele>
        <time>2026-03-27T14:18:49Z</time>
      </trkpt>
      <trkpt lat="43.48555" lon="6.58885">
        <ele>56.5</ele>
        <time>2026-03-27T14:18:50Z</time>
      </trkpt>
      <trkpt lat="43.48555" lon="6.58886">
        <ele>56.3</ele>
        <time>2026-03-27T14:18:51Z</time>
      </trkpt>
      <trkpt lat="43.48555" lon="6.58888">
        <ele>56.2</ele>
        <time>2026-03-27T14:18:52Z</time>
      </trkpt>
      <trkpt lat="43.48555" lon="6.5889">
        <ele>56.1</ele>
        <time>2026-03-27T14:18:53Z</time>
      </trkpt>
      <trkpt lat="43.48555" lon="6.58891">
        <ele>55.9</ele>
        <time>2026-03-27T14:18:54Z</time>
      </trkpt>
      <trkpt lat="43.48555" lon="6.58893">
        <ele>55.8</ele>
        <time>2026-03-27T14:18:55Z</time>
      </trkpt>
      <trkpt lat="43.48555" lon="6.58895">
        <ele>55.8</ele>
        <time>2026-03-27T14:18:56Z</time>
      </trkpt>
      <trkpt lat="43.48555" lon="6.58897">
        <ele>55.8</ele>
        <time>2026-03-27T14:18:57Z</time>
      </trkpt>
      <trkpt lat="43.48555" lon="6.58899">
        <ele>55.8</ele>
        <time>2026-03-27T14:18:58Z</time>
      </trkpt>
      <trkpt lat="43.48554" lon="6.589">
        <ele>55.8</ele>
        <time>2026-03-27T14:18:59Z</time>
      </trkpt>
      <trkpt lat="43.48554" lon="6.58902">
        <ele>55.8</ele>
        <time>2026-03-27T14:19:00Z</time>
      </trkpt>
      <trkpt lat="43.48554" lon="6.58904">
        <ele>55.7</ele>
        <time>2026-03-27T14:19:01Z</time>
      </trkpt>
      <trkpt lat="43.48555" lon="6.58905">
        <ele>55.6</ele>
        <time>2026-03-27T14:19:02Z</time>
      </trkpt>
      <trkpt lat="43.48555" lon="6.58907">
        <ele>55.6</ele>
        <time>2026-03-27T14:19:03Z</time>
      </trkpt>
      <trkpt lat="43.48555" lon="6.58909">
        <ele>55.6</ele>
        <time>2026-03-27T14:19:04Z</time>
      </trkpt>
      <trkpt lat="43.48556" lon="6.5891">
        <ele>55.5</ele>
        <time>2026-03-27T14:19:05Z</time>
      </trkpt>
      <trkpt lat="43.48556" lon="6.58912">
        <ele>55.3</ele>
        <time>2026-03-27T14:19:06Z</time>
      </trkpt>
      <trkpt lat="43.48556" lon="6.58913">
        <ele>55.2</ele>
        <time>2026-03-27T14:19:07Z</time>
      </trkpt>
      <trkpt lat="43.48556" lon="6.58915">
        <ele>55.2</ele>
        <time>2026-03-27T14:19:08Z</time>
      </trkpt>
      <trkpt lat="43.48556" lon="6.58917">
        <ele>55.2</ele>
        <time>2026-03-27T14:19:09Z</time>
      </trkpt>
      <trkpt lat="43.48556" lon="6.58918">
        <ele>55.1</ele>
        <time>2026-03-27T14:19:10Z</time>
      </trkpt>
      <trkpt lat="43.48556" lon="6.5892">
        <ele>55</ele>
        <time>2026-03-27T14:19:11Z</time>
      </trkpt>
      <trkpt lat="43.48556" lon="6.58922">
        <ele>54.8</ele>
        <time>2026-03-27T14:19:12Z</time>
      </trkpt>
      <trkpt lat="43.48557" lon="6.58924">
        <ele>54.7</ele>
        <time>2026-03-27T14:19:13Z</time>
      </trkpt>
      <trkpt lat="43.48557" lon="6.58926">
        <ele>54.6</ele>
        <time>2026-03-27T14:19:14Z</time>
      </trkpt>
      <trkpt lat="43.48557" lon="6.58928">
        <ele>54.6</ele>
        <time>2026-03-27T14:19:15Z</time>
      </trkpt>
      <trkpt lat="43.48557" lon="6.58929">
        <ele>54.3</ele>
        <time>2026-03-27T14:19:16Z</time>
      </trkpt>
      <trkpt lat="43.48557" lon="6.58931">
        <ele>54.1</ele>
        <time>2026-03-27T14:19:17Z</time>
      </trkpt>
      <trkpt lat="43.48557" lon="6.58933">
        <ele>54.1</ele>
        <time>2026-03-27T14:19:18Z</time>
      </trkpt>
      <trkpt lat="43.48558" lon="6.58935">
        <ele>54.1</ele>
        <time>2026-03-27T14:19:19Z</time>
      </trkpt>
      <trkpt lat="43.48558" lon="6.58937">
        <ele>54</ele>
        <time>2026-03-27T14:19:20Z</time>
      </trkpt>
      <trkpt lat="43.48558" lon="6.58939">
        <ele>53.9</ele>
        <time>2026-03-27T14:19:21Z</time>
      </trkpt>
      <trkpt lat="43.48558" lon="6.58941">
        <ele>53.1</ele>
        <time>2026-03-27T14:19:22Z</time>
      </trkpt>
      <trkpt lat="43.48558" lon="6.58943">
        <ele>53.1</ele>
        <time>2026-03-27T14:19:23Z</time>
      </trkpt>
      <trkpt lat="43.48558" lon="6.58945">
        <ele>53.2</ele>
        <time>2026-03-27T14:19:24Z</time>
      </trkpt>
      <trkpt lat="43.48558" lon="6.58947">
        <ele>53.3</ele>
        <time>2026-03-27T14:19:25Z</time>
      </trkpt>
      <trkpt lat="43.48557" lon="6.58949">
        <ele>53.3</ele>
        <time>2026-03-27T14:19:26Z</time>
      </trkpt>
      <trkpt lat="43.48557" lon="6.58951">
        <ele>53.2</ele>
        <time>2026-03-27T14:19:27Z</time>
      </trkpt>
      <trkpt lat="43.48556" lon="6.58952">
        <ele>53.1</ele>
        <time>2026-03-27T14:19:28Z</time>
      </trkpt>
      <trkpt lat="43.48556" lon="6.58954">
        <ele>53</ele>
        <time>2026-03-27T14:19:29Z</time>
      </trkpt>
      <trkpt lat="43.48556" lon="6.58956">
        <ele>53</ele>
        <time>2026-03-27T14:19:30Z</time>
      </trkpt>
      <trkpt lat="43.48556" lon="6.58957">
        <ele>53</ele>
        <time>2026-03-27T14:19:31Z</time>
      </trkpt>
      <trkpt lat="43.48556" lon="6.58959">
        <ele>53</ele>
        <time>2026-03-27T14:19:32Z</time>
      </trkpt>
      <trkpt lat="43.48556" lon="6.58961">
        <ele>52.9</ele>
        <time>2026-03-27T14:19:33Z</time>
      </trkpt>
      <trkpt lat="43.48555" lon="6.58962">
        <ele>52.9</ele>
        <time>2026-03-27T14:19:34Z</time>
      </trkpt>
      <trkpt lat="43.48555" lon="6.58963">
        <ele>52.8</ele>
        <time>2026-03-27T14:19:35Z</time>
      </trkpt>
      <trkpt lat="43.48555" lon="6.58965">
        <ele>52.7</ele>
        <time>2026-03-27T14:19:36Z</time>
      </trkpt>
      <trkpt lat="43.48554" lon="6.58967">
        <ele>52.7</ele>
        <time>2026-03-27T14:19:37Z</time>
      </trkpt>
      <trkpt lat="43.48554" lon="6.58969">
        <ele>52.6</ele>
        <time>2026-03-27T14:19:38Z</time>
      </trkpt>
      <trkpt lat="43.48554" lon="6.58971">
        <ele>52.6</ele>
        <time>2026-03-27T14:19:39Z</time>
      </trkpt>
      <trkpt lat="43.48554" lon="6.58973">
        <ele>52.6</ele>
        <time>2026-03-27T14:19:40Z</time>
      </trkpt>
      <trkpt lat="43.48554" lon="6.58974">
        <ele>52.6</ele>
        <time>2026-03-27T14:19:41Z</time>
      </trkpt>
      <trkpt lat="43.48554" lon="6.58976">
        <ele>52.5</ele>
        <time>2026-03-27T14:19:42Z</time>
      </trkpt>
      <trkpt lat="43.48554" lon="6.58977">
        <ele>52.5</ele>
        <time>2026-03-27T14:19:43Z</time>
      </trkpt>
      <trkpt lat="43.48553" lon="6.58979">
        <ele>52.4</ele>
        <time>2026-03-27T14:19:44Z</time>
      </trkpt>
      <trkpt lat="43.48553" lon="6.58981">
        <ele>52.3</ele>
        <time>2026-03-27T14:19:45Z</time>
      </trkpt>
      <trkpt lat="43.48553" lon="6.58983">
        <ele>52.1</ele>
        <time>2026-03-27T14:19:46Z</time>
      </trkpt>
      <trkpt lat="43.48553" lon="6.58985">
        <ele>52</ele>
        <time>2026-03-27T14:19:47Z</time>
      </trkpt>
      <trkpt lat="43.48553" lon="6.58987">
        <ele>51.9</ele>
        <time>2026-03-27T14:19:48Z</time>
      </trkpt>
      <trkpt lat="43.48553" lon="6.58988">
        <ele>51.8</ele>
        <time>2026-03-27T14:19:49Z</time>
      </trkpt>
      <trkpt lat="43.48553" lon="6.5899">
        <ele>51.7</ele>
        <time>2026-03-27T14:19:50Z</time>
      </trkpt>
      <trkpt lat="43.48553" lon="6.58992">
        <ele>51.6</ele>
        <time>2026-03-27T14:19:51Z</time>
      </trkpt>
      <trkpt lat="43.48553" lon="6.58993">
        <ele>51.4</ele>
        <time>2026-03-27T14:19:52Z</time>
      </trkpt>
      <trkpt lat="43.48554" lon="6.58995">
        <ele>51.4</ele>
        <time>2026-03-27T14:19:53Z</time>
      </trkpt>
      <trkpt lat="43.48554" lon="6.58996">
        <ele>51.4</ele>
        <time>2026-03-27T14:19:54Z</time>
      </trkpt>
      <trkpt lat="43.48554" lon="6.58998">
        <ele>51.3</ele>
        <time>2026-03-27T14:19:55Z</time>
      </trkpt>
      <trkpt lat="43.48554" lon="6.59">
        <ele>51.1</ele>
        <time>2026-03-27T14:19:56Z</time>
      </trkpt>
      <trkpt lat="43.48554" lon="6.59001">
        <ele>51</ele>
        <time>2026-03-27T14:19:57Z</time>
      </trkpt>
      <trkpt lat="43.48554" lon="6.59002">
        <ele>50.9</ele>
        <time>2026-03-27T14:19:58Z</time>
      </trkpt>
      <trkpt lat="43.48554" lon="6.59004">
        <ele>50.7</ele>
        <time>2026-03-27T14:19:59Z</time>
      </trkpt>
      <trkpt lat="43.48554" lon="6.59005">
        <ele>50.5</ele>
        <time>2026-03-27T14:20:00Z</time>
      </trkpt>
      <trkpt lat="43.48554" lon="6.59007">
        <ele>50.4</ele>
        <time>2026-03-27T14:20:01Z</time>
      </trkpt>
      <trkpt lat="43.48554" lon="6.59009">
        <ele>50.2</ele>
        <time>2026-03-27T14:20:02Z</time>
      </trkpt>
      <trkpt lat="43.48554" lon="6.59011">
        <ele>50.2</ele>
        <time>2026-03-27T14:20:03Z</time>
      </trkpt>
      <trkpt lat="43.48554" lon="6.59013">
        <ele>50.1</ele>
        <time>2026-03-27T14:20:04Z</time>
      </trkpt>
      <trkpt lat="43.48555" lon="6.59015">
        <ele>50</ele>
        <time>2026-03-27T14:20:05Z</time>
      </trkpt>
      <trkpt lat="43.48555" lon="6.59017">
        <ele>49.9</ele>
        <time>2026-03-27T14:20:06Z</time>
      </trkpt>
      <trkpt lat="43.48556" lon="6.59019">
        <ele>49.7</ele>
        <time>2026-03-27T14:20:07Z</time>
      </trkpt>
      <trkpt lat="43.48556" lon="6.5902">
        <ele>49.5</ele>
        <time>2026-03-27T14:20:08Z</time>
      </trkpt>
      <trkpt lat="43.48557" lon="6.59022">
        <ele>49.4</ele>
        <time>2026-03-27T14:20:09Z</time>
      </trkpt>
      <trkpt lat="43.48557" lon="6.59023">
        <ele>49.3</ele>
        <time>2026-03-27T14:20:10Z</time>
      </trkpt>
      <trkpt lat="43.48558" lon="6.59024">
        <ele>49.2</ele>
        <time>2026-03-27T14:20:11Z</time>
      </trkpt>
      <trkpt lat="43.48558" lon="6.59025">
        <ele>49.1</ele>
        <time>2026-03-27T14:20:12Z</time>
      </trkpt>
      <trkpt lat="43.48558" lon="6.59027">
        <ele>49</ele>
        <time>2026-03-27T14:20:13Z</time>
      </trkpt>
      <trkpt lat="43.48559" lon="6.59028">
        <ele>48.9</ele>
        <time>2026-03-27T14:20:14Z</time>
      </trkpt>
      <trkpt lat="43.4856" lon="6.59029">
        <ele>48.9</ele>
        <time>2026-03-27T14:20:15Z</time>
      </trkpt>
      <trkpt lat="43.4856" lon="6.59031">
        <ele>48.7</ele>
        <time>2026-03-27T14:20:16Z</time>
      </trkpt>
      <trkpt lat="43.48561" lon="6.59032">
        <ele>48.6</ele>
        <time>2026-03-27T14:20:17Z</time>
      </trkpt>
      <trkpt lat="43.48562" lon="6.59033">
        <ele>48.5</ele>
        <time>2026-03-27T14:20:18Z</time>
      </trkpt>
      <trkpt lat="43.48562" lon="6.59034">
        <ele>48.4</ele>
        <time>2026-03-27T14:20:19Z</time>
      </trkpt>
      <trkpt lat="43.48563" lon="6.59036">
        <ele>48.2</ele>
        <time>2026-03-27T14:20:20Z</time>
      </trkpt>
      <trkpt lat="43.48564" lon="6.59037">
        <ele>48.1</ele>
        <time>2026-03-27T14:20:21Z</time>
      </trkpt>
      <trkpt lat="43.48565" lon="6.59038">
        <ele>47.9</ele>
        <time>2026-03-27T14:20:22Z</time>
      </trkpt>
      <trkpt lat="43.48566" lon="6.59038">
        <ele>47.8</ele>
        <time>2026-03-27T14:20:23Z</time>
      </trkpt>
      <trkpt lat="43.48566" lon="6.59039">
        <ele>47.7</ele>
        <time>2026-03-27T14:20:24Z</time>
      </trkpt>
      <trkpt lat="43.48567" lon="6.5904">
        <ele>47.6</ele>
        <time>2026-03-27T14:20:25Z</time>
      </trkpt>
      <trkpt lat="43.48568" lon="6.59042">
        <ele>47.5</ele>
        <time>2026-03-27T14:20:26Z</time>
      </trkpt>
      <trkpt lat="43.48569" lon="6.59042">
        <ele>47.4</ele>
        <time>2026-03-27T14:20:27Z</time>
      </trkpt>
      <trkpt lat="43.4857" lon="6.59043">
        <ele>47.3</ele>
        <time>2026-03-27T14:20:28Z</time>
      </trkpt>
      <trkpt lat="43.48571" lon="6.59044">
        <ele>47.3</ele>
        <time>2026-03-27T14:20:29Z</time>
      </trkpt>
      <trkpt lat="43.48572" lon="6.59044">
        <ele>47.2</ele>
        <time>2026-03-27T14:20:30Z</time>
      </trkpt>
      <trkpt lat="43.48572" lon="6.59044">
        <ele>47.1</ele>
        <time>2026-03-27T14:20:31Z</time>
      </trkpt>
      <trkpt lat="43.48572" lon="6.59044">
        <ele>47.1</ele>
        <time>2026-03-27T14:20:32Z</time>
      </trkpt>
      <trkpt lat="43.48572" lon="6.59044">
        <ele>47</ele>
        <time>2026-03-27T14:20:33Z</time>
      </trkpt>
      <trkpt lat="43.48572" lon="6.59044">
        <ele>47</ele>
        <time>2026-03-27T14:20:34Z</time>
      </trkpt>
      <trkpt lat="43.48573" lon="6.59044">
        <ele>46.9</ele>
        <time>2026-03-27T14:20:35Z</time>
      </trkpt>
      <trkpt lat="43.48573" lon="6.59044">
        <ele>46.8</ele>
        <time>2026-03-27T14:20:36Z</time>
      </trkpt>
      <trkpt lat="43.48573" lon="6.59044">
        <ele>46.7</ele>
        <time>2026-03-27T14:20:37Z</time>
      </trkpt>
      <trkpt lat="43.48573" lon="6.59044">
        <ele>46.7</ele>
        <time>2026-03-27T14:20:38Z</time>
      </trkpt>
      <trkpt lat="43.48574" lon="6.59044">
        <ele>46.8</ele>
        <time>2026-03-27T14:20:39Z</time>
      </trkpt>
      <trkpt lat="43.48574" lon="6.59044">
        <ele>46.8</ele>
        <time>2026-03-27T14:20:40Z</time>
      </trkpt>
      <trkpt lat="43.48574" lon="6.59045">
        <ele>46.8</ele>
        <time>2026-03-27T14:20:41Z</time>
      </trkpt>
      <trkpt lat="43.48574" lon="6.59045">
        <ele>46.6</ele>
        <time>2026-03-27T14:20:42Z</time>
      </trkpt>
      <trkpt lat="43.48575" lon="6.59045">
        <ele>46.6</ele>
        <time>2026-03-27T14:20:43Z</time>
      </trkpt>
      <trkpt lat="43.48576" lon="6.59045">
        <ele>46.6</ele>
        <time>2026-03-27T14:20:44Z</time>
      </trkpt>
      <trkpt lat="43.48576" lon="6.59045">
        <ele>46.7</ele>
        <time>2026-03-27T14:20:45Z</time>
      </trkpt>
      <trkpt lat="43.48577" lon="6.59046">
        <ele>46.7</ele>
        <time>2026-03-27T14:20:46Z</time>
      </trkpt>
      <trkpt lat="43.48577" lon="6.59046">
        <ele>46.8</ele>
        <time>2026-03-27T14:20:47Z</time>
      </trkpt>
      <trkpt lat="43.48577" lon="6.59047">
        <ele>46.9</ele>
        <time>2026-03-27T14:20:48Z</time>
      </trkpt>
      <trkpt lat="43.48577" lon="6.59048">
        <ele>46.8</ele>
        <time>2026-03-27T14:20:49Z</time>
      </trkpt>
      <trkpt lat="43.48577" lon="6.59048">
        <ele>46.7</ele>
        <time>2026-03-27T14:20:50Z</time>
      </trkpt>
      <trkpt lat="43.48577" lon="6.59048">
        <ele>46.7</ele>
        <time>2026-03-27T14:20:51Z</time>
      </trkpt>
      <trkpt lat="43.48577" lon="6.59048">
        <ele>46.6</ele>
        <time>2026-03-27T14:20:52Z</time>
      </trkpt>
      <trkpt lat="43.48577" lon="6.59048">
        <ele>46.5</ele>
        <time>2026-03-27T14:20:53Z</time>
      </trkpt>
      <trkpt lat="43.48577" lon="6.59048">
        <ele>46.5</ele>
        <time>2026-03-27T14:20:54Z</time>
      </trkpt>
      <trkpt lat="43.48577" lon="6.59048">
        <ele>46.5</ele>
        <time>2026-03-27T14:20:55Z</time>
      </trkpt>
      <trkpt lat="43.48578" lon="6.59049">
        <ele>46.4</ele>
        <time>2026-03-27T14:20:56Z</time>
      </trkpt>
      <trkpt lat="43.48579" lon="6.59048">
        <ele>46.4</ele>
        <time>2026-03-27T14:20:57Z</time>
      </trkpt>
      <trkpt lat="43.4858" lon="6.59049">
        <ele>46.4</ele>
        <time>2026-03-27T14:20:58Z</time>
      </trkpt>
      <trkpt lat="43.48581" lon="6.59049">
        <ele>46.3</ele>
        <time>2026-03-27T14:20:59Z</time>
      </trkpt>
      <trkpt lat="43.48582" lon="6.5905">
        <ele>46.3</ele>
        <time>2026-03-27T14:21:00Z</time>
      </trkpt>
      <trkpt lat="43.48583" lon="6.59051">
        <ele>46.3</ele>
        <time>2026-03-27T14:21:01Z</time>
      </trkpt>
      <trkpt lat="43.48583" lon="6.5905">
        <ele>46.3</ele>
        <time>2026-03-27T14:21:02Z</time>
      </trkpt>
      <trkpt lat="43.48584" lon="6.59051">
        <ele>46.3</ele>
        <time>2026-03-27T14:21:03Z</time>
      </trkpt>
      <trkpt lat="43.48584" lon="6.59051">
        <ele>46.3</ele>
        <time>2026-03-27T14:21:04Z</time>
      </trkpt>
      <trkpt lat="43.48585" lon="6.59052">
        <ele>46.3</ele>
        <time>2026-03-27T14:21:05Z</time>
      </trkpt>
      <trkpt lat="43.48586" lon="6.59052">
        <ele>46.3</ele>
        <time>2026-03-27T14:21:06Z</time>
      </trkpt>
      <trkpt lat="43.48587" lon="6.59052">
        <ele>46.3</ele>
        <time>2026-03-27T14:21:07Z</time>
      </trkpt>
      <trkpt lat="43.48587" lon="6.59052">
        <ele>46.2</ele>
        <time>2026-03-27T14:21:08Z</time>
      </trkpt>
      <trkpt lat="43.48588" lon="6.59053">
        <ele>46.2</ele>
        <time>2026-03-27T14:21:09Z</time>
      </trkpt>
      <trkpt lat="43.48589" lon="6.59054">
        <ele>46.1</ele>
        <time>2026-03-27T14:21:10Z</time>
      </trkpt>
      <trkpt lat="43.4859" lon="6.59055">
        <ele>46</ele>
        <time>2026-03-27T14:21:11Z</time>
      </trkpt>
      <trkpt lat="43.4859" lon="6.59057">
        <ele>45.9</ele>
        <time>2026-03-27T14:21:12Z</time>
      </trkpt>
      <trkpt lat="43.48591" lon="6.59057">
        <ele>45.8</ele>
        <time>2026-03-27T14:21:13Z</time>
      </trkpt>
      <trkpt lat="43.48592" lon="6.59058">
        <ele>45.8</ele>
        <time>2026-03-27T14:21:14Z</time>
      </trkpt>
      <trkpt lat="43.48593" lon="6.59058">
        <ele>45.7</ele>
        <time>2026-03-27T14:21:15Z</time>
      </trkpt>
      <trkpt lat="43.48594" lon="6.59059">
        <ele>45.6</ele>
        <time>2026-03-27T14:21:16Z</time>
      </trkpt>
      <trkpt lat="43.48595" lon="6.59061">
        <ele>45.6</ele>
        <time>2026-03-27T14:21:17Z</time>
      </trkpt>
      <trkpt lat="43.48596" lon="6.59062">
        <ele>45.5</ele>
        <time>2026-03-27T14:21:18Z</time>
      </trkpt>
      <trkpt lat="43.48597" lon="6.59063">
        <ele>45.4</ele>
        <time>2026-03-27T14:21:19Z</time>
      </trkpt>
      <trkpt lat="43.48597" lon="6.59064">
        <ele>45.5</ele>
        <time>2026-03-27T14:21:20Z</time>
      </trkpt>
      <trkpt lat="43.48598" lon="6.59065">
        <ele>45.4</ele>
        <time>2026-03-27T14:21:21Z</time>
      </trkpt>
      <trkpt lat="43.48598" lon="6.59066">
        <ele>45.3</ele>
        <time>2026-03-27T14:21:22Z</time>
      </trkpt>
      <trkpt lat="43.48599" lon="6.59068">
        <ele>45.4</ele>
        <time>2026-03-27T14:21:23Z</time>
      </trkpt>
      <trkpt lat="43.48599" lon="6.59069">
        <ele>45.3</ele>
        <time>2026-03-27T14:21:24Z</time>
      </trkpt>
      <trkpt lat="43.486" lon="6.59071">
        <ele>45.3</ele>
        <time>2026-03-27T14:21:25Z</time>
      </trkpt>
      <trkpt lat="43.486" lon="6.59073">
        <ele>45.3</ele>
        <time>2026-03-27T14:21:26Z</time>
      </trkpt>
      <trkpt lat="43.486" lon="6.59074">
        <ele>45.3</ele>
        <time>2026-03-27T14:21:27Z</time>
      </trkpt>
      <trkpt lat="43.486" lon="6.59076">
        <ele>45.2</ele>
        <time>2026-03-27T14:21:28Z</time>
      </trkpt>
      <trkpt lat="43.48601" lon="6.59077">
        <ele>45.1</ele>
        <time>2026-03-27T14:21:29Z</time>
      </trkpt>
      <trkpt lat="43.48601" lon="6.59079">
        <ele>45</ele>
        <time>2026-03-27T14:21:30Z</time>
      </trkpt>
      <trkpt lat="43.48601" lon="6.59081">
        <ele>44.9</ele>
        <time>2026-03-27T14:21:31Z</time>
      </trkpt>
      <trkpt lat="43.48601" lon="6.59083">
        <ele>45</ele>
        <time>2026-03-27T14:21:32Z</time>
      </trkpt>
      <trkpt lat="43.48601" lon="6.59084">
        <ele>45</ele>
        <time>2026-03-27T14:21:33Z</time>
      </trkpt>
      <trkpt lat="43.48601" lon="6.59085">
        <ele>44.9</ele>
        <time>2026-03-27T14:21:34Z</time>
      </trkpt>
      <trkpt lat="43.48601" lon="6.59086">
        <ele>44.8</ele>
        <time>2026-03-27T14:21:35Z</time>
      </trkpt>
      <trkpt lat="43.48601" lon="6.59088">
        <ele>44.7</ele>
        <time>2026-03-27T14:21:36Z</time>
      </trkpt>
      <trkpt lat="43.48601" lon="6.5909">
        <ele>44.7</ele>
        <time>2026-03-27T14:21:37Z</time>
      </trkpt>
      <trkpt lat="43.486" lon="6.59091">
        <ele>44.6</ele>
        <time>2026-03-27T14:21:38Z</time>
      </trkpt>
      <trkpt lat="43.48599" lon="6.59093">
        <ele>44.5</ele>
        <time>2026-03-27T14:21:39Z</time>
      </trkpt>
      <trkpt lat="43.48599" lon="6.59095">
        <ele>44.4</ele>
        <time>2026-03-27T14:21:40Z</time>
      </trkpt>
      <trkpt lat="43.48599" lon="6.59096">
        <ele>44.2</ele>
        <time>2026-03-27T14:21:41Z</time>
      </trkpt>
      <trkpt lat="43.48599" lon="6.59098">
        <ele>44.1</ele>
        <time>2026-03-27T14:21:42Z</time>
      </trkpt>
      <trkpt lat="43.48599" lon="6.59099">
        <ele>44</ele>
        <time>2026-03-27T14:21:43Z</time>
      </trkpt>
      <trkpt lat="43.48598" lon="6.59101">
        <ele>43.8</ele>
        <time>2026-03-27T14:21:44Z</time>
      </trkpt>
      <trkpt lat="43.48598" lon="6.59102">
        <ele>43.9</ele>
        <time>2026-03-27T14:21:45Z</time>
      </trkpt>
      <trkpt lat="43.48598" lon="6.59103">
        <ele>43.6</ele>
        <time>2026-03-27T14:21:46Z</time>
      </trkpt>
      <trkpt lat="43.48597" lon="6.59105">
        <ele>43.5</ele>
        <time>2026-03-27T14:21:47Z</time>
      </trkpt>
      <trkpt lat="43.48597" lon="6.59106">
        <ele>43.4</ele>
        <time>2026-03-27T14:21:48Z</time>
      </trkpt>
      <trkpt lat="43.48597" lon="6.59108">
        <ele>43.3</ele>
        <time>2026-03-27T14:21:49Z</time>
      </trkpt>
      <trkpt lat="43.48596" lon="6.59109">
        <ele>43.1</ele>
        <time>2026-03-27T14:21:50Z</time>
      </trkpt>
      <trkpt lat="43.48596" lon="6.59111">
        <ele>43</ele>
        <time>2026-03-27T14:21:51Z</time>
      </trkpt>
      <trkpt lat="43.48595" lon="6.59113">
        <ele>42.9</ele>
        <time>2026-03-27T14:21:52Z</time>
      </trkpt>
      <trkpt lat="43.48595" lon="6.59114">
        <ele>42.8</ele>
        <time>2026-03-27T14:21:53Z</time>
      </trkpt>
      <trkpt lat="43.48595" lon="6.59116">
        <ele>42.7</ele>
        <time>2026-03-27T14:21:54Z</time>
      </trkpt>
      <trkpt lat="43.48595" lon="6.59118">
        <ele>42.7</ele>
        <time>2026-03-27T14:21:55Z</time>
      </trkpt>
      <trkpt lat="43.48595" lon="6.5912">
        <ele>42.5</ele>
        <time>2026-03-27T14:21:56Z</time>
      </trkpt>
      <trkpt lat="43.48594" lon="6.59122">
        <ele>42.3</ele>
        <time>2026-03-27T14:21:57Z</time>
      </trkpt>
      <trkpt lat="43.48594" lon="6.59123">
        <ele>42.1</ele>
        <time>2026-03-27T14:21:58Z</time>
      </trkpt>
      <trkpt lat="43.48593" lon="6.59124">
        <ele>41.9</ele>
        <time>2026-03-27T14:21:59Z</time>
      </trkpt>
      <trkpt lat="43.48593" lon="6.59125">
        <ele>41.8</ele>
        <time>2026-03-27T14:22:00Z</time>
      </trkpt>
      <trkpt lat="43.48593" lon="6.59127">
        <ele>41.6</ele>
        <time>2026-03-27T14:22:01Z</time>
      </trkpt>
      <trkpt lat="43.48592" lon="6.59128">
        <ele>41.5</ele>
        <time>2026-03-27T14:22:02Z</time>
      </trkpt>
      <trkpt lat="43.48592" lon="6.5913">
        <ele>41.4</ele>
        <time>2026-03-27T14:22:03Z</time>
      </trkpt>
      <trkpt lat="43.48591" lon="6.59131">
        <ele>41.2</ele>
        <time>2026-03-27T14:22:04Z</time>
      </trkpt>
      <trkpt lat="43.48591" lon="6.59133">
        <ele>41.2</ele>
        <time>2026-03-27T14:22:05Z</time>
      </trkpt>
      <trkpt lat="43.48591" lon="6.59134">
        <ele>41.1</ele>
        <time>2026-03-27T14:22:06Z</time>
      </trkpt>
      <trkpt lat="43.48591" lon="6.59135">
        <ele>41</ele>
        <time>2026-03-27T14:22:07Z</time>
      </trkpt>
      <trkpt lat="43.4859" lon="6.59137">
        <ele>40.9</ele>
        <time>2026-03-27T14:22:08Z</time>
      </trkpt>
      <trkpt lat="43.4859" lon="6.59138">
        <ele>40.9</ele>
        <time>2026-03-27T14:22:09Z</time>
      </trkpt>
      <trkpt lat="43.4859" lon="6.5914">
        <ele>40.9</ele>
        <time>2026-03-27T14:22:10Z</time>
      </trkpt>
      <trkpt lat="43.48589" lon="6.59141">
        <ele>40.8</ele>
        <time>2026-03-27T14:22:11Z</time>
      </trkpt>
      <trkpt lat="43.48589" lon="6.59142">
        <ele>40.7</ele>
        <time>2026-03-27T14:22:12Z</time>
      </trkpt>
      <trkpt lat="43.48589" lon="6.59144">
        <ele>40.7</ele>
        <time>2026-03-27T14:22:13Z</time>
      </trkpt>
      <trkpt lat="43.48588" lon="6.59145">
        <ele>40.6</ele>
        <time>2026-03-27T14:22:14Z</time>
      </trkpt>
      <trkpt lat="43.48588" lon="6.59147">
        <ele>40.5</ele>
        <time>2026-03-27T14:22:15Z</time>
      </trkpt>
      <trkpt lat="43.48587" lon="6.59148">
        <ele>40.4</ele>
        <time>2026-03-27T14:22:16Z</time>
      </trkpt>
      <trkpt lat="43.48587" lon="6.59149">
        <ele>40.4</ele>
        <time>2026-03-27T14:22:17Z</time>
      </trkpt>
      <trkpt lat="43.48586" lon="6.59151">
        <ele>40.3</ele>
        <time>2026-03-27T14:22:18Z</time>
      </trkpt>
      <trkpt lat="43.48585" lon="6.59152">
        <ele>40.2</ele>
        <time>2026-03-27T14:22:19Z</time>
      </trkpt>
      <trkpt lat="43.48585" lon="6.59154">
        <ele>40.1</ele>
        <time>2026-03-27T14:22:20Z</time>
      </trkpt>
      <trkpt lat="43.48584" lon="6.59155">
        <ele>40</ele>
        <time>2026-03-27T14:22:21Z</time>
      </trkpt>
      <trkpt lat="43.48583" lon="6.59157">
        <ele>39.9</ele>
        <time>2026-03-27T14:22:22Z</time>
      </trkpt>
      <trkpt lat="43.48583" lon="6.59158">
        <ele>39.7</ele>
        <time>2026-03-27T14:22:23Z</time>
      </trkpt>
      <trkpt lat="43.48582" lon="6.5916">
        <ele>39.5</ele>
        <time>2026-03-27T14:22:24Z</time>
      </trkpt>
      <trkpt lat="43.48581" lon="6.59162">
        <ele>39.4</ele>
        <time>2026-03-27T14:22:25Z</time>
      </trkpt>
      <trkpt lat="43.48581" lon="6.59163">
        <ele>39.4</ele>
        <time>2026-03-27T14:22:26Z</time>
      </trkpt>
      <trkpt lat="43.4858" lon="6.59164">
        <ele>39.2</ele>
        <time>2026-03-27T14:22:27Z</time>
      </trkpt>
      <trkpt lat="43.4858" lon="6.59166">
        <ele>39</ele>
        <time>2026-03-27T14:22:28Z</time>
      </trkpt>
      <trkpt lat="43.48579" lon="6.59167">
        <ele>38.7</ele>
        <time>2026-03-27T14:22:29Z</time>
      </trkpt>
      <trkpt lat="43.48578" lon="6.59168">
        <ele>38.5</ele>
        <time>2026-03-27T14:22:30Z</time>
      </trkpt>
      <trkpt lat="43.48578" lon="6.5917">
        <ele>38.4</ele>
        <time>2026-03-27T14:22:31Z</time>
      </trkpt>
      <trkpt lat="43.48577" lon="6.59171">
        <ele>38.2</ele>
        <time>2026-03-27T14:22:32Z</time>
      </trkpt>
      <trkpt lat="43.48577" lon="6.59173">
        <ele>38.1</ele>
        <time>2026-03-27T14:22:33Z</time>
      </trkpt>
      <trkpt lat="43.48576" lon="6.59174">
        <ele>37.9</ele>
        <time>2026-03-27T14:22:34Z</time>
      </trkpt>
      <trkpt lat="43.48576" lon="6.59176">
        <ele>37.8</ele>
        <time>2026-03-27T14:22:35Z</time>
      </trkpt>
      <trkpt lat="43.48575" lon="6.59178">
        <ele>37.7</ele>
        <time>2026-03-27T14:22:36Z</time>
      </trkpt>
      <trkpt lat="43.48575" lon="6.59179">
        <ele>37.6</ele>
        <time>2026-03-27T14:22:37Z</time>
      </trkpt>
      <trkpt lat="43.48575" lon="6.59181">
        <ele>37.5</ele>
        <time>2026-03-27T14:22:38Z</time>
      </trkpt>
      <trkpt lat="43.48575" lon="6.59182">
        <ele>37.5</ele>
        <time>2026-03-27T14:22:39Z</time>
      </trkpt>
      <trkpt lat="43.48575" lon="6.59184">
        <ele>37.5</ele>
        <time>2026-03-27T14:22:40Z</time>
      </trkpt>
      <trkpt lat="43.48574" lon="6.59185">
        <ele>37.5</ele>
        <time>2026-03-27T14:22:41Z</time>
      </trkpt>
      <trkpt lat="43.48574" lon="6.59187">
        <ele>37.5</ele>
        <time>2026-03-27T14:22:42Z</time>
      </trkpt>
      <trkpt lat="43.48574" lon="6.59189">
        <ele>37.4</ele>
        <time>2026-03-27T14:22:43Z</time>
      </trkpt>
      <trkpt lat="43.48575" lon="6.59191">
        <ele>37.4</ele>
        <time>2026-03-27T14:22:44Z</time>
      </trkpt>
      <trkpt lat="43.48575" lon="6.59192">
        <ele>37.4</ele>
        <time>2026-03-27T14:22:45Z</time>
      </trkpt>
      <trkpt lat="43.48575" lon="6.59194">
        <ele>37.4</ele>
        <time>2026-03-27T14:22:46Z</time>
      </trkpt>
      <trkpt lat="43.48575" lon="6.59196">
        <ele>37.4</ele>
        <time>2026-03-27T14:22:47Z</time>
      </trkpt>
      <trkpt lat="43.48575" lon="6.59197">
        <ele>37.4</ele>
        <time>2026-03-27T14:22:48Z</time>
      </trkpt>
      <trkpt lat="43.48575" lon="6.59199">
        <ele>37.4</ele>
        <time>2026-03-27T14:22:49Z</time>
      </trkpt>
      <trkpt lat="43.48576" lon="6.592">
        <ele>37.4</ele>
        <time>2026-03-27T14:22:50Z</time>
      </trkpt>
      <trkpt lat="43.48576" lon="6.59202">
        <ele>37.3</ele>
        <time>2026-03-27T14:22:51Z</time>
      </trkpt>
      <trkpt lat="43.48576" lon="6.59204">
        <ele>37.3</ele>
        <time>2026-03-27T14:22:52Z</time>
      </trkpt>
      <trkpt lat="43.48576" lon="6.59206">
        <ele>37.3</ele>
        <time>2026-03-27T14:22:53Z</time>
      </trkpt>
      <trkpt lat="43.48576" lon="6.59207">
        <ele>37.2</ele>
        <time>2026-03-27T14:22:54Z</time>
      </trkpt>
      <trkpt lat="43.48576" lon="6.59209">
        <ele>37.1</ele>
        <time>2026-03-27T14:22:55Z</time>
      </trkpt>
      <trkpt lat="43.48576" lon="6.59211">
        <ele>37.1</ele>
        <time>2026-03-27T14:22:56Z</time>
      </trkpt>
      <trkpt lat="43.48576" lon="6.59212">
        <ele>37</ele>
        <time>2026-03-27T14:22:57Z</time>
      </trkpt>
      <trkpt lat="43.48576" lon="6.59214">
        <ele>36.9</ele>
        <time>2026-03-27T14:22:58Z</time>
      </trkpt>
      <trkpt lat="43.48576" lon="6.59216">
        <ele>36.8</ele>
        <time>2026-03-27T14:22:59Z</time>
      </trkpt>
      <trkpt lat="43.48576" lon="6.59217">
        <ele>36.8</ele>
        <time>2026-03-27T14:23:00Z</time>
      </trkpt>
      <trkpt lat="43.48576" lon="6.59219">
        <ele>36.8</ele>
        <time>2026-03-27T14:23:01Z</time>
      </trkpt>
      <trkpt lat="43.48575" lon="6.5922">
        <ele>36.7</ele>
        <time>2026-03-27T14:23:02Z</time>
      </trkpt>
      <trkpt lat="43.48575" lon="6.59221">
        <ele>36.6</ele>
        <time>2026-03-27T14:23:03Z</time>
      </trkpt>
      <trkpt lat="43.48575" lon="6.59223">
        <ele>36.6</ele>
        <time>2026-03-27T14:23:04Z</time>
      </trkpt>
      <trkpt lat="43.48575" lon="6.59224">
        <ele>36.5</ele>
        <time>2026-03-27T14:23:05Z</time>
      </trkpt>
      <trkpt lat="43.48575" lon="6.59225">
        <ele>36.5</ele>
        <time>2026-03-27T14:23:06Z</time>
      </trkpt>
      <trkpt lat="43.48575" lon="6.59225">
        <ele>36.5</ele>
        <time>2026-03-27T14:23:07Z</time>
      </trkpt>
      <trkpt lat="43.48575" lon="6.59225">
        <ele>36.5</ele>
        <time>2026-03-27T14:23:08Z</time>
      </trkpt>
      <trkpt lat="43.48575" lon="6.59225">
        <ele>36.5</ele>
        <time>2026-03-27T14:23:09Z</time>
      </trkpt>
      <trkpt lat="43.48575" lon="6.59225">
        <ele>36.5</ele>
        <time>2026-03-27T14:23:10Z</time>
      </trkpt>
      <trkpt lat="43.48575" lon="6.59225">
        <ele>36.4</ele>
        <time>2026-03-27T14:23:11Z</time>
      </trkpt>
      <trkpt lat="43.48575" lon="6.59226">
        <ele>36.3</ele>
        <time>2026-03-27T14:23:12Z</time>
      </trkpt>
      <trkpt lat="43.48575" lon="6.59226">
        <ele>36.2</ele>
        <time>2026-03-27T14:23:13Z</time>
      </trkpt>
      <trkpt lat="43.48575" lon="6.59226">
        <ele>36.3</ele>
        <time>2026-03-27T14:23:14Z</time>
      </trkpt>
      <trkpt lat="43.48575" lon="6.59226">
        <ele>36.3</ele>
        <time>2026-03-27T14:23:15Z</time>
      </trkpt>
      <trkpt lat="43.48575" lon="6.59226">
        <ele>36.3</ele>
        <time>2026-03-27T14:23:16Z</time>
      </trkpt>
      <trkpt lat="43.48575" lon="6.59227">
        <ele>36.3</ele>
        <time>2026-03-27T14:23:17Z</time>
      </trkpt>
      <trkpt lat="43.48575" lon="6.59227">
        <ele>36.3</ele>
        <time>2026-03-27T14:23:18Z</time>
      </trkpt>
      <trkpt lat="43.48575" lon="6.59227">
        <ele>36.3</ele>
        <time>2026-03-27T14:23:19Z</time>
      </trkpt>
      <trkpt lat="43.48574" lon="6.59227">
        <ele>36.3</ele>
        <time>2026-03-27T14:23:20Z</time>
      </trkpt>
      <trkpt lat="43.48574" lon="6.59227">
        <ele>36.4</ele>
        <time>2026-03-27T14:23:21Z</time>
      </trkpt>
      <trkpt lat="43.48574" lon="6.59227">
        <ele>36.4</ele>
        <time>2026-03-27T14:23:22Z</time>
      </trkpt>
      <trkpt lat="43.48574" lon="6.59227">
        <ele>36.5</ele>
        <time>2026-03-27T14:23:23Z</time>
      </trkpt>
      <trkpt lat="43.48574" lon="6.59227">
        <ele>36.5</ele>
        <time>2026-03-27T14:23:24Z</time>
      </trkpt>
      <trkpt lat="43.48574" lon="6.59227">
        <ele>36.6</ele>
        <time>2026-03-27T14:23:25Z</time>
      </trkpt>
      <trkpt lat="43.48574" lon="6.59227">
        <ele>36.5</ele>
        <time>2026-03-27T14:23:26Z</time>
      </trkpt>
      <trkpt lat="43.48574" lon="6.59227">
        <ele>36.5</ele>
        <time>2026-03-27T14:23:27Z</time>
      </trkpt>
      <trkpt lat="43.48574" lon="6.59227">
        <ele>36.5</ele>
        <time>2026-03-27T14:23:28Z</time>
      </trkpt>
      <trkpt lat="43.48574" lon="6.59227">
        <ele>36.4</ele>
        <time>2026-03-27T14:23:29Z</time>
      </trkpt>
      <trkpt lat="43.48574" lon="6.59227">
        <ele>36.3</ele>
        <time>2026-03-27T14:23:30Z</time>
      </trkpt>
      <trkpt lat="43.48574" lon="6.59227">
        <ele>36.3</ele>
        <time>2026-03-27T14:23:31Z</time>
      </trkpt>
      <trkpt lat="43.48574" lon="6.59227">
        <ele>36.2</ele>
        <time>2026-03-27T14:23:32Z</time>
      </trkpt>
      <trkpt lat="43.48574" lon="6.59227">
        <ele>36.2</ele>
        <time>2026-03-27T14:23:33Z</time>
      </trkpt>
      <trkpt lat="43.48574" lon="6.59227">
        <ele>36.2</ele>
        <time>2026-03-27T14:23:34Z</time>
      </trkpt>
      <trkpt lat="43.48574" lon="6.59226">
        <ele>36.1</ele>
        <time>2026-03-27T14:23:35Z</time>
      </trkpt>
      <trkpt lat="43.48574" lon="6.59227">
        <ele>36.1</ele>
        <time>2026-03-27T14:23:36Z</time>
      </trkpt>
      <trkpt lat="43.48574" lon="6.59227">
        <ele>36</ele>
        <time>2026-03-27T14:23:37Z</time>
      </trkpt>
      <trkpt lat="43.48574" lon="6.59228">
        <ele>36</ele>
        <time>2026-03-27T14:23:38Z</time>
      </trkpt>
      <trkpt lat="43.48575" lon="6.59228">
        <ele>36</ele>
        <time>2026-03-27T14:23:39Z</time>
      </trkpt>
      <trkpt lat="43.48576" lon="6.59228">
        <ele>36</ele>
        <time>2026-03-27T14:23:40Z</time>
      </trkpt>
      <trkpt lat="43.48576" lon="6.59228">
        <ele>36</ele>
        <time>2026-03-27T14:23:41Z</time>
      </trkpt>
      <trkpt lat="43.48576" lon="6.59228">
        <ele>36.1</ele>
        <time>2026-03-27T14:23:42Z</time>
      </trkpt>
      <trkpt lat="43.48576" lon="6.59228">
        <ele>36.1</ele>
        <time>2026-03-27T14:23:43Z</time>
      </trkpt>
      <trkpt lat="43.48576" lon="6.59228">
        <ele>36.1</ele>
        <time>2026-03-27T14:23:44Z</time>
      </trkpt>
      <trkpt lat="43.48576" lon="6.59228">
        <ele>36.1</ele>
        <time>2026-03-27T14:23:45Z</time>
      </trkpt>
      <trkpt lat="43.48576" lon="6.59228">
        <ele>36.2</ele>
        <time>2026-03-27T14:23:46Z</time>
      </trkpt>
      <trkpt lat="43.48576" lon="6.59228">
        <ele>36.2</ele>
        <time>2026-03-27T14:23:47Z</time>
      </trkpt>
      <trkpt lat="43.48576" lon="6.59228">
        <ele>36.2</ele>
        <time>2026-03-27T14:23:48Z</time>
      </trkpt>
      <trkpt lat="43.48576" lon="6.59229">
        <ele>36.2</ele>
        <time>2026-03-27T14:23:49Z</time>
      </trkpt>
      <trkpt lat="43.48576" lon="6.59229">
        <ele>36.2</ele>
        <time>2026-03-27T14:23:50Z</time>
      </trkpt>
      <trkpt lat="43.48576" lon="6.59229">
        <ele>36.2</ele>
        <time>2026-03-27T14:23:51Z</time>
      </trkpt>
      <trkpt lat="43.48576" lon="6.59229">
        <ele>36.2</ele>
        <time>2026-03-27T14:23:52Z</time>
      </trkpt>
      <trkpt lat="43.48576" lon="6.59229">
        <ele>36.3</ele>
        <time>2026-03-27T14:23:53Z</time>
      </trkpt>
      <trkpt lat="43.48576" lon="6.59229">
        <ele>36.3</ele>
        <time>2026-03-27T14:23:54Z</time>
      </trkpt>
      <trkpt lat="43.48576" lon="6.59229">
        <ele>36.3</ele>
        <time>2026-03-27T14:23:55Z</time>
      </trkpt>
      <trkpt lat="43.48576" lon="6.59229">
        <ele>36.3</ele>
        <time>2026-03-27T14:23:56Z</time>
      </trkpt>
      <trkpt lat="43.48576" lon="6.59229">
        <ele>36.3</ele>
        <time>2026-03-27T14:23:57Z</time>
      </trkpt>
      <trkpt lat="43.48576" lon="6.59229">
        <ele>36.3</ele>
        <time>2026-03-27T14:23:58Z</time>
      </trkpt>
      <trkpt lat="43.48576" lon="6.59229">
        <ele>36.3</ele>
        <time>2026-03-27T14:23:59Z</time>
      </trkpt>
      <trkpt lat="43.48576" lon="6.59229">
        <ele>36.4</ele>
        <time>2026-03-27T14:24:00Z</time>
      </trkpt>
      <trkpt lat="43.48576" lon="6.59229">
        <ele>36.4</ele>
        <time>2026-03-27T14:24:01Z</time>
      </trkpt>
      <trkpt lat="43.48576" lon="6.5923">
        <ele>36.5</ele>
        <time>2026-03-27T14:24:02Z</time>
      </trkpt>
      <trkpt lat="43.48576" lon="6.5923">
        <ele>36.5</ele>
        <time>2026-03-27T14:24:03Z</time>
      </trkpt>
      <trkpt lat="43.48576" lon="6.59229">
        <ele>36.6</ele>
        <time>2026-03-27T14:24:04Z</time>
      </trkpt>
      <trkpt lat="43.48576" lon="6.5923">
        <ele>36.5</ele>
        <time>2026-03-27T14:24:05Z</time>
      </trkpt>
      <trkpt lat="43.48576" lon="6.5923">
        <ele>36.5</ele>
        <time>2026-03-27T14:24:06Z</time>
      </trkpt>
      <trkpt lat="43.48576" lon="6.5923">
        <ele>36.4</ele>
        <time>2026-03-27T14:24:07Z</time>
      </trkpt>
      <trkpt lat="43.48576" lon="6.5923">
        <ele>36.4</ele>
        <time>2026-03-27T14:24:08Z</time>
      </trkpt>
      <trkpt lat="43.48576" lon="6.5923">
        <ele>36.4</ele>
        <time>2026-03-27T14:24:09Z</time>
      </trkpt>
      <trkpt lat="43.48576" lon="6.5923">
        <ele>36.4</ele>
        <time>2026-03-27T14:24:10Z</time>
      </trkpt>
      <trkpt lat="43.48576" lon="6.5923">
        <ele>36.4</ele>
        <time>2026-03-27T14:24:11Z</time>
      </trkpt>
      <trkpt lat="43.48576" lon="6.5923">
        <ele>36.5</ele>
        <time>2026-03-27T14:24:12Z</time>
      </trkpt>
      <trkpt lat="43.48576" lon="6.5923">
        <ele>36.5</ele>
        <time>2026-03-27T14:24:13Z</time>
      </trkpt>
      <trkpt lat="43.48576" lon="6.5923">
        <ele>36.5</ele>
        <time>2026-03-27T14:24:14Z</time>
      </trkpt>
      <trkpt lat="43.48576" lon="6.59231">
        <ele>36.6</ele>
        <time>2026-03-27T14:24:15Z</time>
      </trkpt>
      <trkpt lat="43.48576" lon="6.59231">
        <ele>36.6</ele>
        <time>2026-03-27T14:24:16Z</time>
      </trkpt>
      <trkpt lat="43.48576" lon="6.59231">
        <ele>36.6</ele>
        <time>2026-03-27T14:24:17Z</time>
      </trkpt>
      <trkpt lat="43.48576" lon="6.59231">
        <ele>36.6</ele>
        <time>2026-03-27T14:24:18Z</time>
      </trkpt>
      <trkpt lat="43.48576" lon="6.59231">
        <ele>36.6</ele>
        <time>2026-03-27T14:24:19Z</time>
      </trkpt>
      <trkpt lat="43.48576" lon="6.59231">
        <ele>36.6</ele>
        <time>2026-03-27T14:24:20Z</time>
      </trkpt>
      <trkpt lat="43.48576" lon="6.59231">
        <ele>36.6</ele>
        <time>2026-03-27T14:24:21Z</time>
      </trkpt>
      <trkpt lat="43.48575" lon="6.59231">
        <ele>36.6</ele>
        <time>2026-03-27T14:24:22Z</time>
      </trkpt>
      <trkpt lat="43.48575" lon="6.59231">
        <ele>36.7</ele>
        <time>2026-03-27T14:24:23Z</time>
      </trkpt>
      <trkpt lat="43.48575" lon="6.59231">
        <ele>36.6</ele>
        <time>2026-03-27T14:24:24Z</time>
      </trkpt>
      <trkpt lat="43.48575" lon="6.59231">
        <ele>36.6</ele>
        <time>2026-03-27T14:24:25Z</time>
      </trkpt>
      <trkpt lat="43.48575" lon="6.59231">
        <ele>36.5</ele>
        <time>2026-03-27T14:24:26Z</time>
      </trkpt>
      <trkpt lat="43.48575" lon="6.59231">
        <ele>36.5</ele>
        <time>2026-03-27T14:24:27Z</time>
      </trkpt>
      <trkpt lat="43.48575" lon="6.59231">
        <ele>36.3</ele>
        <time>2026-03-27T14:24:28Z</time>
      </trkpt>
      <trkpt lat="43.48575" lon="6.59231">
        <ele>36.2</ele>
        <time>2026-03-27T14:24:29Z</time>
      </trkpt>
      <trkpt lat="43.48575" lon="6.59231">
        <ele>36.2</ele>
        <time>2026-03-27T14:24:30Z</time>
      </trkpt>
      <trkpt lat="43.48575" lon="6.59231">
        <ele>36.2</ele>
        <time>2026-03-27T14:24:31Z</time>
      </trkpt>
      <trkpt lat="43.48575" lon="6.59231">
        <ele>36.2</ele>
        <time>2026-03-27T14:24:32Z</time>
      </trkpt>
      <trkpt lat="43.48575" lon="6.59231">
        <ele>36.2</ele>
        <time>2026-03-27T14:24:33Z</time>
      </trkpt>
      <trkpt lat="43.48574" lon="6.59231">
        <ele>36.1</ele>
        <time>2026-03-27T14:24:34Z</time>
      </trkpt>
      <trkpt lat="43.48574" lon="6.59231">
        <ele>36.1</ele>
        <time>2026-03-27T14:24:35Z</time>
      </trkpt>
      <trkpt lat="43.48574" lon="6.59231">
        <ele>36.1</ele>
        <time>2026-03-27T14:24:36Z</time>
      </trkpt>
      <trkpt lat="43.48574" lon="6.59231">
        <ele>36.1</ele>
        <time>2026-03-27T14:24:37Z</time>
      </trkpt>
      <trkpt lat="43.48574" lon="6.59231">
        <ele>36.1</ele>
        <time>2026-03-27T14:24:38Z</time>
      </trkpt>
      <trkpt lat="43.48574" lon="6.59231">
        <ele>36</ele>
        <time>2026-03-27T14:24:39Z</time>
      </trkpt>
      <trkpt lat="43.48574" lon="6.59231">
        <ele>36.1</ele>
        <time>2026-03-27T14:24:40Z</time>
      </trkpt>
      <trkpt lat="43.48574" lon="6.59231">
        <ele>36.1</ele>
        <time>2026-03-27T14:24:41Z</time>
      </trkpt>
      <trkpt lat="43.48574" lon="6.59231">
        <ele>36.1</ele>
        <time>2026-03-27T14:24:42Z</time>
      </trkpt>
      <trkpt lat="43.48573" lon="6.59231">
        <ele>36.1</ele>
        <time>2026-03-27T14:24:43Z</time>
      </trkpt>
      <trkpt lat="43.48573" lon="6.59231">
        <ele>36.1</ele>
        <time>2026-03-27T14:24:44Z</time>
      </trkpt>
      <trkpt lat="43.48573" lon="6.59231">
        <ele>36.1</ele>
        <time>2026-03-27T14:24:45Z</time>
      </trkpt>
      <trkpt lat="43.48573" lon="6.59231">
        <ele>36</ele>
        <time>2026-03-27T14:24:46Z</time>
      </trkpt>
      <trkpt lat="43.48573" lon="6.59231">
        <ele>36</ele>
        <time>2026-03-27T14:24:47Z</time>
      </trkpt>
      <trkpt lat="43.48573" lon="6.59232">
        <ele>36</ele>
        <time>2026-03-27T14:24:48Z</time>
      </trkpt>
      <trkpt lat="43.48573" lon="6.59231">
        <ele>35.9</ele>
        <time>2026-03-27T14:24:49Z</time>
      </trkpt>
      <trkpt lat="43.48573" lon="6.59231">
        <ele>35.9</ele>
        <time>2026-03-27T14:24:50Z</time>
      </trkpt>
      <trkpt lat="43.48573" lon="6.59231">
        <ele>35.9</ele>
        <time>2026-03-27T14:24:51Z</time>
      </trkpt>
      <trkpt lat="43.48573" lon="6.59231">
        <ele>36</ele>
        <time>2026-03-27T14:24:52Z</time>
      </trkpt>
      <trkpt lat="43.48572" lon="6.59231">
        <ele>36.1</ele>
        <time>2026-03-27T14:24:53Z</time>
      </trkpt>
      <trkpt lat="43.48572" lon="6.59231">
        <ele>36.2</ele>
        <time>2026-03-27T14:24:54Z</time>
      </trkpt>
      <trkpt lat="43.48573" lon="6.59231">
        <ele>36.2</ele>
        <time>2026-03-27T14:24:55Z</time>
      </trkpt>
      <trkpt lat="43.48573" lon="6.59231">
        <ele>36.1</ele>
        <time>2026-03-27T14:24:56Z</time>
      </trkpt>
      <trkpt lat="43.48573" lon="6.59231">
        <ele>36.1</ele>
        <time>2026-03-27T14:24:57Z</time>
      </trkpt>
      <trkpt lat="43.48573" lon="6.59231">
        <ele>36.1</ele>
        <time>2026-03-27T14:24:58Z</time>
      </trkpt>
      <trkpt lat="43.48573" lon="6.59231">
        <ele>36.1</ele>
        <time>2026-03-27T14:24:59Z</time>
      </trkpt>
      <trkpt lat="43.48574" lon="6.59231">
        <ele>36.1</ele>
        <time>2026-03-27T14:25:00Z</time>
      </trkpt>
      <trkpt lat="43.48574" lon="6.59231">
        <ele>36.1</ele>
        <time>2026-03-27T14:25:01Z</time>
      </trkpt>
      <trkpt lat="43.48574" lon="6.59231">
        <ele>36.1</ele>
        <time>2026-03-27T14:25:02Z</time>
      </trkpt>
      <trkpt lat="43.48574" lon="6.59231">
        <ele>36.1</ele>
        <time>2026-03-27T14:25:03Z</time>
      </trkpt>
      <trkpt lat="43.48574" lon="6.59231">
        <ele>36</ele>
        <time>2026-03-27T14:25:04Z</time>
      </trkpt>
      <trkpt lat="43.48574" lon="6.59231">
        <ele>36</ele>
        <time>2026-03-27T14:25:05Z</time>
      </trkpt>
      <trkpt lat="43.48574" lon="6.59231">
        <ele>36</ele>
        <time>2026-03-27T14:25:06Z</time>
      </trkpt>
      <trkpt lat="43.48574" lon="6.59231">
        <ele>36</ele>
        <time>2026-03-27T14:25:07Z</time>
      </trkpt>
      <trkpt lat="43.48574" lon="6.59231">
        <ele>36</ele>
        <time>2026-03-27T14:25:08Z</time>
      </trkpt>
      <trkpt lat="43.48574" lon="6.59231">
        <ele>35.9</ele>
        <time>2026-03-27T14:25:09Z</time>
      </trkpt>
      <trkpt lat="43.48574" lon="6.59231">
        <ele>35.9</ele>
        <time>2026-03-27T14:25:10Z</time>
      </trkpt>
      <trkpt lat="43.48574" lon="6.59231">
        <ele>36</ele>
        <time>2026-03-27T14:25:11Z</time>
      </trkpt>
      <trkpt lat="43.48574" lon="6.59231">
        <ele>36</ele>
        <time>2026-03-27T14:25:12Z</time>
      </trkpt>
      <trkpt lat="43.48574" lon="6.59231">
        <ele>36.1</ele>
        <time>2026-03-27T14:25:13Z</time>
      </trkpt>
      <trkpt lat="43.48574" lon="6.59231">
        <ele>36.1</ele>
        <time>2026-03-27T14:25:14Z</time>
      </trkpt>
      <trkpt lat="43.48574" lon="6.59231">
        <ele>36</ele>
        <time>2026-03-27T14:25:15Z</time>
      </trkpt>
      <trkpt lat="43.48574" lon="6.59231">
        <ele>36</ele>
        <time>2026-03-27T14:25:16Z</time>
      </trkpt>
      <trkpt lat="43.48574" lon="6.59231">
        <ele>36</ele>
        <time>2026-03-27T14:25:17Z</time>
      </trkpt>
      <trkpt lat="43.48574" lon="6.59231">
        <ele>36</ele>
        <time>2026-03-27T14:25:18Z</time>
      </trkpt>
      <trkpt lat="43.48574" lon="6.59231">
        <ele>36.1</ele>
        <time>2026-03-27T14:25:19Z</time>
      </trkpt>
      <trkpt lat="43.48574" lon="6.59231">
        <ele>36.1</ele>
        <time>2026-03-27T14:25:20Z</time>
      </trkpt>
      <trkpt lat="43.48574" lon="6.59231">
        <ele>36.2</ele>
        <time>2026-03-27T14:25:21Z</time>
      </trkpt>
      <trkpt lat="43.48574" lon="6.59231">
        <ele>36.3</ele>
        <time>2026-03-27T14:25:22Z</time>
      </trkpt>
      <trkpt lat="43.48574" lon="6.59231">
        <ele>36.3</ele>
        <time>2026-03-27T14:25:23Z</time>
      </trkpt>
      <trkpt lat="43.48574" lon="6.59232">
        <ele>36.3</ele>
        <time>2026-03-27T14:25:24Z</time>
      </trkpt>
      <trkpt lat="43.48574" lon="6.59231">
        <ele>36.3</ele>
        <time>2026-03-27T14:25:25Z</time>
      </trkpt>
      <trkpt lat="43.48574" lon="6.59231">
        <ele>36.3</ele>
        <time>2026-03-27T14:25:26Z</time>
      </trkpt>
      <trkpt lat="43.48574" lon="6.59231">
        <ele>36.2</ele>
        <time>2026-03-27T14:25:27Z</time>
      </trkpt>
      <trkpt lat="43.48574" lon="6.59231">
        <ele>36.2</ele>
        <time>2026-03-27T14:25:28Z</time>
      </trkpt>
      <trkpt lat="43.48574" lon="6.59231">
        <ele>36.2</ele>
        <time>2026-03-27T14:25:29Z</time>
      </trkpt>
      <trkpt lat="43.48574" lon="6.59232">
        <ele>36.2</ele>
        <time>2026-03-27T14:25:30Z</time>
      </trkpt>
      <trkpt lat="43.48574" lon="6.59232">
        <ele>36.3</ele>
        <time>2026-03-27T14:25:31Z</time>
      </trkpt>
      <trkpt lat="43.48574" lon="6.59232">
        <ele>36.3</ele>
        <time>2026-03-27T14:25:32Z</time>
      </trkpt>
      <trkpt lat="43.48574" lon="6.59232">
        <ele>36.3</ele>
        <time>2026-03-27T14:25:33Z</time>
      </trkpt>
      <trkpt lat="43.48574" lon="6.59232">
        <ele>36.3</ele>
        <time>2026-03-27T14:25:34Z</time>
      </trkpt>
      <trkpt lat="43.48574" lon="6.59232">
        <ele>36.3</ele>
        <time>2026-03-27T14:25:35Z</time>
      </trkpt>
      <trkpt lat="43.48574" lon="6.59232">
        <ele>36.3</ele>
        <time>2026-03-27T14:25:36Z</time>
      </trkpt>
      <trkpt lat="43.48574" lon="6.59232">
        <ele>36.3</ele>
        <time>2026-03-27T14:25:37Z</time>
      </trkpt>
      <trkpt lat="43.48574" lon="6.59232">
        <ele>36.4</ele>
        <time>2026-03-27T14:25:38Z</time>
      </trkpt>
      <trkpt lat="43.48574" lon="6.59232">
        <ele>36.4</ele>
        <time>2026-03-27T14:25:39Z</time>
      </trkpt>
      <trkpt lat="43.48574" lon="6.59232">
        <ele>36.3</ele>
        <time>2026-03-27T14:25:40Z</time>
      </trkpt>
      <trkpt lat="43.48574" lon="6.59232">
        <ele>36.3</ele>
        <time>2026-03-27T14:25:41Z</time>
      </trkpt>
      <trkpt lat="43.48574" lon="6.59232">
        <ele>36.2</ele>
        <time>2026-03-27T14:25:42Z</time>
      </trkpt>
      <trkpt lat="43.48574" lon="6.59232">
        <ele>36.2</ele>
        <time>2026-03-27T14:25:43Z</time>
      </trkpt>
      <trkpt lat="43.48574" lon="6.59232">
        <ele>36.2</ele>
        <time>2026-03-27T14:25:44Z</time>
      </trkpt>
      <trkpt lat="43.48574" lon="6.59232">
        <ele>36.2</ele>
        <time>2026-03-27T14:25:45Z</time>
      </trkpt>
      <trkpt lat="43.48574" lon="6.59232">
        <ele>36.2</ele>
        <time>2026-03-27T14:25:46Z</time>
      </trkpt>
      <trkpt lat="43.48574" lon="6.59232">
        <ele>36.2</ele>
        <time>2026-03-27T14:25:47Z</time>
      </trkpt>
      <trkpt lat="43.48574" lon="6.59232">
        <ele>36.2</ele>
        <time>2026-03-27T14:25:48Z</time>
      </trkpt>
      <trkpt lat="43.48573" lon="6.59232">
        <ele>36.1</ele>
        <time>2026-03-27T14:25:49Z</time>
      </trkpt>
      <trkpt lat="43.48573" lon="6.59232">
        <ele>36.1</ele>
        <time>2026-03-27T14:25:50Z</time>
      </trkpt>
      <trkpt lat="43.48573" lon="6.59232">
        <ele>36.1</ele>
        <time>2026-03-27T14:25:51Z</time>
      </trkpt>
      <trkpt lat="43.48573" lon="6.59232">
        <ele>36.1</ele>
        <time>2026-03-27T14:25:52Z</time>
      </trkpt>
      <trkpt lat="43.48573" lon="6.59232">
        <ele>36.1</ele>
        <time>2026-03-27T14:25:53Z</time>
      </trkpt>
      <trkpt lat="43.48573" lon="6.59233">
        <ele>36.2</ele>
        <time>2026-03-27T14:25:54Z</time>
      </trkpt>
      <trkpt lat="43.48572" lon="6.59234">
        <ele>36.2</ele>
        <time>2026-03-27T14:25:55Z</time>
      </trkpt>
      <trkpt lat="43.48572" lon="6.59236">
        <ele>36.1</ele>
        <time>2026-03-27T14:25:56Z</time>
      </trkpt>
      <trkpt lat="43.48572" lon="6.59237">
        <ele>36</ele>
        <time>2026-03-27T14:25:57Z</time>
      </trkpt>
      <trkpt lat="43.48572" lon="6.59239">
        <ele>35.9</ele>
        <time>2026-03-27T14:25:58Z</time>
      </trkpt>
      <trkpt lat="43.48572" lon="6.5924">
        <ele>35.9</ele>
        <time>2026-03-27T14:25:59Z</time>
      </trkpt>
      <trkpt lat="43.48572" lon="6.59241">
        <ele>35.8</ele>
        <time>2026-03-27T14:26:00Z</time>
      </trkpt>
      <trkpt lat="43.48573" lon="6.59243">
        <ele>35.5</ele>
        <time>2026-03-27T14:26:01Z</time>
      </trkpt>
      <trkpt lat="43.48573" lon="6.59244">
        <ele>35.4</ele>
        <time>2026-03-27T14:26:02Z</time>
      </trkpt>
      <trkpt lat="43.48573" lon="6.59245">
        <ele>35.3</ele>
        <time>2026-03-27T14:26:03Z</time>
      </trkpt>
      <trkpt lat="43.48574" lon="6.59247">
        <ele>35.2</ele>
        <time>2026-03-27T14:26:04Z</time>
      </trkpt>
      <trkpt lat="43.48575" lon="6.59248">
        <ele>35.1</ele>
        <time>2026-03-27T14:26:05Z</time>
      </trkpt>
      <trkpt lat="43.48575" lon="6.59249">
        <ele>34.9</ele>
        <time>2026-03-27T14:26:06Z</time>
      </trkpt>
      <trkpt lat="43.48575" lon="6.5925">
        <ele>34.8</ele>
        <time>2026-03-27T14:26:07Z</time>
      </trkpt>
      <trkpt lat="43.48576" lon="6.59251">
        <ele>34.7</ele>
        <time>2026-03-27T14:26:08Z</time>
      </trkpt>
      <trkpt lat="43.48577" lon="6.59252">
        <ele>34.6</ele>
        <time>2026-03-27T14:26:09Z</time>
      </trkpt>
      <trkpt lat="43.48577" lon="6.59253">
        <ele>34.4</ele>
        <time>2026-03-27T14:26:10Z</time>
      </trkpt>
      <trkpt lat="43.48578" lon="6.59254">
        <ele>34.3</ele>
        <time>2026-03-27T14:26:11Z</time>
      </trkpt>
      <trkpt lat="43.48579" lon="6.59255">
        <ele>34.3</ele>
        <time>2026-03-27T14:26:12Z</time>
      </trkpt>
      <trkpt lat="43.4858" lon="6.59256">
        <ele>34</ele>
        <time>2026-03-27T14:26:13Z</time>
      </trkpt>
      <trkpt lat="43.4858" lon="6.59257">
        <ele>33.8</ele>
        <time>2026-03-27T14:26:14Z</time>
      </trkpt>
      <trkpt lat="43.48581" lon="6.59258">
        <ele>33.7</ele>
        <time>2026-03-27T14:26:15Z</time>
      </trkpt>
      <trkpt lat="43.48582" lon="6.59259">
        <ele>33.5</ele>
        <time>2026-03-27T14:26:16Z</time>
      </trkpt>
      <trkpt lat="43.48583" lon="6.5926">
        <ele>33.2</ele>
        <time>2026-03-27T14:26:17Z</time>
      </trkpt>
      <trkpt lat="43.48583" lon="6.59261">
        <ele>32.9</ele>
        <time>2026-03-27T14:26:18Z</time>
      </trkpt>
      <trkpt lat="43.48584" lon="6.59262">
        <ele>32.6</ele>
        <time>2026-03-27T14:26:19Z</time>
      </trkpt>
      <trkpt lat="43.48584" lon="6.59263">
        <ele>32.4</ele>
        <time>2026-03-27T14:26:20Z</time>
      </trkpt>
      <trkpt lat="43.48585" lon="6.59263">
        <ele>32.3</ele>
        <time>2026-03-27T14:26:21Z</time>
      </trkpt>
      <trkpt lat="43.48586" lon="6.59264">
        <ele>32.1</ele>
        <time>2026-03-27T14:26:22Z</time>
      </trkpt>
      <trkpt lat="43.48587" lon="6.59263">
        <ele>31.8</ele>
        <time>2026-03-27T14:26:23Z</time>
      </trkpt>
      <trkpt lat="43.48587" lon="6.59264">
        <ele>31.5</ele>
        <time>2026-03-27T14:26:24Z</time>
      </trkpt>
      <trkpt lat="43.48588" lon="6.59264">
        <ele>31.3</ele>
        <time>2026-03-27T14:26:25Z</time>
      </trkpt>
      <trkpt lat="43.48589" lon="6.59264">
        <ele>31.1</ele>
        <time>2026-03-27T14:26:26Z</time>
      </trkpt>
      <trkpt lat="43.48589" lon="6.59265">
        <ele>30.9</ele>
        <time>2026-03-27T14:26:27Z</time>
      </trkpt>
      <trkpt lat="43.4859" lon="6.59266">
        <ele>30.7</ele>
        <time>2026-03-27T14:26:28Z</time>
      </trkpt>
      <trkpt lat="43.48591" lon="6.59266">
        <ele>30.7</ele>
        <time>2026-03-27T14:26:29Z</time>
      </trkpt>
      <trkpt lat="43.48592" lon="6.59266">
        <ele>30.5</ele>
        <time>2026-03-27T14:26:30Z</time>
      </trkpt>
      <trkpt lat="43.48593" lon="6.59267">
        <ele>30.3</ele>
        <time>2026-03-27T14:26:31Z</time>
      </trkpt>
      <trkpt lat="43.48594" lon="6.59268">
        <ele>30.1</ele>
        <time>2026-03-27T14:26:32Z</time>
      </trkpt>
      <trkpt lat="43.48594" lon="6.59268">
        <ele>29.9</ele>
        <time>2026-03-27T14:26:33Z</time>
      </trkpt>
      <trkpt lat="43.48595" lon="6.59269">
        <ele>29.8</ele>
        <time>2026-03-27T14:26:34Z</time>
      </trkpt>
      <trkpt lat="43.48596" lon="6.5927">
        <ele>29.6</ele>
        <time>2026-03-27T14:26:35Z</time>
      </trkpt>
      <trkpt lat="43.48597" lon="6.59271">
        <ele>29.5</ele>
        <time>2026-03-27T14:26:36Z</time>
      </trkpt>
      <trkpt lat="43.48597" lon="6.59272">
        <ele>29.3</ele>
        <time>2026-03-27T14:26:37Z</time>
      </trkpt>
      <trkpt lat="43.48598" lon="6.59273">
        <ele>29.1</ele>
        <time>2026-03-27T14:26:38Z</time>
      </trkpt>
      <trkpt lat="43.48599" lon="6.59273">
        <ele>29</ele>
        <time>2026-03-27T14:26:39Z</time>
      </trkpt>
      <trkpt lat="43.486" lon="6.59274">
        <ele>28.8</ele>
        <time>2026-03-27T14:26:40Z</time>
      </trkpt>
      <trkpt lat="43.486" lon="6.59275">
        <ele>28.6</ele>
        <time>2026-03-27T14:26:41Z</time>
      </trkpt>
      <trkpt lat="43.48601" lon="6.59276">
        <ele>28.6</ele>
        <time>2026-03-27T14:26:42Z</time>
      </trkpt>
      <trkpt lat="43.48602" lon="6.59277">
        <ele>28.6</ele>
        <time>2026-03-27T14:26:43Z</time>
      </trkpt>
      <trkpt lat="43.48603" lon="6.59279">
        <ele>28.7</ele>
        <time>2026-03-27T14:26:44Z</time>
      </trkpt>
      <trkpt lat="43.48603" lon="6.5928">
        <ele>28.7</ele>
        <time>2026-03-27T14:26:45Z</time>
      </trkpt>
      <trkpt lat="43.48604" lon="6.59281">
        <ele>28.6</ele>
        <time>2026-03-27T14:26:46Z</time>
      </trkpt>
      <trkpt lat="43.48604" lon="6.59282">
        <ele>28.5</ele>
        <time>2026-03-27T14:26:47Z</time>
      </trkpt>
      <trkpt lat="43.48605" lon="6.59283">
        <ele>28.5</ele>
        <time>2026-03-27T14:26:48Z</time>
      </trkpt>
      <trkpt lat="43.48606" lon="6.59284">
        <ele>28.6</ele>
        <time>2026-03-27T14:26:49Z</time>
      </trkpt>
      <trkpt lat="43.48607" lon="6.59285">
        <ele>28.5</ele>
        <time>2026-03-27T14:26:50Z</time>
      </trkpt>
      <trkpt lat="43.48607" lon="6.59286">
        <ele>28.3</ele>
        <time>2026-03-27T14:26:51Z</time>
      </trkpt>
      <trkpt lat="43.48608" lon="6.59287">
        <ele>28.2</ele>
        <time>2026-03-27T14:26:52Z</time>
      </trkpt>
      <trkpt lat="43.48609" lon="6.59288">
        <ele>28.1</ele>
        <time>2026-03-27T14:26:53Z</time>
      </trkpt>
      <trkpt lat="43.4861" lon="6.5929">
        <ele>28.2</ele>
        <time>2026-03-27T14:26:54Z</time>
      </trkpt>
      <trkpt lat="43.4861" lon="6.59291">
        <ele>28.2</ele>
        <time>2026-03-27T14:26:55Z</time>
      </trkpt>
      <trkpt lat="43.48611" lon="6.59291">
        <ele>28.2</ele>
        <time>2026-03-27T14:26:56Z</time>
      </trkpt>
      <trkpt lat="43.48612" lon="6.59292">
        <ele>28.2</ele>
        <time>2026-03-27T14:26:57Z</time>
      </trkpt>
      <trkpt lat="43.48613" lon="6.59292">
        <ele>28.3</ele>
        <time>2026-03-27T14:26:58Z</time>
      </trkpt>
      <trkpt lat="43.48614" lon="6.59293">
        <ele>28.2</ele>
        <time>2026-03-27T14:26:59Z</time>
      </trkpt>
      <trkpt lat="43.48615" lon="6.59293">
        <ele>28.2</ele>
        <time>2026-03-27T14:27:00Z</time>
      </trkpt>
      <trkpt lat="43.48616" lon="6.59294">
        <ele>28.2</ele>
        <time>2026-03-27T14:27:01Z</time>
      </trkpt>
      <trkpt lat="43.48617" lon="6.59294">
        <ele>28.2</ele>
        <time>2026-03-27T14:27:02Z</time>
      </trkpt>
      <trkpt lat="43.48618" lon="6.59295">
        <ele>28.2</ele>
        <time>2026-03-27T14:27:03Z</time>
      </trkpt>
      <trkpt lat="43.48619" lon="6.59295">
        <ele>28.2</ele>
        <time>2026-03-27T14:27:04Z</time>
      </trkpt>
      <trkpt lat="43.4862" lon="6.59296">
        <ele>28.2</ele>
        <time>2026-03-27T14:27:05Z</time>
      </trkpt>
      <trkpt lat="43.4862" lon="6.59296">
        <ele>28.1</ele>
        <time>2026-03-27T14:27:06Z</time>
      </trkpt>
      <trkpt lat="43.48621" lon="6.59296">
        <ele>28.1</ele>
        <time>2026-03-27T14:27:07Z</time>
      </trkpt>
      <trkpt lat="43.48622" lon="6.59296">
        <ele>28.1</ele>
        <time>2026-03-27T14:27:08Z</time>
      </trkpt>
      <trkpt lat="43.48623" lon="6.59295">
        <ele>28.1</ele>
        <time>2026-03-27T14:27:09Z</time>
      </trkpt>
      <trkpt lat="43.48623" lon="6.59295">
        <ele>28.1</ele>
        <time>2026-03-27T14:27:10Z</time>
      </trkpt>
      <trkpt lat="43.48623" lon="6.59295">
        <ele>28</ele>
        <time>2026-03-27T14:27:11Z</time>
      </trkpt>
      <trkpt lat="43.48623" lon="6.59295">
        <ele>28</ele>
        <time>2026-03-27T14:27:12Z</time>
      </trkpt>
      <trkpt lat="43.48623" lon="6.59295">
        <ele>28</ele>
        <time>2026-03-27T14:27:13Z</time>
      </trkpt>
      <trkpt lat="43.48624" lon="6.59295">
        <ele>28</ele>
        <time>2026-03-27T14:27:14Z</time>
      </trkpt>
      <trkpt lat="43.48624" lon="6.59295">
        <ele>28</ele>
        <time>2026-03-27T14:27:15Z</time>
      </trkpt>
      <trkpt lat="43.48624" lon="6.59295">
        <ele>28</ele>
        <time>2026-03-27T14:27:16Z</time>
      </trkpt>
      <trkpt lat="43.48624" lon="6.59295">
        <ele>27.9</ele>
        <time>2026-03-27T14:27:17Z</time>
      </trkpt>
      <trkpt lat="43.48624" lon="6.59295">
        <ele>28</ele>
        <time>2026-03-27T14:27:18Z</time>
      </trkpt>
      <trkpt lat="43.48625" lon="6.59295">
        <ele>28</ele>
        <time>2026-03-27T14:27:19Z</time>
      </trkpt>
      <trkpt lat="43.48625" lon="6.59295">
        <ele>28</ele>
        <time>2026-03-27T14:27:20Z</time>
      </trkpt>
      <trkpt lat="43.48625" lon="6.59295">
        <ele>27.9</ele>
        <time>2026-03-27T14:27:21Z</time>
      </trkpt>
      <trkpt lat="43.48625" lon="6.59295">
        <ele>27.8</ele>
        <time>2026-03-27T14:27:22Z</time>
      </trkpt>
      <trkpt lat="43.48625" lon="6.59295">
        <ele>27.8</ele>
        <time>2026-03-27T14:27:23Z</time>
      </trkpt>
      <trkpt lat="43.48625" lon="6.59295">
        <ele>27.9</ele>
        <time>2026-03-27T14:27:24Z</time>
      </trkpt>
      <trkpt lat="43.48626" lon="6.59295">
        <ele>27.9</ele>
        <time>2026-03-27T14:27:25Z</time>
      </trkpt>
      <trkpt lat="43.48626" lon="6.59295">
        <ele>27.7</ele>
        <time>2026-03-27T14:27:26Z</time>
      </trkpt>
      <trkpt lat="43.48626" lon="6.59295">
        <ele>27.6</ele>
        <time>2026-03-27T14:27:27Z</time>
      </trkpt>
      <trkpt lat="43.48626" lon="6.59295">
        <ele>27.5</ele>
        <time>2026-03-27T14:27:28Z</time>
      </trkpt>
      <trkpt lat="43.48626" lon="6.59295">
        <ele>27.5</ele>
        <time>2026-03-27T14:27:29Z</time>
      </trkpt>
      <trkpt lat="43.48626" lon="6.59295">
        <ele>27.5</ele>
        <time>2026-03-27T14:27:30Z</time>
      </trkpt>
      <trkpt lat="43.48626" lon="6.59295">
        <ele>27.5</ele>
        <time>2026-03-27T14:27:31Z</time>
      </trkpt>
      <trkpt lat="43.48626" lon="6.59295">
        <ele>27.6</ele>
        <time>2026-03-27T14:27:32Z</time>
      </trkpt>
      <trkpt lat="43.48626" lon="6.59295">
        <ele>27.7</ele>
        <time>2026-03-27T14:27:33Z</time>
      </trkpt>
      <trkpt lat="43.48626" lon="6.59295">
        <ele>27.8</ele>
        <time>2026-03-27T14:27:34Z</time>
      </trkpt>
      <trkpt lat="43.48626" lon="6.59295">
        <ele>27.9</ele>
        <time>2026-03-27T14:27:35Z</time>
      </trkpt>
      <trkpt lat="43.48626" lon="6.59295">
        <ele>27.9</ele>
        <time>2026-03-27T14:27:36Z</time>
      </trkpt>
      <trkpt lat="43.48626" lon="6.59295">
        <ele>27.8</ele>
        <time>2026-03-27T14:27:37Z</time>
      </trkpt>
      <trkpt lat="43.48626" lon="6.59295">
        <ele>27.9</ele>
        <time>2026-03-27T14:27:38Z</time>
      </trkpt>
      <trkpt lat="43.48626" lon="6.59295">
        <ele>28</ele>
        <time>2026-03-27T14:27:39Z</time>
      </trkpt>
      <trkpt lat="43.48626" lon="6.59294">
        <ele>28</ele>
        <time>2026-03-27T14:27:40Z</time>
      </trkpt>
      <trkpt lat="43.48626" lon="6.59294">
        <ele>28.1</ele>
        <time>2026-03-27T14:27:41Z</time>
      </trkpt>
      <trkpt lat="43.48626" lon="6.59294">
        <ele>28.1</ele>
        <time>2026-03-27T14:27:42Z</time>
      </trkpt>
      <trkpt lat="43.48626" lon="6.59294">
        <ele>28.1</ele>
        <time>2026-03-27T14:27:43Z</time>
      </trkpt>
      <trkpt lat="43.48626" lon="6.59294">
        <ele>28</ele>
        <time>2026-03-27T14:27:44Z</time>
      </trkpt>
      <trkpt lat="43.48626" lon="6.59294">
        <ele>28</ele>
        <time>2026-03-27T14:27:45Z</time>
      </trkpt>
      <trkpt lat="43.48626" lon="6.59295">
        <ele>28</ele>
        <time>2026-03-27T14:27:46Z</time>
      </trkpt>
      <trkpt lat="43.48626" lon="6.59295">
        <ele>28</ele>
        <time>2026-03-27T14:27:47Z</time>
      </trkpt>
      <trkpt lat="43.48626" lon="6.59295">
        <ele>28</ele>
        <time>2026-03-27T14:27:48Z</time>
      </trkpt>
      <trkpt lat="43.48626" lon="6.59295">
        <ele>28</ele>
        <time>2026-03-27T14:27:49Z</time>
      </trkpt>
      <trkpt lat="43.48626" lon="6.59295">
        <ele>28</ele>
        <time>2026-03-27T14:27:50Z</time>
      </trkpt>
      <trkpt lat="43.48626" lon="6.59295">
        <ele>27.9</ele>
        <time>2026-03-27T14:27:51Z</time>
      </trkpt>
      <trkpt lat="43.48626" lon="6.59295">
        <ele>27.9</ele>
        <time>2026-03-27T14:27:52Z</time>
      </trkpt>
      <trkpt lat="43.48626" lon="6.59296">
        <ele>27.9</ele>
        <time>2026-03-27T14:27:53Z</time>
      </trkpt>
      <trkpt lat="43.48626" lon="6.59296">
        <ele>27.9</ele>
        <time>2026-03-27T14:27:54Z</time>
      </trkpt>
      <trkpt lat="43.48626" lon="6.59296">
        <ele>27.9</ele>
        <time>2026-03-27T14:27:55Z</time>
      </trkpt>
      <trkpt lat="43.48627" lon="6.59296">
        <ele>27.9</ele>
        <time>2026-03-27T14:27:56Z</time>
      </trkpt>
      <trkpt lat="43.48627" lon="6.59296">
        <ele>27.9</ele>
        <time>2026-03-27T14:27:57Z</time>
      </trkpt>
      <trkpt lat="43.48627" lon="6.59296">
        <ele>27.8</ele>
        <time>2026-03-27T14:27:58Z</time>
      </trkpt>
      <trkpt lat="43.48627" lon="6.59296">
        <ele>27.8</ele>
        <time>2026-03-27T14:27:59Z</time>
      </trkpt>
      <trkpt lat="43.48627" lon="6.59296">
        <ele>27.8</ele>
        <time>2026-03-27T14:28:00Z</time>
      </trkpt>
      <trkpt lat="43.48627" lon="6.59296">
        <ele>27.9</ele>
        <time>2026-03-27T14:28:01Z</time>
      </trkpt>
      <trkpt lat="43.48627" lon="6.59296">
        <ele>27.8</ele>
        <time>2026-03-27T14:28:02Z</time>
      </trkpt>
      <trkpt lat="43.48627" lon="6.59296">
        <ele>27.9</ele>
        <time>2026-03-27T14:28:03Z</time>
      </trkpt>
      <trkpt lat="43.48627" lon="6.59296">
        <ele>27.9</ele>
        <time>2026-03-27T14:28:04Z</time>
      </trkpt>
      <trkpt lat="43.48627" lon="6.59296">
        <ele>27.9</ele>
        <time>2026-03-27T14:28:05Z</time>
      </trkpt>
      <trkpt lat="43.48628" lon="6.59296">
        <ele>28</ele>
        <time>2026-03-27T14:28:06Z</time>
      </trkpt>
      <trkpt lat="43.48628" lon="6.59296">
        <ele>28</ele>
        <time>2026-03-27T14:28:07Z</time>
      </trkpt>
      <trkpt lat="43.48628" lon="6.59296">
        <ele>28</ele>
        <time>2026-03-27T14:28:08Z</time>
      </trkpt>
      <trkpt lat="43.48628" lon="6.59296">
        <ele>27.9</ele>
        <time>2026-03-27T14:28:09Z</time>
      </trkpt>
      <trkpt lat="43.48628" lon="6.59296">
        <ele>27.9</ele>
        <time>2026-03-27T14:28:10Z</time>
      </trkpt>
      <trkpt lat="43.48628" lon="6.59296">
        <ele>27.9</ele>
        <time>2026-03-27T14:28:11Z</time>
      </trkpt>
      <trkpt lat="43.48628" lon="6.59296">
        <ele>27.9</ele>
        <time>2026-03-27T14:28:12Z</time>
      </trkpt>
      <trkpt lat="43.48628" lon="6.59296">
        <ele>27.9</ele>
        <time>2026-03-27T14:28:13Z</time>
      </trkpt>
      <trkpt lat="43.48628" lon="6.59295">
        <ele>27.9</ele>
        <time>2026-03-27T14:28:14Z</time>
      </trkpt>
      <trkpt lat="43.48628" lon="6.59295">
        <ele>27.9</ele>
        <time>2026-03-27T14:28:15Z</time>
      </trkpt>
      <trkpt lat="43.48628" lon="6.59295">
        <ele>27.9</ele>
        <time>2026-03-27T14:28:16Z</time>
      </trkpt>
      <trkpt lat="43.48628" lon="6.59295">
        <ele>27.8</ele>
        <time>2026-03-27T14:28:17Z</time>
      </trkpt>
      <trkpt lat="43.48628" lon="6.59295">
        <ele>27.8</ele>
        <time>2026-03-27T14:28:18Z</time>
      </trkpt>
      <trkpt lat="43.48628" lon="6.59295">
        <ele>27.8</ele>
        <time>2026-03-27T14:28:19Z</time>
      </trkpt>
      <trkpt lat="43.48628" lon="6.59294">
        <ele>27.7</ele>
        <time>2026-03-27T14:28:20Z</time>
      </trkpt>
      <trkpt lat="43.48628" lon="6.59294">
        <ele>27.8</ele>
        <time>2026-03-27T14:28:21Z</time>
      </trkpt>
      <trkpt lat="43.48628" lon="6.59294">
        <ele>27.8</ele>
        <time>2026-03-27T14:28:22Z</time>
      </trkpt>
      <trkpt lat="43.48628" lon="6.59294">
        <ele>27.8</ele>
        <time>2026-03-27T14:28:23Z</time>
      </trkpt>
      <trkpt lat="43.48628" lon="6.59294">
        <ele>27.8</ele>
        <time>2026-03-27T14:28:24Z</time>
      </trkpt>
      <trkpt lat="43.48628" lon="6.59294">
        <ele>27.8</ele>
        <time>2026-03-27T14:28:25Z</time>
      </trkpt>
      <trkpt lat="43.48627" lon="6.59294">
        <ele>27.8</ele>
        <time>2026-03-27T14:28:26Z</time>
      </trkpt>
      <trkpt lat="43.48627" lon="6.59294">
        <ele>27.8</ele>
        <time>2026-03-27T14:28:27Z</time>
      </trkpt>
      <trkpt lat="43.48627" lon="6.59294">
        <ele>27.8</ele>
        <time>2026-03-27T14:28:28Z</time>
      </trkpt>
      <trkpt lat="43.48627" lon="6.59294">
        <ele>27.8</ele>
        <time>2026-03-27T14:28:29Z</time>
      </trkpt>
      <trkpt lat="43.48627" lon="6.59293">
        <ele>27.7</ele>
        <time>2026-03-27T14:28:30Z</time>
      </trkpt>
      <trkpt lat="43.48628" lon="6.59294">
        <ele>27.6</ele>
        <time>2026-03-27T14:28:31Z</time>
      </trkpt>
      <trkpt lat="43.48628" lon="6.59293">
        <ele>27.5</ele>
        <time>2026-03-27T14:28:32Z</time>
      </trkpt>
      <trkpt lat="43.48628" lon="6.59293">
        <ele>27.5</ele>
        <time>2026-03-27T14:28:33Z</time>
      </trkpt>
      <trkpt lat="43.48628" lon="6.59294">
        <ele>27.5</ele>
        <time>2026-03-27T14:28:34Z</time>
      </trkpt>
      <trkpt lat="43.48628" lon="6.59294">
        <ele>27.5</ele>
        <time>2026-03-27T14:28:35Z</time>
      </trkpt>
      <trkpt lat="43.48628" lon="6.59294">
        <ele>27.5</ele>
        <time>2026-03-27T14:28:36Z</time>
      </trkpt>
      <trkpt lat="43.48628" lon="6.59294">
        <ele>27.5</ele>
        <time>2026-03-27T14:28:37Z</time>
      </trkpt>
      <trkpt lat="43.48629" lon="6.59294">
        <ele>27.6</ele>
        <time>2026-03-27T14:28:38Z</time>
      </trkpt>
      <trkpt lat="43.48629" lon="6.59294">
        <ele>27.7</ele>
        <time>2026-03-27T14:28:39Z</time>
      </trkpt>
      <trkpt lat="43.48629" lon="6.59294">
        <ele>27.8</ele>
        <time>2026-03-27T14:28:40Z</time>
      </trkpt>
      <trkpt lat="43.48629" lon="6.59294">
        <ele>27.8</ele>
        <time>2026-03-27T14:28:41Z</time>
      </trkpt>
      <trkpt lat="43.48629" lon="6.59294">
        <ele>27.9</ele>
        <time>2026-03-27T14:28:42Z</time>
      </trkpt>
      <trkpt lat="43.48629" lon="6.59294">
        <ele>28</ele>
        <time>2026-03-27T14:28:43Z</time>
      </trkpt>
      <trkpt lat="43.48628" lon="6.59294">
        <ele>28</ele>
        <time>2026-03-27T14:28:44Z</time>
      </trkpt>
      <trkpt lat="43.48628" lon="6.59294">
        <ele>28</ele>
        <time>2026-03-27T14:28:45Z</time>
      </trkpt>
      <trkpt lat="43.48628" lon="6.59294">
        <ele>27.9</ele>
        <time>2026-03-27T14:28:46Z</time>
      </trkpt>
      <trkpt lat="43.48628" lon="6.59294">
        <ele>27.9</ele>
        <time>2026-03-27T14:28:47Z</time>
      </trkpt>
      <trkpt lat="43.48629" lon="6.59294">
        <ele>27.8</ele>
        <time>2026-03-27T14:28:48Z</time>
      </trkpt>
      <trkpt lat="43.48629" lon="6.59295">
        <ele>27.8</ele>
        <time>2026-03-27T14:28:49Z</time>
      </trkpt>
      <trkpt lat="43.48629" lon="6.59295">
        <ele>27.7</ele>
        <time>2026-03-27T14:28:50Z</time>
      </trkpt>
      <trkpt lat="43.48629" lon="6.59295">
        <ele>27.8</ele>
        <time>2026-03-27T14:28:51Z</time>
      </trkpt>
      <trkpt lat="43.48629" lon="6.59295">
        <ele>27.7</ele>
        <time>2026-03-27T14:28:52Z</time>
      </trkpt>
      <trkpt lat="43.48629" lon="6.59295">
        <ele>27.7</ele>
        <time>2026-03-27T14:28:53Z</time>
      </trkpt>
      <trkpt lat="43.48629" lon="6.59295">
        <ele>27.7</ele>
        <time>2026-03-27T14:28:54Z</time>
      </trkpt>
      <trkpt lat="43.48629" lon="6.59295">
        <ele>27.7</ele>
        <time>2026-03-27T14:28:55Z</time>
      </trkpt>
      <trkpt lat="43.48629" lon="6.59295">
        <ele>27.7</ele>
        <time>2026-03-27T14:28:56Z</time>
      </trkpt>
      <trkpt lat="43.48629" lon="6.59295">
        <ele>27.8</ele>
        <time>2026-03-27T14:28:57Z</time>
      </trkpt>
      <trkpt lat="43.48629" lon="6.59295">
        <ele>27.9</ele>
        <time>2026-03-27T14:28:58Z</time>
      </trkpt>
      <trkpt lat="43.48629" lon="6.59294">
        <ele>27.9</ele>
        <time>2026-03-27T14:28:59Z</time>
      </trkpt>
      <trkpt lat="43.48629" lon="6.59295">
        <ele>28</ele>
        <time>2026-03-27T14:29:00Z</time>
      </trkpt>
      <trkpt lat="43.4863" lon="6.59294">
        <ele>28</ele>
        <time>2026-03-27T14:29:01Z</time>
      </trkpt>
      <trkpt lat="43.4863" lon="6.59295">
        <ele>28</ele>
        <time>2026-03-27T14:29:02Z</time>
      </trkpt>
      <trkpt lat="43.4863" lon="6.59295">
        <ele>28</ele>
        <time>2026-03-27T14:29:03Z</time>
      </trkpt>
      <trkpt lat="43.4863" lon="6.59295">
        <ele>28</ele>
        <time>2026-03-27T14:29:04Z</time>
      </trkpt>
      <trkpt lat="43.4863" lon="6.59295">
        <ele>28</ele>
        <time>2026-03-27T14:29:05Z</time>
      </trkpt>
      <trkpt lat="43.4863" lon="6.59295">
        <ele>28</ele>
        <time>2026-03-27T14:29:06Z</time>
      </trkpt>
      <trkpt lat="43.4863" lon="6.59295">
        <ele>27.9</ele>
        <time>2026-03-27T14:29:07Z</time>
      </trkpt>
      <trkpt lat="43.4863" lon="6.59294">
        <ele>27.9</ele>
        <time>2026-03-27T14:29:08Z</time>
      </trkpt>
      <trkpt lat="43.4863" lon="6.59294">
        <ele>28</ele>
        <time>2026-03-27T14:29:09Z</time>
      </trkpt>
      <trkpt lat="43.48629" lon="6.59294">
        <ele>28</ele>
        <time>2026-03-27T14:29:10Z</time>
      </trkpt>
      <trkpt lat="43.48629" lon="6.59294">
        <ele>28</ele>
        <time>2026-03-27T14:29:11Z</time>
      </trkpt>
      <trkpt lat="43.4863" lon="6.59294">
        <ele>28</ele>
        <time>2026-03-27T14:29:12Z</time>
      </trkpt>
      <trkpt lat="43.4863" lon="6.59294">
        <ele>28</ele>
        <time>2026-03-27T14:29:13Z</time>
      </trkpt>
      <trkpt lat="43.4863" lon="6.59294">
        <ele>28</ele>
        <time>2026-03-27T14:29:14Z</time>
      </trkpt>
      <trkpt lat="43.4863" lon="6.59294">
        <ele>28.1</ele>
        <time>2026-03-27T14:29:15Z</time>
      </trkpt>
      <trkpt lat="43.4863" lon="6.59294">
        <ele>28</ele>
        <time>2026-03-27T14:29:16Z</time>
      </trkpt>
      <trkpt lat="43.48631" lon="6.59295">
        <ele>28</ele>
        <time>2026-03-27T14:29:17Z</time>
      </trkpt>
      <trkpt lat="43.48631" lon="6.59295">
        <ele>28</ele>
        <time>2026-03-27T14:29:18Z</time>
      </trkpt>
      <trkpt lat="43.48631" lon="6.59295">
        <ele>28</ele>
        <time>2026-03-27T14:29:19Z</time>
      </trkpt>
      <trkpt lat="43.48631" lon="6.59295">
        <ele>27.9</ele>
        <time>2026-03-27T14:29:20Z</time>
      </trkpt>
      <trkpt lat="43.48631" lon="6.59295">
        <ele>27.9</ele>
        <time>2026-03-27T14:29:21Z</time>
      </trkpt>
      <trkpt lat="43.48631" lon="6.59295">
        <ele>27.9</ele>
        <time>2026-03-27T14:29:22Z</time>
      </trkpt>
      <trkpt lat="43.48631" lon="6.59295">
        <ele>28</ele>
        <time>2026-03-27T14:29:23Z</time>
      </trkpt>
      <trkpt lat="43.48631" lon="6.59295">
        <ele>27.9</ele>
        <time>2026-03-27T14:29:24Z</time>
      </trkpt>
      <trkpt lat="43.48632" lon="6.59295">
        <ele>27.9</ele>
        <time>2026-03-27T14:29:25Z</time>
      </trkpt>
      <trkpt lat="43.48632" lon="6.59295">
        <ele>28</ele>
        <time>2026-03-27T14:29:26Z</time>
      </trkpt>
      <trkpt lat="43.48632" lon="6.59295">
        <ele>28</ele>
        <time>2026-03-27T14:29:27Z</time>
      </trkpt>
      <trkpt lat="43.48633" lon="6.59295">
        <ele>28</ele>
        <time>2026-03-27T14:29:28Z</time>
      </trkpt>
      <trkpt lat="43.48633" lon="6.59295">
        <ele>28</ele>
        <time>2026-03-27T14:29:29Z</time>
      </trkpt>
      <trkpt lat="43.48633" lon="6.59295">
        <ele>28.1</ele>
        <time>2026-03-27T14:29:30Z</time>
      </trkpt>
      <trkpt lat="43.48633" lon="6.59296">
        <ele>28.1</ele>
        <time>2026-03-27T14:29:31Z</time>
      </trkpt>
      <trkpt lat="43.48633" lon="6.59296">
        <ele>28.1</ele>
        <time>2026-03-27T14:29:32Z</time>
      </trkpt>
      <trkpt lat="43.48633" lon="6.59296">
        <ele>28.1</ele>
        <time>2026-03-27T14:29:33Z</time>
      </trkpt>
      <trkpt lat="43.48633" lon="6.59296">
        <ele>28.1</ele>
        <time>2026-03-27T14:29:34Z</time>
      </trkpt>
      <trkpt lat="43.48633" lon="6.59296">
        <ele>28.1</ele>
        <time>2026-03-27T14:29:35Z</time>
      </trkpt>
      <trkpt lat="43.48633" lon="6.59296">
        <ele>28.1</ele>
        <time>2026-03-27T14:29:36Z</time>
      </trkpt>
      <trkpt lat="43.48633" lon="6.59295">
        <ele>28.1</ele>
        <time>2026-03-27T14:29:37Z</time>
      </trkpt>
      <trkpt lat="43.48634" lon="6.59295">
        <ele>28.2</ele>
        <time>2026-03-27T14:29:38Z</time>
      </trkpt>
      <trkpt lat="43.48634" lon="6.59294">
        <ele>28.2</ele>
        <time>2026-03-27T14:29:39Z</time>
      </trkpt>
      <trkpt lat="43.48634" lon="6.59294">
        <ele>28.3</ele>
        <time>2026-03-27T14:29:40Z</time>
      </trkpt>
      <trkpt lat="43.48635" lon="6.59293">
        <ele>28.4</ele>
        <time>2026-03-27T14:29:41Z</time>
      </trkpt>
      <trkpt lat="43.48635" lon="6.59293">
        <ele>28.4</ele>
        <time>2026-03-27T14:29:42Z</time>
      </trkpt>
      <trkpt lat="43.48635" lon="6.59292">
        <ele>28.5</ele>
        <time>2026-03-27T14:29:43Z</time>
      </trkpt>
      <trkpt lat="43.48636" lon="6.59292">
        <ele>28.5</ele>
        <time>2026-03-27T14:29:44Z</time>
      </trkpt>
      <trkpt lat="43.48637" lon="6.59291">
        <ele>28.5</ele>
        <time>2026-03-27T14:29:45Z</time>
      </trkpt>
      <trkpt lat="43.48638" lon="6.59291">
        <ele>28.4</ele>
        <time>2026-03-27T14:29:46Z</time>
      </trkpt>
      <trkpt lat="43.48639" lon="6.5929">
        <ele>28.4</ele>
        <time>2026-03-27T14:29:47Z</time>
      </trkpt>
      <trkpt lat="43.48639" lon="6.5929">
        <ele>28.4</ele>
        <time>2026-03-27T14:29:48Z</time>
      </trkpt>
      <trkpt lat="43.48639" lon="6.59289">
        <ele>28.5</ele>
        <time>2026-03-27T14:29:49Z</time>
      </trkpt>
      <trkpt lat="43.4864" lon="6.59288">
        <ele>28.5</ele>
        <time>2026-03-27T14:29:50Z</time>
      </trkpt>
      <trkpt lat="43.4864" lon="6.59288">
        <ele>28.5</ele>
        <time>2026-03-27T14:29:51Z</time>
      </trkpt>
      <trkpt lat="43.48641" lon="6.59287">
        <ele>28.5</ele>
        <time>2026-03-27T14:29:52Z</time>
      </trkpt>
      <trkpt lat="43.48641" lon="6.59287">
        <ele>28.5</ele>
        <time>2026-03-27T14:29:53Z</time>
      </trkpt>
      <trkpt lat="43.48642" lon="6.59287">
        <ele>28.6</ele>
        <time>2026-03-27T14:29:54Z</time>
      </trkpt>
      <trkpt lat="43.48642" lon="6.59286">
        <ele>28.6</ele>
        <time>2026-03-27T14:29:55Z</time>
      </trkpt>
      <trkpt lat="43.48643" lon="6.59286">
        <ele>28.7</ele>
        <time>2026-03-27T14:29:56Z</time>
      </trkpt>
      <trkpt lat="43.48644" lon="6.59286">
        <ele>28.7</ele>
        <time>2026-03-27T14:29:57Z</time>
      </trkpt>
      <trkpt lat="43.48644" lon="6.59286">
        <ele>28.6</ele>
        <time>2026-03-27T14:29:58Z</time>
      </trkpt>
      <trkpt lat="43.48645" lon="6.59286">
        <ele>28.5</ele>
        <time>2026-03-27T14:29:59Z</time>
      </trkpt>
      <trkpt lat="43.48646" lon="6.59286">
        <ele>28.3</ele>
        <time>2026-03-27T14:30:00Z</time>
      </trkpt>
      <trkpt lat="43.48647" lon="6.59286">
        <ele>28.2</ele>
        <time>2026-03-27T14:30:01Z</time>
      </trkpt>
      <trkpt lat="43.48648" lon="6.59286">
        <ele>28.2</ele>
        <time>2026-03-27T14:30:02Z</time>
      </trkpt>
      <trkpt lat="43.48649" lon="6.59286">
        <ele>28.2</ele>
        <time>2026-03-27T14:30:03Z</time>
      </trkpt>
      <trkpt lat="43.4865" lon="6.59286">
        <ele>28.1</ele>
        <time>2026-03-27T14:30:04Z</time>
      </trkpt>
      <trkpt lat="43.48651" lon="6.59285">
        <ele>28.1</ele>
        <time>2026-03-27T14:30:05Z</time>
      </trkpt>
      <trkpt lat="43.48652" lon="6.59285">
        <ele>28.1</ele>
        <time>2026-03-27T14:30:06Z</time>
      </trkpt>
      <trkpt lat="43.48653" lon="6.59285">
        <ele>28.1</ele>
        <time>2026-03-27T14:30:07Z</time>
      </trkpt>
      <trkpt lat="43.48654" lon="6.59286">
        <ele>28.1</ele>
        <time>2026-03-27T14:30:08Z</time>
      </trkpt>
      <trkpt lat="43.48654" lon="6.59286">
        <ele>28.1</ele>
        <time>2026-03-27T14:30:09Z</time>
      </trkpt>
      <trkpt lat="43.48655" lon="6.59285">
        <ele>28</ele>
        <time>2026-03-27T14:30:10Z</time>
      </trkpt>
      <trkpt lat="43.48656" lon="6.59284">
        <ele>28</ele>
        <time>2026-03-27T14:30:11Z</time>
      </trkpt>
      <trkpt lat="43.48656" lon="6.59283">
        <ele>27.9</ele>
        <time>2026-03-27T14:30:12Z</time>
      </trkpt>
      <trkpt lat="43.48656" lon="6.59281">
        <ele>28.9</ele>
        <time>2026-03-27T14:30:13Z</time>
      </trkpt>
      <trkpt lat="43.48656" lon="6.5928">
        <ele>28.6</ele>
        <time>2026-03-27T14:30:14Z</time>
      </trkpt>
      <trkpt lat="43.48656" lon="6.59278">
        <ele>28.6</ele>
        <time>2026-03-27T14:30:15Z</time>
      </trkpt>
      <trkpt lat="43.48657" lon="6.59277">
        <ele>28.8</ele>
        <time>2026-03-27T14:30:16Z</time>
      </trkpt>
      <trkpt lat="43.48657" lon="6.59276">
        <ele>28.9</ele>
        <time>2026-03-27T14:30:17Z</time>
      </trkpt>
      <trkpt lat="43.48658" lon="6.59275">
        <ele>28.9</ele>
        <time>2026-03-27T14:30:18Z</time>
      </trkpt>
      <trkpt lat="43.48659" lon="6.59274">
        <ele>28.9</ele>
        <time>2026-03-27T14:30:19Z</time>
      </trkpt>
      <trkpt lat="43.4866" lon="6.59273">
        <ele>29</ele>
        <time>2026-03-27T14:30:20Z</time>
      </trkpt>
      <trkpt lat="43.4866" lon="6.59271">
        <ele>29</ele>
        <time>2026-03-27T14:30:21Z</time>
      </trkpt>
      <trkpt lat="43.48661" lon="6.5927">
        <ele>29.1</ele>
        <time>2026-03-27T14:30:22Z</time>
      </trkpt>
      <trkpt lat="43.48662" lon="6.59269">
        <ele>29.1</ele>
        <time>2026-03-27T14:30:23Z</time>
      </trkpt>
      <trkpt lat="43.48663" lon="6.59268">
        <ele>29.1</ele>
        <time>2026-03-27T14:30:24Z</time>
      </trkpt>
      <trkpt lat="43.48664" lon="6.59267">
        <ele>29.2</ele>
        <time>2026-03-27T14:30:25Z</time>
      </trkpt>
      <trkpt lat="43.48665" lon="6.59266">
        <ele>29.2</ele>
        <time>2026-03-27T14:30:26Z</time>
      </trkpt>
      <trkpt lat="43.48666" lon="6.59266">
        <ele>29.2</ele>
        <time>2026-03-27T14:30:27Z</time>
      </trkpt>
      <trkpt lat="43.48667" lon="6.59265">
        <ele>29.3</ele>
        <time>2026-03-27T14:30:28Z</time>
      </trkpt>
      <trkpt lat="43.48668" lon="6.59264">
        <ele>29.3</ele>
        <time>2026-03-27T14:30:29Z</time>
      </trkpt>
      <trkpt lat="43.48669" lon="6.59264">
        <ele>29.2</ele>
        <time>2026-03-27T14:30:30Z</time>
      </trkpt>
      <trkpt lat="43.48669" lon="6.59263">
        <ele>29.2</ele>
        <time>2026-03-27T14:30:31Z</time>
      </trkpt>
      <trkpt lat="43.4867" lon="6.59261">
        <ele>29.1</ele>
        <time>2026-03-27T14:30:32Z</time>
      </trkpt>
      <trkpt lat="43.48671" lon="6.5926">
        <ele>29.1</ele>
        <time>2026-03-27T14:30:33Z</time>
      </trkpt>
      <trkpt lat="43.48672" lon="6.5926">
        <ele>29</ele>
        <time>2026-03-27T14:30:34Z</time>
      </trkpt>
      <trkpt lat="43.48674" lon="6.5926">
        <ele>29</ele>
        <time>2026-03-27T14:30:35Z</time>
      </trkpt>
      <trkpt lat="43.48675" lon="6.59259">
        <ele>29</ele>
        <time>2026-03-27T14:30:36Z</time>
      </trkpt>
      <trkpt lat="43.48676" lon="6.59258">
        <ele>29</ele>
        <time>2026-03-27T14:30:37Z</time>
      </trkpt>
      <trkpt lat="43.48677" lon="6.59258">
        <ele>28.8</ele>
        <time>2026-03-27T14:30:38Z</time>
      </trkpt>
      <trkpt lat="43.48678" lon="6.59257">
        <ele>28.8</ele>
        <time>2026-03-27T14:30:39Z</time>
      </trkpt>
      <trkpt lat="43.48679" lon="6.59256">
        <ele>28.8</ele>
        <time>2026-03-27T14:30:40Z</time>
      </trkpt>
      <trkpt lat="43.48679" lon="6.59255">
        <ele>28.8</ele>
        <time>2026-03-27T14:30:41Z</time>
      </trkpt>
      <trkpt lat="43.4868" lon="6.59254">
        <ele>28.9</ele>
        <time>2026-03-27T14:30:42Z</time>
      </trkpt>
      <trkpt lat="43.48681" lon="6.59254">
        <ele>28.9</ele>
        <time>2026-03-27T14:30:43Z</time>
      </trkpt>
      <trkpt lat="43.48682" lon="6.59253">
        <ele>28.9</ele>
        <time>2026-03-27T14:30:44Z</time>
      </trkpt>
      <trkpt lat="43.48683" lon="6.59253">
        <ele>28.9</ele>
        <time>2026-03-27T14:30:45Z</time>
      </trkpt>
      <trkpt lat="43.48684" lon="6.59252">
        <ele>28.9</ele>
        <time>2026-03-27T14:30:46Z</time>
      </trkpt>
      <trkpt lat="43.48686" lon="6.59252">
        <ele>29</ele>
        <time>2026-03-27T14:30:47Z</time>
      </trkpt>
      <trkpt lat="43.48687" lon="6.5925">
        <ele>29</ele>
        <time>2026-03-27T14:30:48Z</time>
      </trkpt>
      <trkpt lat="43.48688" lon="6.5925">
        <ele>29</ele>
        <time>2026-03-27T14:30:49Z</time>
      </trkpt>
      <trkpt lat="43.48689" lon="6.5925">
        <ele>28.9</ele>
        <time>2026-03-27T14:30:50Z</time>
      </trkpt>
      <trkpt lat="43.4869" lon="6.59249">
        <ele>28.9</ele>
        <time>2026-03-27T14:30:51Z</time>
      </trkpt>
      <trkpt lat="43.48692" lon="6.59248">
        <ele>28.8</ele>
        <time>2026-03-27T14:30:52Z</time>
      </trkpt>
      <trkpt lat="43.48693" lon="6.59248">
        <ele>28.7</ele>
        <time>2026-03-27T14:30:53Z</time>
      </trkpt>
      <trkpt lat="43.48694" lon="6.59247">
        <ele>28.7</ele>
        <time>2026-03-27T14:30:54Z</time>
      </trkpt>
      <trkpt lat="43.48695" lon="6.59246">
        <ele>28.6</ele>
        <time>2026-03-27T14:30:55Z</time>
      </trkpt>
      <trkpt lat="43.48695" lon="6.59246">
        <ele>28.6</ele>
        <time>2026-03-27T14:30:56Z</time>
      </trkpt>
      <trkpt lat="43.48696" lon="6.59245">
        <ele>28.7</ele>
        <time>2026-03-27T14:30:57Z</time>
      </trkpt>
      <trkpt lat="43.48698" lon="6.59245">
        <ele>28.6</ele>
        <time>2026-03-27T14:30:58Z</time>
      </trkpt>
      <trkpt lat="43.48699" lon="6.59244">
        <ele>28.6</ele>
        <time>2026-03-27T14:30:59Z</time>
      </trkpt>
      <trkpt lat="43.487" lon="6.59243">
        <ele>28.5</ele>
        <time>2026-03-27T14:31:00Z</time>
      </trkpt>
      <trkpt lat="43.48702" lon="6.59242">
        <ele>28.5</ele>
        <time>2026-03-27T14:31:01Z</time>
      </trkpt>
      <trkpt lat="43.48703" lon="6.59242">
        <ele>28.5</ele>
        <time>2026-03-27T14:31:02Z</time>
      </trkpt>
      <trkpt lat="43.48704" lon="6.59242">
        <ele>28.6</ele>
        <time>2026-03-27T14:31:03Z</time>
      </trkpt>
      <trkpt lat="43.48705" lon="6.59242">
        <ele>28.6</ele>
        <time>2026-03-27T14:31:04Z</time>
      </trkpt>
      <trkpt lat="43.48706" lon="6.59241">
        <ele>28.6</ele>
        <time>2026-03-27T14:31:05Z</time>
      </trkpt>
      <trkpt lat="43.48707" lon="6.59241">
        <ele>28.5</ele>
        <time>2026-03-27T14:31:06Z</time>
      </trkpt>
      <trkpt lat="43.48708" lon="6.5924">
        <ele>28.8</ele>
        <time>2026-03-27T14:31:07Z</time>
      </trkpt>
      <trkpt lat="43.48709" lon="6.5924">
        <ele>28.8</ele>
        <time>2026-03-27T14:31:08Z</time>
      </trkpt>
      <trkpt lat="43.4871" lon="6.5924">
        <ele>28.7</ele>
        <time>2026-03-27T14:31:09Z</time>
      </trkpt>
      <trkpt lat="43.48711" lon="6.59239">
        <ele>28.7</ele>
        <time>2026-03-27T14:31:10Z</time>
      </trkpt>
      <trkpt lat="43.48712" lon="6.59239">
        <ele>28.7</ele>
        <time>2026-03-27T14:31:11Z</time>
      </trkpt>
      <trkpt lat="43.48713" lon="6.59238">
        <ele>28.7</ele>
        <time>2026-03-27T14:31:12Z</time>
      </trkpt>
      <trkpt lat="43.48714" lon="6.59237">
        <ele>28.7</ele>
        <time>2026-03-27T14:31:13Z</time>
      </trkpt>
      <trkpt lat="43.48714" lon="6.59237">
        <ele>28.7</ele>
        <time>2026-03-27T14:31:14Z</time>
      </trkpt>
      <trkpt lat="43.48715" lon="6.59236">
        <ele>28.7</ele>
        <time>2026-03-27T14:31:15Z</time>
      </trkpt>
      <trkpt lat="43.48716" lon="6.59236">
        <ele>28.6</ele>
        <time>2026-03-27T14:31:16Z</time>
      </trkpt>
      <trkpt lat="43.48717" lon="6.59236">
        <ele>28.6</ele>
        <time>2026-03-27T14:31:17Z</time>
      </trkpt>
      <trkpt lat="43.48718" lon="6.59235">
        <ele>28.5</ele>
        <time>2026-03-27T14:31:18Z</time>
      </trkpt>
      <trkpt lat="43.48719" lon="6.59234">
        <ele>28.6</ele>
        <time>2026-03-27T14:31:19Z</time>
      </trkpt>
      <trkpt lat="43.4872" lon="6.59234">
        <ele>28.5</ele>
        <time>2026-03-27T14:31:20Z</time>
      </trkpt>
      <trkpt lat="43.48722" lon="6.59233">
        <ele>28.6</ele>
        <time>2026-03-27T14:31:21Z</time>
      </trkpt>
      <trkpt lat="43.48723" lon="6.59233">
        <ele>28.6</ele>
        <time>2026-03-27T14:31:22Z</time>
      </trkpt>
      <trkpt lat="43.48725" lon="6.59233">
        <ele>28.6</ele>
        <time>2026-03-27T14:31:23Z</time>
      </trkpt>
      <trkpt lat="43.48726" lon="6.59232">
        <ele>28.6</ele>
        <time>2026-03-27T14:31:24Z</time>
      </trkpt>
      <trkpt lat="43.48727" lon="6.59232">
        <ele>28.6</ele>
        <time>2026-03-27T14:31:25Z</time>
      </trkpt>
      <trkpt lat="43.48727" lon="6.59231">
        <ele>28.6</ele>
        <time>2026-03-27T14:31:26Z</time>
      </trkpt>
      <trkpt lat="43.48728" lon="6.5923">
        <ele>28.6</ele>
        <time>2026-03-27T14:31:27Z</time>
      </trkpt>
      <trkpt lat="43.48729" lon="6.59229">
        <ele>28.5</ele>
        <time>2026-03-27T14:31:28Z</time>
      </trkpt>
      <trkpt lat="43.4873" lon="6.59229">
        <ele>28.5</ele>
        <time>2026-03-27T14:31:29Z</time>
      </trkpt>
      <trkpt lat="43.48731" lon="6.59229">
        <ele>28.5</ele>
        <time>2026-03-27T14:31:30Z</time>
      </trkpt>
      <trkpt lat="43.48732" lon="6.59229">
        <ele>28.6</ele>
        <time>2026-03-27T14:31:31Z</time>
      </trkpt>
      <trkpt lat="43.48733" lon="6.59228">
        <ele>28.6</ele>
        <time>2026-03-27T14:31:32Z</time>
      </trkpt>
      <trkpt lat="43.48733" lon="6.59228">
        <ele>28.5</ele>
        <time>2026-03-27T14:31:33Z</time>
      </trkpt>
      <trkpt lat="43.48734" lon="6.59228">
        <ele>28.4</ele>
        <time>2026-03-27T14:31:34Z</time>
      </trkpt>
      <trkpt lat="43.48733" lon="6.59228">
        <ele>28.3</ele>
        <time>2026-03-27T14:31:35Z</time>
      </trkpt>
      <trkpt lat="43.48732" lon="6.59229">
        <ele>28.3</ele>
        <time>2026-03-27T14:31:36Z</time>
      </trkpt>
      <trkpt lat="43.48733" lon="6.5923">
        <ele>28.2</ele>
        <time>2026-03-27T14:31:37Z</time>
      </trkpt>
      <trkpt lat="43.48733" lon="6.5923">
        <ele>28</ele>
        <time>2026-03-27T14:31:38Z</time>
      </trkpt>
      <trkpt lat="43.48733" lon="6.5923">
        <ele>28</ele>
        <time>2026-03-27T14:31:39Z</time>
      </trkpt>
      <trkpt lat="43.48733" lon="6.59231">
        <ele>28</ele>
        <time>2026-03-27T14:31:40Z</time>
      </trkpt>
      <trkpt lat="43.48734" lon="6.59231">
        <ele>27.9</ele>
        <time>2026-03-27T14:31:41Z</time>
      </trkpt>
      <trkpt lat="43.48734" lon="6.59232">
        <ele>27.8</ele>
        <time>2026-03-27T14:31:42Z</time>
      </trkpt>
      <trkpt lat="43.48734" lon="6.59234">
        <ele>27.8</ele>
        <time>2026-03-27T14:31:43Z</time>
      </trkpt>
      <trkpt lat="43.48735" lon="6.59235">
        <ele>27.6</ele>
        <time>2026-03-27T14:31:44Z</time>
      </trkpt>
      <trkpt lat="43.48735" lon="6.59236">
        <ele>27.5</ele>
        <time>2026-03-27T14:31:45Z</time>
      </trkpt>
      <trkpt lat="43.48736" lon="6.59237">
        <ele>27.3</ele>
        <time>2026-03-27T14:31:46Z</time>
      </trkpt>
      <trkpt lat="43.48737" lon="6.59238">
        <ele>27.3</ele>
        <time>2026-03-27T14:31:47Z</time>
      </trkpt>
      <trkpt lat="43.48738" lon="6.59239">
        <ele>27.2</ele>
        <time>2026-03-27T14:31:48Z</time>
      </trkpt>
      <trkpt lat="43.48739" lon="6.5924">
        <ele>27.2</ele>
        <time>2026-03-27T14:31:49Z</time>
      </trkpt>
      <trkpt lat="43.4874" lon="6.59241">
        <ele>27.2</ele>
        <time>2026-03-27T14:31:50Z</time>
      </trkpt>
      <trkpt lat="43.48741" lon="6.59242">
        <ele>27.1</ele>
        <time>2026-03-27T14:31:51Z</time>
      </trkpt>
      <trkpt lat="43.48742" lon="6.59242">
        <ele>27</ele>
        <time>2026-03-27T14:31:52Z</time>
      </trkpt>
      <trkpt lat="43.48743" lon="6.59242">
        <ele>26.9</ele>
        <time>2026-03-27T14:31:53Z</time>
      </trkpt>
      <trkpt lat="43.48745" lon="6.59242">
        <ele>26.7</ele>
        <time>2026-03-27T14:31:54Z</time>
      </trkpt>
      <trkpt lat="43.48746" lon="6.59241">
        <ele>26.6</ele>
        <time>2026-03-27T14:31:55Z</time>
      </trkpt>
      <trkpt lat="43.48747" lon="6.59241">
        <ele>26.5</ele>
        <time>2026-03-27T14:31:56Z</time>
      </trkpt>
      <trkpt lat="43.48748" lon="6.5924">
        <ele>26.4</ele>
        <time>2026-03-27T14:31:57Z</time>
      </trkpt>
      <trkpt lat="43.48749" lon="6.5924">
        <ele>26.4</ele>
        <time>2026-03-27T14:31:58Z</time>
      </trkpt>
      <trkpt lat="43.4875" lon="6.59239">
        <ele>26.4</ele>
        <time>2026-03-27T14:31:59Z</time>
      </trkpt>
      <trkpt lat="43.48751" lon="6.59239">
        <ele>26.4</ele>
        <time>2026-03-27T14:32:00Z</time>
      </trkpt>
      <trkpt lat="43.48752" lon="6.59239">
        <ele>26.4</ele>
        <time>2026-03-27T14:32:01Z</time>
      </trkpt>
      <trkpt lat="43.48753" lon="6.59239">
        <ele>26.4</ele>
        <time>2026-03-27T14:32:02Z</time>
      </trkpt>
      <trkpt lat="43.48754" lon="6.59239">
        <ele>26.5</ele>
        <time>2026-03-27T14:32:03Z</time>
      </trkpt>
      <trkpt lat="43.48755" lon="6.59239">
        <ele>26.3</ele>
        <time>2026-03-27T14:32:04Z</time>
      </trkpt>
      <trkpt lat="43.48756" lon="6.59239">
        <ele>26.3</ele>
        <time>2026-03-27T14:32:05Z</time>
      </trkpt>
      <trkpt lat="43.48757" lon="6.5924">
        <ele>26.2</ele>
        <time>2026-03-27T14:32:06Z</time>
      </trkpt>
      <trkpt lat="43.48758" lon="6.5924">
        <ele>26.2</ele>
        <time>2026-03-27T14:32:07Z</time>
      </trkpt>
      <trkpt lat="43.48758" lon="6.5924">
        <ele>26.1</ele>
        <time>2026-03-27T14:32:08Z</time>
      </trkpt>
      <trkpt lat="43.48759" lon="6.59239">
        <ele>26</ele>
        <time>2026-03-27T14:32:09Z</time>
      </trkpt>
      <trkpt lat="43.4876" lon="6.59239">
        <ele>25.9</ele>
        <time>2026-03-27T14:32:10Z</time>
      </trkpt>
      <trkpt lat="43.48761" lon="6.59238">
        <ele>25.9</ele>
        <time>2026-03-27T14:32:11Z</time>
      </trkpt>
      <trkpt lat="43.48762" lon="6.59238">
        <ele>25.9</ele>
        <time>2026-03-27T14:32:12Z</time>
      </trkpt>
      <trkpt lat="43.48762" lon="6.59237">
        <ele>25.9</ele>
        <time>2026-03-27T14:32:13Z</time>
      </trkpt>
      <trkpt lat="43.48763" lon="6.59237">
        <ele>25.9</ele>
        <time>2026-03-27T14:32:14Z</time>
      </trkpt>
      <trkpt lat="43.48763" lon="6.59237">
        <ele>25.9</ele>
        <time>2026-03-27T14:32:15Z</time>
      </trkpt>
      <trkpt lat="43.48763" lon="6.59237">
        <ele>25.8</ele>
        <time>2026-03-27T14:32:16Z</time>
      </trkpt>
      <trkpt lat="43.48763" lon="6.59237">
        <ele>25.8</ele>
        <time>2026-03-27T14:32:17Z</time>
      </trkpt>
      <trkpt lat="43.48763" lon="6.59237">
        <ele>25.8</ele>
        <time>2026-03-27T14:32:18Z</time>
      </trkpt>
      <trkpt lat="43.48763" lon="6.59237">
        <ele>25.8</ele>
        <time>2026-03-27T14:32:19Z</time>
      </trkpt>
      <trkpt lat="43.48763" lon="6.59237">
        <ele>25.8</ele>
        <time>2026-03-27T14:32:20Z</time>
      </trkpt>
      <trkpt lat="43.48763" lon="6.59237">
        <ele>25.8</ele>
        <time>2026-03-27T14:32:21Z</time>
      </trkpt>
      <trkpt lat="43.48763" lon="6.59237">
        <ele>25.8</ele>
        <time>2026-03-27T14:32:22Z</time>
      </trkpt>
      <trkpt lat="43.48763" lon="6.59236">
        <ele>25.8</ele>
        <time>2026-03-27T14:32:23Z</time>
      </trkpt>
      <trkpt lat="43.48763" lon="6.59235">
        <ele>25.8</ele>
        <time>2026-03-27T14:32:24Z</time>
      </trkpt>
      <trkpt lat="43.48763" lon="6.59235">
        <ele>25.8</ele>
        <time>2026-03-27T14:32:25Z</time>
      </trkpt>
      <trkpt lat="43.48763" lon="6.59235">
        <ele>25.8</ele>
        <time>2026-03-27T14:32:26Z</time>
      </trkpt>
      <trkpt lat="43.48763" lon="6.59235">
        <ele>25.7</ele>
        <time>2026-03-27T14:32:27Z</time>
      </trkpt>
      <trkpt lat="43.48763" lon="6.59235">
        <ele>25.9</ele>
        <time>2026-03-27T14:32:28Z</time>
      </trkpt>
      <trkpt lat="43.48764" lon="6.59235">
        <ele>25.9</ele>
        <time>2026-03-27T14:32:29Z</time>
      </trkpt>
      <trkpt lat="43.48763" lon="6.59235">
        <ele>26</ele>
        <time>2026-03-27T14:32:30Z</time>
      </trkpt>
      <trkpt lat="43.48763" lon="6.59235">
        <ele>26</ele>
        <time>2026-03-27T14:32:31Z</time>
      </trkpt>
      <trkpt lat="43.48764" lon="6.59235">
        <ele>26</ele>
        <time>2026-03-27T14:32:32Z</time>
      </trkpt>
      <trkpt lat="43.48764" lon="6.59235">
        <ele>26</ele>
        <time>2026-03-27T14:32:33Z</time>
      </trkpt>
      <trkpt lat="43.48764" lon="6.59235">
        <ele>26</ele>
        <time>2026-03-27T14:32:34Z</time>
      </trkpt>
      <trkpt lat="43.48765" lon="6.59235">
        <ele>25.9</ele>
        <time>2026-03-27T14:32:35Z</time>
      </trkpt>
      <trkpt lat="43.48765" lon="6.59235">
        <ele>25.9</ele>
        <time>2026-03-27T14:32:36Z</time>
      </trkpt>
      <trkpt lat="43.48765" lon="6.59234">
        <ele>25.9</ele>
        <time>2026-03-27T14:32:37Z</time>
      </trkpt>
      <trkpt lat="43.48766" lon="6.59234">
        <ele>26.1</ele>
        <time>2026-03-27T14:32:38Z</time>
      </trkpt>
      <trkpt lat="43.48768" lon="6.59233">
        <ele>26.2</ele>
        <time>2026-03-27T14:32:39Z</time>
      </trkpt>
      <trkpt lat="43.48769" lon="6.59233">
        <ele>26.1</ele>
        <time>2026-03-27T14:32:40Z</time>
      </trkpt>
      <trkpt lat="43.4877" lon="6.59232">
        <ele>26.1</ele>
        <time>2026-03-27T14:32:41Z</time>
      </trkpt>
      <trkpt lat="43.48771" lon="6.59231">
        <ele>26.1</ele>
        <time>2026-03-27T14:32:42Z</time>
      </trkpt>
      <trkpt lat="43.48772" lon="6.59231">
        <ele>26.1</ele>
        <time>2026-03-27T14:32:43Z</time>
      </trkpt>
      <trkpt lat="43.48774" lon="6.59231">
        <ele>26.2</ele>
        <time>2026-03-27T14:32:44Z</time>
      </trkpt>
      <trkpt lat="43.48775" lon="6.5923">
        <ele>26.2</ele>
        <time>2026-03-27T14:32:45Z</time>
      </trkpt>
      <trkpt lat="43.48776" lon="6.5923">
        <ele>26.2</ele>
        <time>2026-03-27T14:32:46Z</time>
      </trkpt>
      <trkpt lat="43.48778" lon="6.5923">
        <ele>26.2</ele>
        <time>2026-03-27T14:32:47Z</time>
      </trkpt>
      <trkpt lat="43.48779" lon="6.5923">
        <ele>26.2</ele>
        <time>2026-03-27T14:32:48Z</time>
      </trkpt>
      <trkpt lat="43.4878" lon="6.59229">
        <ele>26.2</ele>
        <time>2026-03-27T14:32:49Z</time>
      </trkpt>
      <trkpt lat="43.48781" lon="6.59229">
        <ele>26.2</ele>
        <time>2026-03-27T14:32:50Z</time>
      </trkpt>
      <trkpt lat="43.48782" lon="6.59228">
        <ele>26.1</ele>
        <time>2026-03-27T14:32:51Z</time>
      </trkpt>
      <trkpt lat="43.48783" lon="6.59227">
        <ele>26.1</ele>
        <time>2026-03-27T14:32:52Z</time>
      </trkpt>
      <trkpt lat="43.48784" lon="6.59227">
        <ele>26</ele>
        <time>2026-03-27T14:32:53Z</time>
      </trkpt>
      <trkpt lat="43.48785" lon="6.59226">
        <ele>26</ele>
        <time>2026-03-27T14:32:54Z</time>
      </trkpt>
      <trkpt lat="43.48787" lon="6.59225">
        <ele>26</ele>
        <time>2026-03-27T14:32:55Z</time>
      </trkpt>
      <trkpt lat="43.48788" lon="6.59225">
        <ele>26</ele>
        <time>2026-03-27T14:32:56Z</time>
      </trkpt>
      <trkpt lat="43.48789" lon="6.59224">
        <ele>26</ele>
        <time>2026-03-27T14:32:57Z</time>
      </trkpt>
      <trkpt lat="43.4879" lon="6.59223">
        <ele>26</ele>
        <time>2026-03-27T14:32:58Z</time>
      </trkpt>
      <trkpt lat="43.48791" lon="6.59222">
        <ele>26</ele>
        <time>2026-03-27T14:32:59Z</time>
      </trkpt>
      <trkpt lat="43.48792" lon="6.59222">
        <ele>26</ele>
        <time>2026-03-27T14:33:00Z</time>
      </trkpt>
      <trkpt lat="43.48794" lon="6.59221">
        <ele>26</ele>
        <time>2026-03-27T14:33:01Z</time>
      </trkpt>
      <trkpt lat="43.48795" lon="6.59222">
        <ele>26</ele>
        <time>2026-03-27T14:33:02Z</time>
      </trkpt>
      <trkpt lat="43.48796" lon="6.59221">
        <ele>26</ele>
        <time>2026-03-27T14:33:03Z</time>
      </trkpt>
      <trkpt lat="43.48797" lon="6.59221">
        <ele>26.1</ele>
        <time>2026-03-27T14:33:04Z</time>
      </trkpt>
      <trkpt lat="43.48797" lon="6.59221">
        <ele>26</ele>
        <time>2026-03-27T14:33:05Z</time>
      </trkpt>
      <trkpt lat="43.48798" lon="6.5922">
        <ele>25.9</ele>
        <time>2026-03-27T14:33:06Z</time>
      </trkpt>
      <trkpt lat="43.48799" lon="6.5922">
        <ele>25.9</ele>
        <time>2026-03-27T14:33:07Z</time>
      </trkpt>
      <trkpt lat="43.488" lon="6.5922">
        <ele>25.8</ele>
        <time>2026-03-27T14:33:08Z</time>
      </trkpt>
      <trkpt lat="43.48802" lon="6.5922">
        <ele>25.9</ele>
        <time>2026-03-27T14:33:09Z</time>
      </trkpt>
      <trkpt lat="43.48803" lon="6.59219">
        <ele>26</ele>
        <time>2026-03-27T14:33:10Z</time>
      </trkpt>
      <trkpt lat="43.48804" lon="6.59219">
        <ele>26.1</ele>
        <time>2026-03-27T14:33:11Z</time>
      </trkpt>
      <trkpt lat="43.48804" lon="6.59217">
        <ele>26.1</ele>
        <time>2026-03-27T14:33:12Z</time>
      </trkpt>
      <trkpt lat="43.48804" lon="6.59216">
        <ele>25.9</ele>
        <time>2026-03-27T14:33:13Z</time>
      </trkpt>
      <trkpt lat="43.48804" lon="6.59214">
        <ele>25.8</ele>
        <time>2026-03-27T14:33:14Z</time>
      </trkpt>
      <trkpt lat="43.48804" lon="6.59212">
        <ele>25.7</ele>
        <time>2026-03-27T14:33:15Z</time>
      </trkpt>
      <trkpt lat="43.48803" lon="6.59211">
        <ele>25.7</ele>
        <time>2026-03-27T14:33:16Z</time>
      </trkpt>
      <trkpt lat="43.48803" lon="6.59209">
        <ele>25.8</ele>
        <time>2026-03-27T14:33:17Z</time>
      </trkpt>
      <trkpt lat="43.48801" lon="6.59207">
        <ele>25.9</ele>
        <time>2026-03-27T14:33:18Z</time>
      </trkpt>
      <trkpt lat="43.48801" lon="6.59207">
        <ele>26.1</ele>
        <time>2026-03-27T14:33:19Z</time>
      </trkpt>
      <trkpt lat="43.48801" lon="6.59206">
        <ele>26.2</ele>
        <time>2026-03-27T14:33:20Z</time>
      </trkpt>
      <trkpt lat="43.48801" lon="6.59205">
        <ele>26.4</ele>
        <time>2026-03-27T14:33:21Z</time>
      </trkpt>
      <trkpt lat="43.488" lon="6.59204">
        <ele>26.5</ele>
        <time>2026-03-27T14:33:22Z</time>
      </trkpt>
      <trkpt lat="43.488" lon="6.59203">
        <ele>26.6</ele>
        <time>2026-03-27T14:33:23Z</time>
      </trkpt>
      <trkpt lat="43.488" lon="6.59202">
        <ele>26.7</ele>
        <time>2026-03-27T14:33:24Z</time>
      </trkpt>
      <trkpt lat="43.488" lon="6.592">
        <ele>27</ele>
        <time>2026-03-27T14:33:25Z</time>
      </trkpt>
      <trkpt lat="43.488" lon="6.59198">
        <ele>27.2</ele>
        <time>2026-03-27T14:33:26Z</time>
      </trkpt>
      <trkpt lat="43.48801" lon="6.59197">
        <ele>27.4</ele>
        <time>2026-03-27T14:33:27Z</time>
      </trkpt>
      <trkpt lat="43.48801" lon="6.59196">
        <ele>27.5</ele>
        <time>2026-03-27T14:33:28Z</time>
      </trkpt>
      <trkpt lat="43.48802" lon="6.59196">
        <ele>27.7</ele>
        <time>2026-03-27T14:33:29Z</time>
      </trkpt>
      <trkpt lat="43.48802" lon="6.59195">
        <ele>28</ele>
        <time>2026-03-27T14:33:30Z</time>
      </trkpt>
      <trkpt lat="43.48803" lon="6.59194">
        <ele>28.1</ele>
        <time>2026-03-27T14:33:31Z</time>
      </trkpt>
      <trkpt lat="43.48804" lon="6.59194">
        <ele>28.3</ele>
        <time>2026-03-27T14:33:32Z</time>
      </trkpt>
      <trkpt lat="43.48806" lon="6.59193">
        <ele>28.4</ele>
        <time>2026-03-27T14:33:33Z</time>
      </trkpt>
      <trkpt lat="43.48807" lon="6.59193">
        <ele>28.5</ele>
        <time>2026-03-27T14:33:34Z</time>
      </trkpt>
      <trkpt lat="43.48808" lon="6.59193">
        <ele>28.6</ele>
        <time>2026-03-27T14:33:35Z</time>
      </trkpt>
      <trkpt lat="43.48809" lon="6.59192">
        <ele>28.6</ele>
        <time>2026-03-27T14:33:36Z</time>
      </trkpt>
      <trkpt lat="43.4881" lon="6.59192">
        <ele>28.7</ele>
        <time>2026-03-27T14:33:37Z</time>
      </trkpt>
      <trkpt lat="43.48811" lon="6.59192">
        <ele>28.8</ele>
        <time>2026-03-27T14:33:38Z</time>
      </trkpt>
      <trkpt lat="43.48812" lon="6.59192">
        <ele>28.8</ele>
        <time>2026-03-27T14:33:39Z</time>
      </trkpt>
      <trkpt lat="43.48814" lon="6.59191">
        <ele>28.9</ele>
        <time>2026-03-27T14:33:40Z</time>
      </trkpt>
      <trkpt lat="43.48815" lon="6.59191">
        <ele>28.9</ele>
        <time>2026-03-27T14:33:41Z</time>
      </trkpt>
      <trkpt lat="43.48815" lon="6.59191">
        <ele>28.9</ele>
        <time>2026-03-27T14:33:42Z</time>
      </trkpt>
      <trkpt lat="43.48816" lon="6.59191">
        <ele>28.9</ele>
        <time>2026-03-27T14:33:43Z</time>
      </trkpt>
      <trkpt lat="43.48817" lon="6.5919">
        <ele>28.9</ele>
        <time>2026-03-27T14:33:44Z</time>
      </trkpt>
      <trkpt lat="43.48818" lon="6.5919">
        <ele>29</ele>
        <time>2026-03-27T14:33:45Z</time>
      </trkpt>
      <trkpt lat="43.4882" lon="6.5919">
        <ele>29</ele>
        <time>2026-03-27T14:33:46Z</time>
      </trkpt>
      <trkpt lat="43.48821" lon="6.5919">
        <ele>29.1</ele>
        <time>2026-03-27T14:33:47Z</time>
      </trkpt>
      <trkpt lat="43.48822" lon="6.5919">
        <ele>29.2</ele>
        <time>2026-03-27T14:33:48Z</time>
      </trkpt>
      <trkpt lat="43.48822" lon="6.5919">
        <ele>29.2</ele>
        <time>2026-03-27T14:33:49Z</time>
      </trkpt>
      <trkpt lat="43.48824" lon="6.59189">
        <ele>29.2</ele>
        <time>2026-03-27T14:33:50Z</time>
      </trkpt>
      <trkpt lat="43.48825" lon="6.59189">
        <ele>29.1</ele>
        <time>2026-03-27T14:33:51Z</time>
      </trkpt>
      <trkpt lat="43.48826" lon="6.59188">
        <ele>29.2</ele>
        <time>2026-03-27T14:33:52Z</time>
      </trkpt>
      <trkpt lat="43.48827" lon="6.59188">
        <ele>29.3</ele>
        <time>2026-03-27T14:33:53Z</time>
      </trkpt>
      <trkpt lat="43.48827" lon="6.59188">
        <ele>29.3</ele>
        <time>2026-03-27T14:33:54Z</time>
      </trkpt>
      <trkpt lat="43.48829" lon="6.59187">
        <ele>29.4</ele>
        <time>2026-03-27T14:33:55Z</time>
      </trkpt>
      <trkpt lat="43.4883" lon="6.59187">
        <ele>29.4</ele>
        <time>2026-03-27T14:33:56Z</time>
      </trkpt>
      <trkpt lat="43.48831" lon="6.59187">
        <ele>29.5</ele>
        <time>2026-03-27T14:33:57Z</time>
      </trkpt>
      <trkpt lat="43.48832" lon="6.59186">
        <ele>29.5</ele>
        <time>2026-03-27T14:33:58Z</time>
      </trkpt>
      <trkpt lat="43.48833" lon="6.59186">
        <ele>29.4</ele>
        <time>2026-03-27T14:33:59Z</time>
      </trkpt>
      <trkpt lat="43.48834" lon="6.59185">
        <ele>29.4</ele>
        <time>2026-03-27T14:34:00Z</time>
      </trkpt>
      <trkpt lat="43.48835" lon="6.59185">
        <ele>29.5</ele>
        <time>2026-03-27T14:34:01Z</time>
      </trkpt>
      <trkpt lat="43.48837" lon="6.59185">
        <ele>29.6</ele>
        <time>2026-03-27T14:34:02Z</time>
      </trkpt>
      <trkpt lat="43.48838" lon="6.59185">
        <ele>29.6</ele>
        <time>2026-03-27T14:34:03Z</time>
      </trkpt>
      <trkpt lat="43.48839" lon="6.59185">
        <ele>29.7</ele>
        <time>2026-03-27T14:34:04Z</time>
      </trkpt>
      <trkpt lat="43.48841" lon="6.59184">
        <ele>29.7</ele>
        <time>2026-03-27T14:34:05Z</time>
      </trkpt>
      <trkpt lat="43.48842" lon="6.59184">
        <ele>29.7</ele>
        <time>2026-03-27T14:34:06Z</time>
      </trkpt>
      <trkpt lat="43.48843" lon="6.59184">
        <ele>29.6</ele>
        <time>2026-03-27T14:34:07Z</time>
      </trkpt>
      <trkpt lat="43.48844" lon="6.59183">
        <ele>29.7</ele>
        <time>2026-03-27T14:34:08Z</time>
      </trkpt>
      <trkpt lat="43.48845" lon="6.59183">
        <ele>29.6</ele>
        <time>2026-03-27T14:34:09Z</time>
      </trkpt>
      <trkpt lat="43.48847" lon="6.59183">
        <ele>29.7</ele>
        <time>2026-03-27T14:34:10Z</time>
      </trkpt>
      <trkpt lat="43.48848" lon="6.59183">
        <ele>29.8</ele>
        <time>2026-03-27T14:34:11Z</time>
      </trkpt>
      <trkpt lat="43.48849" lon="6.59183">
        <ele>29.6</ele>
        <time>2026-03-27T14:34:12Z</time>
      </trkpt>
      <trkpt lat="43.4885" lon="6.59182">
        <ele>29.6</ele>
        <time>2026-03-27T14:34:13Z</time>
      </trkpt>
      <trkpt lat="43.48851" lon="6.59183">
        <ele>29.6</ele>
        <time>2026-03-27T14:34:14Z</time>
      </trkpt>
      <trkpt lat="43.48852" lon="6.59183">
        <ele>29.6</ele>
        <time>2026-03-27T14:34:15Z</time>
      </trkpt>
      <trkpt lat="43.48854" lon="6.59183">
        <ele>29.6</ele>
        <time>2026-03-27T14:34:16Z</time>
      </trkpt>
      <trkpt lat="43.48855" lon="6.59183">
        <ele>29.5</ele>
        <time>2026-03-27T14:34:17Z</time>
      </trkpt>
      <trkpt lat="43.48856" lon="6.59183">
        <ele>29.5</ele>
        <time>2026-03-27T14:34:18Z</time>
      </trkpt>
      <trkpt lat="43.48857" lon="6.59183">
        <ele>29.4</ele>
        <time>2026-03-27T14:34:19Z</time>
      </trkpt>
      <trkpt lat="43.48859" lon="6.59183">
        <ele>29.4</ele>
        <time>2026-03-27T14:34:20Z</time>
      </trkpt>
      <trkpt lat="43.4886" lon="6.59183">
        <ele>29.4</ele>
        <time>2026-03-27T14:34:21Z</time>
      </trkpt>
      <trkpt lat="43.48861" lon="6.59184">
        <ele>29.5</ele>
        <time>2026-03-27T14:34:22Z</time>
      </trkpt>
      <trkpt lat="43.48862" lon="6.59184">
        <ele>29.5</ele>
        <time>2026-03-27T14:34:23Z</time>
      </trkpt>
      <trkpt lat="43.48863" lon="6.59184">
        <ele>29.5</ele>
        <time>2026-03-27T14:34:24Z</time>
      </trkpt>
      <trkpt lat="43.48864" lon="6.59184">
        <ele>29.6</ele>
        <time>2026-03-27T14:34:25Z</time>
      </trkpt>
      <trkpt lat="43.48865" lon="6.59185">
        <ele>29.6</ele>
        <time>2026-03-27T14:34:26Z</time>
      </trkpt>
      <trkpt lat="43.48866" lon="6.59185">
        <ele>29.6</ele>
        <time>2026-03-27T14:34:27Z</time>
      </trkpt>
      <trkpt lat="43.48867" lon="6.59185">
        <ele>29.6</ele>
        <time>2026-03-27T14:34:28Z</time>
      </trkpt>
      <trkpt lat="43.48868" lon="6.59185">
        <ele>29.6</ele>
        <time>2026-03-27T14:34:29Z</time>
      </trkpt>
      <trkpt lat="43.48869" lon="6.59184">
        <ele>29.8</ele>
        <time>2026-03-27T14:34:30Z</time>
      </trkpt>
      <trkpt lat="43.4887" lon="6.59185">
        <ele>29.8</ele>
        <time>2026-03-27T14:34:31Z</time>
      </trkpt>
      <trkpt lat="43.48871" lon="6.59184">
        <ele>29.7</ele>
        <time>2026-03-27T14:34:32Z</time>
      </trkpt>
      <trkpt lat="43.48872" lon="6.59184">
        <ele>29.7</ele>
        <time>2026-03-27T14:34:33Z</time>
      </trkpt>
      <trkpt lat="43.48873" lon="6.59185">
        <ele>29.6</ele>
        <time>2026-03-27T14:34:34Z</time>
      </trkpt>
      <trkpt lat="43.48874" lon="6.59185">
        <ele>29.5</ele>
        <time>2026-03-27T14:34:35Z</time>
      </trkpt>
      <trkpt lat="43.48875" lon="6.59185">
        <ele>29.6</ele>
        <time>2026-03-27T14:34:36Z</time>
      </trkpt>
      <trkpt lat="43.48877" lon="6.59185">
        <ele>29.6</ele>
        <time>2026-03-27T14:34:37Z</time>
      </trkpt>
      <trkpt lat="43.48878" lon="6.59186">
        <ele>29.5</ele>
        <time>2026-03-27T14:34:38Z</time>
      </trkpt>
      <trkpt lat="43.48879" lon="6.59186">
        <ele>29.4</ele>
        <time>2026-03-27T14:34:39Z</time>
      </trkpt>
      <trkpt lat="43.4888" lon="6.59186">
        <ele>29.5</ele>
        <time>2026-03-27T14:34:40Z</time>
      </trkpt>
      <trkpt lat="43.48881" lon="6.59186">
        <ele>29.5</ele>
        <time>2026-03-27T14:34:41Z</time>
      </trkpt>
      <trkpt lat="43.48882" lon="6.59186">
        <ele>29.5</ele>
        <time>2026-03-27T14:34:42Z</time>
      </trkpt>
      <trkpt lat="43.48883" lon="6.59187">
        <ele>29.5</ele>
        <time>2026-03-27T14:34:43Z</time>
      </trkpt>
      <trkpt lat="43.48884" lon="6.59187">
        <ele>29.5</ele>
        <time>2026-03-27T14:34:44Z</time>
      </trkpt>
      <trkpt lat="43.48885" lon="6.59187">
        <ele>29.5</ele>
        <time>2026-03-27T14:34:45Z</time>
      </trkpt>
      <trkpt lat="43.48887" lon="6.59188">
        <ele>29.5</ele>
        <time>2026-03-27T14:34:46Z</time>
      </trkpt>
      <trkpt lat="43.48887" lon="6.59188">
        <ele>29.5</ele>
        <time>2026-03-27T14:34:47Z</time>
      </trkpt>
      <trkpt lat="43.48889" lon="6.59188">
        <ele>29.6</ele>
        <time>2026-03-27T14:34:48Z</time>
      </trkpt>
      <trkpt lat="43.4889" lon="6.59188">
        <ele>29.6</ele>
        <time>2026-03-27T14:34:49Z</time>
      </trkpt>
      <trkpt lat="43.48891" lon="6.59189">
        <ele>29.6</ele>
        <time>2026-03-27T14:34:50Z</time>
      </trkpt>
      <trkpt lat="43.48892" lon="6.5919">
        <ele>29.4</ele>
        <time>2026-03-27T14:34:51Z</time>
      </trkpt>
      <trkpt lat="43.48893" lon="6.5919">
        <ele>29.2</ele>
        <time>2026-03-27T14:34:52Z</time>
      </trkpt>
      <trkpt lat="43.48894" lon="6.59191">
        <ele>29.2</ele>
        <time>2026-03-27T14:34:53Z</time>
      </trkpt>
      <trkpt lat="43.48894" lon="6.59191">
        <ele>29.2</ele>
        <time>2026-03-27T14:34:54Z</time>
      </trkpt>
      <trkpt lat="43.48895" lon="6.59191">
        <ele>29.1</ele>
        <time>2026-03-27T14:34:55Z</time>
      </trkpt>
      <trkpt lat="43.48896" lon="6.59192">
        <ele>29.1</ele>
        <time>2026-03-27T14:34:56Z</time>
      </trkpt>
      <trkpt lat="43.48896" lon="6.59193">
        <ele>29.2</ele>
        <time>2026-03-27T14:34:57Z</time>
      </trkpt>
      <trkpt lat="43.48897" lon="6.59194">
        <ele>29.2</ele>
        <time>2026-03-27T14:34:58Z</time>
      </trkpt>
      <trkpt lat="43.48898" lon="6.59195">
        <ele>29.2</ele>
        <time>2026-03-27T14:34:59Z</time>
      </trkpt>
      <trkpt lat="43.48899" lon="6.59195">
        <ele>29.3</ele>
        <time>2026-03-27T14:35:00Z</time>
      </trkpt>
      <trkpt lat="43.48899" lon="6.59196">
        <ele>29.3</ele>
        <time>2026-03-27T14:35:01Z</time>
      </trkpt>
      <trkpt lat="43.48899" lon="6.59197">
        <ele>29.4</ele>
        <time>2026-03-27T14:35:02Z</time>
      </trkpt>
      <trkpt lat="43.489" lon="6.59198">
        <ele>29.4</ele>
        <time>2026-03-27T14:35:03Z</time>
      </trkpt>
      <trkpt lat="43.489" lon="6.59199">
        <ele>29.4</ele>
        <time>2026-03-27T14:35:04Z</time>
      </trkpt>
      <trkpt lat="43.48901" lon="6.592">
        <ele>29.4</ele>
        <time>2026-03-27T14:35:05Z</time>
      </trkpt>
      <trkpt lat="43.48901" lon="6.59201">
        <ele>29.4</ele>
        <time>2026-03-27T14:35:06Z</time>
      </trkpt>
      <trkpt lat="43.48902" lon="6.59202">
        <ele>29.5</ele>
        <time>2026-03-27T14:35:07Z</time>
      </trkpt>
      <trkpt lat="43.48901" lon="6.59203">
        <ele>29.5</ele>
        <time>2026-03-27T14:35:08Z</time>
      </trkpt>
      <trkpt lat="43.48902" lon="6.59205">
        <ele>29.5</ele>
        <time>2026-03-27T14:35:09Z</time>
      </trkpt>
      <trkpt lat="43.48902" lon="6.59206">
        <ele>29.5</ele>
        <time>2026-03-27T14:35:10Z</time>
      </trkpt>
      <trkpt lat="43.48901" lon="6.59207">
        <ele>29.4</ele>
        <time>2026-03-27T14:35:11Z</time>
      </trkpt>
      <trkpt lat="43.48901" lon="6.59208">
        <ele>29.4</ele>
        <time>2026-03-27T14:35:12Z</time>
      </trkpt>
      <trkpt lat="43.489" lon="6.59208">
        <ele>29.4</ele>
        <time>2026-03-27T14:35:13Z</time>
      </trkpt>
      <trkpt lat="43.489" lon="6.5921">
        <ele>29.3</ele>
        <time>2026-03-27T14:35:14Z</time>
      </trkpt>
      <trkpt lat="43.48899" lon="6.59211">
        <ele>29.3</ele>
        <time>2026-03-27T14:35:15Z</time>
      </trkpt>
      <trkpt lat="43.48899" lon="6.59211">
        <ele>29.3</ele>
        <time>2026-03-27T14:35:16Z</time>
      </trkpt>
      <trkpt lat="43.48897" lon="6.59212">
        <ele>29.2</ele>
        <time>2026-03-27T14:35:17Z</time>
      </trkpt>
      <trkpt lat="43.48896" lon="6.59213">
        <ele>29.2</ele>
        <time>2026-03-27T14:35:18Z</time>
      </trkpt>
      <trkpt lat="43.48896" lon="6.59214">
        <ele>29.2</ele>
        <time>2026-03-27T14:35:19Z</time>
      </trkpt>
      <trkpt lat="43.48895" lon="6.59215">
        <ele>29.2</ele>
        <time>2026-03-27T14:35:20Z</time>
      </trkpt>
      <trkpt lat="43.48894" lon="6.59216">
        <ele>29.3</ele>
        <time>2026-03-27T14:35:21Z</time>
      </trkpt>
      <trkpt lat="43.48894" lon="6.59218">
        <ele>29.4</ele>
        <time>2026-03-27T14:35:22Z</time>
      </trkpt>
      <trkpt lat="43.48893" lon="6.59218">
        <ele>29.4</ele>
        <time>2026-03-27T14:35:23Z</time>
      </trkpt>
      <trkpt lat="43.48893" lon="6.59219">
        <ele>29.5</ele>
        <time>2026-03-27T14:35:24Z</time>
      </trkpt>
      <trkpt lat="43.48892" lon="6.5922">
        <ele>29.4</ele>
        <time>2026-03-27T14:35:25Z</time>
      </trkpt>
      <trkpt lat="43.48892" lon="6.59221">
        <ele>29.2</ele>
        <time>2026-03-27T14:35:26Z</time>
      </trkpt>
      <trkpt lat="43.48891" lon="6.59222">
        <ele>29.3</ele>
        <time>2026-03-27T14:35:27Z</time>
      </trkpt>
      <trkpt lat="43.4889" lon="6.59223">
        <ele>29.3</ele>
        <time>2026-03-27T14:35:28Z</time>
      </trkpt>
      <trkpt lat="43.48889" lon="6.59225">
        <ele>29.3</ele>
        <time>2026-03-27T14:35:29Z</time>
      </trkpt>
      <trkpt lat="43.48889" lon="6.59226">
        <ele>29.3</ele>
        <time>2026-03-27T14:35:30Z</time>
      </trkpt>
      <trkpt lat="43.48889" lon="6.59227">
        <ele>29.3</ele>
        <time>2026-03-27T14:35:31Z</time>
      </trkpt>
      <trkpt lat="43.48888" lon="6.59228">
        <ele>29.2</ele>
        <time>2026-03-27T14:35:32Z</time>
      </trkpt>
      <trkpt lat="43.48887" lon="6.59229">
        <ele>29.2</ele>
        <time>2026-03-27T14:35:33Z</time>
      </trkpt>
      <trkpt lat="43.48887" lon="6.5923">
        <ele>29.3</ele>
        <time>2026-03-27T14:35:34Z</time>
      </trkpt>
      <trkpt lat="43.48886" lon="6.59232">
        <ele>29.4</ele>
        <time>2026-03-27T14:35:35Z</time>
      </trkpt>
      <trkpt lat="43.48886" lon="6.59233">
        <ele>29.3</ele>
        <time>2026-03-27T14:35:36Z</time>
      </trkpt>
      <trkpt lat="43.48885" lon="6.59235">
        <ele>29.2</ele>
        <time>2026-03-27T14:35:37Z</time>
      </trkpt>
      <trkpt lat="43.48884" lon="6.59236">
        <ele>29.1</ele>
        <time>2026-03-27T14:35:38Z</time>
      </trkpt>
      <trkpt lat="43.48884" lon="6.59237">
        <ele>29</ele>
        <time>2026-03-27T14:35:39Z</time>
      </trkpt>
      <trkpt lat="43.48884" lon="6.59239">
        <ele>28.9</ele>
        <time>2026-03-27T14:35:40Z</time>
      </trkpt>
      <trkpt lat="43.48883" lon="6.5924">
        <ele>28.9</ele>
        <time>2026-03-27T14:35:41Z</time>
      </trkpt>
      <trkpt lat="43.48883" lon="6.59241">
        <ele>28.9</ele>
        <time>2026-03-27T14:35:42Z</time>
      </trkpt>
      <trkpt lat="43.48882" lon="6.59243">
        <ele>28.9</ele>
        <time>2026-03-27T14:35:43Z</time>
      </trkpt>
      <trkpt lat="43.48881" lon="6.59244">
        <ele>28.9</ele>
        <time>2026-03-27T14:35:44Z</time>
      </trkpt>
      <trkpt lat="43.48881" lon="6.59245">
        <ele>29</ele>
        <time>2026-03-27T14:35:45Z</time>
      </trkpt>
      <trkpt lat="43.4888" lon="6.59246">
        <ele>29</ele>
        <time>2026-03-27T14:35:46Z</time>
      </trkpt>
      <trkpt lat="43.48879" lon="6.59248">
        <ele>28.9</ele>
        <time>2026-03-27T14:35:47Z</time>
      </trkpt>
      <trkpt lat="43.48879" lon="6.59249">
        <ele>28.9</ele>
        <time>2026-03-27T14:35:48Z</time>
      </trkpt>
      <trkpt lat="43.48879" lon="6.59251">
        <ele>28.8</ele>
        <time>2026-03-27T14:35:49Z</time>
      </trkpt>
      <trkpt lat="43.48878" lon="6.59252">
        <ele>28.9</ele>
        <time>2026-03-27T14:35:50Z</time>
      </trkpt>
      <trkpt lat="43.48877" lon="6.59254">
        <ele>28.8</ele>
        <time>2026-03-27T14:35:51Z</time>
      </trkpt>
      <trkpt lat="43.48877" lon="6.59255">
        <ele>28.7</ele>
        <time>2026-03-27T14:35:52Z</time>
      </trkpt>
      <trkpt lat="43.48876" lon="6.59257">
        <ele>28.7</ele>
        <time>2026-03-27T14:35:53Z</time>
      </trkpt>
      <trkpt lat="43.48875" lon="6.59258">
        <ele>28.7</ele>
        <time>2026-03-27T14:35:54Z</time>
      </trkpt>
      <trkpt lat="43.48875" lon="6.59259">
        <ele>28.7</ele>
        <time>2026-03-27T14:35:55Z</time>
      </trkpt>
      <trkpt lat="43.48874" lon="6.5926">
        <ele>28.7</ele>
        <time>2026-03-27T14:35:56Z</time>
      </trkpt>
      <trkpt lat="43.48874" lon="6.59262">
        <ele>28.7</ele>
        <time>2026-03-27T14:35:57Z</time>
      </trkpt>
      <trkpt lat="43.48873" lon="6.59263">
        <ele>28.6</ele>
        <time>2026-03-27T14:35:58Z</time>
      </trkpt>
      <trkpt lat="43.48873" lon="6.59264">
        <ele>28.5</ele>
        <time>2026-03-27T14:35:59Z</time>
      </trkpt>
      <trkpt lat="43.48872" lon="6.59266">
        <ele>28.5</ele>
        <time>2026-03-27T14:36:00Z</time>
      </trkpt>
      <trkpt lat="43.48872" lon="6.59267">
        <ele>28.5</ele>
        <time>2026-03-27T14:36:01Z</time>
      </trkpt>
      <trkpt lat="43.48871" lon="6.59269">
        <ele>28.4</ele>
        <time>2026-03-27T14:36:02Z</time>
      </trkpt>
      <trkpt lat="43.48871" lon="6.5927">
        <ele>28.4</ele>
        <time>2026-03-27T14:36:03Z</time>
      </trkpt>
      <trkpt lat="43.4887" lon="6.59272">
        <ele>28.4</ele>
        <time>2026-03-27T14:36:04Z</time>
      </trkpt>
      <trkpt lat="43.4887" lon="6.59273">
        <ele>28.4</ele>
        <time>2026-03-27T14:36:05Z</time>
      </trkpt>
      <trkpt lat="43.48869" lon="6.59275">
        <ele>28.3</ele>
        <time>2026-03-27T14:36:06Z</time>
      </trkpt>
      <trkpt lat="43.48869" lon="6.59276">
        <ele>28.4</ele>
        <time>2026-03-27T14:36:07Z</time>
      </trkpt>
      <trkpt lat="43.48869" lon="6.59278">
        <ele>28.3</ele>
        <time>2026-03-27T14:36:08Z</time>
      </trkpt>
      <trkpt lat="43.48869" lon="6.5928">
        <ele>28.3</ele>
        <time>2026-03-27T14:36:09Z</time>
      </trkpt>
      <trkpt lat="43.48869" lon="6.59282">
        <ele>28.2</ele>
        <time>2026-03-27T14:36:10Z</time>
      </trkpt>
      <trkpt lat="43.48868" lon="6.59283">
        <ele>28.2</ele>
        <time>2026-03-27T14:36:11Z</time>
      </trkpt>
      <trkpt lat="43.48867" lon="6.59284">
        <ele>28.2</ele>
        <time>2026-03-27T14:36:12Z</time>
      </trkpt>
      <trkpt lat="43.48867" lon="6.59286">
        <ele>28.1</ele>
        <time>2026-03-27T14:36:13Z</time>
      </trkpt>
      <trkpt lat="43.48867" lon="6.59287">
        <ele>28.1</ele>
        <time>2026-03-27T14:36:14Z</time>
      </trkpt>
      <trkpt lat="43.48866" lon="6.59289">
        <ele>28</ele>
        <time>2026-03-27T14:36:15Z</time>
      </trkpt>
      <trkpt lat="43.48865" lon="6.5929">
        <ele>27.9</ele>
        <time>2026-03-27T14:36:16Z</time>
      </trkpt>
      <trkpt lat="43.48865" lon="6.59291">
        <ele>27.9</ele>
        <time>2026-03-27T14:36:17Z</time>
      </trkpt>
      <trkpt lat="43.48864" lon="6.59293">
        <ele>27.8</ele>
        <time>2026-03-27T14:36:18Z</time>
      </trkpt>
      <trkpt lat="43.48863" lon="6.59294">
        <ele>27.8</ele>
        <time>2026-03-27T14:36:19Z</time>
      </trkpt>
      <trkpt lat="43.48863" lon="6.59295">
        <ele>27.8</ele>
        <time>2026-03-27T14:36:20Z</time>
      </trkpt>
      <trkpt lat="43.48862" lon="6.59297">
        <ele>27.7</ele>
        <time>2026-03-27T14:36:21Z</time>
      </trkpt>
      <trkpt lat="43.48861" lon="6.59298">
        <ele>27.7</ele>
        <time>2026-03-27T14:36:22Z</time>
      </trkpt>
      <trkpt lat="43.4886" lon="6.59299">
        <ele>27.7</ele>
        <time>2026-03-27T14:36:23Z</time>
      </trkpt>
      <trkpt lat="43.4886" lon="6.59301">
        <ele>27.7</ele>
        <time>2026-03-27T14:36:24Z</time>
      </trkpt>
      <trkpt lat="43.4886" lon="6.59303">
        <ele>27.7</ele>
        <time>2026-03-27T14:36:25Z</time>
      </trkpt>
      <trkpt lat="43.4886" lon="6.59304">
        <ele>27.5</ele>
        <time>2026-03-27T14:36:26Z</time>
      </trkpt>
      <trkpt lat="43.48859" lon="6.59306">
        <ele>27.4</ele>
        <time>2026-03-27T14:36:27Z</time>
      </trkpt>
      <trkpt lat="43.48858" lon="6.59308">
        <ele>27.4</ele>
        <time>2026-03-27T14:36:28Z</time>
      </trkpt>
      <trkpt lat="43.48857" lon="6.59309">
        <ele>27.4</ele>
        <time>2026-03-27T14:36:29Z</time>
      </trkpt>
      <trkpt lat="43.48857" lon="6.59311">
        <ele>27.3</ele>
        <time>2026-03-27T14:36:30Z</time>
      </trkpt>
      <trkpt lat="43.48857" lon="6.59313">
        <ele>27.2</ele>
        <time>2026-03-27T14:36:31Z</time>
      </trkpt>
      <trkpt lat="43.48856" lon="6.59314">
        <ele>27.3</ele>
        <time>2026-03-27T14:36:32Z</time>
      </trkpt>
      <trkpt lat="43.48856" lon="6.59316">
        <ele>27.3</ele>
        <time>2026-03-27T14:36:33Z</time>
      </trkpt>
      <trkpt lat="43.48855" lon="6.59317">
        <ele>27.3</ele>
        <time>2026-03-27T14:36:34Z</time>
      </trkpt>
      <trkpt lat="43.48855" lon="6.59319">
        <ele>27.2</ele>
        <time>2026-03-27T14:36:35Z</time>
      </trkpt>
      <trkpt lat="43.48854" lon="6.5932">
        <ele>27.1</ele>
        <time>2026-03-27T14:36:36Z</time>
      </trkpt>
      <trkpt lat="43.48853" lon="6.59322">
        <ele>27.1</ele>
        <time>2026-03-27T14:36:37Z</time>
      </trkpt>
      <trkpt lat="43.48853" lon="6.59323">
        <ele>27</ele>
        <time>2026-03-27T14:36:38Z</time>
      </trkpt>
      <trkpt lat="43.48852" lon="6.59324">
        <ele>27</ele>
        <time>2026-03-27T14:36:39Z</time>
      </trkpt>
      <trkpt lat="43.48851" lon="6.59326">
        <ele>27.1</ele>
        <time>2026-03-27T14:36:40Z</time>
      </trkpt>
      <trkpt lat="43.48851" lon="6.59327">
        <ele>26.9</ele>
        <time>2026-03-27T14:36:41Z</time>
      </trkpt>
      <trkpt lat="43.4885" lon="6.59328">
        <ele>26.8</ele>
        <time>2026-03-27T14:36:42Z</time>
      </trkpt>
      <trkpt lat="43.48849" lon="6.5933">
        <ele>26.7</ele>
        <time>2026-03-27T14:36:43Z</time>
      </trkpt>
      <trkpt lat="43.48849" lon="6.59331">
        <ele>26.7</ele>
        <time>2026-03-27T14:36:44Z</time>
      </trkpt>
      <trkpt lat="43.48848" lon="6.59332">
        <ele>26.6</ele>
        <time>2026-03-27T14:36:45Z</time>
      </trkpt>
      <trkpt lat="43.48847" lon="6.59333">
        <ele>26.6</ele>
        <time>2026-03-27T14:36:46Z</time>
      </trkpt>
      <trkpt lat="43.48847" lon="6.59334">
        <ele>26.6</ele>
        <time>2026-03-27T14:36:47Z</time>
      </trkpt>
      <trkpt lat="43.48846" lon="6.59336">
        <ele>26.6</ele>
        <time>2026-03-27T14:36:48Z</time>
      </trkpt>
      <trkpt lat="43.48846" lon="6.59337">
        <ele>26.6</ele>
        <time>2026-03-27T14:36:49Z</time>
      </trkpt>
      <trkpt lat="43.48845" lon="6.59339">
        <ele>26.7</ele>
        <time>2026-03-27T14:36:50Z</time>
      </trkpt>
      <trkpt lat="43.48845" lon="6.5934">
        <ele>27.1</ele>
        <time>2026-03-27T14:36:51Z</time>
      </trkpt>
      <trkpt lat="43.48844" lon="6.59342">
        <ele>27</ele>
        <time>2026-03-27T14:36:52Z</time>
      </trkpt>
      <trkpt lat="43.48844" lon="6.59343">
        <ele>26.8</ele>
        <time>2026-03-27T14:36:53Z</time>
      </trkpt>
      <trkpt lat="43.48843" lon="6.59344">
        <ele>26.7</ele>
        <time>2026-03-27T14:36:54Z</time>
      </trkpt>
      <trkpt lat="43.48843" lon="6.59345">
        <ele>26.6</ele>
        <time>2026-03-27T14:36:55Z</time>
      </trkpt>
      <trkpt lat="43.48842" lon="6.59347">
        <ele>26.5</ele>
        <time>2026-03-27T14:36:56Z</time>
      </trkpt>
      <trkpt lat="43.48841" lon="6.59348">
        <ele>26.3</ele>
        <time>2026-03-27T14:36:57Z</time>
      </trkpt>
      <trkpt lat="43.4884" lon="6.59349">
        <ele>26.3</ele>
        <time>2026-03-27T14:36:58Z</time>
      </trkpt>
      <trkpt lat="43.4884" lon="6.5935">
        <ele>26.1</ele>
        <time>2026-03-27T14:36:59Z</time>
      </trkpt>
      <trkpt lat="43.48839" lon="6.59352">
        <ele>26.1</ele>
        <time>2026-03-27T14:37:00Z</time>
      </trkpt>
      <trkpt lat="43.48838" lon="6.59352">
        <ele>26.1</ele>
        <time>2026-03-27T14:37:01Z</time>
      </trkpt>
      <trkpt lat="43.48837" lon="6.59353">
        <ele>26.1</ele>
        <time>2026-03-27T14:37:02Z</time>
      </trkpt>
      <trkpt lat="43.48837" lon="6.59354">
        <ele>25.9</ele>
        <time>2026-03-27T14:37:03Z</time>
      </trkpt>
      <trkpt lat="43.48837" lon="6.59355">
        <ele>25.8</ele>
        <time>2026-03-27T14:37:04Z</time>
      </trkpt>
      <trkpt lat="43.48836" lon="6.59356">
        <ele>25.7</ele>
        <time>2026-03-27T14:37:05Z</time>
      </trkpt>
      <trkpt lat="43.48837" lon="6.59356">
        <ele>25.6</ele>
        <time>2026-03-27T14:37:06Z</time>
      </trkpt>
      <trkpt lat="43.48837" lon="6.59357">
        <ele>25.6</ele>
        <time>2026-03-27T14:37:07Z</time>
      </trkpt>
      <trkpt lat="43.48837" lon="6.59357">
        <ele>25.5</ele>
        <time>2026-03-27T14:37:08Z</time>
      </trkpt>
      <trkpt lat="43.48837" lon="6.59358">
        <ele>25.4</ele>
        <time>2026-03-27T14:37:09Z</time>
      </trkpt>
      <trkpt lat="43.48837" lon="6.59358">
        <ele>25.4</ele>
        <time>2026-03-27T14:37:10Z</time>
      </trkpt>
      <trkpt lat="43.48837" lon="6.59358">
        <ele>25.4</ele>
        <time>2026-03-27T14:37:11Z</time>
      </trkpt>
      <trkpt lat="43.48837" lon="6.59358">
        <ele>25.4</ele>
        <time>2026-03-27T14:37:12Z</time>
      </trkpt>
      <trkpt lat="43.48837" lon="6.59358">
        <ele>25.4</ele>
        <time>2026-03-27T14:37:13Z</time>
      </trkpt>
      <trkpt lat="43.48837" lon="6.59358">
        <ele>25.4</ele>
        <time>2026-03-27T14:37:14Z</time>
      </trkpt>
      <trkpt lat="43.48837" lon="6.59358">
        <ele>25.4</ele>
        <time>2026-03-27T14:37:15Z</time>
      </trkpt>
      <trkpt lat="43.48837" lon="6.59358">
        <ele>25.4</ele>
        <time>2026-03-27T14:37:16Z</time>
      </trkpt>
      <trkpt lat="43.48837" lon="6.59358">
        <ele>25.4</ele>
        <time>2026-03-27T14:37:17Z</time>
      </trkpt>
      <trkpt lat="43.48837" lon="6.59359">
        <ele>25.3</ele>
        <time>2026-03-27T14:37:18Z</time>
      </trkpt>
      <trkpt lat="43.48837" lon="6.59359">
        <ele>25.3</ele>
        <time>2026-03-27T14:37:19Z</time>
      </trkpt>
      <trkpt lat="43.48837" lon="6.59359">
        <ele>25.4</ele>
        <time>2026-03-27T14:37:20Z</time>
      </trkpt>
      <trkpt lat="43.48837" lon="6.5936">
        <ele>25.5</ele>
        <time>2026-03-27T14:37:21Z</time>
      </trkpt>
      <trkpt lat="43.48837" lon="6.5936">
        <ele>25.5</ele>
        <time>2026-03-27T14:37:22Z</time>
      </trkpt>
      <trkpt lat="43.48837" lon="6.5936">
        <ele>25.6</ele>
        <time>2026-03-27T14:37:23Z</time>
      </trkpt>
      <trkpt lat="43.48837" lon="6.59361">
        <ele>25.6</ele>
        <time>2026-03-27T14:37:24Z</time>
      </trkpt>
      <trkpt lat="43.48837" lon="6.59361">
        <ele>25.5</ele>
        <time>2026-03-27T14:37:25Z</time>
      </trkpt>
      <trkpt lat="43.48837" lon="6.59361">
        <ele>25.5</ele>
        <time>2026-03-27T14:37:26Z</time>
      </trkpt>
      <trkpt lat="43.48837" lon="6.59361">
        <ele>25.5</ele>
        <time>2026-03-27T14:37:27Z</time>
      </trkpt>
      <trkpt lat="43.48837" lon="6.59362">
        <ele>25.6</ele>
        <time>2026-03-27T14:37:28Z</time>
      </trkpt>
      <trkpt lat="43.48837" lon="6.59362">
        <ele>25.7</ele>
        <time>2026-03-27T14:37:29Z</time>
      </trkpt>
      <trkpt lat="43.48837" lon="6.59363">
        <ele>25.6</ele>
        <time>2026-03-27T14:37:30Z</time>
      </trkpt>
      <trkpt lat="43.48837" lon="6.59363">
        <ele>25.5</ele>
        <time>2026-03-27T14:37:31Z</time>
      </trkpt>
      <trkpt lat="43.48837" lon="6.59364">
        <ele>25.5</ele>
        <time>2026-03-27T14:37:32Z</time>
      </trkpt>
      <trkpt lat="43.48837" lon="6.59364">
        <ele>25.5</ele>
        <time>2026-03-27T14:37:33Z</time>
      </trkpt>
      <trkpt lat="43.48837" lon="6.59364">
        <ele>25.4</ele>
        <time>2026-03-27T14:37:34Z</time>
      </trkpt>
      <trkpt lat="43.48837" lon="6.59364">
        <ele>25.4</ele>
        <time>2026-03-27T14:37:35Z</time>
      </trkpt>
      <trkpt lat="43.48837" lon="6.59364">
        <ele>25.3</ele>
        <time>2026-03-27T14:37:36Z</time>
      </trkpt>
      <trkpt lat="43.48836" lon="6.59364">
        <ele>25.3</ele>
        <time>2026-03-27T14:37:37Z</time>
      </trkpt>
      <trkpt lat="43.48836" lon="6.59364">
        <ele>25.3</ele>
        <time>2026-03-27T14:37:38Z</time>
      </trkpt>
      <trkpt lat="43.48836" lon="6.59365">
        <ele>25.3</ele>
        <time>2026-03-27T14:37:39Z</time>
      </trkpt>
      <trkpt lat="43.48836" lon="6.59365">
        <ele>25.4</ele>
        <time>2026-03-27T14:37:40Z</time>
      </trkpt>
      <trkpt lat="43.48836" lon="6.59365">
        <ele>25.4</ele>
        <time>2026-03-27T14:37:41Z</time>
      </trkpt>
      <trkpt lat="43.48836" lon="6.59365">
        <ele>25.4</ele>
        <time>2026-03-27T14:37:42Z</time>
      </trkpt>
      <trkpt lat="43.48836" lon="6.59366">
        <ele>25.5</ele>
        <time>2026-03-27T14:37:43Z</time>
      </trkpt>
      <trkpt lat="43.48836" lon="6.59366">
        <ele>25.5</ele>
        <time>2026-03-27T14:37:44Z</time>
      </trkpt>
      <trkpt lat="43.48836" lon="6.59366">
        <ele>25.5</ele>
        <time>2026-03-27T14:37:45Z</time>
      </trkpt>
      <trkpt lat="43.48836" lon="6.59366">
        <ele>25.6</ele>
        <time>2026-03-27T14:37:46Z</time>
      </trkpt>
      <trkpt lat="43.48836" lon="6.59366">
        <ele>25.7</ele>
        <time>2026-03-27T14:37:47Z</time>
      </trkpt>
      <trkpt lat="43.48836" lon="6.59366">
        <ele>25.8</ele>
        <time>2026-03-27T14:37:48Z</time>
      </trkpt>
      <trkpt lat="43.48836" lon="6.59366">
        <ele>25.8</ele>
        <time>2026-03-27T14:37:49Z</time>
      </trkpt>
      <trkpt lat="43.48836" lon="6.59366">
        <ele>25.8</ele>
        <time>2026-03-27T14:37:50Z</time>
      </trkpt>
      <trkpt lat="43.48836" lon="6.59366">
        <ele>25.8</ele>
        <time>2026-03-27T14:37:51Z</time>
      </trkpt>
      <trkpt lat="43.48836" lon="6.59367">
        <ele>25.8</ele>
        <time>2026-03-27T14:37:52Z</time>
      </trkpt>
      <trkpt lat="43.48836" lon="6.59367">
        <ele>25.8</ele>
        <time>2026-03-27T14:37:53Z</time>
      </trkpt>
      <trkpt lat="43.48836" lon="6.59367">
        <ele>25.7</ele>
        <time>2026-03-27T14:37:54Z</time>
      </trkpt>
      <trkpt lat="43.48836" lon="6.59367">
        <ele>25.7</ele>
        <time>2026-03-27T14:37:55Z</time>
      </trkpt>
      <trkpt lat="43.48837" lon="6.59367">
        <ele>25.6</ele>
        <time>2026-03-27T14:37:56Z</time>
      </trkpt>
      <trkpt lat="43.48837" lon="6.59368">
        <ele>25.6</ele>
        <time>2026-03-27T14:37:57Z</time>
      </trkpt>
      <trkpt lat="43.48837" lon="6.59368">
        <ele>25.5</ele>
        <time>2026-03-27T14:37:58Z</time>
      </trkpt>
      <trkpt lat="43.48837" lon="6.59368">
        <ele>25.4</ele>
        <time>2026-03-27T14:37:59Z</time>
      </trkpt>
      <trkpt lat="43.48837" lon="6.59369">
        <ele>25.3</ele>
        <time>2026-03-27T14:38:00Z</time>
      </trkpt>
      <trkpt lat="43.48837" lon="6.59369">
        <ele>25.3</ele>
        <time>2026-03-27T14:38:01Z</time>
      </trkpt>
      <trkpt lat="43.48837" lon="6.59369">
        <ele>25.2</ele>
        <time>2026-03-27T14:38:02Z</time>
      </trkpt>
      <trkpt lat="43.48837" lon="6.59369">
        <ele>25.3</ele>
        <time>2026-03-27T14:38:03Z</time>
      </trkpt>
      <trkpt lat="43.48837" lon="6.59369">
        <ele>25.4</ele>
        <time>2026-03-27T14:38:04Z</time>
      </trkpt>
      <trkpt lat="43.48837" lon="6.59368">
        <ele>25.4</ele>
        <time>2026-03-27T14:38:05Z</time>
      </trkpt>
      <trkpt lat="43.48837" lon="6.59369">
        <ele>25.4</ele>
        <time>2026-03-27T14:38:06Z</time>
      </trkpt>
      <trkpt lat="43.48837" lon="6.59368">
        <ele>25.5</ele>
        <time>2026-03-27T14:38:07Z</time>
      </trkpt>
      <trkpt lat="43.48837" lon="6.59368">
        <ele>25.5</ele>
        <time>2026-03-27T14:38:08Z</time>
      </trkpt>
      <trkpt lat="43.48837" lon="6.59368">
        <ele>25.5</ele>
        <time>2026-03-27T14:38:09Z</time>
      </trkpt>
      <trkpt lat="43.48837" lon="6.59368">
        <ele>25.5</ele>
        <time>2026-03-27T14:38:10Z</time>
      </trkpt>
      <trkpt lat="43.48837" lon="6.59368">
        <ele>25.5</ele>
        <time>2026-03-27T14:38:11Z</time>
      </trkpt>
      <trkpt lat="43.48837" lon="6.59368">
        <ele>25.5</ele>
        <time>2026-03-27T14:38:12Z</time>
      </trkpt>
      <trkpt lat="43.48837" lon="6.59368">
        <ele>25.5</ele>
        <time>2026-03-27T14:38:13Z</time>
      </trkpt>
      <trkpt lat="43.48837" lon="6.59369">
        <ele>25.5</ele>
        <time>2026-03-27T14:38:14Z</time>
      </trkpt>
      <trkpt lat="43.48837" lon="6.59369">
        <ele>25.5</ele>
        <time>2026-03-27T14:38:15Z</time>
      </trkpt>
      <trkpt lat="43.48837" lon="6.59369">
        <ele>25.6</ele>
        <time>2026-03-27T14:38:16Z</time>
      </trkpt>
      <trkpt lat="43.48837" lon="6.5937">
        <ele>25.6</ele>
        <time>2026-03-27T14:38:17Z</time>
      </trkpt>
      <trkpt lat="43.48837" lon="6.5937">
        <ele>25.6</ele>
        <time>2026-03-27T14:38:18Z</time>
      </trkpt>
      <trkpt lat="43.48837" lon="6.5937">
        <ele>25.7</ele>
        <time>2026-03-27T14:38:19Z</time>
      </trkpt>
      <trkpt lat="43.48837" lon="6.5937">
        <ele>25.7</ele>
        <time>2026-03-27T14:38:20Z</time>
      </trkpt>
      <trkpt lat="43.48837" lon="6.5937">
        <ele>25.6</ele>
        <time>2026-03-27T14:38:21Z</time>
      </trkpt>
      <trkpt lat="43.48837" lon="6.5937">
        <ele>25.6</ele>
        <time>2026-03-27T14:38:22Z</time>
      </trkpt>
      <trkpt lat="43.48837" lon="6.5937">
        <ele>25.6</ele>
        <time>2026-03-27T14:38:23Z</time>
      </trkpt>
      <trkpt lat="43.48837" lon="6.5937">
        <ele>25.6</ele>
        <time>2026-03-27T14:38:24Z</time>
      </trkpt>
      <trkpt lat="43.48837" lon="6.59369">
        <ele>25.6</ele>
        <time>2026-03-27T14:38:25Z</time>
      </trkpt>
      <trkpt lat="43.48837" lon="6.59369">
        <ele>25.6</ele>
        <time>2026-03-27T14:38:26Z</time>
      </trkpt>
      <trkpt lat="43.48837" lon="6.59369">
        <ele>25.6</ele>
        <time>2026-03-27T14:38:27Z</time>
      </trkpt>
      <trkpt lat="43.48837" lon="6.59369">
        <ele>25.5</ele>
        <time>2026-03-27T14:38:28Z</time>
      </trkpt>
      <trkpt lat="43.48837" lon="6.59369">
        <ele>25.5</ele>
        <time>2026-03-27T14:38:29Z</time>
      </trkpt>
      <trkpt lat="43.48837" lon="6.59369">
        <ele>25.5</ele>
        <time>2026-03-27T14:38:30Z</time>
      </trkpt>
      <trkpt lat="43.48837" lon="6.59369">
        <ele>25.5</ele>
        <time>2026-03-27T14:38:31Z</time>
      </trkpt>
      <trkpt lat="43.48837" lon="6.59369">
        <ele>25.5</ele>
        <time>2026-03-27T14:38:32Z</time>
      </trkpt>
      <trkpt lat="43.48837" lon="6.59369">
        <ele>25.5</ele>
        <time>2026-03-27T14:38:33Z</time>
      </trkpt>
      <trkpt lat="43.48837" lon="6.59369">
        <ele>25.5</ele>
        <time>2026-03-27T14:38:34Z</time>
      </trkpt>
      <trkpt lat="43.48837" lon="6.5937">
        <ele>25.6</ele>
        <time>2026-03-27T14:38:35Z</time>
      </trkpt>
      <trkpt lat="43.48837" lon="6.5937">
        <ele>25.5</ele>
        <time>2026-03-27T14:38:36Z</time>
      </trkpt>
      <trkpt lat="43.48837" lon="6.5937">
        <ele>25.6</ele>
        <time>2026-03-27T14:38:37Z</time>
      </trkpt>
      <trkpt lat="43.48837" lon="6.5937">
        <ele>25.7</ele>
        <time>2026-03-27T14:38:38Z</time>
      </trkpt>
      <trkpt lat="43.48837" lon="6.5937">
        <ele>25.7</ele>
        <time>2026-03-27T14:38:39Z</time>
      </trkpt>
      <trkpt lat="43.48837" lon="6.59371">
        <ele>25.8</ele>
        <time>2026-03-27T14:38:40Z</time>
      </trkpt>
      <trkpt lat="43.48837" lon="6.59371">
        <ele>25.8</ele>
        <time>2026-03-27T14:38:41Z</time>
      </trkpt>
      <trkpt lat="43.48837" lon="6.59371">
        <ele>25.8</ele>
        <time>2026-03-27T14:38:42Z</time>
      </trkpt>
      <trkpt lat="43.48837" lon="6.59372">
        <ele>25.8</ele>
        <time>2026-03-27T14:38:43Z</time>
      </trkpt>
      <trkpt lat="43.48837" lon="6.59372">
        <ele>25.8</ele>
        <time>2026-03-27T14:38:44Z</time>
      </trkpt>
      <trkpt lat="43.48837" lon="6.59372">
        <ele>25.8</ele>
        <time>2026-03-27T14:38:45Z</time>
      </trkpt>
      <trkpt lat="43.48837" lon="6.59372">
        <ele>25.9</ele>
        <time>2026-03-27T14:38:46Z</time>
      </trkpt>
      <trkpt lat="43.48837" lon="6.59372">
        <ele>25.8</ele>
        <time>2026-03-27T14:38:47Z</time>
      </trkpt>
      <trkpt lat="43.48837" lon="6.59372">
        <ele>25.8</ele>
        <time>2026-03-27T14:38:48Z</time>
      </trkpt>
      <trkpt lat="43.48836" lon="6.59372">
        <ele>25.8</ele>
        <time>2026-03-27T14:38:49Z</time>
      </trkpt>
      <trkpt lat="43.48836" lon="6.59372">
        <ele>25.8</ele>
        <time>2026-03-27T14:38:50Z</time>
      </trkpt>
      <trkpt lat="43.48836" lon="6.59372">
        <ele>25.8</ele>
        <time>2026-03-27T14:38:51Z</time>
      </trkpt>
      <trkpt lat="43.48836" lon="6.59372">
        <ele>25.9</ele>
        <time>2026-03-27T14:38:52Z</time>
      </trkpt>
      <trkpt lat="43.48836" lon="6.59372">
        <ele>25.9</ele>
        <time>2026-03-27T14:38:53Z</time>
      </trkpt>
      <trkpt lat="43.48836" lon="6.59372">
        <ele>25.8</ele>
        <time>2026-03-27T14:38:54Z</time>
      </trkpt>
      <trkpt lat="43.48836" lon="6.59372">
        <ele>25.9</ele>
        <time>2026-03-27T14:38:55Z</time>
      </trkpt>
      <trkpt lat="43.48836" lon="6.59372">
        <ele>26</ele>
        <time>2026-03-27T14:38:56Z</time>
      </trkpt>
      <trkpt lat="43.48836" lon="6.59372">
        <ele>26</ele>
        <time>2026-03-27T14:38:57Z</time>
      </trkpt>
      <trkpt lat="43.48836" lon="6.59372">
        <ele>26</ele>
        <time>2026-03-27T14:38:58Z</time>
      </trkpt>
      <trkpt lat="43.48836" lon="6.59373">
        <ele>26</ele>
        <time>2026-03-27T14:38:59Z</time>
      </trkpt>
      <trkpt lat="43.48836" lon="6.59373">
        <ele>25.9</ele>
        <time>2026-03-27T14:39:00Z</time>
      </trkpt>
      <trkpt lat="43.48836" lon="6.59373">
        <ele>25.9</ele>
        <time>2026-03-27T14:39:01Z</time>
      </trkpt>
      <trkpt lat="43.48836" lon="6.59374">
        <ele>25.8</ele>
        <time>2026-03-27T14:39:02Z</time>
      </trkpt>
      <trkpt lat="43.48836" lon="6.59374">
        <ele>25.7</ele>
        <time>2026-03-27T14:39:03Z</time>
      </trkpt>
      <trkpt lat="43.48836" lon="6.59374">
        <ele>25.7</ele>
        <time>2026-03-27T14:39:04Z</time>
      </trkpt>
      <trkpt lat="43.48836" lon="6.59375">
        <ele>25.7</ele>
        <time>2026-03-27T14:39:05Z</time>
      </trkpt>
      <trkpt lat="43.48836" lon="6.59375">
        <ele>25.7</ele>
        <time>2026-03-27T14:39:06Z</time>
      </trkpt>
      <trkpt lat="43.48836" lon="6.59375">
        <ele>25.7</ele>
        <time>2026-03-27T14:39:07Z</time>
      </trkpt>
      <trkpt lat="43.48836" lon="6.59374">
        <ele>25.7</ele>
        <time>2026-03-27T14:39:08Z</time>
      </trkpt>
      <trkpt lat="43.48836" lon="6.59374">
        <ele>25.7</ele>
        <time>2026-03-27T14:39:09Z</time>
      </trkpt>
      <trkpt lat="43.48836" lon="6.59374">
        <ele>25.8</ele>
        <time>2026-03-27T14:39:10Z</time>
      </trkpt>
      <trkpt lat="43.48836" lon="6.59374">
        <ele>25.8</ele>
        <time>2026-03-27T14:39:11Z</time>
      </trkpt>
      <trkpt lat="43.48836" lon="6.59374">
        <ele>25.8</ele>
        <time>2026-03-27T14:39:12Z</time>
      </trkpt>
      <trkpt lat="43.48836" lon="6.59374">
        <ele>25.9</ele>
        <time>2026-03-27T14:39:13Z</time>
      </trkpt>
      <trkpt lat="43.48836" lon="6.59374">
        <ele>25.8</ele>
        <time>2026-03-27T14:39:14Z</time>
      </trkpt>
      <trkpt lat="43.48836" lon="6.59373">
        <ele>25.9</ele>
        <time>2026-03-27T14:39:15Z</time>
      </trkpt>
      <trkpt lat="43.48836" lon="6.59373">
        <ele>26</ele>
        <time>2026-03-27T14:39:16Z</time>
      </trkpt>
      <trkpt lat="43.48835" lon="6.59373">
        <ele>26.1</ele>
        <time>2026-03-27T14:39:17Z</time>
      </trkpt>
      <trkpt lat="43.48835" lon="6.59373">
        <ele>26.1</ele>
        <time>2026-03-27T14:39:18Z</time>
      </trkpt>
      <trkpt lat="43.48835" lon="6.59373">
        <ele>26.1</ele>
        <time>2026-03-27T14:39:19Z</time>
      </trkpt>
      <trkpt lat="43.48835" lon="6.59373">
        <ele>26.2</ele>
        <time>2026-03-27T14:39:20Z</time>
      </trkpt>
      <trkpt lat="43.48835" lon="6.59373">
        <ele>26.2</ele>
        <time>2026-03-27T14:39:21Z</time>
      </trkpt>
      <trkpt lat="43.48835" lon="6.59373">
        <ele>26.2</ele>
        <time>2026-03-27T14:39:22Z</time>
      </trkpt>
      <trkpt lat="43.48835" lon="6.59373">
        <ele>26.3</ele>
        <time>2026-03-27T14:39:23Z</time>
      </trkpt>
      <trkpt lat="43.48835" lon="6.59373">
        <ele>26.3</ele>
        <time>2026-03-27T14:39:24Z</time>
      </trkpt>
      <trkpt lat="43.48835" lon="6.59373">
        <ele>26.4</ele>
        <time>2026-03-27T14:39:25Z</time>
      </trkpt>
      <trkpt lat="43.48835" lon="6.59373">
        <ele>26.3</ele>
        <time>2026-03-27T14:39:26Z</time>
      </trkpt>
      <trkpt lat="43.48835" lon="6.59373">
        <ele>26.3</ele>
        <time>2026-03-27T14:39:27Z</time>
      </trkpt>
      <trkpt lat="43.48835" lon="6.59373">
        <ele>26.3</ele>
        <time>2026-03-27T14:39:28Z</time>
      </trkpt>
      <trkpt lat="43.48835" lon="6.59373">
        <ele>26.2</ele>
        <time>2026-03-27T14:39:29Z</time>
      </trkpt>
      <trkpt lat="43.48835" lon="6.59373">
        <ele>26.2</ele>
        <time>2026-03-27T14:39:30Z</time>
      </trkpt>
      <trkpt lat="43.48835" lon="6.59373">
        <ele>26.2</ele>
        <time>2026-03-27T14:39:31Z</time>
      </trkpt>
      <trkpt lat="43.48835" lon="6.59373">
        <ele>26.1</ele>
        <time>2026-03-27T14:39:32Z</time>
      </trkpt>
      <trkpt lat="43.48835" lon="6.59373">
        <ele>26.1</ele>
        <time>2026-03-27T14:39:33Z</time>
      </trkpt>
      <trkpt lat="43.48835" lon="6.59373">
        <ele>26</ele>
        <time>2026-03-27T14:39:34Z</time>
      </trkpt>
      <trkpt lat="43.48835" lon="6.59373">
        <ele>25.9</ele>
        <time>2026-03-27T14:39:35Z</time>
      </trkpt>
      <trkpt lat="43.48835" lon="6.59373">
        <ele>25.9</ele>
        <time>2026-03-27T14:39:36Z</time>
      </trkpt>
      <trkpt lat="43.48835" lon="6.59372">
        <ele>25.8</ele>
        <time>2026-03-27T14:39:37Z</time>
      </trkpt>
      <trkpt lat="43.48835" lon="6.59372">
        <ele>25.8</ele>
        <time>2026-03-27T14:39:38Z</time>
      </trkpt>
      <trkpt lat="43.48835" lon="6.59372">
        <ele>25.7</ele>
        <time>2026-03-27T14:39:39Z</time>
      </trkpt>
      <trkpt lat="43.48836" lon="6.59372">
        <ele>25.7</ele>
        <time>2026-03-27T14:39:40Z</time>
      </trkpt>
      <trkpt lat="43.48836" lon="6.59372">
        <ele>25.7</ele>
        <time>2026-03-27T14:39:41Z</time>
      </trkpt>
      <trkpt lat="43.48836" lon="6.59372">
        <ele>25.8</ele>
        <time>2026-03-27T14:39:42Z</time>
      </trkpt>
      <trkpt lat="43.48836" lon="6.59372">
        <ele>25.9</ele>
        <time>2026-03-27T14:39:43Z</time>
      </trkpt>
      <trkpt lat="43.48836" lon="6.59372">
        <ele>25.9</ele>
        <time>2026-03-27T14:39:44Z</time>
      </trkpt>
      <trkpt lat="43.48836" lon="6.59371">
        <ele>26</ele>
        <time>2026-03-27T14:39:45Z</time>
      </trkpt>
      <trkpt lat="43.48836" lon="6.5937">
        <ele>26</ele>
        <time>2026-03-27T14:39:46Z</time>
      </trkpt>
      <trkpt lat="43.48836" lon="6.5937">
        <ele>26</ele>
        <time>2026-03-27T14:39:47Z</time>
      </trkpt>
      <trkpt lat="43.48836" lon="6.59369">
        <ele>26</ele>
        <time>2026-03-27T14:39:48Z</time>
      </trkpt>
      <trkpt lat="43.48836" lon="6.59368">
        <ele>26</ele>
        <time>2026-03-27T14:39:49Z</time>
      </trkpt>
      <trkpt lat="43.48837" lon="6.59368">
        <ele>26.1</ele>
        <time>2026-03-27T14:39:50Z</time>
      </trkpt>
      <trkpt lat="43.48837" lon="6.59368">
        <ele>26.1</ele>
        <time>2026-03-27T14:39:51Z</time>
      </trkpt>
      <trkpt lat="43.48837" lon="6.59368">
        <ele>26.1</ele>
        <time>2026-03-27T14:39:52Z</time>
      </trkpt>
      <trkpt lat="43.48837" lon="6.59367">
        <ele>26</ele>
        <time>2026-03-27T14:39:53Z</time>
      </trkpt>
      <trkpt lat="43.48837" lon="6.59367">
        <ele>26</ele>
        <time>2026-03-27T14:39:54Z</time>
      </trkpt>
      <trkpt lat="43.48837" lon="6.59367">
        <ele>26</ele>
        <time>2026-03-27T14:39:55Z</time>
      </trkpt>
      <trkpt lat="43.48837" lon="6.59366">
        <ele>26</ele>
        <time>2026-03-27T14:39:56Z</time>
      </trkpt>
      <trkpt lat="43.48837" lon="6.59366">
        <ele>25.9</ele>
        <time>2026-03-27T14:39:57Z</time>
      </trkpt>
      <trkpt lat="43.48837" lon="6.59366">
        <ele>25.9</ele>
        <time>2026-03-27T14:39:58Z</time>
      </trkpt>
      <trkpt lat="43.48837" lon="6.59366">
        <ele>25.9</ele>
        <time>2026-03-27T14:39:59Z</time>
      </trkpt>
      <trkpt lat="43.48837" lon="6.59366">
        <ele>25.9</ele>
        <time>2026-03-27T14:40:00Z</time>
      </trkpt>
      <trkpt lat="43.48838" lon="6.59366">
        <ele>25.8</ele>
        <time>2026-03-27T14:40:01Z</time>
      </trkpt>
      <trkpt lat="43.48838" lon="6.59367">
        <ele>25.7</ele>
        <time>2026-03-27T14:40:02Z</time>
      </trkpt>
      <trkpt lat="43.48838" lon="6.59367">
        <ele>25.7</ele>
        <time>2026-03-27T14:40:03Z</time>
      </trkpt>
      <trkpt lat="43.48838" lon="6.59368">
        <ele>25.6</ele>
        <time>2026-03-27T14:40:04Z</time>
      </trkpt>
      <trkpt lat="43.48838" lon="6.59368">
        <ele>25.6</ele>
        <time>2026-03-27T14:40:05Z</time>
      </trkpt>
      <trkpt lat="43.48838" lon="6.59368">
        <ele>25.6</ele>
        <time>2026-03-27T14:40:06Z</time>
      </trkpt>
      <trkpt lat="43.48838" lon="6.59368">
        <ele>25.6</ele>
        <time>2026-03-27T14:40:07Z</time>
      </trkpt>
      <trkpt lat="43.48838" lon="6.59368">
        <ele>25.6</ele>
        <time>2026-03-27T14:40:08Z</time>
      </trkpt>
      <trkpt lat="43.48838" lon="6.59368">
        <ele>25.6</ele>
        <time>2026-03-27T14:40:09Z</time>
      </trkpt>
      <trkpt lat="43.48838" lon="6.59368">
        <ele>25.6</ele>
        <time>2026-03-27T14:40:10Z</time>
      </trkpt>
      <trkpt lat="43.48838" lon="6.59368">
        <ele>25.5</ele>
        <time>2026-03-27T14:40:11Z</time>
      </trkpt>
      <trkpt lat="43.48838" lon="6.59368">
        <ele>25.5</ele>
        <time>2026-03-27T14:40:12Z</time>
      </trkpt>
      <trkpt lat="43.48838" lon="6.59368">
        <ele>25.6</ele>
        <time>2026-03-27T14:40:13Z</time>
      </trkpt>
      <trkpt lat="43.48838" lon="6.59368">
        <ele>25.6</ele>
        <time>2026-03-27T14:40:14Z</time>
      </trkpt>
      <trkpt lat="43.48838" lon="6.59368">
        <ele>25.7</ele>
        <time>2026-03-27T14:40:15Z</time>
      </trkpt>
      <trkpt lat="43.48838" lon="6.59369">
        <ele>25.7</ele>
        <time>2026-03-27T14:40:16Z</time>
      </trkpt>
      <trkpt lat="43.48838" lon="6.59369">
        <ele>25.8</ele>
        <time>2026-03-27T14:40:17Z</time>
      </trkpt>
      <trkpt lat="43.48838" lon="6.5937">
        <ele>25.8</ele>
        <time>2026-03-27T14:40:18Z</time>
      </trkpt>
      <trkpt lat="43.48838" lon="6.5937">
        <ele>25.8</ele>
        <time>2026-03-27T14:40:19Z</time>
      </trkpt>
      <trkpt lat="43.48838" lon="6.5937">
        <ele>25.7</ele>
        <time>2026-03-27T14:40:20Z</time>
      </trkpt>
      <trkpt lat="43.48838" lon="6.5937">
        <ele>25.6</ele>
        <time>2026-03-27T14:40:21Z</time>
      </trkpt>
      <trkpt lat="43.48838" lon="6.5937">
        <ele>25.6</ele>
        <time>2026-03-27T14:40:22Z</time>
      </trkpt>
      <trkpt lat="43.48838" lon="6.5937">
        <ele>25.6</ele>
        <time>2026-03-27T14:40:23Z</time>
      </trkpt>
      <trkpt lat="43.48838" lon="6.5937">
        <ele>25.6</ele>
        <time>2026-03-27T14:40:24Z</time>
      </trkpt>
      <trkpt lat="43.48839" lon="6.5937">
        <ele>25.6</ele>
        <time>2026-03-27T14:40:25Z</time>
      </trkpt>
      <trkpt lat="43.48839" lon="6.59369">
        <ele>25.6</ele>
        <time>2026-03-27T14:40:26Z</time>
      </trkpt>
      <trkpt lat="43.4884" lon="6.59368">
        <ele>25.6</ele>
        <time>2026-03-27T14:40:27Z</time>
      </trkpt>
      <trkpt lat="43.4884" lon="6.59368">
        <ele>25.6</ele>
        <time>2026-03-27T14:40:28Z</time>
      </trkpt>
      <trkpt lat="43.4884" lon="6.59368">
        <ele>25.7</ele>
        <time>2026-03-27T14:40:29Z</time>
      </trkpt>
      <trkpt lat="43.48841" lon="6.59367">
        <ele>25.7</ele>
        <time>2026-03-27T14:40:30Z</time>
      </trkpt>
      <trkpt lat="43.48841" lon="6.59366">
        <ele>25.8</ele>
        <time>2026-03-27T14:40:31Z</time>
      </trkpt>
      <trkpt lat="43.48841" lon="6.59365">
        <ele>25.7</ele>
        <time>2026-03-27T14:40:32Z</time>
      </trkpt>
      <trkpt lat="43.4884" lon="6.59365">
        <ele>25.7</ele>
        <time>2026-03-27T14:40:33Z</time>
      </trkpt>
      <trkpt lat="43.4884" lon="6.59365">
        <ele>25.7</ele>
        <time>2026-03-27T14:40:34Z</time>
      </trkpt>
      <trkpt lat="43.4884" lon="6.59366">
        <ele>25.7</ele>
        <time>2026-03-27T14:40:35Z</time>
      </trkpt>
      <trkpt lat="43.4884" lon="6.59366">
        <ele>25.7</ele>
        <time>2026-03-27T14:40:36Z</time>
      </trkpt>
      <trkpt lat="43.4884" lon="6.59366">
        <ele>25.7</ele>
        <time>2026-03-27T14:40:37Z</time>
      </trkpt>
      <trkpt lat="43.4884" lon="6.59365">
        <ele>25.7</ele>
        <time>2026-03-27T14:40:38Z</time>
      </trkpt>
      <trkpt lat="43.4884" lon="6.59365">
        <ele>25.7</ele>
        <time>2026-03-27T14:40:39Z</time>
      </trkpt>
      <trkpt lat="43.4884" lon="6.59365">
        <ele>25.6</ele>
        <time>2026-03-27T14:40:40Z</time>
      </trkpt>
      <trkpt lat="43.48841" lon="6.59365">
        <ele>25.6</ele>
        <time>2026-03-27T14:40:41Z</time>
      </trkpt>
      <trkpt lat="43.4884" lon="6.59365">
        <ele>25.6</ele>
        <time>2026-03-27T14:40:42Z</time>
      </trkpt>
      <trkpt lat="43.48841" lon="6.59365">
        <ele>25.6</ele>
        <time>2026-03-27T14:40:43Z</time>
      </trkpt>
      <trkpt lat="43.4884" lon="6.59365">
        <ele>25.6</ele>
        <time>2026-03-27T14:40:44Z</time>
      </trkpt>
      <trkpt lat="43.48841" lon="6.59365">
        <ele>25.5</ele>
        <time>2026-03-27T14:40:45Z</time>
      </trkpt>
      <trkpt lat="43.4884" lon="6.59365">
        <ele>25.5</ele>
        <time>2026-03-27T14:40:46Z</time>
      </trkpt>
      <trkpt lat="43.48841" lon="6.59366">
        <ele>25.5</ele>
        <time>2026-03-27T14:40:47Z</time>
      </trkpt>
      <trkpt lat="43.48841" lon="6.59365">
        <ele>25.5</ele>
        <time>2026-03-27T14:40:48Z</time>
      </trkpt>
      <trkpt lat="43.48841" lon="6.59366">
        <ele>25.6</ele>
        <time>2026-03-27T14:40:49Z</time>
      </trkpt>
      <trkpt lat="43.48841" lon="6.59365">
        <ele>25.4</ele>
        <time>2026-03-27T14:40:50Z</time>
      </trkpt>
      <trkpt lat="43.48841" lon="6.59365">
        <ele>25.4</ele>
        <time>2026-03-27T14:40:51Z</time>
      </trkpt>
      <trkpt lat="43.48842" lon="6.59365">
        <ele>25.4</ele>
        <time>2026-03-27T14:40:52Z</time>
      </trkpt>
      <trkpt lat="43.48842" lon="6.59365">
        <ele>25.4</ele>
        <time>2026-03-27T14:40:53Z</time>
      </trkpt>
      <trkpt lat="43.48842" lon="6.59365">
        <ele>25.3</ele>
        <time>2026-03-27T14:40:54Z</time>
      </trkpt>
      <trkpt lat="43.48842" lon="6.59365">
        <ele>25.3</ele>
        <time>2026-03-27T14:40:55Z</time>
      </trkpt>
      <trkpt lat="43.48842" lon="6.59365">
        <ele>25.2</ele>
        <time>2026-03-27T14:40:56Z</time>
      </trkpt>
      <trkpt lat="43.48842" lon="6.59365">
        <ele>25.1</ele>
        <time>2026-03-27T14:40:57Z</time>
      </trkpt>
      <trkpt lat="43.48842" lon="6.59365">
        <ele>25.1</ele>
        <time>2026-03-27T14:40:58Z</time>
      </trkpt>
      <trkpt lat="43.48841" lon="6.59365">
        <ele>25</ele>
        <time>2026-03-27T14:40:59Z</time>
      </trkpt>
      <trkpt lat="43.48841" lon="6.59365">
        <ele>25</ele>
        <time>2026-03-27T14:41:00Z</time>
      </trkpt>
      <trkpt lat="43.48841" lon="6.59365">
        <ele>25</ele>
        <time>2026-03-27T14:41:01Z</time>
      </trkpt>
      <trkpt lat="43.48841" lon="6.59366">
        <ele>24.9</ele>
        <time>2026-03-27T14:41:02Z</time>
      </trkpt>
      <trkpt lat="43.48841" lon="6.59365">
        <ele>24.9</ele>
        <time>2026-03-27T14:41:03Z</time>
      </trkpt>
      <trkpt lat="43.48841" lon="6.59365">
        <ele>24.8</ele>
        <time>2026-03-27T14:41:04Z</time>
      </trkpt>
      <trkpt lat="43.48841" lon="6.59365">
        <ele>24.8</ele>
        <time>2026-03-27T14:41:05Z</time>
      </trkpt>
      <trkpt lat="43.48841" lon="6.59366">
        <ele>24.8</ele>
        <time>2026-03-27T14:41:06Z</time>
      </trkpt>
      <trkpt lat="43.48841" lon="6.59365">
        <ele>24.7</ele>
        <time>2026-03-27T14:41:07Z</time>
      </trkpt>
      <trkpt lat="43.48841" lon="6.59365">
        <ele>24.7</ele>
        <time>2026-03-27T14:41:08Z</time>
      </trkpt>
      <trkpt lat="43.48841" lon="6.59366">
        <ele>24.7</ele>
        <time>2026-03-27T14:41:09Z</time>
      </trkpt>
      <trkpt lat="43.48841" lon="6.59366">
        <ele>24.7</ele>
        <time>2026-03-27T14:41:10Z</time>
      </trkpt>
      <trkpt lat="43.48841" lon="6.59365">
        <ele>24.7</ele>
        <time>2026-03-27T14:41:11Z</time>
      </trkpt>
      <trkpt lat="43.48841" lon="6.59365">
        <ele>24.8</ele>
        <time>2026-03-27T14:41:12Z</time>
      </trkpt>
      <trkpt lat="43.48841" lon="6.59364">
        <ele>24.9</ele>
        <time>2026-03-27T14:41:13Z</time>
      </trkpt>
      <trkpt lat="43.4884" lon="6.59364">
        <ele>24.9</ele>
        <time>2026-03-27T14:41:14Z</time>
      </trkpt>
      <trkpt lat="43.4884" lon="6.59363">
        <ele>25</ele>
        <time>2026-03-27T14:41:15Z</time>
      </trkpt>
      <trkpt lat="43.48839" lon="6.59363">
        <ele>25.1</ele>
        <time>2026-03-27T14:41:16Z</time>
      </trkpt>
      <trkpt lat="43.48838" lon="6.59362">
        <ele>25.3</ele>
        <time>2026-03-27T14:41:17Z</time>
      </trkpt>
      <trkpt lat="43.48838" lon="6.59361">
        <ele>25.3</ele>
        <time>2026-03-27T14:41:18Z</time>
      </trkpt>
      <trkpt lat="43.48838" lon="6.5936">
        <ele>25.4</ele>
        <time>2026-03-27T14:41:19Z</time>
      </trkpt>
      <trkpt lat="43.48838" lon="6.5936">
        <ele>25.4</ele>
        <time>2026-03-27T14:41:20Z</time>
      </trkpt>
      <trkpt lat="43.48838" lon="6.59359">
        <ele>25.4</ele>
        <time>2026-03-27T14:41:21Z</time>
      </trkpt>
      <trkpt lat="43.48838" lon="6.59358">
        <ele>25.5</ele>
        <time>2026-03-27T14:41:22Z</time>
      </trkpt>
      <trkpt lat="43.48838" lon="6.59358">
        <ele>25.6</ele>
        <time>2026-03-27T14:41:23Z</time>
      </trkpt>
      <trkpt lat="43.48838" lon="6.59357">
        <ele>25.7</ele>
        <time>2026-03-27T14:41:24Z</time>
      </trkpt>
      <trkpt lat="43.48838" lon="6.59357">
        <ele>25.8</ele>
        <time>2026-03-27T14:41:25Z</time>
      </trkpt>
      <trkpt lat="43.48838" lon="6.59357">
        <ele>25.8</ele>
        <time>2026-03-27T14:41:26Z</time>
      </trkpt>
      <trkpt lat="43.48838" lon="6.59357">
        <ele>25.9</ele>
        <time>2026-03-27T14:41:27Z</time>
      </trkpt>
      <trkpt lat="43.48838" lon="6.59357">
        <ele>25.9</ele>
        <time>2026-03-27T14:41:28Z</time>
      </trkpt>
      <trkpt lat="43.48838" lon="6.59356">
        <ele>25.9</ele>
        <time>2026-03-27T14:41:29Z</time>
      </trkpt>
      <trkpt lat="43.48839" lon="6.59355">
        <ele>25.9</ele>
        <time>2026-03-27T14:41:30Z</time>
      </trkpt>
      <trkpt lat="43.48839" lon="6.59355">
        <ele>25.9</ele>
        <time>2026-03-27T14:41:31Z</time>
      </trkpt>
      <trkpt lat="43.4884" lon="6.59354">
        <ele>25.9</ele>
        <time>2026-03-27T14:41:32Z</time>
      </trkpt>
      <trkpt lat="43.48841" lon="6.59353">
        <ele>25.9</ele>
        <time>2026-03-27T14:41:33Z</time>
      </trkpt>
      <trkpt lat="43.48841" lon="6.59352">
        <ele>25.9</ele>
        <time>2026-03-27T14:41:34Z</time>
      </trkpt>
      <trkpt lat="43.48841" lon="6.59351">
        <ele>25.9</ele>
        <time>2026-03-27T14:41:35Z</time>
      </trkpt>
      <trkpt lat="43.48842" lon="6.59351">
        <ele>25.9</ele>
        <time>2026-03-27T14:41:36Z</time>
      </trkpt>
      <trkpt lat="43.48842" lon="6.5935">
        <ele>25.9</ele>
        <time>2026-03-27T14:41:37Z</time>
      </trkpt>
      <trkpt lat="43.48842" lon="6.59349">
        <ele>25.9</ele>
        <time>2026-03-27T14:41:38Z</time>
      </trkpt>
      <trkpt lat="43.48842" lon="6.59349">
        <ele>26</ele>
        <time>2026-03-27T14:41:39Z</time>
      </trkpt>
      <trkpt lat="43.48843" lon="6.59348">
        <ele>26</ele>
        <time>2026-03-27T14:41:40Z</time>
      </trkpt>
      <trkpt lat="43.48843" lon="6.59348">
        <ele>26</ele>
        <time>2026-03-27T14:41:41Z</time>
      </trkpt>
      <trkpt lat="43.48843" lon="6.59347">
        <ele>25.9</ele>
        <time>2026-03-27T14:41:42Z</time>
      </trkpt>
      <trkpt lat="43.48843" lon="6.59347">
        <ele>25.9</ele>
        <time>2026-03-27T14:41:43Z</time>
      </trkpt>
      <trkpt lat="43.48843" lon="6.59347">
        <ele>25.9</ele>
        <time>2026-03-27T14:41:44Z</time>
      </trkpt>
      <trkpt lat="43.48844" lon="6.59346">
        <ele>25.7</ele>
        <time>2026-03-27T14:41:45Z</time>
      </trkpt>
      <trkpt lat="43.48846" lon="6.59346">
        <ele>25.8</ele>
        <time>2026-03-27T14:41:46Z</time>
      </trkpt>
      <trkpt lat="43.48846" lon="6.59345">
        <ele>25.8</ele>
        <time>2026-03-27T14:41:47Z</time>
      </trkpt>
      <trkpt lat="43.48847" lon="6.59344">
        <ele>25.8</ele>
        <time>2026-03-27T14:41:48Z</time>
      </trkpt>
      <trkpt lat="43.48848" lon="6.59344">
        <ele>25.9</ele>
        <time>2026-03-27T14:41:49Z</time>
      </trkpt>
      <trkpt lat="43.48848" lon="6.59343">
        <ele>26</ele>
        <time>2026-03-27T14:41:50Z</time>
      </trkpt>
      <trkpt lat="43.48849" lon="6.59342">
        <ele>26</ele>
        <time>2026-03-27T14:41:51Z</time>
      </trkpt>
      <trkpt lat="43.48849" lon="6.59341">
        <ele>26</ele>
        <time>2026-03-27T14:41:52Z</time>
      </trkpt>
      <trkpt lat="43.48849" lon="6.5934">
        <ele>26.1</ele>
        <time>2026-03-27T14:41:53Z</time>
      </trkpt>
      <trkpt lat="43.48849" lon="6.59339">
        <ele>26.2</ele>
        <time>2026-03-27T14:41:54Z</time>
      </trkpt>
      <trkpt lat="43.4885" lon="6.59339">
        <ele>26.2</ele>
        <time>2026-03-27T14:41:55Z</time>
      </trkpt>
      <trkpt lat="43.4885" lon="6.59339">
        <ele>26.2</ele>
        <time>2026-03-27T14:41:56Z</time>
      </trkpt>
      <trkpt lat="43.48851" lon="6.59338">
        <ele>26.2</ele>
        <time>2026-03-27T14:41:57Z</time>
      </trkpt>
      <trkpt lat="43.48852" lon="6.59337">
        <ele>26.2</ele>
        <time>2026-03-27T14:41:58Z</time>
      </trkpt>
      <trkpt lat="43.48852" lon="6.59337">
        <ele>26.2</ele>
        <time>2026-03-27T14:41:59Z</time>
      </trkpt>
      <trkpt lat="43.48853" lon="6.59335">
        <ele>26.2</ele>
        <time>2026-03-27T14:42:00Z</time>
      </trkpt>
      <trkpt lat="43.48853" lon="6.59334">
        <ele>26.2</ele>
        <time>2026-03-27T14:42:01Z</time>
      </trkpt>
      <trkpt lat="43.48854" lon="6.59332">
        <ele>26.3</ele>
        <time>2026-03-27T14:42:02Z</time>
      </trkpt>
      <trkpt lat="43.48854" lon="6.59331">
        <ele>26.3</ele>
        <time>2026-03-27T14:42:03Z</time>
      </trkpt>
      <trkpt lat="43.48855" lon="6.5933">
        <ele>26.5</ele>
        <time>2026-03-27T14:42:04Z</time>
      </trkpt>
      <trkpt lat="43.48855" lon="6.59329">
        <ele>26.6</ele>
        <time>2026-03-27T14:42:05Z</time>
      </trkpt>
      <trkpt lat="43.48856" lon="6.59328">
        <ele>26.8</ele>
        <time>2026-03-27T14:42:06Z</time>
      </trkpt>
      <trkpt lat="43.48856" lon="6.59327">
        <ele>26.7</ele>
        <time>2026-03-27T14:42:07Z</time>
      </trkpt>
      <trkpt lat="43.48856" lon="6.59326">
        <ele>26.7</ele>
        <time>2026-03-27T14:42:08Z</time>
      </trkpt>
      <trkpt lat="43.48857" lon="6.59324">
        <ele>26.8</ele>
        <time>2026-03-27T14:42:09Z</time>
      </trkpt>
      <trkpt lat="43.48857" lon="6.59323">
        <ele>26.9</ele>
        <time>2026-03-27T14:42:10Z</time>
      </trkpt>
      <trkpt lat="43.48858" lon="6.59322">
        <ele>27</ele>
        <time>2026-03-27T14:42:11Z</time>
      </trkpt>
      <trkpt lat="43.48858" lon="6.59321">
        <ele>27.1</ele>
        <time>2026-03-27T14:42:12Z</time>
      </trkpt>
      <trkpt lat="43.48858" lon="6.59319">
        <ele>27.1</ele>
        <time>2026-03-27T14:42:13Z</time>
      </trkpt>
      <trkpt lat="43.48859" lon="6.59318">
        <ele>27.4</ele>
        <time>2026-03-27T14:42:14Z</time>
      </trkpt>
      <trkpt lat="43.4886" lon="6.59317">
        <ele>27.4</ele>
        <time>2026-03-27T14:42:15Z</time>
      </trkpt>
      <trkpt lat="43.4886" lon="6.59316">
        <ele>27.3</ele>
        <time>2026-03-27T14:42:16Z</time>
      </trkpt>
      <trkpt lat="43.4886" lon="6.59315">
        <ele>27.2</ele>
        <time>2026-03-27T14:42:17Z</time>
      </trkpt>
      <trkpt lat="43.48861" lon="6.59314">
        <ele>27.2</ele>
        <time>2026-03-27T14:42:18Z</time>
      </trkpt>
      <trkpt lat="43.48861" lon="6.59312">
        <ele>27.2</ele>
        <time>2026-03-27T14:42:19Z</time>
      </trkpt>
      <trkpt lat="43.48862" lon="6.59311">
        <ele>27.2</ele>
        <time>2026-03-27T14:42:20Z</time>
      </trkpt>
      <trkpt lat="43.48862" lon="6.5931">
        <ele>27.2</ele>
        <time>2026-03-27T14:42:21Z</time>
      </trkpt>
      <trkpt lat="43.48863" lon="6.59309">
        <ele>27</ele>
        <time>2026-03-27T14:42:22Z</time>
      </trkpt>
      <trkpt lat="43.48864" lon="6.59308">
        <ele>27</ele>
        <time>2026-03-27T14:42:23Z</time>
      </trkpt>
      <trkpt lat="43.48864" lon="6.59306">
        <ele>27.1</ele>
        <time>2026-03-27T14:42:24Z</time>
      </trkpt>
      <trkpt lat="43.48864" lon="6.59306">
        <ele>27.1</ele>
        <time>2026-03-27T14:42:25Z</time>
      </trkpt>
      <trkpt lat="43.48865" lon="6.59305">
        <ele>27.1</ele>
        <time>2026-03-27T14:42:26Z</time>
      </trkpt>
      <trkpt lat="43.48865" lon="6.59303">
        <ele>27.2</ele>
        <time>2026-03-27T14:42:27Z</time>
      </trkpt>
      <trkpt lat="43.48865" lon="6.59302">
        <ele>27.3</ele>
        <time>2026-03-27T14:42:28Z</time>
      </trkpt>
      <trkpt lat="43.48866" lon="6.59301">
        <ele>27.4</ele>
        <time>2026-03-27T14:42:29Z</time>
      </trkpt>
      <trkpt lat="43.48867" lon="6.593">
        <ele>27.4</ele>
        <time>2026-03-27T14:42:30Z</time>
      </trkpt>
      <trkpt lat="43.48867" lon="6.59299">
        <ele>27.5</ele>
        <time>2026-03-27T14:42:31Z</time>
      </trkpt>
      <trkpt lat="43.48868" lon="6.59297">
        <ele>27.4</ele>
        <time>2026-03-27T14:42:32Z</time>
      </trkpt>
      <trkpt lat="43.48868" lon="6.59296">
        <ele>27.5</ele>
        <time>2026-03-27T14:42:33Z</time>
      </trkpt>
      <trkpt lat="43.48869" lon="6.59295">
        <ele>27.5</ele>
        <time>2026-03-27T14:42:34Z</time>
      </trkpt>
      <trkpt lat="43.48869" lon="6.59293">
        <ele>27.6</ele>
        <time>2026-03-27T14:42:35Z</time>
      </trkpt>
      <trkpt lat="43.4887" lon="6.59292">
        <ele>27.7</ele>
        <time>2026-03-27T14:42:36Z</time>
      </trkpt>
      <trkpt lat="43.48871" lon="6.5929">
        <ele>27.8</ele>
        <time>2026-03-27T14:42:37Z</time>
      </trkpt>
      <trkpt lat="43.48871" lon="6.59289">
        <ele>27.9</ele>
        <time>2026-03-27T14:42:38Z</time>
      </trkpt>
      <trkpt lat="43.48871" lon="6.59287">
        <ele>28</ele>
        <time>2026-03-27T14:42:39Z</time>
      </trkpt>
      <trkpt lat="43.48872" lon="6.59286">
        <ele>28.1</ele>
        <time>2026-03-27T14:42:40Z</time>
      </trkpt>
      <trkpt lat="43.48873" lon="6.59284">
        <ele>28.1</ele>
        <time>2026-03-27T14:42:41Z</time>
      </trkpt>
      <trkpt lat="43.48873" lon="6.59283">
        <ele>28.2</ele>
        <time>2026-03-27T14:42:42Z</time>
      </trkpt>
      <trkpt lat="43.48874" lon="6.59282">
        <ele>28.3</ele>
        <time>2026-03-27T14:42:43Z</time>
      </trkpt>
      <trkpt lat="43.48874" lon="6.5928">
        <ele>28.4</ele>
        <time>2026-03-27T14:42:44Z</time>
      </trkpt>
      <trkpt lat="43.48875" lon="6.59278">
        <ele>28.5</ele>
        <time>2026-03-27T14:42:45Z</time>
      </trkpt>
      <trkpt lat="43.48875" lon="6.59276">
        <ele>28.6</ele>
        <time>2026-03-27T14:42:46Z</time>
      </trkpt>
      <trkpt lat="43.48875" lon="6.59275">
        <ele>28.6</ele>
        <time>2026-03-27T14:42:47Z</time>
      </trkpt>
      <trkpt lat="43.48875" lon="6.59274">
        <ele>28.6</ele>
        <time>2026-03-27T14:42:48Z</time>
      </trkpt>
      <trkpt lat="43.48875" lon="6.59273">
        <ele>28.6</ele>
        <time>2026-03-27T14:42:49Z</time>
      </trkpt>
      <trkpt lat="43.48875" lon="6.59273">
        <ele>28.5</ele>
        <time>2026-03-27T14:42:50Z</time>
      </trkpt>
      <trkpt lat="43.48875" lon="6.59272">
        <ele>28.5</ele>
        <time>2026-03-27T14:42:51Z</time>
      </trkpt>
      <trkpt lat="43.48876" lon="6.59272">
        <ele>28.5</ele>
        <time>2026-03-27T14:42:52Z</time>
      </trkpt>
      <trkpt lat="43.48876" lon="6.59271">
        <ele>28.5</ele>
        <time>2026-03-27T14:42:53Z</time>
      </trkpt>
      <trkpt lat="43.48876" lon="6.59271">
        <ele>28.6</ele>
        <time>2026-03-27T14:42:54Z</time>
      </trkpt>
      <trkpt lat="43.48876" lon="6.59271">
        <ele>28.5</ele>
        <time>2026-03-27T14:42:55Z</time>
      </trkpt>
      <trkpt lat="43.48876" lon="6.5927">
        <ele>28.6</ele>
        <time>2026-03-27T14:42:56Z</time>
      </trkpt>
      <trkpt lat="43.48876" lon="6.5927">
        <ele>28.6</ele>
        <time>2026-03-27T14:42:57Z</time>
      </trkpt>
      <trkpt lat="43.48876" lon="6.5927">
        <ele>28.7</ele>
        <time>2026-03-27T14:42:58Z</time>
      </trkpt>
      <trkpt lat="43.48876" lon="6.5927">
        <ele>28.7</ele>
        <time>2026-03-27T14:42:59Z</time>
      </trkpt>
      <trkpt lat="43.48876" lon="6.5927">
        <ele>28.7</ele>
        <time>2026-03-27T14:43:00Z</time>
      </trkpt>
      <trkpt lat="43.48876" lon="6.5927">
        <ele>28.7</ele>
        <time>2026-03-27T14:43:01Z</time>
      </trkpt>
      <trkpt lat="43.48876" lon="6.59269">
        <ele>28.6</ele>
        <time>2026-03-27T14:43:02Z</time>
      </trkpt>
      <trkpt lat="43.48875" lon="6.59269">
        <ele>28.6</ele>
        <time>2026-03-27T14:43:03Z</time>
      </trkpt>
      <trkpt lat="43.48875" lon="6.59269">
        <ele>28.6</ele>
        <time>2026-03-27T14:43:04Z</time>
      </trkpt>
      <trkpt lat="43.48875" lon="6.59268">
        <ele>28.6</ele>
        <time>2026-03-27T14:43:05Z</time>
      </trkpt>
      <trkpt lat="43.48875" lon="6.59268">
        <ele>28.6</ele>
        <time>2026-03-27T14:43:06Z</time>
      </trkpt>
      <trkpt lat="43.48875" lon="6.59268">
        <ele>28.5</ele>
        <time>2026-03-27T14:43:07Z</time>
      </trkpt>
      <trkpt lat="43.48875" lon="6.59268">
        <ele>28.5</ele>
        <time>2026-03-27T14:43:08Z</time>
      </trkpt>
      <trkpt lat="43.48875" lon="6.59267">
        <ele>28.5</ele>
        <time>2026-03-27T14:43:09Z</time>
      </trkpt>
      <trkpt lat="43.48875" lon="6.59267">
        <ele>28.5</ele>
        <time>2026-03-27T14:43:10Z</time>
      </trkpt>
      <trkpt lat="43.48874" lon="6.59267">
        <ele>28.5</ele>
        <time>2026-03-27T14:43:11Z</time>
      </trkpt>
      <trkpt lat="43.48874" lon="6.59266">
        <ele>28.5</ele>
        <time>2026-03-27T14:43:12Z</time>
      </trkpt>
      <trkpt lat="43.48874" lon="6.59267">
        <ele>28.6</ele>
        <time>2026-03-27T14:43:13Z</time>
      </trkpt>
      <trkpt lat="43.48874" lon="6.59266">
        <ele>28.6</ele>
        <time>2026-03-27T14:43:14Z</time>
      </trkpt>
      <trkpt lat="43.48874" lon="6.59266">
        <ele>28.6</ele>
        <time>2026-03-27T14:43:15Z</time>
      </trkpt>
      <trkpt lat="43.48874" lon="6.59266">
        <ele>28.6</ele>
        <time>2026-03-27T14:43:16Z</time>
      </trkpt>
      <trkpt lat="43.48874" lon="6.59266">
        <ele>28.5</ele>
        <time>2026-03-27T14:43:17Z</time>
      </trkpt>
      <trkpt lat="43.48874" lon="6.59266">
        <ele>28.5</ele>
        <time>2026-03-27T14:43:18Z</time>
      </trkpt>
      <trkpt lat="43.48874" lon="6.59266">
        <ele>28.4</ele>
        <time>2026-03-27T14:43:19Z</time>
      </trkpt>
      <trkpt lat="43.48873" lon="6.59266">
        <ele>28.4</ele>
        <time>2026-03-27T14:43:20Z</time>
      </trkpt>
      <trkpt lat="43.48873" lon="6.59266">
        <ele>28.3</ele>
        <time>2026-03-27T14:43:21Z</time>
      </trkpt>
      <trkpt lat="43.48873" lon="6.59266">
        <ele>28.2</ele>
        <time>2026-03-27T14:43:22Z</time>
      </trkpt>
      <trkpt lat="43.48873" lon="6.59266">
        <ele>28.3</ele>
        <time>2026-03-27T14:43:23Z</time>
      </trkpt>
      <trkpt lat="43.48873" lon="6.59266">
        <ele>28.3</ele>
        <time>2026-03-27T14:43:24Z</time>
      </trkpt>
      <trkpt lat="43.48873" lon="6.59266">
        <ele>28.3</ele>
        <time>2026-03-27T14:43:25Z</time>
      </trkpt>
      <trkpt lat="43.48873" lon="6.59266">
        <ele>28.3</ele>
        <time>2026-03-27T14:43:26Z</time>
      </trkpt>
      <trkpt lat="43.48873" lon="6.59266">
        <ele>28.3</ele>
        <time>2026-03-27T14:43:27Z</time>
      </trkpt>
      <trkpt lat="43.48873" lon="6.59266">
        <ele>28.3</ele>
        <time>2026-03-27T14:43:28Z</time>
      </trkpt>
      <trkpt lat="43.48873" lon="6.59266">
        <ele>28.2</ele>
        <time>2026-03-27T14:43:29Z</time>
      </trkpt>
      <trkpt lat="43.48873" lon="6.59266">
        <ele>28.2</ele>
        <time>2026-03-27T14:43:30Z</time>
      </trkpt>
      <trkpt lat="43.48873" lon="6.59266">
        <ele>28.2</ele>
        <time>2026-03-27T14:43:31Z</time>
      </trkpt>
      <trkpt lat="43.48873" lon="6.59266">
        <ele>28.2</ele>
        <time>2026-03-27T14:43:32Z</time>
      </trkpt>
      <trkpt lat="43.48873" lon="6.59266">
        <ele>28.2</ele>
        <time>2026-03-27T14:43:33Z</time>
      </trkpt>
      <trkpt lat="43.48873" lon="6.59266">
        <ele>28.2</ele>
        <time>2026-03-27T14:43:34Z</time>
      </trkpt>
      <trkpt lat="43.48873" lon="6.59265">
        <ele>28.1</ele>
        <time>2026-03-27T14:43:35Z</time>
      </trkpt>
      <trkpt lat="43.48873" lon="6.59265">
        <ele>28.2</ele>
        <time>2026-03-27T14:43:36Z</time>
      </trkpt>
      <trkpt lat="43.48873" lon="6.59265">
        <ele>28.2</ele>
        <time>2026-03-27T14:43:37Z</time>
      </trkpt>
      <trkpt lat="43.48873" lon="6.59265">
        <ele>28.2</ele>
        <time>2026-03-27T14:43:38Z</time>
      </trkpt>
      <trkpt lat="43.48873" lon="6.59265">
        <ele>28.3</ele>
        <time>2026-03-27T14:43:39Z</time>
      </trkpt>
      <trkpt lat="43.48873" lon="6.59265">
        <ele>28.3</ele>
        <time>2026-03-27T14:43:40Z</time>
      </trkpt>
      <trkpt lat="43.48873" lon="6.59266">
        <ele>28.2</ele>
        <time>2026-03-27T14:43:41Z</time>
      </trkpt>
      <trkpt lat="43.48873" lon="6.59265">
        <ele>28.2</ele>
        <time>2026-03-27T14:43:42Z</time>
      </trkpt>
      <trkpt lat="43.48872" lon="6.59265">
        <ele>28.2</ele>
        <time>2026-03-27T14:43:43Z</time>
      </trkpt>
      <trkpt lat="43.48873" lon="6.59265">
        <ele>28.2</ele>
        <time>2026-03-27T14:43:44Z</time>
      </trkpt>
      <trkpt lat="43.48872" lon="6.59265">
        <ele>28.2</ele>
        <time>2026-03-27T14:43:45Z</time>
      </trkpt>
      <trkpt lat="43.48872" lon="6.59265">
        <ele>28.2</ele>
        <time>2026-03-27T14:43:46Z</time>
      </trkpt>
      <trkpt lat="43.48872" lon="6.59265">
        <ele>28.2</ele>
        <time>2026-03-27T14:43:47Z</time>
      </trkpt>
      <trkpt lat="43.48872" lon="6.59265">
        <ele>28.2</ele>
        <time>2026-03-27T14:43:48Z</time>
      </trkpt>
      <trkpt lat="43.48872" lon="6.59265">
        <ele>28.3</ele>
        <time>2026-03-27T14:43:49Z</time>
      </trkpt>
      <trkpt lat="43.48872" lon="6.59265">
        <ele>28.2</ele>
        <time>2026-03-27T14:43:50Z</time>
      </trkpt>
      <trkpt lat="43.48872" lon="6.59265">
        <ele>28.3</ele>
        <time>2026-03-27T14:43:51Z</time>
      </trkpt>
      <trkpt lat="43.48872" lon="6.59265">
        <ele>28.3</ele>
        <time>2026-03-27T14:43:52Z</time>
      </trkpt>
      <trkpt lat="43.48872" lon="6.59265">
        <ele>28.4</ele>
        <time>2026-03-27T14:43:53Z</time>
      </trkpt>
      <trkpt lat="43.48872" lon="6.59265">
        <ele>28.4</ele>
        <time>2026-03-27T14:43:54Z</time>
      </trkpt>
      <trkpt lat="43.48872" lon="6.59265">
        <ele>28.4</ele>
        <time>2026-03-27T14:43:55Z</time>
      </trkpt>
      <trkpt lat="43.48872" lon="6.59265">
        <ele>28.4</ele>
        <time>2026-03-27T14:43:56Z</time>
      </trkpt>
      <trkpt lat="43.48872" lon="6.59265">
        <ele>28.4</ele>
        <time>2026-03-27T14:43:57Z</time>
      </trkpt>
      <trkpt lat="43.48872" lon="6.59265">
        <ele>28.4</ele>
        <time>2026-03-27T14:43:58Z</time>
      </trkpt>
      <trkpt lat="43.48872" lon="6.59265">
        <ele>28.4</ele>
        <time>2026-03-27T14:43:59Z</time>
      </trkpt>
      <trkpt lat="43.48872" lon="6.59265">
        <ele>28.4</ele>
        <time>2026-03-27T14:44:00Z</time>
      </trkpt>
      <trkpt lat="43.48872" lon="6.59264">
        <ele>28.4</ele>
        <time>2026-03-27T14:44:01Z</time>
      </trkpt>
      <trkpt lat="43.48872" lon="6.59265">
        <ele>28.5</ele>
        <time>2026-03-27T14:44:02Z</time>
      </trkpt>
      <trkpt lat="43.48872" lon="6.59265">
        <ele>28.5</ele>
        <time>2026-03-27T14:44:03Z</time>
      </trkpt>
      <trkpt lat="43.48872" lon="6.59266">
        <ele>28.5</ele>
        <time>2026-03-27T14:44:04Z</time>
      </trkpt>
      <trkpt lat="43.48872" lon="6.59266">
        <ele>28.5</ele>
        <time>2026-03-27T14:44:05Z</time>
      </trkpt>
      <trkpt lat="43.48871" lon="6.59266">
        <ele>28.5</ele>
        <time>2026-03-27T14:44:06Z</time>
      </trkpt>
      <trkpt lat="43.48871" lon="6.59266">
        <ele>28.4</ele>
        <time>2026-03-27T14:44:07Z</time>
      </trkpt>
      <trkpt lat="43.48871" lon="6.59266">
        <ele>28.4</ele>
        <time>2026-03-27T14:44:08Z</time>
      </trkpt>
      <trkpt lat="43.48871" lon="6.59266">
        <ele>28.4</ele>
        <time>2026-03-27T14:44:09Z</time>
      </trkpt>
      <trkpt lat="43.4887" lon="6.59266">
        <ele>28.4</ele>
        <time>2026-03-27T14:44:10Z</time>
      </trkpt>
      <trkpt lat="43.4887" lon="6.59267">
        <ele>28.4</ele>
        <time>2026-03-27T14:44:11Z</time>
      </trkpt>
      <trkpt lat="43.4887" lon="6.59267">
        <ele>28.4</ele>
        <time>2026-03-27T14:44:12Z</time>
      </trkpt>
      <trkpt lat="43.4887" lon="6.59267">
        <ele>28.4</ele>
        <time>2026-03-27T14:44:13Z</time>
      </trkpt>
      <trkpt lat="43.4887" lon="6.59267">
        <ele>28.4</ele>
        <time>2026-03-27T14:44:14Z</time>
      </trkpt>
      <trkpt lat="43.4887" lon="6.59267">
        <ele>28.4</ele>
        <time>2026-03-27T14:44:15Z</time>
      </trkpt>
      <trkpt lat="43.4887" lon="6.59268">
        <ele>28.4</ele>
        <time>2026-03-27T14:44:16Z</time>
      </trkpt>
      <trkpt lat="43.4887" lon="6.59268">
        <ele>28.4</ele>
        <time>2026-03-27T14:44:17Z</time>
      </trkpt>
      <trkpt lat="43.4887" lon="6.59268">
        <ele>28.4</ele>
        <time>2026-03-27T14:44:18Z</time>
      </trkpt>
      <trkpt lat="43.48869" lon="6.59268">
        <ele>28.4</ele>
        <time>2026-03-27T14:44:19Z</time>
      </trkpt>
      <trkpt lat="43.48869" lon="6.59268">
        <ele>28.4</ele>
        <time>2026-03-27T14:44:20Z</time>
      </trkpt>
      <trkpt lat="43.48869" lon="6.59268">
        <ele>28.4</ele>
        <time>2026-03-27T14:44:21Z</time>
      </trkpt>
      <trkpt lat="43.48869" lon="6.59268">
        <ele>28.4</ele>
        <time>2026-03-27T14:44:22Z</time>
      </trkpt>
      <trkpt lat="43.48869" lon="6.59268">
        <ele>28.4</ele>
        <time>2026-03-27T14:44:23Z</time>
      </trkpt>
      <trkpt lat="43.48869" lon="6.59268">
        <ele>28.3</ele>
        <time>2026-03-27T14:44:24Z</time>
      </trkpt>
      <trkpt lat="43.48868" lon="6.59268">
        <ele>28.3</ele>
        <time>2026-03-27T14:44:25Z</time>
      </trkpt>
      <trkpt lat="43.48868" lon="6.59268">
        <ele>28.4</ele>
        <time>2026-03-27T14:44:26Z</time>
      </trkpt>
      <trkpt lat="43.48868" lon="6.59268">
        <ele>28.4</ele>
        <time>2026-03-27T14:44:27Z</time>
      </trkpt>
      <trkpt lat="43.48868" lon="6.59268">
        <ele>28.4</ele>
        <time>2026-03-27T14:44:28Z</time>
      </trkpt>
      <trkpt lat="43.48867" lon="6.59268">
        <ele>28.4</ele>
        <time>2026-03-27T14:44:29Z</time>
      </trkpt>
      <trkpt lat="43.48867" lon="6.59268">
        <ele>28.5</ele>
        <time>2026-03-27T14:44:30Z</time>
      </trkpt>
      <trkpt lat="43.48867" lon="6.59268">
        <ele>28.5</ele>
        <time>2026-03-27T14:44:31Z</time>
      </trkpt>
      <trkpt lat="43.48867" lon="6.59268">
        <ele>28.5</ele>
        <time>2026-03-27T14:44:32Z</time>
      </trkpt>
      <trkpt lat="43.48867" lon="6.59268">
        <ele>28.6</ele>
        <time>2026-03-27T14:44:33Z</time>
      </trkpt>
      <trkpt lat="43.48867" lon="6.59268">
        <ele>28.6</ele>
        <time>2026-03-27T14:44:34Z</time>
      </trkpt>
      <trkpt lat="43.48867" lon="6.59268">
        <ele>28.6</ele>
        <time>2026-03-27T14:44:35Z</time>
      </trkpt>
      <trkpt lat="43.48867" lon="6.59268">
        <ele>28.6</ele>
        <time>2026-03-27T14:44:36Z</time>
      </trkpt>
      <trkpt lat="43.48867" lon="6.59269">
        <ele>28.6</ele>
        <time>2026-03-27T14:44:37Z</time>
      </trkpt>
      <trkpt lat="43.48868" lon="6.59269">
        <ele>28.7</ele>
        <time>2026-03-27T14:44:38Z</time>
      </trkpt>
      <trkpt lat="43.48868" lon="6.59269">
        <ele>28.8</ele>
        <time>2026-03-27T14:44:39Z</time>
      </trkpt>
      <trkpt lat="43.48868" lon="6.59269">
        <ele>28.8</ele>
        <time>2026-03-27T14:44:40Z</time>
      </trkpt>
      <trkpt lat="43.48868" lon="6.59268">
        <ele>28.8</ele>
        <time>2026-03-27T14:44:41Z</time>
      </trkpt>
      <trkpt lat="43.48869" lon="6.59268">
        <ele>28.8</ele>
        <time>2026-03-27T14:44:42Z</time>
      </trkpt>
      <trkpt lat="43.4887" lon="6.59268">
        <ele>28.8</ele>
        <time>2026-03-27T14:44:43Z</time>
      </trkpt>
      <trkpt lat="43.48871" lon="6.59267">
        <ele>28.8</ele>
        <time>2026-03-27T14:44:44Z</time>
      </trkpt>
      <trkpt lat="43.48871" lon="6.59266">
        <ele>28.8</ele>
        <time>2026-03-27T14:44:45Z</time>
      </trkpt>
      <trkpt lat="43.48872" lon="6.59265">
        <ele>28.8</ele>
        <time>2026-03-27T14:44:46Z</time>
      </trkpt>
      <trkpt lat="43.48872" lon="6.59264">
        <ele>28.8</ele>
        <time>2026-03-27T14:44:47Z</time>
      </trkpt>
      <trkpt lat="43.48873" lon="6.59263">
        <ele>28.9</ele>
        <time>2026-03-27T14:44:48Z</time>
      </trkpt>
      <trkpt lat="43.48874" lon="6.59262">
        <ele>28.9</ele>
        <time>2026-03-27T14:44:49Z</time>
      </trkpt>
      <trkpt lat="43.48874" lon="6.5926">
        <ele>28.9</ele>
        <time>2026-03-27T14:44:50Z</time>
      </trkpt>
      <trkpt lat="43.48875" lon="6.59259">
        <ele>29</ele>
        <time>2026-03-27T14:44:51Z</time>
      </trkpt>
      <trkpt lat="43.48876" lon="6.59258">
        <ele>29</ele>
        <time>2026-03-27T14:44:52Z</time>
      </trkpt>
      <trkpt lat="43.48876" lon="6.59256">
        <ele>29</ele>
        <time>2026-03-27T14:44:53Z</time>
      </trkpt>
      <trkpt lat="43.48877" lon="6.59255">
        <ele>29</ele>
        <time>2026-03-27T14:44:54Z</time>
      </trkpt>
      <trkpt lat="43.48878" lon="6.59253">
        <ele>29.1</ele>
        <time>2026-03-27T14:44:55Z</time>
      </trkpt>
      <trkpt lat="43.48879" lon="6.59252">
        <ele>29.1</ele>
        <time>2026-03-27T14:44:56Z</time>
      </trkpt>
      <trkpt lat="43.48879" lon="6.59251">
        <ele>29.1</ele>
        <time>2026-03-27T14:44:57Z</time>
      </trkpt>
      <trkpt lat="43.4888" lon="6.59249">
        <ele>29.1</ele>
        <time>2026-03-27T14:44:58Z</time>
      </trkpt>
      <trkpt lat="43.48881" lon="6.59248">
        <ele>29.1</ele>
        <time>2026-03-27T14:44:59Z</time>
      </trkpt>
      <trkpt lat="43.48881" lon="6.59246">
        <ele>28.8</ele>
        <time>2026-03-27T14:45:00Z</time>
      </trkpt>
      <trkpt lat="43.48882" lon="6.59244">
        <ele>28.7</ele>
        <time>2026-03-27T14:45:01Z</time>
      </trkpt>
      <trkpt lat="43.48882" lon="6.59243">
        <ele>28.7</ele>
        <time>2026-03-27T14:45:02Z</time>
      </trkpt>
      <trkpt lat="43.48883" lon="6.59241">
        <ele>28.7</ele>
        <time>2026-03-27T14:45:03Z</time>
      </trkpt>
      <trkpt lat="43.48884" lon="6.5924">
        <ele>28.8</ele>
        <time>2026-03-27T14:45:04Z</time>
      </trkpt>
      <trkpt lat="43.48885" lon="6.59238">
        <ele>28.8</ele>
        <time>2026-03-27T14:45:05Z</time>
      </trkpt>
      <trkpt lat="43.48885" lon="6.59236">
        <ele>28.8</ele>
        <time>2026-03-27T14:45:06Z</time>
      </trkpt>
      <trkpt lat="43.48886" lon="6.59236">
        <ele>28.8</ele>
        <time>2026-03-27T14:45:07Z</time>
      </trkpt>
      <trkpt lat="43.48887" lon="6.59234">
        <ele>28.9</ele>
        <time>2026-03-27T14:45:08Z</time>
      </trkpt>
      <trkpt lat="43.48887" lon="6.59234">
        <ele>28.9</ele>
        <time>2026-03-27T14:45:09Z</time>
      </trkpt>
      <trkpt lat="43.48888" lon="6.59233">
        <ele>28.9</ele>
        <time>2026-03-27T14:45:10Z</time>
      </trkpt>
      <trkpt lat="43.48889" lon="6.59231">
        <ele>28.9</ele>
        <time>2026-03-27T14:45:11Z</time>
      </trkpt>
      <trkpt lat="43.48889" lon="6.5923">
        <ele>28.9</ele>
        <time>2026-03-27T14:45:12Z</time>
      </trkpt>
      <trkpt lat="43.4889" lon="6.59229">
        <ele>29</ele>
        <time>2026-03-27T14:45:13Z</time>
      </trkpt>
      <trkpt lat="43.48891" lon="6.59229">
        <ele>29</ele>
        <time>2026-03-27T14:45:14Z</time>
      </trkpt>
      <trkpt lat="43.48892" lon="6.59227">
        <ele>29</ele>
        <time>2026-03-27T14:45:15Z</time>
      </trkpt>
      <trkpt lat="43.48893" lon="6.59226">
        <ele>29</ele>
        <time>2026-03-27T14:45:16Z</time>
      </trkpt>
      <trkpt lat="43.48894" lon="6.59225">
        <ele>29</ele>
        <time>2026-03-27T14:45:17Z</time>
      </trkpt>
      <trkpt lat="43.48894" lon="6.59223">
        <ele>29</ele>
        <time>2026-03-27T14:45:18Z</time>
      </trkpt>
      <trkpt lat="43.48895" lon="6.59222">
        <ele>29.1</ele>
        <time>2026-03-27T14:45:19Z</time>
      </trkpt>
      <trkpt lat="43.48896" lon="6.5922">
        <ele>29.1</ele>
        <time>2026-03-27T14:45:20Z</time>
      </trkpt>
      <trkpt lat="43.48897" lon="6.59219">
        <ele>29.1</ele>
        <time>2026-03-27T14:45:21Z</time>
      </trkpt>
      <trkpt lat="43.48898" lon="6.59218">
        <ele>29.1</ele>
        <time>2026-03-27T14:45:22Z</time>
      </trkpt>
      <trkpt lat="43.48898" lon="6.59216">
        <ele>29.2</ele>
        <time>2026-03-27T14:45:23Z</time>
      </trkpt>
      <trkpt lat="43.48899" lon="6.59215">
        <ele>29.2</ele>
        <time>2026-03-27T14:45:24Z</time>
      </trkpt>
      <trkpt lat="43.48899" lon="6.59213">
        <ele>29.2</ele>
        <time>2026-03-27T14:45:25Z</time>
      </trkpt>
      <trkpt lat="43.489" lon="6.59211">
        <ele>29.2</ele>
        <time>2026-03-27T14:45:26Z</time>
      </trkpt>
      <trkpt lat="43.48901" lon="6.5921">
        <ele>29.1</ele>
        <time>2026-03-27T14:45:27Z</time>
      </trkpt>
      <trkpt lat="43.48902" lon="6.59208">
        <ele>29.1</ele>
        <time>2026-03-27T14:45:28Z</time>
      </trkpt>
      <trkpt lat="43.48902" lon="6.59206">
        <ele>29</ele>
        <time>2026-03-27T14:45:29Z</time>
      </trkpt>
      <trkpt lat="43.48903" lon="6.59204">
        <ele>29</ele>
        <time>2026-03-27T14:45:30Z</time>
      </trkpt>
      <trkpt lat="43.48903" lon="6.59203">
        <ele>28.9</ele>
        <time>2026-03-27T14:45:31Z</time>
      </trkpt>
      <trkpt lat="43.48904" lon="6.59203">
        <ele>28.9</ele>
        <time>2026-03-27T14:45:32Z</time>
      </trkpt>
      <trkpt lat="43.48905" lon="6.59201">
        <ele>29</ele>
        <time>2026-03-27T14:45:33Z</time>
      </trkpt>
      <trkpt lat="43.48905" lon="6.592">
        <ele>29</ele>
        <time>2026-03-27T14:45:34Z</time>
      </trkpt>
      <trkpt lat="43.48906" lon="6.59198">
        <ele>29</ele>
        <time>2026-03-27T14:45:35Z</time>
      </trkpt>
      <trkpt lat="43.48907" lon="6.59197">
        <ele>28.9</ele>
        <time>2026-03-27T14:45:36Z</time>
      </trkpt>
      <trkpt lat="43.48908" lon="6.59196">
        <ele>28.9</ele>
        <time>2026-03-27T14:45:37Z</time>
      </trkpt>
      <trkpt lat="43.48909" lon="6.59195">
        <ele>28.9</ele>
        <time>2026-03-27T14:45:38Z</time>
      </trkpt>
      <trkpt lat="43.4891" lon="6.59193">
        <ele>28.9</ele>
        <time>2026-03-27T14:45:39Z</time>
      </trkpt>
      <trkpt lat="43.4891" lon="6.59192">
        <ele>28.9</ele>
        <time>2026-03-27T14:45:40Z</time>
      </trkpt>
      <trkpt lat="43.48911" lon="6.59191">
        <ele>28.9</ele>
        <time>2026-03-27T14:45:41Z</time>
      </trkpt>
      <trkpt lat="43.48912" lon="6.5919">
        <ele>28.9</ele>
        <time>2026-03-27T14:45:42Z</time>
      </trkpt>
      <trkpt lat="43.48913" lon="6.59189">
        <ele>28.9</ele>
        <time>2026-03-27T14:45:43Z</time>
      </trkpt>
      <trkpt lat="43.48914" lon="6.59188">
        <ele>28.9</ele>
        <time>2026-03-27T14:45:44Z</time>
      </trkpt>
      <trkpt lat="43.48916" lon="6.59187">
        <ele>28.9</ele>
        <time>2026-03-27T14:45:45Z</time>
      </trkpt>
      <trkpt lat="43.48917" lon="6.59186">
        <ele>28.9</ele>
        <time>2026-03-27T14:45:46Z</time>
      </trkpt>
      <trkpt lat="43.48918" lon="6.59185">
        <ele>28.9</ele>
        <time>2026-03-27T14:45:47Z</time>
      </trkpt>
      <trkpt lat="43.48919" lon="6.59185">
        <ele>28.7</ele>
        <time>2026-03-27T14:45:48Z</time>
      </trkpt>
      <trkpt lat="43.4892" lon="6.59184">
        <ele>28.7</ele>
        <time>2026-03-27T14:45:49Z</time>
      </trkpt>
      <trkpt lat="43.48921" lon="6.59183">
        <ele>28.8</ele>
        <time>2026-03-27T14:45:50Z</time>
      </trkpt>
      <trkpt lat="43.48922" lon="6.59183">
        <ele>28.8</ele>
        <time>2026-03-27T14:45:51Z</time>
      </trkpt>
      <trkpt lat="43.48923" lon="6.59181">
        <ele>28.8</ele>
        <time>2026-03-27T14:45:52Z</time>
      </trkpt>
      <trkpt lat="43.48924" lon="6.59181">
        <ele>28.8</ele>
        <time>2026-03-27T14:45:53Z</time>
      </trkpt>
      <trkpt lat="43.48925" lon="6.59181">
        <ele>28.8</ele>
        <time>2026-03-27T14:45:54Z</time>
      </trkpt>
      <trkpt lat="43.48926" lon="6.5918">
        <ele>28.9</ele>
        <time>2026-03-27T14:45:55Z</time>
      </trkpt>
      <trkpt lat="43.48928" lon="6.5918">
        <ele>28.9</ele>
        <time>2026-03-27T14:45:56Z</time>
      </trkpt>
      <trkpt lat="43.48929" lon="6.59179">
        <ele>28.8</ele>
        <time>2026-03-27T14:45:57Z</time>
      </trkpt>
      <trkpt lat="43.4893" lon="6.59178">
        <ele>28.9</ele>
        <time>2026-03-27T14:45:58Z</time>
      </trkpt>
      <trkpt lat="43.48931" lon="6.59178">
        <ele>28.8</ele>
        <time>2026-03-27T14:45:59Z</time>
      </trkpt>
      <trkpt lat="43.48932" lon="6.59177">
        <ele>28.8</ele>
        <time>2026-03-27T14:46:00Z</time>
      </trkpt>
      <trkpt lat="43.48933" lon="6.59177">
        <ele>28.8</ele>
        <time>2026-03-27T14:46:01Z</time>
      </trkpt>
      <trkpt lat="43.48934" lon="6.59177">
        <ele>28.6</ele>
        <time>2026-03-27T14:46:02Z</time>
      </trkpt>
      <trkpt lat="43.48934" lon="6.59176">
        <ele>28.6</ele>
        <time>2026-03-27T14:46:03Z</time>
      </trkpt>
      <trkpt lat="43.48935" lon="6.59175">
        <ele>28.5</ele>
        <time>2026-03-27T14:46:04Z</time>
      </trkpt>
      <trkpt lat="43.48936" lon="6.59174">
        <ele>28.4</ele>
        <time>2026-03-27T14:46:05Z</time>
      </trkpt>
      <trkpt lat="43.48937" lon="6.59172">
        <ele>28.4</ele>
        <time>2026-03-27T14:46:06Z</time>
      </trkpt>
      <trkpt lat="43.48938" lon="6.59171">
        <ele>28.4</ele>
        <time>2026-03-27T14:46:07Z</time>
      </trkpt>
      <trkpt lat="43.48938" lon="6.5917">
        <ele>28.3</ele>
        <time>2026-03-27T14:46:08Z</time>
      </trkpt>
      <trkpt lat="43.48939" lon="6.59169">
        <ele>28.2</ele>
        <time>2026-03-27T14:46:09Z</time>
      </trkpt>
      <trkpt lat="43.4894" lon="6.59168">
        <ele>28.1</ele>
        <time>2026-03-27T14:46:10Z</time>
      </trkpt>
      <trkpt lat="43.4894" lon="6.59166">
        <ele>28</ele>
        <time>2026-03-27T14:46:11Z</time>
      </trkpt>
      <trkpt lat="43.48941" lon="6.59165">
        <ele>28</ele>
        <time>2026-03-27T14:46:12Z</time>
      </trkpt>
      <trkpt lat="43.48942" lon="6.59164">
        <ele>27.7</ele>
        <time>2026-03-27T14:46:13Z</time>
      </trkpt>
      <trkpt lat="43.48943" lon="6.59162">
        <ele>27.7</ele>
        <time>2026-03-27T14:46:14Z</time>
      </trkpt>
      <trkpt lat="43.48944" lon="6.59161">
        <ele>27.7</ele>
        <time>2026-03-27T14:46:15Z</time>
      </trkpt>
      <trkpt lat="43.48945" lon="6.5916">
        <ele>27.6</ele>
        <time>2026-03-27T14:46:16Z</time>
      </trkpt>
      <trkpt lat="43.48946" lon="6.59159">
        <ele>27.5</ele>
        <time>2026-03-27T14:46:17Z</time>
      </trkpt>
      <trkpt lat="43.48946" lon="6.59158">
        <ele>27.4</ele>
        <time>2026-03-27T14:46:18Z</time>
      </trkpt>
      <trkpt lat="43.48947" lon="6.59157">
        <ele>27.4</ele>
        <time>2026-03-27T14:46:19Z</time>
      </trkpt>
      <trkpt lat="43.48947" lon="6.59156">
        <ele>27.4</ele>
        <time>2026-03-27T14:46:20Z</time>
      </trkpt>
      <trkpt lat="43.48948" lon="6.59155">
        <ele>27.2</ele>
        <time>2026-03-27T14:46:21Z</time>
      </trkpt>
      <trkpt lat="43.48949" lon="6.59153">
        <ele>27.2</ele>
        <time>2026-03-27T14:46:22Z</time>
      </trkpt>
      <trkpt lat="43.4895" lon="6.59153">
        <ele>27.1</ele>
        <time>2026-03-27T14:46:23Z</time>
      </trkpt>
      <trkpt lat="43.48951" lon="6.59152">
        <ele>27.1</ele>
        <time>2026-03-27T14:46:24Z</time>
      </trkpt>
      <trkpt lat="43.48952" lon="6.59151">
        <ele>27.1</ele>
        <time>2026-03-27T14:46:25Z</time>
      </trkpt>
      <trkpt lat="43.48953" lon="6.5915">
        <ele>27.2</ele>
        <time>2026-03-27T14:46:26Z</time>
      </trkpt>
      <trkpt lat="43.48954" lon="6.59149">
        <ele>27.2</ele>
        <time>2026-03-27T14:46:27Z</time>
      </trkpt>
      <trkpt lat="43.48955" lon="6.59148">
        <ele>27.2</ele>
        <time>2026-03-27T14:46:28Z</time>
      </trkpt>
      <trkpt lat="43.48956" lon="6.59147">
        <ele>27.2</ele>
        <time>2026-03-27T14:46:29Z</time>
      </trkpt>
      <trkpt lat="43.48956" lon="6.59147">
        <ele>27.2</ele>
        <time>2026-03-27T14:46:30Z</time>
      </trkpt>
      <trkpt lat="43.48956" lon="6.59146">
        <ele>27.2</ele>
        <time>2026-03-27T14:46:31Z</time>
      </trkpt>
      <trkpt lat="43.48957" lon="6.59146">
        <ele>27.1</ele>
        <time>2026-03-27T14:46:32Z</time>
      </trkpt>
      <trkpt lat="43.48957" lon="6.59146">
        <ele>27.1</ele>
        <time>2026-03-27T14:46:33Z</time>
      </trkpt>
      <trkpt lat="43.48958" lon="6.59147">
        <ele>27.1</ele>
        <time>2026-03-27T14:46:34Z</time>
      </trkpt>
      <trkpt lat="43.48958" lon="6.59147">
        <ele>27</ele>
        <time>2026-03-27T14:46:35Z</time>
      </trkpt>
      <trkpt lat="43.48958" lon="6.59147">
        <ele>27.1</ele>
        <time>2026-03-27T14:46:36Z</time>
      </trkpt>
      <trkpt lat="43.48958" lon="6.59147">
        <ele>27</ele>
        <time>2026-03-27T14:46:37Z</time>
      </trkpt>
      <trkpt lat="43.48959" lon="6.59147">
        <ele>26.9</ele>
        <time>2026-03-27T14:46:38Z</time>
      </trkpt>
      <trkpt lat="43.48959" lon="6.59147">
        <ele>27</ele>
        <time>2026-03-27T14:46:39Z</time>
      </trkpt>
      <trkpt lat="43.48959" lon="6.59147">
        <ele>27</ele>
        <time>2026-03-27T14:46:40Z</time>
      </trkpt>
      <trkpt lat="43.48959" lon="6.59147">
        <ele>27</ele>
        <time>2026-03-27T14:46:41Z</time>
      </trkpt>
      <trkpt lat="43.48959" lon="6.59147">
        <ele>27</ele>
        <time>2026-03-27T14:46:42Z</time>
      </trkpt>
      <trkpt lat="43.48959" lon="6.59147">
        <ele>27.1</ele>
        <time>2026-03-27T14:46:43Z</time>
      </trkpt>
      <trkpt lat="43.4896" lon="6.59147">
        <ele>27</ele>
        <time>2026-03-27T14:46:44Z</time>
      </trkpt>
      <trkpt lat="43.4896" lon="6.59147">
        <ele>27.1</ele>
        <time>2026-03-27T14:46:45Z</time>
      </trkpt>
      <trkpt lat="43.4896" lon="6.59147">
        <ele>27</ele>
        <time>2026-03-27T14:46:46Z</time>
      </trkpt>
      <trkpt lat="43.4896" lon="6.59148">
        <ele>26.9</ele>
        <time>2026-03-27T14:46:47Z</time>
      </trkpt>
      <trkpt lat="43.4896" lon="6.59148">
        <ele>26.9</ele>
        <time>2026-03-27T14:46:48Z</time>
      </trkpt>
      <trkpt lat="43.4896" lon="6.59148">
        <ele>27</ele>
        <time>2026-03-27T14:46:49Z</time>
      </trkpt>
      <trkpt lat="43.48961" lon="6.59148">
        <ele>27</ele>
        <time>2026-03-27T14:46:50Z</time>
      </trkpt>
      <trkpt lat="43.48961" lon="6.59148">
        <ele>27</ele>
        <time>2026-03-27T14:46:51Z</time>
      </trkpt>
      <trkpt lat="43.48961" lon="6.59149">
        <ele>27</ele>
        <time>2026-03-27T14:46:52Z</time>
      </trkpt>
      <trkpt lat="43.48961" lon="6.59149">
        <ele>27</ele>
        <time>2026-03-27T14:46:53Z</time>
      </trkpt>
      <trkpt lat="43.48962" lon="6.59149">
        <ele>27</ele>
        <time>2026-03-27T14:46:54Z</time>
      </trkpt>
      <trkpt lat="43.48962" lon="6.59149">
        <ele>27.1</ele>
        <time>2026-03-27T14:46:55Z</time>
      </trkpt>
      <trkpt lat="43.48963" lon="6.59149">
        <ele>27.2</ele>
        <time>2026-03-27T14:46:56Z</time>
      </trkpt>
      <trkpt lat="43.48963" lon="6.59149">
        <ele>27.2</ele>
        <time>2026-03-27T14:46:57Z</time>
      </trkpt>
      <trkpt lat="43.48963" lon="6.59149">
        <ele>27.2</ele>
        <time>2026-03-27T14:46:58Z</time>
      </trkpt>
      <trkpt lat="43.48963" lon="6.59149">
        <ele>27.3</ele>
        <time>2026-03-27T14:46:59Z</time>
      </trkpt>
      <trkpt lat="43.48963" lon="6.59149">
        <ele>27.2</ele>
        <time>2026-03-27T14:47:00Z</time>
      </trkpt>
      <trkpt lat="43.48963" lon="6.59149">
        <ele>27.2</ele>
        <time>2026-03-27T14:47:01Z</time>
      </trkpt>
      <trkpt lat="43.48963" lon="6.59149">
        <ele>27.2</ele>
        <time>2026-03-27T14:47:02Z</time>
      </trkpt>
      <trkpt lat="43.48963" lon="6.59149">
        <ele>27.1</ele>
        <time>2026-03-27T14:47:03Z</time>
      </trkpt>
      <trkpt lat="43.48964" lon="6.59148">
        <ele>27.1</ele>
        <time>2026-03-27T14:47:04Z</time>
      </trkpt>
      <trkpt lat="43.48964" lon="6.59147">
        <ele>27.1</ele>
        <time>2026-03-27T14:47:05Z</time>
      </trkpt>
      <trkpt lat="43.48963" lon="6.59147">
        <ele>27.1</ele>
        <time>2026-03-27T14:47:06Z</time>
      </trkpt>
      <trkpt lat="43.48963" lon="6.59146">
        <ele>27.1</ele>
        <time>2026-03-27T14:47:07Z</time>
      </trkpt>
      <trkpt lat="43.48963" lon="6.59146">
        <ele>27.1</ele>
        <time>2026-03-27T14:47:08Z</time>
      </trkpt>
      <trkpt lat="43.48963" lon="6.59145">
        <ele>27.1</ele>
        <time>2026-03-27T14:47:09Z</time>
      </trkpt>
      <trkpt lat="43.48963" lon="6.59144">
        <ele>27.2</ele>
        <time>2026-03-27T14:47:10Z</time>
      </trkpt>
      <trkpt lat="43.48962" lon="6.59144">
        <ele>27.2</ele>
        <time>2026-03-27T14:47:11Z</time>
      </trkpt>
      <trkpt lat="43.48962" lon="6.59144">
        <ele>27.2</ele>
        <time>2026-03-27T14:47:12Z</time>
      </trkpt>
      <trkpt lat="43.48962" lon="6.59144">
        <ele>27.3</ele>
        <time>2026-03-27T14:47:13Z</time>
      </trkpt>
      <trkpt lat="43.48962" lon="6.59144">
        <ele>27.3</ele>
        <time>2026-03-27T14:47:14Z</time>
      </trkpt>
      <trkpt lat="43.48962" lon="6.59144">
        <ele>27.3</ele>
        <time>2026-03-27T14:47:15Z</time>
      </trkpt>
      <trkpt lat="43.48962" lon="6.59144">
        <ele>27.3</ele>
        <time>2026-03-27T14:47:16Z</time>
      </trkpt>
      <trkpt lat="43.48962" lon="6.59145">
        <ele>27.2</ele>
        <time>2026-03-27T14:47:17Z</time>
      </trkpt>
      <trkpt lat="43.48961" lon="6.59144">
        <ele>27.2</ele>
        <time>2026-03-27T14:47:18Z</time>
      </trkpt>
      <trkpt lat="43.48961" lon="6.59145">
        <ele>27.1</ele>
        <time>2026-03-27T14:47:19Z</time>
      </trkpt>
      <trkpt lat="43.48961" lon="6.59145">
        <ele>27.2</ele>
        <time>2026-03-27T14:47:20Z</time>
      </trkpt>
      <trkpt lat="43.48961" lon="6.59144">
        <ele>27.3</ele>
        <time>2026-03-27T14:47:21Z</time>
      </trkpt>
      <trkpt lat="43.48961" lon="6.59144">
        <ele>27.2</ele>
        <time>2026-03-27T14:47:22Z</time>
      </trkpt>
      <trkpt lat="43.48961" lon="6.59144">
        <ele>27.3</ele>
        <time>2026-03-27T14:47:23Z</time>
      </trkpt>
      <trkpt lat="43.48961" lon="6.59144">
        <ele>27.3</ele>
        <time>2026-03-27T14:47:24Z</time>
      </trkpt>
      <trkpt lat="43.4896" lon="6.59144">
        <ele>27.4</ele>
        <time>2026-03-27T14:47:25Z</time>
      </trkpt>
      <trkpt lat="43.4896" lon="6.59143">
        <ele>27.3</ele>
        <time>2026-03-27T14:47:26Z</time>
      </trkpt>
      <trkpt lat="43.4896" lon="6.59143">
        <ele>27.4</ele>
        <time>2026-03-27T14:47:27Z</time>
      </trkpt>
      <trkpt lat="43.4896" lon="6.59143">
        <ele>27.4</ele>
        <time>2026-03-27T14:47:28Z</time>
      </trkpt>
      <trkpt lat="43.4896" lon="6.59144">
        <ele>27.5</ele>
        <time>2026-03-27T14:47:29Z</time>
      </trkpt>
      <trkpt lat="43.4896" lon="6.59144">
        <ele>27.5</ele>
        <time>2026-03-27T14:47:30Z</time>
      </trkpt>
      <trkpt lat="43.4896" lon="6.59144">
        <ele>27.5</ele>
        <time>2026-03-27T14:47:31Z</time>
      </trkpt>
      <trkpt lat="43.4896" lon="6.59144">
        <ele>27.5</ele>
        <time>2026-03-27T14:47:32Z</time>
      </trkpt>
      <trkpt lat="43.4896" lon="6.59144">
        <ele>27.5</ele>
        <time>2026-03-27T14:47:33Z</time>
      </trkpt>
      <trkpt lat="43.4896" lon="6.59144">
        <ele>27.6</ele>
        <time>2026-03-27T14:47:34Z</time>
      </trkpt>
      <trkpt lat="43.4896" lon="6.59144">
        <ele>27.5</ele>
        <time>2026-03-27T14:47:35Z</time>
      </trkpt>
      <trkpt lat="43.4896" lon="6.59144">
        <ele>27.5</ele>
        <time>2026-03-27T14:47:36Z</time>
      </trkpt>
      <trkpt lat="43.48959" lon="6.59143">
        <ele>27.5</ele>
        <time>2026-03-27T14:47:37Z</time>
      </trkpt>
      <trkpt lat="43.48959" lon="6.59143">
        <ele>27.5</ele>
        <time>2026-03-27T14:47:38Z</time>
      </trkpt>
      <trkpt lat="43.48959" lon="6.59142">
        <ele>27.6</ele>
        <time>2026-03-27T14:47:39Z</time>
      </trkpt>
      <trkpt lat="43.48959" lon="6.59142">
        <ele>27.5</ele>
        <time>2026-03-27T14:47:40Z</time>
      </trkpt>
      <trkpt lat="43.48959" lon="6.59141">
        <ele>27.5</ele>
        <time>2026-03-27T14:47:41Z</time>
      </trkpt>
      <trkpt lat="43.48959" lon="6.59142">
        <ele>27.5</ele>
        <time>2026-03-27T14:47:42Z</time>
      </trkpt>
      <trkpt lat="43.48959" lon="6.59141">
        <ele>27.5</ele>
        <time>2026-03-27T14:47:43Z</time>
      </trkpt>
      <trkpt lat="43.48959" lon="6.59141">
        <ele>27.5</ele>
        <time>2026-03-27T14:47:44Z</time>
      </trkpt>
      <trkpt lat="43.48959" lon="6.59141">
        <ele>27.5</ele>
        <time>2026-03-27T14:47:45Z</time>
      </trkpt>
      <trkpt lat="43.48959" lon="6.59142">
        <ele>27.5</ele>
        <time>2026-03-27T14:47:46Z</time>
      </trkpt>
      <trkpt lat="43.48959" lon="6.59142">
        <ele>27.5</ele>
        <time>2026-03-27T14:47:47Z</time>
      </trkpt>
      <trkpt lat="43.48959" lon="6.59142">
        <ele>27.5</ele>
        <time>2026-03-27T14:47:48Z</time>
      </trkpt>
      <trkpt lat="43.48959" lon="6.59143">
        <ele>27.5</ele>
        <time>2026-03-27T14:47:49Z</time>
      </trkpt>
      <trkpt lat="43.4896" lon="6.59143">
        <ele>27.4</ele>
        <time>2026-03-27T14:47:50Z</time>
      </trkpt>
      <trkpt lat="43.4896" lon="6.59144">
        <ele>27.3</ele>
        <time>2026-03-27T14:47:51Z</time>
      </trkpt>
      <trkpt lat="43.4896" lon="6.59144">
        <ele>27.3</ele>
        <time>2026-03-27T14:47:52Z</time>
      </trkpt>
      <trkpt lat="43.4896" lon="6.59144">
        <ele>27.3</ele>
        <time>2026-03-27T14:47:53Z</time>
      </trkpt>
      <trkpt lat="43.48961" lon="6.59145">
        <ele>27.3</ele>
        <time>2026-03-27T14:47:54Z</time>
      </trkpt>
      <trkpt lat="43.48961" lon="6.59145">
        <ele>27.3</ele>
        <time>2026-03-27T14:47:55Z</time>
      </trkpt>
      <trkpt lat="43.48961" lon="6.59145">
        <ele>27.2</ele>
        <time>2026-03-27T14:47:56Z</time>
      </trkpt>
      <trkpt lat="43.48961" lon="6.59145">
        <ele>27.2</ele>
        <time>2026-03-27T14:47:57Z</time>
      </trkpt>
      <trkpt lat="43.48961" lon="6.59145">
        <ele>27.2</ele>
        <time>2026-03-27T14:47:58Z</time>
      </trkpt>
      <trkpt lat="43.48961" lon="6.59146">
        <ele>27.2</ele>
        <time>2026-03-27T14:47:59Z</time>
      </trkpt>
      <trkpt lat="43.48962" lon="6.59146">
        <ele>27.1</ele>
        <time>2026-03-27T14:48:00Z</time>
      </trkpt>
      <trkpt lat="43.48962" lon="6.59146">
        <ele>27.3</ele>
        <time>2026-03-27T14:48:01Z</time>
      </trkpt>
      <trkpt lat="43.48962" lon="6.59146">
        <ele>27.3</ele>
        <time>2026-03-27T14:48:02Z</time>
      </trkpt>
      <trkpt lat="43.48962" lon="6.59146">
        <ele>27.4</ele>
        <time>2026-03-27T14:48:03Z</time>
      </trkpt>
      <trkpt lat="43.48962" lon="6.59146">
        <ele>27.3</ele>
        <time>2026-03-27T14:48:04Z</time>
      </trkpt>
      <trkpt lat="43.48962" lon="6.59146">
        <ele>27.3</ele>
        <time>2026-03-27T14:48:05Z</time>
      </trkpt>
      <trkpt lat="43.48961" lon="6.59146">
        <ele>27.3</ele>
        <time>2026-03-27T14:48:06Z</time>
      </trkpt>
      <trkpt lat="43.48961" lon="6.59146">
        <ele>27.3</ele>
        <time>2026-03-27T14:48:07Z</time>
      </trkpt>
      <trkpt lat="43.48961" lon="6.59146">
        <ele>27.3</ele>
        <time>2026-03-27T14:48:08Z</time>
      </trkpt>
      <trkpt lat="43.48961" lon="6.59146">
        <ele>27.3</ele>
        <time>2026-03-27T14:48:09Z</time>
      </trkpt>
      <trkpt lat="43.4896" lon="6.59145">
        <ele>27.3</ele>
        <time>2026-03-27T14:48:10Z</time>
      </trkpt>
      <trkpt lat="43.4896" lon="6.59145">
        <ele>27.3</ele>
        <time>2026-03-27T14:48:11Z</time>
      </trkpt>
      <trkpt lat="43.4896" lon="6.59145">
        <ele>27.3</ele>
        <time>2026-03-27T14:48:12Z</time>
      </trkpt>
      <trkpt lat="43.4896" lon="6.59145">
        <ele>27.3</ele>
        <time>2026-03-27T14:48:13Z</time>
      </trkpt>
      <trkpt lat="43.4896" lon="6.59145">
        <ele>27.3</ele>
        <time>2026-03-27T14:48:14Z</time>
      </trkpt>
      <trkpt lat="43.4896" lon="6.59145">
        <ele>27.3</ele>
        <time>2026-03-27T14:48:15Z</time>
      </trkpt>
      <trkpt lat="43.4896" lon="6.59144">
        <ele>27.3</ele>
        <time>2026-03-27T14:48:16Z</time>
      </trkpt>
      <trkpt lat="43.48961" lon="6.59145">
        <ele>27.3</ele>
        <time>2026-03-27T14:48:17Z</time>
      </trkpt>
      <trkpt lat="43.48961" lon="6.59144">
        <ele>27.3</ele>
        <time>2026-03-27T14:48:18Z</time>
      </trkpt>
      <trkpt lat="43.48961" lon="6.59144">
        <ele>27.4</ele>
        <time>2026-03-27T14:48:19Z</time>
      </trkpt>
      <trkpt lat="43.48961" lon="6.59144">
        <ele>27.4</ele>
        <time>2026-03-27T14:48:20Z</time>
      </trkpt>
      <trkpt lat="43.4896" lon="6.59144">
        <ele>27.4</ele>
        <time>2026-03-27T14:48:21Z</time>
      </trkpt>
      <trkpt lat="43.4896" lon="6.59144">
        <ele>27.3</ele>
        <time>2026-03-27T14:48:22Z</time>
      </trkpt>
      <trkpt lat="43.4896" lon="6.59144">
        <ele>27.2</ele>
        <time>2026-03-27T14:48:23Z</time>
      </trkpt>
      <trkpt lat="43.4896" lon="6.59144">
        <ele>27.2</ele>
        <time>2026-03-27T14:48:24Z</time>
      </trkpt>
      <trkpt lat="43.4896" lon="6.59144">
        <ele>27.2</ele>
        <time>2026-03-27T14:48:25Z</time>
      </trkpt>
      <trkpt lat="43.48959" lon="6.59144">
        <ele>27.2</ele>
        <time>2026-03-27T14:48:26Z</time>
      </trkpt>
      <trkpt lat="43.48959" lon="6.59144">
        <ele>27.2</ele>
        <time>2026-03-27T14:48:27Z</time>
      </trkpt>
      <trkpt lat="43.4896" lon="6.59144">
        <ele>27.3</ele>
        <time>2026-03-27T14:48:28Z</time>
      </trkpt>
      <trkpt lat="43.4896" lon="6.59144">
        <ele>27.3</ele>
        <time>2026-03-27T14:48:29Z</time>
      </trkpt>
      <trkpt lat="43.4896" lon="6.59144">
        <ele>27.4</ele>
        <time>2026-03-27T14:48:30Z</time>
      </trkpt>
      <trkpt lat="43.4896" lon="6.59144">
        <ele>27.4</ele>
        <time>2026-03-27T14:48:31Z</time>
      </trkpt>
      <trkpt lat="43.4896" lon="6.59145">
        <ele>27.3</ele>
        <time>2026-03-27T14:48:32Z</time>
      </trkpt>
      <trkpt lat="43.4896" lon="6.59145">
        <ele>27.3</ele>
        <time>2026-03-27T14:48:33Z</time>
      </trkpt>
      <trkpt lat="43.48961" lon="6.59145">
        <ele>27.3</ele>
        <time>2026-03-27T14:48:34Z</time>
      </trkpt>
      <trkpt lat="43.48961" lon="6.59145">
        <ele>27.2</ele>
        <time>2026-03-27T14:48:35Z</time>
      </trkpt>
      <trkpt lat="43.48961" lon="6.59145">
        <ele>27.2</ele>
        <time>2026-03-27T14:48:36Z</time>
      </trkpt>
      <trkpt lat="43.48961" lon="6.59146">
        <ele>27.2</ele>
        <time>2026-03-27T14:48:37Z</time>
      </trkpt>
      <trkpt lat="43.48961" lon="6.59146">
        <ele>27.1</ele>
        <time>2026-03-27T14:48:38Z</time>
      </trkpt>
      <trkpt lat="43.48961" lon="6.59146">
        <ele>27.1</ele>
        <time>2026-03-27T14:48:39Z</time>
      </trkpt>
      <trkpt lat="43.48961" lon="6.59146">
        <ele>27.1</ele>
        <time>2026-03-27T14:48:40Z</time>
      </trkpt>
      <trkpt lat="43.48961" lon="6.59145">
        <ele>27</ele>
        <time>2026-03-27T14:48:41Z</time>
      </trkpt>
      <trkpt lat="43.48961" lon="6.59145">
        <ele>27</ele>
        <time>2026-03-27T14:48:42Z</time>
      </trkpt>
      <trkpt lat="43.48961" lon="6.59145">
        <ele>27</ele>
        <time>2026-03-27T14:48:43Z</time>
      </trkpt>
      <trkpt lat="43.48961" lon="6.59145">
        <ele>27</ele>
        <time>2026-03-27T14:48:44Z</time>
      </trkpt>
      <trkpt lat="43.48961" lon="6.59145">
        <ele>26.9</ele>
        <time>2026-03-27T14:48:45Z</time>
      </trkpt>
      <trkpt lat="43.48961" lon="6.59145">
        <ele>26.9</ele>
        <time>2026-03-27T14:48:46Z</time>
      </trkpt>
      <trkpt lat="43.48961" lon="6.59145">
        <ele>26.9</ele>
        <time>2026-03-27T14:48:47Z</time>
      </trkpt>
      <trkpt lat="43.48961" lon="6.59145">
        <ele>26.9</ele>
        <time>2026-03-27T14:48:48Z</time>
      </trkpt>
      <trkpt lat="43.48961" lon="6.59145">
        <ele>26.9</ele>
        <time>2026-03-27T14:48:49Z</time>
      </trkpt>
      <trkpt lat="43.4896" lon="6.59145">
        <ele>26.9</ele>
        <time>2026-03-27T14:48:50Z</time>
      </trkpt>
      <trkpt lat="43.48961" lon="6.59145">
        <ele>26.9</ele>
        <time>2026-03-27T14:48:51Z</time>
      </trkpt>
      <trkpt lat="43.4896" lon="6.59145">
        <ele>26.9</ele>
        <time>2026-03-27T14:48:52Z</time>
      </trkpt>
      <trkpt lat="43.4896" lon="6.59145">
        <ele>26.7</ele>
        <time>2026-03-27T14:48:53Z</time>
      </trkpt>
      <trkpt lat="43.4896" lon="6.59145">
        <ele>26.7</ele>
        <time>2026-03-27T14:48:54Z</time>
      </trkpt>
      <trkpt lat="43.48959" lon="6.59145">
        <ele>26.7</ele>
        <time>2026-03-27T14:48:55Z</time>
      </trkpt>
      <trkpt lat="43.48958" lon="6.59145">
        <ele>26.7</ele>
        <time>2026-03-27T14:48:56Z</time>
      </trkpt>
      <trkpt lat="43.48958" lon="6.59146">
        <ele>26.7</ele>
        <time>2026-03-27T14:48:57Z</time>
      </trkpt>
      <trkpt lat="43.48957" lon="6.59146">
        <ele>26.6</ele>
        <time>2026-03-27T14:48:58Z</time>
      </trkpt>
      <trkpt lat="43.48957" lon="6.59147">
        <ele>26.6</ele>
        <time>2026-03-27T14:48:59Z</time>
      </trkpt>
      <trkpt lat="43.48955" lon="6.59147">
        <ele>26.6</ele>
        <time>2026-03-27T14:49:00Z</time>
      </trkpt>
      <trkpt lat="43.48954" lon="6.59148">
        <ele>26.7</ele>
        <time>2026-03-27T14:49:01Z</time>
      </trkpt>
      <trkpt lat="43.48953" lon="6.59149">
        <ele>26.7</ele>
        <time>2026-03-27T14:49:02Z</time>
      </trkpt>
      <trkpt lat="43.48953" lon="6.59149">
        <ele>26.7</ele>
        <time>2026-03-27T14:49:03Z</time>
      </trkpt>
      <trkpt lat="43.48952" lon="6.59151">
        <ele>26.7</ele>
        <time>2026-03-27T14:49:04Z</time>
      </trkpt>
      <trkpt lat="43.48952" lon="6.59152">
        <ele>26.7</ele>
        <time>2026-03-27T14:49:05Z</time>
      </trkpt>
      <trkpt lat="43.48951" lon="6.59152">
        <ele>26.8</ele>
        <time>2026-03-27T14:49:06Z</time>
      </trkpt>
      <trkpt lat="43.48949" lon="6.59153">
        <ele>26.8</ele>
        <time>2026-03-27T14:49:07Z</time>
      </trkpt>
      <trkpt lat="43.48948" lon="6.59153">
        <ele>26.8</ele>
        <time>2026-03-27T14:49:08Z</time>
      </trkpt>
      <trkpt lat="43.48949" lon="6.59155">
        <ele>26.9</ele>
        <time>2026-03-27T14:49:09Z</time>
      </trkpt>
      <trkpt lat="43.48949" lon="6.59156">
        <ele>26.8</ele>
        <time>2026-03-27T14:49:10Z</time>
      </trkpt>
      <trkpt lat="43.48949" lon="6.59157">
        <ele>26.8</ele>
        <time>2026-03-27T14:49:11Z</time>
      </trkpt>
      <trkpt lat="43.48948" lon="6.59157">
        <ele>27</ele>
        <time>2026-03-27T14:49:12Z</time>
      </trkpt>
      <trkpt lat="43.48947" lon="6.59158">
        <ele>27.1</ele>
        <time>2026-03-27T14:49:13Z</time>
      </trkpt>
      <trkpt lat="43.48946" lon="6.59159">
        <ele>27.2</ele>
        <time>2026-03-27T14:49:14Z</time>
      </trkpt>
      <trkpt lat="43.48946" lon="6.5916">
        <ele>27.2</ele>
        <time>2026-03-27T14:49:15Z</time>
      </trkpt>
      <trkpt lat="43.48945" lon="6.59161">
        <ele>27.3</ele>
        <time>2026-03-27T14:49:16Z</time>
      </trkpt>
      <trkpt lat="43.48945" lon="6.59161">
        <ele>27.2</ele>
        <time>2026-03-27T14:49:17Z</time>
      </trkpt>
      <trkpt lat="43.48945" lon="6.59161">
        <ele>27.2</ele>
        <time>2026-03-27T14:49:18Z</time>
      </trkpt>
      <trkpt lat="43.48945" lon="6.59161">
        <ele>27.3</ele>
        <time>2026-03-27T14:49:19Z</time>
      </trkpt>
      <trkpt lat="43.48944" lon="6.59162">
        <ele>27.4</ele>
        <time>2026-03-27T14:49:20Z</time>
      </trkpt>
      <trkpt lat="43.48943" lon="6.59163">
        <ele>27.3</ele>
        <time>2026-03-27T14:49:21Z</time>
      </trkpt>
      <trkpt lat="43.48942" lon="6.59164">
        <ele>27.4</ele>
        <time>2026-03-27T14:49:22Z</time>
      </trkpt>
      <trkpt lat="43.48941" lon="6.59164">
        <ele>27.5</ele>
        <time>2026-03-27T14:49:23Z</time>
      </trkpt>
      <trkpt lat="43.48941" lon="6.59165">
        <ele>27.5</ele>
        <time>2026-03-27T14:49:24Z</time>
      </trkpt>
      <trkpt lat="43.48941" lon="6.59165">
        <ele>27.6</ele>
        <time>2026-03-27T14:49:25Z</time>
      </trkpt>
      <trkpt lat="43.48941" lon="6.59166">
        <ele>27.6</ele>
        <time>2026-03-27T14:49:26Z</time>
      </trkpt>
      <trkpt lat="43.48941" lon="6.59166">
        <ele>27.6</ele>
        <time>2026-03-27T14:49:27Z</time>
      </trkpt>
      <trkpt lat="43.48941" lon="6.59167">
        <ele>27.7</ele>
        <time>2026-03-27T14:49:28Z</time>
      </trkpt>
      <trkpt lat="43.48941" lon="6.59167">
        <ele>27.7</ele>
        <time>2026-03-27T14:49:29Z</time>
      </trkpt>
      <trkpt lat="43.48941" lon="6.59167">
        <ele>27.7</ele>
        <time>2026-03-27T14:49:30Z</time>
      </trkpt>
      <trkpt lat="43.48941" lon="6.59167">
        <ele>27.7</ele>
        <time>2026-03-27T14:49:31Z</time>
      </trkpt>
      <trkpt lat="43.48941" lon="6.59167">
        <ele>27.7</ele>
        <time>2026-03-27T14:49:32Z</time>
      </trkpt>
      <trkpt lat="43.48941" lon="6.59168">
        <ele>27.7</ele>
        <time>2026-03-27T14:49:33Z</time>
      </trkpt>
      <trkpt lat="43.48941" lon="6.59168">
        <ele>27.8</ele>
        <time>2026-03-27T14:49:34Z</time>
      </trkpt>
      <trkpt lat="43.48941" lon="6.59168">
        <ele>27.8</ele>
        <time>2026-03-27T14:49:35Z</time>
      </trkpt>
      <trkpt lat="43.48941" lon="6.59168">
        <ele>27.8</ele>
        <time>2026-03-27T14:49:36Z</time>
      </trkpt>
      <trkpt lat="43.48941" lon="6.59168">
        <ele>27.9</ele>
        <time>2026-03-27T14:49:37Z</time>
      </trkpt>
      <trkpt lat="43.48941" lon="6.59168">
        <ele>27.9</ele>
        <time>2026-03-27T14:49:38Z</time>
      </trkpt>
      <trkpt lat="43.48941" lon="6.59168">
        <ele>28</ele>
        <time>2026-03-27T14:49:39Z</time>
      </trkpt>
      <trkpt lat="43.48941" lon="6.59168">
        <ele>28</ele>
        <time>2026-03-27T14:49:40Z</time>
      </trkpt>
      <trkpt lat="43.4894" lon="6.59169">
        <ele>28</ele>
        <time>2026-03-27T14:49:41Z</time>
      </trkpt>
      <trkpt lat="43.4894" lon="6.59169">
        <ele>28.1</ele>
        <time>2026-03-27T14:49:42Z</time>
      </trkpt>
      <trkpt lat="43.4894" lon="6.59169">
        <ele>28.1</ele>
        <time>2026-03-27T14:49:43Z</time>
      </trkpt>
      <trkpt lat="43.4894" lon="6.59168">
        <ele>28.1</ele>
        <time>2026-03-27T14:49:44Z</time>
      </trkpt>
      <trkpt lat="43.4894" lon="6.59169">
        <ele>28.1</ele>
        <time>2026-03-27T14:49:45Z</time>
      </trkpt>
      <trkpt lat="43.4894" lon="6.59169">
        <ele>28.1</ele>
        <time>2026-03-27T14:49:46Z</time>
      </trkpt>
      <trkpt lat="43.4894" lon="6.59169">
        <ele>28.2</ele>
        <time>2026-03-27T14:49:47Z</time>
      </trkpt>
      <trkpt lat="43.4894" lon="6.59169">
        <ele>28.3</ele>
        <time>2026-03-27T14:49:48Z</time>
      </trkpt>
      <trkpt lat="43.4894" lon="6.59169">
        <ele>28.2</ele>
        <time>2026-03-27T14:49:49Z</time>
      </trkpt>
      <trkpt lat="43.4894" lon="6.59169">
        <ele>28.3</ele>
        <time>2026-03-27T14:49:50Z</time>
      </trkpt>
      <trkpt lat="43.4894" lon="6.59169">
        <ele>28.4</ele>
        <time>2026-03-27T14:49:51Z</time>
      </trkpt>
      <trkpt lat="43.4894" lon="6.59169">
        <ele>28.4</ele>
        <time>2026-03-27T14:49:52Z</time>
      </trkpt>
      <trkpt lat="43.4894" lon="6.59169">
        <ele>28.4</ele>
        <time>2026-03-27T14:49:53Z</time>
      </trkpt>
      <trkpt lat="43.4894" lon="6.59169">
        <ele>28.4</ele>
        <time>2026-03-27T14:49:54Z</time>
      </trkpt>
      <trkpt lat="43.48939" lon="6.59169">
        <ele>28.4</ele>
        <time>2026-03-27T14:49:55Z</time>
      </trkpt>
      <trkpt lat="43.48939" lon="6.59169">
        <ele>28.3</ele>
        <time>2026-03-27T14:49:56Z</time>
      </trkpt>
      <trkpt lat="43.48939" lon="6.59169">
        <ele>28.3</ele>
        <time>2026-03-27T14:49:57Z</time>
      </trkpt>
      <trkpt lat="43.48939" lon="6.59169">
        <ele>28.3</ele>
        <time>2026-03-27T14:49:58Z</time>
      </trkpt>
      <trkpt lat="43.48939" lon="6.59169">
        <ele>28.3</ele>
        <time>2026-03-27T14:49:59Z</time>
      </trkpt>
      <trkpt lat="43.48939" lon="6.59169">
        <ele>28.3</ele>
        <time>2026-03-27T14:50:00Z</time>
      </trkpt>
      <trkpt lat="43.48939" lon="6.59169">
        <ele>28.2</ele>
        <time>2026-03-27T14:50:01Z</time>
      </trkpt>
      <trkpt lat="43.48939" lon="6.59169">
        <ele>28.2</ele>
        <time>2026-03-27T14:50:02Z</time>
      </trkpt>
      <trkpt lat="43.48938" lon="6.59169">
        <ele>28.2</ele>
        <time>2026-03-27T14:50:03Z</time>
      </trkpt>
      <trkpt lat="43.48938" lon="6.5917">
        <ele>28.2</ele>
        <time>2026-03-27T14:50:04Z</time>
      </trkpt>
      <trkpt lat="43.48938" lon="6.5917">
        <ele>28.2</ele>
        <time>2026-03-27T14:50:05Z</time>
      </trkpt>
      <trkpt lat="43.48938" lon="6.5917">
        <ele>28.2</ele>
        <time>2026-03-27T14:50:06Z</time>
      </trkpt>
      <trkpt lat="43.48938" lon="6.5917">
        <ele>28.2</ele>
        <time>2026-03-27T14:50:07Z</time>
      </trkpt>
      <trkpt lat="43.48938" lon="6.5917">
        <ele>28.2</ele>
        <time>2026-03-27T14:50:08Z</time>
      </trkpt>
      <trkpt lat="43.48938" lon="6.5917">
        <ele>28.2</ele>
        <time>2026-03-27T14:50:09Z</time>
      </trkpt>
      <trkpt lat="43.48938" lon="6.5917">
        <ele>28.2</ele>
        <time>2026-03-27T14:50:10Z</time>
      </trkpt>
      <trkpt lat="43.48938" lon="6.5917">
        <ele>28.1</ele>
        <time>2026-03-27T14:50:11Z</time>
      </trkpt>
      <trkpt lat="43.48938" lon="6.5917">
        <ele>28.1</ele>
        <time>2026-03-27T14:50:12Z</time>
      </trkpt>
      <trkpt lat="43.48938" lon="6.5917">
        <ele>28.1</ele>
        <time>2026-03-27T14:50:13Z</time>
      </trkpt>
      <trkpt lat="43.48938" lon="6.5917">
        <ele>28.1</ele>
        <time>2026-03-27T14:50:14Z</time>
      </trkpt>
      <trkpt lat="43.48938" lon="6.5917">
        <ele>28.1</ele>
        <time>2026-03-27T14:50:15Z</time>
      </trkpt>
      <trkpt lat="43.48938" lon="6.5917">
        <ele>28</ele>
        <time>2026-03-27T14:50:16Z</time>
      </trkpt>
      <trkpt lat="43.48938" lon="6.5917">
        <ele>28</ele>
        <time>2026-03-27T14:50:17Z</time>
      </trkpt>
      <trkpt lat="43.48938" lon="6.5917">
        <ele>28</ele>
        <time>2026-03-27T14:50:18Z</time>
      </trkpt>
      <trkpt lat="43.48938" lon="6.5917">
        <ele>28</ele>
        <time>2026-03-27T14:50:19Z</time>
      </trkpt>
      <trkpt lat="43.48938" lon="6.5917">
        <ele>27.9</ele>
        <time>2026-03-27T14:50:20Z</time>
      </trkpt>
      <trkpt lat="43.48938" lon="6.5917">
        <ele>27.9</ele>
        <time>2026-03-27T14:50:21Z</time>
      </trkpt>
      <trkpt lat="43.48938" lon="6.5917">
        <ele>27.8</ele>
        <time>2026-03-27T14:50:22Z</time>
      </trkpt>
      <trkpt lat="43.48938" lon="6.5917">
        <ele>27.8</ele>
        <time>2026-03-27T14:50:23Z</time>
      </trkpt>
      <trkpt lat="43.48938" lon="6.5917">
        <ele>27.8</ele>
        <time>2026-03-27T14:50:24Z</time>
      </trkpt>
      <trkpt lat="43.48938" lon="6.5917">
        <ele>27.8</ele>
        <time>2026-03-27T14:50:25Z</time>
      </trkpt>
      <trkpt lat="43.48938" lon="6.5917">
        <ele>27.8</ele>
        <time>2026-03-27T14:50:26Z</time>
      </trkpt>
      <trkpt lat="43.48938" lon="6.5917">
        <ele>27.7</ele>
        <time>2026-03-27T14:50:27Z</time>
      </trkpt>
      <trkpt lat="43.48938" lon="6.5917">
        <ele>27.7</ele>
        <time>2026-03-27T14:50:28Z</time>
      </trkpt>
      <trkpt lat="43.48938" lon="6.5917">
        <ele>27.6</ele>
        <time>2026-03-27T14:50:29Z</time>
      </trkpt>
      <trkpt lat="43.48938" lon="6.5917">
        <ele>27.6</ele>
        <time>2026-03-27T14:50:30Z</time>
      </trkpt>
      <trkpt lat="43.48937" lon="6.59169">
        <ele>27.6</ele>
        <time>2026-03-27T14:50:31Z</time>
      </trkpt>
      <trkpt lat="43.48937" lon="6.59169">
        <ele>27.6</ele>
        <time>2026-03-27T14:50:32Z</time>
      </trkpt>
      <trkpt lat="43.48936" lon="6.59168">
        <ele>27.7</ele>
        <time>2026-03-27T14:50:33Z</time>
      </trkpt>
      <trkpt lat="43.48936" lon="6.59167">
        <ele>27.7</ele>
        <time>2026-03-27T14:50:34Z</time>
      </trkpt>
      <trkpt lat="43.48935" lon="6.59166">
        <ele>27.8</ele>
        <time>2026-03-27T14:50:35Z</time>
      </trkpt>
      <trkpt lat="43.48935" lon="6.59165">
        <ele>27.9</ele>
        <time>2026-03-27T14:50:36Z</time>
      </trkpt>
      <trkpt lat="43.48934" lon="6.59164">
        <ele>27.9</ele>
        <time>2026-03-27T14:50:37Z</time>
      </trkpt>
      <trkpt lat="43.48933" lon="6.59163">
        <ele>28</ele>
        <time>2026-03-27T14:50:38Z</time>
      </trkpt>
      <trkpt lat="43.48932" lon="6.59163">
        <ele>28.1</ele>
        <time>2026-03-27T14:50:39Z</time>
      </trkpt>
      <trkpt lat="43.48932" lon="6.59162">
        <ele>28.1</ele>
        <time>2026-03-27T14:50:40Z</time>
      </trkpt>
      <trkpt lat="43.48931" lon="6.59161">
        <ele>28.2</ele>
        <time>2026-03-27T14:50:41Z</time>
      </trkpt>
      <trkpt lat="43.4893" lon="6.5916">
        <ele>28.3</ele>
        <time>2026-03-27T14:50:42Z</time>
      </trkpt>
      <trkpt lat="43.48929" lon="6.5916">
        <ele>28.5</ele>
        <time>2026-03-27T14:50:43Z</time>
      </trkpt>
      <trkpt lat="43.48929" lon="6.59159">
        <ele>28.7</ele>
        <time>2026-03-27T14:50:44Z</time>
      </trkpt>
      <trkpt lat="43.48928" lon="6.59159">
        <ele>28.8</ele>
        <time>2026-03-27T14:50:45Z</time>
      </trkpt>
      <trkpt lat="43.48928" lon="6.59159">
        <ele>28.9</ele>
        <time>2026-03-27T14:50:46Z</time>
      </trkpt>
      <trkpt lat="43.48927" lon="6.5916">
        <ele>29</ele>
        <time>2026-03-27T14:50:47Z</time>
      </trkpt>
      <trkpt lat="43.48927" lon="6.5916">
        <ele>29</ele>
        <time>2026-03-27T14:50:48Z</time>
      </trkpt>
      <trkpt lat="43.48927" lon="6.5916">
        <ele>29</ele>
        <time>2026-03-27T14:50:49Z</time>
      </trkpt>
      <trkpt lat="43.48927" lon="6.5916">
        <ele>29</ele>
        <time>2026-03-27T14:50:50Z</time>
      </trkpt>
      <trkpt lat="43.48927" lon="6.5916">
        <ele>29</ele>
        <time>2026-03-27T14:50:51Z</time>
      </trkpt>
      <trkpt lat="43.48927" lon="6.5916">
        <ele>29.1</ele>
        <time>2026-03-27T14:50:52Z</time>
      </trkpt>
      <trkpt lat="43.48927" lon="6.5916">
        <ele>29.1</ele>
        <time>2026-03-27T14:50:53Z</time>
      </trkpt>
      <trkpt lat="43.48927" lon="6.59161">
        <ele>29.1</ele>
        <time>2026-03-27T14:50:54Z</time>
      </trkpt>
      <trkpt lat="43.48927" lon="6.59161">
        <ele>29.1</ele>
        <time>2026-03-27T14:50:55Z</time>
      </trkpt>
      <trkpt lat="43.48926" lon="6.59161">
        <ele>29.2</ele>
        <time>2026-03-27T14:50:56Z</time>
      </trkpt>
      <trkpt lat="43.48926" lon="6.59161">
        <ele>29.1</ele>
        <time>2026-03-27T14:50:57Z</time>
      </trkpt>
      <trkpt lat="43.48926" lon="6.59162">
        <ele>29.1</ele>
        <time>2026-03-27T14:50:58Z</time>
      </trkpt>
      <trkpt lat="43.48926" lon="6.59162">
        <ele>29.1</ele>
        <time>2026-03-27T14:50:59Z</time>
      </trkpt>
      <trkpt lat="43.48926" lon="6.59162">
        <ele>29.1</ele>
        <time>2026-03-27T14:51:00Z</time>
      </trkpt>
      <trkpt lat="43.48926" lon="6.59162">
        <ele>29.1</ele>
        <time>2026-03-27T14:51:01Z</time>
      </trkpt>
      <trkpt lat="43.48926" lon="6.59162">
        <ele>29.1</ele>
        <time>2026-03-27T14:51:02Z</time>
      </trkpt>
      <trkpt lat="43.48926" lon="6.59162">
        <ele>29.1</ele>
        <time>2026-03-27T14:51:03Z</time>
      </trkpt>
      <trkpt lat="43.48926" lon="6.59162">
        <ele>29.1</ele>
        <time>2026-03-27T14:51:04Z</time>
      </trkpt>
      <trkpt lat="43.48926" lon="6.59163">
        <ele>29.1</ele>
        <time>2026-03-27T14:51:05Z</time>
      </trkpt>
      <trkpt lat="43.48926" lon="6.59163">
        <ele>29</ele>
        <time>2026-03-27T14:51:06Z</time>
      </trkpt>
      <trkpt lat="43.48926" lon="6.59163">
        <ele>29</ele>
        <time>2026-03-27T14:51:07Z</time>
      </trkpt>
      <trkpt lat="43.48926" lon="6.59163">
        <ele>29.1</ele>
        <time>2026-03-27T14:51:08Z</time>
      </trkpt>
      <trkpt lat="43.48925" lon="6.59163">
        <ele>29.1</ele>
        <time>2026-03-27T14:51:09Z</time>
      </trkpt>
      <trkpt lat="43.48925" lon="6.59163">
        <ele>29.1</ele>
        <time>2026-03-27T14:51:10Z</time>
      </trkpt>
      <trkpt lat="43.48925" lon="6.59163">
        <ele>29.1</ele>
        <time>2026-03-27T14:51:11Z</time>
      </trkpt>
      <trkpt lat="43.48925" lon="6.59163">
        <ele>29.2</ele>
        <time>2026-03-27T14:51:12Z</time>
      </trkpt>
      <trkpt lat="43.48925" lon="6.59164">
        <ele>29.2</ele>
        <time>2026-03-27T14:51:13Z</time>
      </trkpt>
      <trkpt lat="43.48925" lon="6.59164">
        <ele>29.3</ele>
        <time>2026-03-27T14:51:14Z</time>
      </trkpt>
      <trkpt lat="43.48925" lon="6.59164">
        <ele>29.4</ele>
        <time>2026-03-27T14:51:15Z</time>
      </trkpt>
      <trkpt lat="43.48925" lon="6.59164">
        <ele>29.4</ele>
        <time>2026-03-27T14:51:16Z</time>
      </trkpt>
      <trkpt lat="43.48925" lon="6.59164">
        <ele>29.3</ele>
        <time>2026-03-27T14:51:17Z</time>
      </trkpt>
      <trkpt lat="43.48925" lon="6.59164">
        <ele>29.3</ele>
        <time>2026-03-27T14:51:18Z</time>
      </trkpt>
      <trkpt lat="43.48924" lon="6.59164">
        <ele>29.3</ele>
        <time>2026-03-27T14:51:19Z</time>
      </trkpt>
      <trkpt lat="43.48924" lon="6.59164">
        <ele>29.3</ele>
        <time>2026-03-27T14:51:20Z</time>
      </trkpt>
      <trkpt lat="43.48924" lon="6.59164">
        <ele>29.3</ele>
        <time>2026-03-27T14:51:21Z</time>
      </trkpt>
      <trkpt lat="43.48924" lon="6.59164">
        <ele>29.3</ele>
        <time>2026-03-27T14:51:22Z</time>
      </trkpt>
      <trkpt lat="43.48924" lon="6.59164">
        <ele>29.3</ele>
        <time>2026-03-27T14:51:23Z</time>
      </trkpt>
      <trkpt lat="43.48924" lon="6.59163">
        <ele>29.3</ele>
        <time>2026-03-27T14:51:24Z</time>
      </trkpt>
      <trkpt lat="43.48924" lon="6.59162">
        <ele>29.3</ele>
        <time>2026-03-27T14:51:25Z</time>
      </trkpt>
      <trkpt lat="43.48923" lon="6.59161">
        <ele>29.4</ele>
        <time>2026-03-27T14:51:26Z</time>
      </trkpt>
      <trkpt lat="43.48922" lon="6.5916">
        <ele>29.3</ele>
        <time>2026-03-27T14:51:27Z</time>
      </trkpt>
      <trkpt lat="43.48922" lon="6.59159">
        <ele>29.3</ele>
        <time>2026-03-27T14:51:28Z</time>
      </trkpt>
      <trkpt lat="43.48921" lon="6.59158">
        <ele>29.4</ele>
        <time>2026-03-27T14:51:29Z</time>
      </trkpt>
      <trkpt lat="43.48921" lon="6.59157">
        <ele>29.5</ele>
        <time>2026-03-27T14:51:30Z</time>
      </trkpt>
      <trkpt lat="43.4892" lon="6.59156">
        <ele>29.5</ele>
        <time>2026-03-27T14:51:31Z</time>
      </trkpt>
      <trkpt lat="43.48919" lon="6.59155">
        <ele>29.7</ele>
        <time>2026-03-27T14:51:32Z</time>
      </trkpt>
      <trkpt lat="43.48919" lon="6.59155">
        <ele>29.8</ele>
        <time>2026-03-27T14:51:33Z</time>
      </trkpt>
      <trkpt lat="43.48918" lon="6.59154">
        <ele>29.9</ele>
        <time>2026-03-27T14:51:34Z</time>
      </trkpt>
      <trkpt lat="43.48918" lon="6.59153">
        <ele>30</ele>
        <time>2026-03-27T14:51:35Z</time>
      </trkpt>
      <trkpt lat="43.48917" lon="6.59152">
        <ele>30.2</ele>
        <time>2026-03-27T14:51:36Z</time>
      </trkpt>
      <trkpt lat="43.48917" lon="6.59151">
        <ele>30.3</ele>
        <time>2026-03-27T14:51:37Z</time>
      </trkpt>
      <trkpt lat="43.48916" lon="6.59151">
        <ele>30.5</ele>
        <time>2026-03-27T14:51:38Z</time>
      </trkpt>
      <trkpt lat="43.48915" lon="6.59151">
        <ele>30.8</ele>
        <time>2026-03-27T14:51:39Z</time>
      </trkpt>
      <trkpt lat="43.48915" lon="6.5915">
        <ele>30.9</ele>
        <time>2026-03-27T14:51:40Z</time>
      </trkpt>
      <trkpt lat="43.48914" lon="6.59149">
        <ele>31.1</ele>
        <time>2026-03-27T14:51:41Z</time>
      </trkpt>
      <trkpt lat="43.48914" lon="6.59148">
        <ele>31.2</ele>
        <time>2026-03-27T14:51:42Z</time>
      </trkpt>
      <trkpt lat="43.48913" lon="6.59147">
        <ele>31.4</ele>
        <time>2026-03-27T14:51:43Z</time>
      </trkpt>
      <trkpt lat="43.48912" lon="6.59147">
        <ele>31.6</ele>
        <time>2026-03-27T14:51:44Z</time>
      </trkpt>
      <trkpt lat="43.48911" lon="6.59146">
        <ele>31.7</ele>
        <time>2026-03-27T14:51:45Z</time>
      </trkpt>
      <trkpt lat="43.48911" lon="6.59146">
        <ele>31.9</ele>
        <time>2026-03-27T14:51:46Z</time>
      </trkpt>
      <trkpt lat="43.4891" lon="6.59145">
        <ele>32.1</ele>
        <time>2026-03-27T14:51:47Z</time>
      </trkpt>
      <trkpt lat="43.48909" lon="6.59145">
        <ele>32.2</ele>
        <time>2026-03-27T14:51:48Z</time>
      </trkpt>
      <trkpt lat="43.48909" lon="6.59144">
        <ele>32.3</ele>
        <time>2026-03-27T14:51:49Z</time>
      </trkpt>
      <trkpt lat="43.48908" lon="6.59144">
        <ele>32.5</ele>
        <time>2026-03-27T14:51:50Z</time>
      </trkpt>
      <trkpt lat="43.48908" lon="6.59143">
        <ele>32.6</ele>
        <time>2026-03-27T14:51:51Z</time>
      </trkpt>
      <trkpt lat="43.48908" lon="6.59142">
        <ele>32.8</ele>
        <time>2026-03-27T14:51:52Z</time>
      </trkpt>
      <trkpt lat="43.48907" lon="6.59141">
        <ele>33</ele>
        <time>2026-03-27T14:51:53Z</time>
      </trkpt>
      <trkpt lat="43.48907" lon="6.59141">
        <ele>33.2</ele>
        <time>2026-03-27T14:51:54Z</time>
      </trkpt>
      <trkpt lat="43.48907" lon="6.5914">
        <ele>33.3</ele>
        <time>2026-03-27T14:51:55Z</time>
      </trkpt>
      <trkpt lat="43.48906" lon="6.59139">
        <ele>33.5</ele>
        <time>2026-03-27T14:51:56Z</time>
      </trkpt>
      <trkpt lat="43.48905" lon="6.59139">
        <ele>33.7</ele>
        <time>2026-03-27T14:51:57Z</time>
      </trkpt>
      <trkpt lat="43.48905" lon="6.59138">
        <ele>33.9</ele>
        <time>2026-03-27T14:51:58Z</time>
      </trkpt>
      <trkpt lat="43.48904" lon="6.59137">
        <ele>34.2</ele>
        <time>2026-03-27T14:51:59Z</time>
      </trkpt>
      <trkpt lat="43.48903" lon="6.59136">
        <ele>34.3</ele>
        <time>2026-03-27T14:52:00Z</time>
      </trkpt>
      <trkpt lat="43.48903" lon="6.59136">
        <ele>34.4</ele>
        <time>2026-03-27T14:52:01Z</time>
      </trkpt>
      <trkpt lat="43.48902" lon="6.59135">
        <ele>34.5</ele>
        <time>2026-03-27T14:52:02Z</time>
      </trkpt>
      <trkpt lat="43.48902" lon="6.59135">
        <ele>34.7</ele>
        <time>2026-03-27T14:52:03Z</time>
      </trkpt>
      <trkpt lat="43.48901" lon="6.59134">
        <ele>34.7</ele>
        <time>2026-03-27T14:52:04Z</time>
      </trkpt>
      <trkpt lat="43.489" lon="6.59134">
        <ele>34.9</ele>
        <time>2026-03-27T14:52:05Z</time>
      </trkpt>
      <trkpt lat="43.48899" lon="6.59134">
        <ele>35</ele>
        <time>2026-03-27T14:52:06Z</time>
      </trkpt>
      <trkpt lat="43.48899" lon="6.59134">
        <ele>35.2</ele>
        <time>2026-03-27T14:52:07Z</time>
      </trkpt>
      <trkpt lat="43.48898" lon="6.59133">
        <ele>35.4</ele>
        <time>2026-03-27T14:52:08Z</time>
      </trkpt>
      <trkpt lat="43.48898" lon="6.59132">
        <ele>35.6</ele>
        <time>2026-03-27T14:52:09Z</time>
      </trkpt>
      <trkpt lat="43.48897" lon="6.59131">
        <ele>35.7</ele>
        <time>2026-03-27T14:52:10Z</time>
      </trkpt>
      <trkpt lat="43.48896" lon="6.59131">
        <ele>35.8</ele>
        <time>2026-03-27T14:52:11Z</time>
      </trkpt>
      <trkpt lat="43.48896" lon="6.59131">
        <ele>36</ele>
        <time>2026-03-27T14:52:12Z</time>
      </trkpt>
      <trkpt lat="43.48895" lon="6.5913">
        <ele>36.1</ele>
        <time>2026-03-27T14:52:13Z</time>
      </trkpt>
      <trkpt lat="43.48895" lon="6.5913">
        <ele>36.2</ele>
        <time>2026-03-27T14:52:14Z</time>
      </trkpt>
      <trkpt lat="43.48895" lon="6.59129">
        <ele>36.3</ele>
        <time>2026-03-27T14:52:15Z</time>
      </trkpt>
      <trkpt lat="43.48894" lon="6.59129">
        <ele>36.5</ele>
        <time>2026-03-27T14:52:16Z</time>
      </trkpt>
      <trkpt lat="43.48894" lon="6.59128">
        <ele>36.6</ele>
        <time>2026-03-27T14:52:17Z</time>
      </trkpt>
      <trkpt lat="43.48893" lon="6.59128">
        <ele>36.7</ele>
        <time>2026-03-27T14:52:18Z</time>
      </trkpt>
      <trkpt lat="43.48893" lon="6.59127">
        <ele>36.8</ele>
        <time>2026-03-27T14:52:19Z</time>
      </trkpt>
      <trkpt lat="43.48892" lon="6.59127">
        <ele>37</ele>
        <time>2026-03-27T14:52:20Z</time>
      </trkpt>
      <trkpt lat="43.48892" lon="6.59126">
        <ele>37.1</ele>
        <time>2026-03-27T14:52:21Z</time>
      </trkpt>
      <trkpt lat="43.48892" lon="6.59126">
        <ele>37.3</ele>
        <time>2026-03-27T14:52:22Z</time>
      </trkpt>
      <trkpt lat="43.48891" lon="6.59125">
        <ele>37.5</ele>
        <time>2026-03-27T14:52:23Z</time>
      </trkpt>
      <trkpt lat="43.4889" lon="6.59125">
        <ele>37.6</ele>
        <time>2026-03-27T14:52:24Z</time>
      </trkpt>
      <trkpt lat="43.48889" lon="6.59125">
        <ele>37.7</ele>
        <time>2026-03-27T14:52:25Z</time>
      </trkpt>
      <trkpt lat="43.48889" lon="6.59125">
        <ele>37.8</ele>
        <time>2026-03-27T14:52:26Z</time>
      </trkpt>
      <trkpt lat="43.48889" lon="6.59124">
        <ele>37.9</ele>
        <time>2026-03-27T14:52:27Z</time>
      </trkpt>
      <trkpt lat="43.48888" lon="6.59124">
        <ele>38</ele>
        <time>2026-03-27T14:52:28Z</time>
      </trkpt>
      <trkpt lat="43.48887" lon="6.59123">
        <ele>38</ele>
        <time>2026-03-27T14:52:29Z</time>
      </trkpt>
      <trkpt lat="43.48886" lon="6.59123">
        <ele>38.1</ele>
        <time>2026-03-27T14:52:30Z</time>
      </trkpt>
      <trkpt lat="43.48885" lon="6.59123">
        <ele>38.2</ele>
        <time>2026-03-27T14:52:31Z</time>
      </trkpt>
      <trkpt lat="43.48885" lon="6.59123">
        <ele>38.3</ele>
        <time>2026-03-27T14:52:32Z</time>
      </trkpt>
      <trkpt lat="43.48884" lon="6.59123">
        <ele>38.4</ele>
        <time>2026-03-27T14:52:33Z</time>
      </trkpt>
      <trkpt lat="43.48884" lon="6.59122">
        <ele>38.4</ele>
        <time>2026-03-27T14:52:34Z</time>
      </trkpt>
      <trkpt lat="43.48883" lon="6.59121">
        <ele>38.5</ele>
        <time>2026-03-27T14:52:35Z</time>
      </trkpt>
      <trkpt lat="43.48882" lon="6.59121">
        <ele>38.5</ele>
        <time>2026-03-27T14:52:36Z</time>
      </trkpt>
      <trkpt lat="43.48882" lon="6.59121">
        <ele>38.6</ele>
        <time>2026-03-27T14:52:37Z</time>
      </trkpt>
      <trkpt lat="43.48881" lon="6.5912">
        <ele>38.6</ele>
        <time>2026-03-27T14:52:38Z</time>
      </trkpt>
      <trkpt lat="43.4888" lon="6.59119">
        <ele>38.7</ele>
        <time>2026-03-27T14:52:39Z</time>
      </trkpt>
      <trkpt lat="43.48879" lon="6.59119">
        <ele>38.8</ele>
        <time>2026-03-27T14:52:40Z</time>
      </trkpt>
      <trkpt lat="43.48878" lon="6.59118">
        <ele>38.9</ele>
        <time>2026-03-27T14:52:41Z</time>
      </trkpt>
      <trkpt lat="43.48877" lon="6.59118">
        <ele>38.8</ele>
        <time>2026-03-27T14:52:42Z</time>
      </trkpt>
      <trkpt lat="43.48876" lon="6.59117">
        <ele>38.9</ele>
        <time>2026-03-27T14:52:43Z</time>
      </trkpt>
      <trkpt lat="43.48876" lon="6.59117">
        <ele>39</ele>
        <time>2026-03-27T14:52:44Z</time>
      </trkpt>
      <trkpt lat="43.48875" lon="6.59117">
        <ele>39.2</ele>
        <time>2026-03-27T14:52:45Z</time>
      </trkpt>
      <trkpt lat="43.48874" lon="6.59117">
        <ele>39.4</ele>
        <time>2026-03-27T14:52:46Z</time>
      </trkpt>
      <trkpt lat="43.48873" lon="6.59116">
        <ele>39.6</ele>
        <time>2026-03-27T14:52:47Z</time>
      </trkpt>
      <trkpt lat="43.48872" lon="6.59116">
        <ele>39.7</ele>
        <time>2026-03-27T14:52:48Z</time>
      </trkpt>
      <trkpt lat="43.48871" lon="6.59116">
        <ele>39.8</ele>
        <time>2026-03-27T14:52:49Z</time>
      </trkpt>
      <trkpt lat="43.4887" lon="6.59115">
        <ele>39.9</ele>
        <time>2026-03-27T14:52:50Z</time>
      </trkpt>
      <trkpt lat="43.4887" lon="6.59114">
        <ele>40</ele>
        <time>2026-03-27T14:52:51Z</time>
      </trkpt>
      <trkpt lat="43.48869" lon="6.59114">
        <ele>40.1</ele>
        <time>2026-03-27T14:52:52Z</time>
      </trkpt>
      <trkpt lat="43.48868" lon="6.59114">
        <ele>40.2</ele>
        <time>2026-03-27T14:52:53Z</time>
      </trkpt>
      <trkpt lat="43.48867" lon="6.59114">
        <ele>40.2</ele>
        <time>2026-03-27T14:52:54Z</time>
      </trkpt>
      <trkpt lat="43.48866" lon="6.59113">
        <ele>40.3</ele>
        <time>2026-03-27T14:52:55Z</time>
      </trkpt>
      <trkpt lat="43.48865" lon="6.59113">
        <ele>40.3</ele>
        <time>2026-03-27T14:52:56Z</time>
      </trkpt>
      <trkpt lat="43.48864" lon="6.59113">
        <ele>40.6</ele>
        <time>2026-03-27T14:52:57Z</time>
      </trkpt>
      <trkpt lat="43.48863" lon="6.59112">
        <ele>40.6</ele>
        <time>2026-03-27T14:52:58Z</time>
      </trkpt>
      <trkpt lat="43.48862" lon="6.59112">
        <ele>40.8</ele>
        <time>2026-03-27T14:52:59Z</time>
      </trkpt>
      <trkpt lat="43.48862" lon="6.59111">
        <ele>40.9</ele>
        <time>2026-03-27T14:53:00Z</time>
      </trkpt>
      <trkpt lat="43.48861" lon="6.59111">
        <ele>41</ele>
        <time>2026-03-27T14:53:01Z</time>
      </trkpt>
      <trkpt lat="43.4886" lon="6.59112">
        <ele>41.1</ele>
        <time>2026-03-27T14:53:02Z</time>
      </trkpt>
      <trkpt lat="43.48859" lon="6.59111">
        <ele>41.1</ele>
        <time>2026-03-27T14:53:03Z</time>
      </trkpt>
      <trkpt lat="43.48857" lon="6.59111">
        <ele>41.2</ele>
        <time>2026-03-27T14:53:04Z</time>
      </trkpt>
      <trkpt lat="43.48857" lon="6.5911">
        <ele>41.2</ele>
        <time>2026-03-27T14:53:05Z</time>
      </trkpt>
      <trkpt lat="43.48855" lon="6.5911">
        <ele>41.3</ele>
        <time>2026-03-27T14:53:06Z</time>
      </trkpt>
      <trkpt lat="43.48854" lon="6.59109">
        <ele>41.4</ele>
        <time>2026-03-27T14:53:07Z</time>
      </trkpt>
      <trkpt lat="43.48854" lon="6.59109">
        <ele>41.4</ele>
        <time>2026-03-27T14:53:08Z</time>
      </trkpt>
      <trkpt lat="43.48853" lon="6.59109">
        <ele>41.3</ele>
        <time>2026-03-27T14:53:09Z</time>
      </trkpt>
      <trkpt lat="43.48852" lon="6.59108">
        <ele>41.4</ele>
        <time>2026-03-27T14:53:10Z</time>
      </trkpt>
      <trkpt lat="43.48851" lon="6.59107">
        <ele>41.4</ele>
        <time>2026-03-27T14:53:11Z</time>
      </trkpt>
      <trkpt lat="43.4885" lon="6.59107">
        <ele>41.5</ele>
        <time>2026-03-27T14:53:12Z</time>
      </trkpt>
      <trkpt lat="43.48848" lon="6.59106">
        <ele>41.6</ele>
        <time>2026-03-27T14:53:13Z</time>
      </trkpt>
      <trkpt lat="43.48847" lon="6.59106">
        <ele>41.6</ele>
        <time>2026-03-27T14:53:14Z</time>
      </trkpt>
      <trkpt lat="43.48846" lon="6.59105">
        <ele>41.6</ele>
        <time>2026-03-27T14:53:15Z</time>
      </trkpt>
      <trkpt lat="43.48846" lon="6.59105">
        <ele>41.7</ele>
        <time>2026-03-27T14:53:16Z</time>
      </trkpt>
      <trkpt lat="43.48845" lon="6.59104">
        <ele>41.8</ele>
        <time>2026-03-27T14:53:17Z</time>
      </trkpt>
      <trkpt lat="43.48844" lon="6.59104">
        <ele>41.8</ele>
        <time>2026-03-27T14:53:18Z</time>
      </trkpt>
      <trkpt lat="43.48843" lon="6.59103">
        <ele>41.8</ele>
        <time>2026-03-27T14:53:19Z</time>
      </trkpt>
      <trkpt lat="43.48842" lon="6.59102">
        <ele>41.9</ele>
        <time>2026-03-27T14:53:20Z</time>
      </trkpt>
      <trkpt lat="43.48841" lon="6.59101">
        <ele>41.9</ele>
        <time>2026-03-27T14:53:21Z</time>
      </trkpt>
      <trkpt lat="43.4884" lon="6.59101">
        <ele>42</ele>
        <time>2026-03-27T14:53:22Z</time>
      </trkpt>
      <trkpt lat="43.48839" lon="6.59101">
        <ele>42</ele>
        <time>2026-03-27T14:53:23Z</time>
      </trkpt>
      <trkpt lat="43.48838" lon="6.59101">
        <ele>42.1</ele>
        <time>2026-03-27T14:53:24Z</time>
      </trkpt>
      <trkpt lat="43.48837" lon="6.591">
        <ele>42.5</ele>
        <time>2026-03-27T14:53:25Z</time>
      </trkpt>
      <trkpt lat="43.48836" lon="6.59099">
        <ele>42.4</ele>
        <time>2026-03-27T14:53:26Z</time>
      </trkpt>
      <trkpt lat="43.48835" lon="6.59099">
        <ele>42.4</ele>
        <time>2026-03-27T14:53:27Z</time>
      </trkpt>
      <trkpt lat="43.48834" lon="6.59099">
        <ele>42.3</ele>
        <time>2026-03-27T14:53:28Z</time>
      </trkpt>
      <trkpt lat="43.48833" lon="6.59099">
        <ele>42.3</ele>
        <time>2026-03-27T14:53:29Z</time>
      </trkpt>
      <trkpt lat="43.48832" lon="6.59098">
        <ele>42.3</ele>
        <time>2026-03-27T14:53:30Z</time>
      </trkpt>
      <trkpt lat="43.48831" lon="6.59098">
        <ele>42.2</ele>
        <time>2026-03-27T14:53:31Z</time>
      </trkpt>
      <trkpt lat="43.4883" lon="6.59097">
        <ele>42.2</ele>
        <time>2026-03-27T14:53:32Z</time>
      </trkpt>
      <trkpt lat="43.48828" lon="6.59096">
        <ele>42.2</ele>
        <time>2026-03-27T14:53:33Z</time>
      </trkpt>
      <trkpt lat="43.48827" lon="6.59095">
        <ele>42.2</ele>
        <time>2026-03-27T14:53:34Z</time>
      </trkpt>
      <trkpt lat="43.48826" lon="6.59094">
        <ele>42.2</ele>
        <time>2026-03-27T14:53:35Z</time>
      </trkpt>
      <trkpt lat="43.48825" lon="6.59094">
        <ele>42.1</ele>
        <time>2026-03-27T14:53:36Z</time>
      </trkpt>
      <trkpt lat="43.48824" lon="6.59094">
        <ele>42.2</ele>
        <time>2026-03-27T14:53:37Z</time>
      </trkpt>
      <trkpt lat="43.48823" lon="6.59093">
        <ele>42.1</ele>
        <time>2026-03-27T14:53:38Z</time>
      </trkpt>
      <trkpt lat="43.48822" lon="6.59092">
        <ele>42</ele>
        <time>2026-03-27T14:53:39Z</time>
      </trkpt>
      <trkpt lat="43.48821" lon="6.59091">
        <ele>41.9</ele>
        <time>2026-03-27T14:53:40Z</time>
      </trkpt>
      <trkpt lat="43.48821" lon="6.5909">
        <ele>41.8</ele>
        <time>2026-03-27T14:53:41Z</time>
      </trkpt>
      <trkpt lat="43.4882" lon="6.59088">
        <ele>41.6</ele>
        <time>2026-03-27T14:53:42Z</time>
      </trkpt>
      <trkpt lat="43.4882" lon="6.59087">
        <ele>41.5</ele>
        <time>2026-03-27T14:53:43Z</time>
      </trkpt>
      <trkpt lat="43.4882" lon="6.59085">
        <ele>41.5</ele>
        <time>2026-03-27T14:53:44Z</time>
      </trkpt>
      <trkpt lat="43.4882" lon="6.59084">
        <ele>41.4</ele>
        <time>2026-03-27T14:53:45Z</time>
      </trkpt>
      <trkpt lat="43.48819" lon="6.59082">
        <ele>41.4</ele>
        <time>2026-03-27T14:53:46Z</time>
      </trkpt>
      <trkpt lat="43.48819" lon="6.59081">
        <ele>41.5</ele>
        <time>2026-03-27T14:53:47Z</time>
      </trkpt>
      <trkpt lat="43.48819" lon="6.5908">
        <ele>41.5</ele>
        <time>2026-03-27T14:53:48Z</time>
      </trkpt>
      <trkpt lat="43.4882" lon="6.59079">
        <ele>41.6</ele>
        <time>2026-03-27T14:53:49Z</time>
      </trkpt>
      <trkpt lat="43.4882" lon="6.59077">
        <ele>41.7</ele>
        <time>2026-03-27T14:53:50Z</time>
      </trkpt>
      <trkpt lat="43.4882" lon="6.59076">
        <ele>41.8</ele>
        <time>2026-03-27T14:53:51Z</time>
      </trkpt>
      <trkpt lat="43.48821" lon="6.59075">
        <ele>41.8</ele>
        <time>2026-03-27T14:53:52Z</time>
      </trkpt>
      <trkpt lat="43.48821" lon="6.59073">
        <ele>41.9</ele>
        <time>2026-03-27T14:53:53Z</time>
      </trkpt>
      <trkpt lat="43.48822" lon="6.59072">
        <ele>42</ele>
        <time>2026-03-27T14:53:54Z</time>
      </trkpt>
      <trkpt lat="43.48823" lon="6.59072">
        <ele>42.2</ele>
        <time>2026-03-27T14:53:55Z</time>
      </trkpt>
      <trkpt lat="43.48823" lon="6.59071">
        <ele>42.3</ele>
        <time>2026-03-27T14:53:56Z</time>
      </trkpt>
      <trkpt lat="43.48824" lon="6.5907">
        <ele>42.4</ele>
        <time>2026-03-27T14:53:57Z</time>
      </trkpt>
      <trkpt lat="43.48824" lon="6.59068">
        <ele>42.5</ele>
        <time>2026-03-27T14:53:58Z</time>
      </trkpt>
      <trkpt lat="43.48825" lon="6.59067">
        <ele>42.6</ele>
        <time>2026-03-27T14:53:59Z</time>
      </trkpt>
      <trkpt lat="43.48825" lon="6.59066">
        <ele>42.7</ele>
        <time>2026-03-27T14:54:00Z</time>
      </trkpt>
      <trkpt lat="43.48825" lon="6.59064">
        <ele>42.7</ele>
        <time>2026-03-27T14:54:01Z</time>
      </trkpt>
      <trkpt lat="43.48826" lon="6.59064">
        <ele>42.7</ele>
        <time>2026-03-27T14:54:02Z</time>
      </trkpt>
      <trkpt lat="43.48826" lon="6.59062">
        <ele>42.5</ele>
        <time>2026-03-27T14:54:03Z</time>
      </trkpt>
      <trkpt lat="43.48827" lon="6.59061">
        <ele>42.5</ele>
        <time>2026-03-27T14:54:04Z</time>
      </trkpt>
      <trkpt lat="43.48827" lon="6.5906">
        <ele>42.4</ele>
        <time>2026-03-27T14:54:05Z</time>
      </trkpt>
      <trkpt lat="43.48827" lon="6.59059">
        <ele>42.4</ele>
        <time>2026-03-27T14:54:06Z</time>
      </trkpt>
      <trkpt lat="43.48828" lon="6.59059">
        <ele>42.5</ele>
        <time>2026-03-27T14:54:07Z</time>
      </trkpt>
      <trkpt lat="43.48829" lon="6.59058">
        <ele>42.5</ele>
        <time>2026-03-27T14:54:08Z</time>
      </trkpt>
      <trkpt lat="43.48829" lon="6.59057">
        <ele>42.5</ele>
        <time>2026-03-27T14:54:09Z</time>
      </trkpt>
      <trkpt lat="43.48829" lon="6.59056">
        <ele>42.5</ele>
        <time>2026-03-27T14:54:10Z</time>
      </trkpt>
      <trkpt lat="43.4883" lon="6.59054">
        <ele>42.5</ele>
        <time>2026-03-27T14:54:11Z</time>
      </trkpt>
      <trkpt lat="43.4883" lon="6.59053">
        <ele>42.5</ele>
        <time>2026-03-27T14:54:12Z</time>
      </trkpt>
      <trkpt lat="43.4883" lon="6.59052">
        <ele>42.5</ele>
        <time>2026-03-27T14:54:13Z</time>
      </trkpt>
      <trkpt lat="43.48831" lon="6.59051">
        <ele>42.5</ele>
        <time>2026-03-27T14:54:14Z</time>
      </trkpt>
      <trkpt lat="43.48831" lon="6.5905">
        <ele>42.5</ele>
        <time>2026-03-27T14:54:15Z</time>
      </trkpt>
      <trkpt lat="43.48831" lon="6.59049">
        <ele>42.4</ele>
        <time>2026-03-27T14:54:16Z</time>
      </trkpt>
      <trkpt lat="43.48831" lon="6.59049">
        <ele>42.5</ele>
        <time>2026-03-27T14:54:17Z</time>
      </trkpt>
      <trkpt lat="43.48831" lon="6.59049">
        <ele>42.5</ele>
        <time>2026-03-27T14:54:18Z</time>
      </trkpt>
      <trkpt lat="43.48831" lon="6.59049">
        <ele>42.5</ele>
        <time>2026-03-27T14:54:19Z</time>
      </trkpt>
      <trkpt lat="43.48831" lon="6.59049">
        <ele>42.6</ele>
        <time>2026-03-27T14:54:20Z</time>
      </trkpt>
      <trkpt lat="43.4883" lon="6.59048">
        <ele>42.6</ele>
        <time>2026-03-27T14:54:21Z</time>
      </trkpt>
      <trkpt lat="43.48831" lon="6.59048">
        <ele>42.7</ele>
        <time>2026-03-27T14:54:22Z</time>
      </trkpt>
      <trkpt lat="43.4883" lon="6.59048">
        <ele>42.7</ele>
        <time>2026-03-27T14:54:23Z</time>
      </trkpt>
      <trkpt lat="43.48831" lon="6.59047">
        <ele>42.8</ele>
        <time>2026-03-27T14:54:24Z</time>
      </trkpt>
      <trkpt lat="43.48831" lon="6.59047">
        <ele>42.8</ele>
        <time>2026-03-27T14:54:25Z</time>
      </trkpt>
      <trkpt lat="43.48832" lon="6.59046">
        <ele>42.8</ele>
        <time>2026-03-27T14:54:26Z</time>
      </trkpt>
      <trkpt lat="43.48833" lon="6.59045">
        <ele>42.7</ele>
        <time>2026-03-27T14:54:27Z</time>
      </trkpt>
      <trkpt lat="43.48833" lon="6.59044">
        <ele>42.7</ele>
        <time>2026-03-27T14:54:28Z</time>
      </trkpt>
      <trkpt lat="43.48834" lon="6.59042">
        <ele>42.8</ele>
        <time>2026-03-27T14:54:29Z</time>
      </trkpt>
      <trkpt lat="43.48835" lon="6.59041">
        <ele>42.8</ele>
        <time>2026-03-27T14:54:30Z</time>
      </trkpt>
      <trkpt lat="43.48835" lon="6.59039">
        <ele>42.9</ele>
        <time>2026-03-27T14:54:31Z</time>
      </trkpt>
      <trkpt lat="43.48835" lon="6.59038">
        <ele>42.4</ele>
        <time>2026-03-27T14:54:32Z</time>
      </trkpt>
      <trkpt lat="43.48835" lon="6.59037">
        <ele>42.4</ele>
        <time>2026-03-27T14:54:33Z</time>
      </trkpt>
      <trkpt lat="43.48835" lon="6.59035">
        <ele>42.5</ele>
        <time>2026-03-27T14:54:34Z</time>
      </trkpt>
      <trkpt lat="43.48836" lon="6.59034">
        <ele>42.6</ele>
        <time>2026-03-27T14:54:35Z</time>
      </trkpt>
      <trkpt lat="43.48836" lon="6.59032">
        <ele>42.8</ele>
        <time>2026-03-27T14:54:36Z</time>
      </trkpt>
      <trkpt lat="43.48837" lon="6.59031">
        <ele>42.8</ele>
        <time>2026-03-27T14:54:37Z</time>
      </trkpt>
      <trkpt lat="43.48838" lon="6.59029">
        <ele>43</ele>
        <time>2026-03-27T14:54:38Z</time>
      </trkpt>
      <trkpt lat="43.48838" lon="6.59027">
        <ele>43.1</ele>
        <time>2026-03-27T14:54:39Z</time>
      </trkpt>
      <trkpt lat="43.48838" lon="6.59025">
        <ele>43.1</ele>
        <time>2026-03-27T14:54:40Z</time>
      </trkpt>
      <trkpt lat="43.48839" lon="6.59024">
        <ele>43.2</ele>
        <time>2026-03-27T14:54:41Z</time>
      </trkpt>
      <trkpt lat="43.48839" lon="6.59023">
        <ele>43.2</ele>
        <time>2026-03-27T14:54:42Z</time>
      </trkpt>
      <trkpt lat="43.4884" lon="6.59021">
        <ele>43.3</ele>
        <time>2026-03-27T14:54:43Z</time>
      </trkpt>
      <trkpt lat="43.4884" lon="6.59019">
        <ele>43.1</ele>
        <time>2026-03-27T14:54:44Z</time>
      </trkpt>
      <trkpt lat="43.4884" lon="6.59018">
        <ele>43.2</ele>
        <time>2026-03-27T14:54:45Z</time>
      </trkpt>
      <trkpt lat="43.48841" lon="6.59016">
        <ele>43.2</ele>
        <time>2026-03-27T14:54:46Z</time>
      </trkpt>
      <trkpt lat="43.48842" lon="6.59015">
        <ele>43.3</ele>
        <time>2026-03-27T14:54:47Z</time>
      </trkpt>
      <trkpt lat="43.48842" lon="6.59014">
        <ele>43.3</ele>
        <time>2026-03-27T14:54:48Z</time>
      </trkpt>
      <trkpt lat="43.48843" lon="6.59013">
        <ele>43.4</ele>
        <time>2026-03-27T14:54:49Z</time>
      </trkpt>
      <trkpt lat="43.48844" lon="6.59011">
        <ele>43.4</ele>
        <time>2026-03-27T14:54:50Z</time>
      </trkpt>
      <trkpt lat="43.48844" lon="6.59009">
        <ele>43.4</ele>
        <time>2026-03-27T14:54:51Z</time>
      </trkpt>
      <trkpt lat="43.48845" lon="6.59008">
        <ele>43.5</ele>
        <time>2026-03-27T14:54:52Z</time>
      </trkpt>
      <trkpt lat="43.48845" lon="6.59006">
        <ele>43.5</ele>
        <time>2026-03-27T14:54:53Z</time>
      </trkpt>
      <trkpt lat="43.48846" lon="6.59005">
        <ele>43.6</ele>
        <time>2026-03-27T14:54:54Z</time>
      </trkpt>
      <trkpt lat="43.48846" lon="6.59004">
        <ele>43.7</ele>
        <time>2026-03-27T14:54:55Z</time>
      </trkpt>
      <trkpt lat="43.48847" lon="6.59003">
        <ele>43.7</ele>
        <time>2026-03-27T14:54:56Z</time>
      </trkpt>
      <trkpt lat="43.48847" lon="6.59001">
        <ele>43.7</ele>
        <time>2026-03-27T14:54:57Z</time>
      </trkpt>
      <trkpt lat="43.48848" lon="6.58999">
        <ele>43.7</ele>
        <time>2026-03-27T14:54:58Z</time>
      </trkpt>
      <trkpt lat="43.48849" lon="6.58998">
        <ele>43.7</ele>
        <time>2026-03-27T14:54:59Z</time>
      </trkpt>
      <trkpt lat="43.48849" lon="6.58996">
        <ele>43.7</ele>
        <time>2026-03-27T14:55:00Z</time>
      </trkpt>
      <trkpt lat="43.4885" lon="6.58995">
        <ele>43.7</ele>
        <time>2026-03-27T14:55:01Z</time>
      </trkpt>
      <trkpt lat="43.48851" lon="6.58994">
        <ele>43.7</ele>
        <time>2026-03-27T14:55:02Z</time>
      </trkpt>
      <trkpt lat="43.48851" lon="6.58993">
        <ele>43.6</ele>
        <time>2026-03-27T14:55:03Z</time>
      </trkpt>
      <trkpt lat="43.48852" lon="6.58991">
        <ele>43.6</ele>
        <time>2026-03-27T14:55:04Z</time>
      </trkpt>
      <trkpt lat="43.48853" lon="6.5899">
        <ele>43.6</ele>
        <time>2026-03-27T14:55:05Z</time>
      </trkpt>
      <trkpt lat="43.48853" lon="6.58989">
        <ele>43.6</ele>
        <time>2026-03-27T14:55:06Z</time>
      </trkpt>
      <trkpt lat="43.48854" lon="6.58987">
        <ele>43.6</ele>
        <time>2026-03-27T14:55:07Z</time>
      </trkpt>
      <trkpt lat="43.48854" lon="6.58986">
        <ele>43.8</ele>
        <time>2026-03-27T14:55:08Z</time>
      </trkpt>
      <trkpt lat="43.48855" lon="6.58984">
        <ele>44</ele>
        <time>2026-03-27T14:55:09Z</time>
      </trkpt>
      <trkpt lat="43.48856" lon="6.58983">
        <ele>44</ele>
        <time>2026-03-27T14:55:10Z</time>
      </trkpt>
      <trkpt lat="43.48856" lon="6.58982">
        <ele>44.1</ele>
        <time>2026-03-27T14:55:11Z</time>
      </trkpt>
      <trkpt lat="43.48857" lon="6.58981">
        <ele>44.2</ele>
        <time>2026-03-27T14:55:12Z</time>
      </trkpt>
      <trkpt lat="43.48857" lon="6.5898">
        <ele>44.2</ele>
        <time>2026-03-27T14:55:13Z</time>
      </trkpt>
      <trkpt lat="43.48858" lon="6.58978">
        <ele>44.3</ele>
        <time>2026-03-27T14:55:14Z</time>
      </trkpt>
      <trkpt lat="43.48859" lon="6.58977">
        <ele>44.3</ele>
        <time>2026-03-27T14:55:15Z</time>
      </trkpt>
      <trkpt lat="43.48859" lon="6.58976">
        <ele>44.4</ele>
        <time>2026-03-27T14:55:16Z</time>
      </trkpt>
      <trkpt lat="43.4886" lon="6.58974">
        <ele>44.4</ele>
        <time>2026-03-27T14:55:17Z</time>
      </trkpt>
      <trkpt lat="43.48861" lon="6.58973">
        <ele>44.5</ele>
        <time>2026-03-27T14:55:18Z</time>
      </trkpt>
      <trkpt lat="43.48861" lon="6.58971">
        <ele>44.6</ele>
        <time>2026-03-27T14:55:19Z</time>
      </trkpt>
      <trkpt lat="43.48862" lon="6.58969">
        <ele>44.6</ele>
        <time>2026-03-27T14:55:20Z</time>
      </trkpt>
      <trkpt lat="43.48863" lon="6.58968">
        <ele>44.6</ele>
        <time>2026-03-27T14:55:21Z</time>
      </trkpt>
      <trkpt lat="43.48863" lon="6.58966">
        <ele>44.6</ele>
        <time>2026-03-27T14:55:22Z</time>
      </trkpt>
      <trkpt lat="43.48864" lon="6.58965">
        <ele>44.6</ele>
        <time>2026-03-27T14:55:23Z</time>
      </trkpt>
      <trkpt lat="43.48864" lon="6.58963">
        <ele>44.7</ele>
        <time>2026-03-27T14:55:24Z</time>
      </trkpt>
      <trkpt lat="43.48865" lon="6.58961">
        <ele>44.8</ele>
        <time>2026-03-27T14:55:25Z</time>
      </trkpt>
      <trkpt lat="43.48866" lon="6.5896">
        <ele>45</ele>
        <time>2026-03-27T14:55:26Z</time>
      </trkpt>
      <trkpt lat="43.48866" lon="6.58958">
        <ele>45.1</ele>
        <time>2026-03-27T14:55:27Z</time>
      </trkpt>
      <trkpt lat="43.48867" lon="6.58957">
        <ele>45.2</ele>
        <time>2026-03-27T14:55:28Z</time>
      </trkpt>
      <trkpt lat="43.48868" lon="6.58956">
        <ele>45.3</ele>
        <time>2026-03-27T14:55:29Z</time>
      </trkpt>
      <trkpt lat="43.48869" lon="6.58955">
        <ele>45.4</ele>
        <time>2026-03-27T14:55:30Z</time>
      </trkpt>
      <trkpt lat="43.4887" lon="6.58954">
        <ele>45.5</ele>
        <time>2026-03-27T14:55:31Z</time>
      </trkpt>
      <trkpt lat="43.4887" lon="6.58953">
        <ele>45.5</ele>
        <time>2026-03-27T14:55:32Z</time>
      </trkpt>
      <trkpt lat="43.48871" lon="6.58951">
        <ele>45.6</ele>
        <time>2026-03-27T14:55:33Z</time>
      </trkpt>
      <trkpt lat="43.48871" lon="6.5895">
        <ele>45.7</ele>
        <time>2026-03-27T14:55:34Z</time>
      </trkpt>
      <trkpt lat="43.48871" lon="6.58948">
        <ele>45.8</ele>
        <time>2026-03-27T14:55:35Z</time>
      </trkpt>
      <trkpt lat="43.48872" lon="6.58947">
        <ele>45.9</ele>
        <time>2026-03-27T14:55:36Z</time>
      </trkpt>
      <trkpt lat="43.48872" lon="6.58945">
        <ele>46.2</ele>
        <time>2026-03-27T14:55:37Z</time>
      </trkpt>
      <trkpt lat="43.48873" lon="6.58944">
        <ele>46.3</ele>
        <time>2026-03-27T14:55:38Z</time>
      </trkpt>
      <trkpt lat="43.48874" lon="6.58943">
        <ele>46.4</ele>
        <time>2026-03-27T14:55:39Z</time>
      </trkpt>
      <trkpt lat="43.48874" lon="6.58942">
        <ele>46.5</ele>
        <time>2026-03-27T14:55:40Z</time>
      </trkpt>
      <trkpt lat="43.48875" lon="6.58941">
        <ele>46.5</ele>
        <time>2026-03-27T14:55:41Z</time>
      </trkpt>
      <trkpt lat="43.48876" lon="6.5894">
        <ele>46.6</ele>
        <time>2026-03-27T14:55:42Z</time>
      </trkpt>
      <trkpt lat="43.48876" lon="6.58938">
        <ele>46.6</ele>
        <time>2026-03-27T14:55:43Z</time>
      </trkpt>
      <trkpt lat="43.48877" lon="6.58936">
        <ele>46.6</ele>
        <time>2026-03-27T14:55:44Z</time>
      </trkpt>
      <trkpt lat="43.48877" lon="6.58935">
        <ele>46.4</ele>
        <time>2026-03-27T14:55:45Z</time>
      </trkpt>
      <trkpt lat="43.48878" lon="6.58933">
        <ele>46.5</ele>
        <time>2026-03-27T14:55:46Z</time>
      </trkpt>
      <trkpt lat="43.48878" lon="6.58932">
        <ele>46.6</ele>
        <time>2026-03-27T14:55:47Z</time>
      </trkpt>
      <trkpt lat="43.48879" lon="6.5893">
        <ele>46.7</ele>
        <time>2026-03-27T14:55:48Z</time>
      </trkpt>
      <trkpt lat="43.48879" lon="6.58929">
        <ele>46.9</ele>
        <time>2026-03-27T14:55:49Z</time>
      </trkpt>
      <trkpt lat="43.48879" lon="6.58928">
        <ele>47.1</ele>
        <time>2026-03-27T14:55:50Z</time>
      </trkpt>
      <trkpt lat="43.4888" lon="6.58926">
        <ele>47.3</ele>
        <time>2026-03-27T14:55:51Z</time>
      </trkpt>
      <trkpt lat="43.4888" lon="6.58925">
        <ele>47.5</ele>
        <time>2026-03-27T14:55:52Z</time>
      </trkpt>
      <trkpt lat="43.48881" lon="6.58924">
        <ele>47.7</ele>
        <time>2026-03-27T14:55:53Z</time>
      </trkpt>
      <trkpt lat="43.48881" lon="6.58923">
        <ele>47.9</ele>
        <time>2026-03-27T14:55:54Z</time>
      </trkpt>
      <trkpt lat="43.48882" lon="6.58921">
        <ele>48.1</ele>
        <time>2026-03-27T14:55:55Z</time>
      </trkpt>
      <trkpt lat="43.48882" lon="6.5892">
        <ele>48.3</ele>
        <time>2026-03-27T14:55:56Z</time>
      </trkpt>
      <trkpt lat="43.48883" lon="6.58919">
        <ele>48.4</ele>
        <time>2026-03-27T14:55:57Z</time>
      </trkpt>
      <trkpt lat="43.48883" lon="6.58918">
        <ele>48.7</ele>
        <time>2026-03-27T14:55:58Z</time>
      </trkpt>
      <trkpt lat="43.48884" lon="6.58917">
        <ele>48.8</ele>
        <time>2026-03-27T14:55:59Z</time>
      </trkpt>
      <trkpt lat="43.48884" lon="6.58916">
        <ele>48.9</ele>
        <time>2026-03-27T14:56:00Z</time>
      </trkpt>
      <trkpt lat="43.48885" lon="6.58915">
        <ele>49.1</ele>
        <time>2026-03-27T14:56:01Z</time>
      </trkpt>
      <trkpt lat="43.48886" lon="6.58914">
        <ele>49.3</ele>
        <time>2026-03-27T14:56:02Z</time>
      </trkpt>
      <trkpt lat="43.48887" lon="6.58912">
        <ele>49.5</ele>
        <time>2026-03-27T14:56:03Z</time>
      </trkpt>
      <trkpt lat="43.48888" lon="6.58911">
        <ele>49.6</ele>
        <time>2026-03-27T14:56:04Z</time>
      </trkpt>
      <trkpt lat="43.48888" lon="6.58909">
        <ele>49.9</ele>
        <time>2026-03-27T14:56:05Z</time>
      </trkpt>
      <trkpt lat="43.48889" lon="6.58908">
        <ele>50.1</ele>
        <time>2026-03-27T14:56:06Z</time>
      </trkpt>
      <trkpt lat="43.4889" lon="6.58907">
        <ele>50.2</ele>
        <time>2026-03-27T14:56:07Z</time>
      </trkpt>
      <trkpt lat="43.4889" lon="6.58905">
        <ele>50.4</ele>
        <time>2026-03-27T14:56:08Z</time>
      </trkpt>
      <trkpt lat="43.48891" lon="6.58905">
        <ele>50.6</ele>
        <time>2026-03-27T14:56:09Z</time>
      </trkpt>
      <trkpt lat="43.48892" lon="6.58903">
        <ele>50.6</ele>
        <time>2026-03-27T14:56:10Z</time>
      </trkpt>
      <trkpt lat="43.48892" lon="6.58901">
        <ele>50.8</ele>
        <time>2026-03-27T14:56:11Z</time>
      </trkpt>
      <trkpt lat="43.48893" lon="6.589">
        <ele>50.9</ele>
        <time>2026-03-27T14:56:12Z</time>
      </trkpt>
      <trkpt lat="43.48893" lon="6.58898">
        <ele>51</ele>
        <time>2026-03-27T14:56:13Z</time>
      </trkpt>
      <trkpt lat="43.48894" lon="6.58896">
        <ele>51.2</ele>
        <time>2026-03-27T14:56:14Z</time>
      </trkpt>
      <trkpt lat="43.48894" lon="6.58895">
        <ele>51.4</ele>
        <time>2026-03-27T14:56:15Z</time>
      </trkpt>
      <trkpt lat="43.48894" lon="6.58894">
        <ele>51.7</ele>
        <time>2026-03-27T14:56:16Z</time>
      </trkpt>
      <trkpt lat="43.48894" lon="6.58892">
        <ele>52</ele>
        <time>2026-03-27T14:56:17Z</time>
      </trkpt>
      <trkpt lat="43.48895" lon="6.58891">
        <ele>52.2</ele>
        <time>2026-03-27T14:56:18Z</time>
      </trkpt>
      <trkpt lat="43.48895" lon="6.58889">
        <ele>52.3</ele>
        <time>2026-03-27T14:56:19Z</time>
      </trkpt>
      <trkpt lat="43.48896" lon="6.58888">
        <ele>52.6</ele>
        <time>2026-03-27T14:56:20Z</time>
      </trkpt>
      <trkpt lat="43.48897" lon="6.58886">
        <ele>52.8</ele>
        <time>2026-03-27T14:56:21Z</time>
      </trkpt>
      <trkpt lat="43.48897" lon="6.58885">
        <ele>53</ele>
        <time>2026-03-27T14:56:22Z</time>
      </trkpt>
      <trkpt lat="43.48897" lon="6.58883">
        <ele>53.1</ele>
        <time>2026-03-27T14:56:23Z</time>
      </trkpt>
      <trkpt lat="43.48898" lon="6.58883">
        <ele>53.4</ele>
        <time>2026-03-27T14:56:24Z</time>
      </trkpt>
      <trkpt lat="43.48899" lon="6.58882">
        <ele>53.6</ele>
        <time>2026-03-27T14:56:25Z</time>
      </trkpt>
      <trkpt lat="43.48899" lon="6.58881">
        <ele>53.7</ele>
        <time>2026-03-27T14:56:26Z</time>
      </trkpt>
      <trkpt lat="43.489" lon="6.5888">
        <ele>54</ele>
        <time>2026-03-27T14:56:27Z</time>
      </trkpt>
      <trkpt lat="43.489" lon="6.58879">
        <ele>54.3</ele>
        <time>2026-03-27T14:56:28Z</time>
      </trkpt>
      <trkpt lat="43.48901" lon="6.58878">
        <ele>54.4</ele>
        <time>2026-03-27T14:56:29Z</time>
      </trkpt>
      <trkpt lat="43.48902" lon="6.58877">
        <ele>54.6</ele>
        <time>2026-03-27T14:56:30Z</time>
      </trkpt>
      <trkpt lat="43.48903" lon="6.58875">
        <ele>54.9</ele>
        <time>2026-03-27T14:56:31Z</time>
      </trkpt>
      <trkpt lat="43.48903" lon="6.58874">
        <ele>55.1</ele>
        <time>2026-03-27T14:56:32Z</time>
      </trkpt>
      <trkpt lat="43.48904" lon="6.58872">
        <ele>55.3</ele>
        <time>2026-03-27T14:56:33Z</time>
      </trkpt>
      <trkpt lat="43.48904" lon="6.58871">
        <ele>55.4</ele>
        <time>2026-03-27T14:56:34Z</time>
      </trkpt>
      <trkpt lat="43.48905" lon="6.5887">
        <ele>55.5</ele>
        <time>2026-03-27T14:56:35Z</time>
      </trkpt>
      <trkpt lat="43.48905" lon="6.58868">
        <ele>55.6</ele>
        <time>2026-03-27T14:56:36Z</time>
      </trkpt>
      <trkpt lat="43.48905" lon="6.58867">
        <ele>55.7</ele>
        <time>2026-03-27T14:56:37Z</time>
      </trkpt>
      <trkpt lat="43.48906" lon="6.58866">
        <ele>55.8</ele>
        <time>2026-03-27T14:56:38Z</time>
      </trkpt>
      <trkpt lat="43.48906" lon="6.58864">
        <ele>56</ele>
        <time>2026-03-27T14:56:39Z</time>
      </trkpt>
      <trkpt lat="43.48907" lon="6.58862">
        <ele>56</ele>
        <time>2026-03-27T14:56:40Z</time>
      </trkpt>
      <trkpt lat="43.48907" lon="6.58861">
        <ele>56.2</ele>
        <time>2026-03-27T14:56:41Z</time>
      </trkpt>
      <trkpt lat="43.48907" lon="6.58859">
        <ele>56.3</ele>
        <time>2026-03-27T14:56:42Z</time>
      </trkpt>
      <trkpt lat="43.48908" lon="6.58858">
        <ele>56.5</ele>
        <time>2026-03-27T14:56:43Z</time>
      </trkpt>
      <trkpt lat="43.48908" lon="6.58857">
        <ele>56.6</ele>
        <time>2026-03-27T14:56:44Z</time>
      </trkpt>
      <trkpt lat="43.48909" lon="6.58856">
        <ele>56.9</ele>
        <time>2026-03-27T14:56:45Z</time>
      </trkpt>
      <trkpt lat="43.48909" lon="6.58855">
        <ele>57.1</ele>
        <time>2026-03-27T14:56:46Z</time>
      </trkpt>
      <trkpt lat="43.48909" lon="6.58854">
        <ele>57.2</ele>
        <time>2026-03-27T14:56:47Z</time>
      </trkpt>
      <trkpt lat="43.4891" lon="6.58853">
        <ele>57.4</ele>
        <time>2026-03-27T14:56:48Z</time>
      </trkpt>
      <trkpt lat="43.48911" lon="6.58852">
        <ele>57.5</ele>
        <time>2026-03-27T14:56:49Z</time>
      </trkpt>
      <trkpt lat="43.48911" lon="6.58851">
        <ele>57.6</ele>
        <time>2026-03-27T14:56:50Z</time>
      </trkpt>
      <trkpt lat="43.48912" lon="6.58849">
        <ele>57.8</ele>
        <time>2026-03-27T14:56:51Z</time>
      </trkpt>
      <trkpt lat="43.48912" lon="6.58848">
        <ele>57.9</ele>
        <time>2026-03-27T14:56:52Z</time>
      </trkpt>
      <trkpt lat="43.48912" lon="6.58847">
        <ele>58</ele>
        <time>2026-03-27T14:56:53Z</time>
      </trkpt>
      <trkpt lat="43.48913" lon="6.58845">
        <ele>58.2</ele>
        <time>2026-03-27T14:56:54Z</time>
      </trkpt>
      <trkpt lat="43.48914" lon="6.58844">
        <ele>58.4</ele>
        <time>2026-03-27T14:56:55Z</time>
      </trkpt>
      <trkpt lat="43.48914" lon="6.58843">
        <ele>58.6</ele>
        <time>2026-03-27T14:56:56Z</time>
      </trkpt>
      <trkpt lat="43.48915" lon="6.58842">
        <ele>58.7</ele>
        <time>2026-03-27T14:56:57Z</time>
      </trkpt>
      <trkpt lat="43.48915" lon="6.5884">
        <ele>58.8</ele>
        <time>2026-03-27T14:56:58Z</time>
      </trkpt>
      <trkpt lat="43.48915" lon="6.58839">
        <ele>58.9</ele>
        <time>2026-03-27T14:56:59Z</time>
      </trkpt>
      <trkpt lat="43.48916" lon="6.58838">
        <ele>58.9</ele>
        <time>2026-03-27T14:57:00Z</time>
      </trkpt>
      <trkpt lat="43.48916" lon="6.58836">
        <ele>59</ele>
        <time>2026-03-27T14:57:01Z</time>
      </trkpt>
      <trkpt lat="43.48917" lon="6.58836">
        <ele>59.1</ele>
        <time>2026-03-27T14:57:02Z</time>
      </trkpt>
      <trkpt lat="43.48918" lon="6.58834">
        <ele>59.1</ele>
        <time>2026-03-27T14:57:03Z</time>
      </trkpt>
      <trkpt lat="43.48919" lon="6.58834">
        <ele>59.2</ele>
        <time>2026-03-27T14:57:04Z</time>
      </trkpt>
      <trkpt lat="43.48919" lon="6.58832">
        <ele>59.3</ele>
        <time>2026-03-27T14:57:05Z</time>
      </trkpt>
      <trkpt lat="43.4892" lon="6.58831">
        <ele>59.4</ele>
        <time>2026-03-27T14:57:06Z</time>
      </trkpt>
      <trkpt lat="43.4892" lon="6.5883">
        <ele>59.6</ele>
        <time>2026-03-27T14:57:07Z</time>
      </trkpt>
      <trkpt lat="43.48921" lon="6.58829">
        <ele>59.5</ele>
        <time>2026-03-27T14:57:08Z</time>
      </trkpt>
      <trkpt lat="43.48921" lon="6.58828">
        <ele>59.6</ele>
        <time>2026-03-27T14:57:09Z</time>
      </trkpt>
      <trkpt lat="43.48922" lon="6.58826">
        <ele>59.7</ele>
        <time>2026-03-27T14:57:10Z</time>
      </trkpt>
      <trkpt lat="43.48923" lon="6.58825">
        <ele>59.9</ele>
        <time>2026-03-27T14:57:11Z</time>
      </trkpt>
      <trkpt lat="43.48923" lon="6.58823">
        <ele>60.2</ele>
        <time>2026-03-27T14:57:12Z</time>
      </trkpt>
      <trkpt lat="43.48923" lon="6.58822">
        <ele>60.4</ele>
        <time>2026-03-27T14:57:13Z</time>
      </trkpt>
      <trkpt lat="43.48924" lon="6.5882">
        <ele>60.6</ele>
        <time>2026-03-27T14:57:14Z</time>
      </trkpt>
      <trkpt lat="43.48924" lon="6.58819">
        <ele>60.6</ele>
        <time>2026-03-27T14:57:15Z</time>
      </trkpt>
      <trkpt lat="43.48925" lon="6.58818">
        <ele>60.7</ele>
        <time>2026-03-27T14:57:16Z</time>
      </trkpt>
      <trkpt lat="43.48925" lon="6.58817">
        <ele>60.7</ele>
        <time>2026-03-27T14:57:17Z</time>
      </trkpt>
      <trkpt lat="43.48926" lon="6.58815">
        <ele>60.8</ele>
        <time>2026-03-27T14:57:18Z</time>
      </trkpt>
      <trkpt lat="43.48926" lon="6.58814">
        <ele>61</ele>
        <time>2026-03-27T14:57:19Z</time>
      </trkpt>
      <trkpt lat="43.48927" lon="6.58813">
        <ele>61.2</ele>
        <time>2026-03-27T14:57:20Z</time>
      </trkpt>
      <trkpt lat="43.48927" lon="6.58812">
        <ele>61.4</ele>
        <time>2026-03-27T14:57:21Z</time>
      </trkpt>
      <trkpt lat="43.48928" lon="6.58811">
        <ele>61.7</ele>
        <time>2026-03-27T14:57:22Z</time>
      </trkpt>
      <trkpt lat="43.48928" lon="6.58811">
        <ele>62</ele>
        <time>2026-03-27T14:57:23Z</time>
      </trkpt>
      <trkpt lat="43.48929" lon="6.58809">
        <ele>62.2</ele>
        <time>2026-03-27T14:57:24Z</time>
      </trkpt>
      <trkpt lat="43.48929" lon="6.58808">
        <ele>62.4</ele>
        <time>2026-03-27T14:57:25Z</time>
      </trkpt>
      <trkpt lat="43.48929" lon="6.58807">
        <ele>62.5</ele>
        <time>2026-03-27T14:57:26Z</time>
      </trkpt>
      <trkpt lat="43.48929" lon="6.58807">
        <ele>62.6</ele>
        <time>2026-03-27T14:57:27Z</time>
      </trkpt>
      <trkpt lat="43.4893" lon="6.58806">
        <ele>62.8</ele>
        <time>2026-03-27T14:57:28Z</time>
      </trkpt>
      <trkpt lat="43.48931" lon="6.58804">
        <ele>63</ele>
        <time>2026-03-27T14:57:29Z</time>
      </trkpt>
      <trkpt lat="43.48931" lon="6.58803">
        <ele>63</ele>
        <time>2026-03-27T14:57:30Z</time>
      </trkpt>
      <trkpt lat="43.48932" lon="6.58801">
        <ele>63.1</ele>
        <time>2026-03-27T14:57:31Z</time>
      </trkpt>
      <trkpt lat="43.48932" lon="6.588">
        <ele>63.3</ele>
        <time>2026-03-27T14:57:32Z</time>
      </trkpt>
      <trkpt lat="43.48933" lon="6.58798">
        <ele>63.5</ele>
        <time>2026-03-27T14:57:33Z</time>
      </trkpt>
      <trkpt lat="43.48933" lon="6.58797">
        <ele>63.8</ele>
        <time>2026-03-27T14:57:34Z</time>
      </trkpt>
      <trkpt lat="43.48934" lon="6.58796">
        <ele>64</ele>
        <time>2026-03-27T14:57:35Z</time>
      </trkpt>
      <trkpt lat="43.48935" lon="6.58794">
        <ele>64.1</ele>
        <time>2026-03-27T14:57:36Z</time>
      </trkpt>
      <trkpt lat="43.48936" lon="6.58793">
        <ele>64.4</ele>
        <time>2026-03-27T14:57:37Z</time>
      </trkpt>
      <trkpt lat="43.48936" lon="6.58792">
        <ele>64.6</ele>
        <time>2026-03-27T14:57:38Z</time>
      </trkpt>
      <trkpt lat="43.48936" lon="6.58791">
        <ele>64.8</ele>
        <time>2026-03-27T14:57:39Z</time>
      </trkpt>
      <trkpt lat="43.48936" lon="6.58789">
        <ele>65</ele>
        <time>2026-03-27T14:57:40Z</time>
      </trkpt>
      <trkpt lat="43.48937" lon="6.58788">
        <ele>65.2</ele>
        <time>2026-03-27T14:57:41Z</time>
      </trkpt>
      <trkpt lat="43.48937" lon="6.58787">
        <ele>65.3</ele>
        <time>2026-03-27T14:57:42Z</time>
      </trkpt>
      <trkpt lat="43.48937" lon="6.58786">
        <ele>65.4</ele>
        <time>2026-03-27T14:57:43Z</time>
      </trkpt>
      <trkpt lat="43.48938" lon="6.58785">
        <ele>65.8</ele>
        <time>2026-03-27T14:57:44Z</time>
      </trkpt>
      <trkpt lat="43.48939" lon="6.58784">
        <ele>66</ele>
        <time>2026-03-27T14:57:45Z</time>
      </trkpt>
      <trkpt lat="43.48939" lon="6.58784">
        <ele>66</ele>
        <time>2026-03-27T14:57:46Z</time>
      </trkpt>
      <trkpt lat="43.4894" lon="6.58782">
        <ele>66.1</ele>
        <time>2026-03-27T14:57:47Z</time>
      </trkpt>
      <trkpt lat="43.48941" lon="6.58782">
        <ele>66.3</ele>
        <time>2026-03-27T14:57:48Z</time>
      </trkpt>
      <trkpt lat="43.48941" lon="6.58781">
        <ele>66.4</ele>
        <time>2026-03-27T14:57:49Z</time>
      </trkpt>
      <trkpt lat="43.48942" lon="6.58781">
        <ele>66.5</ele>
        <time>2026-03-27T14:57:50Z</time>
      </trkpt>
      <trkpt lat="43.48943" lon="6.5878">
        <ele>66.7</ele>
        <time>2026-03-27T14:57:51Z</time>
      </trkpt>
      <trkpt lat="43.48943" lon="6.58778">
        <ele>66.8</ele>
        <time>2026-03-27T14:57:52Z</time>
      </trkpt>
      <trkpt lat="43.48944" lon="6.58777">
        <ele>66.9</ele>
        <time>2026-03-27T14:57:53Z</time>
      </trkpt>
      <trkpt lat="43.48944" lon="6.58775">
        <ele>66.9</ele>
        <time>2026-03-27T14:57:54Z</time>
      </trkpt>
      <trkpt lat="43.48945" lon="6.58774">
        <ele>67</ele>
        <time>2026-03-27T14:57:55Z</time>
      </trkpt>
      <trkpt lat="43.48946" lon="6.58773">
        <ele>67.1</ele>
        <time>2026-03-27T14:57:56Z</time>
      </trkpt>
      <trkpt lat="43.48946" lon="6.58772">
        <ele>67.4</ele>
        <time>2026-03-27T14:57:57Z</time>
      </trkpt>
      <trkpt lat="43.48947" lon="6.5877">
        <ele>67.6</ele>
        <time>2026-03-27T14:57:58Z</time>
      </trkpt>
      <trkpt lat="43.48947" lon="6.58768">
        <ele>67.8</ele>
        <time>2026-03-27T14:57:59Z</time>
      </trkpt>
      <trkpt lat="43.48947" lon="6.58767">
        <ele>67.9</ele>
        <time>2026-03-27T14:58:00Z</time>
      </trkpt>
      <trkpt lat="43.48948" lon="6.58766">
        <ele>68.1</ele>
        <time>2026-03-27T14:58:01Z</time>
      </trkpt>
      <trkpt lat="43.48948" lon="6.58764">
        <ele>68.3</ele>
        <time>2026-03-27T14:58:02Z</time>
      </trkpt>
      <trkpt lat="43.48949" lon="6.58762">
        <ele>68.4</ele>
        <time>2026-03-27T14:58:03Z</time>
      </trkpt>
      <trkpt lat="43.4895" lon="6.5876">
        <ele>68.5</ele>
        <time>2026-03-27T14:58:04Z</time>
      </trkpt>
      <trkpt lat="43.48951" lon="6.58759">
        <ele>68.7</ele>
        <time>2026-03-27T14:58:05Z</time>
      </trkpt>
      <trkpt lat="43.48951" lon="6.58758">
        <ele>68.8</ele>
        <time>2026-03-27T14:58:06Z</time>
      </trkpt>
      <trkpt lat="43.48952" lon="6.58756">
        <ele>69</ele>
        <time>2026-03-27T14:58:07Z</time>
      </trkpt>
      <trkpt lat="43.48953" lon="6.58755">
        <ele>69.1</ele>
        <time>2026-03-27T14:58:08Z</time>
      </trkpt>
      <trkpt lat="43.48954" lon="6.58753">
        <ele>69.2</ele>
        <time>2026-03-27T14:58:09Z</time>
      </trkpt>
      <trkpt lat="43.48954" lon="6.58752">
        <ele>69.4</ele>
        <time>2026-03-27T14:58:10Z</time>
      </trkpt>
      <trkpt lat="43.48955" lon="6.5875">
        <ele>69.6</ele>
        <time>2026-03-27T14:58:11Z</time>
      </trkpt>
      <trkpt lat="43.48955" lon="6.58749">
        <ele>69.7</ele>
        <time>2026-03-27T14:58:12Z</time>
      </trkpt>
      <trkpt lat="43.48955" lon="6.58748">
        <ele>69.8</ele>
        <time>2026-03-27T14:58:13Z</time>
      </trkpt>
      <trkpt lat="43.48956" lon="6.58746">
        <ele>70</ele>
        <time>2026-03-27T14:58:14Z</time>
      </trkpt>
      <trkpt lat="43.48956" lon="6.58744">
        <ele>70.2</ele>
        <time>2026-03-27T14:58:15Z</time>
      </trkpt>
      <trkpt lat="43.48957" lon="6.58743">
        <ele>70.5</ele>
        <time>2026-03-27T14:58:16Z</time>
      </trkpt>
      <trkpt lat="43.48958" lon="6.58741">
        <ele>70.7</ele>
        <time>2026-03-27T14:58:17Z</time>
      </trkpt>
      <trkpt lat="43.48959" lon="6.5874">
        <ele>70.8</ele>
        <time>2026-03-27T14:58:18Z</time>
      </trkpt>
      <trkpt lat="43.48959" lon="6.58738">
        <ele>70.9</ele>
        <time>2026-03-27T14:58:19Z</time>
      </trkpt>
      <trkpt lat="43.4896" lon="6.58737">
        <ele>71</ele>
        <time>2026-03-27T14:58:20Z</time>
      </trkpt>
      <trkpt lat="43.4896" lon="6.58735">
        <ele>71.1</ele>
        <time>2026-03-27T14:58:21Z</time>
      </trkpt>
      <trkpt lat="43.4896" lon="6.58734">
        <ele>71.2</ele>
        <time>2026-03-27T14:58:22Z</time>
      </trkpt>
      <trkpt lat="43.4896" lon="6.58732">
        <ele>71.3</ele>
        <time>2026-03-27T14:58:23Z</time>
      </trkpt>
      <trkpt lat="43.4896" lon="6.58731">
        <ele>71.4</ele>
        <time>2026-03-27T14:58:24Z</time>
      </trkpt>
      <trkpt lat="43.48961" lon="6.58729">
        <ele>71.5</ele>
        <time>2026-03-27T14:58:25Z</time>
      </trkpt>
      <trkpt lat="43.48961" lon="6.58728">
        <ele>71.6</ele>
        <time>2026-03-27T14:58:26Z</time>
      </trkpt>
      <trkpt lat="43.48962" lon="6.58727">
        <ele>71.6</ele>
        <time>2026-03-27T14:58:27Z</time>
      </trkpt>
      <trkpt lat="43.48962" lon="6.58725">
        <ele>71.7</ele>
        <time>2026-03-27T14:58:28Z</time>
      </trkpt>
      <trkpt lat="43.48962" lon="6.58723">
        <ele>71.9</ele>
        <time>2026-03-27T14:58:29Z</time>
      </trkpt>
      <trkpt lat="43.48963" lon="6.58722">
        <ele>72.1</ele>
        <time>2026-03-27T14:58:30Z</time>
      </trkpt>
      <trkpt lat="43.48963" lon="6.5872">
        <ele>72.2</ele>
        <time>2026-03-27T14:58:31Z</time>
      </trkpt>
      <trkpt lat="43.48964" lon="6.58719">
        <ele>72.3</ele>
        <time>2026-03-27T14:58:32Z</time>
      </trkpt>
      <trkpt lat="43.48965" lon="6.58717">
        <ele>72.4</ele>
        <time>2026-03-27T14:58:33Z</time>
      </trkpt>
      <trkpt lat="43.48966" lon="6.58716">
        <ele>72.4</ele>
        <time>2026-03-27T14:58:34Z</time>
      </trkpt>
      <trkpt lat="43.48966" lon="6.58715">
        <ele>72.5</ele>
        <time>2026-03-27T14:58:35Z</time>
      </trkpt>
      <trkpt lat="43.48967" lon="6.58714">
        <ele>72.6</ele>
        <time>2026-03-27T14:58:36Z</time>
      </trkpt>
      <trkpt lat="43.48967" lon="6.58712">
        <ele>72.7</ele>
        <time>2026-03-27T14:58:37Z</time>
      </trkpt>
      <trkpt lat="43.48968" lon="6.58711">
        <ele>72.8</ele>
        <time>2026-03-27T14:58:38Z</time>
      </trkpt>
      <trkpt lat="43.48969" lon="6.58709">
        <ele>73</ele>
        <time>2026-03-27T14:58:39Z</time>
      </trkpt>
      <trkpt lat="43.48969" lon="6.58708">
        <ele>73.1</ele>
        <time>2026-03-27T14:58:40Z</time>
      </trkpt>
      <trkpt lat="43.4897" lon="6.58707">
        <ele>73</ele>
        <time>2026-03-27T14:58:41Z</time>
      </trkpt>
      <trkpt lat="43.4897" lon="6.58705">
        <ele>73.1</ele>
        <time>2026-03-27T14:58:42Z</time>
      </trkpt>
      <trkpt lat="43.48971" lon="6.58704">
        <ele>73.2</ele>
        <time>2026-03-27T14:58:43Z</time>
      </trkpt>
      <trkpt lat="43.48972" lon="6.58702">
        <ele>73.2</ele>
        <time>2026-03-27T14:58:44Z</time>
      </trkpt>
      <trkpt lat="43.48972" lon="6.58701">
        <ele>73.3</ele>
        <time>2026-03-27T14:58:45Z</time>
      </trkpt>
      <trkpt lat="43.48973" lon="6.587">
        <ele>73.3</ele>
        <time>2026-03-27T14:58:46Z</time>
      </trkpt>
      <trkpt lat="43.48973" lon="6.58698">
        <ele>73.3</ele>
        <time>2026-03-27T14:58:47Z</time>
      </trkpt>
      <trkpt lat="43.48974" lon="6.58697">
        <ele>73.3</ele>
        <time>2026-03-27T14:58:48Z</time>
      </trkpt>
      <trkpt lat="43.48975" lon="6.58695">
        <ele>73.3</ele>
        <time>2026-03-27T14:58:49Z</time>
      </trkpt>
      <trkpt lat="43.48975" lon="6.58694">
        <ele>73.3</ele>
        <time>2026-03-27T14:58:50Z</time>
      </trkpt>
      <trkpt lat="43.48976" lon="6.58694">
        <ele>73.4</ele>
        <time>2026-03-27T14:58:51Z</time>
      </trkpt>
      <trkpt lat="43.48977" lon="6.58692">
        <ele>73.5</ele>
        <time>2026-03-27T14:58:52Z</time>
      </trkpt>
      <trkpt lat="43.48978" lon="6.58691">
        <ele>73.7</ele>
        <time>2026-03-27T14:58:53Z</time>
      </trkpt>
      <trkpt lat="43.48979" lon="6.5869">
        <ele>73.8</ele>
        <time>2026-03-27T14:58:54Z</time>
      </trkpt>
      <trkpt lat="43.48979" lon="6.58688">
        <ele>73.9</ele>
        <time>2026-03-27T14:58:55Z</time>
      </trkpt>
      <trkpt lat="43.4898" lon="6.58687">
        <ele>74</ele>
        <time>2026-03-27T14:58:56Z</time>
      </trkpt>
      <trkpt lat="43.48981" lon="6.58685">
        <ele>74</ele>
        <time>2026-03-27T14:58:57Z</time>
      </trkpt>
      <trkpt lat="43.48981" lon="6.58684">
        <ele>74.1</ele>
        <time>2026-03-27T14:58:58Z</time>
      </trkpt>
      <trkpt lat="43.48982" lon="6.58682">
        <ele>74.1</ele>
        <time>2026-03-27T14:58:59Z</time>
      </trkpt>
      <trkpt lat="43.48982" lon="6.58681">
        <ele>74.2</ele>
        <time>2026-03-27T14:59:00Z</time>
      </trkpt>
      <trkpt lat="43.48983" lon="6.58679">
        <ele>74.4</ele>
        <time>2026-03-27T14:59:01Z</time>
      </trkpt>
      <trkpt lat="43.48983" lon="6.58678">
        <ele>74.5</ele>
        <time>2026-03-27T14:59:02Z</time>
      </trkpt>
      <trkpt lat="43.48983" lon="6.58676">
        <ele>74.6</ele>
        <time>2026-03-27T14:59:03Z</time>
      </trkpt>
      <trkpt lat="43.48984" lon="6.58675">
        <ele>74.9</ele>
        <time>2026-03-27T14:59:04Z</time>
      </trkpt>
      <trkpt lat="43.48984" lon="6.58673">
        <ele>75</ele>
        <time>2026-03-27T14:59:05Z</time>
      </trkpt>
      <trkpt lat="43.48985" lon="6.58672">
        <ele>75.2</ele>
        <time>2026-03-27T14:59:06Z</time>
      </trkpt>
      <trkpt lat="43.48986" lon="6.58671">
        <ele>75.3</ele>
        <time>2026-03-27T14:59:07Z</time>
      </trkpt>
      <trkpt lat="43.48987" lon="6.5867">
        <ele>75.2</ele>
        <time>2026-03-27T14:59:08Z</time>
      </trkpt>
      <trkpt lat="43.48987" lon="6.58668">
        <ele>75.2</ele>
        <time>2026-03-27T14:59:09Z</time>
      </trkpt>
      <trkpt lat="43.48988" lon="6.58666">
        <ele>75.3</ele>
        <time>2026-03-27T14:59:10Z</time>
      </trkpt>
      <trkpt lat="43.48988" lon="6.58664">
        <ele>75.4</ele>
        <time>2026-03-27T14:59:11Z</time>
      </trkpt>
      <trkpt lat="43.48989" lon="6.58663">
        <ele>75.4</ele>
        <time>2026-03-27T14:59:12Z</time>
      </trkpt>
      <trkpt lat="43.48989" lon="6.58661">
        <ele>75.5</ele>
        <time>2026-03-27T14:59:13Z</time>
      </trkpt>
      <trkpt lat="43.4899" lon="6.5866">
        <ele>75.6</ele>
        <time>2026-03-27T14:59:14Z</time>
      </trkpt>
      <trkpt lat="43.4899" lon="6.58658">
        <ele>75.7</ele>
        <time>2026-03-27T14:59:15Z</time>
      </trkpt>
      <trkpt lat="43.48991" lon="6.58656">
        <ele>75.7</ele>
        <time>2026-03-27T14:59:16Z</time>
      </trkpt>
      <trkpt lat="43.48991" lon="6.58655">
        <ele>75.8</ele>
        <time>2026-03-27T14:59:17Z</time>
      </trkpt>
      <trkpt lat="43.48992" lon="6.58653">
        <ele>75.8</ele>
        <time>2026-03-27T14:59:18Z</time>
      </trkpt>
      <trkpt lat="43.48992" lon="6.58652">
        <ele>75.9</ele>
        <time>2026-03-27T14:59:19Z</time>
      </trkpt>
      <trkpt lat="43.48993" lon="6.5865">
        <ele>75.9</ele>
        <time>2026-03-27T14:59:20Z</time>
      </trkpt>
      <trkpt lat="43.48994" lon="6.58649">
        <ele>76</ele>
        <time>2026-03-27T14:59:21Z</time>
      </trkpt>
      <trkpt lat="43.48994" lon="6.58648">
        <ele>76.1</ele>
        <time>2026-03-27T14:59:22Z</time>
      </trkpt>
      <trkpt lat="43.48995" lon="6.58646">
        <ele>76.1</ele>
        <time>2026-03-27T14:59:23Z</time>
      </trkpt>
      <trkpt lat="43.48996" lon="6.58645">
        <ele>76.1</ele>
        <time>2026-03-27T14:59:24Z</time>
      </trkpt>
      <trkpt lat="43.48996" lon="6.58643">
        <ele>76.1</ele>
        <time>2026-03-27T14:59:25Z</time>
      </trkpt>
      <trkpt lat="43.48997" lon="6.58641">
        <ele>76.2</ele>
        <time>2026-03-27T14:59:26Z</time>
      </trkpt>
      <trkpt lat="43.48998" lon="6.58639">
        <ele>76.4</ele>
        <time>2026-03-27T14:59:27Z</time>
      </trkpt>
      <trkpt lat="43.48998" lon="6.58638">
        <ele>76.5</ele>
        <time>2026-03-27T14:59:28Z</time>
      </trkpt>
      <trkpt lat="43.48999" lon="6.58637">
        <ele>76.7</ele>
        <time>2026-03-27T14:59:29Z</time>
      </trkpt>
      <trkpt lat="43.49" lon="6.58635">
        <ele>76.8</ele>
        <time>2026-03-27T14:59:30Z</time>
      </trkpt>
      <trkpt lat="43.49" lon="6.58634">
        <ele>76.9</ele>
        <time>2026-03-27T14:59:31Z</time>
      </trkpt>
      <trkpt lat="43.49001" lon="6.58633">
        <ele>77.2</ele>
        <time>2026-03-27T14:59:32Z</time>
      </trkpt>
      <trkpt lat="43.49001" lon="6.58631">
        <ele>77.3</ele>
        <time>2026-03-27T14:59:33Z</time>
      </trkpt>
      <trkpt lat="43.49001" lon="6.5863">
        <ele>77.4</ele>
        <time>2026-03-27T14:59:34Z</time>
      </trkpt>
      <trkpt lat="43.49002" lon="6.58628">
        <ele>77.5</ele>
        <time>2026-03-27T14:59:35Z</time>
      </trkpt>
      <trkpt lat="43.49003" lon="6.58627">
        <ele>77.5</ele>
        <time>2026-03-27T14:59:36Z</time>
      </trkpt>
      <trkpt lat="43.49003" lon="6.58625">
        <ele>77.5</ele>
        <time>2026-03-27T14:59:37Z</time>
      </trkpt>
      <trkpt lat="43.49004" lon="6.58624">
        <ele>77.6</ele>
        <time>2026-03-27T14:59:38Z</time>
      </trkpt>
      <trkpt lat="43.49004" lon="6.58623">
        <ele>77.6</ele>
        <time>2026-03-27T14:59:39Z</time>
      </trkpt>
      <trkpt lat="43.49005" lon="6.58621">
        <ele>77.5</ele>
        <time>2026-03-27T14:59:40Z</time>
      </trkpt>
      <trkpt lat="43.49006" lon="6.5862">
        <ele>77.2</ele>
        <time>2026-03-27T14:59:41Z</time>
      </trkpt>
      <trkpt lat="43.49006" lon="6.58619">
        <ele>77.3</ele>
        <time>2026-03-27T14:59:42Z</time>
      </trkpt>
      <trkpt lat="43.49007" lon="6.58617">
        <ele>77.5</ele>
        <time>2026-03-27T14:59:43Z</time>
      </trkpt>
      <trkpt lat="43.49008" lon="6.58616">
        <ele>77.7</ele>
        <time>2026-03-27T14:59:44Z</time>
      </trkpt>
      <trkpt lat="43.49008" lon="6.58615">
        <ele>77.8</ele>
        <time>2026-03-27T14:59:45Z</time>
      </trkpt>
      <trkpt lat="43.49008" lon="6.58613">
        <ele>77.9</ele>
        <time>2026-03-27T14:59:46Z</time>
      </trkpt>
      <trkpt lat="43.49008" lon="6.58612">
        <ele>78</ele>
        <time>2026-03-27T14:59:47Z</time>
      </trkpt>
      <trkpt lat="43.49009" lon="6.58611">
        <ele>78</ele>
        <time>2026-03-27T14:59:48Z</time>
      </trkpt>
      <trkpt lat="43.49009" lon="6.58609">
        <ele>78</ele>
        <time>2026-03-27T14:59:49Z</time>
      </trkpt>
      <trkpt lat="43.49009" lon="6.58608">
        <ele>78.1</ele>
        <time>2026-03-27T14:59:50Z</time>
      </trkpt>
      <trkpt lat="43.4901" lon="6.58608">
        <ele>78.1</ele>
        <time>2026-03-27T14:59:51Z</time>
      </trkpt>
      <trkpt lat="43.4901" lon="6.58607">
        <ele>78.1</ele>
        <time>2026-03-27T14:59:52Z</time>
      </trkpt>
      <trkpt lat="43.4901" lon="6.58606">
        <ele>78.1</ele>
        <time>2026-03-27T14:59:53Z</time>
      </trkpt>
      <trkpt lat="43.49009" lon="6.58605">
        <ele>78.2</ele>
        <time>2026-03-27T14:59:54Z</time>
      </trkpt>
      <trkpt lat="43.49009" lon="6.58605">
        <ele>78.3</ele>
        <time>2026-03-27T14:59:55Z</time>
      </trkpt>
      <trkpt lat="43.49009" lon="6.58605">
        <ele>78.4</ele>
        <time>2026-03-27T14:59:56Z</time>
      </trkpt>
      <trkpt lat="43.49009" lon="6.58605">
        <ele>78.5</ele>
        <time>2026-03-27T14:59:57Z</time>
      </trkpt>
      <trkpt lat="43.49009" lon="6.58604">
        <ele>78.5</ele>
        <time>2026-03-27T14:59:58Z</time>
      </trkpt>
      <trkpt lat="43.49009" lon="6.58604">
        <ele>78.6</ele>
        <time>2026-03-27T14:59:59Z</time>
      </trkpt>
      <trkpt lat="43.49009" lon="6.58604">
        <ele>78.6</ele>
        <time>2026-03-27T15:00:00Z</time>
      </trkpt>
      <trkpt lat="43.49009" lon="6.58603">
        <ele>78.6</ele>
        <time>2026-03-27T15:00:01Z</time>
      </trkpt>
      <trkpt lat="43.49009" lon="6.58603">
        <ele>78.7</ele>
        <time>2026-03-27T15:00:02Z</time>
      </trkpt>
      <trkpt lat="43.49009" lon="6.58602">
        <ele>78.7</ele>
        <time>2026-03-27T15:00:03Z</time>
      </trkpt>
      <trkpt lat="43.4901" lon="6.58601">
        <ele>78.7</ele>
        <time>2026-03-27T15:00:04Z</time>
      </trkpt>
      <trkpt lat="43.4901" lon="6.586">
        <ele>78.9</ele>
        <time>2026-03-27T15:00:05Z</time>
      </trkpt>
      <trkpt lat="43.4901" lon="6.58599">
        <ele>78.9</ele>
        <time>2026-03-27T15:00:06Z</time>
      </trkpt>
      <trkpt lat="43.49011" lon="6.58599">
        <ele>79</ele>
        <time>2026-03-27T15:00:07Z</time>
      </trkpt>
      <trkpt lat="43.49011" lon="6.58598">
        <ele>78.9</ele>
        <time>2026-03-27T15:00:08Z</time>
      </trkpt>
      <trkpt lat="43.49011" lon="6.58598">
        <ele>78.8</ele>
        <time>2026-03-27T15:00:09Z</time>
      </trkpt>
      <trkpt lat="43.49012" lon="6.58598">
        <ele>78.9</ele>
        <time>2026-03-27T15:00:10Z</time>
      </trkpt>
      <trkpt lat="43.49012" lon="6.58598">
        <ele>78.9</ele>
        <time>2026-03-27T15:00:11Z</time>
      </trkpt>
      <trkpt lat="43.49011" lon="6.58598">
        <ele>78.9</ele>
        <time>2026-03-27T15:00:12Z</time>
      </trkpt>
      <trkpt lat="43.49011" lon="6.58598">
        <ele>78.9</ele>
        <time>2026-03-27T15:00:13Z</time>
      </trkpt>
      <trkpt lat="43.49011" lon="6.58597">
        <ele>78.8</ele>
        <time>2026-03-27T15:00:14Z</time>
      </trkpt>
      <trkpt lat="43.49011" lon="6.58597">
        <ele>78.8</ele>
        <time>2026-03-27T15:00:15Z</time>
      </trkpt>
      <trkpt lat="43.49011" lon="6.58597">
        <ele>78.9</ele>
        <time>2026-03-27T15:00:16Z</time>
      </trkpt>
      <trkpt lat="43.49011" lon="6.58597">
        <ele>78.8</ele>
        <time>2026-03-27T15:00:17Z</time>
      </trkpt>
      <trkpt lat="43.49011" lon="6.58598">
        <ele>78.7</ele>
        <time>2026-03-27T15:00:18Z</time>
      </trkpt>
      <trkpt lat="43.49011" lon="6.58598">
        <ele>78.7</ele>
        <time>2026-03-27T15:00:19Z</time>
      </trkpt>
      <trkpt lat="43.49011" lon="6.58598">
        <ele>78.7</ele>
        <time>2026-03-27T15:00:20Z</time>
      </trkpt>
      <trkpt lat="43.4901" lon="6.58598">
        <ele>78.8</ele>
        <time>2026-03-27T15:00:21Z</time>
      </trkpt>
      <trkpt lat="43.4901" lon="6.58598">
        <ele>78.8</ele>
        <time>2026-03-27T15:00:22Z</time>
      </trkpt>
      <trkpt lat="43.4901" lon="6.58598">
        <ele>78.8</ele>
        <time>2026-03-27T15:00:23Z</time>
      </trkpt>
      <trkpt lat="43.4901" lon="6.58598">
        <ele>78.9</ele>
        <time>2026-03-27T15:00:24Z</time>
      </trkpt>
      <trkpt lat="43.4901" lon="6.58598">
        <ele>78.9</ele>
        <time>2026-03-27T15:00:25Z</time>
      </trkpt>
      <trkpt lat="43.4901" lon="6.58598">
        <ele>78.8</ele>
        <time>2026-03-27T15:00:26Z</time>
      </trkpt>
      <trkpt lat="43.4901" lon="6.58598">
        <ele>78.8</ele>
        <time>2026-03-27T15:00:27Z</time>
      </trkpt>
      <trkpt lat="43.4901" lon="6.58597">
        <ele>78.9</ele>
        <time>2026-03-27T15:00:28Z</time>
      </trkpt>
      <trkpt lat="43.4901" lon="6.58597">
        <ele>78.9</ele>
        <time>2026-03-27T15:00:29Z</time>
      </trkpt>
      <trkpt lat="43.4901" lon="6.58597">
        <ele>78.9</ele>
        <time>2026-03-27T15:00:30Z</time>
      </trkpt>
      <trkpt lat="43.4901" lon="6.58597">
        <ele>79</ele>
        <time>2026-03-27T15:00:31Z</time>
      </trkpt>
      <trkpt lat="43.4901" lon="6.58598">
        <ele>79</ele>
        <time>2026-03-27T15:00:32Z</time>
      </trkpt>
      <trkpt lat="43.4901" lon="6.58598">
        <ele>79</ele>
        <time>2026-03-27T15:00:33Z</time>
      </trkpt>
      <trkpt lat="43.4901" lon="6.58598">
        <ele>79</ele>
        <time>2026-03-27T15:00:34Z</time>
      </trkpt>
      <trkpt lat="43.4901" lon="6.58598">
        <ele>79.1</ele>
        <time>2026-03-27T15:00:35Z</time>
      </trkpt>
      <trkpt lat="43.4901" lon="6.58598">
        <ele>79</ele>
        <time>2026-03-27T15:00:36Z</time>
      </trkpt>
      <trkpt lat="43.49009" lon="6.58598">
        <ele>79</ele>
        <time>2026-03-27T15:00:37Z</time>
      </trkpt>
      <trkpt lat="43.49009" lon="6.58598">
        <ele>78.9</ele>
        <time>2026-03-27T15:00:38Z</time>
      </trkpt>
      <trkpt lat="43.49009" lon="6.58598">
        <ele>78.9</ele>
        <time>2026-03-27T15:00:39Z</time>
      </trkpt>
      <trkpt lat="43.49009" lon="6.58598">
        <ele>78.8</ele>
        <time>2026-03-27T15:00:40Z</time>
      </trkpt>
      <trkpt lat="43.49009" lon="6.58598">
        <ele>78.9</ele>
        <time>2026-03-27T15:00:41Z</time>
      </trkpt>
      <trkpt lat="43.49009" lon="6.58598">
        <ele>78.8</ele>
        <time>2026-03-27T15:00:42Z</time>
      </trkpt>
      <trkpt lat="43.49009" lon="6.58598">
        <ele>78.7</ele>
        <time>2026-03-27T15:00:43Z</time>
      </trkpt>
      <trkpt lat="43.49009" lon="6.58598">
        <ele>78.7</ele>
        <time>2026-03-27T15:00:44Z</time>
      </trkpt>
      <trkpt lat="43.49009" lon="6.58598">
        <ele>78.7</ele>
        <time>2026-03-27T15:00:45Z</time>
      </trkpt>
      <trkpt lat="43.49009" lon="6.58598">
        <ele>78.7</ele>
        <time>2026-03-27T15:00:46Z</time>
      </trkpt>
      <trkpt lat="43.49009" lon="6.58598">
        <ele>78.7</ele>
        <time>2026-03-27T15:00:47Z</time>
      </trkpt>
      <trkpt lat="43.49009" lon="6.58598">
        <ele>78.7</ele>
        <time>2026-03-27T15:00:48Z</time>
      </trkpt>
      <trkpt lat="43.49009" lon="6.58598">
        <ele>78.7</ele>
        <time>2026-03-27T15:00:49Z</time>
      </trkpt>
      <trkpt lat="43.49009" lon="6.58598">
        <ele>78.8</ele>
        <time>2026-03-27T15:00:50Z</time>
      </trkpt>
      <trkpt lat="43.49009" lon="6.58598">
        <ele>78.8</ele>
        <time>2026-03-27T15:00:51Z</time>
      </trkpt>
      <trkpt lat="43.49009" lon="6.58598">
        <ele>78.8</ele>
        <time>2026-03-27T15:00:52Z</time>
      </trkpt>
      <trkpt lat="43.49009" lon="6.58598">
        <ele>78.8</ele>
        <time>2026-03-27T15:00:53Z</time>
      </trkpt>
      <trkpt lat="43.49009" lon="6.58598">
        <ele>78.8</ele>
        <time>2026-03-27T15:00:54Z</time>
      </trkpt>
      <trkpt lat="43.49009" lon="6.58598">
        <ele>78.8</ele>
        <time>2026-03-27T15:00:55Z</time>
      </trkpt>
      <trkpt lat="43.49009" lon="6.58598">
        <ele>78.8</ele>
        <time>2026-03-27T15:00:56Z</time>
      </trkpt>
      <trkpt lat="43.49009" lon="6.58598">
        <ele>78.8</ele>
        <time>2026-03-27T15:00:57Z</time>
      </trkpt>
      <trkpt lat="43.49009" lon="6.58598">
        <ele>78.9</ele>
        <time>2026-03-27T15:00:58Z</time>
      </trkpt>
      <trkpt lat="43.49009" lon="6.58597">
        <ele>78.9</ele>
        <time>2026-03-27T15:00:59Z</time>
      </trkpt>
      <trkpt lat="43.49009" lon="6.58597">
        <ele>78.7</ele>
        <time>2026-03-27T15:01:00Z</time>
      </trkpt>
      <trkpt lat="43.49009" lon="6.58597">
        <ele>78.7</ele>
        <time>2026-03-27T15:01:01Z</time>
      </trkpt>
      <trkpt lat="43.49009" lon="6.58598">
        <ele>78.8</ele>
        <time>2026-03-27T15:01:02Z</time>
      </trkpt>
      <trkpt lat="43.49009" lon="6.58598">
        <ele>78.9</ele>
        <time>2026-03-27T15:01:03Z</time>
      </trkpt>
      <trkpt lat="43.49009" lon="6.58597">
        <ele>78.9</ele>
        <time>2026-03-27T15:01:04Z</time>
      </trkpt>
      <trkpt lat="43.49009" lon="6.58597">
        <ele>79</ele>
        <time>2026-03-27T15:01:05Z</time>
      </trkpt>
      <trkpt lat="43.49009" lon="6.58597">
        <ele>79</ele>
        <time>2026-03-27T15:01:06Z</time>
      </trkpt>
      <trkpt lat="43.49009" lon="6.58597">
        <ele>79</ele>
        <time>2026-03-27T15:01:07Z</time>
      </trkpt>
      <trkpt lat="43.49009" lon="6.58597">
        <ele>79</ele>
        <time>2026-03-27T15:01:08Z</time>
      </trkpt>
      <trkpt lat="43.49009" lon="6.58597">
        <ele>79</ele>
        <time>2026-03-27T15:01:09Z</time>
      </trkpt>
      <trkpt lat="43.49009" lon="6.58597">
        <ele>79</ele>
        <time>2026-03-27T15:01:10Z</time>
      </trkpt>
      <trkpt lat="43.49009" lon="6.58597">
        <ele>79</ele>
        <time>2026-03-27T15:01:11Z</time>
      </trkpt>
      <trkpt lat="43.49009" lon="6.58597">
        <ele>79</ele>
        <time>2026-03-27T15:01:12Z</time>
      </trkpt>
      <trkpt lat="43.49009" lon="6.58597">
        <ele>79</ele>
        <time>2026-03-27T15:01:13Z</time>
      </trkpt>
      <trkpt lat="43.49009" lon="6.58597">
        <ele>79</ele>
        <time>2026-03-27T15:01:14Z</time>
      </trkpt>
      <trkpt lat="43.49009" lon="6.58597">
        <ele>79.1</ele>
        <time>2026-03-27T15:01:15Z</time>
      </trkpt>
      <trkpt lat="43.49008" lon="6.58597">
        <ele>79.1</ele>
        <time>2026-03-27T15:01:16Z</time>
      </trkpt>
      <trkpt lat="43.49008" lon="6.58597">
        <ele>79.1</ele>
        <time>2026-03-27T15:01:17Z</time>
      </trkpt>
      <trkpt lat="43.49008" lon="6.58597">
        <ele>79.1</ele>
        <time>2026-03-27T15:01:18Z</time>
      </trkpt>
      <trkpt lat="43.49008" lon="6.58597">
        <ele>79.1</ele>
        <time>2026-03-27T15:01:19Z</time>
      </trkpt>
      <trkpt lat="43.49009" lon="6.58597">
        <ele>79.1</ele>
        <time>2026-03-27T15:01:20Z</time>
      </trkpt>
      <trkpt lat="43.49009" lon="6.58597">
        <ele>79.2</ele>
        <time>2026-03-27T15:01:21Z</time>
      </trkpt>
      <trkpt lat="43.49009" lon="6.58597">
        <ele>79.2</ele>
        <time>2026-03-27T15:01:22Z</time>
      </trkpt>
      <trkpt lat="43.49008" lon="6.58597">
        <ele>79.2</ele>
        <time>2026-03-27T15:01:23Z</time>
      </trkpt>
      <trkpt lat="43.49008" lon="6.58597">
        <ele>79.2</ele>
        <time>2026-03-27T15:01:24Z</time>
      </trkpt>
      <trkpt lat="43.49008" lon="6.58597">
        <ele>79.2</ele>
        <time>2026-03-27T15:01:25Z</time>
      </trkpt>
      <trkpt lat="43.49008" lon="6.58597">
        <ele>79.2</ele>
        <time>2026-03-27T15:01:26Z</time>
      </trkpt>
      <trkpt lat="43.49009" lon="6.58597">
        <ele>79.2</ele>
        <time>2026-03-27T15:01:27Z</time>
      </trkpt>
      <trkpt lat="43.49009" lon="6.58597">
        <ele>79.2</ele>
        <time>2026-03-27T15:01:28Z</time>
      </trkpt>
      <trkpt lat="43.49009" lon="6.58597">
        <ele>79.2</ele>
        <time>2026-03-27T15:01:29Z</time>
      </trkpt>
      <trkpt lat="43.49009" lon="6.58596">
        <ele>79.2</ele>
        <time>2026-03-27T15:01:30Z</time>
      </trkpt>
      <trkpt lat="43.49009" lon="6.58596">
        <ele>79.3</ele>
        <time>2026-03-27T15:01:31Z</time>
      </trkpt>
      <trkpt lat="43.49009" lon="6.58596">
        <ele>79.3</ele>
        <time>2026-03-27T15:01:32Z</time>
      </trkpt>
      <trkpt lat="43.49009" lon="6.58596">
        <ele>79.3</ele>
        <time>2026-03-27T15:01:33Z</time>
      </trkpt>
      <trkpt lat="43.49009" lon="6.58596">
        <ele>79.3</ele>
        <time>2026-03-27T15:01:34Z</time>
      </trkpt>
      <trkpt lat="43.49009" lon="6.58596">
        <ele>79.3</ele>
        <time>2026-03-27T15:01:35Z</time>
      </trkpt>
      <trkpt lat="43.49009" lon="6.58596">
        <ele>79.3</ele>
        <time>2026-03-27T15:01:36Z</time>
      </trkpt>
      <trkpt lat="43.49009" lon="6.58596">
        <ele>79.2</ele>
        <time>2026-03-27T15:01:37Z</time>
      </trkpt>
      <trkpt lat="43.49009" lon="6.58596">
        <ele>79.1</ele>
        <time>2026-03-27T15:01:38Z</time>
      </trkpt>
      <trkpt lat="43.49009" lon="6.58596">
        <ele>79</ele>
        <time>2026-03-27T15:01:39Z</time>
      </trkpt>
      <trkpt lat="43.49009" lon="6.58596">
        <ele>79.1</ele>
        <time>2026-03-27T15:01:40Z</time>
      </trkpt>
      <trkpt lat="43.49009" lon="6.58596">
        <ele>79.1</ele>
        <time>2026-03-27T15:01:41Z</time>
      </trkpt>
      <trkpt lat="43.49009" lon="6.58596">
        <ele>79.2</ele>
        <time>2026-03-27T15:01:42Z</time>
      </trkpt>
      <trkpt lat="43.49009" lon="6.58596">
        <ele>79.2</ele>
        <time>2026-03-27T15:01:43Z</time>
      </trkpt>
      <trkpt lat="43.49009" lon="6.58596">
        <ele>79.3</ele>
        <time>2026-03-27T15:01:44Z</time>
      </trkpt>
      <trkpt lat="43.49009" lon="6.58596">
        <ele>79.3</ele>
        <time>2026-03-27T15:01:45Z</time>
      </trkpt>
      <trkpt lat="43.49008" lon="6.58596">
        <ele>79.2</ele>
        <time>2026-03-27T15:01:46Z</time>
      </trkpt>
      <trkpt lat="43.49008" lon="6.58596">
        <ele>79.1</ele>
        <time>2026-03-27T15:01:47Z</time>
      </trkpt>
      <trkpt lat="43.49008" lon="6.58596">
        <ele>79.1</ele>
        <time>2026-03-27T15:01:48Z</time>
      </trkpt>
      <trkpt lat="43.49008" lon="6.58596">
        <ele>79</ele>
        <time>2026-03-27T15:01:49Z</time>
      </trkpt>
      <trkpt lat="43.49008" lon="6.58596">
        <ele>79.1</ele>
        <time>2026-03-27T15:01:50Z</time>
      </trkpt>
      <trkpt lat="43.49008" lon="6.58596">
        <ele>79.1</ele>
        <time>2026-03-27T15:01:51Z</time>
      </trkpt>
      <trkpt lat="43.49008" lon="6.58596">
        <ele>79.1</ele>
        <time>2026-03-27T15:01:52Z</time>
      </trkpt>
      <trkpt lat="43.49008" lon="6.58596">
        <ele>79.1</ele>
        <time>2026-03-27T15:01:53Z</time>
      </trkpt>
      <trkpt lat="43.49008" lon="6.58596">
        <ele>79.1</ele>
        <time>2026-03-27T15:01:54Z</time>
      </trkpt>
      <trkpt lat="43.49008" lon="6.58596">
        <ele>79.1</ele>
        <time>2026-03-27T15:01:55Z</time>
      </trkpt>
      <trkpt lat="43.49008" lon="6.58597">
        <ele>79.1</ele>
        <time>2026-03-27T15:01:56Z</time>
      </trkpt>
      <trkpt lat="43.49008" lon="6.58597">
        <ele>79.1</ele>
        <time>2026-03-27T15:01:57Z</time>
      </trkpt>
      <trkpt lat="43.49008" lon="6.58597">
        <ele>79.1</ele>
        <time>2026-03-27T15:01:58Z</time>
      </trkpt>
      <trkpt lat="43.49008" lon="6.58596">
        <ele>79.2</ele>
        <time>2026-03-27T15:01:59Z</time>
      </trkpt>
      <trkpt lat="43.49008" lon="6.58596">
        <ele>79.1</ele>
        <time>2026-03-27T15:02:00Z</time>
      </trkpt>
      <trkpt lat="43.49009" lon="6.58596">
        <ele>79.1</ele>
        <time>2026-03-27T15:02:01Z</time>
      </trkpt>
      <trkpt lat="43.49009" lon="6.58596">
        <ele>79</ele>
        <time>2026-03-27T15:02:02Z</time>
      </trkpt>
      <trkpt lat="43.49009" lon="6.58596">
        <ele>79</ele>
        <time>2026-03-27T15:02:03Z</time>
      </trkpt>
      <trkpt lat="43.49009" lon="6.58596">
        <ele>79</ele>
        <time>2026-03-27T15:02:04Z</time>
      </trkpt>
      <trkpt lat="43.49009" lon="6.58596">
        <ele>79</ele>
        <time>2026-03-27T15:02:05Z</time>
      </trkpt>
      <trkpt lat="43.49009" lon="6.58596">
        <ele>79</ele>
        <time>2026-03-27T15:02:06Z</time>
      </trkpt>
      <trkpt lat="43.49009" lon="6.58595">
        <ele>79</ele>
        <time>2026-03-27T15:02:07Z</time>
      </trkpt>
      <trkpt lat="43.49009" lon="6.58596">
        <ele>79</ele>
        <time>2026-03-27T15:02:08Z</time>
      </trkpt>
      <trkpt lat="43.49009" lon="6.58596">
        <ele>79.1</ele>
        <time>2026-03-27T15:02:09Z</time>
      </trkpt>
      <trkpt lat="43.49009" lon="6.58595">
        <ele>79.1</ele>
        <time>2026-03-27T15:02:10Z</time>
      </trkpt>
      <trkpt lat="43.49009" lon="6.58595">
        <ele>79</ele>
        <time>2026-03-27T15:02:11Z</time>
      </trkpt>
      <trkpt lat="43.49009" lon="6.58594">
        <ele>79.1</ele>
        <time>2026-03-27T15:02:12Z</time>
      </trkpt>
      <trkpt lat="43.49009" lon="6.58594">
        <ele>79.1</ele>
        <time>2026-03-27T15:02:13Z</time>
      </trkpt>
      <trkpt lat="43.49009" lon="6.58594">
        <ele>79.1</ele>
        <time>2026-03-27T15:02:14Z</time>
      </trkpt>
      <trkpt lat="43.49009" lon="6.58594">
        <ele>79.1</ele>
        <time>2026-03-27T15:02:15Z</time>
      </trkpt>
      <trkpt lat="43.49009" lon="6.58594">
        <ele>79</ele>
        <time>2026-03-27T15:02:16Z</time>
      </trkpt>
      <trkpt lat="43.49009" lon="6.58594">
        <ele>79.1</ele>
        <time>2026-03-27T15:02:17Z</time>
      </trkpt>
      <trkpt lat="43.49009" lon="6.58594">
        <ele>79.1</ele>
        <time>2026-03-27T15:02:18Z</time>
      </trkpt>
      <trkpt lat="43.49009" lon="6.58594">
        <ele>79.1</ele>
        <time>2026-03-27T15:02:19Z</time>
      </trkpt>
      <trkpt lat="43.49009" lon="6.58594">
        <ele>79.1</ele>
        <time>2026-03-27T15:02:20Z</time>
      </trkpt>
      <trkpt lat="43.49009" lon="6.58594">
        <ele>79.1</ele>
        <time>2026-03-27T15:02:21Z</time>
      </trkpt>
      <trkpt lat="43.49009" lon="6.58594">
        <ele>78.9</ele>
        <time>2026-03-27T15:02:22Z</time>
      </trkpt>
      <trkpt lat="43.49009" lon="6.58594">
        <ele>78.8</ele>
        <time>2026-03-27T15:02:23Z</time>
      </trkpt>
      <trkpt lat="43.49009" lon="6.58594">
        <ele>78.8</ele>
        <time>2026-03-27T15:02:24Z</time>
      </trkpt>
      <trkpt lat="43.49009" lon="6.58594">
        <ele>78.8</ele>
        <time>2026-03-27T15:02:25Z</time>
      </trkpt>
      <trkpt lat="43.49009" lon="6.58594">
        <ele>78.8</ele>
        <time>2026-03-27T15:02:26Z</time>
      </trkpt>
      <trkpt lat="43.49009" lon="6.58594">
        <ele>78.9</ele>
        <time>2026-03-27T15:02:27Z</time>
      </trkpt>
      <trkpt lat="43.49009" lon="6.58594">
        <ele>79</ele>
        <time>2026-03-27T15:02:28Z</time>
      </trkpt>
      <trkpt lat="43.49009" lon="6.58594">
        <ele>79</ele>
        <time>2026-03-27T15:02:29Z</time>
      </trkpt>
      <trkpt lat="43.49009" lon="6.58594">
        <ele>79</ele>
        <time>2026-03-27T15:02:30Z</time>
      </trkpt>
      <trkpt lat="43.49009" lon="6.58594">
        <ele>79.1</ele>
        <time>2026-03-27T15:02:31Z</time>
      </trkpt>
      <trkpt lat="43.49009" lon="6.58594">
        <ele>79.1</ele>
        <time>2026-03-27T15:02:32Z</time>
      </trkpt>
      <trkpt lat="43.49009" lon="6.58594">
        <ele>78.9</ele>
        <time>2026-03-27T15:02:33Z</time>
      </trkpt>
      <trkpt lat="43.49009" lon="6.58593">
        <ele>78.9</ele>
        <time>2026-03-27T15:02:34Z</time>
      </trkpt>
      <trkpt lat="43.49009" lon="6.58594">
        <ele>78.8</ele>
        <time>2026-03-27T15:02:35Z</time>
      </trkpt>
      <trkpt lat="43.49009" lon="6.58593">
        <ele>78.7</ele>
        <time>2026-03-27T15:02:36Z</time>
      </trkpt>
      <trkpt lat="43.49009" lon="6.58593">
        <ele>78.7</ele>
        <time>2026-03-27T15:02:37Z</time>
      </trkpt>
      <trkpt lat="43.49009" lon="6.58593">
        <ele>78.7</ele>
        <time>2026-03-27T15:02:38Z</time>
      </trkpt>
      <trkpt lat="43.49009" lon="6.58593">
        <ele>78.7</ele>
        <time>2026-03-27T15:02:39Z</time>
      </trkpt>
      <trkpt lat="43.49009" lon="6.58593">
        <ele>78.8</ele>
        <time>2026-03-27T15:02:40Z</time>
      </trkpt>
      <trkpt lat="43.49009" lon="6.58593">
        <ele>78.8</ele>
        <time>2026-03-27T15:02:41Z</time>
      </trkpt>
      <trkpt lat="43.49009" lon="6.58593">
        <ele>78.8</ele>
        <time>2026-03-27T15:02:42Z</time>
      </trkpt>
      <trkpt lat="43.49009" lon="6.58593">
        <ele>78.8</ele>
        <time>2026-03-27T15:02:43Z</time>
      </trkpt>
      <trkpt lat="43.49009" lon="6.58593">
        <ele>78.9</ele>
        <time>2026-03-27T15:02:44Z</time>
      </trkpt>
      <trkpt lat="43.49009" lon="6.58593">
        <ele>78.8</ele>
        <time>2026-03-27T15:02:45Z</time>
      </trkpt>
      <trkpt lat="43.49009" lon="6.58593">
        <ele>78.7</ele>
        <time>2026-03-27T15:02:46Z</time>
      </trkpt>
      <trkpt lat="43.49009" lon="6.58593">
        <ele>78.7</ele>
        <time>2026-03-27T15:02:47Z</time>
      </trkpt>
      <trkpt lat="43.49009" lon="6.58592">
        <ele>78.4</ele>
        <time>2026-03-27T15:02:48Z</time>
      </trkpt>
      <trkpt lat="43.49009" lon="6.58592">
        <ele>78.3</ele>
        <time>2026-03-27T15:02:49Z</time>
      </trkpt>
      <trkpt lat="43.49009" lon="6.58592">
        <ele>78.2</ele>
        <time>2026-03-27T15:02:50Z</time>
      </trkpt>
      <trkpt lat="43.49009" lon="6.58592">
        <ele>78.1</ele>
        <time>2026-03-27T15:02:51Z</time>
      </trkpt>
      <trkpt lat="43.49009" lon="6.58592">
        <ele>78.1</ele>
        <time>2026-03-27T15:02:52Z</time>
      </trkpt>
      <trkpt lat="43.49009" lon="6.58592">
        <ele>78.2</ele>
        <time>2026-03-27T15:02:53Z</time>
      </trkpt>
      <trkpt lat="43.49009" lon="6.58592">
        <ele>78.2</ele>
        <time>2026-03-27T15:02:54Z</time>
      </trkpt>
      <trkpt lat="43.4901" lon="6.58592">
        <ele>78.2</ele>
        <time>2026-03-27T15:02:55Z</time>
      </trkpt>
      <trkpt lat="43.4901" lon="6.58592">
        <ele>78.3</ele>
        <time>2026-03-27T15:02:56Z</time>
      </trkpt>
      <trkpt lat="43.4901" lon="6.58592">
        <ele>78.4</ele>
        <time>2026-03-27T15:02:57Z</time>
      </trkpt>
      <trkpt lat="43.4901" lon="6.58592">
        <ele>78.5</ele>
        <time>2026-03-27T15:02:58Z</time>
      </trkpt>
      <trkpt lat="43.4901" lon="6.58592">
        <ele>78.3</ele>
        <time>2026-03-27T15:02:59Z</time>
      </trkpt>
      <trkpt lat="43.49009" lon="6.58592">
        <ele>78.2</ele>
        <time>2026-03-27T15:03:00Z</time>
      </trkpt>
      <trkpt lat="43.49009" lon="6.58592">
        <ele>78.2</ele>
        <time>2026-03-27T15:03:01Z</time>
      </trkpt>
      <trkpt lat="43.49009" lon="6.58592">
        <ele>78.2</ele>
        <time>2026-03-27T15:03:02Z</time>
      </trkpt>
      <trkpt lat="43.4901" lon="6.58592">
        <ele>78.1</ele>
        <time>2026-03-27T15:03:03Z</time>
      </trkpt>
      <trkpt lat="43.4901" lon="6.58592">
        <ele>78.1</ele>
        <time>2026-03-27T15:03:04Z</time>
      </trkpt>
      <trkpt lat="43.49009" lon="6.58592">
        <ele>78</ele>
        <time>2026-03-27T15:03:05Z</time>
      </trkpt>
      <trkpt lat="43.49009" lon="6.58592">
        <ele>78.2</ele>
        <time>2026-03-27T15:03:06Z</time>
      </trkpt>
      <trkpt lat="43.49009" lon="6.58592">
        <ele>78.2</ele>
        <time>2026-03-27T15:03:07Z</time>
      </trkpt>
      <trkpt lat="43.49009" lon="6.58592">
        <ele>78.3</ele>
        <time>2026-03-27T15:03:08Z</time>
      </trkpt>
      <trkpt lat="43.49009" lon="6.58592">
        <ele>78.3</ele>
        <time>2026-03-27T15:03:09Z</time>
      </trkpt>
      <trkpt lat="43.49009" lon="6.58592">
        <ele>78.4</ele>
        <time>2026-03-27T15:03:10Z</time>
      </trkpt>
      <trkpt lat="43.49009" lon="6.58592">
        <ele>78.5</ele>
        <time>2026-03-27T15:03:11Z</time>
      </trkpt>
      <trkpt lat="43.49009" lon="6.58591">
        <ele>78.5</ele>
        <time>2026-03-27T15:03:12Z</time>
      </trkpt>
      <trkpt lat="43.49009" lon="6.58591">
        <ele>78.6</ele>
        <time>2026-03-27T15:03:13Z</time>
      </trkpt>
      <trkpt lat="43.49009" lon="6.58591">
        <ele>78.7</ele>
        <time>2026-03-27T15:03:14Z</time>
      </trkpt>
      <trkpt lat="43.49009" lon="6.58592">
        <ele>78.7</ele>
        <time>2026-03-27T15:03:15Z</time>
      </trkpt>
      <trkpt lat="43.49009" lon="6.58591">
        <ele>78.6</ele>
        <time>2026-03-27T15:03:16Z</time>
      </trkpt>
      <trkpt lat="43.49009" lon="6.58591">
        <ele>78.6</ele>
        <time>2026-03-27T15:03:17Z</time>
      </trkpt>
      <trkpt lat="43.49009" lon="6.58592">
        <ele>78.7</ele>
        <time>2026-03-27T15:03:18Z</time>
      </trkpt>
      <trkpt lat="43.49009" lon="6.58592">
        <ele>78.7</ele>
        <time>2026-03-27T15:03:19Z</time>
      </trkpt>
      <trkpt lat="43.49009" lon="6.58592">
        <ele>78.8</ele>
        <time>2026-03-27T15:03:20Z</time>
      </trkpt>
      <trkpt lat="43.49009" lon="6.58592">
        <ele>78.8</ele>
        <time>2026-03-27T15:03:21Z</time>
      </trkpt>
      <trkpt lat="43.49009" lon="6.58592">
        <ele>78.8</ele>
        <time>2026-03-27T15:03:22Z</time>
      </trkpt>
      <trkpt lat="43.49009" lon="6.58592">
        <ele>78.9</ele>
        <time>2026-03-27T15:03:23Z</time>
      </trkpt>
      <trkpt lat="43.49009" lon="6.58592">
        <ele>78.9</ele>
        <time>2026-03-27T15:03:24Z</time>
      </trkpt>
      <trkpt lat="43.49009" lon="6.58592">
        <ele>78.8</ele>
        <time>2026-03-27T15:03:25Z</time>
      </trkpt>
      <trkpt lat="43.49009" lon="6.58592">
        <ele>78.7</ele>
        <time>2026-03-27T15:03:26Z</time>
      </trkpt>
      <trkpt lat="43.49008" lon="6.58592">
        <ele>78.7</ele>
        <time>2026-03-27T15:03:27Z</time>
      </trkpt>
      <trkpt lat="43.49008" lon="6.58592">
        <ele>78.7</ele>
        <time>2026-03-27T15:03:28Z</time>
      </trkpt>
      <trkpt lat="43.49009" lon="6.58592">
        <ele>78.8</ele>
        <time>2026-03-27T15:03:29Z</time>
      </trkpt>
      <trkpt lat="43.49009" lon="6.58592">
        <ele>78.8</ele>
        <time>2026-03-27T15:03:30Z</time>
      </trkpt>
      <trkpt lat="43.49009" lon="6.58592">
        <ele>78.8</ele>
        <time>2026-03-27T15:03:31Z</time>
      </trkpt>
      <trkpt lat="43.49008" lon="6.58592">
        <ele>78.8</ele>
        <time>2026-03-27T15:03:32Z</time>
      </trkpt>
      <trkpt lat="43.49008" lon="6.58592">
        <ele>78.8</ele>
        <time>2026-03-27T15:03:33Z</time>
      </trkpt>
      <trkpt lat="43.49008" lon="6.58592">
        <ele>78.8</ele>
        <time>2026-03-27T15:03:34Z</time>
      </trkpt>
      <trkpt lat="43.49008" lon="6.58592">
        <ele>78.7</ele>
        <time>2026-03-27T15:03:35Z</time>
      </trkpt>
      <trkpt lat="43.49008" lon="6.58592">
        <ele>78.7</ele>
        <time>2026-03-27T15:03:36Z</time>
      </trkpt>
      <trkpt lat="43.49008" lon="6.58592">
        <ele>78.6</ele>
        <time>2026-03-27T15:03:37Z</time>
      </trkpt>
      <trkpt lat="43.49008" lon="6.58592">
        <ele>78.6</ele>
        <time>2026-03-27T15:03:38Z</time>
      </trkpt>
      <trkpt lat="43.49008" lon="6.58592">
        <ele>78.6</ele>
        <time>2026-03-27T15:03:39Z</time>
      </trkpt>
      <trkpt lat="43.49008" lon="6.58592">
        <ele>78.6</ele>
        <time>2026-03-27T15:03:40Z</time>
      </trkpt>
      <trkpt lat="43.49008" lon="6.58592">
        <ele>78.5</ele>
        <time>2026-03-27T15:03:41Z</time>
      </trkpt>
      <trkpt lat="43.49008" lon="6.58592">
        <ele>78.5</ele>
        <time>2026-03-27T15:03:42Z</time>
      </trkpt>
      <trkpt lat="43.49008" lon="6.58592">
        <ele>78.5</ele>
        <time>2026-03-27T15:03:43Z</time>
      </trkpt>
      <trkpt lat="43.49008" lon="6.58592">
        <ele>78.6</ele>
        <time>2026-03-27T15:03:44Z</time>
      </trkpt>
      <trkpt lat="43.49008" lon="6.58592">
        <ele>78.6</ele>
        <time>2026-03-27T15:03:45Z</time>
      </trkpt>
      <trkpt lat="43.49008" lon="6.58592">
        <ele>78.7</ele>
        <time>2026-03-27T15:03:46Z</time>
      </trkpt>
      <trkpt lat="43.49008" lon="6.58592">
        <ele>78.8</ele>
        <time>2026-03-27T15:03:47Z</time>
      </trkpt>
      <trkpt lat="43.49008" lon="6.58592">
        <ele>78.8</ele>
        <time>2026-03-27T15:03:48Z</time>
      </trkpt>
      <trkpt lat="43.49008" lon="6.58592">
        <ele>78.7</ele>
        <time>2026-03-27T15:03:49Z</time>
      </trkpt>
      <trkpt lat="43.49008" lon="6.58592">
        <ele>78.7</ele>
        <time>2026-03-27T15:03:50Z</time>
      </trkpt>
      <trkpt lat="43.49008" lon="6.58592">
        <ele>78.7</ele>
        <time>2026-03-27T15:03:51Z</time>
      </trkpt>
      <trkpt lat="43.49008" lon="6.58592">
        <ele>78.8</ele>
        <time>2026-03-27T15:03:52Z</time>
      </trkpt>
      <trkpt lat="43.49008" lon="6.58592">
        <ele>78.8</ele>
        <time>2026-03-27T15:03:53Z</time>
      </trkpt>
      <trkpt lat="43.49008" lon="6.58592">
        <ele>78.8</ele>
        <time>2026-03-27T15:03:54Z</time>
      </trkpt>
      <trkpt lat="43.49008" lon="6.58592">
        <ele>78.7</ele>
        <time>2026-03-27T15:03:55Z</time>
      </trkpt>
      <trkpt lat="43.49008" lon="6.58593">
        <ele>78.7</ele>
        <time>2026-03-27T15:03:56Z</time>
      </trkpt>
      <trkpt lat="43.49008" lon="6.58593">
        <ele>78.8</ele>
        <time>2026-03-27T15:03:57Z</time>
      </trkpt>
      <trkpt lat="43.49008" lon="6.58593">
        <ele>78.8</ele>
        <time>2026-03-27T15:03:58Z</time>
      </trkpt>
      <trkpt lat="43.49008" lon="6.58593">
        <ele>78.7</ele>
        <time>2026-03-27T15:03:59Z</time>
      </trkpt>
      <trkpt lat="43.49008" lon="6.58593">
        <ele>78.7</ele>
        <time>2026-03-27T15:04:00Z</time>
      </trkpt>
      <trkpt lat="43.49008" lon="6.58593">
        <ele>78.7</ele>
        <time>2026-03-27T15:04:01Z</time>
      </trkpt>
      <trkpt lat="43.49008" lon="6.58593">
        <ele>78.8</ele>
        <time>2026-03-27T15:04:02Z</time>
      </trkpt>
      <trkpt lat="43.49008" lon="6.58593">
        <ele>78.9</ele>
        <time>2026-03-27T15:04:03Z</time>
      </trkpt>
      <trkpt lat="43.49008" lon="6.58593">
        <ele>78.9</ele>
        <time>2026-03-27T15:04:04Z</time>
      </trkpt>
      <trkpt lat="43.49008" lon="6.58593">
        <ele>78.9</ele>
        <time>2026-03-27T15:04:05Z</time>
      </trkpt>
      <trkpt lat="43.49008" lon="6.58593">
        <ele>78.9</ele>
        <time>2026-03-27T15:04:06Z</time>
      </trkpt>
      <trkpt lat="43.49008" lon="6.58593">
        <ele>78.9</ele>
        <time>2026-03-27T15:04:07Z</time>
      </trkpt>
      <trkpt lat="43.49008" lon="6.58593">
        <ele>78.9</ele>
        <time>2026-03-27T15:04:08Z</time>
      </trkpt>
      <trkpt lat="43.49008" lon="6.58594">
        <ele>78.9</ele>
        <time>2026-03-27T15:04:09Z</time>
      </trkpt>
      <trkpt lat="43.49008" lon="6.58593">
        <ele>79</ele>
        <time>2026-03-27T15:04:10Z</time>
      </trkpt>
      <trkpt lat="43.49008" lon="6.58593">
        <ele>79</ele>
        <time>2026-03-27T15:04:11Z</time>
      </trkpt>
      <trkpt lat="43.49008" lon="6.58593">
        <ele>79.1</ele>
        <time>2026-03-27T15:04:12Z</time>
      </trkpt>
      <trkpt lat="43.49008" lon="6.58593">
        <ele>79.1</ele>
        <time>2026-03-27T15:04:13Z</time>
      </trkpt>
      <trkpt lat="43.49008" lon="6.58593">
        <ele>79</ele>
        <time>2026-03-27T15:04:14Z</time>
      </trkpt>
      <trkpt lat="43.49008" lon="6.58593">
        <ele>79.1</ele>
        <time>2026-03-27T15:04:15Z</time>
      </trkpt>
      <trkpt lat="43.49008" lon="6.58593">
        <ele>79.1</ele>
        <time>2026-03-27T15:04:16Z</time>
      </trkpt>
      <trkpt lat="43.49008" lon="6.58593">
        <ele>79.1</ele>
        <time>2026-03-27T15:04:17Z</time>
      </trkpt>
      <trkpt lat="43.49008" lon="6.58593">
        <ele>79.1</ele>
        <time>2026-03-27T15:04:18Z</time>
      </trkpt>
      <trkpt lat="43.49008" lon="6.58593">
        <ele>79.1</ele>
        <time>2026-03-27T15:04:19Z</time>
      </trkpt>
      <trkpt lat="43.49008" lon="6.58593">
        <ele>79</ele>
        <time>2026-03-27T15:04:20Z</time>
      </trkpt>
      <trkpt lat="43.49008" lon="6.58593">
        <ele>79.1</ele>
        <time>2026-03-27T15:04:21Z</time>
      </trkpt>
      <trkpt lat="43.49008" lon="6.58593">
        <ele>79.2</ele>
        <time>2026-03-27T15:04:22Z</time>
      </trkpt>
      <trkpt lat="43.49008" lon="6.58593">
        <ele>79.3</ele>
        <time>2026-03-27T15:04:23Z</time>
      </trkpt>
      <trkpt lat="43.49008" lon="6.58593">
        <ele>79.2</ele>
        <time>2026-03-27T15:04:24Z</time>
      </trkpt>
      <trkpt lat="43.49008" lon="6.58593">
        <ele>79.2</ele>
        <time>2026-03-27T15:04:25Z</time>
      </trkpt>
      <trkpt lat="43.49008" lon="6.58593">
        <ele>79.2</ele>
        <time>2026-03-27T15:04:26Z</time>
      </trkpt>
      <trkpt lat="43.49008" lon="6.58593">
        <ele>79.2</ele>
        <time>2026-03-27T15:04:27Z</time>
      </trkpt>
      <trkpt lat="43.49008" lon="6.58592">
        <ele>79</ele>
        <time>2026-03-27T15:04:28Z</time>
      </trkpt>
      <trkpt lat="43.49008" lon="6.58592">
        <ele>78.9</ele>
        <time>2026-03-27T15:04:29Z</time>
      </trkpt>
      <trkpt lat="43.49008" lon="6.58592">
        <ele>78.8</ele>
        <time>2026-03-27T15:04:30Z</time>
      </trkpt>
      <trkpt lat="43.49008" lon="6.58592">
        <ele>78.8</ele>
        <time>2026-03-27T15:04:31Z</time>
      </trkpt>
      <trkpt lat="43.49007" lon="6.58593">
        <ele>78.8</ele>
        <time>2026-03-27T15:04:32Z</time>
      </trkpt>
      <trkpt lat="43.49007" lon="6.58593">
        <ele>78.8</ele>
        <time>2026-03-27T15:04:33Z</time>
      </trkpt>
      <trkpt lat="43.49007" lon="6.58593">
        <ele>78.8</ele>
        <time>2026-03-27T15:04:34Z</time>
      </trkpt>
      <trkpt lat="43.49007" lon="6.58592">
        <ele>78.8</ele>
        <time>2026-03-27T15:04:35Z</time>
      </trkpt>
      <trkpt lat="43.49007" lon="6.58592">
        <ele>78.8</ele>
        <time>2026-03-27T15:04:36Z</time>
      </trkpt>
      <trkpt lat="43.49007" lon="6.58593">
        <ele>78.6</ele>
        <time>2026-03-27T15:04:37Z</time>
      </trkpt>
      <trkpt lat="43.49007" lon="6.58594">
        <ele>78.5</ele>
        <time>2026-03-27T15:04:38Z</time>
      </trkpt>
      <trkpt lat="43.49007" lon="6.58594">
        <ele>78.6</ele>
        <time>2026-03-27T15:04:39Z</time>
      </trkpt>
      <trkpt lat="43.49008" lon="6.58594">
        <ele>78.6</ele>
        <time>2026-03-27T15:04:40Z</time>
      </trkpt>
      <trkpt lat="43.49008" lon="6.58594">
        <ele>78.7</ele>
        <time>2026-03-27T15:04:41Z</time>
      </trkpt>
      <trkpt lat="43.49008" lon="6.58594">
        <ele>78.7</ele>
        <time>2026-03-27T15:04:42Z</time>
      </trkpt>
      <trkpt lat="43.49008" lon="6.58594">
        <ele>78.8</ele>
        <time>2026-03-27T15:04:43Z</time>
      </trkpt>
      <trkpt lat="43.49009" lon="6.58594">
        <ele>78.8</ele>
        <time>2026-03-27T15:04:44Z</time>
      </trkpt>
      <trkpt lat="43.49009" lon="6.58593">
        <ele>78.9</ele>
        <time>2026-03-27T15:04:45Z</time>
      </trkpt>
      <trkpt lat="43.49009" lon="6.58593">
        <ele>78.9</ele>
        <time>2026-03-27T15:04:46Z</time>
      </trkpt>
      <trkpt lat="43.49008" lon="6.58593">
        <ele>78.9</ele>
        <time>2026-03-27T15:04:47Z</time>
      </trkpt>
      <trkpt lat="43.49008" lon="6.58593">
        <ele>79</ele>
        <time>2026-03-27T15:04:48Z</time>
      </trkpt>
      <trkpt lat="43.49009" lon="6.58594">
        <ele>79</ele>
        <time>2026-03-27T15:04:49Z</time>
      </trkpt>
      <trkpt lat="43.49009" lon="6.58594">
        <ele>79</ele>
        <time>2026-03-27T15:04:50Z</time>
      </trkpt>
      <trkpt lat="43.49009" lon="6.58594">
        <ele>79</ele>
        <time>2026-03-27T15:04:51Z</time>
      </trkpt>
      <trkpt lat="43.49009" lon="6.58594">
        <ele>79</ele>
        <time>2026-03-27T15:04:52Z</time>
      </trkpt>
      <trkpt lat="43.49009" lon="6.58594">
        <ele>79</ele>
        <time>2026-03-27T15:04:53Z</time>
      </trkpt>
      <trkpt lat="43.49009" lon="6.58594">
        <ele>79</ele>
        <time>2026-03-27T15:04:54Z</time>
      </trkpt>
      <trkpt lat="43.49009" lon="6.58594">
        <ele>79</ele>
        <time>2026-03-27T15:04:55Z</time>
      </trkpt>
      <trkpt lat="43.49009" lon="6.58594">
        <ele>79</ele>
        <time>2026-03-27T15:04:56Z</time>
      </trkpt>
      <trkpt lat="43.49009" lon="6.58594">
        <ele>79.1</ele>
        <time>2026-03-27T15:04:57Z</time>
      </trkpt>
      <trkpt lat="43.49009" lon="6.58594">
        <ele>79.2</ele>
        <time>2026-03-27T15:04:58Z</time>
      </trkpt>
      <trkpt lat="43.49009" lon="6.58594">
        <ele>79.2</ele>
        <time>2026-03-27T15:04:59Z</time>
      </trkpt>
      <trkpt lat="43.49009" lon="6.58594">
        <ele>79.2</ele>
        <time>2026-03-27T15:05:00Z</time>
      </trkpt>
      <trkpt lat="43.49009" lon="6.58594">
        <ele>79.2</ele>
        <time>2026-03-27T15:05:01Z</time>
      </trkpt>
      <trkpt lat="43.49009" lon="6.58594">
        <ele>79.2</ele>
        <time>2026-03-27T15:05:02Z</time>
      </trkpt>
      <trkpt lat="43.49009" lon="6.58594">
        <ele>79.1</ele>
        <time>2026-03-27T15:05:03Z</time>
      </trkpt>
      <trkpt lat="43.49009" lon="6.58594">
        <ele>79</ele>
        <time>2026-03-27T15:05:04Z</time>
      </trkpt>
      <trkpt lat="43.49009" lon="6.58594">
        <ele>79</ele>
        <time>2026-03-27T15:05:05Z</time>
      </trkpt>
      <trkpt lat="43.49009" lon="6.58594">
        <ele>78.9</ele>
        <time>2026-03-27T15:05:06Z</time>
      </trkpt>
      <trkpt lat="43.49009" lon="6.58594">
        <ele>78.9</ele>
        <time>2026-03-27T15:05:07Z</time>
      </trkpt>
      <trkpt lat="43.49009" lon="6.58594">
        <ele>78.9</ele>
        <time>2026-03-27T15:05:08Z</time>
      </trkpt>
      <trkpt lat="43.4901" lon="6.58593">
        <ele>78.9</ele>
        <time>2026-03-27T15:05:09Z</time>
      </trkpt>
      <trkpt lat="43.4901" lon="6.58593">
        <ele>78.9</ele>
        <time>2026-03-27T15:05:10Z</time>
      </trkpt>
      <trkpt lat="43.4901" lon="6.58592">
        <ele>79</ele>
        <time>2026-03-27T15:05:11Z</time>
      </trkpt>
      <trkpt lat="43.4901" lon="6.58592">
        <ele>79</ele>
        <time>2026-03-27T15:05:12Z</time>
      </trkpt>
      <trkpt lat="43.4901" lon="6.58592">
        <ele>78.9</ele>
        <time>2026-03-27T15:05:13Z</time>
      </trkpt>
      <trkpt lat="43.4901" lon="6.58592">
        <ele>78.8</ele>
        <time>2026-03-27T15:05:14Z</time>
      </trkpt>
      <trkpt lat="43.4901" lon="6.58593">
        <ele>78.8</ele>
        <time>2026-03-27T15:05:15Z</time>
      </trkpt>
      <trkpt lat="43.4901" lon="6.58592">
        <ele>78.8</ele>
        <time>2026-03-27T15:05:16Z</time>
      </trkpt>
      <trkpt lat="43.4901" lon="6.58592">
        <ele>78.8</ele>
        <time>2026-03-27T15:05:17Z</time>
      </trkpt>
      <trkpt lat="43.4901" lon="6.58592">
        <ele>78.8</ele>
        <time>2026-03-27T15:05:18Z</time>
      </trkpt>
      <trkpt lat="43.4901" lon="6.58592">
        <ele>78.8</ele>
        <time>2026-03-27T15:05:19Z</time>
      </trkpt>
      <trkpt lat="43.4901" lon="6.58592">
        <ele>79</ele>
        <time>2026-03-27T15:05:20Z</time>
      </trkpt>
      <trkpt lat="43.4901" lon="6.58592">
        <ele>79.1</ele>
        <time>2026-03-27T15:05:21Z</time>
      </trkpt>
      <trkpt lat="43.4901" lon="6.58592">
        <ele>79.2</ele>
        <time>2026-03-27T15:05:22Z</time>
      </trkpt>
      <trkpt lat="43.4901" lon="6.58592">
        <ele>79.2</ele>
        <time>2026-03-27T15:05:23Z</time>
      </trkpt>
      <trkpt lat="43.4901" lon="6.58592">
        <ele>79.2</ele>
        <time>2026-03-27T15:05:24Z</time>
      </trkpt>
      <trkpt lat="43.4901" lon="6.58592">
        <ele>79.2</ele>
        <time>2026-03-27T15:05:25Z</time>
      </trkpt>
      <trkpt lat="43.4901" lon="6.58593">
        <ele>79.2</ele>
        <time>2026-03-27T15:05:26Z</time>
      </trkpt>
      <trkpt lat="43.4901" lon="6.58593">
        <ele>79.2</ele>
        <time>2026-03-27T15:05:27Z</time>
      </trkpt>
      <trkpt lat="43.4901" lon="6.58593">
        <ele>79.2</ele>
        <time>2026-03-27T15:05:28Z</time>
      </trkpt>
      <trkpt lat="43.4901" lon="6.58593">
        <ele>79.2</ele>
        <time>2026-03-27T15:05:29Z</time>
      </trkpt>
      <trkpt lat="43.4901" lon="6.58593">
        <ele>79.2</ele>
        <time>2026-03-27T15:05:30Z</time>
      </trkpt>
      <trkpt lat="43.4901" lon="6.58593">
        <ele>79.1</ele>
        <time>2026-03-27T15:05:31Z</time>
      </trkpt>
      <trkpt lat="43.4901" lon="6.58593">
        <ele>79.1</ele>
        <time>2026-03-27T15:05:32Z</time>
      </trkpt>
      <trkpt lat="43.4901" lon="6.58593">
        <ele>79</ele>
        <time>2026-03-27T15:05:33Z</time>
      </trkpt>
      <trkpt lat="43.4901" lon="6.58593">
        <ele>79</ele>
        <time>2026-03-27T15:05:34Z</time>
      </trkpt>
      <trkpt lat="43.4901" lon="6.58593">
        <ele>79</ele>
        <time>2026-03-27T15:05:35Z</time>
      </trkpt>
      <trkpt lat="43.4901" lon="6.58593">
        <ele>79</ele>
        <time>2026-03-27T15:05:36Z</time>
      </trkpt>
      <trkpt lat="43.4901" lon="6.58593">
        <ele>79</ele>
        <time>2026-03-27T15:05:37Z</time>
      </trkpt>
      <trkpt lat="43.4901" lon="6.58593">
        <ele>79</ele>
        <time>2026-03-27T15:05:38Z</time>
      </trkpt>
      <trkpt lat="43.4901" lon="6.58593">
        <ele>78.9</ele>
        <time>2026-03-27T15:05:39Z</time>
      </trkpt>
      <trkpt lat="43.4901" lon="6.58594">
        <ele>79</ele>
        <time>2026-03-27T15:05:40Z</time>
      </trkpt>
      <trkpt lat="43.4901" lon="6.58594">
        <ele>79</ele>
        <time>2026-03-27T15:05:41Z</time>
      </trkpt>
      <trkpt lat="43.4901" lon="6.58594">
        <ele>79</ele>
        <time>2026-03-27T15:05:42Z</time>
      </trkpt>
      <trkpt lat="43.4901" lon="6.58594">
        <ele>79</ele>
        <time>2026-03-27T15:05:43Z</time>
      </trkpt>
      <trkpt lat="43.49009" lon="6.58594">
        <ele>78.9</ele>
        <time>2026-03-27T15:05:44Z</time>
      </trkpt>
      <trkpt lat="43.49009" lon="6.58594">
        <ele>78.9</ele>
        <time>2026-03-27T15:05:45Z</time>
      </trkpt>
      <trkpt lat="43.49009" lon="6.58595">
        <ele>78.9</ele>
        <time>2026-03-27T15:05:46Z</time>
      </trkpt>
      <trkpt lat="43.49009" lon="6.58595">
        <ele>78.9</ele>
        <time>2026-03-27T15:05:47Z</time>
      </trkpt>
      <trkpt lat="43.49009" lon="6.58595">
        <ele>78.9</ele>
        <time>2026-03-27T15:05:48Z</time>
      </trkpt>
      <trkpt lat="43.49009" lon="6.58595">
        <ele>78.9</ele>
        <time>2026-03-27T15:05:49Z</time>
      </trkpt>
      <trkpt lat="43.49009" lon="6.58595">
        <ele>78.8</ele>
        <time>2026-03-27T15:05:50Z</time>
      </trkpt>
      <trkpt lat="43.49009" lon="6.58595">
        <ele>78.8</ele>
        <time>2026-03-27T15:05:51Z</time>
      </trkpt>
      <trkpt lat="43.49009" lon="6.58595">
        <ele>78.8</ele>
        <time>2026-03-27T15:05:52Z</time>
      </trkpt>
      <trkpt lat="43.49009" lon="6.58595">
        <ele>78.9</ele>
        <time>2026-03-27T15:05:53Z</time>
      </trkpt>
      <trkpt lat="43.49009" lon="6.58595">
        <ele>78.9</ele>
        <time>2026-03-27T15:05:54Z</time>
      </trkpt>
      <trkpt lat="43.49009" lon="6.58596">
        <ele>78.9</ele>
        <time>2026-03-27T15:05:55Z</time>
      </trkpt>
      <trkpt lat="43.49009" lon="6.58596">
        <ele>78.8</ele>
        <time>2026-03-27T15:05:56Z</time>
      </trkpt>
      <trkpt lat="43.49009" lon="6.58596">
        <ele>78.8</ele>
        <time>2026-03-27T15:05:57Z</time>
      </trkpt>
      <trkpt lat="43.49009" lon="6.58596">
        <ele>78.8</ele>
        <time>2026-03-27T15:05:58Z</time>
      </trkpt>
      <trkpt lat="43.49009" lon="6.58596">
        <ele>78.8</ele>
        <time>2026-03-27T15:05:59Z</time>
      </trkpt>
      <trkpt lat="43.49009" lon="6.58597">
        <ele>78.8</ele>
        <time>2026-03-27T15:06:00Z</time>
      </trkpt>
      <trkpt lat="43.4901" lon="6.58596">
        <ele>78.8</ele>
        <time>2026-03-27T15:06:01Z</time>
      </trkpt>
      <trkpt lat="43.49009" lon="6.58596">
        <ele>78.7</ele>
        <time>2026-03-27T15:06:02Z</time>
      </trkpt>
      <trkpt lat="43.49009" lon="6.58596">
        <ele>78.5</ele>
        <time>2026-03-27T15:06:03Z</time>
      </trkpt>
      <trkpt lat="43.49008" lon="6.58596">
        <ele>78.5</ele>
        <time>2026-03-27T15:06:04Z</time>
      </trkpt>
      <trkpt lat="43.49008" lon="6.58596">
        <ele>78.5</ele>
        <time>2026-03-27T15:06:05Z</time>
      </trkpt>
      <trkpt lat="43.49008" lon="6.58596">
        <ele>78.5</ele>
        <time>2026-03-27T15:06:06Z</time>
      </trkpt>
      <trkpt lat="43.49008" lon="6.58596">
        <ele>78.5</ele>
        <time>2026-03-27T15:06:07Z</time>
      </trkpt>
      <trkpt lat="43.49008" lon="6.58596">
        <ele>78.6</ele>
        <time>2026-03-27T15:06:08Z</time>
      </trkpt>
      <trkpt lat="43.49008" lon="6.58597">
        <ele>78.6</ele>
        <time>2026-03-27T15:06:09Z</time>
      </trkpt>
      <trkpt lat="43.49008" lon="6.58597">
        <ele>78.5</ele>
        <time>2026-03-27T15:06:10Z</time>
      </trkpt>
      <trkpt lat="43.49008" lon="6.58597">
        <ele>78.5</ele>
        <time>2026-03-27T15:06:11Z</time>
      </trkpt>
      <trkpt lat="43.49008" lon="6.58597">
        <ele>78.5</ele>
        <time>2026-03-27T15:06:12Z</time>
      </trkpt>
      <trkpt lat="43.49008" lon="6.58597">
        <ele>78.6</ele>
        <time>2026-03-27T15:06:13Z</time>
      </trkpt>
      <trkpt lat="43.49008" lon="6.58597">
        <ele>78.6</ele>
        <time>2026-03-27T15:06:14Z</time>
      </trkpt>
      <trkpt lat="43.49008" lon="6.58597">
        <ele>78.8</ele>
        <time>2026-03-27T15:06:15Z</time>
      </trkpt>
      <trkpt lat="43.49008" lon="6.58597">
        <ele>78.9</ele>
        <time>2026-03-27T15:06:16Z</time>
      </trkpt>
      <trkpt lat="43.49009" lon="6.58597">
        <ele>79</ele>
        <time>2026-03-27T15:06:17Z</time>
      </trkpt>
      <trkpt lat="43.49009" lon="6.58597">
        <ele>79.1</ele>
        <time>2026-03-27T15:06:18Z</time>
      </trkpt>
      <trkpt lat="43.49009" lon="6.58597">
        <ele>79.1</ele>
        <time>2026-03-27T15:06:19Z</time>
      </trkpt>
      <trkpt lat="43.49009" lon="6.58597">
        <ele>79.1</ele>
        <time>2026-03-27T15:06:20Z</time>
      </trkpt>
      <trkpt lat="43.49009" lon="6.58597">
        <ele>79.1</ele>
        <time>2026-03-27T15:06:21Z</time>
      </trkpt>
      <trkpt lat="43.49009" lon="6.58597">
        <ele>79.2</ele>
        <time>2026-03-27T15:06:22Z</time>
      </trkpt>
      <trkpt lat="43.49009" lon="6.58597">
        <ele>79.2</ele>
        <time>2026-03-27T15:06:23Z</time>
      </trkpt>
      <trkpt lat="43.49009" lon="6.58597">
        <ele>79.1</ele>
        <time>2026-03-27T15:06:24Z</time>
      </trkpt>
      <trkpt lat="43.49009" lon="6.58596">
        <ele>79.1</ele>
        <time>2026-03-27T15:06:25Z</time>
      </trkpt>
      <trkpt lat="43.49009" lon="6.58597">
        <ele>79</ele>
        <time>2026-03-27T15:06:26Z</time>
      </trkpt>
      <trkpt lat="43.49009" lon="6.58596">
        <ele>79</ele>
        <time>2026-03-27T15:06:27Z</time>
      </trkpt>
      <trkpt lat="43.49009" lon="6.58596">
        <ele>79.1</ele>
        <time>2026-03-27T15:06:28Z</time>
      </trkpt>
      <trkpt lat="43.49009" lon="6.58596">
        <ele>79.1</ele>
        <time>2026-03-27T15:06:29Z</time>
      </trkpt>
      <trkpt lat="43.49009" lon="6.58596">
        <ele>79.1</ele>
        <time>2026-03-27T15:06:30Z</time>
      </trkpt>
      <trkpt lat="43.49009" lon="6.58596">
        <ele>79.1</ele>
        <time>2026-03-27T15:06:31Z</time>
      </trkpt>
      <trkpt lat="43.49009" lon="6.58596">
        <ele>79.2</ele>
        <time>2026-03-27T15:06:32Z</time>
      </trkpt>
      <trkpt lat="43.49009" lon="6.58596">
        <ele>79.1</ele>
        <time>2026-03-27T15:06:33Z</time>
      </trkpt>
      <trkpt lat="43.49009" lon="6.58596">
        <ele>79.2</ele>
        <time>2026-03-27T15:06:34Z</time>
      </trkpt>
      <trkpt lat="43.49009" lon="6.58596">
        <ele>79.3</ele>
        <time>2026-03-27T15:06:35Z</time>
      </trkpt>
      <trkpt lat="43.49009" lon="6.58596">
        <ele>79.3</ele>
        <time>2026-03-27T15:06:36Z</time>
      </trkpt>
      <trkpt lat="43.49008" lon="6.58596">
        <ele>79.2</ele>
        <time>2026-03-27T15:06:37Z</time>
      </trkpt>
      <trkpt lat="43.49008" lon="6.58596">
        <ele>79.2</ele>
        <time>2026-03-27T15:06:38Z</time>
      </trkpt>
      <trkpt lat="43.49009" lon="6.58596">
        <ele>79.2</ele>
        <time>2026-03-27T15:06:39Z</time>
      </trkpt>
      <trkpt lat="43.49008" lon="6.58596">
        <ele>79</ele>
        <time>2026-03-27T15:06:40Z</time>
      </trkpt>
      <trkpt lat="43.49008" lon="6.58596">
        <ele>78.9</ele>
        <time>2026-03-27T15:06:41Z</time>
      </trkpt>
      <trkpt lat="43.49009" lon="6.58596">
        <ele>78.8</ele>
        <time>2026-03-27T15:06:42Z</time>
      </trkpt>
      <trkpt lat="43.49009" lon="6.58596">
        <ele>78.7</ele>
        <time>2026-03-27T15:06:43Z</time>
      </trkpt>
      <trkpt lat="43.49008" lon="6.58596">
        <ele>78.7</ele>
        <time>2026-03-27T15:06:44Z</time>
      </trkpt>
      <trkpt lat="43.49008" lon="6.58596">
        <ele>78.7</ele>
        <time>2026-03-27T15:06:45Z</time>
      </trkpt>
      <trkpt lat="43.49008" lon="6.58596">
        <ele>78.7</ele>
        <time>2026-03-27T15:06:46Z</time>
      </trkpt>
      <trkpt lat="43.49008" lon="6.58596">
        <ele>78.8</ele>
        <time>2026-03-27T15:06:47Z</time>
      </trkpt>
      <trkpt lat="43.49009" lon="6.58596">
        <ele>78.8</ele>
        <time>2026-03-27T15:06:48Z</time>
      </trkpt>
      <trkpt lat="43.49009" lon="6.58596">
        <ele>78.7</ele>
        <time>2026-03-27T15:06:49Z</time>
      </trkpt>
      <trkpt lat="43.49008" lon="6.58596">
        <ele>78.7</ele>
        <time>2026-03-27T15:06:50Z</time>
      </trkpt>
      <trkpt lat="43.49009" lon="6.58596">
        <ele>78.7</ele>
        <time>2026-03-27T15:06:51Z</time>
      </trkpt>
      <trkpt lat="43.49009" lon="6.58596">
        <ele>78.8</ele>
        <time>2026-03-27T15:06:52Z</time>
      </trkpt>
      <trkpt lat="43.49009" lon="6.58596">
        <ele>78.8</ele>
        <time>2026-03-27T15:06:53Z</time>
      </trkpt>
      <trkpt lat="43.49009" lon="6.58596">
        <ele>78.9</ele>
        <time>2026-03-27T15:06:54Z</time>
      </trkpt>
      <trkpt lat="43.49009" lon="6.58596">
        <ele>78.9</ele>
        <time>2026-03-27T15:06:55Z</time>
      </trkpt>
      <trkpt lat="43.49009" lon="6.58596">
        <ele>78.9</ele>
        <time>2026-03-27T15:06:56Z</time>
      </trkpt>
      <trkpt lat="43.49009" lon="6.58596">
        <ele>78.9</ele>
        <time>2026-03-27T15:06:57Z</time>
      </trkpt>
      <trkpt lat="43.49009" lon="6.58596">
        <ele>78.9</ele>
        <time>2026-03-27T15:06:58Z</time>
      </trkpt>
      <trkpt lat="43.49008" lon="6.58596">
        <ele>78.9</ele>
        <time>2026-03-27T15:06:59Z</time>
      </trkpt>
      <trkpt lat="43.49008" lon="6.58596">
        <ele>78.9</ele>
        <time>2026-03-27T15:07:00Z</time>
      </trkpt>
      <trkpt lat="43.49008" lon="6.58596">
        <ele>78.9</ele>
        <time>2026-03-27T15:07:01Z</time>
      </trkpt>
      <trkpt lat="43.49008" lon="6.58596">
        <ele>78.9</ele>
        <time>2026-03-27T15:07:02Z</time>
      </trkpt>
      <trkpt lat="43.49009" lon="6.58596">
        <ele>78.9</ele>
        <time>2026-03-27T15:07:03Z</time>
      </trkpt>
      <trkpt lat="43.49009" lon="6.58595">
        <ele>78.9</ele>
        <time>2026-03-27T15:07:04Z</time>
      </trkpt>
      <trkpt lat="43.49009" lon="6.58595">
        <ele>78.9</ele>
        <time>2026-03-27T15:07:05Z</time>
      </trkpt>
      <trkpt lat="43.49009" lon="6.58595">
        <ele>78.9</ele>
        <time>2026-03-27T15:07:06Z</time>
      </trkpt>
      <trkpt lat="43.49009" lon="6.58596">
        <ele>78.9</ele>
        <time>2026-03-27T15:07:07Z</time>
      </trkpt>
      <trkpt lat="43.49009" lon="6.58596">
        <ele>78.7</ele>
        <time>2026-03-27T15:07:08Z</time>
      </trkpt>
      <trkpt lat="43.49009" lon="6.58596">
        <ele>78.6</ele>
        <time>2026-03-27T15:07:09Z</time>
      </trkpt>
      <trkpt lat="43.49009" lon="6.58596">
        <ele>78.6</ele>
        <time>2026-03-27T15:07:10Z</time>
      </trkpt>
      <trkpt lat="43.49009" lon="6.58596">
        <ele>78.7</ele>
        <time>2026-03-27T15:07:11Z</time>
      </trkpt>
      <trkpt lat="43.49009" lon="6.58596">
        <ele>78.7</ele>
        <time>2026-03-27T15:07:12Z</time>
      </trkpt>
      <trkpt lat="43.49009" lon="6.58596">
        <ele>78.8</ele>
        <time>2026-03-27T15:07:13Z</time>
      </trkpt>
      <trkpt lat="43.49009" lon="6.58596">
        <ele>78.8</ele>
        <time>2026-03-27T15:07:14Z</time>
      </trkpt>
      <trkpt lat="43.49009" lon="6.58596">
        <ele>78.8</ele>
        <time>2026-03-27T15:07:15Z</time>
      </trkpt>
      <trkpt lat="43.49009" lon="6.58596">
        <ele>78.8</ele>
        <time>2026-03-27T15:07:16Z</time>
      </trkpt>
      <trkpt lat="43.49009" lon="6.58596">
        <ele>78.8</ele>
        <time>2026-03-27T15:07:17Z</time>
      </trkpt>
      <trkpt lat="43.49009" lon="6.58596">
        <ele>78.8</ele>
        <time>2026-03-27T15:07:18Z</time>
      </trkpt>
      <trkpt lat="43.49009" lon="6.58596">
        <ele>78.8</ele>
        <time>2026-03-27T15:07:19Z</time>
      </trkpt>
      <trkpt lat="43.49009" lon="6.58596">
        <ele>78.8</ele>
        <time>2026-03-27T15:07:20Z</time>
      </trkpt>
      <trkpt lat="43.49009" lon="6.58596">
        <ele>78.9</ele>
        <time>2026-03-27T15:07:21Z</time>
      </trkpt>
      <trkpt lat="43.49009" lon="6.58596">
        <ele>78.8</ele>
        <time>2026-03-27T15:07:22Z</time>
      </trkpt>
      <trkpt lat="43.49009" lon="6.58596">
        <ele>78.9</ele>
        <time>2026-03-27T15:07:23Z</time>
      </trkpt>
      <trkpt lat="43.49009" lon="6.58596">
        <ele>78.9</ele>
        <time>2026-03-27T15:07:24Z</time>
      </trkpt>
      <trkpt lat="43.49008" lon="6.58596">
        <ele>78.9</ele>
        <time>2026-03-27T15:07:25Z</time>
      </trkpt>
      <trkpt lat="43.49008" lon="6.58596">
        <ele>78.9</ele>
        <time>2026-03-27T15:07:26Z</time>
      </trkpt>
      <trkpt lat="43.49008" lon="6.58597">
        <ele>78.9</ele>
        <time>2026-03-27T15:07:27Z</time>
      </trkpt>
      <trkpt lat="43.49008" lon="6.58597">
        <ele>79</ele>
        <time>2026-03-27T15:07:28Z</time>
      </trkpt>
      <trkpt lat="43.49008" lon="6.58597">
        <ele>78.9</ele>
        <time>2026-03-27T15:07:29Z</time>
      </trkpt>
      <trkpt lat="43.49008" lon="6.58597">
        <ele>79</ele>
        <time>2026-03-27T15:07:30Z</time>
      </trkpt>
      <trkpt lat="43.49008" lon="6.58597">
        <ele>79</ele>
        <time>2026-03-27T15:07:31Z</time>
      </trkpt>
      <trkpt lat="43.49008" lon="6.58597">
        <ele>79</ele>
        <time>2026-03-27T15:07:32Z</time>
      </trkpt>
      <trkpt lat="43.49008" lon="6.58597">
        <ele>79</ele>
        <time>2026-03-27T15:07:33Z</time>
      </trkpt>
      <trkpt lat="43.49008" lon="6.58597">
        <ele>79.1</ele>
        <time>2026-03-27T15:07:34Z</time>
      </trkpt>
      <trkpt lat="43.49008" lon="6.58597">
        <ele>79</ele>
        <time>2026-03-27T15:07:35Z</time>
      </trkpt>
      <trkpt lat="43.49008" lon="6.58597">
        <ele>78.9</ele>
        <time>2026-03-27T15:07:36Z</time>
      </trkpt>
      <trkpt lat="43.49008" lon="6.58597">
        <ele>78.9</ele>
        <time>2026-03-27T15:07:37Z</time>
      </trkpt>
      <trkpt lat="43.49008" lon="6.58597">
        <ele>78.8</ele>
        <time>2026-03-27T15:07:38Z</time>
      </trkpt>
      <trkpt lat="43.49008" lon="6.58597">
        <ele>78.7</ele>
        <time>2026-03-27T15:07:39Z</time>
      </trkpt>
      <trkpt lat="43.49008" lon="6.58597">
        <ele>78.7</ele>
        <time>2026-03-27T15:07:40Z</time>
      </trkpt>
      <trkpt lat="43.49008" lon="6.58597">
        <ele>78.8</ele>
        <time>2026-03-27T15:07:41Z</time>
      </trkpt>
      <trkpt lat="43.49008" lon="6.58597">
        <ele>78.8</ele>
        <time>2026-03-27T15:07:42Z</time>
      </trkpt>
      <trkpt lat="43.49008" lon="6.58598">
        <ele>78.9</ele>
        <time>2026-03-27T15:07:43Z</time>
      </trkpt>
      <trkpt lat="43.49008" lon="6.58598">
        <ele>78.7</ele>
        <time>2026-03-27T15:07:44Z</time>
      </trkpt>
      <trkpt lat="43.49008" lon="6.58598">
        <ele>78.6</ele>
        <time>2026-03-27T15:07:45Z</time>
      </trkpt>
      <trkpt lat="43.49008" lon="6.58598">
        <ele>78.5</ele>
        <time>2026-03-27T15:07:46Z</time>
      </trkpt>
      <trkpt lat="43.49008" lon="6.58598">
        <ele>78.3</ele>
        <time>2026-03-27T15:07:47Z</time>
      </trkpt>
      <trkpt lat="43.49008" lon="6.58598">
        <ele>78.4</ele>
        <time>2026-03-27T15:07:48Z</time>
      </trkpt>
      <trkpt lat="43.49008" lon="6.58598">
        <ele>78.5</ele>
        <time>2026-03-27T15:07:49Z</time>
      </trkpt>
      <trkpt lat="43.49008" lon="6.58598">
        <ele>78.5</ele>
        <time>2026-03-27T15:07:50Z</time>
      </trkpt>
      <trkpt lat="43.49008" lon="6.58598">
        <ele>78.5</ele>
        <time>2026-03-27T15:07:51Z</time>
      </trkpt>
      <trkpt lat="43.49008" lon="6.58598">
        <ele>78.5</ele>
        <time>2026-03-27T15:07:52Z</time>
      </trkpt>
      <trkpt lat="43.49008" lon="6.58598">
        <ele>78.4</ele>
        <time>2026-03-27T15:07:53Z</time>
      </trkpt>
      <trkpt lat="43.49008" lon="6.58598">
        <ele>78.4</ele>
        <time>2026-03-27T15:07:54Z</time>
      </trkpt>
      <trkpt lat="43.49008" lon="6.58598">
        <ele>78.4</ele>
        <time>2026-03-27T15:07:55Z</time>
      </trkpt>
      <trkpt lat="43.49008" lon="6.58598">
        <ele>78.4</ele>
        <time>2026-03-27T15:07:56Z</time>
      </trkpt>
      <trkpt lat="43.49008" lon="6.58598">
        <ele>78.4</ele>
        <time>2026-03-27T15:07:57Z</time>
      </trkpt>
      <trkpt lat="43.49008" lon="6.58598">
        <ele>78.5</ele>
        <time>2026-03-27T15:07:58Z</time>
      </trkpt>
      <trkpt lat="43.49008" lon="6.58598">
        <ele>78.5</ele>
        <time>2026-03-27T15:07:59Z</time>
      </trkpt>
      <trkpt lat="43.49008" lon="6.58598">
        <ele>78.6</ele>
        <time>2026-03-27T15:08:00Z</time>
      </trkpt>
      <trkpt lat="43.49008" lon="6.58598">
        <ele>78.6</ele>
        <time>2026-03-27T15:08:01Z</time>
      </trkpt>
      <trkpt lat="43.49008" lon="6.58598">
        <ele>78.7</ele>
        <time>2026-03-27T15:08:02Z</time>
      </trkpt>
      <trkpt lat="43.49008" lon="6.58598">
        <ele>78.6</ele>
        <time>2026-03-27T15:08:03Z</time>
      </trkpt>
      <trkpt lat="43.49008" lon="6.58598">
        <ele>78.5</ele>
        <time>2026-03-27T15:08:04Z</time>
      </trkpt>
      <trkpt lat="43.49008" lon="6.58598">
        <ele>78.5</ele>
        <time>2026-03-27T15:08:05Z</time>
      </trkpt>
      <trkpt lat="43.49008" lon="6.58598">
        <ele>78.5</ele>
        <time>2026-03-27T15:08:06Z</time>
      </trkpt>
      <trkpt lat="43.49008" lon="6.58598">
        <ele>78.5</ele>
        <time>2026-03-27T15:08:07Z</time>
      </trkpt>
      <trkpt lat="43.49008" lon="6.58598">
        <ele>78.6</ele>
        <time>2026-03-27T15:08:08Z</time>
      </trkpt>
      <trkpt lat="43.49008" lon="6.58598">
        <ele>78.6</ele>
        <time>2026-03-27T15:08:09Z</time>
      </trkpt>
      <trkpt lat="43.49008" lon="6.58598">
        <ele>78.6</ele>
        <time>2026-03-27T15:08:10Z</time>
      </trkpt>
      <trkpt lat="43.49008" lon="6.58597">
        <ele>78.7</ele>
        <time>2026-03-27T15:08:11Z</time>
      </trkpt>
      <trkpt lat="43.49008" lon="6.58597">
        <ele>78.7</ele>
        <time>2026-03-27T15:08:12Z</time>
      </trkpt>
      <trkpt lat="43.49008" lon="6.58597">
        <ele>78.8</ele>
        <time>2026-03-27T15:08:13Z</time>
      </trkpt>
      <trkpt lat="43.49008" lon="6.58597">
        <ele>78.9</ele>
        <time>2026-03-27T15:08:14Z</time>
      </trkpt>
      <trkpt lat="43.49008" lon="6.58597">
        <ele>78.9</ele>
        <time>2026-03-27T15:08:15Z</time>
      </trkpt>
      <trkpt lat="43.49008" lon="6.58597">
        <ele>78.9</ele>
        <time>2026-03-27T15:08:16Z</time>
      </trkpt>
      <trkpt lat="43.49008" lon="6.58597">
        <ele>78.9</ele>
        <time>2026-03-27T15:08:17Z</time>
      </trkpt>
      <trkpt lat="43.49008" lon="6.58597">
        <ele>78.9</ele>
        <time>2026-03-27T15:08:18Z</time>
      </trkpt>
      <trkpt lat="43.49008" lon="6.58597">
        <ele>78.9</ele>
        <time>2026-03-27T15:08:19Z</time>
      </trkpt>
      <trkpt lat="43.49008" lon="6.58597">
        <ele>78.9</ele>
        <time>2026-03-27T15:08:20Z</time>
      </trkpt>
      <trkpt lat="43.49008" lon="6.58597">
        <ele>78.9</ele>
        <time>2026-03-27T15:08:21Z</time>
      </trkpt>
      <trkpt lat="43.49008" lon="6.58597">
        <ele>78.9</ele>
        <time>2026-03-27T15:08:22Z</time>
      </trkpt>
      <trkpt lat="43.49008" lon="6.58597">
        <ele>78.8</ele>
        <time>2026-03-27T15:08:23Z</time>
      </trkpt>
      <trkpt lat="43.49008" lon="6.58597">
        <ele>78.8</ele>
        <time>2026-03-27T15:08:24Z</time>
      </trkpt>
      <trkpt lat="43.49008" lon="6.58597">
        <ele>78.8</ele>
        <time>2026-03-27T15:08:25Z</time>
      </trkpt>
      <trkpt lat="43.49008" lon="6.58597">
        <ele>78.8</ele>
        <time>2026-03-27T15:08:26Z</time>
      </trkpt>
      <trkpt lat="43.49008" lon="6.58597">
        <ele>78.8</ele>
        <time>2026-03-27T15:08:27Z</time>
      </trkpt>
      <trkpt lat="43.49008" lon="6.58597">
        <ele>78.8</ele>
        <time>2026-03-27T15:08:28Z</time>
      </trkpt>
      <trkpt lat="43.49008" lon="6.58597">
        <ele>78.8</ele>
        <time>2026-03-27T15:08:29Z</time>
      </trkpt>
      <trkpt lat="43.49008" lon="6.58597">
        <ele>78.8</ele>
        <time>2026-03-27T15:08:30Z</time>
      </trkpt>
      <trkpt lat="43.49008" lon="6.58597">
        <ele>78.9</ele>
        <time>2026-03-27T15:08:31Z</time>
      </trkpt>
      <trkpt lat="43.49008" lon="6.58596">
        <ele>78.9</ele>
        <time>2026-03-27T15:08:32Z</time>
      </trkpt>
      <trkpt lat="43.49008" lon="6.58596">
        <ele>78.9</ele>
        <time>2026-03-27T15:08:33Z</time>
      </trkpt>
      <trkpt lat="43.49008" lon="6.58596">
        <ele>78.9</ele>
        <time>2026-03-27T15:08:34Z</time>
      </trkpt>
      <trkpt lat="43.49008" lon="6.58596">
        <ele>78.9</ele>
        <time>2026-03-27T15:08:35Z</time>
      </trkpt>
      <trkpt lat="43.49008" lon="6.58596">
        <ele>79</ele>
        <time>2026-03-27T15:08:36Z</time>
      </trkpt>
      <trkpt lat="43.49008" lon="6.58596">
        <ele>79</ele>
        <time>2026-03-27T15:08:37Z</time>
      </trkpt>
      <trkpt lat="43.49008" lon="6.58596">
        <ele>79</ele>
        <time>2026-03-27T15:08:38Z</time>
      </trkpt>
      <trkpt lat="43.49008" lon="6.58596">
        <ele>79</ele>
        <time>2026-03-27T15:08:39Z</time>
      </trkpt>
      <trkpt lat="43.49008" lon="6.58596">
        <ele>78.9</ele>
        <time>2026-03-27T15:08:40Z</time>
      </trkpt>
      <trkpt lat="43.49008" lon="6.58596">
        <ele>79</ele>
        <time>2026-03-27T15:08:41Z</time>
      </trkpt>
      <trkpt lat="43.49008" lon="6.58596">
        <ele>79</ele>
        <time>2026-03-27T15:08:42Z</time>
      </trkpt>
      <trkpt lat="43.49008" lon="6.58596">
        <ele>79</ele>
        <time>2026-03-27T15:08:43Z</time>
      </trkpt>
      <trkpt lat="43.49008" lon="6.58596">
        <ele>79</ele>
        <time>2026-03-27T15:08:44Z</time>
      </trkpt>
      <trkpt lat="43.49008" lon="6.58596">
        <ele>79</ele>
        <time>2026-03-27T15:08:45Z</time>
      </trkpt>
      <trkpt lat="43.49008" lon="6.58596">
        <ele>79</ele>
        <time>2026-03-27T15:08:46Z</time>
      </trkpt>
      <trkpt lat="43.49008" lon="6.58596">
        <ele>79</ele>
        <time>2026-03-27T15:08:47Z</time>
      </trkpt>
      <trkpt lat="43.49008" lon="6.58596">
        <ele>79</ele>
        <time>2026-03-27T15:08:48Z</time>
      </trkpt>
      <trkpt lat="43.49008" lon="6.58596">
        <ele>79</ele>
        <time>2026-03-27T15:08:49Z</time>
      </trkpt>
      <trkpt lat="43.49008" lon="6.58596">
        <ele>78.9</ele>
        <time>2026-03-27T15:08:50Z</time>
      </trkpt>
      <trkpt lat="43.49008" lon="6.58596">
        <ele>78.8</ele>
        <time>2026-03-27T15:08:51Z</time>
      </trkpt>
      <trkpt lat="43.49008" lon="6.58596">
        <ele>78.7</ele>
        <time>2026-03-27T15:08:52Z</time>
      </trkpt>
      <trkpt lat="43.49008" lon="6.58596">
        <ele>78.7</ele>
        <time>2026-03-27T15:08:53Z</time>
      </trkpt>
      <trkpt lat="43.49008" lon="6.58596">
        <ele>78.8</ele>
        <time>2026-03-27T15:08:54Z</time>
      </trkpt>
      <trkpt lat="43.49008" lon="6.58596">
        <ele>78.8</ele>
        <time>2026-03-27T15:08:55Z</time>
      </trkpt>
      <trkpt lat="43.49008" lon="6.58596">
        <ele>78.8</ele>
        <time>2026-03-27T15:08:56Z</time>
      </trkpt>
      <trkpt lat="43.49008" lon="6.58596">
        <ele>78.7</ele>
        <time>2026-03-27T15:08:57Z</time>
      </trkpt>
      <trkpt lat="43.49008" lon="6.58596">
        <ele>78.6</ele>
        <time>2026-03-27T15:08:58Z</time>
      </trkpt>
      <trkpt lat="43.49008" lon="6.58596">
        <ele>78.7</ele>
        <time>2026-03-27T15:08:59Z</time>
      </trkpt>
      <trkpt lat="43.49008" lon="6.58596">
        <ele>78.7</ele>
        <time>2026-03-27T15:09:00Z</time>
      </trkpt>
      <trkpt lat="43.49008" lon="6.58596">
        <ele>78.8</ele>
        <time>2026-03-27T15:09:01Z</time>
      </trkpt>
      <trkpt lat="43.49008" lon="6.58596">
        <ele>78.6</ele>
        <time>2026-03-27T15:09:02Z</time>
      </trkpt>
      <trkpt lat="43.49008" lon="6.58596">
        <ele>78.6</ele>
        <time>2026-03-27T15:09:03Z</time>
      </trkpt>
      <trkpt lat="43.49008" lon="6.58596">
        <ele>78.6</ele>
        <time>2026-03-27T15:09:04Z</time>
      </trkpt>
      <trkpt lat="43.49008" lon="6.58596">
        <ele>78.6</ele>
        <time>2026-03-27T15:09:05Z</time>
      </trkpt>
      <trkpt lat="43.49008" lon="6.58596">
        <ele>78.5</ele>
        <time>2026-03-27T15:09:06Z</time>
      </trkpt>
      <trkpt lat="43.49008" lon="6.58596">
        <ele>78.5</ele>
        <time>2026-03-27T15:09:07Z</time>
      </trkpt>
      <trkpt lat="43.49008" lon="6.58597">
        <ele>78.4</ele>
        <time>2026-03-27T15:09:08Z</time>
      </trkpt>
      <trkpt lat="43.49008" lon="6.58597">
        <ele>78.4</ele>
        <time>2026-03-27T15:09:09Z</time>
      </trkpt>
      <trkpt lat="43.49008" lon="6.58597">
        <ele>78.4</ele>
        <time>2026-03-27T15:09:10Z</time>
      </trkpt>
      <trkpt lat="43.49008" lon="6.58597">
        <ele>78.4</ele>
        <time>2026-03-27T15:09:11Z</time>
      </trkpt>
      <trkpt lat="43.49008" lon="6.58596">
        <ele>78.4</ele>
        <time>2026-03-27T15:09:12Z</time>
      </trkpt>
      <trkpt lat="43.49008" lon="6.58596">
        <ele>78.7</ele>
        <time>2026-03-27T15:09:13Z</time>
      </trkpt>
      <trkpt lat="43.49008" lon="6.58596">
        <ele>78.8</ele>
        <time>2026-03-27T15:09:14Z</time>
      </trkpt>
      <trkpt lat="43.49008" lon="6.58596">
        <ele>78.8</ele>
        <time>2026-03-27T15:09:15Z</time>
      </trkpt>
      <trkpt lat="43.49008" lon="6.58596">
        <ele>78.7</ele>
        <time>2026-03-27T15:09:16Z</time>
      </trkpt>
      <trkpt lat="43.49008" lon="6.58596">
        <ele>78.7</ele>
        <time>2026-03-27T15:09:17Z</time>
      </trkpt>
      <trkpt lat="43.49008" lon="6.58596">
        <ele>78.7</ele>
        <time>2026-03-27T15:09:18Z</time>
      </trkpt>
      <trkpt lat="43.49008" lon="6.58597">
        <ele>78.7</ele>
        <time>2026-03-27T15:09:19Z</time>
      </trkpt>
      <trkpt lat="43.49008" lon="6.58597">
        <ele>78.7</ele>
        <time>2026-03-27T15:09:20Z</time>
      </trkpt>
      <trkpt lat="43.49008" lon="6.58597">
        <ele>78.7</ele>
        <time>2026-03-27T15:09:21Z</time>
      </trkpt>
      <trkpt lat="43.49008" lon="6.58597">
        <ele>78.7</ele>
        <time>2026-03-27T15:09:22Z</time>
      </trkpt>
      <trkpt lat="43.49008" lon="6.58597">
        <ele>78.7</ele>
        <time>2026-03-27T15:09:23Z</time>
      </trkpt>
      <trkpt lat="43.49008" lon="6.58597">
        <ele>78.7</ele>
        <time>2026-03-27T15:09:24Z</time>
      </trkpt>
      <trkpt lat="43.49008" lon="6.58597">
        <ele>78.7</ele>
        <time>2026-03-27T15:09:25Z</time>
      </trkpt>
      <trkpt lat="43.49008" lon="6.58597">
        <ele>78.8</ele>
        <time>2026-03-27T15:09:26Z</time>
      </trkpt>
      <trkpt lat="43.49008" lon="6.58597">
        <ele>78.8</ele>
        <time>2026-03-27T15:09:27Z</time>
      </trkpt>
      <trkpt lat="43.49008" lon="6.58597">
        <ele>78.8</ele>
        <time>2026-03-27T15:09:28Z</time>
      </trkpt>
      <trkpt lat="43.49008" lon="6.58597">
        <ele>78.9</ele>
        <time>2026-03-27T15:09:29Z</time>
      </trkpt>
      <trkpt lat="43.49008" lon="6.58597">
        <ele>78.9</ele>
        <time>2026-03-27T15:09:30Z</time>
      </trkpt>
      <trkpt lat="43.49008" lon="6.58597">
        <ele>78.9</ele>
        <time>2026-03-27T15:09:31Z</time>
      </trkpt>
      <trkpt lat="43.49008" lon="6.58597">
        <ele>78.9</ele>
        <time>2026-03-27T15:09:32Z</time>
      </trkpt>
      <trkpt lat="43.49008" lon="6.58597">
        <ele>78.9</ele>
        <time>2026-03-27T15:09:33Z</time>
      </trkpt>
      <trkpt lat="43.49008" lon="6.58597">
        <ele>78.9</ele>
        <time>2026-03-27T15:09:34Z</time>
      </trkpt>
      <trkpt lat="43.49008" lon="6.58597">
        <ele>78.9</ele>
        <time>2026-03-27T15:09:35Z</time>
      </trkpt>
      <trkpt lat="43.49008" lon="6.58597">
        <ele>78.8</ele>
        <time>2026-03-27T15:09:36Z</time>
      </trkpt>
      <trkpt lat="43.49008" lon="6.58597">
        <ele>78.7</ele>
        <time>2026-03-27T15:09:37Z</time>
      </trkpt>
      <trkpt lat="43.49008" lon="6.58597">
        <ele>78.7</ele>
        <time>2026-03-27T15:09:38Z</time>
      </trkpt>
      <trkpt lat="43.49008" lon="6.58597">
        <ele>78.7</ele>
        <time>2026-03-27T15:09:39Z</time>
      </trkpt>
      <trkpt lat="43.49008" lon="6.58597">
        <ele>78.7</ele>
        <time>2026-03-27T15:09:40Z</time>
      </trkpt>
      <trkpt lat="43.49008" lon="6.58597">
        <ele>78.8</ele>
        <time>2026-03-27T15:09:41Z</time>
      </trkpt>
      <trkpt lat="43.49008" lon="6.58597">
        <ele>78.7</ele>
        <time>2026-03-27T15:09:42Z</time>
      </trkpt>
      <trkpt lat="43.49008" lon="6.58597">
        <ele>78.6</ele>
        <time>2026-03-27T15:09:43Z</time>
      </trkpt>
      <trkpt lat="43.49008" lon="6.58597">
        <ele>78.6</ele>
        <time>2026-03-27T15:09:44Z</time>
      </trkpt>
      <trkpt lat="43.49008" lon="6.58597">
        <ele>78.6</ele>
        <time>2026-03-27T15:09:45Z</time>
      </trkpt>
      <trkpt lat="43.49008" lon="6.58597">
        <ele>78.5</ele>
        <time>2026-03-27T15:09:46Z</time>
      </trkpt>
      <trkpt lat="43.49008" lon="6.58597">
        <ele>78.5</ele>
        <time>2026-03-27T15:09:47Z</time>
      </trkpt>
      <trkpt lat="43.49008" lon="6.58597">
        <ele>78.5</ele>
        <time>2026-03-27T15:09:48Z</time>
      </trkpt>
      <trkpt lat="43.49008" lon="6.58597">
        <ele>78.5</ele>
        <time>2026-03-27T15:09:49Z</time>
      </trkpt>
      <trkpt lat="43.49008" lon="6.58597">
        <ele>78.5</ele>
        <time>2026-03-27T15:09:50Z</time>
      </trkpt>
      <trkpt lat="43.49008" lon="6.58597">
        <ele>78.5</ele>
        <time>2026-03-27T15:09:51Z</time>
      </trkpt>
      <trkpt lat="43.49008" lon="6.58597">
        <ele>78.5</ele>
        <time>2026-03-27T15:09:52Z</time>
      </trkpt>
      <trkpt lat="43.49008" lon="6.58597">
        <ele>78.5</ele>
        <time>2026-03-27T15:09:53Z</time>
      </trkpt>
      <trkpt lat="43.49008" lon="6.58597">
        <ele>78.5</ele>
        <time>2026-03-27T15:09:54Z</time>
      </trkpt>
      <trkpt lat="43.49008" lon="6.58597">
        <ele>78.4</ele>
        <time>2026-03-27T15:09:55Z</time>
      </trkpt>
      <trkpt lat="43.49008" lon="6.58597">
        <ele>78.4</ele>
        <time>2026-03-27T15:09:56Z</time>
      </trkpt>
      <trkpt lat="43.49008" lon="6.58597">
        <ele>78.5</ele>
        <time>2026-03-27T15:09:57Z</time>
      </trkpt>
      <trkpt lat="43.49008" lon="6.58597">
        <ele>78.6</ele>
        <time>2026-03-27T15:09:58Z</time>
      </trkpt>
      <trkpt lat="43.49008" lon="6.58597">
        <ele>78.6</ele>
        <time>2026-03-27T15:09:59Z</time>
      </trkpt>
      <trkpt lat="43.49008" lon="6.58597">
        <ele>78.7</ele>
        <time>2026-03-27T15:10:00Z</time>
      </trkpt>
      <trkpt lat="43.49008" lon="6.58597">
        <ele>78.6</ele>
        <time>2026-03-27T15:10:01Z</time>
      </trkpt>
      <trkpt lat="43.49008" lon="6.58597">
        <ele>78.5</ele>
        <time>2026-03-27T15:10:02Z</time>
      </trkpt>
      <trkpt lat="43.49008" lon="6.58597">
        <ele>78.5</ele>
        <time>2026-03-27T15:10:03Z</time>
      </trkpt>
      <trkpt lat="43.49008" lon="6.58597">
        <ele>78.4</ele>
        <time>2026-03-27T15:10:04Z</time>
      </trkpt>
      <trkpt lat="43.49008" lon="6.58597">
        <ele>78.3</ele>
        <time>2026-03-27T15:10:05Z</time>
      </trkpt>
      <trkpt lat="43.49008" lon="6.58597">
        <ele>78.4</ele>
        <time>2026-03-27T15:10:06Z</time>
      </trkpt>
      <trkpt lat="43.49008" lon="6.58597">
        <ele>78.4</ele>
        <time>2026-03-27T15:10:07Z</time>
      </trkpt>
      <trkpt lat="43.49008" lon="6.58597">
        <ele>78.4</ele>
        <time>2026-03-27T15:10:08Z</time>
      </trkpt>
      <trkpt lat="43.49008" lon="6.58597">
        <ele>78.4</ele>
        <time>2026-03-27T15:10:09Z</time>
      </trkpt>
      <trkpt lat="43.49008" lon="6.58597">
        <ele>78.4</ele>
        <time>2026-03-27T15:10:10Z</time>
      </trkpt>
      <trkpt lat="43.49008" lon="6.58597">
        <ele>78.4</ele>
        <time>2026-03-27T15:10:11Z</time>
      </trkpt>
      <trkpt lat="43.49008" lon="6.58597">
        <ele>78.5</ele>
        <time>2026-03-27T15:10:12Z</time>
      </trkpt>
      <trkpt lat="43.49008" lon="6.58597">
        <ele>78.5</ele>
        <time>2026-03-27T15:10:13Z</time>
      </trkpt>
      <trkpt lat="43.49008" lon="6.58597">
        <ele>78.4</ele>
        <time>2026-03-27T15:10:14Z</time>
      </trkpt>
      <trkpt lat="43.49008" lon="6.58597">
        <ele>78.5</ele>
        <time>2026-03-27T15:10:15Z</time>
      </trkpt>
      <trkpt lat="43.49008" lon="6.58597">
        <ele>78.6</ele>
        <time>2026-03-27T15:10:16Z</time>
      </trkpt>
      <trkpt lat="43.49008" lon="6.58597">
        <ele>78.7</ele>
        <time>2026-03-27T15:10:17Z</time>
      </trkpt>
      <trkpt lat="43.49008" lon="6.58597">
        <ele>78.6</ele>
        <time>2026-03-27T15:10:18Z</time>
      </trkpt>
      <trkpt lat="43.49008" lon="6.58597">
        <ele>78.6</ele>
        <time>2026-03-27T15:10:19Z</time>
      </trkpt>
      <trkpt lat="43.49008" lon="6.58597">
        <ele>78.7</ele>
        <time>2026-03-27T15:10:20Z</time>
      </trkpt>
      <trkpt lat="43.49008" lon="6.58597">
        <ele>78.6</ele>
        <time>2026-03-27T15:10:21Z</time>
      </trkpt>
      <trkpt lat="43.49008" lon="6.58597">
        <ele>78.6</ele>
        <time>2026-03-27T15:10:22Z</time>
      </trkpt>
      <trkpt lat="43.49008" lon="6.58597">
        <ele>78.7</ele>
        <time>2026-03-27T15:10:23Z</time>
      </trkpt>
      <trkpt lat="43.49008" lon="6.58597">
        <ele>78.7</ele>
        <time>2026-03-27T15:10:24Z</time>
      </trkpt>
      <trkpt lat="43.49008" lon="6.58597">
        <ele>78.7</ele>
        <time>2026-03-27T15:10:25Z</time>
      </trkpt>
      <trkpt lat="43.49008" lon="6.58597">
        <ele>78.8</ele>
        <time>2026-03-27T15:10:26Z</time>
      </trkpt>
      <trkpt lat="43.49008" lon="6.58597">
        <ele>78.8</ele>
        <time>2026-03-27T15:10:27Z</time>
      </trkpt>
      <trkpt lat="43.49008" lon="6.58597">
        <ele>78.8</ele>
        <time>2026-03-27T15:10:28Z</time>
      </trkpt>
      <trkpt lat="43.49008" lon="6.58597">
        <ele>78.8</ele>
        <time>2026-03-27T15:10:29Z</time>
      </trkpt>
      <trkpt lat="43.49008" lon="6.58597">
        <ele>78.8</ele>
        <time>2026-03-27T15:10:30Z</time>
      </trkpt>
      <trkpt lat="43.49008" lon="6.58597">
        <ele>78.9</ele>
        <time>2026-03-27T15:10:31Z</time>
      </trkpt>
      <trkpt lat="43.49008" lon="6.58597">
        <ele>78.9</ele>
        <time>2026-03-27T15:10:32Z</time>
      </trkpt>
      <trkpt lat="43.49008" lon="6.58597">
        <ele>78.8</ele>
        <time>2026-03-27T15:10:33Z</time>
      </trkpt>
      <trkpt lat="43.49008" lon="6.58597">
        <ele>78.8</ele>
        <time>2026-03-27T15:10:34Z</time>
      </trkpt>
      <trkpt lat="43.49008" lon="6.58597">
        <ele>78.7</ele>
        <time>2026-03-27T15:10:35Z</time>
      </trkpt>
      <trkpt lat="43.49008" lon="6.58597">
        <ele>78.7</ele>
        <time>2026-03-27T15:10:36Z</time>
      </trkpt>
      <trkpt lat="43.49008" lon="6.58597">
        <ele>78.8</ele>
        <time>2026-03-27T15:10:37Z</time>
      </trkpt>
      <trkpt lat="43.49008" lon="6.58597">
        <ele>78.8</ele>
        <time>2026-03-27T15:10:38Z</time>
      </trkpt>
      <trkpt lat="43.49008" lon="6.58597">
        <ele>78.8</ele>
        <time>2026-03-27T15:10:39Z</time>
      </trkpt>
      <trkpt lat="43.49008" lon="6.58597">
        <ele>78.8</ele>
        <time>2026-03-27T15:10:40Z</time>
      </trkpt>
      <trkpt lat="43.49008" lon="6.58597">
        <ele>78.7</ele>
        <time>2026-03-27T15:10:41Z</time>
      </trkpt>
      <trkpt lat="43.49008" lon="6.58597">
        <ele>78.6</ele>
        <time>2026-03-27T15:10:42Z</time>
      </trkpt>
      <trkpt lat="43.49008" lon="6.58597">
        <ele>78.6</ele>
        <time>2026-03-27T15:10:43Z</time>
      </trkpt>
      <trkpt lat="43.49008" lon="6.58597">
        <ele>78.5</ele>
        <time>2026-03-27T15:10:44Z</time>
      </trkpt>
      <trkpt lat="43.49008" lon="6.58597">
        <ele>78.6</ele>
        <time>2026-03-27T15:10:45Z</time>
      </trkpt>
      <trkpt lat="43.49008" lon="6.58597">
        <ele>78.6</ele>
        <time>2026-03-27T15:10:46Z</time>
      </trkpt>
      <trkpt lat="43.49008" lon="6.58597">
        <ele>78.7</ele>
        <time>2026-03-27T15:10:47Z</time>
      </trkpt>
      <trkpt lat="43.49008" lon="6.58597">
        <ele>78.8</ele>
        <time>2026-03-27T15:10:48Z</time>
      </trkpt>
      <trkpt lat="43.49008" lon="6.58597">
        <ele>78.8</ele>
        <time>2026-03-27T15:10:49Z</time>
      </trkpt>
      <trkpt lat="43.49008" lon="6.58597">
        <ele>78.9</ele>
        <time>2026-03-27T15:10:50Z</time>
      </trkpt>
      <trkpt lat="43.49008" lon="6.58597">
        <ele>78.9</ele>
        <time>2026-03-27T15:10:51Z</time>
      </trkpt>
      <trkpt lat="43.49008" lon="6.58597">
        <ele>78.9</ele>
        <time>2026-03-27T15:10:52Z</time>
      </trkpt>
      <trkpt lat="43.49008" lon="6.58597">
        <ele>78.9</ele>
        <time>2026-03-27T15:10:53Z</time>
      </trkpt>
      <trkpt lat="43.49008" lon="6.58598">
        <ele>78.9</ele>
        <time>2026-03-27T15:10:54Z</time>
      </trkpt>
      <trkpt lat="43.49008" lon="6.58598">
        <ele>78.9</ele>
        <time>2026-03-27T15:10:55Z</time>
      </trkpt>
      <trkpt lat="43.49008" lon="6.58598">
        <ele>78.9</ele>
        <time>2026-03-27T15:10:56Z</time>
      </trkpt>
      <trkpt lat="43.49008" lon="6.58598">
        <ele>78.9</ele>
        <time>2026-03-27T15:10:57Z</time>
      </trkpt>
      <trkpt lat="43.49008" lon="6.58598">
        <ele>78.8</ele>
        <time>2026-03-27T15:10:58Z</time>
      </trkpt>
      <trkpt lat="43.49008" lon="6.58598">
        <ele>78.8</ele>
        <time>2026-03-27T15:10:59Z</time>
      </trkpt>
      <trkpt lat="43.49008" lon="6.58598">
        <ele>78.7</ele>
        <time>2026-03-27T15:11:00Z</time>
      </trkpt>
      <trkpt lat="43.49008" lon="6.58598">
        <ele>78.6</ele>
        <time>2026-03-27T15:11:01Z</time>
      </trkpt>
      <trkpt lat="43.49008" lon="6.58598">
        <ele>78.6</ele>
        <time>2026-03-27T15:11:02Z</time>
      </trkpt>
      <trkpt lat="43.49008" lon="6.58598">
        <ele>78.7</ele>
        <time>2026-03-27T15:11:03Z</time>
      </trkpt>
      <trkpt lat="43.49008" lon="6.58598">
        <ele>78.7</ele>
        <time>2026-03-27T15:11:04Z</time>
      </trkpt>
      <trkpt lat="43.49008" lon="6.58597">
        <ele>78.8</ele>
        <time>2026-03-27T15:11:05Z</time>
      </trkpt>
      <trkpt lat="43.49008" lon="6.58597">
        <ele>78.8</ele>
        <time>2026-03-27T15:11:06Z</time>
      </trkpt>
      <trkpt lat="43.49008" lon="6.58598">
        <ele>78.7</ele>
        <time>2026-03-27T15:11:07Z</time>
      </trkpt>
      <trkpt lat="43.49008" lon="6.58598">
        <ele>78.6</ele>
        <time>2026-03-27T15:11:08Z</time>
      </trkpt>
      <trkpt lat="43.49008" lon="6.58597">
        <ele>78.6</ele>
        <time>2026-03-27T15:11:09Z</time>
      </trkpt>
      <trkpt lat="43.49009" lon="6.58597">
        <ele>78.6</ele>
        <time>2026-03-27T15:11:10Z</time>
      </trkpt>
      <trkpt lat="43.49009" lon="6.58597">
        <ele>78.6</ele>
        <time>2026-03-27T15:11:11Z</time>
      </trkpt>
      <trkpt lat="43.49009" lon="6.58597">
        <ele>78.6</ele>
        <time>2026-03-27T15:11:12Z</time>
      </trkpt>
      <trkpt lat="43.49009" lon="6.58596">
        <ele>78.6</ele>
        <time>2026-03-27T15:11:13Z</time>
      </trkpt>
      <trkpt lat="43.49009" lon="6.58595">
        <ele>78.6</ele>
        <time>2026-03-27T15:11:14Z</time>
      </trkpt>
      <trkpt lat="43.49009" lon="6.58594">
        <ele>78.6</ele>
        <time>2026-03-27T15:11:15Z</time>
      </trkpt>
      <trkpt lat="43.49009" lon="6.58593">
        <ele>78.7</ele>
        <time>2026-03-27T15:11:16Z</time>
      </trkpt>
      <trkpt lat="43.49008" lon="6.58593">
        <ele>78.7</ele>
        <time>2026-03-27T15:11:17Z</time>
      </trkpt>
      <trkpt lat="43.49008" lon="6.58592">
        <ele>78.7</ele>
        <time>2026-03-27T15:11:18Z</time>
      </trkpt>
      <trkpt lat="43.49008" lon="6.58591">
        <ele>78.6</ele>
        <time>2026-03-27T15:11:19Z</time>
      </trkpt>
      <trkpt lat="43.49008" lon="6.58589">
        <ele>78.7</ele>
        <time>2026-03-27T15:11:20Z</time>
      </trkpt>
      <trkpt lat="43.49008" lon="6.58588">
        <ele>78.6</ele>
        <time>2026-03-27T15:11:21Z</time>
      </trkpt>
      <trkpt lat="43.49009" lon="6.58587">
        <ele>78.6</ele>
        <time>2026-03-27T15:11:22Z</time>
      </trkpt>
      <trkpt lat="43.49009" lon="6.58585">
        <ele>78.6</ele>
        <time>2026-03-27T15:11:23Z</time>
      </trkpt>
      <trkpt lat="43.49009" lon="6.58584">
        <ele>78.6</ele>
        <time>2026-03-27T15:11:24Z</time>
      </trkpt>
      <trkpt lat="43.4901" lon="6.58583">
        <ele>78.6</ele>
        <time>2026-03-27T15:11:25Z</time>
      </trkpt>
      <trkpt lat="43.4901" lon="6.58581">
        <ele>78.6</ele>
        <time>2026-03-27T15:11:26Z</time>
      </trkpt>
      <trkpt lat="43.4901" lon="6.5858">
        <ele>78.7</ele>
        <time>2026-03-27T15:11:27Z</time>
      </trkpt>
      <trkpt lat="43.4901" lon="6.58579">
        <ele>78.8</ele>
        <time>2026-03-27T15:11:28Z</time>
      </trkpt>
      <trkpt lat="43.4901" lon="6.58577">
        <ele>78.8</ele>
        <time>2026-03-27T15:11:29Z</time>
      </trkpt>
      <trkpt lat="43.4901" lon="6.58576">
        <ele>78.9</ele>
        <time>2026-03-27T15:11:30Z</time>
      </trkpt>
      <trkpt lat="43.49011" lon="6.58574">
        <ele>78.9</ele>
        <time>2026-03-27T15:11:31Z</time>
      </trkpt>
      <trkpt lat="43.49011" lon="6.58573">
        <ele>78.9</ele>
        <time>2026-03-27T15:11:32Z</time>
      </trkpt>
      <trkpt lat="43.49011" lon="6.58571">
        <ele>78.9</ele>
        <time>2026-03-27T15:11:33Z</time>
      </trkpt>
      <trkpt lat="43.49011" lon="6.5857">
        <ele>78.9</ele>
        <time>2026-03-27T15:11:34Z</time>
      </trkpt>
      <trkpt lat="43.49011" lon="6.58568">
        <ele>78.9</ele>
        <time>2026-03-27T15:11:35Z</time>
      </trkpt>
      <trkpt lat="43.49011" lon="6.58567">
        <ele>78.9</ele>
        <time>2026-03-27T15:11:36Z</time>
      </trkpt>
      <trkpt lat="43.4901" lon="6.58565">
        <ele>78.8</ele>
        <time>2026-03-27T15:11:37Z</time>
      </trkpt>
      <trkpt lat="43.4901" lon="6.58564">
        <ele>78.8</ele>
        <time>2026-03-27T15:11:38Z</time>
      </trkpt>
      <trkpt lat="43.4901" lon="6.58562">
        <ele>78.9</ele>
        <time>2026-03-27T15:11:39Z</time>
      </trkpt>
      <trkpt lat="43.4901" lon="6.58561">
        <ele>78.8</ele>
        <time>2026-03-27T15:11:40Z</time>
      </trkpt>
      <trkpt lat="43.4901" lon="6.58559">
        <ele>78.8</ele>
        <time>2026-03-27T15:11:41Z</time>
      </trkpt>
      <trkpt lat="43.4901" lon="6.58557">
        <ele>78.8</ele>
        <time>2026-03-27T15:11:42Z</time>
      </trkpt>
      <trkpt lat="43.4901" lon="6.58556">
        <ele>78.9</ele>
        <time>2026-03-27T15:11:43Z</time>
      </trkpt>
      <trkpt lat="43.4901" lon="6.58554">
        <ele>79.1</ele>
        <time>2026-03-27T15:11:44Z</time>
      </trkpt>
      <trkpt lat="43.4901" lon="6.58553">
        <ele>79.2</ele>
        <time>2026-03-27T15:11:45Z</time>
      </trkpt>
      <trkpt lat="43.49009" lon="6.58551">
        <ele>79.2</ele>
        <time>2026-03-27T15:11:46Z</time>
      </trkpt>
      <trkpt lat="43.49009" lon="6.58549">
        <ele>79.2</ele>
        <time>2026-03-27T15:11:47Z</time>
      </trkpt>
      <trkpt lat="43.49009" lon="6.58548">
        <ele>79.3</ele>
        <time>2026-03-27T15:11:48Z</time>
      </trkpt>
      <trkpt lat="43.49009" lon="6.58546">
        <ele>79.4</ele>
        <time>2026-03-27T15:11:49Z</time>
      </trkpt>
      <trkpt lat="43.49009" lon="6.58545">
        <ele>79.4</ele>
        <time>2026-03-27T15:11:50Z</time>
      </trkpt>
      <trkpt lat="43.49009" lon="6.58543">
        <ele>79.1</ele>
        <time>2026-03-27T15:11:51Z</time>
      </trkpt>
      <trkpt lat="43.49009" lon="6.58541">
        <ele>79.1</ele>
        <time>2026-03-27T15:11:52Z</time>
      </trkpt>
      <trkpt lat="43.49009" lon="6.58539">
        <ele>79.1</ele>
        <time>2026-03-27T15:11:53Z</time>
      </trkpt>
      <trkpt lat="43.49009" lon="6.58537">
        <ele>78.9</ele>
        <time>2026-03-27T15:11:54Z</time>
      </trkpt>
      <trkpt lat="43.49009" lon="6.58536">
        <ele>79</ele>
        <time>2026-03-27T15:11:55Z</time>
      </trkpt>
      <trkpt lat="43.49009" lon="6.58534">
        <ele>79</ele>
        <time>2026-03-27T15:11:56Z</time>
      </trkpt>
      <trkpt lat="43.49009" lon="6.58532">
        <ele>79.1</ele>
        <time>2026-03-27T15:11:57Z</time>
      </trkpt>
      <trkpt lat="43.49008" lon="6.5853">
        <ele>79.2</ele>
        <time>2026-03-27T15:11:58Z</time>
      </trkpt>
      <trkpt lat="43.49008" lon="6.58529">
        <ele>79.2</ele>
        <time>2026-03-27T15:11:59Z</time>
      </trkpt>
      <trkpt lat="43.49008" lon="6.58527">
        <ele>79.1</ele>
        <time>2026-03-27T15:12:00Z</time>
      </trkpt>
      <trkpt lat="43.49008" lon="6.58525">
        <ele>79.2</ele>
        <time>2026-03-27T15:12:01Z</time>
      </trkpt>
      <trkpt lat="43.49008" lon="6.58524">
        <ele>79</ele>
        <time>2026-03-27T15:12:02Z</time>
      </trkpt>
      <trkpt lat="43.49007" lon="6.58522">
        <ele>79.1</ele>
        <time>2026-03-27T15:12:03Z</time>
      </trkpt>
      <trkpt lat="43.49007" lon="6.58521">
        <ele>79</ele>
        <time>2026-03-27T15:12:04Z</time>
      </trkpt>
      <trkpt lat="43.49006" lon="6.58519">
        <ele>78.9</ele>
        <time>2026-03-27T15:12:05Z</time>
      </trkpt>
      <trkpt lat="43.49006" lon="6.58518">
        <ele>78.8</ele>
        <time>2026-03-27T15:12:06Z</time>
      </trkpt>
      <trkpt lat="43.49005" lon="6.58516">
        <ele>78.8</ele>
        <time>2026-03-27T15:12:07Z</time>
      </trkpt>
      <trkpt lat="43.49004" lon="6.58515">
        <ele>78.6</ele>
        <time>2026-03-27T15:12:08Z</time>
      </trkpt>
      <trkpt lat="43.49004" lon="6.58513">
        <ele>78.5</ele>
        <time>2026-03-27T15:12:09Z</time>
      </trkpt>
      <trkpt lat="43.49003" lon="6.58512">
        <ele>78.7</ele>
        <time>2026-03-27T15:12:10Z</time>
      </trkpt>
      <trkpt lat="43.49002" lon="6.5851">
        <ele>78.5</ele>
        <time>2026-03-27T15:12:11Z</time>
      </trkpt>
      <trkpt lat="43.49002" lon="6.58509">
        <ele>78.4</ele>
        <time>2026-03-27T15:12:12Z</time>
      </trkpt>
      <trkpt lat="43.49001" lon="6.58507">
        <ele>78.5</ele>
        <time>2026-03-27T15:12:13Z</time>
      </trkpt>
      <trkpt lat="43.49" lon="6.58506">
        <ele>78.6</ele>
        <time>2026-03-27T15:12:14Z</time>
      </trkpt>
      <trkpt lat="43.49" lon="6.58504">
        <ele>78.6</ele>
        <time>2026-03-27T15:12:15Z</time>
      </trkpt>
      <trkpt lat="43.48999" lon="6.58502">
        <ele>78.7</ele>
        <time>2026-03-27T15:12:16Z</time>
      </trkpt>
      <trkpt lat="43.48998" lon="6.58501">
        <ele>78.7</ele>
        <time>2026-03-27T15:12:17Z</time>
      </trkpt>
      <trkpt lat="43.48997" lon="6.585">
        <ele>78.7</ele>
        <time>2026-03-27T15:12:18Z</time>
      </trkpt>
      <trkpt lat="43.48996" lon="6.58499">
        <ele>78.8</ele>
        <time>2026-03-27T15:12:19Z</time>
      </trkpt>
      <trkpt lat="43.48995" lon="6.58498">
        <ele>78.9</ele>
        <time>2026-03-27T15:12:20Z</time>
      </trkpt>
      <trkpt lat="43.48995" lon="6.58497">
        <ele>79</ele>
        <time>2026-03-27T15:12:21Z</time>
      </trkpt>
      <trkpt lat="43.48994" lon="6.58496">
        <ele>79</ele>
        <time>2026-03-27T15:12:22Z</time>
      </trkpt>
      <trkpt lat="43.48993" lon="6.58494">
        <ele>79</ele>
        <time>2026-03-27T15:12:23Z</time>
      </trkpt>
      <trkpt lat="43.48993" lon="6.58493">
        <ele>79</ele>
        <time>2026-03-27T15:12:24Z</time>
      </trkpt>
      <trkpt lat="43.48992" lon="6.58491">
        <ele>79.1</ele>
        <time>2026-03-27T15:12:25Z</time>
      </trkpt>
      <trkpt lat="43.48991" lon="6.58489">
        <ele>79.2</ele>
        <time>2026-03-27T15:12:26Z</time>
      </trkpt>
      <trkpt lat="43.48991" lon="6.58488">
        <ele>79.3</ele>
        <time>2026-03-27T15:12:27Z</time>
      </trkpt>
      <trkpt lat="43.48991" lon="6.58487">
        <ele>79.3</ele>
        <time>2026-03-27T15:12:28Z</time>
      </trkpt>
      <trkpt lat="43.4899" lon="6.58485">
        <ele>79.3</ele>
        <time>2026-03-27T15:12:29Z</time>
      </trkpt>
      <trkpt lat="43.4899" lon="6.58483">
        <ele>79.1</ele>
        <time>2026-03-27T15:12:30Z</time>
      </trkpt>
      <trkpt lat="43.48991" lon="6.58482">
        <ele>79</ele>
        <time>2026-03-27T15:12:31Z</time>
      </trkpt>
      <trkpt lat="43.48991" lon="6.58481">
        <ele>79</ele>
        <time>2026-03-27T15:12:32Z</time>
      </trkpt>
      <trkpt lat="43.48992" lon="6.5848">
        <ele>79.1</ele>
        <time>2026-03-27T15:12:33Z</time>
      </trkpt>
      <trkpt lat="43.48992" lon="6.58478">
        <ele>79.1</ele>
        <time>2026-03-27T15:12:34Z</time>
      </trkpt>
      <trkpt lat="43.48992" lon="6.58476">
        <ele>79</ele>
        <time>2026-03-27T15:12:35Z</time>
      </trkpt>
      <trkpt lat="43.48993" lon="6.58475">
        <ele>78.9</ele>
        <time>2026-03-27T15:12:36Z</time>
      </trkpt>
      <trkpt lat="43.48993" lon="6.58473">
        <ele>78.9</ele>
        <time>2026-03-27T15:12:37Z</time>
      </trkpt>
      <trkpt lat="43.48993" lon="6.58472">
        <ele>78.7</ele>
        <time>2026-03-27T15:12:38Z</time>
      </trkpt>
      <trkpt lat="43.48993" lon="6.58471">
        <ele>78.5</ele>
        <time>2026-03-27T15:12:39Z</time>
      </trkpt>
      <trkpt lat="43.48993" lon="6.5847">
        <ele>78.4</ele>
        <time>2026-03-27T15:12:40Z</time>
      </trkpt>
      <trkpt lat="43.48993" lon="6.58469">
        <ele>78.3</ele>
        <time>2026-03-27T15:12:41Z</time>
      </trkpt>
      <trkpt lat="43.48993" lon="6.58468">
        <ele>78.2</ele>
        <time>2026-03-27T15:12:42Z</time>
      </trkpt>
      <trkpt lat="43.48993" lon="6.58467">
        <ele>78</ele>
        <time>2026-03-27T15:12:43Z</time>
      </trkpt>
      <trkpt lat="43.48993" lon="6.58466">
        <ele>78</ele>
        <time>2026-03-27T15:12:44Z</time>
      </trkpt>
      <trkpt lat="43.48993" lon="6.58465">
        <ele>77.9</ele>
        <time>2026-03-27T15:12:45Z</time>
      </trkpt>
      <trkpt lat="43.48994" lon="6.58464">
        <ele>77.8</ele>
        <time>2026-03-27T15:12:46Z</time>
      </trkpt>
      <trkpt lat="43.48994" lon="6.58462">
        <ele>77.7</ele>
        <time>2026-03-27T15:12:47Z</time>
      </trkpt>
      <trkpt lat="43.48994" lon="6.58461">
        <ele>77.6</ele>
        <time>2026-03-27T15:12:48Z</time>
      </trkpt>
      <trkpt lat="43.48994" lon="6.58461">
        <ele>77.5</ele>
        <time>2026-03-27T15:12:49Z</time>
      </trkpt>
      <trkpt lat="43.48994" lon="6.5846">
        <ele>77.5</ele>
        <time>2026-03-27T15:12:50Z</time>
      </trkpt>
      <trkpt lat="43.48994" lon="6.58459">
        <ele>77.6</ele>
        <time>2026-03-27T15:12:51Z</time>
      </trkpt>
      <trkpt lat="43.48994" lon="6.58459">
        <ele>77.6</ele>
        <time>2026-03-27T15:12:52Z</time>
      </trkpt>
      <trkpt lat="43.48994" lon="6.58458">
        <ele>77.6</ele>
        <time>2026-03-27T15:12:53Z</time>
      </trkpt>
      <trkpt lat="43.48995" lon="6.58457">
        <ele>77.6</ele>
        <time>2026-03-27T15:12:54Z</time>
      </trkpt>
      <trkpt lat="43.48995" lon="6.58457">
        <ele>77.7</ele>
        <time>2026-03-27T15:12:55Z</time>
      </trkpt>
      <trkpt lat="43.48995" lon="6.58456">
        <ele>77.7</ele>
        <time>2026-03-27T15:12:56Z</time>
      </trkpt>
      <trkpt lat="43.48995" lon="6.58456">
        <ele>77.7</ele>
        <time>2026-03-27T15:12:57Z</time>
      </trkpt>
      <trkpt lat="43.48995" lon="6.58456">
        <ele>77.6</ele>
        <time>2026-03-27T15:12:58Z</time>
      </trkpt>
      <trkpt lat="43.48995" lon="6.58456">
        <ele>77.6</ele>
        <time>2026-03-27T15:12:59Z</time>
      </trkpt>
      <trkpt lat="43.48995" lon="6.58456">
        <ele>77.5</ele>
        <time>2026-03-27T15:13:00Z</time>
      </trkpt>
      <trkpt lat="43.48995" lon="6.58456">
        <ele>77.6</ele>
        <time>2026-03-27T15:13:01Z</time>
      </trkpt>
      <trkpt lat="43.48995" lon="6.58456">
        <ele>77.5</ele>
        <time>2026-03-27T15:13:02Z</time>
      </trkpt>
      <trkpt lat="43.48995" lon="6.58455">
        <ele>77.5</ele>
        <time>2026-03-27T15:13:03Z</time>
      </trkpt>
      <trkpt lat="43.48995" lon="6.58455">
        <ele>77.6</ele>
        <time>2026-03-27T15:13:04Z</time>
      </trkpt>
      <trkpt lat="43.48995" lon="6.58455">
        <ele>77.6</ele>
        <time>2026-03-27T15:13:05Z</time>
      </trkpt>
      <trkpt lat="43.48995" lon="6.58455">
        <ele>77.7</ele>
        <time>2026-03-27T15:13:06Z</time>
      </trkpt>
      <trkpt lat="43.48996" lon="6.58454">
        <ele>77.7</ele>
        <time>2026-03-27T15:13:07Z</time>
      </trkpt>
      <trkpt lat="43.48997" lon="6.58453">
        <ele>77.7</ele>
        <time>2026-03-27T15:13:08Z</time>
      </trkpt>
      <trkpt lat="43.48997" lon="6.58452">
        <ele>77.7</ele>
        <time>2026-03-27T15:13:09Z</time>
      </trkpt>
      <trkpt lat="43.48997" lon="6.58451">
        <ele>77.7</ele>
        <time>2026-03-27T15:13:10Z</time>
      </trkpt>
      <trkpt lat="43.48998" lon="6.58449">
        <ele>77.8</ele>
        <time>2026-03-27T15:13:11Z</time>
      </trkpt>
      <trkpt lat="43.48999" lon="6.58448">
        <ele>77.8</ele>
        <time>2026-03-27T15:13:12Z</time>
      </trkpt>
      <trkpt lat="43.49" lon="6.58447">
        <ele>77.8</ele>
        <time>2026-03-27T15:13:13Z</time>
      </trkpt>
      <trkpt lat="43.49" lon="6.58446">
        <ele>77.8</ele>
        <time>2026-03-27T15:13:14Z</time>
      </trkpt>
      <trkpt lat="43.49001" lon="6.58445">
        <ele>77.8</ele>
        <time>2026-03-27T15:13:15Z</time>
      </trkpt>
      <trkpt lat="43.49001" lon="6.58443">
        <ele>77.7</ele>
        <time>2026-03-27T15:13:16Z</time>
      </trkpt>
      <trkpt lat="43.49002" lon="6.58442">
        <ele>77.7</ele>
        <time>2026-03-27T15:13:17Z</time>
      </trkpt>
      <trkpt lat="43.49002" lon="6.58441">
        <ele>77.6</ele>
        <time>2026-03-27T15:13:18Z</time>
      </trkpt>
      <trkpt lat="43.49003" lon="6.5844">
        <ele>77.5</ele>
        <time>2026-03-27T15:13:19Z</time>
      </trkpt>
      <trkpt lat="43.49004" lon="6.58439">
        <ele>77.5</ele>
        <time>2026-03-27T15:13:20Z</time>
      </trkpt>
      <trkpt lat="43.49005" lon="6.58438">
        <ele>77.4</ele>
        <time>2026-03-27T15:13:21Z</time>
      </trkpt>
      <trkpt lat="43.49006" lon="6.58437">
        <ele>77.4</ele>
        <time>2026-03-27T15:13:22Z</time>
      </trkpt>
      <trkpt lat="43.49007" lon="6.58435">
        <ele>77.4</ele>
        <time>2026-03-27T15:13:23Z</time>
      </trkpt>
      <trkpt lat="43.49007" lon="6.58434">
        <ele>77.3</ele>
        <time>2026-03-27T15:13:24Z</time>
      </trkpt>
      <trkpt lat="43.49008" lon="6.58433">
        <ele>77.2</ele>
        <time>2026-03-27T15:13:25Z</time>
      </trkpt>
      <trkpt lat="43.49009" lon="6.58431">
        <ele>77.2</ele>
        <time>2026-03-27T15:13:26Z</time>
      </trkpt>
      <trkpt lat="43.49009" lon="6.5843">
        <ele>77.1</ele>
        <time>2026-03-27T15:13:27Z</time>
      </trkpt>
      <trkpt lat="43.4901" lon="6.58429">
        <ele>76.8</ele>
        <time>2026-03-27T15:13:28Z</time>
      </trkpt>
      <trkpt lat="43.4901" lon="6.58427">
        <ele>76.9</ele>
        <time>2026-03-27T15:13:29Z</time>
      </trkpt>
      <trkpt lat="43.49011" lon="6.58427">
        <ele>76.9</ele>
        <time>2026-03-27T15:13:30Z</time>
      </trkpt>
      <trkpt lat="43.49012" lon="6.58426">
        <ele>76.9</ele>
        <time>2026-03-27T15:13:31Z</time>
      </trkpt>
      <trkpt lat="43.49013" lon="6.58424">
        <ele>76.9</ele>
        <time>2026-03-27T15:13:32Z</time>
      </trkpt>
      <trkpt lat="43.49014" lon="6.58423">
        <ele>76.9</ele>
        <time>2026-03-27T15:13:33Z</time>
      </trkpt>
      <trkpt lat="43.49015" lon="6.58422">
        <ele>76.9</ele>
        <time>2026-03-27T15:13:34Z</time>
      </trkpt>
      <trkpt lat="43.49015" lon="6.58421">
        <ele>76.9</ele>
        <time>2026-03-27T15:13:35Z</time>
      </trkpt>
      <trkpt lat="43.49015" lon="6.58419">
        <ele>76.9</ele>
        <time>2026-03-27T15:13:36Z</time>
      </trkpt>
      <trkpt lat="43.49016" lon="6.58418">
        <ele>76.8</ele>
        <time>2026-03-27T15:13:37Z</time>
      </trkpt>
      <trkpt lat="43.49017" lon="6.58417">
        <ele>76.8</ele>
        <time>2026-03-27T15:13:38Z</time>
      </trkpt>
      <trkpt lat="43.49018" lon="6.58416">
        <ele>76.7</ele>
        <time>2026-03-27T15:13:39Z</time>
      </trkpt>
      <trkpt lat="43.49019" lon="6.58415">
        <ele>76.7</ele>
        <time>2026-03-27T15:13:40Z</time>
      </trkpt>
      <trkpt lat="43.4902" lon="6.58414">
        <ele>76.8</ele>
        <time>2026-03-27T15:13:41Z</time>
      </trkpt>
      <trkpt lat="43.49021" lon="6.58413">
        <ele>76.9</ele>
        <time>2026-03-27T15:13:42Z</time>
      </trkpt>
      <trkpt lat="43.49022" lon="6.58412">
        <ele>77.1</ele>
        <time>2026-03-27T15:13:43Z</time>
      </trkpt>
      <trkpt lat="43.49023" lon="6.5841">
        <ele>77.3</ele>
        <time>2026-03-27T15:13:44Z</time>
      </trkpt>
      <trkpt lat="43.49024" lon="6.58409">
        <ele>77.4</ele>
        <time>2026-03-27T15:13:45Z</time>
      </trkpt>
      <trkpt lat="43.49024" lon="6.58408">
        <ele>77.5</ele>
        <time>2026-03-27T15:13:46Z</time>
      </trkpt>
      <trkpt lat="43.49025" lon="6.58407">
        <ele>77.5</ele>
        <time>2026-03-27T15:13:47Z</time>
      </trkpt>
      <trkpt lat="43.49025" lon="6.58405">
        <ele>77.6</ele>
        <time>2026-03-27T15:13:48Z</time>
      </trkpt>
      <trkpt lat="43.49026" lon="6.58404">
        <ele>77.7</ele>
        <time>2026-03-27T15:13:49Z</time>
      </trkpt>
      <trkpt lat="43.49027" lon="6.58403">
        <ele>77.6</ele>
        <time>2026-03-27T15:13:50Z</time>
      </trkpt>
      <trkpt lat="43.49028" lon="6.58402">
        <ele>77.6</ele>
        <time>2026-03-27T15:13:51Z</time>
      </trkpt>
      <trkpt lat="43.49029" lon="6.58401">
        <ele>77.6</ele>
        <time>2026-03-27T15:13:52Z</time>
      </trkpt>
      <trkpt lat="43.49029" lon="6.584">
        <ele>77.6</ele>
        <time>2026-03-27T15:13:53Z</time>
      </trkpt>
      <trkpt lat="43.4903" lon="6.58398">
        <ele>77.6</ele>
        <time>2026-03-27T15:13:54Z</time>
      </trkpt>
      <trkpt lat="43.49031" lon="6.58397">
        <ele>77.5</ele>
        <time>2026-03-27T15:13:55Z</time>
      </trkpt>
      <trkpt lat="43.49031" lon="6.58395">
        <ele>77.5</ele>
        <time>2026-03-27T15:13:56Z</time>
      </trkpt>
      <trkpt lat="43.49032" lon="6.58394">
        <ele>77.6</ele>
        <time>2026-03-27T15:13:57Z</time>
      </trkpt>
      <trkpt lat="43.49032" lon="6.58393">
        <ele>77.5</ele>
        <time>2026-03-27T15:13:58Z</time>
      </trkpt>
      <trkpt lat="43.49032" lon="6.58392">
        <ele>77.5</ele>
        <time>2026-03-27T15:13:59Z</time>
      </trkpt>
      <trkpt lat="43.49033" lon="6.5839">
        <ele>77.4</ele>
        <time>2026-03-27T15:14:00Z</time>
      </trkpt>
      <trkpt lat="43.49033" lon="6.58389">
        <ele>77.4</ele>
        <time>2026-03-27T15:14:01Z</time>
      </trkpt>
      <trkpt lat="43.49034" lon="6.58387">
        <ele>77.3</ele>
        <time>2026-03-27T15:14:02Z</time>
      </trkpt>
      <trkpt lat="43.49034" lon="6.58386">
        <ele>77.3</ele>
        <time>2026-03-27T15:14:03Z</time>
      </trkpt>
      <trkpt lat="43.49035" lon="6.58384">
        <ele>77.4</ele>
        <time>2026-03-27T15:14:04Z</time>
      </trkpt>
      <trkpt lat="43.49035" lon="6.58383">
        <ele>77.4</ele>
        <time>2026-03-27T15:14:05Z</time>
      </trkpt>
      <trkpt lat="43.49036" lon="6.58381">
        <ele>77.4</ele>
        <time>2026-03-27T15:14:06Z</time>
      </trkpt>
      <trkpt lat="43.49036" lon="6.5838">
        <ele>77.5</ele>
        <time>2026-03-27T15:14:07Z</time>
      </trkpt>
      <trkpt lat="43.49036" lon="6.58378">
        <ele>77.6</ele>
        <time>2026-03-27T15:14:08Z</time>
      </trkpt>
      <trkpt lat="43.49037" lon="6.58377">
        <ele>77.6</ele>
        <time>2026-03-27T15:14:09Z</time>
      </trkpt>
      <trkpt lat="43.49037" lon="6.58376">
        <ele>77.7</ele>
        <time>2026-03-27T15:14:10Z</time>
      </trkpt>
      <trkpt lat="43.49038" lon="6.58374">
        <ele>77.7</ele>
        <time>2026-03-27T15:14:11Z</time>
      </trkpt>
      <trkpt lat="43.49038" lon="6.58373">
        <ele>77.7</ele>
        <time>2026-03-27T15:14:12Z</time>
      </trkpt>
      <trkpt lat="43.49039" lon="6.58372">
        <ele>77.7</ele>
        <time>2026-03-27T15:14:13Z</time>
      </trkpt>
      <trkpt lat="43.49039" lon="6.5837">
        <ele>77.7</ele>
        <time>2026-03-27T15:14:14Z</time>
      </trkpt>
      <trkpt lat="43.49039" lon="6.58369">
        <ele>77.8</ele>
        <time>2026-03-27T15:14:15Z</time>
      </trkpt>
      <trkpt lat="43.49039" lon="6.58368">
        <ele>77.9</ele>
        <time>2026-03-27T15:14:16Z</time>
      </trkpt>
      <trkpt lat="43.4904" lon="6.58366">
        <ele>78</ele>
        <time>2026-03-27T15:14:17Z</time>
      </trkpt>
      <trkpt lat="43.4904" lon="6.58365">
        <ele>78</ele>
        <time>2026-03-27T15:14:18Z</time>
      </trkpt>
      <trkpt lat="43.4904" lon="6.58364">
        <ele>78.1</ele>
        <time>2026-03-27T15:14:19Z</time>
      </trkpt>
      <trkpt lat="43.49041" lon="6.58362">
        <ele>78.1</ele>
        <time>2026-03-27T15:14:20Z</time>
      </trkpt>
      <trkpt lat="43.49041" lon="6.58361">
        <ele>78.1</ele>
        <time>2026-03-27T15:14:21Z</time>
      </trkpt>
      <trkpt lat="43.49042" lon="6.5836">
        <ele>78.1</ele>
        <time>2026-03-27T15:14:22Z</time>
      </trkpt>
      <trkpt lat="43.49042" lon="6.58359">
        <ele>78.1</ele>
        <time>2026-03-27T15:14:23Z</time>
      </trkpt>
      <trkpt lat="43.49042" lon="6.58358">
        <ele>78</ele>
        <time>2026-03-27T15:14:24Z</time>
      </trkpt>
      <trkpt lat="43.49043" lon="6.58358">
        <ele>78</ele>
        <time>2026-03-27T15:14:25Z</time>
      </trkpt>
      <trkpt lat="43.49043" lon="6.58358">
        <ele>78</ele>
        <time>2026-03-27T15:14:26Z</time>
      </trkpt>
      <trkpt lat="43.49043" lon="6.58358">
        <ele>78.1</ele>
        <time>2026-03-27T15:14:27Z</time>
      </trkpt>
      <trkpt lat="43.49043" lon="6.58358">
        <ele>78.1</ele>
        <time>2026-03-27T15:14:28Z</time>
      </trkpt>
      <trkpt lat="43.49043" lon="6.58358">
        <ele>78</ele>
        <time>2026-03-27T15:14:29Z</time>
      </trkpt>
      <trkpt lat="43.49043" lon="6.58358">
        <ele>78</ele>
        <time>2026-03-27T15:14:30Z</time>
      </trkpt>
      <trkpt lat="43.49043" lon="6.58357">
        <ele>77.9</ele>
        <time>2026-03-27T15:14:31Z</time>
      </trkpt>
      <trkpt lat="43.49043" lon="6.58356">
        <ele>78</ele>
        <time>2026-03-27T15:14:32Z</time>
      </trkpt>
      <trkpt lat="43.49043" lon="6.58354">
        <ele>78</ele>
        <time>2026-03-27T15:14:33Z</time>
      </trkpt>
      <trkpt lat="43.49044" lon="6.58352">
        <ele>78</ele>
        <time>2026-03-27T15:14:34Z</time>
      </trkpt>
      <trkpt lat="43.49044" lon="6.58351">
        <ele>78</ele>
        <time>2026-03-27T15:14:35Z</time>
      </trkpt>
      <trkpt lat="43.49044" lon="6.58349">
        <ele>77.6</ele>
        <time>2026-03-27T15:14:36Z</time>
      </trkpt>
      <trkpt lat="43.49044" lon="6.58348">
        <ele>77.5</ele>
        <time>2026-03-27T15:14:37Z</time>
      </trkpt>
      <trkpt lat="43.49045" lon="6.58347">
        <ele>77.5</ele>
        <time>2026-03-27T15:14:38Z</time>
      </trkpt>
      <trkpt lat="43.49045" lon="6.58345">
        <ele>77.8</ele>
        <time>2026-03-27T15:14:39Z</time>
      </trkpt>
      <trkpt lat="43.49045" lon="6.58344">
        <ele>77.9</ele>
        <time>2026-03-27T15:14:40Z</time>
      </trkpt>
      <trkpt lat="43.49046" lon="6.58342">
        <ele>78</ele>
        <time>2026-03-27T15:14:41Z</time>
      </trkpt>
      <trkpt lat="43.49046" lon="6.58341">
        <ele>77.9</ele>
        <time>2026-03-27T15:14:42Z</time>
      </trkpt>
      <trkpt lat="43.49047" lon="6.5834">
        <ele>78.1</ele>
        <time>2026-03-27T15:14:43Z</time>
      </trkpt>
      <trkpt lat="43.49047" lon="6.58339">
        <ele>78.1</ele>
        <time>2026-03-27T15:14:44Z</time>
      </trkpt>
      <trkpt lat="43.49048" lon="6.58338">
        <ele>78.1</ele>
        <time>2026-03-27T15:14:45Z</time>
      </trkpt>
      <trkpt lat="43.49048" lon="6.58337">
        <ele>78.2</ele>
        <time>2026-03-27T15:14:46Z</time>
      </trkpt>
      <trkpt lat="43.49048" lon="6.58335">
        <ele>78.3</ele>
        <time>2026-03-27T15:14:47Z</time>
      </trkpt>
      <trkpt lat="43.49048" lon="6.58334">
        <ele>78.3</ele>
        <time>2026-03-27T15:14:48Z</time>
      </trkpt>
      <trkpt lat="43.49049" lon="6.58332">
        <ele>78.3</ele>
        <time>2026-03-27T15:14:49Z</time>
      </trkpt>
      <trkpt lat="43.49049" lon="6.58331">
        <ele>78.3</ele>
        <time>2026-03-27T15:14:50Z</time>
      </trkpt>
      <trkpt lat="43.4905" lon="6.58329">
        <ele>78.2</ele>
        <time>2026-03-27T15:14:51Z</time>
      </trkpt>
      <trkpt lat="43.4905" lon="6.58328">
        <ele>78.2</ele>
        <time>2026-03-27T15:14:52Z</time>
      </trkpt>
      <trkpt lat="43.49051" lon="6.58326">
        <ele>78.2</ele>
        <time>2026-03-27T15:14:53Z</time>
      </trkpt>
      <trkpt lat="43.49051" lon="6.58325">
        <ele>78.3</ele>
        <time>2026-03-27T15:14:54Z</time>
      </trkpt>
      <trkpt lat="43.49051" lon="6.58324">
        <ele>78.3</ele>
        <time>2026-03-27T15:14:55Z</time>
      </trkpt>
      <trkpt lat="43.49051" lon="6.58322">
        <ele>78.4</ele>
        <time>2026-03-27T15:14:56Z</time>
      </trkpt>
      <trkpt lat="43.49051" lon="6.5832">
        <ele>78.4</ele>
        <time>2026-03-27T15:14:57Z</time>
      </trkpt>
      <trkpt lat="43.49052" lon="6.58319">
        <ele>78.3</ele>
        <time>2026-03-27T15:14:58Z</time>
      </trkpt>
      <trkpt lat="43.49052" lon="6.58317">
        <ele>78.2</ele>
        <time>2026-03-27T15:14:59Z</time>
      </trkpt>
      <trkpt lat="43.49052" lon="6.58316">
        <ele>78.2</ele>
        <time>2026-03-27T15:15:00Z</time>
      </trkpt>
      <trkpt lat="43.49052" lon="6.58314">
        <ele>78</ele>
        <time>2026-03-27T15:15:01Z</time>
      </trkpt>
      <trkpt lat="43.49053" lon="6.58313">
        <ele>77.9</ele>
        <time>2026-03-27T15:15:02Z</time>
      </trkpt>
      <trkpt lat="43.49053" lon="6.58311">
        <ele>77.8</ele>
        <time>2026-03-27T15:15:03Z</time>
      </trkpt>
      <trkpt lat="43.49053" lon="6.5831">
        <ele>77.7</ele>
        <time>2026-03-27T15:15:04Z</time>
      </trkpt>
      <trkpt lat="43.49053" lon="6.58308">
        <ele>77.7</ele>
        <time>2026-03-27T15:15:05Z</time>
      </trkpt>
      <trkpt lat="43.49053" lon="6.58307">
        <ele>77.6</ele>
        <time>2026-03-27T15:15:06Z</time>
      </trkpt>
      <trkpt lat="43.49053" lon="6.58305">
        <ele>77.5</ele>
        <time>2026-03-27T15:15:07Z</time>
      </trkpt>
      <trkpt lat="43.49054" lon="6.58303">
        <ele>77.5</ele>
        <time>2026-03-27T15:15:08Z</time>
      </trkpt>
      <trkpt lat="43.49054" lon="6.58301">
        <ele>77.4</ele>
        <time>2026-03-27T15:15:09Z</time>
      </trkpt>
      <trkpt lat="43.49054" lon="6.583">
        <ele>77.3</ele>
        <time>2026-03-27T15:15:10Z</time>
      </trkpt>
      <trkpt lat="43.49054" lon="6.58299">
        <ele>77.3</ele>
        <time>2026-03-27T15:15:11Z</time>
      </trkpt>
      <trkpt lat="43.49055" lon="6.58297">
        <ele>77.2</ele>
        <time>2026-03-27T15:15:12Z</time>
      </trkpt>
      <trkpt lat="43.49055" lon="6.58296">
        <ele>77.2</ele>
        <time>2026-03-27T15:15:13Z</time>
      </trkpt>
      <trkpt lat="43.49055" lon="6.58294">
        <ele>77.2</ele>
        <time>2026-03-27T15:15:14Z</time>
      </trkpt>
      <trkpt lat="43.49056" lon="6.58293">
        <ele>77.1</ele>
        <time>2026-03-27T15:15:15Z</time>
      </trkpt>
      <trkpt lat="43.49056" lon="6.58291">
        <ele>77.1</ele>
        <time>2026-03-27T15:15:16Z</time>
      </trkpt>
      <trkpt lat="43.49056" lon="6.58289">
        <ele>77.1</ele>
        <time>2026-03-27T15:15:17Z</time>
      </trkpt>
      <trkpt lat="43.49056" lon="6.58287">
        <ele>77.1</ele>
        <time>2026-03-27T15:15:18Z</time>
      </trkpt>
      <trkpt lat="43.49056" lon="6.58285">
        <ele>77.1</ele>
        <time>2026-03-27T15:15:19Z</time>
      </trkpt>
      <trkpt lat="43.49056" lon="6.58284">
        <ele>77.1</ele>
        <time>2026-03-27T15:15:20Z</time>
      </trkpt>
      <trkpt lat="43.49056" lon="6.58283">
        <ele>77</ele>
        <time>2026-03-27T15:15:21Z</time>
      </trkpt>
      <trkpt lat="43.49057" lon="6.58281">
        <ele>77</ele>
        <time>2026-03-27T15:15:22Z</time>
      </trkpt>
      <trkpt lat="43.49057" lon="6.58279">
        <ele>76.8</ele>
        <time>2026-03-27T15:15:23Z</time>
      </trkpt>
      <trkpt lat="43.49057" lon="6.58278">
        <ele>76.6</ele>
        <time>2026-03-27T15:15:24Z</time>
      </trkpt>
      <trkpt lat="43.49057" lon="6.58276">
        <ele>76.5</ele>
        <time>2026-03-27T15:15:25Z</time>
      </trkpt>
      <trkpt lat="43.49058" lon="6.58275">
        <ele>76.4</ele>
        <time>2026-03-27T15:15:26Z</time>
      </trkpt>
      <trkpt lat="43.49058" lon="6.58273">
        <ele>76.3</ele>
        <time>2026-03-27T15:15:27Z</time>
      </trkpt>
      <trkpt lat="43.49058" lon="6.58271">
        <ele>76.3</ele>
        <time>2026-03-27T15:15:28Z</time>
      </trkpt>
      <trkpt lat="43.49058" lon="6.5827">
        <ele>76.3</ele>
        <time>2026-03-27T15:15:29Z</time>
      </trkpt>
      <trkpt lat="43.49058" lon="6.58268">
        <ele>76.3</ele>
        <time>2026-03-27T15:15:30Z</time>
      </trkpt>
      <trkpt lat="43.49058" lon="6.58267">
        <ele>76.3</ele>
        <time>2026-03-27T15:15:31Z</time>
      </trkpt>
      <trkpt lat="43.49058" lon="6.58265">
        <ele>76.2</ele>
        <time>2026-03-27T15:15:32Z</time>
      </trkpt>
      <trkpt lat="43.49057" lon="6.58264">
        <ele>76.3</ele>
        <time>2026-03-27T15:15:33Z</time>
      </trkpt>
      <trkpt lat="43.49057" lon="6.58262">
        <ele>76.4</ele>
        <time>2026-03-27T15:15:34Z</time>
      </trkpt>
      <trkpt lat="43.49057" lon="6.58261">
        <ele>76.3</ele>
        <time>2026-03-27T15:15:35Z</time>
      </trkpt>
      <trkpt lat="43.49057" lon="6.58259">
        <ele>76.3</ele>
        <time>2026-03-27T15:15:36Z</time>
      </trkpt>
      <trkpt lat="43.49057" lon="6.58258">
        <ele>76.2</ele>
        <time>2026-03-27T15:15:37Z</time>
      </trkpt>
      <trkpt lat="43.49057" lon="6.58257">
        <ele>76.1</ele>
        <time>2026-03-27T15:15:38Z</time>
      </trkpt>
      <trkpt lat="43.49057" lon="6.58255">
        <ele>76.1</ele>
        <time>2026-03-27T15:15:39Z</time>
      </trkpt>
      <trkpt lat="43.49058" lon="6.58254">
        <ele>76</ele>
        <time>2026-03-27T15:15:40Z</time>
      </trkpt>
      <trkpt lat="43.49058" lon="6.58252">
        <ele>76</ele>
        <time>2026-03-27T15:15:41Z</time>
      </trkpt>
      <trkpt lat="43.49058" lon="6.58251">
        <ele>76</ele>
        <time>2026-03-27T15:15:42Z</time>
      </trkpt>
      <trkpt lat="43.49058" lon="6.58249">
        <ele>76.1</ele>
        <time>2026-03-27T15:15:43Z</time>
      </trkpt>
      <trkpt lat="43.49058" lon="6.58248">
        <ele>76.2</ele>
        <time>2026-03-27T15:15:44Z</time>
      </trkpt>
      <trkpt lat="43.49058" lon="6.58246">
        <ele>76.3</ele>
        <time>2026-03-27T15:15:45Z</time>
      </trkpt>
      <trkpt lat="43.49058" lon="6.58245">
        <ele>76.3</ele>
        <time>2026-03-27T15:15:46Z</time>
      </trkpt>
      <trkpt lat="43.49057" lon="6.58243">
        <ele>76.3</ele>
        <time>2026-03-27T15:15:47Z</time>
      </trkpt>
      <trkpt lat="43.49057" lon="6.58242">
        <ele>76.4</ele>
        <time>2026-03-27T15:15:48Z</time>
      </trkpt>
      <trkpt lat="43.49057" lon="6.58241">
        <ele>76.4</ele>
        <time>2026-03-27T15:15:49Z</time>
      </trkpt>
      <trkpt lat="43.49057" lon="6.58239">
        <ele>76.5</ele>
        <time>2026-03-27T15:15:50Z</time>
      </trkpt>
      <trkpt lat="43.49057" lon="6.58238">
        <ele>76.6</ele>
        <time>2026-03-27T15:15:51Z</time>
      </trkpt>
      <trkpt lat="43.49057" lon="6.58236">
        <ele>76.7</ele>
        <time>2026-03-27T15:15:52Z</time>
      </trkpt>
      <trkpt lat="43.49057" lon="6.58234">
        <ele>76.9</ele>
        <time>2026-03-27T15:15:53Z</time>
      </trkpt>
      <trkpt lat="43.49057" lon="6.58233">
        <ele>76.9</ele>
        <time>2026-03-27T15:15:54Z</time>
      </trkpt>
      <trkpt lat="43.49057" lon="6.58232">
        <ele>77</ele>
        <time>2026-03-27T15:15:55Z</time>
      </trkpt>
      <trkpt lat="43.49057" lon="6.5823">
        <ele>77</ele>
        <time>2026-03-27T15:15:56Z</time>
      </trkpt>
      <trkpt lat="43.49057" lon="6.58229">
        <ele>77</ele>
        <time>2026-03-27T15:15:57Z</time>
      </trkpt>
      <trkpt lat="43.49057" lon="6.58227">
        <ele>77</ele>
        <time>2026-03-27T15:15:58Z</time>
      </trkpt>
      <trkpt lat="43.49057" lon="6.58225">
        <ele>77</ele>
        <time>2026-03-27T15:15:59Z</time>
      </trkpt>
      <trkpt lat="43.49057" lon="6.58224">
        <ele>77</ele>
        <time>2026-03-27T15:16:00Z</time>
      </trkpt>
      <trkpt lat="43.49057" lon="6.58222">
        <ele>77.1</ele>
        <time>2026-03-27T15:16:01Z</time>
      </trkpt>
      <trkpt lat="43.49057" lon="6.58221">
        <ele>77.1</ele>
        <time>2026-03-27T15:16:02Z</time>
      </trkpt>
      <trkpt lat="43.49057" lon="6.5822">
        <ele>77.2</ele>
        <time>2026-03-27T15:16:03Z</time>
      </trkpt>
      <trkpt lat="43.49057" lon="6.58218">
        <ele>77.1</ele>
        <time>2026-03-27T15:16:04Z</time>
      </trkpt>
      <trkpt lat="43.49057" lon="6.58217">
        <ele>77.1</ele>
        <time>2026-03-27T15:16:05Z</time>
      </trkpt>
      <trkpt lat="43.49057" lon="6.58215">
        <ele>77.1</ele>
        <time>2026-03-27T15:16:06Z</time>
      </trkpt>
      <trkpt lat="43.49057" lon="6.58214">
        <ele>77</ele>
        <time>2026-03-27T15:16:07Z</time>
      </trkpt>
      <trkpt lat="43.49057" lon="6.58213">
        <ele>77</ele>
        <time>2026-03-27T15:16:08Z</time>
      </trkpt>
      <trkpt lat="43.49057" lon="6.58211">
        <ele>77</ele>
        <time>2026-03-27T15:16:09Z</time>
      </trkpt>
      <trkpt lat="43.49057" lon="6.5821">
        <ele>76.9</ele>
        <time>2026-03-27T15:16:10Z</time>
      </trkpt>
      <trkpt lat="43.49057" lon="6.58208">
        <ele>77</ele>
        <time>2026-03-27T15:16:11Z</time>
      </trkpt>
      <trkpt lat="43.49057" lon="6.58206">
        <ele>76.9</ele>
        <time>2026-03-27T15:16:12Z</time>
      </trkpt>
      <trkpt lat="43.49057" lon="6.58205">
        <ele>77</ele>
        <time>2026-03-27T15:16:13Z</time>
      </trkpt>
      <trkpt lat="43.49057" lon="6.58203">
        <ele>77</ele>
        <time>2026-03-27T15:16:14Z</time>
      </trkpt>
      <trkpt lat="43.49057" lon="6.58201">
        <ele>77</ele>
        <time>2026-03-27T15:16:15Z</time>
      </trkpt>
      <trkpt lat="43.49056" lon="6.582">
        <ele>77</ele>
        <time>2026-03-27T15:16:16Z</time>
      </trkpt>
      <trkpt lat="43.49056" lon="6.58198">
        <ele>77</ele>
        <time>2026-03-27T15:16:17Z</time>
      </trkpt>
      <trkpt lat="43.49056" lon="6.58197">
        <ele>77.1</ele>
        <time>2026-03-27T15:16:18Z</time>
      </trkpt>
      <trkpt lat="43.49055" lon="6.58195">
        <ele>77.1</ele>
        <time>2026-03-27T15:16:19Z</time>
      </trkpt>
      <trkpt lat="43.49055" lon="6.58194">
        <ele>77.2</ele>
        <time>2026-03-27T15:16:20Z</time>
      </trkpt>
      <trkpt lat="43.49055" lon="6.58192">
        <ele>77.2</ele>
        <time>2026-03-27T15:16:21Z</time>
      </trkpt>
      <trkpt lat="43.49054" lon="6.5819">
        <ele>77.2</ele>
        <time>2026-03-27T15:16:22Z</time>
      </trkpt>
      <trkpt lat="43.49053" lon="6.58189">
        <ele>77.3</ele>
        <time>2026-03-27T15:16:23Z</time>
      </trkpt>
      <trkpt lat="43.49053" lon="6.58187">
        <ele>77.3</ele>
        <time>2026-03-27T15:16:24Z</time>
      </trkpt>
      <trkpt lat="43.49052" lon="6.58186">
        <ele>77.3</ele>
        <time>2026-03-27T15:16:25Z</time>
      </trkpt>
      <trkpt lat="43.49051" lon="6.58184">
        <ele>77.3</ele>
        <time>2026-03-27T15:16:26Z</time>
      </trkpt>
      <trkpt lat="43.49051" lon="6.58183">
        <ele>77.3</ele>
        <time>2026-03-27T15:16:27Z</time>
      </trkpt>
      <trkpt lat="43.4905" lon="6.58181">
        <ele>77.3</ele>
        <time>2026-03-27T15:16:28Z</time>
      </trkpt>
      <trkpt lat="43.49049" lon="6.58179">
        <ele>77.2</ele>
        <time>2026-03-27T15:16:29Z</time>
      </trkpt>
      <trkpt lat="43.49049" lon="6.58178">
        <ele>77.1</ele>
        <time>2026-03-27T15:16:30Z</time>
      </trkpt>
      <trkpt lat="43.49048" lon="6.58177">
        <ele>77</ele>
        <time>2026-03-27T15:16:31Z</time>
      </trkpt>
      <trkpt lat="43.49047" lon="6.58175">
        <ele>76.9</ele>
        <time>2026-03-27T15:16:32Z</time>
      </trkpt>
      <trkpt lat="43.49047" lon="6.58174">
        <ele>76.9</ele>
        <time>2026-03-27T15:16:33Z</time>
      </trkpt>
      <trkpt lat="43.49046" lon="6.58173">
        <ele>76.9</ele>
        <time>2026-03-27T15:16:34Z</time>
      </trkpt>
      <trkpt lat="43.49045" lon="6.58171">
        <ele>76.9</ele>
        <time>2026-03-27T15:16:35Z</time>
      </trkpt>
      <trkpt lat="43.49045" lon="6.5817">
        <ele>76.8</ele>
        <time>2026-03-27T15:16:36Z</time>
      </trkpt>
      <trkpt lat="43.49044" lon="6.58168">
        <ele>76.7</ele>
        <time>2026-03-27T15:16:37Z</time>
      </trkpt>
      <trkpt lat="43.49044" lon="6.58167">
        <ele>76.6</ele>
        <time>2026-03-27T15:16:38Z</time>
      </trkpt>
      <trkpt lat="43.49043" lon="6.58165">
        <ele>76.5</ele>
        <time>2026-03-27T15:16:39Z</time>
      </trkpt>
      <trkpt lat="43.49043" lon="6.58164">
        <ele>76.5</ele>
        <time>2026-03-27T15:16:40Z</time>
      </trkpt>
      <trkpt lat="43.49042" lon="6.58162">
        <ele>76.5</ele>
        <time>2026-03-27T15:16:41Z</time>
      </trkpt>
      <trkpt lat="43.49042" lon="6.58161">
        <ele>76.5</ele>
        <time>2026-03-27T15:16:42Z</time>
      </trkpt>
      <trkpt lat="43.49041" lon="6.58159">
        <ele>76.4</ele>
        <time>2026-03-27T15:16:43Z</time>
      </trkpt>
      <trkpt lat="43.49041" lon="6.58157">
        <ele>76.4</ele>
        <time>2026-03-27T15:16:44Z</time>
      </trkpt>
      <trkpt lat="43.4904" lon="6.58156">
        <ele>76.3</ele>
        <time>2026-03-27T15:16:45Z</time>
      </trkpt>
      <trkpt lat="43.49039" lon="6.58155">
        <ele>76.3</ele>
        <time>2026-03-27T15:16:46Z</time>
      </trkpt>
      <trkpt lat="43.49039" lon="6.58153">
        <ele>76.3</ele>
        <time>2026-03-27T15:16:47Z</time>
      </trkpt>
      <trkpt lat="43.49038" lon="6.58152">
        <ele>76.3</ele>
        <time>2026-03-27T15:16:48Z</time>
      </trkpt>
      <trkpt lat="43.49038" lon="6.58151">
        <ele>76.3</ele>
        <time>2026-03-27T15:16:49Z</time>
      </trkpt>
      <trkpt lat="43.49039" lon="6.58149">
        <ele>76.2</ele>
        <time>2026-03-27T15:16:50Z</time>
      </trkpt>
      <trkpt lat="43.49039" lon="6.58147">
        <ele>76.2</ele>
        <time>2026-03-27T15:16:51Z</time>
      </trkpt>
      <trkpt lat="43.49039" lon="6.58146">
        <ele>76.1</ele>
        <time>2026-03-27T15:16:52Z</time>
      </trkpt>
      <trkpt lat="43.49038" lon="6.58144">
        <ele>76.1</ele>
        <time>2026-03-27T15:16:53Z</time>
      </trkpt>
      <trkpt lat="43.49038" lon="6.58143">
        <ele>76.1</ele>
        <time>2026-03-27T15:16:54Z</time>
      </trkpt>
      <trkpt lat="43.49038" lon="6.58141">
        <ele>76.1</ele>
        <time>2026-03-27T15:16:55Z</time>
      </trkpt>
      <trkpt lat="43.49037" lon="6.5814">
        <ele>76.1</ele>
        <time>2026-03-27T15:16:56Z</time>
      </trkpt>
      <trkpt lat="43.49037" lon="6.58138">
        <ele>76.1</ele>
        <time>2026-03-27T15:16:57Z</time>
      </trkpt>
      <trkpt lat="43.49037" lon="6.58136">
        <ele>76</ele>
        <time>2026-03-27T15:16:58Z</time>
      </trkpt>
      <trkpt lat="43.49036" lon="6.58134">
        <ele>75.9</ele>
        <time>2026-03-27T15:16:59Z</time>
      </trkpt>
      <trkpt lat="43.49036" lon="6.58133">
        <ele>75.9</ele>
        <time>2026-03-27T15:17:00Z</time>
      </trkpt>
      <trkpt lat="43.49036" lon="6.58131">
        <ele>75.8</ele>
        <time>2026-03-27T15:17:01Z</time>
      </trkpt>
      <trkpt lat="43.49036" lon="6.5813">
        <ele>75.8</ele>
        <time>2026-03-27T15:17:02Z</time>
      </trkpt>
      <trkpt lat="43.49035" lon="6.58128">
        <ele>75.8</ele>
        <time>2026-03-27T15:17:03Z</time>
      </trkpt>
      <trkpt lat="43.49035" lon="6.58127">
        <ele>75.7</ele>
        <time>2026-03-27T15:17:04Z</time>
      </trkpt>
      <trkpt lat="43.49035" lon="6.58125">
        <ele>75.7</ele>
        <time>2026-03-27T15:17:05Z</time>
      </trkpt>
      <trkpt lat="43.49034" lon="6.58124">
        <ele>75.6</ele>
        <time>2026-03-27T15:17:06Z</time>
      </trkpt>
      <trkpt lat="43.49034" lon="6.58123">
        <ele>75.4</ele>
        <time>2026-03-27T15:17:07Z</time>
      </trkpt>
      <trkpt lat="43.49034" lon="6.58121">
        <ele>75.4</ele>
        <time>2026-03-27T15:17:08Z</time>
      </trkpt>
      <trkpt lat="43.49034" lon="6.5812">
        <ele>75.3</ele>
        <time>2026-03-27T15:17:09Z</time>
      </trkpt>
      <trkpt lat="43.49034" lon="6.58118">
        <ele>75.3</ele>
        <time>2026-03-27T15:17:10Z</time>
      </trkpt>
      <trkpt lat="43.49033" lon="6.58117">
        <ele>75.2</ele>
        <time>2026-03-27T15:17:11Z</time>
      </trkpt>
      <trkpt lat="43.49033" lon="6.58115">
        <ele>75.2</ele>
        <time>2026-03-27T15:17:12Z</time>
      </trkpt>
      <trkpt lat="43.49034" lon="6.58114">
        <ele>75.1</ele>
        <time>2026-03-27T15:17:13Z</time>
      </trkpt>
      <trkpt lat="43.49034" lon="6.58112">
        <ele>75.1</ele>
        <time>2026-03-27T15:17:14Z</time>
      </trkpt>
      <trkpt lat="43.49034" lon="6.58111">
        <ele>75.1</ele>
        <time>2026-03-27T15:17:15Z</time>
      </trkpt>
      <trkpt lat="43.49034" lon="6.58109">
        <ele>75</ele>
        <time>2026-03-27T15:17:16Z</time>
      </trkpt>
      <trkpt lat="43.49034" lon="6.58108">
        <ele>75</ele>
        <time>2026-03-27T15:17:17Z</time>
      </trkpt>
      <trkpt lat="43.49034" lon="6.58106">
        <ele>75.1</ele>
        <time>2026-03-27T15:17:18Z</time>
      </trkpt>
      <trkpt lat="43.49034" lon="6.58104">
        <ele>75.1</ele>
        <time>2026-03-27T15:17:19Z</time>
      </trkpt>
      <trkpt lat="43.49034" lon="6.58103">
        <ele>75.1</ele>
        <time>2026-03-27T15:17:20Z</time>
      </trkpt>
      <trkpt lat="43.49034" lon="6.58101">
        <ele>75</ele>
        <time>2026-03-27T15:17:21Z</time>
      </trkpt>
      <trkpt lat="43.49035" lon="6.581">
        <ele>75</ele>
        <time>2026-03-27T15:17:22Z</time>
      </trkpt>
      <trkpt lat="43.49035" lon="6.58098">
        <ele>75</ele>
        <time>2026-03-27T15:17:23Z</time>
      </trkpt>
      <trkpt lat="43.49035" lon="6.58097">
        <ele>75</ele>
        <time>2026-03-27T15:17:24Z</time>
      </trkpt>
      <trkpt lat="43.49036" lon="6.58096">
        <ele>74.9</ele>
        <time>2026-03-27T15:17:25Z</time>
      </trkpt>
      <trkpt lat="43.49037" lon="6.58094">
        <ele>74.8</ele>
        <time>2026-03-27T15:17:26Z</time>
      </trkpt>
      <trkpt lat="43.49037" lon="6.58093">
        <ele>74.7</ele>
        <time>2026-03-27T15:17:27Z</time>
      </trkpt>
      <trkpt lat="43.49037" lon="6.58091">
        <ele>74.8</ele>
        <time>2026-03-27T15:17:28Z</time>
      </trkpt>
      <trkpt lat="43.49037" lon="6.5809">
        <ele>74.7</ele>
        <time>2026-03-27T15:17:29Z</time>
      </trkpt>
      <trkpt lat="43.49037" lon="6.58089">
        <ele>74.7</ele>
        <time>2026-03-27T15:17:30Z</time>
      </trkpt>
      <trkpt lat="43.49037" lon="6.58088">
        <ele>74.7</ele>
        <time>2026-03-27T15:17:31Z</time>
      </trkpt>
      <trkpt lat="43.49037" lon="6.58087">
        <ele>74.7</ele>
        <time>2026-03-27T15:17:32Z</time>
      </trkpt>
      <trkpt lat="43.49037" lon="6.58085">
        <ele>74.7</ele>
        <time>2026-03-27T15:17:33Z</time>
      </trkpt>
      <trkpt lat="43.49038" lon="6.58084">
        <ele>74.7</ele>
        <time>2026-03-27T15:17:34Z</time>
      </trkpt>
      <trkpt lat="43.49038" lon="6.58082">
        <ele>74.6</ele>
        <time>2026-03-27T15:17:35Z</time>
      </trkpt>
      <trkpt lat="43.49038" lon="6.58081">
        <ele>74.5</ele>
        <time>2026-03-27T15:17:36Z</time>
      </trkpt>
      <trkpt lat="43.49038" lon="6.58079">
        <ele>74.5</ele>
        <time>2026-03-27T15:17:37Z</time>
      </trkpt>
      <trkpt lat="43.49039" lon="6.58077">
        <ele>74.5</ele>
        <time>2026-03-27T15:17:38Z</time>
      </trkpt>
      <trkpt lat="43.49039" lon="6.58075">
        <ele>74.4</ele>
        <time>2026-03-27T15:17:39Z</time>
      </trkpt>
      <trkpt lat="43.4904" lon="6.58074">
        <ele>74.4</ele>
        <time>2026-03-27T15:17:40Z</time>
      </trkpt>
      <trkpt lat="43.49041" lon="6.58073">
        <ele>74.5</ele>
        <time>2026-03-27T15:17:41Z</time>
      </trkpt>
      <trkpt lat="43.49041" lon="6.58072">
        <ele>74.5</ele>
        <time>2026-03-27T15:17:42Z</time>
      </trkpt>
      <trkpt lat="43.49042" lon="6.58072">
        <ele>74.5</ele>
        <time>2026-03-27T15:17:43Z</time>
      </trkpt>
      <trkpt lat="43.49043" lon="6.58071">
        <ele>74.5</ele>
        <time>2026-03-27T15:17:44Z</time>
      </trkpt>
      <trkpt lat="43.49044" lon="6.58071">
        <ele>74.5</ele>
        <time>2026-03-27T15:17:45Z</time>
      </trkpt>
      <trkpt lat="43.49045" lon="6.58071">
        <ele>74.5</ele>
        <time>2026-03-27T15:17:46Z</time>
      </trkpt>
      <trkpt lat="43.49046" lon="6.58072">
        <ele>74.4</ele>
        <time>2026-03-27T15:17:47Z</time>
      </trkpt>
      <trkpt lat="43.49046" lon="6.58072">
        <ele>74.4</ele>
        <time>2026-03-27T15:17:48Z</time>
      </trkpt>
      <trkpt lat="43.49047" lon="6.58072">
        <ele>74.4</ele>
        <time>2026-03-27T15:17:49Z</time>
      </trkpt>
      <trkpt lat="43.49048" lon="6.58071">
        <ele>74.4</ele>
        <time>2026-03-27T15:17:50Z</time>
      </trkpt>
      <trkpt lat="43.49049" lon="6.5807">
        <ele>74.5</ele>
        <time>2026-03-27T15:17:51Z</time>
      </trkpt>
      <trkpt lat="43.4905" lon="6.5807">
        <ele>74.5</ele>
        <time>2026-03-27T15:17:52Z</time>
      </trkpt>
      <trkpt lat="43.4905" lon="6.5807">
        <ele>74.5</ele>
        <time>2026-03-27T15:17:53Z</time>
      </trkpt>
      <trkpt lat="43.49051" lon="6.58069">
        <ele>74.6</ele>
        <time>2026-03-27T15:17:54Z</time>
      </trkpt>
      <trkpt lat="43.49052" lon="6.58069">
        <ele>74.7</ele>
        <time>2026-03-27T15:17:55Z</time>
      </trkpt>
      <trkpt lat="43.49052" lon="6.58068">
        <ele>74.7</ele>
        <time>2026-03-27T15:17:56Z</time>
      </trkpt>
      <trkpt lat="43.49053" lon="6.58066">
        <ele>74.7</ele>
        <time>2026-03-27T15:17:57Z</time>
      </trkpt>
      <trkpt lat="43.49053" lon="6.58065">
        <ele>74.8</ele>
        <time>2026-03-27T15:17:58Z</time>
      </trkpt>
      <trkpt lat="43.49054" lon="6.58064">
        <ele>74.8</ele>
        <time>2026-03-27T15:17:59Z</time>
      </trkpt>
      <trkpt lat="43.49055" lon="6.58063">
        <ele>74.9</ele>
        <time>2026-03-27T15:18:00Z</time>
      </trkpt>
      <trkpt lat="43.49056" lon="6.58062">
        <ele>74.9</ele>
        <time>2026-03-27T15:18:01Z</time>
      </trkpt>
      <trkpt lat="43.49057" lon="6.58061">
        <ele>74.9</ele>
        <time>2026-03-27T15:18:02Z</time>
      </trkpt>
      <trkpt lat="43.49058" lon="6.5806">
        <ele>74.9</ele>
        <time>2026-03-27T15:18:03Z</time>
      </trkpt>
      <trkpt lat="43.49059" lon="6.58059">
        <ele>74.9</ele>
        <time>2026-03-27T15:18:04Z</time>
      </trkpt>
      <trkpt lat="43.4906" lon="6.58058">
        <ele>74.9</ele>
        <time>2026-03-27T15:18:05Z</time>
      </trkpt>
      <trkpt lat="43.4906" lon="6.58057">
        <ele>74.9</ele>
        <time>2026-03-27T15:18:06Z</time>
      </trkpt>
      <trkpt lat="43.49061" lon="6.58056">
        <ele>74.9</ele>
        <time>2026-03-27T15:18:07Z</time>
      </trkpt>
      <trkpt lat="43.49062" lon="6.58055">
        <ele>74.9</ele>
        <time>2026-03-27T15:18:08Z</time>
      </trkpt>
      <trkpt lat="43.49063" lon="6.58054">
        <ele>74.9</ele>
        <time>2026-03-27T15:18:09Z</time>
      </trkpt>
      <trkpt lat="43.49063" lon="6.58053">
        <ele>74.9</ele>
        <time>2026-03-27T15:18:10Z</time>
      </trkpt>
      <trkpt lat="43.49064" lon="6.58052">
        <ele>75</ele>
        <time>2026-03-27T15:18:11Z</time>
      </trkpt>
      <trkpt lat="43.49065" lon="6.58051">
        <ele>74.9</ele>
        <time>2026-03-27T15:18:12Z</time>
      </trkpt>
      <trkpt lat="43.49066" lon="6.5805">
        <ele>75</ele>
        <time>2026-03-27T15:18:13Z</time>
      </trkpt>
      <trkpt lat="43.49067" lon="6.58049">
        <ele>75</ele>
        <time>2026-03-27T15:18:14Z</time>
      </trkpt>
      <trkpt lat="43.49067" lon="6.58048">
        <ele>74.9</ele>
        <time>2026-03-27T15:18:15Z</time>
      </trkpt>
      <trkpt lat="43.49068" lon="6.58047">
        <ele>74.8</ele>
        <time>2026-03-27T15:18:16Z</time>
      </trkpt>
      <trkpt lat="43.49069" lon="6.58046">
        <ele>74.7</ele>
        <time>2026-03-27T15:18:17Z</time>
      </trkpt>
      <trkpt lat="43.4907" lon="6.58045">
        <ele>74.6</ele>
        <time>2026-03-27T15:18:18Z</time>
      </trkpt>
      <trkpt lat="43.49071" lon="6.58045">
        <ele>74.5</ele>
        <time>2026-03-27T15:18:19Z</time>
      </trkpt>
      <trkpt lat="43.49072" lon="6.58045">
        <ele>74.5</ele>
        <time>2026-03-27T15:18:20Z</time>
      </trkpt>
      <trkpt lat="43.49074" lon="6.58044">
        <ele>74.5</ele>
        <time>2026-03-27T15:18:21Z</time>
      </trkpt>
      <trkpt lat="43.49075" lon="6.58044">
        <ele>74.5</ele>
        <time>2026-03-27T15:18:22Z</time>
      </trkpt>
      <trkpt lat="43.49076" lon="6.58043">
        <ele>74.6</ele>
        <time>2026-03-27T15:18:23Z</time>
      </trkpt>
      <trkpt lat="43.49077" lon="6.58042">
        <ele>74.6</ele>
        <time>2026-03-27T15:18:24Z</time>
      </trkpt>
      <trkpt lat="43.49078" lon="6.58041">
        <ele>74.6</ele>
        <time>2026-03-27T15:18:25Z</time>
      </trkpt>
      <trkpt lat="43.49078" lon="6.5804">
        <ele>74.6</ele>
        <time>2026-03-27T15:18:26Z</time>
      </trkpt>
      <trkpt lat="43.49079" lon="6.58039">
        <ele>74.6</ele>
        <time>2026-03-27T15:18:27Z</time>
      </trkpt>
      <trkpt lat="43.4908" lon="6.58038">
        <ele>74.6</ele>
        <time>2026-03-27T15:18:28Z</time>
      </trkpt>
      <trkpt lat="43.49082" lon="6.58037">
        <ele>74.5</ele>
        <time>2026-03-27T15:18:29Z</time>
      </trkpt>
      <trkpt lat="43.49083" lon="6.58037">
        <ele>74.5</ele>
        <time>2026-03-27T15:18:30Z</time>
      </trkpt>
      <trkpt lat="43.49084" lon="6.58036">
        <ele>74.4</ele>
        <time>2026-03-27T15:18:31Z</time>
      </trkpt>
      <trkpt lat="43.49084" lon="6.58035">
        <ele>74.4</ele>
        <time>2026-03-27T15:18:32Z</time>
      </trkpt>
      <trkpt lat="43.49084" lon="6.58035">
        <ele>74.4</ele>
        <time>2026-03-27T15:18:33Z</time>
      </trkpt>
      <trkpt lat="43.49084" lon="6.58035">
        <ele>74.3</ele>
        <time>2026-03-27T15:18:34Z</time>
      </trkpt>
      <trkpt lat="43.49084" lon="6.58034">
        <ele>74.3</ele>
        <time>2026-03-27T15:18:35Z</time>
      </trkpt>
      <trkpt lat="43.49084" lon="6.58034">
        <ele>74.3</ele>
        <time>2026-03-27T15:18:36Z</time>
      </trkpt>
      <trkpt lat="43.49084" lon="6.58034">
        <ele>74.3</ele>
        <time>2026-03-27T15:18:37Z</time>
      </trkpt>
      <trkpt lat="43.49084" lon="6.58034">
        <ele>74.3</ele>
        <time>2026-03-27T15:18:38Z</time>
      </trkpt>
      <trkpt lat="43.49084" lon="6.58034">
        <ele>74.4</ele>
        <time>2026-03-27T15:18:39Z</time>
      </trkpt>
      <trkpt lat="43.49085" lon="6.58033">
        <ele>74.3</ele>
        <time>2026-03-27T15:18:40Z</time>
      </trkpt>
      <trkpt lat="43.49086" lon="6.58032">
        <ele>74.3</ele>
        <time>2026-03-27T15:18:41Z</time>
      </trkpt>
      <trkpt lat="43.49086" lon="6.58031">
        <ele>74.2</ele>
        <time>2026-03-27T15:18:42Z</time>
      </trkpt>
      <trkpt lat="43.49087" lon="6.5803">
        <ele>74.2</ele>
        <time>2026-03-27T15:18:43Z</time>
      </trkpt>
      <trkpt lat="43.49088" lon="6.5803">
        <ele>74.1</ele>
        <time>2026-03-27T15:18:44Z</time>
      </trkpt>
      <trkpt lat="43.49089" lon="6.58029">
        <ele>74</ele>
        <time>2026-03-27T15:18:45Z</time>
      </trkpt>
      <trkpt lat="43.4909" lon="6.58027">
        <ele>74</ele>
        <time>2026-03-27T15:18:46Z</time>
      </trkpt>
      <trkpt lat="43.4909" lon="6.58026">
        <ele>73.7</ele>
        <time>2026-03-27T15:18:47Z</time>
      </trkpt>
      <trkpt lat="43.49091" lon="6.58025">
        <ele>73.5</ele>
        <time>2026-03-27T15:18:48Z</time>
      </trkpt>
      <trkpt lat="43.49091" lon="6.58023">
        <ele>73.4</ele>
        <time>2026-03-27T15:18:49Z</time>
      </trkpt>
      <trkpt lat="43.49092" lon="6.58022">
        <ele>73.1</ele>
        <time>2026-03-27T15:18:50Z</time>
      </trkpt>
      <trkpt lat="43.49093" lon="6.58021">
        <ele>73</ele>
        <time>2026-03-27T15:18:51Z</time>
      </trkpt>
      <trkpt lat="43.49094" lon="6.58019">
        <ele>72.8</ele>
        <time>2026-03-27T15:18:52Z</time>
      </trkpt>
      <trkpt lat="43.49094" lon="6.58018">
        <ele>72.5</ele>
        <time>2026-03-27T15:18:53Z</time>
      </trkpt>
      <trkpt lat="43.49095" lon="6.58017">
        <ele>72.3</ele>
        <time>2026-03-27T15:18:54Z</time>
      </trkpt>
      <trkpt lat="43.49095" lon="6.58016">
        <ele>72</ele>
        <time>2026-03-27T15:18:55Z</time>
      </trkpt>
      <trkpt lat="43.49096" lon="6.58015">
        <ele>71.7</ele>
        <time>2026-03-27T15:18:56Z</time>
      </trkpt>
      <trkpt lat="43.49096" lon="6.58013">
        <ele>71.5</ele>
        <time>2026-03-27T15:18:57Z</time>
      </trkpt>
      <trkpt lat="43.49097" lon="6.58012">
        <ele>71.4</ele>
        <time>2026-03-27T15:18:58Z</time>
      </trkpt>
      <trkpt lat="43.49097" lon="6.58011">
        <ele>71.2</ele>
        <time>2026-03-27T15:18:59Z</time>
      </trkpt>
      <trkpt lat="43.49098" lon="6.5801">
        <ele>71</ele>
        <time>2026-03-27T15:19:00Z</time>
      </trkpt>
      <trkpt lat="43.49098" lon="6.58009">
        <ele>70.9</ele>
        <time>2026-03-27T15:19:01Z</time>
      </trkpt>
      <trkpt lat="43.49099" lon="6.58008">
        <ele>70.7</ele>
        <time>2026-03-27T15:19:02Z</time>
      </trkpt>
      <trkpt lat="43.491" lon="6.58008">
        <ele>70.6</ele>
        <time>2026-03-27T15:19:03Z</time>
      </trkpt>
      <trkpt lat="43.491" lon="6.58007">
        <ele>70.6</ele>
        <time>2026-03-27T15:19:04Z</time>
      </trkpt>
      <trkpt lat="43.49101" lon="6.58006">
        <ele>70.5</ele>
        <time>2026-03-27T15:19:05Z</time>
      </trkpt>
      <trkpt lat="43.49101" lon="6.58006">
        <ele>70.5</ele>
        <time>2026-03-27T15:19:06Z</time>
      </trkpt>
      <trkpt lat="43.49102" lon="6.58005">
        <ele>70.6</ele>
        <time>2026-03-27T15:19:07Z</time>
      </trkpt>
      <trkpt lat="43.49102" lon="6.58004">
        <ele>70.6</ele>
        <time>2026-03-27T15:19:08Z</time>
      </trkpt>
      <trkpt lat="43.49102" lon="6.58003">
        <ele>70.6</ele>
        <time>2026-03-27T15:19:09Z</time>
      </trkpt>
      <trkpt lat="43.49103" lon="6.58002">
        <ele>70.5</ele>
        <time>2026-03-27T15:19:10Z</time>
      </trkpt>
      <trkpt lat="43.49103" lon="6.58002">
        <ele>70.3</ele>
        <time>2026-03-27T15:19:11Z</time>
      </trkpt>
      <trkpt lat="43.49103" lon="6.58002">
        <ele>70.1</ele>
        <time>2026-03-27T15:19:12Z</time>
      </trkpt>
      <trkpt lat="43.49103" lon="6.58002">
        <ele>70</ele>
        <time>2026-03-27T15:19:13Z</time>
      </trkpt>
      <trkpt lat="43.49104" lon="6.58002">
        <ele>70</ele>
        <time>2026-03-27T15:19:14Z</time>
      </trkpt>
      <trkpt lat="43.49104" lon="6.58002">
        <ele>70.1</ele>
        <time>2026-03-27T15:19:15Z</time>
      </trkpt>
      <trkpt lat="43.49104" lon="6.58001">
        <ele>70.3</ele>
        <time>2026-03-27T15:19:16Z</time>
      </trkpt>
      <trkpt lat="43.49104" lon="6.58001">
        <ele>70.4</ele>
        <time>2026-03-27T15:19:17Z</time>
      </trkpt>
      <trkpt lat="43.49104" lon="6.58001">
        <ele>70.4</ele>
        <time>2026-03-27T15:19:18Z</time>
      </trkpt>
      <trkpt lat="43.49104" lon="6.58001">
        <ele>70.5</ele>
        <time>2026-03-27T15:19:19Z</time>
      </trkpt>
      <trkpt lat="43.49104" lon="6.58001">
        <ele>70.5</ele>
        <time>2026-03-27T15:19:20Z</time>
      </trkpt>
      <trkpt lat="43.49104" lon="6.58001">
        <ele>70.4</ele>
        <time>2026-03-27T15:19:21Z</time>
      </trkpt>
      <trkpt lat="43.49104" lon="6.58001">
        <ele>70.4</ele>
        <time>2026-03-27T15:19:22Z</time>
      </trkpt>
      <trkpt lat="43.49104" lon="6.58001">
        <ele>70.3</ele>
        <time>2026-03-27T15:19:23Z</time>
      </trkpt>
      <trkpt lat="43.49105" lon="6.58001">
        <ele>70.4</ele>
        <time>2026-03-27T15:19:24Z</time>
      </trkpt>
      <trkpt lat="43.49105" lon="6.58001">
        <ele>70.4</ele>
        <time>2026-03-27T15:19:25Z</time>
      </trkpt>
      <trkpt lat="43.49105" lon="6.58001">
        <ele>70.5</ele>
        <time>2026-03-27T15:19:26Z</time>
      </trkpt>
      <trkpt lat="43.49105" lon="6.58001">
        <ele>70.6</ele>
        <time>2026-03-27T15:19:27Z</time>
      </trkpt>
      <trkpt lat="43.49105" lon="6.58001">
        <ele>70.6</ele>
        <time>2026-03-27T15:19:28Z</time>
      </trkpt>
      <trkpt lat="43.49105" lon="6.58001">
        <ele>70.6</ele>
        <time>2026-03-27T15:19:29Z</time>
      </trkpt>
      <trkpt lat="43.49105" lon="6.58001">
        <ele>70.5</ele>
        <time>2026-03-27T15:19:30Z</time>
      </trkpt>
      <trkpt lat="43.49105" lon="6.58001">
        <ele>70.5</ele>
        <time>2026-03-27T15:19:31Z</time>
      </trkpt>
      <trkpt lat="43.49105" lon="6.58001">
        <ele>70.4</ele>
        <time>2026-03-27T15:19:32Z</time>
      </trkpt>
      <trkpt lat="43.49105" lon="6.58001">
        <ele>70.5</ele>
        <time>2026-03-27T15:19:33Z</time>
      </trkpt>
      <trkpt lat="43.49105" lon="6.58001">
        <ele>70.5</ele>
        <time>2026-03-27T15:19:34Z</time>
      </trkpt>
      <trkpt lat="43.49105" lon="6.58001">
        <ele>70.5</ele>
        <time>2026-03-27T15:19:35Z</time>
      </trkpt>
      <trkpt lat="43.49105" lon="6.58001">
        <ele>70.6</ele>
        <time>2026-03-27T15:19:36Z</time>
      </trkpt>
      <trkpt lat="43.49105" lon="6.58001">
        <ele>70.5</ele>
        <time>2026-03-27T15:19:37Z</time>
      </trkpt>
      <trkpt lat="43.49105" lon="6.58001">
        <ele>70.3</ele>
        <time>2026-03-27T15:19:38Z</time>
      </trkpt>
      <trkpt lat="43.49105" lon="6.58001">
        <ele>70.3</ele>
        <time>2026-03-27T15:19:39Z</time>
      </trkpt>
      <trkpt lat="43.49105" lon="6.58001">
        <ele>70.3</ele>
        <time>2026-03-27T15:19:40Z</time>
      </trkpt>
      <trkpt lat="43.49105" lon="6.58001">
        <ele>70.2</ele>
        <time>2026-03-27T15:19:41Z</time>
      </trkpt>
      <trkpt lat="43.49105" lon="6.58002">
        <ele>70.1</ele>
        <time>2026-03-27T15:19:42Z</time>
      </trkpt>
      <trkpt lat="43.49105" lon="6.58002">
        <ele>70.1</ele>
        <time>2026-03-27T15:19:43Z</time>
      </trkpt>
      <trkpt lat="43.49105" lon="6.58002">
        <ele>70.1</ele>
        <time>2026-03-27T15:19:44Z</time>
      </trkpt>
      <trkpt lat="43.49105" lon="6.58002">
        <ele>70.1</ele>
        <time>2026-03-27T15:19:45Z</time>
      </trkpt>
      <trkpt lat="43.49105" lon="6.58002">
        <ele>70.1</ele>
        <time>2026-03-27T15:19:46Z</time>
      </trkpt>
      <trkpt lat="43.49105" lon="6.58002">
        <ele>70</ele>
        <time>2026-03-27T15:19:47Z</time>
      </trkpt>
      <trkpt lat="43.49105" lon="6.58002">
        <ele>70</ele>
        <time>2026-03-27T15:19:48Z</time>
      </trkpt>
      <trkpt lat="43.49105" lon="6.58002">
        <ele>70</ele>
        <time>2026-03-27T15:19:49Z</time>
      </trkpt>
      <trkpt lat="43.49105" lon="6.58001">
        <ele>70</ele>
        <time>2026-03-27T15:19:50Z</time>
      </trkpt>
      <trkpt lat="43.49105" lon="6.58001">
        <ele>69.9</ele>
        <time>2026-03-27T15:19:51Z</time>
      </trkpt>
      <trkpt lat="43.49105" lon="6.58002">
        <ele>69.9</ele>
        <time>2026-03-27T15:19:52Z</time>
      </trkpt>
      <trkpt lat="43.49105" lon="6.58002">
        <ele>69.9</ele>
        <time>2026-03-27T15:19:53Z</time>
      </trkpt>
      <trkpt lat="43.49105" lon="6.58002">
        <ele>69.9</ele>
        <time>2026-03-27T15:19:54Z</time>
      </trkpt>
      <trkpt lat="43.49105" lon="6.58002">
        <ele>70</ele>
        <time>2026-03-27T15:19:55Z</time>
      </trkpt>
      <trkpt lat="43.49105" lon="6.58002">
        <ele>70.1</ele>
        <time>2026-03-27T15:19:56Z</time>
      </trkpt>
      <trkpt lat="43.49105" lon="6.58002">
        <ele>70.2</ele>
        <time>2026-03-27T15:19:57Z</time>
      </trkpt>
      <trkpt lat="43.49105" lon="6.58002">
        <ele>70.3</ele>
        <time>2026-03-27T15:19:58Z</time>
      </trkpt>
      <trkpt lat="43.49105" lon="6.58002">
        <ele>70.4</ele>
        <time>2026-03-27T15:19:59Z</time>
      </trkpt>
      <trkpt lat="43.49105" lon="6.58002">
        <ele>70.4</ele>
        <time>2026-03-27T15:20:00Z</time>
      </trkpt>
      <trkpt lat="43.49104" lon="6.58002">
        <ele>70.4</ele>
        <time>2026-03-27T15:20:01Z</time>
      </trkpt>
      <trkpt lat="43.49104" lon="6.58002">
        <ele>70.4</ele>
        <time>2026-03-27T15:20:02Z</time>
      </trkpt>
      <trkpt lat="43.49104" lon="6.58002">
        <ele>70.4</ele>
        <time>2026-03-27T15:20:03Z</time>
      </trkpt>
      <trkpt lat="43.49104" lon="6.58002">
        <ele>70.4</ele>
        <time>2026-03-27T15:20:04Z</time>
      </trkpt>
      <trkpt lat="43.49104" lon="6.58002">
        <ele>70.4</ele>
        <time>2026-03-27T15:20:05Z</time>
      </trkpt>
      <trkpt lat="43.49104" lon="6.58002">
        <ele>70.4</ele>
        <time>2026-03-27T15:20:06Z</time>
      </trkpt>
      <trkpt lat="43.49105" lon="6.58002">
        <ele>70.3</ele>
        <time>2026-03-27T15:20:07Z</time>
      </trkpt>
      <trkpt lat="43.49105" lon="6.58002">
        <ele>70.3</ele>
        <time>2026-03-27T15:20:08Z</time>
      </trkpt>
      <trkpt lat="43.49104" lon="6.58002">
        <ele>70.2</ele>
        <time>2026-03-27T15:20:09Z</time>
      </trkpt>
      <trkpt lat="43.49104" lon="6.58002">
        <ele>70.2</ele>
        <time>2026-03-27T15:20:10Z</time>
      </trkpt>
      <trkpt lat="43.49104" lon="6.58002">
        <ele>70.1</ele>
        <time>2026-03-27T15:20:11Z</time>
      </trkpt>
      <trkpt lat="43.49104" lon="6.58002">
        <ele>70.1</ele>
        <time>2026-03-27T15:20:12Z</time>
      </trkpt>
      <trkpt lat="43.49104" lon="6.58001">
        <ele>70.1</ele>
        <time>2026-03-27T15:20:13Z</time>
      </trkpt>
      <trkpt lat="43.49104" lon="6.58001">
        <ele>70.1</ele>
        <time>2026-03-27T15:20:14Z</time>
      </trkpt>
      <trkpt lat="43.49104" lon="6.58001">
        <ele>70.1</ele>
        <time>2026-03-27T15:20:15Z</time>
      </trkpt>
      <trkpt lat="43.49104" lon="6.58001">
        <ele>70</ele>
        <time>2026-03-27T15:20:16Z</time>
      </trkpt>
      <trkpt lat="43.49104" lon="6.58001">
        <ele>70</ele>
        <time>2026-03-27T15:20:17Z</time>
      </trkpt>
      <trkpt lat="43.49104" lon="6.58001">
        <ele>70</ele>
        <time>2026-03-27T15:20:18Z</time>
      </trkpt>
      <trkpt lat="43.49104" lon="6.58001">
        <ele>69.9</ele>
        <time>2026-03-27T15:20:19Z</time>
      </trkpt>
      <trkpt lat="43.49104" lon="6.58">
        <ele>69.9</ele>
        <time>2026-03-27T15:20:20Z</time>
      </trkpt>
      <trkpt lat="43.49105" lon="6.58">
        <ele>69.8</ele>
        <time>2026-03-27T15:20:21Z</time>
      </trkpt>
      <trkpt lat="43.49105" lon="6.58">
        <ele>69.8</ele>
        <time>2026-03-27T15:20:22Z</time>
      </trkpt>
      <trkpt lat="43.49105" lon="6.58">
        <ele>69.8</ele>
        <time>2026-03-27T15:20:23Z</time>
      </trkpt>
      <trkpt lat="43.49105" lon="6.58">
        <ele>69.8</ele>
        <time>2026-03-27T15:20:24Z</time>
      </trkpt>
      <trkpt lat="43.49105" lon="6.58">
        <ele>69.8</ele>
        <time>2026-03-27T15:20:25Z</time>
      </trkpt>
      <trkpt lat="43.49105" lon="6.58">
        <ele>69.7</ele>
        <time>2026-03-27T15:20:26Z</time>
      </trkpt>
      <trkpt lat="43.49105" lon="6.58">
        <ele>69.7</ele>
        <time>2026-03-27T15:20:27Z</time>
      </trkpt>
      <trkpt lat="43.49105" lon="6.58">
        <ele>69.8</ele>
        <time>2026-03-27T15:20:28Z</time>
      </trkpt>
      <trkpt lat="43.49105" lon="6.57999">
        <ele>69.7</ele>
        <time>2026-03-27T15:20:29Z</time>
      </trkpt>
      <trkpt lat="43.49105" lon="6.57999">
        <ele>69.7</ele>
        <time>2026-03-27T15:20:30Z</time>
      </trkpt>
      <trkpt lat="43.49105" lon="6.57999">
        <ele>69.7</ele>
        <time>2026-03-27T15:20:31Z</time>
      </trkpt>
      <trkpt lat="43.49105" lon="6.57999">
        <ele>69.7</ele>
        <time>2026-03-27T15:20:32Z</time>
      </trkpt>
      <trkpt lat="43.49105" lon="6.57999">
        <ele>69.7</ele>
        <time>2026-03-27T15:20:33Z</time>
      </trkpt>
      <trkpt lat="43.49105" lon="6.57999">
        <ele>69.7</ele>
        <time>2026-03-27T15:20:34Z</time>
      </trkpt>
      <trkpt lat="43.49105" lon="6.57999">
        <ele>69.7</ele>
        <time>2026-03-27T15:20:35Z</time>
      </trkpt>
      <trkpt lat="43.49105" lon="6.57999">
        <ele>69.8</ele>
        <time>2026-03-27T15:20:36Z</time>
      </trkpt>
      <trkpt lat="43.49105" lon="6.57999">
        <ele>69.9</ele>
        <time>2026-03-27T15:20:37Z</time>
      </trkpt>
      <trkpt lat="43.49105" lon="6.57999">
        <ele>69.8</ele>
        <time>2026-03-27T15:20:38Z</time>
      </trkpt>
      <trkpt lat="43.49105" lon="6.57999">
        <ele>69.9</ele>
        <time>2026-03-27T15:20:39Z</time>
      </trkpt>
      <trkpt lat="43.49105" lon="6.57999">
        <ele>69.8</ele>
        <time>2026-03-27T15:20:40Z</time>
      </trkpt>
      <trkpt lat="43.49105" lon="6.57999">
        <ele>69.9</ele>
        <time>2026-03-27T15:20:41Z</time>
      </trkpt>
      <trkpt lat="43.49105" lon="6.57999">
        <ele>69.9</ele>
        <time>2026-03-27T15:20:42Z</time>
      </trkpt>
      <trkpt lat="43.49105" lon="6.57999">
        <ele>69.9</ele>
        <time>2026-03-27T15:20:43Z</time>
      </trkpt>
      <trkpt lat="43.49105" lon="6.58">
        <ele>69.9</ele>
        <time>2026-03-27T15:20:44Z</time>
      </trkpt>
      <trkpt lat="43.49105" lon="6.58">
        <ele>70</ele>
        <time>2026-03-27T15:20:45Z</time>
      </trkpt>
      <trkpt lat="43.49105" lon="6.58">
        <ele>70</ele>
        <time>2026-03-27T15:20:46Z</time>
      </trkpt>
      <trkpt lat="43.49105" lon="6.57999">
        <ele>70.1</ele>
        <time>2026-03-27T15:20:47Z</time>
      </trkpt>
      <trkpt lat="43.49104" lon="6.57999">
        <ele>70.1</ele>
        <time>2026-03-27T15:20:48Z</time>
      </trkpt>
      <trkpt lat="43.49104" lon="6.57999">
        <ele>70.1</ele>
        <time>2026-03-27T15:20:49Z</time>
      </trkpt>
      <trkpt lat="43.49105" lon="6.57999">
        <ele>70.1</ele>
        <time>2026-03-27T15:20:50Z</time>
      </trkpt>
      <trkpt lat="43.49105" lon="6.57999">
        <ele>70</ele>
        <time>2026-03-27T15:20:51Z</time>
      </trkpt>
      <trkpt lat="43.49105" lon="6.57999">
        <ele>70</ele>
        <time>2026-03-27T15:20:52Z</time>
      </trkpt>
      <trkpt lat="43.49105" lon="6.57999">
        <ele>70</ele>
        <time>2026-03-27T15:20:53Z</time>
      </trkpt>
      <trkpt lat="43.49105" lon="6.57999">
        <ele>70</ele>
        <time>2026-03-27T15:20:54Z</time>
      </trkpt>
      <trkpt lat="43.49105" lon="6.58">
        <ele>70</ele>
        <time>2026-03-27T15:20:55Z</time>
      </trkpt>
      <trkpt lat="43.49105" lon="6.58">
        <ele>70</ele>
        <time>2026-03-27T15:20:56Z</time>
      </trkpt>
      <trkpt lat="43.49105" lon="6.57999">
        <ele>70</ele>
        <time>2026-03-27T15:20:57Z</time>
      </trkpt>
      <trkpt lat="43.49105" lon="6.57999">
        <ele>70</ele>
        <time>2026-03-27T15:20:58Z</time>
      </trkpt>
      <trkpt lat="43.49105" lon="6.57999">
        <ele>70</ele>
        <time>2026-03-27T15:20:59Z</time>
      </trkpt>
      <trkpt lat="43.49104" lon="6.57999">
        <ele>69.9</ele>
        <time>2026-03-27T15:21:00Z</time>
      </trkpt>
      <trkpt lat="43.49105" lon="6.57999">
        <ele>69.9</ele>
        <time>2026-03-27T15:21:01Z</time>
      </trkpt>
      <trkpt lat="43.49105" lon="6.57999">
        <ele>69.9</ele>
        <time>2026-03-27T15:21:02Z</time>
      </trkpt>
      <trkpt lat="43.49105" lon="6.57999">
        <ele>69.9</ele>
        <time>2026-03-27T15:21:03Z</time>
      </trkpt>
      <trkpt lat="43.49105" lon="6.57999">
        <ele>69.9</ele>
        <time>2026-03-27T15:21:04Z</time>
      </trkpt>
      <trkpt lat="43.49105" lon="6.57998">
        <ele>69.8</ele>
        <time>2026-03-27T15:21:05Z</time>
      </trkpt>
      <trkpt lat="43.49105" lon="6.57998">
        <ele>69.9</ele>
        <time>2026-03-27T15:21:06Z</time>
      </trkpt>
      <trkpt lat="43.49105" lon="6.57998">
        <ele>69.9</ele>
        <time>2026-03-27T15:21:07Z</time>
      </trkpt>
      <trkpt lat="43.49105" lon="6.57998">
        <ele>70.1</ele>
        <time>2026-03-27T15:21:08Z</time>
      </trkpt>
      <trkpt lat="43.49105" lon="6.57998">
        <ele>70.2</ele>
        <time>2026-03-27T15:21:09Z</time>
      </trkpt>
      <trkpt lat="43.49105" lon="6.57998">
        <ele>70.2</ele>
        <time>2026-03-27T15:21:10Z</time>
      </trkpt>
      <trkpt lat="43.49105" lon="6.57998">
        <ele>70.2</ele>
        <time>2026-03-27T15:21:11Z</time>
      </trkpt>
      <trkpt lat="43.49105" lon="6.57998">
        <ele>70.2</ele>
        <time>2026-03-27T15:21:12Z</time>
      </trkpt>
      <trkpt lat="43.49105" lon="6.57998">
        <ele>70.2</ele>
        <time>2026-03-27T15:21:13Z</time>
      </trkpt>
      <trkpt lat="43.49105" lon="6.57998">
        <ele>70.2</ele>
        <time>2026-03-27T15:21:14Z</time>
      </trkpt>
      <trkpt lat="43.49105" lon="6.57998">
        <ele>70.2</ele>
        <time>2026-03-27T15:21:15Z</time>
      </trkpt>
      <trkpt lat="43.49105" lon="6.57998">
        <ele>70.2</ele>
        <time>2026-03-27T15:21:16Z</time>
      </trkpt>
      <trkpt lat="43.49105" lon="6.57998">
        <ele>70.2</ele>
        <time>2026-03-27T15:21:17Z</time>
      </trkpt>
      <trkpt lat="43.49105" lon="6.57998">
        <ele>70.2</ele>
        <time>2026-03-27T15:21:18Z</time>
      </trkpt>
      <trkpt lat="43.49105" lon="6.57998">
        <ele>70.2</ele>
        <time>2026-03-27T15:21:19Z</time>
      </trkpt>
      <trkpt lat="43.49105" lon="6.57998">
        <ele>70.2</ele>
        <time>2026-03-27T15:21:20Z</time>
      </trkpt>
      <trkpt lat="43.49106" lon="6.57998">
        <ele>70.2</ele>
        <time>2026-03-27T15:21:21Z</time>
      </trkpt>
      <trkpt lat="43.49106" lon="6.57998">
        <ele>70.1</ele>
        <time>2026-03-27T15:21:22Z</time>
      </trkpt>
      <trkpt lat="43.49106" lon="6.57998">
        <ele>70.1</ele>
        <time>2026-03-27T15:21:23Z</time>
      </trkpt>
      <trkpt lat="43.49106" lon="6.57998">
        <ele>70.2</ele>
        <time>2026-03-27T15:21:24Z</time>
      </trkpt>
      <trkpt lat="43.49106" lon="6.57998">
        <ele>70.1</ele>
        <time>2026-03-27T15:21:25Z</time>
      </trkpt>
      <trkpt lat="43.49106" lon="6.57998">
        <ele>70.1</ele>
        <time>2026-03-27T15:21:26Z</time>
      </trkpt>
      <trkpt lat="43.49106" lon="6.57998">
        <ele>70.2</ele>
        <time>2026-03-27T15:21:27Z</time>
      </trkpt>
      <trkpt lat="43.49106" lon="6.57998">
        <ele>70.2</ele>
        <time>2026-03-27T15:21:28Z</time>
      </trkpt>
      <trkpt lat="43.49106" lon="6.57998">
        <ele>70.3</ele>
        <time>2026-03-27T15:21:29Z</time>
      </trkpt>
      <trkpt lat="43.49106" lon="6.57998">
        <ele>70.3</ele>
        <time>2026-03-27T15:21:30Z</time>
      </trkpt>
      <trkpt lat="43.49105" lon="6.57998">
        <ele>70.3</ele>
        <time>2026-03-27T15:21:31Z</time>
      </trkpt>
      <trkpt lat="43.49105" lon="6.57998">
        <ele>70.4</ele>
        <time>2026-03-27T15:21:32Z</time>
      </trkpt>
      <trkpt lat="43.49105" lon="6.57998">
        <ele>70.3</ele>
        <time>2026-03-27T15:21:33Z</time>
      </trkpt>
      <trkpt lat="43.49105" lon="6.57998">
        <ele>70.3</ele>
        <time>2026-03-27T15:21:34Z</time>
      </trkpt>
      <trkpt lat="43.49105" lon="6.57998">
        <ele>70.3</ele>
        <time>2026-03-27T15:21:35Z</time>
      </trkpt>
      <trkpt lat="43.49105" lon="6.57998">
        <ele>70.3</ele>
        <time>2026-03-27T15:21:36Z</time>
      </trkpt>
      <trkpt lat="43.49105" lon="6.57997">
        <ele>70.3</ele>
        <time>2026-03-27T15:21:37Z</time>
      </trkpt>
      <trkpt lat="43.49105" lon="6.57997">
        <ele>70.4</ele>
        <time>2026-03-27T15:21:38Z</time>
      </trkpt>
      <trkpt lat="43.49105" lon="6.57997">
        <ele>70.5</ele>
        <time>2026-03-27T15:21:39Z</time>
      </trkpt>
      <trkpt lat="43.49105" lon="6.57997">
        <ele>70.6</ele>
        <time>2026-03-27T15:21:40Z</time>
      </trkpt>
      <trkpt lat="43.49105" lon="6.57997">
        <ele>70.6</ele>
        <time>2026-03-27T15:21:41Z</time>
      </trkpt>
      <trkpt lat="43.49105" lon="6.57997">
        <ele>70.6</ele>
        <time>2026-03-27T15:21:42Z</time>
      </trkpt>
      <trkpt lat="43.49105" lon="6.57997">
        <ele>70.4</ele>
        <time>2026-03-27T15:21:43Z</time>
      </trkpt>
      <trkpt lat="43.49105" lon="6.57998">
        <ele>70.4</ele>
        <time>2026-03-27T15:21:44Z</time>
      </trkpt>
      <trkpt lat="43.49105" lon="6.57998">
        <ele>70.4</ele>
        <time>2026-03-27T15:21:45Z</time>
      </trkpt>
      <trkpt lat="43.49105" lon="6.57997">
        <ele>70.5</ele>
        <time>2026-03-27T15:21:46Z</time>
      </trkpt>
      <trkpt lat="43.49105" lon="6.57997">
        <ele>70.5</ele>
        <time>2026-03-27T15:21:47Z</time>
      </trkpt>
      <trkpt lat="43.49105" lon="6.57997">
        <ele>70.5</ele>
        <time>2026-03-27T15:21:48Z</time>
      </trkpt>
      <trkpt lat="43.49105" lon="6.57997">
        <ele>70.5</ele>
        <time>2026-03-27T15:21:49Z</time>
      </trkpt>
      <trkpt lat="43.49105" lon="6.57997">
        <ele>70.5</ele>
        <time>2026-03-27T15:21:50Z</time>
      </trkpt>
      <trkpt lat="43.49105" lon="6.57997">
        <ele>70.5</ele>
        <time>2026-03-27T15:21:51Z</time>
      </trkpt>
      <trkpt lat="43.49105" lon="6.57997">
        <ele>70.6</ele>
        <time>2026-03-27T15:21:52Z</time>
      </trkpt>
      <trkpt lat="43.49105" lon="6.57997">
        <ele>70.6</ele>
        <time>2026-03-27T15:21:53Z</time>
      </trkpt>
      <trkpt lat="43.49105" lon="6.57997">
        <ele>70.7</ele>
        <time>2026-03-27T15:21:54Z</time>
      </trkpt>
      <trkpt lat="43.49105" lon="6.57997">
        <ele>70.6</ele>
        <time>2026-03-27T15:21:55Z</time>
      </trkpt>
      <trkpt lat="43.49105" lon="6.57997">
        <ele>70.6</ele>
        <time>2026-03-27T15:21:56Z</time>
      </trkpt>
      <trkpt lat="43.49105" lon="6.57996">
        <ele>70.6</ele>
        <time>2026-03-27T15:21:57Z</time>
      </trkpt>
      <trkpt lat="43.49105" lon="6.57996">
        <ele>70.6</ele>
        <time>2026-03-27T15:21:58Z</time>
      </trkpt>
      <trkpt lat="43.49105" lon="6.57996">
        <ele>70.6</ele>
        <time>2026-03-27T15:21:59Z</time>
      </trkpt>
      <trkpt lat="43.49105" lon="6.57996">
        <ele>70.6</ele>
        <time>2026-03-27T15:22:00Z</time>
      </trkpt>
      <trkpt lat="43.49105" lon="6.57996">
        <ele>70.5</ele>
        <time>2026-03-27T15:22:01Z</time>
      </trkpt>
      <trkpt lat="43.49105" lon="6.57996">
        <ele>70.5</ele>
        <time>2026-03-27T15:22:02Z</time>
      </trkpt>
      <trkpt lat="43.49105" lon="6.57996">
        <ele>70.5</ele>
        <time>2026-03-27T15:22:03Z</time>
      </trkpt>
      <trkpt lat="43.49105" lon="6.57996">
        <ele>70.5</ele>
        <time>2026-03-27T15:22:04Z</time>
      </trkpt>
      <trkpt lat="43.49105" lon="6.57996">
        <ele>70.5</ele>
        <time>2026-03-27T15:22:05Z</time>
      </trkpt>
      <trkpt lat="43.49105" lon="6.57996">
        <ele>70.5</ele>
        <time>2026-03-27T15:22:06Z</time>
      </trkpt>
      <trkpt lat="43.49105" lon="6.57996">
        <ele>70.4</ele>
        <time>2026-03-27T15:22:07Z</time>
      </trkpt>
      <trkpt lat="43.49105" lon="6.57996">
        <ele>70.4</ele>
        <time>2026-03-27T15:22:08Z</time>
      </trkpt>
      <trkpt lat="43.49105" lon="6.57996">
        <ele>70.3</ele>
        <time>2026-03-27T15:22:09Z</time>
      </trkpt>
      <trkpt lat="43.49105" lon="6.57996">
        <ele>70.2</ele>
        <time>2026-03-27T15:22:10Z</time>
      </trkpt>
      <trkpt lat="43.49105" lon="6.57996">
        <ele>70.2</ele>
        <time>2026-03-27T15:22:11Z</time>
      </trkpt>
      <trkpt lat="43.49105" lon="6.57997">
        <ele>70.1</ele>
        <time>2026-03-27T15:22:12Z</time>
      </trkpt>
      <trkpt lat="43.49105" lon="6.57996">
        <ele>70.1</ele>
        <time>2026-03-27T15:22:13Z</time>
      </trkpt>
      <trkpt lat="43.49105" lon="6.57997">
        <ele>70.1</ele>
        <time>2026-03-27T15:22:14Z</time>
      </trkpt>
      <trkpt lat="43.49106" lon="6.57997">
        <ele>70.1</ele>
        <time>2026-03-27T15:22:15Z</time>
      </trkpt>
      <trkpt lat="43.49106" lon="6.57997">
        <ele>70.1</ele>
        <time>2026-03-27T15:22:16Z</time>
      </trkpt>
      <trkpt lat="43.49106" lon="6.57997">
        <ele>70.1</ele>
        <time>2026-03-27T15:22:17Z</time>
      </trkpt>
      <trkpt lat="43.49106" lon="6.57997">
        <ele>70</ele>
        <time>2026-03-27T15:22:18Z</time>
      </trkpt>
      <trkpt lat="43.49106" lon="6.57997">
        <ele>69.9</ele>
        <time>2026-03-27T15:22:19Z</time>
      </trkpt>
      <trkpt lat="43.49106" lon="6.57997">
        <ele>70</ele>
        <time>2026-03-27T15:22:20Z</time>
      </trkpt>
      <trkpt lat="43.49106" lon="6.57998">
        <ele>70</ele>
        <time>2026-03-27T15:22:21Z</time>
      </trkpt>
      <trkpt lat="43.49106" lon="6.57998">
        <ele>70</ele>
        <time>2026-03-27T15:22:22Z</time>
      </trkpt>
      <trkpt lat="43.49106" lon="6.57998">
        <ele>70.1</ele>
        <time>2026-03-27T15:22:23Z</time>
      </trkpt>
      <trkpt lat="43.49106" lon="6.57997">
        <ele>70.1</ele>
        <time>2026-03-27T15:22:24Z</time>
      </trkpt>
      <trkpt lat="43.49106" lon="6.57997">
        <ele>70.1</ele>
        <time>2026-03-27T15:22:25Z</time>
      </trkpt>
      <trkpt lat="43.49106" lon="6.57997">
        <ele>70.2</ele>
        <time>2026-03-27T15:22:26Z</time>
      </trkpt>
      <trkpt lat="43.49106" lon="6.57997">
        <ele>70.3</ele>
        <time>2026-03-27T15:22:27Z</time>
      </trkpt>
      <trkpt lat="43.49106" lon="6.57997">
        <ele>70.2</ele>
        <time>2026-03-27T15:22:28Z</time>
      </trkpt>
      <trkpt lat="43.49106" lon="6.57997">
        <ele>70.2</ele>
        <time>2026-03-27T15:22:29Z</time>
      </trkpt>
      <trkpt lat="43.49106" lon="6.57997">
        <ele>70.2</ele>
        <time>2026-03-27T15:22:30Z</time>
      </trkpt>
      <trkpt lat="43.49106" lon="6.57997">
        <ele>70.2</ele>
        <time>2026-03-27T15:22:31Z</time>
      </trkpt>
      <trkpt lat="43.49106" lon="6.57997">
        <ele>70.3</ele>
        <time>2026-03-27T15:22:32Z</time>
      </trkpt>
      <trkpt lat="43.49106" lon="6.57997">
        <ele>70.2</ele>
        <time>2026-03-27T15:22:33Z</time>
      </trkpt>
      <trkpt lat="43.49106" lon="6.57998">
        <ele>70.2</ele>
        <time>2026-03-27T15:22:34Z</time>
      </trkpt>
      <trkpt lat="43.49106" lon="6.57998">
        <ele>70.1</ele>
        <time>2026-03-27T15:22:35Z</time>
      </trkpt>
      <trkpt lat="43.49106" lon="6.57998">
        <ele>70.1</ele>
        <time>2026-03-27T15:22:36Z</time>
      </trkpt>
      <trkpt lat="43.49106" lon="6.57998">
        <ele>70.1</ele>
        <time>2026-03-27T15:22:37Z</time>
      </trkpt>
      <trkpt lat="43.49107" lon="6.57998">
        <ele>70.1</ele>
        <time>2026-03-27T15:22:38Z</time>
      </trkpt>
      <trkpt lat="43.49107" lon="6.57998">
        <ele>70.1</ele>
        <time>2026-03-27T15:22:39Z</time>
      </trkpt>
      <trkpt lat="43.49107" lon="6.57998">
        <ele>70.1</ele>
        <time>2026-03-27T15:22:40Z</time>
      </trkpt>
      <trkpt lat="43.49107" lon="6.57998">
        <ele>70.2</ele>
        <time>2026-03-27T15:22:41Z</time>
      </trkpt>
      <trkpt lat="43.49107" lon="6.57998">
        <ele>70.2</ele>
        <time>2026-03-27T15:22:42Z</time>
      </trkpt>
      <trkpt lat="43.49107" lon="6.57998">
        <ele>70.2</ele>
        <time>2026-03-27T15:22:43Z</time>
      </trkpt>
      <trkpt lat="43.49107" lon="6.57998">
        <ele>70.2</ele>
        <time>2026-03-27T15:22:44Z</time>
      </trkpt>
      <trkpt lat="43.49106" lon="6.57998">
        <ele>70.1</ele>
        <time>2026-03-27T15:22:45Z</time>
      </trkpt>
      <trkpt lat="43.49106" lon="6.57998">
        <ele>70.1</ele>
        <time>2026-03-27T15:22:46Z</time>
      </trkpt>
      <trkpt lat="43.49106" lon="6.57998">
        <ele>70.2</ele>
        <time>2026-03-27T15:22:47Z</time>
      </trkpt>
      <trkpt lat="43.49107" lon="6.57999">
        <ele>70.3</ele>
        <time>2026-03-27T15:22:48Z</time>
      </trkpt>
      <trkpt lat="43.49107" lon="6.57998">
        <ele>70.4</ele>
        <time>2026-03-27T15:22:49Z</time>
      </trkpt>
      <trkpt lat="43.49107" lon="6.57998">
        <ele>70.4</ele>
        <time>2026-03-27T15:22:50Z</time>
      </trkpt>
      <trkpt lat="43.49107" lon="6.57998">
        <ele>70.4</ele>
        <time>2026-03-27T15:22:51Z</time>
      </trkpt>
      <trkpt lat="43.49107" lon="6.57998">
        <ele>70.4</ele>
        <time>2026-03-27T15:22:52Z</time>
      </trkpt>
      <trkpt lat="43.49107" lon="6.57998">
        <ele>70.4</ele>
        <time>2026-03-27T15:22:53Z</time>
      </trkpt>
      <trkpt lat="43.49107" lon="6.57998">
        <ele>70.4</ele>
        <time>2026-03-27T15:22:54Z</time>
      </trkpt>
      <trkpt lat="43.49107" lon="6.57997">
        <ele>70.3</ele>
        <time>2026-03-27T15:22:55Z</time>
      </trkpt>
      <trkpt lat="43.49107" lon="6.57997">
        <ele>70.2</ele>
        <time>2026-03-27T15:22:56Z</time>
      </trkpt>
      <trkpt lat="43.49107" lon="6.57997">
        <ele>70.3</ele>
        <time>2026-03-27T15:22:57Z</time>
      </trkpt>
      <trkpt lat="43.49107" lon="6.57996">
        <ele>70.3</ele>
        <time>2026-03-27T15:22:58Z</time>
      </trkpt>
      <trkpt lat="43.49108" lon="6.57996">
        <ele>70.3</ele>
        <time>2026-03-27T15:22:59Z</time>
      </trkpt>
      <trkpt lat="43.49108" lon="6.57994">
        <ele>70.2</ele>
        <time>2026-03-27T15:23:00Z</time>
      </trkpt>
      <trkpt lat="43.49108" lon="6.57993">
        <ele>70.1</ele>
        <time>2026-03-27T15:23:01Z</time>
      </trkpt>
      <trkpt lat="43.49108" lon="6.57992">
        <ele>70</ele>
        <time>2026-03-27T15:23:02Z</time>
      </trkpt>
      <trkpt lat="43.49107" lon="6.57992">
        <ele>70</ele>
        <time>2026-03-27T15:23:03Z</time>
      </trkpt>
      <trkpt lat="43.49107" lon="6.57991">
        <ele>70</ele>
        <time>2026-03-27T15:23:04Z</time>
      </trkpt>
      <trkpt lat="43.49107" lon="6.57991">
        <ele>70</ele>
        <time>2026-03-27T15:23:05Z</time>
      </trkpt>
      <trkpt lat="43.49107" lon="6.5799">
        <ele>69.8</ele>
        <time>2026-03-27T15:23:06Z</time>
      </trkpt>
      <trkpt lat="43.49107" lon="6.57989">
        <ele>69.7</ele>
        <time>2026-03-27T15:23:07Z</time>
      </trkpt>
      <trkpt lat="43.49107" lon="6.57988">
        <ele>69.5</ele>
        <time>2026-03-27T15:23:08Z</time>
      </trkpt>
      <trkpt lat="43.49107" lon="6.57987">
        <ele>69.4</ele>
        <time>2026-03-27T15:23:09Z</time>
      </trkpt>
      <trkpt lat="43.49107" lon="6.57986">
        <ele>69.3</ele>
        <time>2026-03-27T15:23:10Z</time>
      </trkpt>
      <trkpt lat="43.49107" lon="6.57985">
        <ele>69</ele>
        <time>2026-03-27T15:23:11Z</time>
      </trkpt>
      <trkpt lat="43.49107" lon="6.57984">
        <ele>68.8</ele>
        <time>2026-03-27T15:23:12Z</time>
      </trkpt>
      <trkpt lat="43.49107" lon="6.57983">
        <ele>68.7</ele>
        <time>2026-03-27T15:23:13Z</time>
      </trkpt>
      <trkpt lat="43.49107" lon="6.57982">
        <ele>68.7</ele>
        <time>2026-03-27T15:23:14Z</time>
      </trkpt>
      <trkpt lat="43.49107" lon="6.57981">
        <ele>68.5</ele>
        <time>2026-03-27T15:23:15Z</time>
      </trkpt>
      <trkpt lat="43.49107" lon="6.57981">
        <ele>68.4</ele>
        <time>2026-03-27T15:23:16Z</time>
      </trkpt>
      <trkpt lat="43.49107" lon="6.5798">
        <ele>68.4</ele>
        <time>2026-03-27T15:23:17Z</time>
      </trkpt>
      <trkpt lat="43.49106" lon="6.57979">
        <ele>68.3</ele>
        <time>2026-03-27T15:23:18Z</time>
      </trkpt>
      <trkpt lat="43.49106" lon="6.57977">
        <ele>68.2</ele>
        <time>2026-03-27T15:23:19Z</time>
      </trkpt>
      <trkpt lat="43.49106" lon="6.57976">
        <ele>68.2</ele>
        <time>2026-03-27T15:23:20Z</time>
      </trkpt>
      <trkpt lat="43.49106" lon="6.57975">
        <ele>68</ele>
        <time>2026-03-27T15:23:21Z</time>
      </trkpt>
      <trkpt lat="43.49106" lon="6.57974">
        <ele>68</ele>
        <time>2026-03-27T15:23:22Z</time>
      </trkpt>
      <trkpt lat="43.49107" lon="6.57973">
        <ele>67.9</ele>
        <time>2026-03-27T15:23:23Z</time>
      </trkpt>
      <trkpt lat="43.49107" lon="6.57971">
        <ele>67.8</ele>
        <time>2026-03-27T15:23:24Z</time>
      </trkpt>
      <trkpt lat="43.49107" lon="6.57971">
        <ele>67.8</ele>
        <time>2026-03-27T15:23:25Z</time>
      </trkpt>
      <trkpt lat="43.49106" lon="6.5797">
        <ele>67.5</ele>
        <time>2026-03-27T15:23:26Z</time>
      </trkpt>
      <trkpt lat="43.49107" lon="6.57969">
        <ele>67.3</ele>
        <time>2026-03-27T15:23:27Z</time>
      </trkpt>
      <trkpt lat="43.49107" lon="6.57968">
        <ele>67.1</ele>
        <time>2026-03-27T15:23:28Z</time>
      </trkpt>
      <trkpt lat="43.49106" lon="6.57967">
        <ele>66.9</ele>
        <time>2026-03-27T15:23:29Z</time>
      </trkpt>
      <trkpt lat="43.49106" lon="6.57966">
        <ele>66.8</ele>
        <time>2026-03-27T15:23:30Z</time>
      </trkpt>
      <trkpt lat="43.49106" lon="6.57964">
        <ele>66.7</ele>
        <time>2026-03-27T15:23:31Z</time>
      </trkpt>
      <trkpt lat="43.49106" lon="6.57963">
        <ele>66.6</ele>
        <time>2026-03-27T15:23:32Z</time>
      </trkpt>
      <trkpt lat="43.49106" lon="6.57962">
        <ele>66.5</ele>
        <time>2026-03-27T15:23:33Z</time>
      </trkpt>
      <trkpt lat="43.49107" lon="6.57961">
        <ele>66.6</ele>
        <time>2026-03-27T15:23:34Z</time>
      </trkpt>
      <trkpt lat="43.49107" lon="6.57959">
        <ele>66.5</ele>
        <time>2026-03-27T15:23:35Z</time>
      </trkpt>
      <trkpt lat="43.49107" lon="6.57958">
        <ele>66.5</ele>
        <time>2026-03-27T15:23:36Z</time>
      </trkpt>
      <trkpt lat="43.49107" lon="6.57956">
        <ele>66.3</ele>
        <time>2026-03-27T15:23:37Z</time>
      </trkpt>
      <trkpt lat="43.49106" lon="6.57955">
        <ele>66.2</ele>
        <time>2026-03-27T15:23:38Z</time>
      </trkpt>
      <trkpt lat="43.49106" lon="6.57953">
        <ele>66.1</ele>
        <time>2026-03-27T15:23:39Z</time>
      </trkpt>
      <trkpt lat="43.49106" lon="6.57952">
        <ele>66</ele>
        <time>2026-03-27T15:23:40Z</time>
      </trkpt>
      <trkpt lat="43.49106" lon="6.57951">
        <ele>66</ele>
        <time>2026-03-27T15:23:41Z</time>
      </trkpt>
      <trkpt lat="43.49106" lon="6.5795">
        <ele>65.7</ele>
        <time>2026-03-27T15:23:42Z</time>
      </trkpt>
      <trkpt lat="43.49106" lon="6.57949">
        <ele>65.5</ele>
        <time>2026-03-27T15:23:43Z</time>
      </trkpt>
      <trkpt lat="43.49106" lon="6.57948">
        <ele>65.4</ele>
        <time>2026-03-27T15:23:44Z</time>
      </trkpt>
      <trkpt lat="43.49105" lon="6.57946">
        <ele>65.3</ele>
        <time>2026-03-27T15:23:45Z</time>
      </trkpt>
      <trkpt lat="43.49105" lon="6.57945">
        <ele>65.2</ele>
        <time>2026-03-27T15:23:46Z</time>
      </trkpt>
      <trkpt lat="43.49105" lon="6.57944">
        <ele>64.9</ele>
        <time>2026-03-27T15:23:47Z</time>
      </trkpt>
      <trkpt lat="43.49104" lon="6.57943">
        <ele>64.9</ele>
        <time>2026-03-27T15:23:48Z</time>
      </trkpt>
      <trkpt lat="43.49104" lon="6.57942">
        <ele>64.8</ele>
        <time>2026-03-27T15:23:49Z</time>
      </trkpt>
      <trkpt lat="43.49104" lon="6.57941">
        <ele>64.6</ele>
        <time>2026-03-27T15:23:50Z</time>
      </trkpt>
      <trkpt lat="43.49104" lon="6.5794">
        <ele>64.5</ele>
        <time>2026-03-27T15:23:51Z</time>
      </trkpt>
      <trkpt lat="43.49104" lon="6.57939">
        <ele>64.6</ele>
        <time>2026-03-27T15:23:52Z</time>
      </trkpt>
      <trkpt lat="43.49104" lon="6.57938">
        <ele>64.5</ele>
        <time>2026-03-27T15:23:53Z</time>
      </trkpt>
      <trkpt lat="43.49104" lon="6.57937">
        <ele>64.4</ele>
        <time>2026-03-27T15:23:54Z</time>
      </trkpt>
      <trkpt lat="43.49104" lon="6.57937">
        <ele>64.2</ele>
        <time>2026-03-27T15:23:55Z</time>
      </trkpt>
      <trkpt lat="43.49104" lon="6.57936">
        <ele>64</ele>
        <time>2026-03-27T15:23:56Z</time>
      </trkpt>
      <trkpt lat="43.49104" lon="6.57935">
        <ele>63.8</ele>
        <time>2026-03-27T15:23:57Z</time>
      </trkpt>
      <trkpt lat="43.49104" lon="6.57934">
        <ele>63.6</ele>
        <time>2026-03-27T15:23:58Z</time>
      </trkpt>
      <trkpt lat="43.49104" lon="6.57933">
        <ele>63.5</ele>
        <time>2026-03-27T15:23:59Z</time>
      </trkpt>
      <trkpt lat="43.49104" lon="6.57932">
        <ele>63.5</ele>
        <time>2026-03-27T15:24:00Z</time>
      </trkpt>
      <trkpt lat="43.49104" lon="6.5793">
        <ele>63.4</ele>
        <time>2026-03-27T15:24:01Z</time>
      </trkpt>
      <trkpt lat="43.49104" lon="6.57929">
        <ele>63.1</ele>
        <time>2026-03-27T15:24:02Z</time>
      </trkpt>
      <trkpt lat="43.49104" lon="6.57929">
        <ele>63</ele>
        <time>2026-03-27T15:24:03Z</time>
      </trkpt>
      <trkpt lat="43.49103" lon="6.57928">
        <ele>62.8</ele>
        <time>2026-03-27T15:24:04Z</time>
      </trkpt>
      <trkpt lat="43.49103" lon="6.57927">
        <ele>62.7</ele>
        <time>2026-03-27T15:24:05Z</time>
      </trkpt>
      <trkpt lat="43.49103" lon="6.57926">
        <ele>62.6</ele>
        <time>2026-03-27T15:24:06Z</time>
      </trkpt>
      <trkpt lat="43.49103" lon="6.57925">
        <ele>62.3</ele>
        <time>2026-03-27T15:24:07Z</time>
      </trkpt>
      <trkpt lat="43.49103" lon="6.57924">
        <ele>62.1</ele>
        <time>2026-03-27T15:24:08Z</time>
      </trkpt>
      <trkpt lat="43.49102" lon="6.57924">
        <ele>61.9</ele>
        <time>2026-03-27T15:24:09Z</time>
      </trkpt>
      <trkpt lat="43.49102" lon="6.57923">
        <ele>61.8</ele>
        <time>2026-03-27T15:24:10Z</time>
      </trkpt>
      <trkpt lat="43.49102" lon="6.57922">
        <ele>61.7</ele>
        <time>2026-03-27T15:24:11Z</time>
      </trkpt>
      <trkpt lat="43.49102" lon="6.57921">
        <ele>61.6</ele>
        <time>2026-03-27T15:24:12Z</time>
      </trkpt>
      <trkpt lat="43.49102" lon="6.5792">
        <ele>61.4</ele>
        <time>2026-03-27T15:24:13Z</time>
      </trkpt>
      <trkpt lat="43.49101" lon="6.57919">
        <ele>61.3</ele>
        <time>2026-03-27T15:24:14Z</time>
      </trkpt>
      <trkpt lat="43.49101" lon="6.57918">
        <ele>61.1</ele>
        <time>2026-03-27T15:24:15Z</time>
      </trkpt>
      <trkpt lat="43.49101" lon="6.57917">
        <ele>61</ele>
        <time>2026-03-27T15:24:16Z</time>
      </trkpt>
      <trkpt lat="43.49101" lon="6.57916">
        <ele>60.9</ele>
        <time>2026-03-27T15:24:17Z</time>
      </trkpt>
      <trkpt lat="43.49101" lon="6.57915">
        <ele>60.9</ele>
        <time>2026-03-27T15:24:18Z</time>
      </trkpt>
      <trkpt lat="43.49101" lon="6.57914">
        <ele>60.7</ele>
        <time>2026-03-27T15:24:19Z</time>
      </trkpt>
      <trkpt lat="43.49101" lon="6.57913">
        <ele>60.7</ele>
        <time>2026-03-27T15:24:20Z</time>
      </trkpt>
      <trkpt lat="43.491" lon="6.57912">
        <ele>60.6</ele>
        <time>2026-03-27T15:24:21Z</time>
      </trkpt>
      <trkpt lat="43.491" lon="6.57911">
        <ele>60.6</ele>
        <time>2026-03-27T15:24:22Z</time>
      </trkpt>
      <trkpt lat="43.491" lon="6.5791">
        <ele>60.5</ele>
        <time>2026-03-27T15:24:23Z</time>
      </trkpt>
      <trkpt lat="43.491" lon="6.57908">
        <ele>60.4</ele>
        <time>2026-03-27T15:24:24Z</time>
      </trkpt>
      <trkpt lat="43.491" lon="6.57907">
        <ele>60.2</ele>
        <time>2026-03-27T15:24:25Z</time>
      </trkpt>
      <trkpt lat="43.491" lon="6.57906">
        <ele>60.1</ele>
        <time>2026-03-27T15:24:26Z</time>
      </trkpt>
      <trkpt lat="43.491" lon="6.57905">
        <ele>60</ele>
        <time>2026-03-27T15:24:27Z</time>
      </trkpt>
      <trkpt lat="43.491" lon="6.57904">
        <ele>59.8</ele>
        <time>2026-03-27T15:24:28Z</time>
      </trkpt>
      <trkpt lat="43.49101" lon="6.57902">
        <ele>59.6</ele>
        <time>2026-03-27T15:24:29Z</time>
      </trkpt>
      <trkpt lat="43.49101" lon="6.57901">
        <ele>59.5</ele>
        <time>2026-03-27T15:24:30Z</time>
      </trkpt>
      <trkpt lat="43.49101" lon="6.579">
        <ele>59.3</ele>
        <time>2026-03-27T15:24:31Z</time>
      </trkpt>
      <trkpt lat="43.491" lon="6.57899">
        <ele>59.2</ele>
        <time>2026-03-27T15:24:32Z</time>
      </trkpt>
      <trkpt lat="43.491" lon="6.57897">
        <ele>59</ele>
        <time>2026-03-27T15:24:33Z</time>
      </trkpt>
      <trkpt lat="43.491" lon="6.57896">
        <ele>58.9</ele>
        <time>2026-03-27T15:24:34Z</time>
      </trkpt>
      <trkpt lat="43.491" lon="6.57894">
        <ele>58.9</ele>
        <time>2026-03-27T15:24:35Z</time>
      </trkpt>
      <trkpt lat="43.49101" lon="6.57893">
        <ele>58.8</ele>
        <time>2026-03-27T15:24:36Z</time>
      </trkpt>
      <trkpt lat="43.49101" lon="6.57892">
        <ele>58.6</ele>
        <time>2026-03-27T15:24:37Z</time>
      </trkpt>
      <trkpt lat="43.49101" lon="6.5789">
        <ele>58.5</ele>
        <time>2026-03-27T15:24:38Z</time>
      </trkpt>
      <trkpt lat="43.49101" lon="6.57889">
        <ele>58.4</ele>
        <time>2026-03-27T15:24:39Z</time>
      </trkpt>
      <trkpt lat="43.491" lon="6.57888">
        <ele>58.4</ele>
        <time>2026-03-27T15:24:40Z</time>
      </trkpt>
      <trkpt lat="43.49101" lon="6.57887">
        <ele>58.3</ele>
        <time>2026-03-27T15:24:41Z</time>
      </trkpt>
      <trkpt lat="43.49101" lon="6.57885">
        <ele>58.2</ele>
        <time>2026-03-27T15:24:42Z</time>
      </trkpt>
      <trkpt lat="43.49101" lon="6.57884">
        <ele>57.9</ele>
        <time>2026-03-27T15:24:43Z</time>
      </trkpt>
      <trkpt lat="43.49101" lon="6.57883">
        <ele>57.7</ele>
        <time>2026-03-27T15:24:44Z</time>
      </trkpt>
      <trkpt lat="43.49101" lon="6.57882">
        <ele>57.5</ele>
        <time>2026-03-27T15:24:45Z</time>
      </trkpt>
      <trkpt lat="43.49101" lon="6.5788">
        <ele>57.3</ele>
        <time>2026-03-27T15:24:46Z</time>
      </trkpt>
      <trkpt lat="43.49101" lon="6.57879">
        <ele>57.1</ele>
        <time>2026-03-27T15:24:47Z</time>
      </trkpt>
      <trkpt lat="43.49101" lon="6.57878">
        <ele>57</ele>
        <time>2026-03-27T15:24:48Z</time>
      </trkpt>
      <trkpt lat="43.49101" lon="6.57877">
        <ele>56.9</ele>
        <time>2026-03-27T15:24:49Z</time>
      </trkpt>
      <trkpt lat="43.49101" lon="6.57876">
        <ele>56.7</ele>
        <time>2026-03-27T15:24:50Z</time>
      </trkpt>
      <trkpt lat="43.491" lon="6.57875">
        <ele>56.5</ele>
        <time>2026-03-27T15:24:51Z</time>
      </trkpt>
      <trkpt lat="43.491" lon="6.57874">
        <ele>56.3</ele>
        <time>2026-03-27T15:24:52Z</time>
      </trkpt>
      <trkpt lat="43.491" lon="6.57873">
        <ele>56.1</ele>
        <time>2026-03-27T15:24:53Z</time>
      </trkpt>
      <trkpt lat="43.491" lon="6.57871">
        <ele>55.9</ele>
        <time>2026-03-27T15:24:54Z</time>
      </trkpt>
      <trkpt lat="43.491" lon="6.5787">
        <ele>55.9</ele>
        <time>2026-03-27T15:24:55Z</time>
      </trkpt>
      <trkpt lat="43.491" lon="6.57869">
        <ele>55.9</ele>
        <time>2026-03-27T15:24:56Z</time>
      </trkpt>
      <trkpt lat="43.491" lon="6.57868">
        <ele>55.8</ele>
        <time>2026-03-27T15:24:57Z</time>
      </trkpt>
      <trkpt lat="43.491" lon="6.57867">
        <ele>55.6</ele>
        <time>2026-03-27T15:24:58Z</time>
      </trkpt>
      <trkpt lat="43.49099" lon="6.57866">
        <ele>55.5</ele>
        <time>2026-03-27T15:24:59Z</time>
      </trkpt>
      <trkpt lat="43.49099" lon="6.57865">
        <ele>55.4</ele>
        <time>2026-03-27T15:25:00Z</time>
      </trkpt>
      <trkpt lat="43.49099" lon="6.57864">
        <ele>55.2</ele>
        <time>2026-03-27T15:25:01Z</time>
      </trkpt>
      <trkpt lat="43.491" lon="6.57863">
        <ele>55</ele>
        <time>2026-03-27T15:25:02Z</time>
      </trkpt>
      <trkpt lat="43.491" lon="6.57862">
        <ele>54.8</ele>
        <time>2026-03-27T15:25:03Z</time>
      </trkpt>
      <trkpt lat="43.491" lon="6.57861">
        <ele>54.5</ele>
        <time>2026-03-27T15:25:04Z</time>
      </trkpt>
      <trkpt lat="43.491" lon="6.5786">
        <ele>54.4</ele>
        <time>2026-03-27T15:25:05Z</time>
      </trkpt>
      <trkpt lat="43.491" lon="6.57859">
        <ele>54.2</ele>
        <time>2026-03-27T15:25:06Z</time>
      </trkpt>
      <trkpt lat="43.491" lon="6.57858">
        <ele>53.9</ele>
        <time>2026-03-27T15:25:07Z</time>
      </trkpt>
      <trkpt lat="43.49101" lon="6.57857">
        <ele>53.7</ele>
        <time>2026-03-27T15:25:08Z</time>
      </trkpt>
      <trkpt lat="43.49101" lon="6.57856">
        <ele>53.6</ele>
        <time>2026-03-27T15:25:09Z</time>
      </trkpt>
      <trkpt lat="43.491" lon="6.57855">
        <ele>53.5</ele>
        <time>2026-03-27T15:25:10Z</time>
      </trkpt>
      <trkpt lat="43.491" lon="6.57854">
        <ele>53.3</ele>
        <time>2026-03-27T15:25:11Z</time>
      </trkpt>
      <trkpt lat="43.491" lon="6.57853">
        <ele>53.2</ele>
        <time>2026-03-27T15:25:12Z</time>
      </trkpt>
      <trkpt lat="43.49101" lon="6.57851">
        <ele>53.1</ele>
        <time>2026-03-27T15:25:13Z</time>
      </trkpt>
      <trkpt lat="43.49101" lon="6.5785">
        <ele>52.9</ele>
        <time>2026-03-27T15:25:14Z</time>
      </trkpt>
      <trkpt lat="43.49101" lon="6.57849">
        <ele>52.8</ele>
        <time>2026-03-27T15:25:15Z</time>
      </trkpt>
      <trkpt lat="43.49101" lon="6.57848">
        <ele>52.7</ele>
        <time>2026-03-27T15:25:16Z</time>
      </trkpt>
      <trkpt lat="43.49101" lon="6.57847">
        <ele>52.6</ele>
        <time>2026-03-27T15:25:17Z</time>
      </trkpt>
      <trkpt lat="43.49102" lon="6.57845">
        <ele>52.4</ele>
        <time>2026-03-27T15:25:18Z</time>
      </trkpt>
      <trkpt lat="43.49102" lon="6.57843">
        <ele>52.2</ele>
        <time>2026-03-27T15:25:19Z</time>
      </trkpt>
      <trkpt lat="43.49102" lon="6.57842">
        <ele>52.1</ele>
        <time>2026-03-27T15:25:20Z</time>
      </trkpt>
      <trkpt lat="43.49102" lon="6.5784">
        <ele>52</ele>
        <time>2026-03-27T15:25:21Z</time>
      </trkpt>
      <trkpt lat="43.49102" lon="6.57839">
        <ele>51.7</ele>
        <time>2026-03-27T15:25:22Z</time>
      </trkpt>
      <trkpt lat="43.49102" lon="6.57838">
        <ele>51.6</ele>
        <time>2026-03-27T15:25:23Z</time>
      </trkpt>
      <trkpt lat="43.49102" lon="6.57837">
        <ele>51.5</ele>
        <time>2026-03-27T15:25:24Z</time>
      </trkpt>
      <trkpt lat="43.49103" lon="6.57835">
        <ele>51.3</ele>
        <time>2026-03-27T15:25:25Z</time>
      </trkpt>
      <trkpt lat="43.49103" lon="6.57834">
        <ele>51.3</ele>
        <time>2026-03-27T15:25:26Z</time>
      </trkpt>
      <trkpt lat="43.49103" lon="6.57833">
        <ele>51</ele>
        <time>2026-03-27T15:25:27Z</time>
      </trkpt>
      <trkpt lat="43.49103" lon="6.57832">
        <ele>50.9</ele>
        <time>2026-03-27T15:25:28Z</time>
      </trkpt>
      <trkpt lat="43.49103" lon="6.5783">
        <ele>50.8</ele>
        <time>2026-03-27T15:25:29Z</time>
      </trkpt>
      <trkpt lat="43.49103" lon="6.57829">
        <ele>50.8</ele>
        <time>2026-03-27T15:25:30Z</time>
      </trkpt>
      <trkpt lat="43.49103" lon="6.57828">
        <ele>50.7</ele>
        <time>2026-03-27T15:25:31Z</time>
      </trkpt>
      <trkpt lat="43.49103" lon="6.57826">
        <ele>50.6</ele>
        <time>2026-03-27T15:25:32Z</time>
      </trkpt>
      <trkpt lat="43.49103" lon="6.57825">
        <ele>50.5</ele>
        <time>2026-03-27T15:25:33Z</time>
      </trkpt>
      <trkpt lat="43.49103" lon="6.57823">
        <ele>50.5</ele>
        <time>2026-03-27T15:25:34Z</time>
      </trkpt>
      <trkpt lat="43.49103" lon="6.57821">
        <ele>50.4</ele>
        <time>2026-03-27T15:25:35Z</time>
      </trkpt>
      <trkpt lat="43.49103" lon="6.5782">
        <ele>50.3</ele>
        <time>2026-03-27T15:25:36Z</time>
      </trkpt>
      <trkpt lat="43.49102" lon="6.57819">
        <ele>50.2</ele>
        <time>2026-03-27T15:25:37Z</time>
      </trkpt>
      <trkpt lat="43.49102" lon="6.57817">
        <ele>50.2</ele>
        <time>2026-03-27T15:25:38Z</time>
      </trkpt>
      <trkpt lat="43.49103" lon="6.57815">
        <ele>50.2</ele>
        <time>2026-03-27T15:25:39Z</time>
      </trkpt>
      <trkpt lat="43.49103" lon="6.57814">
        <ele>50.1</ele>
        <time>2026-03-27T15:25:40Z</time>
      </trkpt>
      <trkpt lat="43.49102" lon="6.57812">
        <ele>50.1</ele>
        <time>2026-03-27T15:25:41Z</time>
      </trkpt>
      <trkpt lat="43.49102" lon="6.57811">
        <ele>50</ele>
        <time>2026-03-27T15:25:42Z</time>
      </trkpt>
      <trkpt lat="43.49102" lon="6.57809">
        <ele>50.1</ele>
        <time>2026-03-27T15:25:43Z</time>
      </trkpt>
      <trkpt lat="43.49102" lon="6.57808">
        <ele>50</ele>
        <time>2026-03-27T15:25:44Z</time>
      </trkpt>
      <trkpt lat="43.49102" lon="6.57806">
        <ele>49.9</ele>
        <time>2026-03-27T15:25:45Z</time>
      </trkpt>
      <trkpt lat="43.49102" lon="6.57805">
        <ele>49.9</ele>
        <time>2026-03-27T15:25:46Z</time>
      </trkpt>
      <trkpt lat="43.49102" lon="6.57803">
        <ele>49.9</ele>
        <time>2026-03-27T15:25:47Z</time>
      </trkpt>
      <trkpt lat="43.49102" lon="6.57802">
        <ele>49.9</ele>
        <time>2026-03-27T15:25:48Z</time>
      </trkpt>
      <trkpt lat="43.49102" lon="6.578">
        <ele>49.9</ele>
        <time>2026-03-27T15:25:49Z</time>
      </trkpt>
      <trkpt lat="43.49102" lon="6.57798">
        <ele>49.9</ele>
        <time>2026-03-27T15:25:50Z</time>
      </trkpt>
      <trkpt lat="43.49102" lon="6.57797">
        <ele>50</ele>
        <time>2026-03-27T15:25:51Z</time>
      </trkpt>
      <trkpt lat="43.49102" lon="6.57795">
        <ele>50</ele>
        <time>2026-03-27T15:25:52Z</time>
      </trkpt>
      <trkpt lat="43.49102" lon="6.57794">
        <ele>50</ele>
        <time>2026-03-27T15:25:53Z</time>
      </trkpt>
      <trkpt lat="43.49102" lon="6.57792">
        <ele>50</ele>
        <time>2026-03-27T15:25:54Z</time>
      </trkpt>
      <trkpt lat="43.49102" lon="6.57791">
        <ele>50.1</ele>
        <time>2026-03-27T15:25:55Z</time>
      </trkpt>
      <trkpt lat="43.49102" lon="6.57789">
        <ele>49.9</ele>
        <time>2026-03-27T15:25:56Z</time>
      </trkpt>
      <trkpt lat="43.49102" lon="6.57788">
        <ele>49.8</ele>
        <time>2026-03-27T15:25:57Z</time>
      </trkpt>
      <trkpt lat="43.49102" lon="6.57786">
        <ele>49.8</ele>
        <time>2026-03-27T15:25:58Z</time>
      </trkpt>
      <trkpt lat="43.49102" lon="6.57784">
        <ele>49.8</ele>
        <time>2026-03-27T15:25:59Z</time>
      </trkpt>
      <trkpt lat="43.49101" lon="6.57783">
        <ele>49.8</ele>
        <time>2026-03-27T15:26:00Z</time>
      </trkpt>
      <trkpt lat="43.49102" lon="6.57781">
        <ele>49.7</ele>
        <time>2026-03-27T15:26:01Z</time>
      </trkpt>
      <trkpt lat="43.49102" lon="6.57779">
        <ele>49.6</ele>
        <time>2026-03-27T15:26:02Z</time>
      </trkpt>
      <trkpt lat="43.49102" lon="6.57777">
        <ele>49.6</ele>
        <time>2026-03-27T15:26:03Z</time>
      </trkpt>
      <trkpt lat="43.49102" lon="6.57776">
        <ele>49.7</ele>
        <time>2026-03-27T15:26:04Z</time>
      </trkpt>
      <trkpt lat="43.49102" lon="6.57774">
        <ele>49.7</ele>
        <time>2026-03-27T15:26:05Z</time>
      </trkpt>
      <trkpt lat="43.49103" lon="6.57773">
        <ele>49.7</ele>
        <time>2026-03-27T15:26:06Z</time>
      </trkpt>
      <trkpt lat="43.49103" lon="6.57771">
        <ele>49.7</ele>
        <time>2026-03-27T15:26:07Z</time>
      </trkpt>
      <trkpt lat="43.49103" lon="6.5777">
        <ele>49.7</ele>
        <time>2026-03-27T15:26:08Z</time>
      </trkpt>
      <trkpt lat="43.49103" lon="6.57768">
        <ele>49.6</ele>
        <time>2026-03-27T15:26:09Z</time>
      </trkpt>
      <trkpt lat="43.49103" lon="6.57767">
        <ele>49.6</ele>
        <time>2026-03-27T15:26:10Z</time>
      </trkpt>
      <trkpt lat="43.49104" lon="6.57765">
        <ele>49.5</ele>
        <time>2026-03-27T15:26:11Z</time>
      </trkpt>
      <trkpt lat="43.49104" lon="6.57763">
        <ele>49.4</ele>
        <time>2026-03-27T15:26:12Z</time>
      </trkpt>
      <trkpt lat="43.49104" lon="6.57761">
        <ele>49.6</ele>
        <time>2026-03-27T15:26:13Z</time>
      </trkpt>
      <trkpt lat="43.49104" lon="6.5776">
        <ele>49.5</ele>
        <time>2026-03-27T15:26:14Z</time>
      </trkpt>
      <trkpt lat="43.49104" lon="6.57758">
        <ele>49.4</ele>
        <time>2026-03-27T15:26:15Z</time>
      </trkpt>
      <trkpt lat="43.49104" lon="6.57757">
        <ele>49.3</ele>
        <time>2026-03-27T15:26:16Z</time>
      </trkpt>
      <trkpt lat="43.49104" lon="6.57755">
        <ele>49.3</ele>
        <time>2026-03-27T15:26:17Z</time>
      </trkpt>
      <trkpt lat="43.49104" lon="6.57754">
        <ele>49.3</ele>
        <time>2026-03-27T15:26:18Z</time>
      </trkpt>
      <trkpt lat="43.49104" lon="6.57752">
        <ele>49.3</ele>
        <time>2026-03-27T15:26:19Z</time>
      </trkpt>
      <trkpt lat="43.49105" lon="6.57751">
        <ele>49.2</ele>
        <time>2026-03-27T15:26:20Z</time>
      </trkpt>
      <trkpt lat="43.49105" lon="6.57749">
        <ele>49.2</ele>
        <time>2026-03-27T15:26:21Z</time>
      </trkpt>
      <trkpt lat="43.49105" lon="6.57748">
        <ele>49.2</ele>
        <time>2026-03-27T15:26:22Z</time>
      </trkpt>
      <trkpt lat="43.49104" lon="6.57747">
        <ele>49.2</ele>
        <time>2026-03-27T15:26:23Z</time>
      </trkpt>
      <trkpt lat="43.49104" lon="6.57745">
        <ele>49.3</ele>
        <time>2026-03-27T15:26:24Z</time>
      </trkpt>
      <trkpt lat="43.49104" lon="6.57743">
        <ele>49.3</ele>
        <time>2026-03-27T15:26:25Z</time>
      </trkpt>
      <trkpt lat="43.49104" lon="6.57742">
        <ele>49.3</ele>
        <time>2026-03-27T15:26:26Z</time>
      </trkpt>
      <trkpt lat="43.49104" lon="6.5774">
        <ele>49.2</ele>
        <time>2026-03-27T15:26:27Z</time>
      </trkpt>
      <trkpt lat="43.49104" lon="6.57739">
        <ele>49</ele>
        <time>2026-03-27T15:26:28Z</time>
      </trkpt>
      <trkpt lat="43.49104" lon="6.57737">
        <ele>48.9</ele>
        <time>2026-03-27T15:26:29Z</time>
      </trkpt>
      <trkpt lat="43.49104" lon="6.57735">
        <ele>48.8</ele>
        <time>2026-03-27T15:26:30Z</time>
      </trkpt>
      <trkpt lat="43.49104" lon="6.57734">
        <ele>48.8</ele>
        <time>2026-03-27T15:26:31Z</time>
      </trkpt>
      <trkpt lat="43.49104" lon="6.57732">
        <ele>48.7</ele>
        <time>2026-03-27T15:26:32Z</time>
      </trkpt>
      <trkpt lat="43.49104" lon="6.5773">
        <ele>48.7</ele>
        <time>2026-03-27T15:26:33Z</time>
      </trkpt>
      <trkpt lat="43.49104" lon="6.57729">
        <ele>48.6</ele>
        <time>2026-03-27T15:26:34Z</time>
      </trkpt>
      <trkpt lat="43.49104" lon="6.57727">
        <ele>48.6</ele>
        <time>2026-03-27T15:26:35Z</time>
      </trkpt>
      <trkpt lat="43.49104" lon="6.57725">
        <ele>48.5</ele>
        <time>2026-03-27T15:26:36Z</time>
      </trkpt>
      <trkpt lat="43.49104" lon="6.57724">
        <ele>48.4</ele>
        <time>2026-03-27T15:26:37Z</time>
      </trkpt>
      <trkpt lat="43.49104" lon="6.57723">
        <ele>48.3</ele>
        <time>2026-03-27T15:26:38Z</time>
      </trkpt>
      <trkpt lat="43.49105" lon="6.57722">
        <ele>48.2</ele>
        <time>2026-03-27T15:26:39Z</time>
      </trkpt>
      <trkpt lat="43.49105" lon="6.57721">
        <ele>48.1</ele>
        <time>2026-03-27T15:26:40Z</time>
      </trkpt>
      <trkpt lat="43.49105" lon="6.57719">
        <ele>48</ele>
        <time>2026-03-27T15:26:41Z</time>
      </trkpt>
      <trkpt lat="43.49105" lon="6.57717">
        <ele>47.9</ele>
        <time>2026-03-27T15:26:42Z</time>
      </trkpt>
      <trkpt lat="43.49105" lon="6.57715">
        <ele>47.9</ele>
        <time>2026-03-27T15:26:43Z</time>
      </trkpt>
      <trkpt lat="43.49105" lon="6.57714">
        <ele>47.7</ele>
        <time>2026-03-27T15:26:44Z</time>
      </trkpt>
      <trkpt lat="43.49105" lon="6.57712">
        <ele>47.6</ele>
        <time>2026-03-27T15:26:45Z</time>
      </trkpt>
      <trkpt lat="43.49105" lon="6.57711">
        <ele>47.6</ele>
        <time>2026-03-27T15:26:46Z</time>
      </trkpt>
      <trkpt lat="43.49106" lon="6.5771">
        <ele>47.5</ele>
        <time>2026-03-27T15:26:47Z</time>
      </trkpt>
      <trkpt lat="43.49107" lon="6.57709">
        <ele>47.4</ele>
        <time>2026-03-27T15:26:48Z</time>
      </trkpt>
      <trkpt lat="43.49108" lon="6.57707">
        <ele>47.2</ele>
        <time>2026-03-27T15:26:49Z</time>
      </trkpt>
      <trkpt lat="43.49109" lon="6.57706">
        <ele>47.2</ele>
        <time>2026-03-27T15:26:50Z</time>
      </trkpt>
      <trkpt lat="43.49109" lon="6.57704">
        <ele>47</ele>
        <time>2026-03-27T15:26:51Z</time>
      </trkpt>
      <trkpt lat="43.49109" lon="6.57702">
        <ele>46.9</ele>
        <time>2026-03-27T15:26:52Z</time>
      </trkpt>
      <trkpt lat="43.49109" lon="6.57701">
        <ele>46.7</ele>
        <time>2026-03-27T15:26:53Z</time>
      </trkpt>
      <trkpt lat="43.4911" lon="6.57699">
        <ele>46.6</ele>
        <time>2026-03-27T15:26:54Z</time>
      </trkpt>
      <trkpt lat="43.4911" lon="6.57698">
        <ele>46.6</ele>
        <time>2026-03-27T15:26:55Z</time>
      </trkpt>
      <trkpt lat="43.4911" lon="6.57696">
        <ele>46.5</ele>
        <time>2026-03-27T15:26:56Z</time>
      </trkpt>
      <trkpt lat="43.49111" lon="6.57694">
        <ele>46.4</ele>
        <time>2026-03-27T15:26:57Z</time>
      </trkpt>
      <trkpt lat="43.49111" lon="6.57693">
        <ele>46.3</ele>
        <time>2026-03-27T15:26:58Z</time>
      </trkpt>
      <trkpt lat="43.49111" lon="6.57691">
        <ele>46.3</ele>
        <time>2026-03-27T15:26:59Z</time>
      </trkpt>
      <trkpt lat="43.49112" lon="6.5769">
        <ele>46.2</ele>
        <time>2026-03-27T15:27:00Z</time>
      </trkpt>
      <trkpt lat="43.49112" lon="6.57688">
        <ele>46.1</ele>
        <time>2026-03-27T15:27:01Z</time>
      </trkpt>
      <trkpt lat="43.49113" lon="6.57687">
        <ele>46.1</ele>
        <time>2026-03-27T15:27:02Z</time>
      </trkpt>
      <trkpt lat="43.49112" lon="6.57686">
        <ele>46</ele>
        <time>2026-03-27T15:27:03Z</time>
      </trkpt>
      <trkpt lat="43.49113" lon="6.57686">
        <ele>46</ele>
        <time>2026-03-27T15:27:04Z</time>
      </trkpt>
      <trkpt lat="43.49113" lon="6.57685">
        <ele>46</ele>
        <time>2026-03-27T15:27:05Z</time>
      </trkpt>
      <trkpt lat="43.49113" lon="6.57683">
        <ele>46</ele>
        <time>2026-03-27T15:27:06Z</time>
      </trkpt>
      <trkpt lat="43.49113" lon="6.57682">
        <ele>46.1</ele>
        <time>2026-03-27T15:27:07Z</time>
      </trkpt>
      <trkpt lat="43.49113" lon="6.57681">
        <ele>46</ele>
        <time>2026-03-27T15:27:08Z</time>
      </trkpt>
      <trkpt lat="43.49113" lon="6.5768">
        <ele>46</ele>
        <time>2026-03-27T15:27:09Z</time>
      </trkpt>
      <trkpt lat="43.49113" lon="6.57679">
        <ele>46</ele>
        <time>2026-03-27T15:27:10Z</time>
      </trkpt>
      <trkpt lat="43.49113" lon="6.57677">
        <ele>45.9</ele>
        <time>2026-03-27T15:27:11Z</time>
      </trkpt>
      <trkpt lat="43.49113" lon="6.57676">
        <ele>45.7</ele>
        <time>2026-03-27T15:27:12Z</time>
      </trkpt>
      <trkpt lat="43.49114" lon="6.57674">
        <ele>45.5</ele>
        <time>2026-03-27T15:27:13Z</time>
      </trkpt>
      <trkpt lat="43.49114" lon="6.57672">
        <ele>45.4</ele>
        <time>2026-03-27T15:27:14Z</time>
      </trkpt>
      <trkpt lat="43.49115" lon="6.57671">
        <ele>45.3</ele>
        <time>2026-03-27T15:27:15Z</time>
      </trkpt>
      <trkpt lat="43.49115" lon="6.5767">
        <ele>45.2</ele>
        <time>2026-03-27T15:27:16Z</time>
      </trkpt>
      <trkpt lat="43.49115" lon="6.57669">
        <ele>45.1</ele>
        <time>2026-03-27T15:27:17Z</time>
      </trkpt>
      <trkpt lat="43.49116" lon="6.57668">
        <ele>45</ele>
        <time>2026-03-27T15:27:18Z</time>
      </trkpt>
      <trkpt lat="43.49116" lon="6.57666">
        <ele>44.8</ele>
        <time>2026-03-27T15:27:19Z</time>
      </trkpt>
      <trkpt lat="43.49117" lon="6.57665">
        <ele>44.8</ele>
        <time>2026-03-27T15:27:20Z</time>
      </trkpt>
      <trkpt lat="43.49117" lon="6.57664">
        <ele>44.6</ele>
        <time>2026-03-27T15:27:21Z</time>
      </trkpt>
      <trkpt lat="43.49117" lon="6.57662">
        <ele>44.6</ele>
        <time>2026-03-27T15:27:22Z</time>
      </trkpt>
      <trkpt lat="43.49117" lon="6.57661">
        <ele>44.5</ele>
        <time>2026-03-27T15:27:23Z</time>
      </trkpt>
      <trkpt lat="43.49117" lon="6.57659">
        <ele>44.4</ele>
        <time>2026-03-27T15:27:24Z</time>
      </trkpt>
      <trkpt lat="43.49117" lon="6.57658">
        <ele>44.3</ele>
        <time>2026-03-27T15:27:25Z</time>
      </trkpt>
      <trkpt lat="43.49117" lon="6.57656">
        <ele>44.1</ele>
        <time>2026-03-27T15:27:26Z</time>
      </trkpt>
      <trkpt lat="43.49117" lon="6.57654">
        <ele>44</ele>
        <time>2026-03-27T15:27:27Z</time>
      </trkpt>
      <trkpt lat="43.49117" lon="6.57652">
        <ele>43.9</ele>
        <time>2026-03-27T15:27:28Z</time>
      </trkpt>
      <trkpt lat="43.49116" lon="6.57651">
        <ele>43.8</ele>
        <time>2026-03-27T15:27:29Z</time>
      </trkpt>
      <trkpt lat="43.49116" lon="6.57649">
        <ele>43.7</ele>
        <time>2026-03-27T15:27:30Z</time>
      </trkpt>
      <trkpt lat="43.49116" lon="6.57647">
        <ele>43.5</ele>
        <time>2026-03-27T15:27:31Z</time>
      </trkpt>
      <trkpt lat="43.49116" lon="6.57645">
        <ele>43.4</ele>
        <time>2026-03-27T15:27:32Z</time>
      </trkpt>
      <trkpt lat="43.49116" lon="6.57644">
        <ele>43.3</ele>
        <time>2026-03-27T15:27:33Z</time>
      </trkpt>
      <trkpt lat="43.49116" lon="6.57642">
        <ele>43.2</ele>
        <time>2026-03-27T15:27:34Z</time>
      </trkpt>
      <trkpt lat="43.49115" lon="6.57641">
        <ele>43.1</ele>
        <time>2026-03-27T15:27:35Z</time>
      </trkpt>
      <trkpt lat="43.49115" lon="6.5764">
        <ele>43</ele>
        <time>2026-03-27T15:27:36Z</time>
      </trkpt>
      <trkpt lat="43.49114" lon="6.57639">
        <ele>42.9</ele>
        <time>2026-03-27T15:27:37Z</time>
      </trkpt>
      <trkpt lat="43.49113" lon="6.57637">
        <ele>42.8</ele>
        <time>2026-03-27T15:27:38Z</time>
      </trkpt>
      <trkpt lat="43.49113" lon="6.57634">
        <ele>42.7</ele>
        <time>2026-03-27T15:27:39Z</time>
      </trkpt>
      <trkpt lat="43.49112" lon="6.57632">
        <ele>42.6</ele>
        <time>2026-03-27T15:27:40Z</time>
      </trkpt>
      <trkpt lat="43.49111" lon="6.57631">
        <ele>42.6</ele>
        <time>2026-03-27T15:27:41Z</time>
      </trkpt>
      <trkpt lat="43.49111" lon="6.5763">
        <ele>42.5</ele>
        <time>2026-03-27T15:27:42Z</time>
      </trkpt>
      <trkpt lat="43.49111" lon="6.57628">
        <ele>42.5</ele>
        <time>2026-03-27T15:27:43Z</time>
      </trkpt>
      <trkpt lat="43.4911" lon="6.57627">
        <ele>42.5</ele>
        <time>2026-03-27T15:27:44Z</time>
      </trkpt>
      <trkpt lat="43.4911" lon="6.57626">
        <ele>42.4</ele>
        <time>2026-03-27T15:27:45Z</time>
      </trkpt>
      <trkpt lat="43.49109" lon="6.57624">
        <ele>42.4</ele>
        <time>2026-03-27T15:27:46Z</time>
      </trkpt>
      <trkpt lat="43.49109" lon="6.57623">
        <ele>42.3</ele>
        <time>2026-03-27T15:27:47Z</time>
      </trkpt>
      <trkpt lat="43.49109" lon="6.57621">
        <ele>42.3</ele>
        <time>2026-03-27T15:27:48Z</time>
      </trkpt>
      <trkpt lat="43.49108" lon="6.5762">
        <ele>42.3</ele>
        <time>2026-03-27T15:27:49Z</time>
      </trkpt>
      <trkpt lat="43.49107" lon="6.57618">
        <ele>42.2</ele>
        <time>2026-03-27T15:27:50Z</time>
      </trkpt>
      <trkpt lat="43.49107" lon="6.57616">
        <ele>42.1</ele>
        <time>2026-03-27T15:27:51Z</time>
      </trkpt>
      <trkpt lat="43.49107" lon="6.57615">
        <ele>42</ele>
        <time>2026-03-27T15:27:52Z</time>
      </trkpt>
      <trkpt lat="43.49107" lon="6.57614">
        <ele>41.9</ele>
        <time>2026-03-27T15:27:53Z</time>
      </trkpt>
      <trkpt lat="43.49107" lon="6.57613">
        <ele>41.8</ele>
        <time>2026-03-27T15:27:54Z</time>
      </trkpt>
      <trkpt lat="43.49106" lon="6.57612">
        <ele>41.8</ele>
        <time>2026-03-27T15:27:55Z</time>
      </trkpt>
      <trkpt lat="43.49106" lon="6.5761">
        <ele>41.7</ele>
        <time>2026-03-27T15:27:56Z</time>
      </trkpt>
      <trkpt lat="43.49105" lon="6.57608">
        <ele>41.5</ele>
        <time>2026-03-27T15:27:57Z</time>
      </trkpt>
      <trkpt lat="43.49105" lon="6.57607">
        <ele>41.4</ele>
        <time>2026-03-27T15:27:58Z</time>
      </trkpt>
      <trkpt lat="43.49104" lon="6.57605">
        <ele>41.2</ele>
        <time>2026-03-27T15:27:59Z</time>
      </trkpt>
      <trkpt lat="43.49103" lon="6.57604">
        <ele>41</ele>
        <time>2026-03-27T15:28:00Z</time>
      </trkpt>
      <trkpt lat="43.49103" lon="6.57603">
        <ele>40.9</ele>
        <time>2026-03-27T15:28:01Z</time>
      </trkpt>
      <trkpt lat="43.49103" lon="6.57602">
        <ele>40.8</ele>
        <time>2026-03-27T15:28:02Z</time>
      </trkpt>
      <trkpt lat="43.49102" lon="6.576">
        <ele>40.8</ele>
        <time>2026-03-27T15:28:03Z</time>
      </trkpt>
      <trkpt lat="43.49102" lon="6.57598">
        <ele>40.8</ele>
        <time>2026-03-27T15:28:04Z</time>
      </trkpt>
      <trkpt lat="43.49102" lon="6.57597">
        <ele>40.7</ele>
        <time>2026-03-27T15:28:05Z</time>
      </trkpt>
      <trkpt lat="43.49101" lon="6.57596">
        <ele>40.7</ele>
        <time>2026-03-27T15:28:06Z</time>
      </trkpt>
      <trkpt lat="43.491" lon="6.57594">
        <ele>40.6</ele>
        <time>2026-03-27T15:28:07Z</time>
      </trkpt>
      <trkpt lat="43.491" lon="6.57593">
        <ele>40.6</ele>
        <time>2026-03-27T15:28:08Z</time>
      </trkpt>
      <trkpt lat="43.49099" lon="6.57592">
        <ele>40.6</ele>
        <time>2026-03-27T15:28:09Z</time>
      </trkpt>
      <trkpt lat="43.491" lon="6.5759">
        <ele>40.6</ele>
        <time>2026-03-27T15:28:10Z</time>
      </trkpt>
      <trkpt lat="43.491" lon="6.57589">
        <ele>40.6</ele>
        <time>2026-03-27T15:28:11Z</time>
      </trkpt>
      <trkpt lat="43.491" lon="6.57589">
        <ele>40.6</ele>
        <time>2026-03-27T15:28:12Z</time>
      </trkpt>
      <trkpt lat="43.491" lon="6.57588">
        <ele>40.7</ele>
        <time>2026-03-27T15:28:13Z</time>
      </trkpt>
      <trkpt lat="43.49101" lon="6.57588">
        <ele>40.7</ele>
        <time>2026-03-27T15:28:14Z</time>
      </trkpt>
      <trkpt lat="43.49101" lon="6.57588">
        <ele>40.7</ele>
        <time>2026-03-27T15:28:15Z</time>
      </trkpt>
      <trkpt lat="43.49101" lon="6.57587">
        <ele>40.7</ele>
        <time>2026-03-27T15:28:16Z</time>
      </trkpt>
      <trkpt lat="43.491" lon="6.57587">
        <ele>40.7</ele>
        <time>2026-03-27T15:28:17Z</time>
      </trkpt>
      <trkpt lat="43.491" lon="6.57586">
        <ele>40.7</ele>
        <time>2026-03-27T15:28:18Z</time>
      </trkpt>
      <trkpt lat="43.491" lon="6.57586">
        <ele>40.7</ele>
        <time>2026-03-27T15:28:19Z</time>
      </trkpt>
      <trkpt lat="43.49099" lon="6.57586">
        <ele>40.7</ele>
        <time>2026-03-27T15:28:20Z</time>
      </trkpt>
      <trkpt lat="43.49099" lon="6.57586">
        <ele>40.7</ele>
        <time>2026-03-27T15:28:21Z</time>
      </trkpt>
      <trkpt lat="43.49099" lon="6.57586">
        <ele>40.7</ele>
        <time>2026-03-27T15:28:22Z</time>
      </trkpt>
      <trkpt lat="43.49098" lon="6.57586">
        <ele>40.6</ele>
        <time>2026-03-27T15:28:23Z</time>
      </trkpt>
      <trkpt lat="43.49098" lon="6.57586">
        <ele>40.6</ele>
        <time>2026-03-27T15:28:24Z</time>
      </trkpt>
      <trkpt lat="43.49098" lon="6.57586">
        <ele>40.5</ele>
        <time>2026-03-27T15:28:25Z</time>
      </trkpt>
      <trkpt lat="43.49097" lon="6.57585">
        <ele>40.5</ele>
        <time>2026-03-27T15:28:26Z</time>
      </trkpt>
      <trkpt lat="43.49097" lon="6.57585">
        <ele>40.4</ele>
        <time>2026-03-27T15:28:27Z</time>
      </trkpt>
      <trkpt lat="43.49096" lon="6.57585">
        <ele>40.3</ele>
        <time>2026-03-27T15:28:28Z</time>
      </trkpt>
      <trkpt lat="43.49096" lon="6.57585">
        <ele>40.4</ele>
        <time>2026-03-27T15:28:29Z</time>
      </trkpt>
      <trkpt lat="43.49096" lon="6.57585">
        <ele>40.4</ele>
        <time>2026-03-27T15:28:30Z</time>
      </trkpt>
      <trkpt lat="43.49096" lon="6.57585">
        <ele>40.5</ele>
        <time>2026-03-27T15:28:31Z</time>
      </trkpt>
      <trkpt lat="43.49096" lon="6.57585">
        <ele>40.5</ele>
        <time>2026-03-27T15:28:32Z</time>
      </trkpt>
      <trkpt lat="43.49095" lon="6.57585">
        <ele>40.5</ele>
        <time>2026-03-27T15:28:33Z</time>
      </trkpt>
      <trkpt lat="43.49095" lon="6.57585">
        <ele>40.6</ele>
        <time>2026-03-27T15:28:34Z</time>
      </trkpt>
      <trkpt lat="43.49095" lon="6.57585">
        <ele>40.6</ele>
        <time>2026-03-27T15:28:35Z</time>
      </trkpt>
      <trkpt lat="43.49095" lon="6.57585">
        <ele>40.6</ele>
        <time>2026-03-27T15:28:36Z</time>
      </trkpt>
      <trkpt lat="43.49095" lon="6.57585">
        <ele>40.6</ele>
        <time>2026-03-27T15:28:37Z</time>
      </trkpt>
      <trkpt lat="43.49095" lon="6.57585">
        <ele>40.6</ele>
        <time>2026-03-27T15:28:38Z</time>
      </trkpt>
      <trkpt lat="43.49095" lon="6.57585">
        <ele>40.5</ele>
        <time>2026-03-27T15:28:39Z</time>
      </trkpt>
      <trkpt lat="43.49095" lon="6.57585">
        <ele>40.5</ele>
        <time>2026-03-27T15:28:40Z</time>
      </trkpt>
      <trkpt lat="43.49095" lon="6.57585">
        <ele>40.4</ele>
        <time>2026-03-27T15:28:41Z</time>
      </trkpt>
      <trkpt lat="43.49094" lon="6.57585">
        <ele>40.4</ele>
        <time>2026-03-27T15:28:42Z</time>
      </trkpt>
      <trkpt lat="43.49094" lon="6.57585">
        <ele>40.4</ele>
        <time>2026-03-27T15:28:43Z</time>
      </trkpt>
      <trkpt lat="43.49094" lon="6.57585">
        <ele>40.5</ele>
        <time>2026-03-27T15:28:44Z</time>
      </trkpt>
      <trkpt lat="43.49094" lon="6.57585">
        <ele>40.5</ele>
        <time>2026-03-27T15:28:45Z</time>
      </trkpt>
      <trkpt lat="43.49094" lon="6.57585">
        <ele>40.5</ele>
        <time>2026-03-27T15:28:46Z</time>
      </trkpt>
      <trkpt lat="43.49094" lon="6.57585">
        <ele>40.5</ele>
        <time>2026-03-27T15:28:47Z</time>
      </trkpt>
      <trkpt lat="43.49094" lon="6.57585">
        <ele>40.5</ele>
        <time>2026-03-27T15:28:48Z</time>
      </trkpt>
      <trkpt lat="43.49094" lon="6.57585">
        <ele>40.5</ele>
        <time>2026-03-27T15:28:49Z</time>
      </trkpt>
      <trkpt lat="43.49094" lon="6.57585">
        <ele>40.5</ele>
        <time>2026-03-27T15:28:50Z</time>
      </trkpt>
      <trkpt lat="43.49095" lon="6.57584">
        <ele>40.4</ele>
        <time>2026-03-27T15:28:51Z</time>
      </trkpt>
      <trkpt lat="43.49095" lon="6.57584">
        <ele>40.4</ele>
        <time>2026-03-27T15:28:52Z</time>
      </trkpt>
      <trkpt lat="43.49096" lon="6.57583">
        <ele>40.3</ele>
        <time>2026-03-27T15:28:53Z</time>
      </trkpt>
      <trkpt lat="43.49096" lon="6.57583">
        <ele>40.2</ele>
        <time>2026-03-27T15:28:54Z</time>
      </trkpt>
      <trkpt lat="43.49096" lon="6.57583">
        <ele>40.2</ele>
        <time>2026-03-27T15:28:55Z</time>
      </trkpt>
      <trkpt lat="43.49096" lon="6.57582">
        <ele>40.2</ele>
        <time>2026-03-27T15:28:56Z</time>
      </trkpt>
      <trkpt lat="43.49096" lon="6.57582">
        <ele>40.1</ele>
        <time>2026-03-27T15:28:57Z</time>
      </trkpt>
      <trkpt lat="43.49096" lon="6.57582">
        <ele>40.1</ele>
        <time>2026-03-27T15:28:58Z</time>
      </trkpt>
      <trkpt lat="43.49096" lon="6.57581">
        <ele>40.1</ele>
        <time>2026-03-27T15:28:59Z</time>
      </trkpt>
      <trkpt lat="43.49096" lon="6.57581">
        <ele>40.2</ele>
        <time>2026-03-27T15:29:00Z</time>
      </trkpt>
      <trkpt lat="43.49096" lon="6.57581">
        <ele>40.2</ele>
        <time>2026-03-27T15:29:01Z</time>
      </trkpt>
      <trkpt lat="43.49096" lon="6.57581">
        <ele>40.3</ele>
        <time>2026-03-27T15:29:02Z</time>
      </trkpt>
      <trkpt lat="43.49096" lon="6.57581">
        <ele>40.4</ele>
        <time>2026-03-27T15:29:03Z</time>
      </trkpt>
      <trkpt lat="43.49096" lon="6.57581">
        <ele>40.5</ele>
        <time>2026-03-27T15:29:04Z</time>
      </trkpt>
      <trkpt lat="43.49096" lon="6.57582">
        <ele>40.6</ele>
        <time>2026-03-27T15:29:05Z</time>
      </trkpt>
      <trkpt lat="43.49096" lon="6.57582">
        <ele>40.6</ele>
        <time>2026-03-27T15:29:06Z</time>
      </trkpt>
      <trkpt lat="43.49096" lon="6.57581">
        <ele>40.7</ele>
        <time>2026-03-27T15:29:07Z</time>
      </trkpt>
      <trkpt lat="43.49096" lon="6.57582">
        <ele>40.7</ele>
        <time>2026-03-27T15:29:08Z</time>
      </trkpt>
      <trkpt lat="43.49096" lon="6.57581">
        <ele>40.7</ele>
        <time>2026-03-27T15:29:09Z</time>
      </trkpt>
      <trkpt lat="43.49096" lon="6.57581">
        <ele>40.7</ele>
        <time>2026-03-27T15:29:10Z</time>
      </trkpt>
      <trkpt lat="43.49097" lon="6.57581">
        <ele>40.7</ele>
        <time>2026-03-27T15:29:11Z</time>
      </trkpt>
      <trkpt lat="43.49097" lon="6.57581">
        <ele>40.7</ele>
        <time>2026-03-27T15:29:12Z</time>
      </trkpt>
      <trkpt lat="43.49097" lon="6.57581">
        <ele>40.7</ele>
        <time>2026-03-27T15:29:13Z</time>
      </trkpt>
      <trkpt lat="43.49098" lon="6.5758">
        <ele>40.6</ele>
        <time>2026-03-27T15:29:14Z</time>
      </trkpt>
      <trkpt lat="43.49098" lon="6.5758">
        <ele>40.6</ele>
        <time>2026-03-27T15:29:15Z</time>
      </trkpt>
      <trkpt lat="43.49098" lon="6.5758">
        <ele>40.5</ele>
        <time>2026-03-27T15:29:16Z</time>
      </trkpt>
      <trkpt lat="43.49098" lon="6.5758">
        <ele>40.5</ele>
        <time>2026-03-27T15:29:17Z</time>
      </trkpt>
      <trkpt lat="43.49098" lon="6.5758">
        <ele>40.5</ele>
        <time>2026-03-27T15:29:18Z</time>
      </trkpt>
      <trkpt lat="43.49099" lon="6.5758">
        <ele>40.5</ele>
        <time>2026-03-27T15:29:19Z</time>
      </trkpt>
      <trkpt lat="43.49098" lon="6.5758">
        <ele>40.5</ele>
        <time>2026-03-27T15:29:20Z</time>
      </trkpt>
      <trkpt lat="43.49098" lon="6.5758">
        <ele>40.6</ele>
        <time>2026-03-27T15:29:21Z</time>
      </trkpt>
      <trkpt lat="43.49098" lon="6.5758">
        <ele>40.7</ele>
        <time>2026-03-27T15:29:22Z</time>
      </trkpt>
      <trkpt lat="43.49098" lon="6.5758">
        <ele>40.7</ele>
        <time>2026-03-27T15:29:23Z</time>
      </trkpt>
      <trkpt lat="43.49098" lon="6.5758">
        <ele>40.8</ele>
        <time>2026-03-27T15:29:24Z</time>
      </trkpt>
      <trkpt lat="43.49098" lon="6.5758">
        <ele>40.8</ele>
        <time>2026-03-27T15:29:25Z</time>
      </trkpt>
      <trkpt lat="43.49098" lon="6.5758">
        <ele>40.8</ele>
        <time>2026-03-27T15:29:26Z</time>
      </trkpt>
      <trkpt lat="43.49098" lon="6.5758">
        <ele>40.7</ele>
        <time>2026-03-27T15:29:27Z</time>
      </trkpt>
      <trkpt lat="43.49098" lon="6.5758">
        <ele>40.7</ele>
        <time>2026-03-27T15:29:28Z</time>
      </trkpt>
      <trkpt lat="43.49098" lon="6.57581">
        <ele>40.6</ele>
        <time>2026-03-27T15:29:29Z</time>
      </trkpt>
      <trkpt lat="43.49098" lon="6.5758">
        <ele>40.6</ele>
        <time>2026-03-27T15:29:30Z</time>
      </trkpt>
      <trkpt lat="43.49098" lon="6.5758">
        <ele>40.5</ele>
        <time>2026-03-27T15:29:31Z</time>
      </trkpt>
      <trkpt lat="43.49098" lon="6.5758">
        <ele>40.5</ele>
        <time>2026-03-27T15:29:32Z</time>
      </trkpt>
      <trkpt lat="43.49098" lon="6.5758">
        <ele>40.5</ele>
        <time>2026-03-27T15:29:33Z</time>
      </trkpt>
      <trkpt lat="43.49098" lon="6.5758">
        <ele>40.6</ele>
        <time>2026-03-27T15:29:34Z</time>
      </trkpt>
      <trkpt lat="43.49098" lon="6.5758">
        <ele>40.5</ele>
        <time>2026-03-27T15:29:35Z</time>
      </trkpt>
      <trkpt lat="43.49098" lon="6.5758">
        <ele>40.6</ele>
        <time>2026-03-27T15:29:36Z</time>
      </trkpt>
      <trkpt lat="43.49098" lon="6.5758">
        <ele>40.7</ele>
        <time>2026-03-27T15:29:37Z</time>
      </trkpt>
      <trkpt lat="43.49098" lon="6.5758">
        <ele>40.7</ele>
        <time>2026-03-27T15:29:38Z</time>
      </trkpt>
      <trkpt lat="43.49098" lon="6.5758">
        <ele>40.8</ele>
        <time>2026-03-27T15:29:39Z</time>
      </trkpt>
      <trkpt lat="43.49098" lon="6.5758">
        <ele>40.7</ele>
        <time>2026-03-27T15:29:40Z</time>
      </trkpt>
      <trkpt lat="43.49098" lon="6.5758">
        <ele>40.6</ele>
        <time>2026-03-27T15:29:41Z</time>
      </trkpt>
      <trkpt lat="43.49098" lon="6.5758">
        <ele>40.5</ele>
        <time>2026-03-27T15:29:42Z</time>
      </trkpt>
      <trkpt lat="43.49098" lon="6.57579">
        <ele>40.5</ele>
        <time>2026-03-27T15:29:43Z</time>
      </trkpt>
      <trkpt lat="43.49098" lon="6.57579">
        <ele>40.4</ele>
        <time>2026-03-27T15:29:44Z</time>
      </trkpt>
      <trkpt lat="43.49098" lon="6.57579">
        <ele>40.4</ele>
        <time>2026-03-27T15:29:45Z</time>
      </trkpt>
      <trkpt lat="43.49097" lon="6.57579">
        <ele>40.3</ele>
        <time>2026-03-27T15:29:46Z</time>
      </trkpt>
      <trkpt lat="43.49097" lon="6.57579">
        <ele>40.2</ele>
        <time>2026-03-27T15:29:47Z</time>
      </trkpt>
      <trkpt lat="43.49097" lon="6.57579">
        <ele>40.2</ele>
        <time>2026-03-27T15:29:48Z</time>
      </trkpt>
      <trkpt lat="43.49097" lon="6.57579">
        <ele>40.3</ele>
        <time>2026-03-27T15:29:49Z</time>
      </trkpt>
      <trkpt lat="43.49097" lon="6.57579">
        <ele>40.4</ele>
        <time>2026-03-27T15:29:50Z</time>
      </trkpt>
      <trkpt lat="43.49097" lon="6.57579">
        <ele>40.3</ele>
        <time>2026-03-27T15:29:51Z</time>
      </trkpt>
      <trkpt lat="43.49097" lon="6.57579">
        <ele>40.3</ele>
        <time>2026-03-27T15:29:52Z</time>
      </trkpt>
      <trkpt lat="43.49097" lon="6.57579">
        <ele>40.3</ele>
        <time>2026-03-27T15:29:53Z</time>
      </trkpt>
      <trkpt lat="43.49097" lon="6.57579">
        <ele>40.3</ele>
        <time>2026-03-27T15:29:54Z</time>
      </trkpt>
      <trkpt lat="43.49097" lon="6.57579">
        <ele>40.3</ele>
        <time>2026-03-27T15:29:55Z</time>
      </trkpt>
      <trkpt lat="43.49097" lon="6.57579">
        <ele>40.4</ele>
        <time>2026-03-27T15:29:56Z</time>
      </trkpt>
      <trkpt lat="43.49097" lon="6.57579">
        <ele>40.5</ele>
        <time>2026-03-27T15:29:57Z</time>
      </trkpt>
      <trkpt lat="43.49097" lon="6.57579">
        <ele>40.5</ele>
        <time>2026-03-27T15:29:58Z</time>
      </trkpt>
      <trkpt lat="43.49097" lon="6.57579">
        <ele>40.6</ele>
        <time>2026-03-27T15:29:59Z</time>
      </trkpt>
      <trkpt lat="43.49097" lon="6.57579">
        <ele>40.6</ele>
        <time>2026-03-27T15:30:00Z</time>
      </trkpt>
      <trkpt lat="43.49097" lon="6.57579">
        <ele>40.6</ele>
        <time>2026-03-27T15:30:01Z</time>
      </trkpt>
      <trkpt lat="43.49097" lon="6.57579">
        <ele>40.6</ele>
        <time>2026-03-27T15:30:02Z</time>
      </trkpt>
      <trkpt lat="43.49097" lon="6.57579">
        <ele>40.5</ele>
        <time>2026-03-27T15:30:03Z</time>
      </trkpt>
      <trkpt lat="43.49097" lon="6.57579">
        <ele>40.5</ele>
        <time>2026-03-27T15:30:04Z</time>
      </trkpt>
      <trkpt lat="43.49097" lon="6.57579">
        <ele>40.4</ele>
        <time>2026-03-27T15:30:05Z</time>
      </trkpt>
      <trkpt lat="43.49097" lon="6.57579">
        <ele>40.4</ele>
        <time>2026-03-27T15:30:06Z</time>
      </trkpt>
      <trkpt lat="43.49097" lon="6.57579">
        <ele>40.3</ele>
        <time>2026-03-27T15:30:07Z</time>
      </trkpt>
      <trkpt lat="43.49097" lon="6.57579">
        <ele>40.3</ele>
        <time>2026-03-27T15:30:08Z</time>
      </trkpt>
      <trkpt lat="43.49097" lon="6.57579">
        <ele>40.3</ele>
        <time>2026-03-27T15:30:09Z</time>
      </trkpt>
      <trkpt lat="43.49097" lon="6.57579">
        <ele>40.4</ele>
        <time>2026-03-27T15:30:10Z</time>
      </trkpt>
      <trkpt lat="43.49097" lon="6.57579">
        <ele>40.4</ele>
        <time>2026-03-27T15:30:11Z</time>
      </trkpt>
      <trkpt lat="43.49097" lon="6.57579">
        <ele>40.4</ele>
        <time>2026-03-27T15:30:12Z</time>
      </trkpt>
      <trkpt lat="43.49097" lon="6.57579">
        <ele>40.4</ele>
        <time>2026-03-27T15:30:13Z</time>
      </trkpt>
      <trkpt lat="43.49097" lon="6.57579">
        <ele>40.4</ele>
        <time>2026-03-27T15:30:14Z</time>
      </trkpt>
      <trkpt lat="43.49097" lon="6.57579">
        <ele>40.4</ele>
        <time>2026-03-27T15:30:15Z</time>
      </trkpt>
      <trkpt lat="43.49097" lon="6.57579">
        <ele>40.4</ele>
        <time>2026-03-27T15:30:16Z</time>
      </trkpt>
      <trkpt lat="43.49097" lon="6.57579">
        <ele>40.5</ele>
        <time>2026-03-27T15:30:17Z</time>
      </trkpt>
      <trkpt lat="43.49097" lon="6.57579">
        <ele>40.6</ele>
        <time>2026-03-27T15:30:18Z</time>
      </trkpt>
      <trkpt lat="43.49097" lon="6.57579">
        <ele>40.6</ele>
        <time>2026-03-27T15:30:19Z</time>
      </trkpt>
      <trkpt lat="43.49097" lon="6.57579">
        <ele>40.6</ele>
        <time>2026-03-27T15:30:20Z</time>
      </trkpt>
      <trkpt lat="43.49097" lon="6.57579">
        <ele>40.6</ele>
        <time>2026-03-27T15:30:21Z</time>
      </trkpt>
      <trkpt lat="43.49097" lon="6.57579">
        <ele>40.6</ele>
        <time>2026-03-27T15:30:22Z</time>
      </trkpt>
      <trkpt lat="43.49097" lon="6.57579">
        <ele>40.5</ele>
        <time>2026-03-27T15:30:23Z</time>
      </trkpt>
      <trkpt lat="43.49097" lon="6.57579">
        <ele>40.5</ele>
        <time>2026-03-27T15:30:24Z</time>
      </trkpt>
      <trkpt lat="43.49097" lon="6.57579">
        <ele>40.5</ele>
        <time>2026-03-27T15:30:25Z</time>
      </trkpt>
      <trkpt lat="43.49097" lon="6.57579">
        <ele>40.4</ele>
        <time>2026-03-27T15:30:26Z</time>
      </trkpt>
      <trkpt lat="43.49097" lon="6.57579">
        <ele>40.4</ele>
        <time>2026-03-27T15:30:27Z</time>
      </trkpt>
      <trkpt lat="43.49097" lon="6.57579">
        <ele>40.4</ele>
        <time>2026-03-27T15:30:28Z</time>
      </trkpt>
      <trkpt lat="43.49097" lon="6.5758">
        <ele>40.4</ele>
        <time>2026-03-27T15:30:29Z</time>
      </trkpt>
      <trkpt lat="43.49097" lon="6.5758">
        <ele>40.5</ele>
        <time>2026-03-27T15:30:30Z</time>
      </trkpt>
      <trkpt lat="43.49097" lon="6.5758">
        <ele>40.5</ele>
        <time>2026-03-27T15:30:31Z</time>
      </trkpt>
      <trkpt lat="43.49097" lon="6.5758">
        <ele>40.6</ele>
        <time>2026-03-27T15:30:32Z</time>
      </trkpt>
      <trkpt lat="43.49097" lon="6.5758">
        <ele>40.6</ele>
        <time>2026-03-27T15:30:33Z</time>
      </trkpt>
      <trkpt lat="43.49097" lon="6.5758">
        <ele>40.6</ele>
        <time>2026-03-27T15:30:34Z</time>
      </trkpt>
      <trkpt lat="43.49097" lon="6.5758">
        <ele>40.6</ele>
        <time>2026-03-27T15:30:35Z</time>
      </trkpt>
      <trkpt lat="43.49097" lon="6.5758">
        <ele>40.5</ele>
        <time>2026-03-27T15:30:36Z</time>
      </trkpt>
      <trkpt lat="43.49097" lon="6.5758">
        <ele>40.5</ele>
        <time>2026-03-27T15:30:37Z</time>
      </trkpt>
      <trkpt lat="43.49097" lon="6.5758">
        <ele>40.5</ele>
        <time>2026-03-27T15:30:38Z</time>
      </trkpt>
      <trkpt lat="43.49097" lon="6.5758">
        <ele>40.5</ele>
        <time>2026-03-27T15:30:39Z</time>
      </trkpt>
      <trkpt lat="43.49097" lon="6.5758">
        <ele>40.4</ele>
        <time>2026-03-27T15:30:40Z</time>
      </trkpt>
      <trkpt lat="43.49098" lon="6.5758">
        <ele>40.5</ele>
        <time>2026-03-27T15:30:41Z</time>
      </trkpt>
      <trkpt lat="43.49098" lon="6.57581">
        <ele>40.5</ele>
        <time>2026-03-27T15:30:42Z</time>
      </trkpt>
      <trkpt lat="43.49098" lon="6.57581">
        <ele>40.4</ele>
        <time>2026-03-27T15:30:43Z</time>
      </trkpt>
      <trkpt lat="43.49098" lon="6.57581">
        <ele>40.4</ele>
        <time>2026-03-27T15:30:44Z</time>
      </trkpt>
      <trkpt lat="43.49098" lon="6.57581">
        <ele>40.4</ele>
        <time>2026-03-27T15:30:45Z</time>
      </trkpt>
      <trkpt lat="43.49098" lon="6.57581">
        <ele>40.4</ele>
        <time>2026-03-27T15:30:46Z</time>
      </trkpt>
      <trkpt lat="43.49098" lon="6.57581">
        <ele>40.4</ele>
        <time>2026-03-27T15:30:47Z</time>
      </trkpt>
      <trkpt lat="43.49098" lon="6.57581">
        <ele>40.4</ele>
        <time>2026-03-27T15:30:48Z</time>
      </trkpt>
      <trkpt lat="43.49098" lon="6.57581">
        <ele>40.5</ele>
        <time>2026-03-27T15:30:49Z</time>
      </trkpt>
      <trkpt lat="43.49098" lon="6.57581">
        <ele>40.5</ele>
        <time>2026-03-27T15:30:50Z</time>
      </trkpt>
      <trkpt lat="43.49099" lon="6.57581">
        <ele>40.6</ele>
        <time>2026-03-27T15:30:51Z</time>
      </trkpt>
      <trkpt lat="43.49099" lon="6.57581">
        <ele>40.7</ele>
        <time>2026-03-27T15:30:52Z</time>
      </trkpt>
      <trkpt lat="43.49099" lon="6.57581">
        <ele>40.7</ele>
        <time>2026-03-27T15:30:53Z</time>
      </trkpt>
      <trkpt lat="43.49099" lon="6.57581">
        <ele>40.7</ele>
        <time>2026-03-27T15:30:54Z</time>
      </trkpt>
      <trkpt lat="43.49099" lon="6.57581">
        <ele>40.7</ele>
        <time>2026-03-27T15:30:55Z</time>
      </trkpt>
      <trkpt lat="43.49099" lon="6.57581">
        <ele>40.7</ele>
        <time>2026-03-27T15:30:56Z</time>
      </trkpt>
      <trkpt lat="43.49099" lon="6.57581">
        <ele>40.7</ele>
        <time>2026-03-27T15:30:57Z</time>
      </trkpt>
      <trkpt lat="43.49099" lon="6.57581">
        <ele>40.6</ele>
        <time>2026-03-27T15:30:58Z</time>
      </trkpt>
      <trkpt lat="43.49099" lon="6.57581">
        <ele>40.6</ele>
        <time>2026-03-27T15:30:59Z</time>
      </trkpt>
      <trkpt lat="43.491" lon="6.57581">
        <ele>40.5</ele>
        <time>2026-03-27T15:31:00Z</time>
      </trkpt>
      <trkpt lat="43.491" lon="6.57581">
        <ele>40.5</ele>
        <time>2026-03-27T15:31:01Z</time>
      </trkpt>
      <trkpt lat="43.491" lon="6.57581">
        <ele>40.5</ele>
        <time>2026-03-27T15:31:02Z</time>
      </trkpt>
      <trkpt lat="43.491" lon="6.57581">
        <ele>40.5</ele>
        <time>2026-03-27T15:31:03Z</time>
      </trkpt>
      <trkpt lat="43.491" lon="6.5758">
        <ele>40.5</ele>
        <time>2026-03-27T15:31:04Z</time>
      </trkpt>
      <trkpt lat="43.491" lon="6.5758">
        <ele>40.5</ele>
        <time>2026-03-27T15:31:05Z</time>
      </trkpt>
      <trkpt lat="43.491" lon="6.5758">
        <ele>40.5</ele>
        <time>2026-03-27T15:31:06Z</time>
      </trkpt>
      <trkpt lat="43.491" lon="6.5758">
        <ele>40.5</ele>
        <time>2026-03-27T15:31:07Z</time>
      </trkpt>
      <trkpt lat="43.491" lon="6.5758">
        <ele>40.4</ele>
        <time>2026-03-27T15:31:08Z</time>
      </trkpt>
      <trkpt lat="43.491" lon="6.5758">
        <ele>40.3</ele>
        <time>2026-03-27T15:31:09Z</time>
      </trkpt>
      <trkpt lat="43.491" lon="6.5758">
        <ele>40.3</ele>
        <time>2026-03-27T15:31:10Z</time>
      </trkpt>
      <trkpt lat="43.491" lon="6.5758">
        <ele>40.3</ele>
        <time>2026-03-27T15:31:11Z</time>
      </trkpt>
      <trkpt lat="43.491" lon="6.5758">
        <ele>40.4</ele>
        <time>2026-03-27T15:31:12Z</time>
      </trkpt>
      <trkpt lat="43.491" lon="6.5758">
        <ele>40.4</ele>
        <time>2026-03-27T15:31:13Z</time>
      </trkpt>
      <trkpt lat="43.491" lon="6.5758">
        <ele>40.5</ele>
        <time>2026-03-27T15:31:14Z</time>
      </trkpt>
      <trkpt lat="43.49101" lon="6.5758">
        <ele>40.6</ele>
        <time>2026-03-27T15:31:15Z</time>
      </trkpt>
      <trkpt lat="43.49101" lon="6.57581">
        <ele>40.6</ele>
        <time>2026-03-27T15:31:16Z</time>
      </trkpt>
      <trkpt lat="43.49101" lon="6.57581">
        <ele>40.6</ele>
        <time>2026-03-27T15:31:17Z</time>
      </trkpt>
      <trkpt lat="43.49101" lon="6.57581">
        <ele>40.6</ele>
        <time>2026-03-27T15:31:18Z</time>
      </trkpt>
      <trkpt lat="43.49101" lon="6.57581">
        <ele>40.6</ele>
        <time>2026-03-27T15:31:19Z</time>
      </trkpt>
      <trkpt lat="43.49101" lon="6.57581">
        <ele>40.6</ele>
        <time>2026-03-27T15:31:20Z</time>
      </trkpt>
      <trkpt lat="43.49101" lon="6.5758">
        <ele>40.7</ele>
        <time>2026-03-27T15:31:21Z</time>
      </trkpt>
      <trkpt lat="43.49102" lon="6.5758">
        <ele>40.7</ele>
        <time>2026-03-27T15:31:22Z</time>
      </trkpt>
      <trkpt lat="43.49102" lon="6.57581">
        <ele>40.7</ele>
        <time>2026-03-27T15:31:23Z</time>
      </trkpt>
      <trkpt lat="43.49102" lon="6.57581">
        <ele>40.7</ele>
        <time>2026-03-27T15:31:24Z</time>
      </trkpt>
      <trkpt lat="43.49102" lon="6.5758">
        <ele>40.8</ele>
        <time>2026-03-27T15:31:25Z</time>
      </trkpt>
      <trkpt lat="43.49102" lon="6.5758">
        <ele>40.8</ele>
        <time>2026-03-27T15:31:26Z</time>
      </trkpt>
      <trkpt lat="43.49102" lon="6.5758">
        <ele>40.8</ele>
        <time>2026-03-27T15:31:27Z</time>
      </trkpt>
      <trkpt lat="43.49102" lon="6.5758">
        <ele>40.8</ele>
        <time>2026-03-27T15:31:28Z</time>
      </trkpt>
      <trkpt lat="43.49101" lon="6.5758">
        <ele>40.8</ele>
        <time>2026-03-27T15:31:29Z</time>
      </trkpt>
      <trkpt lat="43.49101" lon="6.5758">
        <ele>40.8</ele>
        <time>2026-03-27T15:31:30Z</time>
      </trkpt>
      <trkpt lat="43.49101" lon="6.5758">
        <ele>40.8</ele>
        <time>2026-03-27T15:31:31Z</time>
      </trkpt>
      <trkpt lat="43.49101" lon="6.5758">
        <ele>40.8</ele>
        <time>2026-03-27T15:31:32Z</time>
      </trkpt>
      <trkpt lat="43.49101" lon="6.5758">
        <ele>40.8</ele>
        <time>2026-03-27T15:31:33Z</time>
      </trkpt>
      <trkpt lat="43.49101" lon="6.5758">
        <ele>40.8</ele>
        <time>2026-03-27T15:31:34Z</time>
      </trkpt>
      <trkpt lat="43.49101" lon="6.5758">
        <ele>40.8</ele>
        <time>2026-03-27T15:31:35Z</time>
      </trkpt>
      <trkpt lat="43.49101" lon="6.5758">
        <ele>40.8</ele>
        <time>2026-03-27T15:31:36Z</time>
      </trkpt>
      <trkpt lat="43.49101" lon="6.5758">
        <ele>40.7</ele>
        <time>2026-03-27T15:31:37Z</time>
      </trkpt>
      <trkpt lat="43.491" lon="6.5758">
        <ele>40.8</ele>
        <time>2026-03-27T15:31:38Z</time>
      </trkpt>
      <trkpt lat="43.491" lon="6.57579">
        <ele>40.8</ele>
        <time>2026-03-27T15:31:39Z</time>
      </trkpt>
      <trkpt lat="43.49101" lon="6.57579">
        <ele>40.7</ele>
        <time>2026-03-27T15:31:40Z</time>
      </trkpt>
      <trkpt lat="43.49101" lon="6.57579">
        <ele>40.7</ele>
        <time>2026-03-27T15:31:41Z</time>
      </trkpt>
      <trkpt lat="43.491" lon="6.57579">
        <ele>40.8</ele>
        <time>2026-03-27T15:31:42Z</time>
      </trkpt>
      <trkpt lat="43.491" lon="6.57579">
        <ele>40.9</ele>
        <time>2026-03-27T15:31:43Z</time>
      </trkpt>
      <trkpt lat="43.491" lon="6.57579">
        <ele>40.8</ele>
        <time>2026-03-27T15:31:44Z</time>
      </trkpt>
      <trkpt lat="43.49101" lon="6.57579">
        <ele>40.7</ele>
        <time>2026-03-27T15:31:45Z</time>
      </trkpt>
      <trkpt lat="43.49101" lon="6.57579">
        <ele>40.8</ele>
        <time>2026-03-27T15:31:46Z</time>
      </trkpt>
      <trkpt lat="43.49101" lon="6.57579">
        <ele>40.7</ele>
        <time>2026-03-27T15:31:47Z</time>
      </trkpt>
      <trkpt lat="43.49101" lon="6.57579">
        <ele>40.7</ele>
        <time>2026-03-27T15:31:48Z</time>
      </trkpt>
      <trkpt lat="43.49101" lon="6.57579">
        <ele>40.7</ele>
        <time>2026-03-27T15:31:49Z</time>
      </trkpt>
      <trkpt lat="43.49101" lon="6.57579">
        <ele>40.6</ele>
        <time>2026-03-27T15:31:50Z</time>
      </trkpt>
      <trkpt lat="43.49101" lon="6.57579">
        <ele>40.6</ele>
        <time>2026-03-27T15:31:51Z</time>
      </trkpt>
      <trkpt lat="43.49101" lon="6.57579">
        <ele>40.5</ele>
        <time>2026-03-27T15:31:52Z</time>
      </trkpt>
      <trkpt lat="43.49101" lon="6.57579">
        <ele>40.5</ele>
        <time>2026-03-27T15:31:53Z</time>
      </trkpt>
      <trkpt lat="43.49101" lon="6.57579">
        <ele>40.5</ele>
        <time>2026-03-27T15:31:54Z</time>
      </trkpt>
      <trkpt lat="43.49101" lon="6.57579">
        <ele>40.5</ele>
        <time>2026-03-27T15:31:55Z</time>
      </trkpt>
      <trkpt lat="43.49101" lon="6.57579">
        <ele>40.5</ele>
        <time>2026-03-27T15:31:56Z</time>
      </trkpt>
      <trkpt lat="43.49101" lon="6.57579">
        <ele>40.5</ele>
        <time>2026-03-27T15:31:57Z</time>
      </trkpt>
      <trkpt lat="43.49101" lon="6.57579">
        <ele>40.6</ele>
        <time>2026-03-27T15:31:58Z</time>
      </trkpt>
      <trkpt lat="43.49101" lon="6.57579">
        <ele>40.6</ele>
        <time>2026-03-27T15:31:59Z</time>
      </trkpt>
      <trkpt lat="43.49101" lon="6.57579">
        <ele>40.6</ele>
        <time>2026-03-27T15:32:00Z</time>
      </trkpt>
      <trkpt lat="43.49101" lon="6.57579">
        <ele>40.6</ele>
        <time>2026-03-27T15:32:01Z</time>
      </trkpt>
      <trkpt lat="43.491" lon="6.57579">
        <ele>40.6</ele>
        <time>2026-03-27T15:32:02Z</time>
      </trkpt>
      <trkpt lat="43.491" lon="6.57579">
        <ele>40.5</ele>
        <time>2026-03-27T15:32:03Z</time>
      </trkpt>
      <trkpt lat="43.491" lon="6.57579">
        <ele>40.5</ele>
        <time>2026-03-27T15:32:04Z</time>
      </trkpt>
      <trkpt lat="43.491" lon="6.57578">
        <ele>40.4</ele>
        <time>2026-03-27T15:32:05Z</time>
      </trkpt>
      <trkpt lat="43.491" lon="6.57578">
        <ele>40.3</ele>
        <time>2026-03-27T15:32:06Z</time>
      </trkpt>
      <trkpt lat="43.491" lon="6.57578">
        <ele>40.2</ele>
        <time>2026-03-27T15:32:07Z</time>
      </trkpt>
      <trkpt lat="43.491" lon="6.57578">
        <ele>40.1</ele>
        <time>2026-03-27T15:32:08Z</time>
      </trkpt>
      <trkpt lat="43.491" lon="6.57578">
        <ele>40.1</ele>
        <time>2026-03-27T15:32:09Z</time>
      </trkpt>
      <trkpt lat="43.491" lon="6.57578">
        <ele>40.1</ele>
        <time>2026-03-27T15:32:10Z</time>
      </trkpt>
      <trkpt lat="43.491" lon="6.57578">
        <ele>40</ele>
        <time>2026-03-27T15:32:11Z</time>
      </trkpt>
      <trkpt lat="43.491" lon="6.57578">
        <ele>40</ele>
        <time>2026-03-27T15:32:12Z</time>
      </trkpt>
      <trkpt lat="43.491" lon="6.57578">
        <ele>40.1</ele>
        <time>2026-03-27T15:32:13Z</time>
      </trkpt>
      <trkpt lat="43.491" lon="6.57578">
        <ele>40.1</ele>
        <time>2026-03-27T15:32:14Z</time>
      </trkpt>
      <trkpt lat="43.491" lon="6.57578">
        <ele>40.2</ele>
        <time>2026-03-27T15:32:15Z</time>
      </trkpt>
      <trkpt lat="43.491" lon="6.57578">
        <ele>40.2</ele>
        <time>2026-03-27T15:32:16Z</time>
      </trkpt>
      <trkpt lat="43.491" lon="6.57577">
        <ele>40.2</ele>
        <time>2026-03-27T15:32:17Z</time>
      </trkpt>
      <trkpt lat="43.491" lon="6.57577">
        <ele>40.3</ele>
        <time>2026-03-27T15:32:18Z</time>
      </trkpt>
      <trkpt lat="43.491" lon="6.57577">
        <ele>40.3</ele>
        <time>2026-03-27T15:32:19Z</time>
      </trkpt>
      <trkpt lat="43.49101" lon="6.57577">
        <ele>40.3</ele>
        <time>2026-03-27T15:32:20Z</time>
      </trkpt>
      <trkpt lat="43.49101" lon="6.57577">
        <ele>40.3</ele>
        <time>2026-03-27T15:32:21Z</time>
      </trkpt>
      <trkpt lat="43.49101" lon="6.57577">
        <ele>40.3</ele>
        <time>2026-03-27T15:32:22Z</time>
      </trkpt>
      <trkpt lat="43.49101" lon="6.57577">
        <ele>40.3</ele>
        <time>2026-03-27T15:32:23Z</time>
      </trkpt>
      <trkpt lat="43.49101" lon="6.57577">
        <ele>40.3</ele>
        <time>2026-03-27T15:32:24Z</time>
      </trkpt>
      <trkpt lat="43.49101" lon="6.57577">
        <ele>40.3</ele>
        <time>2026-03-27T15:32:25Z</time>
      </trkpt>
      <trkpt lat="43.49101" lon="6.57578">
        <ele>40.3</ele>
        <time>2026-03-27T15:32:26Z</time>
      </trkpt>
      <trkpt lat="43.49101" lon="6.57579">
        <ele>40.4</ele>
        <time>2026-03-27T15:32:27Z</time>
      </trkpt>
      <trkpt lat="43.49102" lon="6.5758">
        <ele>40.4</ele>
        <time>2026-03-27T15:32:28Z</time>
      </trkpt>
      <trkpt lat="43.49102" lon="6.5758">
        <ele>40.5</ele>
        <time>2026-03-27T15:32:29Z</time>
      </trkpt>
      <trkpt lat="43.49103" lon="6.5758">
        <ele>40.5</ele>
        <time>2026-03-27T15:32:30Z</time>
      </trkpt>
      <trkpt lat="43.49104" lon="6.5758">
        <ele>40.6</ele>
        <time>2026-03-27T15:32:31Z</time>
      </trkpt>
      <trkpt lat="43.49105" lon="6.5758">
        <ele>40.7</ele>
        <time>2026-03-27T15:32:32Z</time>
      </trkpt>
      <trkpt lat="43.49106" lon="6.57581">
        <ele>40.7</ele>
        <time>2026-03-27T15:32:33Z</time>
      </trkpt>
      <trkpt lat="43.49107" lon="6.57582">
        <ele>40.7</ele>
        <time>2026-03-27T15:32:34Z</time>
      </trkpt>
      <trkpt lat="43.49108" lon="6.57583">
        <ele>40.8</ele>
        <time>2026-03-27T15:32:35Z</time>
      </trkpt>
      <trkpt lat="43.49109" lon="6.57583">
        <ele>40.7</ele>
        <time>2026-03-27T15:32:36Z</time>
      </trkpt>
      <trkpt lat="43.4911" lon="6.57583">
        <ele>40.7</ele>
        <time>2026-03-27T15:32:37Z</time>
      </trkpt>
      <trkpt lat="43.49111" lon="6.57582">
        <ele>40.7</ele>
        <time>2026-03-27T15:32:38Z</time>
      </trkpt>
      <trkpt lat="43.49111" lon="6.57582">
        <ele>40.6</ele>
        <time>2026-03-27T15:32:39Z</time>
      </trkpt>
      <trkpt lat="43.49112" lon="6.57582">
        <ele>40.6</ele>
        <time>2026-03-27T15:32:40Z</time>
      </trkpt>
      <trkpt lat="43.49114" lon="6.57582">
        <ele>40.5</ele>
        <time>2026-03-27T15:32:41Z</time>
      </trkpt>
      <trkpt lat="43.49115" lon="6.57583">
        <ele>40.7</ele>
        <time>2026-03-27T15:32:42Z</time>
      </trkpt>
      <trkpt lat="43.49116" lon="6.57583">
        <ele>40.7</ele>
        <time>2026-03-27T15:32:43Z</time>
      </trkpt>
      <trkpt lat="43.49116" lon="6.57583">
        <ele>40.7</ele>
        <time>2026-03-27T15:32:44Z</time>
      </trkpt>
      <trkpt lat="43.49117" lon="6.57584">
        <ele>40.6</ele>
        <time>2026-03-27T15:32:45Z</time>
      </trkpt>
      <trkpt lat="43.49118" lon="6.57584">
        <ele>40.6</ele>
        <time>2026-03-27T15:32:46Z</time>
      </trkpt>
      <trkpt lat="43.49118" lon="6.57585">
        <ele>40.6</ele>
        <time>2026-03-27T15:32:47Z</time>
      </trkpt>
      <trkpt lat="43.49119" lon="6.57586">
        <ele>40.6</ele>
        <time>2026-03-27T15:32:48Z</time>
      </trkpt>
      <trkpt lat="43.49119" lon="6.57586">
        <ele>40.6</ele>
        <time>2026-03-27T15:32:49Z</time>
      </trkpt>
      <trkpt lat="43.4912" lon="6.57587">
        <ele>40.6</ele>
        <time>2026-03-27T15:32:50Z</time>
      </trkpt>
      <trkpt lat="43.49121" lon="6.57587">
        <ele>40.5</ele>
        <time>2026-03-27T15:32:51Z</time>
      </trkpt>
      <trkpt lat="43.49122" lon="6.57587">
        <ele>40.5</ele>
        <time>2026-03-27T15:32:52Z</time>
      </trkpt>
      <trkpt lat="43.49122" lon="6.57587">
        <ele>40.5</ele>
        <time>2026-03-27T15:32:53Z</time>
      </trkpt>
      <trkpt lat="43.49123" lon="6.57587">
        <ele>40.5</ele>
        <time>2026-03-27T15:32:54Z</time>
      </trkpt>
      <trkpt lat="43.49123" lon="6.57587">
        <ele>40.5</ele>
        <time>2026-03-27T15:32:55Z</time>
      </trkpt>
      <trkpt lat="43.49123" lon="6.57587">
        <ele>40.4</ele>
        <time>2026-03-27T15:32:56Z</time>
      </trkpt>
      <trkpt lat="43.49124" lon="6.57587">
        <ele>40.5</ele>
        <time>2026-03-27T15:32:57Z</time>
      </trkpt>
      <trkpt lat="43.49124" lon="6.57588">
        <ele>40.7</ele>
        <time>2026-03-27T15:32:58Z</time>
      </trkpt>
      <trkpt lat="43.49125" lon="6.57588">
        <ele>40.8</ele>
        <time>2026-03-27T15:32:59Z</time>
      </trkpt>
      <trkpt lat="43.49125" lon="6.57589">
        <ele>40.8</ele>
        <time>2026-03-27T15:33:00Z</time>
      </trkpt>
      <trkpt lat="43.49126" lon="6.57589">
        <ele>40.7</ele>
        <time>2026-03-27T15:33:01Z</time>
      </trkpt>
      <trkpt lat="43.49127" lon="6.57589">
        <ele>40.8</ele>
        <time>2026-03-27T15:33:02Z</time>
      </trkpt>
      <trkpt lat="43.49128" lon="6.5759">
        <ele>40.8</ele>
        <time>2026-03-27T15:33:03Z</time>
      </trkpt>
      <trkpt lat="43.49129" lon="6.5759">
        <ele>40.8</ele>
        <time>2026-03-27T15:33:04Z</time>
      </trkpt>
      <trkpt lat="43.49129" lon="6.57591">
        <ele>40.7</ele>
        <time>2026-03-27T15:33:05Z</time>
      </trkpt>
      <trkpt lat="43.4913" lon="6.57591">
        <ele>40.6</ele>
        <time>2026-03-27T15:33:06Z</time>
      </trkpt>
      <trkpt lat="43.49132" lon="6.57591">
        <ele>40.7</ele>
        <time>2026-03-27T15:33:07Z</time>
      </trkpt>
      <trkpt lat="43.49133" lon="6.5759">
        <ele>40.7</ele>
        <time>2026-03-27T15:33:08Z</time>
      </trkpt>
      <trkpt lat="43.49134" lon="6.57591">
        <ele>40.8</ele>
        <time>2026-03-27T15:33:09Z</time>
      </trkpt>
      <trkpt lat="43.49136" lon="6.57592">
        <ele>40.8</ele>
        <time>2026-03-27T15:33:10Z</time>
      </trkpt>
      <trkpt lat="43.49137" lon="6.57592">
        <ele>40.7</ele>
        <time>2026-03-27T15:33:11Z</time>
      </trkpt>
      <trkpt lat="43.49138" lon="6.57592">
        <ele>40.8</ele>
        <time>2026-03-27T15:33:12Z</time>
      </trkpt>
      <trkpt lat="43.4914" lon="6.57592">
        <ele>40.8</ele>
        <time>2026-03-27T15:33:13Z</time>
      </trkpt>
      <trkpt lat="43.49142" lon="6.57591">
        <ele>40.7</ele>
        <time>2026-03-27T15:33:14Z</time>
      </trkpt>
      <trkpt lat="43.49144" lon="6.57591">
        <ele>40.8</ele>
        <time>2026-03-27T15:33:15Z</time>
      </trkpt>
      <trkpt lat="43.49146" lon="6.5759">
        <ele>40.8</ele>
        <time>2026-03-27T15:33:16Z</time>
      </trkpt>
      <trkpt lat="43.49148" lon="6.5759">
        <ele>40.8</ele>
        <time>2026-03-27T15:33:17Z</time>
      </trkpt>
      <trkpt lat="43.49149" lon="6.57589">
        <ele>40.8</ele>
        <time>2026-03-27T15:33:18Z</time>
      </trkpt>
      <trkpt lat="43.4915" lon="6.57589">
        <ele>40.8</ele>
        <time>2026-03-27T15:33:19Z</time>
      </trkpt>
      <trkpt lat="43.49152" lon="6.57589">
        <ele>40.8</ele>
        <time>2026-03-27T15:33:20Z</time>
      </trkpt>
      <trkpt lat="43.49153" lon="6.57589">
        <ele>40.8</ele>
        <time>2026-03-27T15:33:21Z</time>
      </trkpt>
      <trkpt lat="43.49155" lon="6.57588">
        <ele>40.8</ele>
        <time>2026-03-27T15:33:22Z</time>
      </trkpt>
      <trkpt lat="43.49156" lon="6.57588">
        <ele>40.9</ele>
        <time>2026-03-27T15:33:23Z</time>
      </trkpt>
      <trkpt lat="43.49158" lon="6.57588">
        <ele>40.9</ele>
        <time>2026-03-27T15:33:24Z</time>
      </trkpt>
      <trkpt lat="43.49159" lon="6.57588">
        <ele>40.7</ele>
        <time>2026-03-27T15:33:25Z</time>
      </trkpt>
      <trkpt lat="43.4916" lon="6.57588">
        <ele>40.8</ele>
        <time>2026-03-27T15:33:26Z</time>
      </trkpt>
      <trkpt lat="43.49161" lon="6.57588">
        <ele>40.8</ele>
        <time>2026-03-27T15:33:27Z</time>
      </trkpt>
      <trkpt lat="43.49163" lon="6.57588">
        <ele>40.8</ele>
        <time>2026-03-27T15:33:28Z</time>
      </trkpt>
      <trkpt lat="43.49164" lon="6.57588">
        <ele>40.8</ele>
        <time>2026-03-27T15:33:29Z</time>
      </trkpt>
      <trkpt lat="43.49165" lon="6.57588">
        <ele>40.8</ele>
        <time>2026-03-27T15:33:30Z</time>
      </trkpt>
      <trkpt lat="43.49166" lon="6.57588">
        <ele>40.8</ele>
        <time>2026-03-27T15:33:31Z</time>
      </trkpt>
      <trkpt lat="43.49167" lon="6.57588">
        <ele>40.9</ele>
        <time>2026-03-27T15:33:32Z</time>
      </trkpt>
      <trkpt lat="43.49168" lon="6.57588">
        <ele>40.9</ele>
        <time>2026-03-27T15:33:33Z</time>
      </trkpt>
      <trkpt lat="43.49169" lon="6.57588">
        <ele>41</ele>
        <time>2026-03-27T15:33:34Z</time>
      </trkpt>
      <trkpt lat="43.4917" lon="6.57588">
        <ele>41.1</ele>
        <time>2026-03-27T15:33:35Z</time>
      </trkpt>
      <trkpt lat="43.49171" lon="6.57588">
        <ele>41</ele>
        <time>2026-03-27T15:33:36Z</time>
      </trkpt>
      <trkpt lat="43.49172" lon="6.57588">
        <ele>41</ele>
        <time>2026-03-27T15:33:37Z</time>
      </trkpt>
      <trkpt lat="43.49173" lon="6.57589">
        <ele>41</ele>
        <time>2026-03-27T15:33:38Z</time>
      </trkpt>
      <trkpt lat="43.49174" lon="6.57589">
        <ele>41</ele>
        <time>2026-03-27T15:33:39Z</time>
      </trkpt>
      <trkpt lat="43.49175" lon="6.57589">
        <ele>41</ele>
        <time>2026-03-27T15:33:40Z</time>
      </trkpt>
      <trkpt lat="43.49176" lon="6.5759">
        <ele>41</ele>
        <time>2026-03-27T15:33:41Z</time>
      </trkpt>
      <trkpt lat="43.49177" lon="6.57591">
        <ele>41</ele>
        <time>2026-03-27T15:33:42Z</time>
      </trkpt>
      <trkpt lat="43.49178" lon="6.57591">
        <ele>41</ele>
        <time>2026-03-27T15:33:43Z</time>
      </trkpt>
      <trkpt lat="43.4918" lon="6.57591">
        <ele>41.1</ele>
        <time>2026-03-27T15:33:44Z</time>
      </trkpt>
      <trkpt lat="43.49181" lon="6.57591">
        <ele>41.1</ele>
        <time>2026-03-27T15:33:45Z</time>
      </trkpt>
      <trkpt lat="43.49182" lon="6.57591">
        <ele>41.1</ele>
        <time>2026-03-27T15:33:46Z</time>
      </trkpt>
      <trkpt lat="43.49184" lon="6.57591">
        <ele>41.1</ele>
        <time>2026-03-27T15:33:47Z</time>
      </trkpt>
      <trkpt lat="43.49185" lon="6.57591">
        <ele>41.1</ele>
        <time>2026-03-27T15:33:48Z</time>
      </trkpt>
      <trkpt lat="43.49187" lon="6.57592">
        <ele>41.2</ele>
        <time>2026-03-27T15:33:49Z</time>
      </trkpt>
      <trkpt lat="43.49188" lon="6.57591">
        <ele>41.4</ele>
        <time>2026-03-27T15:33:50Z</time>
      </trkpt>
      <trkpt lat="43.4919" lon="6.5759">
        <ele>41.6</ele>
        <time>2026-03-27T15:33:51Z</time>
      </trkpt>
      <trkpt lat="43.49191" lon="6.5759">
        <ele>41.8</ele>
        <time>2026-03-27T15:33:52Z</time>
      </trkpt>
      <trkpt lat="43.49193" lon="6.57589">
        <ele>41.8</ele>
        <time>2026-03-27T15:33:53Z</time>
      </trkpt>
      <trkpt lat="43.49194" lon="6.57589">
        <ele>41.9</ele>
        <time>2026-03-27T15:33:54Z</time>
      </trkpt>
      <trkpt lat="43.49196" lon="6.57589">
        <ele>41.9</ele>
        <time>2026-03-27T15:33:55Z</time>
      </trkpt>
      <trkpt lat="43.49197" lon="6.57589">
        <ele>41.7</ele>
        <time>2026-03-27T15:33:56Z</time>
      </trkpt>
      <trkpt lat="43.49198" lon="6.57589">
        <ele>41.8</ele>
        <time>2026-03-27T15:33:57Z</time>
      </trkpt>
      <trkpt lat="43.492" lon="6.57588">
        <ele>41.9</ele>
        <time>2026-03-27T15:33:58Z</time>
      </trkpt>
      <trkpt lat="43.49201" lon="6.57589">
        <ele>42</ele>
        <time>2026-03-27T15:33:59Z</time>
      </trkpt>
      <trkpt lat="43.49202" lon="6.57589">
        <ele>42.1</ele>
        <time>2026-03-27T15:34:00Z</time>
      </trkpt>
      <trkpt lat="43.49203" lon="6.57589">
        <ele>42.3</ele>
        <time>2026-03-27T15:34:01Z</time>
      </trkpt>
      <trkpt lat="43.49204" lon="6.57588">
        <ele>42.4</ele>
        <time>2026-03-27T15:34:02Z</time>
      </trkpt>
      <trkpt lat="43.49205" lon="6.57588">
        <ele>42.5</ele>
        <time>2026-03-27T15:34:03Z</time>
      </trkpt>
      <trkpt lat="43.49206" lon="6.57588">
        <ele>42.7</ele>
        <time>2026-03-27T15:34:04Z</time>
      </trkpt>
      <trkpt lat="43.49207" lon="6.57587">
        <ele>42.9</ele>
        <time>2026-03-27T15:34:05Z</time>
      </trkpt>
      <trkpt lat="43.49208" lon="6.57588">
        <ele>43.1</ele>
        <time>2026-03-27T15:34:06Z</time>
      </trkpt>
      <trkpt lat="43.49209" lon="6.57588">
        <ele>43.3</ele>
        <time>2026-03-27T15:34:07Z</time>
      </trkpt>
      <trkpt lat="43.4921" lon="6.57588">
        <ele>43.5</ele>
        <time>2026-03-27T15:34:08Z</time>
      </trkpt>
      <trkpt lat="43.49211" lon="6.57588">
        <ele>43.7</ele>
        <time>2026-03-27T15:34:09Z</time>
      </trkpt>
      <trkpt lat="43.49211" lon="6.57587">
        <ele>43.8</ele>
        <time>2026-03-27T15:34:10Z</time>
      </trkpt>
      <trkpt lat="43.49212" lon="6.57587">
        <ele>44.1</ele>
        <time>2026-03-27T15:34:11Z</time>
      </trkpt>
      <trkpt lat="43.49214" lon="6.57586">
        <ele>44.3</ele>
        <time>2026-03-27T15:34:12Z</time>
      </trkpt>
      <trkpt lat="43.49215" lon="6.57586">
        <ele>44.4</ele>
        <time>2026-03-27T15:34:13Z</time>
      </trkpt>
      <trkpt lat="43.49215" lon="6.57586">
        <ele>44.5</ele>
        <time>2026-03-27T15:34:14Z</time>
      </trkpt>
      <trkpt lat="43.49216" lon="6.57586">
        <ele>44.7</ele>
        <time>2026-03-27T15:34:15Z</time>
      </trkpt>
      <trkpt lat="43.49217" lon="6.57585">
        <ele>44.8</ele>
        <time>2026-03-27T15:34:16Z</time>
      </trkpt>
      <trkpt lat="43.49218" lon="6.57585">
        <ele>44.8</ele>
        <time>2026-03-27T15:34:17Z</time>
      </trkpt>
      <trkpt lat="43.49219" lon="6.57585">
        <ele>44.9</ele>
        <time>2026-03-27T15:34:18Z</time>
      </trkpt>
      <trkpt lat="43.49221" lon="6.57585">
        <ele>44.9</ele>
        <time>2026-03-27T15:34:19Z</time>
      </trkpt>
      <trkpt lat="43.49221" lon="6.57584">
        <ele>44.9</ele>
        <time>2026-03-27T15:34:20Z</time>
      </trkpt>
      <trkpt lat="43.49222" lon="6.57584">
        <ele>45</ele>
        <time>2026-03-27T15:34:21Z</time>
      </trkpt>
      <trkpt lat="43.49223" lon="6.57584">
        <ele>44.9</ele>
        <time>2026-03-27T15:34:22Z</time>
      </trkpt>
      <trkpt lat="43.49224" lon="6.57584">
        <ele>44.9</ele>
        <time>2026-03-27T15:34:23Z</time>
      </trkpt>
      <trkpt lat="43.49225" lon="6.57584">
        <ele>44.6</ele>
        <time>2026-03-27T15:34:24Z</time>
      </trkpt>
      <trkpt lat="43.49226" lon="6.57583">
        <ele>44.5</ele>
        <time>2026-03-27T15:34:25Z</time>
      </trkpt>
      <trkpt lat="43.49226" lon="6.57583">
        <ele>44.3</ele>
        <time>2026-03-27T15:34:26Z</time>
      </trkpt>
      <trkpt lat="43.49227" lon="6.57583">
        <ele>44.1</ele>
        <time>2026-03-27T15:34:27Z</time>
      </trkpt>
      <trkpt lat="43.49228" lon="6.57583">
        <ele>43.9</ele>
        <time>2026-03-27T15:34:28Z</time>
      </trkpt>
      <trkpt lat="43.49229" lon="6.57582">
        <ele>43.6</ele>
        <time>2026-03-27T15:34:29Z</time>
      </trkpt>
      <trkpt lat="43.4923" lon="6.57582">
        <ele>43.4</ele>
        <time>2026-03-27T15:34:30Z</time>
      </trkpt>
      <trkpt lat="43.49231" lon="6.57581">
        <ele>43.2</ele>
        <time>2026-03-27T15:34:31Z</time>
      </trkpt>
      <trkpt lat="43.49232" lon="6.5758">
        <ele>43</ele>
        <time>2026-03-27T15:34:32Z</time>
      </trkpt>
      <trkpt lat="43.49234" lon="6.57579">
        <ele>42.8</ele>
        <time>2026-03-27T15:34:33Z</time>
      </trkpt>
      <trkpt lat="43.49234" lon="6.57578">
        <ele>42.6</ele>
        <time>2026-03-27T15:34:34Z</time>
      </trkpt>
      <trkpt lat="43.49236" lon="6.57578">
        <ele>42.4</ele>
        <time>2026-03-27T15:34:35Z</time>
      </trkpt>
      <trkpt lat="43.49237" lon="6.57577">
        <ele>42.3</ele>
        <time>2026-03-27T15:34:36Z</time>
      </trkpt>
      <trkpt lat="43.49238" lon="6.57576">
        <ele>42.2</ele>
        <time>2026-03-27T15:34:37Z</time>
      </trkpt>
      <trkpt lat="43.49239" lon="6.57575">
        <ele>42.1</ele>
        <time>2026-03-27T15:34:38Z</time>
      </trkpt>
      <trkpt lat="43.4924" lon="6.57575">
        <ele>42.1</ele>
        <time>2026-03-27T15:34:39Z</time>
      </trkpt>
      <trkpt lat="43.49241" lon="6.57574">
        <ele>42</ele>
        <time>2026-03-27T15:34:40Z</time>
      </trkpt>
      <trkpt lat="43.49242" lon="6.57573">
        <ele>41.9</ele>
        <time>2026-03-27T15:34:41Z</time>
      </trkpt>
      <trkpt lat="43.49243" lon="6.57572">
        <ele>41.8</ele>
        <time>2026-03-27T15:34:42Z</time>
      </trkpt>
      <trkpt lat="43.49245" lon="6.57571">
        <ele>41.7</ele>
        <time>2026-03-27T15:34:43Z</time>
      </trkpt>
      <trkpt lat="43.49246" lon="6.5757">
        <ele>41.6</ele>
        <time>2026-03-27T15:34:44Z</time>
      </trkpt>
      <trkpt lat="43.49247" lon="6.57569">
        <ele>41.5</ele>
        <time>2026-03-27T15:34:45Z</time>
      </trkpt>
      <trkpt lat="43.49248" lon="6.57567">
        <ele>41.5</ele>
        <time>2026-03-27T15:34:46Z</time>
      </trkpt>
      <trkpt lat="43.49249" lon="6.57566">
        <ele>41.4</ele>
        <time>2026-03-27T15:34:47Z</time>
      </trkpt>
      <trkpt lat="43.49251" lon="6.57565">
        <ele>41.6</ele>
        <time>2026-03-27T15:34:48Z</time>
      </trkpt>
      <trkpt lat="43.49252" lon="6.57564">
        <ele>41.5</ele>
        <time>2026-03-27T15:34:49Z</time>
      </trkpt>
      <trkpt lat="43.49253" lon="6.57563">
        <ele>41.5</ele>
        <time>2026-03-27T15:34:50Z</time>
      </trkpt>
      <trkpt lat="43.49255" lon="6.57562">
        <ele>41.4</ele>
        <time>2026-03-27T15:34:51Z</time>
      </trkpt>
      <trkpt lat="43.49256" lon="6.57562">
        <ele>41.4</ele>
        <time>2026-03-27T15:34:52Z</time>
      </trkpt>
      <trkpt lat="43.49257" lon="6.57561">
        <ele>41.4</ele>
        <time>2026-03-27T15:34:53Z</time>
      </trkpt>
      <trkpt lat="43.49258" lon="6.57559">
        <ele>41.4</ele>
        <time>2026-03-27T15:34:54Z</time>
      </trkpt>
      <trkpt lat="43.49259" lon="6.57558">
        <ele>41.4</ele>
        <time>2026-03-27T15:34:55Z</time>
      </trkpt>
      <trkpt lat="43.49261" lon="6.57557">
        <ele>41.3</ele>
        <time>2026-03-27T15:34:56Z</time>
      </trkpt>
      <trkpt lat="43.49262" lon="6.57556">
        <ele>41.3</ele>
        <time>2026-03-27T15:34:57Z</time>
      </trkpt>
      <trkpt lat="43.49263" lon="6.57556">
        <ele>41.2</ele>
        <time>2026-03-27T15:34:58Z</time>
      </trkpt>
      <trkpt lat="43.49264" lon="6.57555">
        <ele>41.2</ele>
        <time>2026-03-27T15:34:59Z</time>
      </trkpt>
      <trkpt lat="43.49265" lon="6.57554">
        <ele>41.2</ele>
        <time>2026-03-27T15:35:00Z</time>
      </trkpt>
      <trkpt lat="43.49266" lon="6.57553">
        <ele>41.2</ele>
        <time>2026-03-27T15:35:01Z</time>
      </trkpt>
      <trkpt lat="43.49267" lon="6.57551">
        <ele>41.2</ele>
        <time>2026-03-27T15:35:02Z</time>
      </trkpt>
      <trkpt lat="43.49268" lon="6.5755">
        <ele>41.2</ele>
        <time>2026-03-27T15:35:03Z</time>
      </trkpt>
      <trkpt lat="43.49269" lon="6.57549">
        <ele>41.3</ele>
        <time>2026-03-27T15:35:04Z</time>
      </trkpt>
      <trkpt lat="43.4927" lon="6.57547">
        <ele>41.3</ele>
        <time>2026-03-27T15:35:05Z</time>
      </trkpt>
      <trkpt lat="43.49271" lon="6.57545">
        <ele>41.3</ele>
        <time>2026-03-27T15:35:06Z</time>
      </trkpt>
      <trkpt lat="43.49272" lon="6.57544">
        <ele>41.2</ele>
        <time>2026-03-27T15:35:07Z</time>
      </trkpt>
      <trkpt lat="43.49272" lon="6.57543">
        <ele>41.2</ele>
        <time>2026-03-27T15:35:08Z</time>
      </trkpt>
      <trkpt lat="43.49273" lon="6.57541">
        <ele>41.2</ele>
        <time>2026-03-27T15:35:09Z</time>
      </trkpt>
      <trkpt lat="43.49274" lon="6.5754">
        <ele>41.2</ele>
        <time>2026-03-27T15:35:10Z</time>
      </trkpt>
      <trkpt lat="43.49275" lon="6.57538">
        <ele>41.2</ele>
        <time>2026-03-27T15:35:11Z</time>
      </trkpt>
      <trkpt lat="43.49276" lon="6.57537">
        <ele>41.2</ele>
        <time>2026-03-27T15:35:12Z</time>
      </trkpt>
      <trkpt lat="43.49277" lon="6.57536">
        <ele>41.2</ele>
        <time>2026-03-27T15:35:13Z</time>
      </trkpt>
      <trkpt lat="43.49277" lon="6.57535">
        <ele>41.2</ele>
        <time>2026-03-27T15:35:14Z</time>
      </trkpt>
      <trkpt lat="43.49278" lon="6.57533">
        <ele>41.2</ele>
        <time>2026-03-27T15:35:15Z</time>
      </trkpt>
      <trkpt lat="43.49279" lon="6.57532">
        <ele>41.2</ele>
        <time>2026-03-27T15:35:16Z</time>
      </trkpt>
      <trkpt lat="43.4928" lon="6.57531">
        <ele>41.4</ele>
        <time>2026-03-27T15:35:17Z</time>
      </trkpt>
      <trkpt lat="43.49281" lon="6.5753">
        <ele>41.5</ele>
        <time>2026-03-27T15:35:18Z</time>
      </trkpt>
      <trkpt lat="43.49282" lon="6.57529">
        <ele>41.6</ele>
        <time>2026-03-27T15:35:19Z</time>
      </trkpt>
      <trkpt lat="43.49283" lon="6.57529">
        <ele>41.6</ele>
        <time>2026-03-27T15:35:20Z</time>
      </trkpt>
      <trkpt lat="43.49284" lon="6.57528">
        <ele>41.6</ele>
        <time>2026-03-27T15:35:21Z</time>
      </trkpt>
      <trkpt lat="43.49285" lon="6.57528">
        <ele>41.5</ele>
        <time>2026-03-27T15:35:22Z</time>
      </trkpt>
      <trkpt lat="43.49286" lon="6.57527">
        <ele>41.5</ele>
        <time>2026-03-27T15:35:23Z</time>
      </trkpt>
      <trkpt lat="43.49287" lon="6.57526">
        <ele>41.6</ele>
        <time>2026-03-27T15:35:24Z</time>
      </trkpt>
      <trkpt lat="43.49288" lon="6.57526">
        <ele>41.5</ele>
        <time>2026-03-27T15:35:25Z</time>
      </trkpt>
      <trkpt lat="43.49289" lon="6.57525">
        <ele>41.5</ele>
        <time>2026-03-27T15:35:26Z</time>
      </trkpt>
      <trkpt lat="43.4929" lon="6.57525">
        <ele>41.4</ele>
        <time>2026-03-27T15:35:27Z</time>
      </trkpt>
      <trkpt lat="43.49291" lon="6.57524">
        <ele>41.4</ele>
        <time>2026-03-27T15:35:28Z</time>
      </trkpt>
      <trkpt lat="43.49292" lon="6.57524">
        <ele>41.3</ele>
        <time>2026-03-27T15:35:29Z</time>
      </trkpt>
      <trkpt lat="43.49294" lon="6.57524">
        <ele>41.2</ele>
        <time>2026-03-27T15:35:30Z</time>
      </trkpt>
      <trkpt lat="43.49295" lon="6.57523">
        <ele>41.2</ele>
        <time>2026-03-27T15:35:31Z</time>
      </trkpt>
      <trkpt lat="43.49296" lon="6.57523">
        <ele>41.2</ele>
        <time>2026-03-27T15:35:32Z</time>
      </trkpt>
      <trkpt lat="43.49297" lon="6.57522">
        <ele>41.2</ele>
        <time>2026-03-27T15:35:33Z</time>
      </trkpt>
      <trkpt lat="43.49298" lon="6.57522">
        <ele>41.1</ele>
        <time>2026-03-27T15:35:34Z</time>
      </trkpt>
      <trkpt lat="43.493" lon="6.57521">
        <ele>41</ele>
        <time>2026-03-27T15:35:35Z</time>
      </trkpt>
      <trkpt lat="43.49301" lon="6.57521">
        <ele>40.9</ele>
        <time>2026-03-27T15:35:36Z</time>
      </trkpt>
      <trkpt lat="43.49302" lon="6.5752">
        <ele>40.8</ele>
        <time>2026-03-27T15:35:37Z</time>
      </trkpt>
      <trkpt lat="43.49303" lon="6.5752">
        <ele>40.8</ele>
        <time>2026-03-27T15:35:38Z</time>
      </trkpt>
      <trkpt lat="43.49304" lon="6.5752">
        <ele>40.8</ele>
        <time>2026-03-27T15:35:39Z</time>
      </trkpt>
      <trkpt lat="43.49305" lon="6.57519">
        <ele>40.9</ele>
        <time>2026-03-27T15:35:40Z</time>
      </trkpt>
      <trkpt lat="43.49306" lon="6.57519">
        <ele>40.9</ele>
        <time>2026-03-27T15:35:41Z</time>
      </trkpt>
      <trkpt lat="43.49308" lon="6.57518">
        <ele>40.8</ele>
        <time>2026-03-27T15:35:42Z</time>
      </trkpt>
      <trkpt lat="43.49309" lon="6.57518">
        <ele>40.9</ele>
        <time>2026-03-27T15:35:43Z</time>
      </trkpt>
      <trkpt lat="43.4931" lon="6.57517">
        <ele>40.9</ele>
        <time>2026-03-27T15:35:44Z</time>
      </trkpt>
      <trkpt lat="43.49311" lon="6.57517">
        <ele>40.9</ele>
        <time>2026-03-27T15:35:45Z</time>
      </trkpt>
      <trkpt lat="43.49312" lon="6.57516">
        <ele>40.9</ele>
        <time>2026-03-27T15:35:46Z</time>
      </trkpt>
      <trkpt lat="43.49314" lon="6.57516">
        <ele>40.9</ele>
        <time>2026-03-27T15:35:47Z</time>
      </trkpt>
      <trkpt lat="43.49315" lon="6.57515">
        <ele>40.9</ele>
        <time>2026-03-27T15:35:48Z</time>
      </trkpt>
      <trkpt lat="43.49316" lon="6.57515">
        <ele>40.9</ele>
        <time>2026-03-27T15:35:49Z</time>
      </trkpt>
      <trkpt lat="43.49317" lon="6.57515">
        <ele>40.9</ele>
        <time>2026-03-27T15:35:50Z</time>
      </trkpt>
      <trkpt lat="43.49318" lon="6.57514">
        <ele>40.8</ele>
        <time>2026-03-27T15:35:51Z</time>
      </trkpt>
      <trkpt lat="43.49319" lon="6.57513">
        <ele>40.8</ele>
        <time>2026-03-27T15:35:52Z</time>
      </trkpt>
      <trkpt lat="43.4932" lon="6.57513">
        <ele>40.8</ele>
        <time>2026-03-27T15:35:53Z</time>
      </trkpt>
      <trkpt lat="43.49322" lon="6.57512">
        <ele>40.8</ele>
        <time>2026-03-27T15:35:54Z</time>
      </trkpt>
      <trkpt lat="43.49323" lon="6.57512">
        <ele>40.8</ele>
        <time>2026-03-27T15:35:55Z</time>
      </trkpt>
      <trkpt lat="43.49324" lon="6.57511">
        <ele>40.8</ele>
        <time>2026-03-27T15:35:56Z</time>
      </trkpt>
      <trkpt lat="43.49325" lon="6.57511">
        <ele>40.7</ele>
        <time>2026-03-27T15:35:57Z</time>
      </trkpt>
      <trkpt lat="43.49327" lon="6.5751">
        <ele>40.7</ele>
        <time>2026-03-27T15:35:58Z</time>
      </trkpt>
      <trkpt lat="43.49328" lon="6.57509">
        <ele>40.6</ele>
        <time>2026-03-27T15:35:59Z</time>
      </trkpt>
      <trkpt lat="43.4933" lon="6.57508">
        <ele>40.6</ele>
        <time>2026-03-27T15:36:00Z</time>
      </trkpt>
      <trkpt lat="43.49331" lon="6.57507">
        <ele>40.5</ele>
        <time>2026-03-27T15:36:01Z</time>
      </trkpt>
      <trkpt lat="43.49332" lon="6.57505">
        <ele>40.5</ele>
        <time>2026-03-27T15:36:02Z</time>
      </trkpt>
      <trkpt lat="43.49333" lon="6.57505">
        <ele>40.5</ele>
        <time>2026-03-27T15:36:03Z</time>
      </trkpt>
      <trkpt lat="43.49334" lon="6.57504">
        <ele>40.5</ele>
        <time>2026-03-27T15:36:04Z</time>
      </trkpt>
      <trkpt lat="43.49335" lon="6.57503">
        <ele>40.5</ele>
        <time>2026-03-27T15:36:05Z</time>
      </trkpt>
      <trkpt lat="43.49336" lon="6.57503">
        <ele>40.6</ele>
        <time>2026-03-27T15:36:06Z</time>
      </trkpt>
      <trkpt lat="43.49338" lon="6.57503">
        <ele>40.7</ele>
        <time>2026-03-27T15:36:07Z</time>
      </trkpt>
      <trkpt lat="43.49339" lon="6.57502">
        <ele>40.7</ele>
        <time>2026-03-27T15:36:08Z</time>
      </trkpt>
      <trkpt lat="43.4934" lon="6.57502">
        <ele>40.8</ele>
        <time>2026-03-27T15:36:09Z</time>
      </trkpt>
      <trkpt lat="43.49341" lon="6.57501">
        <ele>40.8</ele>
        <time>2026-03-27T15:36:10Z</time>
      </trkpt>
      <trkpt lat="43.49342" lon="6.57501">
        <ele>40.9</ele>
        <time>2026-03-27T15:36:11Z</time>
      </trkpt>
      <trkpt lat="43.49343" lon="6.57501">
        <ele>40.8</ele>
        <time>2026-03-27T15:36:12Z</time>
      </trkpt>
      <trkpt lat="43.49345" lon="6.575">
        <ele>40.8</ele>
        <time>2026-03-27T15:36:13Z</time>
      </trkpt>
      <trkpt lat="43.49346" lon="6.575">
        <ele>40.9</ele>
        <time>2026-03-27T15:36:14Z</time>
      </trkpt>
      <trkpt lat="43.49347" lon="6.57499">
        <ele>40.9</ele>
        <time>2026-03-27T15:36:15Z</time>
      </trkpt>
      <trkpt lat="43.49349" lon="6.57499">
        <ele>40.9</ele>
        <time>2026-03-27T15:36:16Z</time>
      </trkpt>
      <trkpt lat="43.4935" lon="6.57498">
        <ele>41</ele>
        <time>2026-03-27T15:36:17Z</time>
      </trkpt>
      <trkpt lat="43.49351" lon="6.57498">
        <ele>40.9</ele>
        <time>2026-03-27T15:36:18Z</time>
      </trkpt>
      <trkpt lat="43.49352" lon="6.57498">
        <ele>40.8</ele>
        <time>2026-03-27T15:36:19Z</time>
      </trkpt>
      <trkpt lat="43.49354" lon="6.57498">
        <ele>40.8</ele>
        <time>2026-03-27T15:36:20Z</time>
      </trkpt>
      <trkpt lat="43.49355" lon="6.57498">
        <ele>40.8</ele>
        <time>2026-03-27T15:36:21Z</time>
      </trkpt>
      <trkpt lat="43.49356" lon="6.57499">
        <ele>40.9</ele>
        <time>2026-03-27T15:36:22Z</time>
      </trkpt>
      <trkpt lat="43.49358" lon="6.57499">
        <ele>40.9</ele>
        <time>2026-03-27T15:36:23Z</time>
      </trkpt>
      <trkpt lat="43.49359" lon="6.57499">
        <ele>41</ele>
        <time>2026-03-27T15:36:24Z</time>
      </trkpt>
      <trkpt lat="43.4936" lon="6.57499">
        <ele>41.1</ele>
        <time>2026-03-27T15:36:25Z</time>
      </trkpt>
      <trkpt lat="43.49361" lon="6.57499">
        <ele>41.1</ele>
        <time>2026-03-27T15:36:26Z</time>
      </trkpt>
      <trkpt lat="43.49362" lon="6.575">
        <ele>41.2</ele>
        <time>2026-03-27T15:36:27Z</time>
      </trkpt>
      <trkpt lat="43.49363" lon="6.57501">
        <ele>41.2</ele>
        <time>2026-03-27T15:36:28Z</time>
      </trkpt>
      <trkpt lat="43.49364" lon="6.57501">
        <ele>41.3</ele>
        <time>2026-03-27T15:36:29Z</time>
      </trkpt>
      <trkpt lat="43.49365" lon="6.57502">
        <ele>41.4</ele>
        <time>2026-03-27T15:36:30Z</time>
      </trkpt>
      <trkpt lat="43.49367" lon="6.57503">
        <ele>41.5</ele>
        <time>2026-03-27T15:36:31Z</time>
      </trkpt>
      <trkpt lat="43.49368" lon="6.57503">
        <ele>41.6</ele>
        <time>2026-03-27T15:36:32Z</time>
      </trkpt>
      <trkpt lat="43.49369" lon="6.57504">
        <ele>41.7</ele>
        <time>2026-03-27T15:36:33Z</time>
      </trkpt>
      <trkpt lat="43.4937" lon="6.57504">
        <ele>41.8</ele>
        <time>2026-03-27T15:36:34Z</time>
      </trkpt>
      <trkpt lat="43.49371" lon="6.57504">
        <ele>41.9</ele>
        <time>2026-03-27T15:36:35Z</time>
      </trkpt>
      <trkpt lat="43.49372" lon="6.57504">
        <ele>42.1</ele>
        <time>2026-03-27T15:36:36Z</time>
      </trkpt>
      <trkpt lat="43.49373" lon="6.57505">
        <ele>42.2</ele>
        <time>2026-03-27T15:36:37Z</time>
      </trkpt>
      <trkpt lat="43.49374" lon="6.57506">
        <ele>42.3</ele>
        <time>2026-03-27T15:36:38Z</time>
      </trkpt>
      <trkpt lat="43.49376" lon="6.57506">
        <ele>42.4</ele>
        <time>2026-03-27T15:36:39Z</time>
      </trkpt>
      <trkpt lat="43.49377" lon="6.57507">
        <ele>42.5</ele>
        <time>2026-03-27T15:36:40Z</time>
      </trkpt>
      <trkpt lat="43.49378" lon="6.57507">
        <ele>42.6</ele>
        <time>2026-03-27T15:36:41Z</time>
      </trkpt>
      <trkpt lat="43.49379" lon="6.57508">
        <ele>42.6</ele>
        <time>2026-03-27T15:36:42Z</time>
      </trkpt>
      <trkpt lat="43.4938" lon="6.57509">
        <ele>42.7</ele>
        <time>2026-03-27T15:36:43Z</time>
      </trkpt>
      <trkpt lat="43.49382" lon="6.57509">
        <ele>42.8</ele>
        <time>2026-03-27T15:36:44Z</time>
      </trkpt>
      <trkpt lat="43.49383" lon="6.5751">
        <ele>42.9</ele>
        <time>2026-03-27T15:36:45Z</time>
      </trkpt>
      <trkpt lat="43.49384" lon="6.5751">
        <ele>43</ele>
        <time>2026-03-27T15:36:46Z</time>
      </trkpt>
      <trkpt lat="43.49385" lon="6.5751">
        <ele>43.1</ele>
        <time>2026-03-27T15:36:47Z</time>
      </trkpt>
      <trkpt lat="43.49386" lon="6.57511">
        <ele>43.2</ele>
        <time>2026-03-27T15:36:48Z</time>
      </trkpt>
      <trkpt lat="43.49388" lon="6.57511">
        <ele>43.4</ele>
        <time>2026-03-27T15:36:49Z</time>
      </trkpt>
      <trkpt lat="43.49389" lon="6.57512">
        <ele>43.5</ele>
        <time>2026-03-27T15:36:50Z</time>
      </trkpt>
      <trkpt lat="43.4939" lon="6.57513">
        <ele>43.7</ele>
        <time>2026-03-27T15:36:51Z</time>
      </trkpt>
      <trkpt lat="43.49391" lon="6.57513">
        <ele>43.8</ele>
        <time>2026-03-27T15:36:52Z</time>
      </trkpt>
      <trkpt lat="43.49392" lon="6.57513">
        <ele>44</ele>
        <time>2026-03-27T15:36:53Z</time>
      </trkpt>
      <trkpt lat="43.49394" lon="6.57514">
        <ele>44.2</ele>
        <time>2026-03-27T15:36:54Z</time>
      </trkpt>
      <trkpt lat="43.49395" lon="6.57514">
        <ele>44.3</ele>
        <time>2026-03-27T15:36:55Z</time>
      </trkpt>
      <trkpt lat="43.49396" lon="6.57514">
        <ele>44.5</ele>
        <time>2026-03-27T15:36:56Z</time>
      </trkpt>
      <trkpt lat="43.49398" lon="6.57514">
        <ele>44.6</ele>
        <time>2026-03-27T15:36:57Z</time>
      </trkpt>
      <trkpt lat="43.49399" lon="6.57513">
        <ele>44.8</ele>
        <time>2026-03-27T15:36:58Z</time>
      </trkpt>
      <trkpt lat="43.494" lon="6.57514">
        <ele>44.9</ele>
        <time>2026-03-27T15:36:59Z</time>
      </trkpt>
      <trkpt lat="43.49401" lon="6.57514">
        <ele>45</ele>
        <time>2026-03-27T15:37:00Z</time>
      </trkpt>
      <trkpt lat="43.49402" lon="6.57514">
        <ele>45.1</ele>
        <time>2026-03-27T15:37:01Z</time>
      </trkpt>
      <trkpt lat="43.49404" lon="6.57514">
        <ele>45.2</ele>
        <time>2026-03-27T15:37:02Z</time>
      </trkpt>
      <trkpt lat="43.49405" lon="6.57514">
        <ele>45.3</ele>
        <time>2026-03-27T15:37:03Z</time>
      </trkpt>
      <trkpt lat="43.49406" lon="6.57515">
        <ele>45.2</ele>
        <time>2026-03-27T15:37:04Z</time>
      </trkpt>
      <trkpt lat="43.49408" lon="6.57515">
        <ele>45.3</ele>
        <time>2026-03-27T15:37:05Z</time>
      </trkpt>
      <trkpt lat="43.49409" lon="6.57515">
        <ele>45.4</ele>
        <time>2026-03-27T15:37:06Z</time>
      </trkpt>
      <trkpt lat="43.4941" lon="6.57515">
        <ele>45.5</ele>
        <time>2026-03-27T15:37:07Z</time>
      </trkpt>
      <trkpt lat="43.49412" lon="6.57514">
        <ele>45.6</ele>
        <time>2026-03-27T15:37:08Z</time>
      </trkpt>
      <trkpt lat="43.49413" lon="6.57515">
        <ele>45.7</ele>
        <time>2026-03-27T15:37:09Z</time>
      </trkpt>
      <trkpt lat="43.49414" lon="6.57515">
        <ele>45.7</ele>
        <time>2026-03-27T15:37:10Z</time>
      </trkpt>
      <trkpt lat="43.49415" lon="6.57516">
        <ele>45.8</ele>
        <time>2026-03-27T15:37:11Z</time>
      </trkpt>
      <trkpt lat="43.49416" lon="6.57517">
        <ele>45.9</ele>
        <time>2026-03-27T15:37:12Z</time>
      </trkpt>
      <trkpt lat="43.49418" lon="6.57517">
        <ele>45.8</ele>
        <time>2026-03-27T15:37:13Z</time>
      </trkpt>
      <trkpt lat="43.49419" lon="6.57517">
        <ele>45.8</ele>
        <time>2026-03-27T15:37:14Z</time>
      </trkpt>
      <trkpt lat="43.49421" lon="6.57517">
        <ele>45.8</ele>
        <time>2026-03-27T15:37:15Z</time>
      </trkpt>
      <trkpt lat="43.49422" lon="6.57518">
        <ele>45.8</ele>
        <time>2026-03-27T15:37:16Z</time>
      </trkpt>
      <trkpt lat="43.49423" lon="6.57518">
        <ele>45.8</ele>
        <time>2026-03-27T15:37:17Z</time>
      </trkpt>
      <trkpt lat="43.49424" lon="6.57518">
        <ele>45.9</ele>
        <time>2026-03-27T15:37:18Z</time>
      </trkpt>
      <trkpt lat="43.49426" lon="6.57518">
        <ele>45.9</ele>
        <time>2026-03-27T15:37:19Z</time>
      </trkpt>
      <trkpt lat="43.49427" lon="6.57518">
        <ele>45.9</ele>
        <time>2026-03-27T15:37:20Z</time>
      </trkpt>
      <trkpt lat="43.49428" lon="6.57518">
        <ele>46</ele>
        <time>2026-03-27T15:37:21Z</time>
      </trkpt>
      <trkpt lat="43.4943" lon="6.57518">
        <ele>46</ele>
        <time>2026-03-27T15:37:22Z</time>
      </trkpt>
      <trkpt lat="43.49431" lon="6.57518">
        <ele>46</ele>
        <time>2026-03-27T15:37:23Z</time>
      </trkpt>
      <trkpt lat="43.49432" lon="6.57517">
        <ele>45.9</ele>
        <time>2026-03-27T15:37:24Z</time>
      </trkpt>
      <trkpt lat="43.49434" lon="6.57517">
        <ele>45.9</ele>
        <time>2026-03-27T15:37:25Z</time>
      </trkpt>
      <trkpt lat="43.49435" lon="6.57516">
        <ele>45.8</ele>
        <time>2026-03-27T15:37:26Z</time>
      </trkpt>
      <trkpt lat="43.49437" lon="6.57516">
        <ele>45.8</ele>
        <time>2026-03-27T15:37:27Z</time>
      </trkpt>
      <trkpt lat="43.49438" lon="6.57515">
        <ele>45.7</ele>
        <time>2026-03-27T15:37:28Z</time>
      </trkpt>
      <trkpt lat="43.49439" lon="6.57516">
        <ele>45.7</ele>
        <time>2026-03-27T15:37:29Z</time>
      </trkpt>
      <trkpt lat="43.49441" lon="6.57515">
        <ele>45.7</ele>
        <time>2026-03-27T15:37:30Z</time>
      </trkpt>
      <trkpt lat="43.49442" lon="6.57515">
        <ele>45.7</ele>
        <time>2026-03-27T15:37:31Z</time>
      </trkpt>
      <trkpt lat="43.49443" lon="6.57514">
        <ele>45.6</ele>
        <time>2026-03-27T15:37:32Z</time>
      </trkpt>
      <trkpt lat="43.49445" lon="6.57514">
        <ele>45.7</ele>
        <time>2026-03-27T15:37:33Z</time>
      </trkpt>
      <trkpt lat="43.49445" lon="6.57513">
        <ele>45.6</ele>
        <time>2026-03-27T15:37:34Z</time>
      </trkpt>
      <trkpt lat="43.49447" lon="6.57513">
        <ele>45.6</ele>
        <time>2026-03-27T15:37:35Z</time>
      </trkpt>
      <trkpt lat="43.49448" lon="6.57513">
        <ele>45.5</ele>
        <time>2026-03-27T15:37:36Z</time>
      </trkpt>
      <trkpt lat="43.4945" lon="6.57513">
        <ele>45.5</ele>
        <time>2026-03-27T15:37:37Z</time>
      </trkpt>
      <trkpt lat="43.49451" lon="6.57512">
        <ele>45.4</ele>
        <time>2026-03-27T15:37:38Z</time>
      </trkpt>
      <trkpt lat="43.49451" lon="6.57512">
        <ele>45.4</ele>
        <time>2026-03-27T15:37:39Z</time>
      </trkpt>
      <trkpt lat="43.49452" lon="6.57513">
        <ele>45.5</ele>
        <time>2026-03-27T15:37:40Z</time>
      </trkpt>
      <trkpt lat="43.49453" lon="6.57513">
        <ele>45.5</ele>
        <time>2026-03-27T15:37:41Z</time>
      </trkpt>
      <trkpt lat="43.49454" lon="6.57512">
        <ele>45.5</ele>
        <time>2026-03-27T15:37:42Z</time>
      </trkpt>
      <trkpt lat="43.49455" lon="6.57512">
        <ele>45.6</ele>
        <time>2026-03-27T15:37:43Z</time>
      </trkpt>
      <trkpt lat="43.49456" lon="6.57511">
        <ele>45.3</ele>
        <time>2026-03-27T15:37:44Z</time>
      </trkpt>
      <trkpt lat="43.49457" lon="6.57511">
        <ele>45.4</ele>
        <time>2026-03-27T15:37:45Z</time>
      </trkpt>
      <trkpt lat="43.49458" lon="6.5751">
        <ele>45.5</ele>
        <time>2026-03-27T15:37:46Z</time>
      </trkpt>
      <trkpt lat="43.4946" lon="6.57511">
        <ele>45.5</ele>
        <time>2026-03-27T15:37:47Z</time>
      </trkpt>
      <trkpt lat="43.49461" lon="6.57511">
        <ele>45.5</ele>
        <time>2026-03-27T15:37:48Z</time>
      </trkpt>
      <trkpt lat="43.49462" lon="6.5751">
        <ele>45.5</ele>
        <time>2026-03-27T15:37:49Z</time>
      </trkpt>
      <trkpt lat="43.49463" lon="6.57509">
        <ele>45.6</ele>
        <time>2026-03-27T15:37:50Z</time>
      </trkpt>
      <trkpt lat="43.49464" lon="6.57509">
        <ele>45.6</ele>
        <time>2026-03-27T15:37:51Z</time>
      </trkpt>
      <trkpt lat="43.49466" lon="6.57509">
        <ele>45.6</ele>
        <time>2026-03-27T15:37:52Z</time>
      </trkpt>
      <trkpt lat="43.49467" lon="6.57508">
        <ele>45.5</ele>
        <time>2026-03-27T15:37:53Z</time>
      </trkpt>
      <trkpt lat="43.49468" lon="6.57509">
        <ele>45.5</ele>
        <time>2026-03-27T15:37:54Z</time>
      </trkpt>
      <trkpt lat="43.4947" lon="6.57508">
        <ele>45.6</ele>
        <time>2026-03-27T15:37:55Z</time>
      </trkpt>
      <trkpt lat="43.49471" lon="6.57508">
        <ele>45.6</ele>
        <time>2026-03-27T15:37:56Z</time>
      </trkpt>
      <trkpt lat="43.49473" lon="6.57507">
        <ele>45.5</ele>
        <time>2026-03-27T15:37:57Z</time>
      </trkpt>
      <trkpt lat="43.49474" lon="6.57507">
        <ele>45.7</ele>
        <time>2026-03-27T15:37:58Z</time>
      </trkpt>
      <trkpt lat="43.49475" lon="6.57506">
        <ele>45.7</ele>
        <time>2026-03-27T15:37:59Z</time>
      </trkpt>
      <trkpt lat="43.49476" lon="6.57506">
        <ele>45.7</ele>
        <time>2026-03-27T15:38:00Z</time>
      </trkpt>
      <trkpt lat="43.49477" lon="6.57506">
        <ele>45.7</ele>
        <time>2026-03-27T15:38:01Z</time>
      </trkpt>
      <trkpt lat="43.49479" lon="6.57506">
        <ele>45.7</ele>
        <time>2026-03-27T15:38:02Z</time>
      </trkpt>
      <trkpt lat="43.4948" lon="6.57506">
        <ele>45.7</ele>
        <time>2026-03-27T15:38:03Z</time>
      </trkpt>
      <trkpt lat="43.49481" lon="6.57506">
        <ele>45.7</ele>
        <time>2026-03-27T15:38:04Z</time>
      </trkpt>
      <trkpt lat="43.49482" lon="6.57506">
        <ele>45.7</ele>
        <time>2026-03-27T15:38:05Z</time>
      </trkpt>
      <trkpt lat="43.49483" lon="6.57505">
        <ele>45.8</ele>
        <time>2026-03-27T15:38:06Z</time>
      </trkpt>
      <trkpt lat="43.49485" lon="6.57504">
        <ele>45.8</ele>
        <time>2026-03-27T15:38:07Z</time>
      </trkpt>
      <trkpt lat="43.49486" lon="6.57504">
        <ele>46</ele>
        <time>2026-03-27T15:38:08Z</time>
      </trkpt>
      <trkpt lat="43.49488" lon="6.57504">
        <ele>46</ele>
        <time>2026-03-27T15:38:09Z</time>
      </trkpt>
      <trkpt lat="43.49489" lon="6.57505">
        <ele>46.1</ele>
        <time>2026-03-27T15:38:10Z</time>
      </trkpt>
      <trkpt lat="43.49491" lon="6.57504">
        <ele>46.2</ele>
        <time>2026-03-27T15:38:11Z</time>
      </trkpt>
      <trkpt lat="43.49492" lon="6.57504">
        <ele>46.3</ele>
        <time>2026-03-27T15:38:12Z</time>
      </trkpt>
      <trkpt lat="43.49493" lon="6.57504">
        <ele>46.4</ele>
        <time>2026-03-27T15:38:13Z</time>
      </trkpt>
      <trkpt lat="43.49494" lon="6.57504">
        <ele>46.5</ele>
        <time>2026-03-27T15:38:14Z</time>
      </trkpt>
      <trkpt lat="43.49495" lon="6.57504">
        <ele>46.5</ele>
        <time>2026-03-27T15:38:15Z</time>
      </trkpt>
      <trkpt lat="43.49497" lon="6.57504">
        <ele>46.7</ele>
        <time>2026-03-27T15:38:16Z</time>
      </trkpt>
      <trkpt lat="43.49498" lon="6.57504">
        <ele>46.8</ele>
        <time>2026-03-27T15:38:17Z</time>
      </trkpt>
      <trkpt lat="43.49499" lon="6.57503">
        <ele>47</ele>
        <time>2026-03-27T15:38:18Z</time>
      </trkpt>
      <trkpt lat="43.49501" lon="6.57503">
        <ele>47.1</ele>
        <time>2026-03-27T15:38:19Z</time>
      </trkpt>
      <trkpt lat="43.49502" lon="6.57502">
        <ele>47.2</ele>
        <time>2026-03-27T15:38:20Z</time>
      </trkpt>
      <trkpt lat="43.49502" lon="6.57501">
        <ele>47.2</ele>
        <time>2026-03-27T15:38:21Z</time>
      </trkpt>
      <trkpt lat="43.49504" lon="6.575">
        <ele>47.3</ele>
        <time>2026-03-27T15:38:22Z</time>
      </trkpt>
      <trkpt lat="43.49505" lon="6.575">
        <ele>47.3</ele>
        <time>2026-03-27T15:38:23Z</time>
      </trkpt>
      <trkpt lat="43.49506" lon="6.57499">
        <ele>47.4</ele>
        <time>2026-03-27T15:38:24Z</time>
      </trkpt>
      <trkpt lat="43.49508" lon="6.57498">
        <ele>47.4</ele>
        <time>2026-03-27T15:38:25Z</time>
      </trkpt>
      <trkpt lat="43.49509" lon="6.57498">
        <ele>47.5</ele>
        <time>2026-03-27T15:38:26Z</time>
      </trkpt>
      <trkpt lat="43.4951" lon="6.57498">
        <ele>47.6</ele>
        <time>2026-03-27T15:38:27Z</time>
      </trkpt>
      <trkpt lat="43.49511" lon="6.57498">
        <ele>47.6</ele>
        <time>2026-03-27T15:38:28Z</time>
      </trkpt>
      <trkpt lat="43.49512" lon="6.57497">
        <ele>47.6</ele>
        <time>2026-03-27T15:38:29Z</time>
      </trkpt>
      <trkpt lat="43.49514" lon="6.57496">
        <ele>47.7</ele>
        <time>2026-03-27T15:38:30Z</time>
      </trkpt>
      <trkpt lat="43.49515" lon="6.57496">
        <ele>47.8</ele>
        <time>2026-03-27T15:38:31Z</time>
      </trkpt>
      <trkpt lat="43.49516" lon="6.57496">
        <ele>47.8</ele>
        <time>2026-03-27T15:38:32Z</time>
      </trkpt>
      <trkpt lat="43.49517" lon="6.57495">
        <ele>47.8</ele>
        <time>2026-03-27T15:38:33Z</time>
      </trkpt>
      <trkpt lat="43.49518" lon="6.57495">
        <ele>47.8</ele>
        <time>2026-03-27T15:38:34Z</time>
      </trkpt>
      <trkpt lat="43.49519" lon="6.57495">
        <ele>47.8</ele>
        <time>2026-03-27T15:38:35Z</time>
      </trkpt>
      <trkpt lat="43.4952" lon="6.57495">
        <ele>47.8</ele>
        <time>2026-03-27T15:38:36Z</time>
      </trkpt>
      <trkpt lat="43.49521" lon="6.57494">
        <ele>47.7</ele>
        <time>2026-03-27T15:38:37Z</time>
      </trkpt>
      <trkpt lat="43.49523" lon="6.57494">
        <ele>47.6</ele>
        <time>2026-03-27T15:38:38Z</time>
      </trkpt>
      <trkpt lat="43.49524" lon="6.57494">
        <ele>47.6</ele>
        <time>2026-03-27T15:38:39Z</time>
      </trkpt>
      <trkpt lat="43.49526" lon="6.57494">
        <ele>47.8</ele>
        <time>2026-03-27T15:38:40Z</time>
      </trkpt>
      <trkpt lat="43.49527" lon="6.57493">
        <ele>47.8</ele>
        <time>2026-03-27T15:38:41Z</time>
      </trkpt>
      <trkpt lat="43.49528" lon="6.57494">
        <ele>47.8</ele>
        <time>2026-03-27T15:38:42Z</time>
      </trkpt>
      <trkpt lat="43.4953" lon="6.57493">
        <ele>47.8</ele>
        <time>2026-03-27T15:38:43Z</time>
      </trkpt>
      <trkpt lat="43.49531" lon="6.57493">
        <ele>47.8</ele>
        <time>2026-03-27T15:38:44Z</time>
      </trkpt>
      <trkpt lat="43.49532" lon="6.57493">
        <ele>47.8</ele>
        <time>2026-03-27T15:38:45Z</time>
      </trkpt>
      <trkpt lat="43.49533" lon="6.57491">
        <ele>47.8</ele>
        <time>2026-03-27T15:38:46Z</time>
      </trkpt>
      <trkpt lat="43.49534" lon="6.57491">
        <ele>47.9</ele>
        <time>2026-03-27T15:38:47Z</time>
      </trkpt>
      <trkpt lat="43.49536" lon="6.5749">
        <ele>48</ele>
        <time>2026-03-27T15:38:48Z</time>
      </trkpt>
      <trkpt lat="43.49537" lon="6.5749">
        <ele>48.1</ele>
        <time>2026-03-27T15:38:49Z</time>
      </trkpt>
      <trkpt lat="43.49538" lon="6.5749">
        <ele>48.1</ele>
        <time>2026-03-27T15:38:50Z</time>
      </trkpt>
      <trkpt lat="43.49538" lon="6.5749">
        <ele>48.1</ele>
        <time>2026-03-27T15:38:51Z</time>
      </trkpt>
      <trkpt lat="43.4954" lon="6.5749">
        <ele>47.9</ele>
        <time>2026-03-27T15:38:52Z</time>
      </trkpt>
      <trkpt lat="43.49542" lon="6.57491">
        <ele>47.9</ele>
        <time>2026-03-27T15:38:53Z</time>
      </trkpt>
      <trkpt lat="43.49543" lon="6.57491">
        <ele>48</ele>
        <time>2026-03-27T15:38:54Z</time>
      </trkpt>
      <trkpt lat="43.49544" lon="6.57491">
        <ele>47.9</ele>
        <time>2026-03-27T15:38:55Z</time>
      </trkpt>
      <trkpt lat="43.49545" lon="6.57491">
        <ele>47.9</ele>
        <time>2026-03-27T15:38:56Z</time>
      </trkpt>
      <trkpt lat="43.49546" lon="6.57491">
        <ele>47.9</ele>
        <time>2026-03-27T15:38:57Z</time>
      </trkpt>
      <trkpt lat="43.49548" lon="6.57491">
        <ele>47.8</ele>
        <time>2026-03-27T15:38:58Z</time>
      </trkpt>
      <trkpt lat="43.49549" lon="6.57492">
        <ele>47.9</ele>
        <time>2026-03-27T15:38:59Z</time>
      </trkpt>
      <trkpt lat="43.4955" lon="6.57492">
        <ele>47.8</ele>
        <time>2026-03-27T15:39:00Z</time>
      </trkpt>
      <trkpt lat="43.49552" lon="6.57491">
        <ele>47.8</ele>
        <time>2026-03-27T15:39:01Z</time>
      </trkpt>
      <trkpt lat="43.49554" lon="6.5749">
        <ele>47.9</ele>
        <time>2026-03-27T15:39:02Z</time>
      </trkpt>
      <trkpt lat="43.49555" lon="6.57489">
        <ele>47.9</ele>
        <time>2026-03-27T15:39:03Z</time>
      </trkpt>
      <trkpt lat="43.49556" lon="6.57489">
        <ele>47.9</ele>
        <time>2026-03-27T15:39:04Z</time>
      </trkpt>
      <trkpt lat="43.49557" lon="6.57489">
        <ele>48</ele>
        <time>2026-03-27T15:39:05Z</time>
      </trkpt>
      <trkpt lat="43.49558" lon="6.57488">
        <ele>48</ele>
        <time>2026-03-27T15:39:06Z</time>
      </trkpt>
      <trkpt lat="43.4956" lon="6.57488">
        <ele>48</ele>
        <time>2026-03-27T15:39:07Z</time>
      </trkpt>
      <trkpt lat="43.49562" lon="6.57488">
        <ele>48</ele>
        <time>2026-03-27T15:39:08Z</time>
      </trkpt>
      <trkpt lat="43.49563" lon="6.57488">
        <ele>48</ele>
        <time>2026-03-27T15:39:09Z</time>
      </trkpt>
      <trkpt lat="43.49564" lon="6.57487">
        <ele>48</ele>
        <time>2026-03-27T15:39:10Z</time>
      </trkpt>
      <trkpt lat="43.49566" lon="6.57487">
        <ele>48</ele>
        <time>2026-03-27T15:39:11Z</time>
      </trkpt>
      <trkpt lat="43.49567" lon="6.57486">
        <ele>48</ele>
        <time>2026-03-27T15:39:12Z</time>
      </trkpt>
      <trkpt lat="43.49568" lon="6.57485">
        <ele>48</ele>
        <time>2026-03-27T15:39:13Z</time>
      </trkpt>
      <trkpt lat="43.49569" lon="6.57484">
        <ele>48.1</ele>
        <time>2026-03-27T15:39:14Z</time>
      </trkpt>
      <trkpt lat="43.49572" lon="6.57483">
        <ele>48.2</ele>
        <time>2026-03-27T15:39:15Z</time>
      </trkpt>
      <trkpt lat="43.49574" lon="6.57483">
        <ele>48.2</ele>
        <time>2026-03-27T15:39:16Z</time>
      </trkpt>
      <trkpt lat="43.49576" lon="6.57483">
        <ele>48.2</ele>
        <time>2026-03-27T15:39:17Z</time>
      </trkpt>
      <trkpt lat="43.49578" lon="6.57483">
        <ele>48.2</ele>
        <time>2026-03-27T15:39:18Z</time>
      </trkpt>
      <trkpt lat="43.49579" lon="6.57482">
        <ele>48.3</ele>
        <time>2026-03-27T15:39:19Z</time>
      </trkpt>
      <trkpt lat="43.49581" lon="6.57481">
        <ele>48.3</ele>
        <time>2026-03-27T15:39:20Z</time>
      </trkpt>
      <trkpt lat="43.49582" lon="6.57481">
        <ele>48.3</ele>
        <time>2026-03-27T15:39:21Z</time>
      </trkpt>
      <trkpt lat="43.49583" lon="6.5748">
        <ele>48.3</ele>
        <time>2026-03-27T15:39:22Z</time>
      </trkpt>
      <trkpt lat="43.49584" lon="6.5748">
        <ele>48.3</ele>
        <time>2026-03-27T15:39:23Z</time>
      </trkpt>
      <trkpt lat="43.49585" lon="6.57479">
        <ele>48.3</ele>
        <time>2026-03-27T15:39:24Z</time>
      </trkpt>
      <trkpt lat="43.49586" lon="6.57479">
        <ele>48.3</ele>
        <time>2026-03-27T15:39:25Z</time>
      </trkpt>
      <trkpt lat="43.49588" lon="6.57479">
        <ele>48.4</ele>
        <time>2026-03-27T15:39:26Z</time>
      </trkpt>
      <trkpt lat="43.49589" lon="6.5748">
        <ele>48.4</ele>
        <time>2026-03-27T15:39:27Z</time>
      </trkpt>
      <trkpt lat="43.4959" lon="6.5748">
        <ele>48.4</ele>
        <time>2026-03-27T15:39:28Z</time>
      </trkpt>
      <trkpt lat="43.49592" lon="6.57479">
        <ele>48.4</ele>
        <time>2026-03-27T15:39:29Z</time>
      </trkpt>
      <trkpt lat="43.49592" lon="6.57479">
        <ele>48.4</ele>
        <time>2026-03-27T15:39:30Z</time>
      </trkpt>
      <trkpt lat="43.49593" lon="6.57478">
        <ele>48.3</ele>
        <time>2026-03-27T15:39:31Z</time>
      </trkpt>
      <trkpt lat="43.49594" lon="6.57478">
        <ele>48.3</ele>
        <time>2026-03-27T15:39:32Z</time>
      </trkpt>
      <trkpt lat="43.49595" lon="6.57477">
        <ele>48.2</ele>
        <time>2026-03-27T15:39:33Z</time>
      </trkpt>
      <trkpt lat="43.49596" lon="6.57476">
        <ele>48.2</ele>
        <time>2026-03-27T15:39:34Z</time>
      </trkpt>
      <trkpt lat="43.49597" lon="6.57475">
        <ele>48.2</ele>
        <time>2026-03-27T15:39:35Z</time>
      </trkpt>
      <trkpt lat="43.49598" lon="6.57474">
        <ele>48.3</ele>
        <time>2026-03-27T15:39:36Z</time>
      </trkpt>
      <trkpt lat="43.49598" lon="6.57473">
        <ele>48.2</ele>
        <time>2026-03-27T15:39:37Z</time>
      </trkpt>
      <trkpt lat="43.49598" lon="6.57472">
        <ele>48.2</ele>
        <time>2026-03-27T15:39:38Z</time>
      </trkpt>
      <trkpt lat="43.49599" lon="6.57471">
        <ele>48.2</ele>
        <time>2026-03-27T15:39:39Z</time>
      </trkpt>
      <trkpt lat="43.49599" lon="6.5747">
        <ele>48.2</ele>
        <time>2026-03-27T15:39:40Z</time>
      </trkpt>
      <trkpt lat="43.49599" lon="6.5747">
        <ele>48.1</ele>
        <time>2026-03-27T15:39:41Z</time>
      </trkpt>
      <trkpt lat="43.496" lon="6.5747">
        <ele>48.2</ele>
        <time>2026-03-27T15:39:42Z</time>
      </trkpt>
      <trkpt lat="43.496" lon="6.5747">
        <ele>48.2</ele>
        <time>2026-03-27T15:39:43Z</time>
      </trkpt>
      <trkpt lat="43.49601" lon="6.5747">
        <ele>48.3</ele>
        <time>2026-03-27T15:39:44Z</time>
      </trkpt>
      <trkpt lat="43.49602" lon="6.57469">
        <ele>48.2</ele>
        <time>2026-03-27T15:39:45Z</time>
      </trkpt>
      <trkpt lat="43.49603" lon="6.57469">
        <ele>48.2</ele>
        <time>2026-03-27T15:39:46Z</time>
      </trkpt>
      <trkpt lat="43.49604" lon="6.57468">
        <ele>48.2</ele>
        <time>2026-03-27T15:39:47Z</time>
      </trkpt>
      <trkpt lat="43.49604" lon="6.57468">
        <ele>48.3</ele>
        <time>2026-03-27T15:39:48Z</time>
      </trkpt>
      <trkpt lat="43.49604" lon="6.57468">
        <ele>48.3</ele>
        <time>2026-03-27T15:39:49Z</time>
      </trkpt>
      <trkpt lat="43.49604" lon="6.57467">
        <ele>48.3</ele>
        <time>2026-03-27T15:39:50Z</time>
      </trkpt>
      <trkpt lat="43.49604" lon="6.57467">
        <ele>48.3</ele>
        <time>2026-03-27T15:39:51Z</time>
      </trkpt>
      <trkpt lat="43.49604" lon="6.57467">
        <ele>48.4</ele>
        <time>2026-03-27T15:39:52Z</time>
      </trkpt>
      <trkpt lat="43.49604" lon="6.57467">
        <ele>48.4</ele>
        <time>2026-03-27T15:39:53Z</time>
      </trkpt>
      <trkpt lat="43.49604" lon="6.57466">
        <ele>48.5</ele>
        <time>2026-03-27T15:39:54Z</time>
      </trkpt>
      <trkpt lat="43.49604" lon="6.57466">
        <ele>48.5</ele>
        <time>2026-03-27T15:39:55Z</time>
      </trkpt>
      <trkpt lat="43.49604" lon="6.57465">
        <ele>48.6</ele>
        <time>2026-03-27T15:39:56Z</time>
      </trkpt>
      <trkpt lat="43.49603" lon="6.57465">
        <ele>48.7</ele>
        <time>2026-03-27T15:39:57Z</time>
      </trkpt>
      <trkpt lat="43.49603" lon="6.57465">
        <ele>48.7</ele>
        <time>2026-03-27T15:39:58Z</time>
      </trkpt>
      <trkpt lat="43.49603" lon="6.57465">
        <ele>48.7</ele>
        <time>2026-03-27T15:39:59Z</time>
      </trkpt>
      <trkpt lat="43.49603" lon="6.57465">
        <ele>48.7</ele>
        <time>2026-03-27T15:40:00Z</time>
      </trkpt>
      <trkpt lat="43.49603" lon="6.57465">
        <ele>48.7</ele>
        <time>2026-03-27T15:40:01Z</time>
      </trkpt>
      <trkpt lat="43.49603" lon="6.57465">
        <ele>48.6</ele>
        <time>2026-03-27T15:40:02Z</time>
      </trkpt>
      <trkpt lat="43.49603" lon="6.57465">
        <ele>48.6</ele>
        <time>2026-03-27T15:40:03Z</time>
      </trkpt>
      <trkpt lat="43.49603" lon="6.57464">
        <ele>48.7</ele>
        <time>2026-03-27T15:40:04Z</time>
      </trkpt>
      <trkpt lat="43.49603" lon="6.57464">
        <ele>48.8</ele>
        <time>2026-03-27T15:40:05Z</time>
      </trkpt>
      <trkpt lat="43.49603" lon="6.57464">
        <ele>48.7</ele>
        <time>2026-03-27T15:40:06Z</time>
      </trkpt>
      <trkpt lat="43.49603" lon="6.57464">
        <ele>48.6</ele>
        <time>2026-03-27T15:40:07Z</time>
      </trkpt>
      <trkpt lat="43.49603" lon="6.57464">
        <ele>48.6</ele>
        <time>2026-03-27T15:40:08Z</time>
      </trkpt>
      <trkpt lat="43.49603" lon="6.57464">
        <ele>48.6</ele>
        <time>2026-03-27T15:40:09Z</time>
      </trkpt>
      <trkpt lat="43.49604" lon="6.57464">
        <ele>48.6</ele>
        <time>2026-03-27T15:40:10Z</time>
      </trkpt>
      <trkpt lat="43.49604" lon="6.57464">
        <ele>48.6</ele>
        <time>2026-03-27T15:40:11Z</time>
      </trkpt>
      <trkpt lat="43.49604" lon="6.57464">
        <ele>48.6</ele>
        <time>2026-03-27T15:40:12Z</time>
      </trkpt>
      <trkpt lat="43.49604" lon="6.57464">
        <ele>48.5</ele>
        <time>2026-03-27T15:40:13Z</time>
      </trkpt>
      <trkpt lat="43.49604" lon="6.57464">
        <ele>48.5</ele>
        <time>2026-03-27T15:40:14Z</time>
      </trkpt>
      <trkpt lat="43.49604" lon="6.57464">
        <ele>48.5</ele>
        <time>2026-03-27T15:40:15Z</time>
      </trkpt>
      <trkpt lat="43.49604" lon="6.57464">
        <ele>48.5</ele>
        <time>2026-03-27T15:40:16Z</time>
      </trkpt>
      <trkpt lat="43.49604" lon="6.57464">
        <ele>48.4</ele>
        <time>2026-03-27T15:40:17Z</time>
      </trkpt>
      <trkpt lat="43.49604" lon="6.57464">
        <ele>48.5</ele>
        <time>2026-03-27T15:40:18Z</time>
      </trkpt>
      <trkpt lat="43.49604" lon="6.57464">
        <ele>48.5</ele>
        <time>2026-03-27T15:40:19Z</time>
      </trkpt>
      <trkpt lat="43.49604" lon="6.57464">
        <ele>48.4</ele>
        <time>2026-03-27T15:40:20Z</time>
      </trkpt>
      <trkpt lat="43.49604" lon="6.57464">
        <ele>48.4</ele>
        <time>2026-03-27T15:40:21Z</time>
      </trkpt>
      <trkpt lat="43.49605" lon="6.57463">
        <ele>48.4</ele>
        <time>2026-03-27T15:40:22Z</time>
      </trkpt>
      <trkpt lat="43.49605" lon="6.57463">
        <ele>48.3</ele>
        <time>2026-03-27T15:40:23Z</time>
      </trkpt>
      <trkpt lat="43.49605" lon="6.57463">
        <ele>48.2</ele>
        <time>2026-03-27T15:40:24Z</time>
      </trkpt>
      <trkpt lat="43.49605" lon="6.57463">
        <ele>48.2</ele>
        <time>2026-03-27T15:40:25Z</time>
      </trkpt>
      <trkpt lat="43.49605" lon="6.57464">
        <ele>48.2</ele>
        <time>2026-03-27T15:40:26Z</time>
      </trkpt>
      <trkpt lat="43.49605" lon="6.57464">
        <ele>48.1</ele>
        <time>2026-03-27T15:40:27Z</time>
      </trkpt>
      <trkpt lat="43.49606" lon="6.57464">
        <ele>48.1</ele>
        <time>2026-03-27T15:40:28Z</time>
      </trkpt>
      <trkpt lat="43.49606" lon="6.57464">
        <ele>48.2</ele>
        <time>2026-03-27T15:40:29Z</time>
      </trkpt>
      <trkpt lat="43.49606" lon="6.57464">
        <ele>48.1</ele>
        <time>2026-03-27T15:40:30Z</time>
      </trkpt>
      <trkpt lat="43.49606" lon="6.57464">
        <ele>48.1</ele>
        <time>2026-03-27T15:40:31Z</time>
      </trkpt>
      <trkpt lat="43.49606" lon="6.57464">
        <ele>48.2</ele>
        <time>2026-03-27T15:40:32Z</time>
      </trkpt>
      <trkpt lat="43.49606" lon="6.57464">
        <ele>48.1</ele>
        <time>2026-03-27T15:40:33Z</time>
      </trkpt>
      <trkpt lat="43.49606" lon="6.57464">
        <ele>48.1</ele>
        <time>2026-03-27T15:40:34Z</time>
      </trkpt>
      <trkpt lat="43.49606" lon="6.57464">
        <ele>48</ele>
        <time>2026-03-27T15:40:35Z</time>
      </trkpt>
      <trkpt lat="43.49606" lon="6.57464">
        <ele>48</ele>
        <time>2026-03-27T15:40:36Z</time>
      </trkpt>
      <trkpt lat="43.49606" lon="6.57464">
        <ele>47.8</ele>
        <time>2026-03-27T15:40:36Z</time>
      </trkpt>
      <trkpt lat="43.49606" lon="6.57464">
        <ele>47.8</ele>
        <time>2026-03-27T15:40:36Z</time>
      </trkpt>
    </trkseg>
  </trk>
</gpx>